<?xml version="1.0" encoding="UTF-8" standalone="no" ?>
<gpx xmlns="http://www.topografix.com/GPX/1/1" xmlns:xsi="http://www.w3.org/2001/XMLSchema-instance" xsi:schemaLocation="http://www.topografix.com/GPX/1/1 http://www.topografix.com/GPX/1/1/gpx.xsd" version="1.1" creator="VisuGPX - https://www.visugpx.com">
  <metadata>
    <name>20210710 PUY DU PAS ROUBINOUS à 08:50</name>
    <desc><![CDATA[Beau circuit passant par le beau lac Lignin et emmenant au sommet du Puy du Pas Roubinous. La redescente très raide par la crête est une option réservée aux randonneurs expérimentés. ]]></desc>
  </metadata>
  <trk>
    <name><![CDATA[20210710 PUY DU PAS ROUBINOUS à 08:50]]></name>
    <trkseg>
      <trkpt lat="44.13338" lon="6.74248">
        <ele>1439.4825196198</ele>
        <time>2021-07-10T06:50:30Z</time>
      </trkpt>
      <trkpt lat="44.13338" lon="6.74248">
        <ele>1439.4825196198</ele>
        <time>2021-07-10T06:50:36Z</time>
      </trkpt>
      <trkpt lat="44.13321" lon="6.74241">
        <ele>1432.4833413165</ele>
        <time>2021-07-10T06:50:38Z</time>
      </trkpt>
      <trkpt lat="44.13319" lon="6.7424">
        <ele>1423.4834236465</ele>
        <time>2021-07-10T06:50:39Z</time>
      </trkpt>
      <trkpt lat="44.13319" lon="6.7424">
        <ele>1423.4834236465</ele>
        <time>2021-07-10T06:50:45Z</time>
      </trkpt>
      <trkpt lat="44.13319" lon="6.74241">
        <ele>1422.483427198</ele>
        <time>2021-07-10T06:50:46Z</time>
      </trkpt>
      <trkpt lat="44.13318" lon="6.74241">
        <ele>1421.4834522649</ele>
        <time>2021-07-10T06:50:48Z</time>
      </trkpt>
      <trkpt lat="44.13317" lon="6.74242">
        <ele>1422.4834726863</ele>
        <time>2021-07-10T06:51:10Z</time>
      </trkpt>
      <trkpt lat="44.13317" lon="6.74241">
        <ele>1423.4835180583</ele>
        <time>2021-07-10T06:51:11Z</time>
      </trkpt>
      <trkpt lat="44.13317" lon="6.7424">
        <ele>1423.4835176546</ele>
        <time>2021-07-10T06:51:12Z</time>
      </trkpt>
      <trkpt lat="44.13317" lon="6.74238">
        <ele>1421.4835385529</ele>
        <time>2021-07-10T06:51:13Z</time>
      </trkpt>
      <trkpt lat="44.13318" lon="6.74238">
        <ele>1418.4835349272</ele>
        <time>2021-07-10T06:51:16Z</time>
      </trkpt>
      <trkpt lat="44.13318" lon="6.74237">
        <ele>1417.4835295783</ele>
        <time>2021-07-10T06:51:20Z</time>
      </trkpt>
      <trkpt lat="44.13318" lon="6.74236">
        <ele>1417.4835470869</ele>
        <time>2021-07-10T06:51:21Z</time>
      </trkpt>
      <trkpt lat="44.13319" lon="6.74236">
        <ele>1417.4835386434</ele>
        <time>2021-07-10T06:51:30Z</time>
      </trkpt>
      <trkpt lat="44.13319" lon="6.74234">
        <ele>1416.4835652281</ele>
        <time>2021-07-10T06:51:31Z</time>
      </trkpt>
      <trkpt lat="44.13319" lon="6.74233">
        <ele>1416.4835744253</ele>
        <time>2021-07-10T06:51:42Z</time>
      </trkpt>
      <trkpt lat="44.1332" lon="6.74231">
        <ele>1415.4835858062</ele>
        <time>2021-07-10T06:51:43Z</time>
      </trkpt>
      <trkpt lat="44.1332" lon="6.7423">
        <ele>1414.4836133812</ele>
        <time>2021-07-10T06:51:48Z</time>
      </trkpt>
      <trkpt lat="44.1332" lon="6.74229">
        <ele>1413.4836305428</ele>
        <time>2021-07-10T06:51:49Z</time>
      </trkpt>
      <trkpt lat="44.1332" lon="6.74228">
        <ele>1412.483658201</ele>
        <time>2021-07-10T06:51:50Z</time>
      </trkpt>
      <trkpt lat="44.1332" lon="6.74227">
        <ele>1412.4836855023</ele>
        <time>2021-07-10T06:51:51Z</time>
      </trkpt>
      <trkpt lat="44.13319" lon="6.74227">
        <ele>1412.4837116221</ele>
        <time>2021-07-10T06:51:52Z</time>
      </trkpt>
      <trkpt lat="44.13319" lon="6.74226">
        <ele>1412.4837523589</ele>
        <time>2021-07-10T06:51:53Z</time>
      </trkpt>
      <trkpt lat="44.13318" lon="6.74225">
        <ele>1412.4838152783</ele>
        <time>2021-07-10T06:51:54Z</time>
      </trkpt>
      <trkpt lat="44.13317" lon="6.74224">
        <ele>1412.4838615774</ele>
        <time>2021-07-10T06:51:55Z</time>
      </trkpt>
      <trkpt lat="44.13316" lon="6.74222">
        <ele>1412.4839209467</ele>
        <time>2021-07-10T06:51:56Z</time>
      </trkpt>
      <trkpt lat="44.13316" lon="6.74221">
        <ele>1412.4839635395</ele>
        <time>2021-07-10T06:51:57Z</time>
      </trkpt>
      <trkpt lat="44.13315" lon="6.7422">
        <ele>1412.4840344839</ele>
        <time>2021-07-10T06:51:58Z</time>
      </trkpt>
      <trkpt lat="44.13312" lon="6.74218">
        <ele>1412.4841549842</ele>
        <time>2021-07-10T06:52:00Z</time>
      </trkpt>
      <trkpt lat="44.13312" lon="6.74219">
        <ele>1411.4841766508</ele>
        <time>2021-07-10T06:52:01Z</time>
      </trkpt>
      <trkpt lat="44.13311" lon="6.74218">
        <ele>1411.4842135746</ele>
        <time>2021-07-10T06:52:02Z</time>
      </trkpt>
      <trkpt lat="44.1331" lon="6.74218">
        <ele>1412.4842500464</ele>
        <time>2021-07-10T06:52:03Z</time>
      </trkpt>
      <trkpt lat="44.13309" lon="6.74218">
        <ele>1412.4842888208</ele>
        <time>2021-07-10T06:52:04Z</time>
      </trkpt>
      <trkpt lat="44.13308" lon="6.74217">
        <ele>1412.4843330512</ele>
        <time>2021-07-10T06:52:05Z</time>
      </trkpt>
      <trkpt lat="44.13307" lon="6.74217">
        <ele>1412.4843752034</ele>
        <time>2021-07-10T06:52:06Z</time>
      </trkpt>
      <trkpt lat="44.13306" lon="6.74217">
        <ele>1412.4844242288</ele>
        <time>2021-07-10T06:52:07Z</time>
      </trkpt>
      <trkpt lat="44.13304" lon="6.74217">
        <ele>1414.4845071772</ele>
        <time>2021-07-10T06:52:09Z</time>
      </trkpt>
      <trkpt lat="44.13303" lon="6.74216">
        <ele>1414.4845514314</ele>
        <time>2021-07-10T06:52:10Z</time>
      </trkpt>
      <trkpt lat="44.13302" lon="6.74216">
        <ele>1414.4845909381</ele>
        <time>2021-07-10T06:52:11Z</time>
      </trkpt>
      <trkpt lat="44.13301" lon="6.74216">
        <ele>1414.4846262938</ele>
        <time>2021-07-10T06:52:12Z</time>
      </trkpt>
      <trkpt lat="44.133" lon="6.74216">
        <ele>1414.4846705873</ele>
        <time>2021-07-10T06:52:13Z</time>
      </trkpt>
      <trkpt lat="44.13298" lon="6.74217">
        <ele>1414.4847651713</ele>
        <time>2021-07-10T06:52:15Z</time>
      </trkpt>
      <trkpt lat="44.13296" lon="6.74217">
        <ele>1415.4848263931</ele>
        <time>2021-07-10T06:52:16Z</time>
      </trkpt>
      <trkpt lat="44.13295" lon="6.74217">
        <ele>1415.4848764877</ele>
        <time>2021-07-10T06:52:17Z</time>
      </trkpt>
      <trkpt lat="44.13291" lon="6.74218">
        <ele>1416.4849840058</ele>
        <time>2021-07-10T06:52:19Z</time>
      </trkpt>
      <trkpt lat="44.1329" lon="6.74218">
        <ele>1416.4850153237</ele>
        <time>2021-07-10T06:52:20Z</time>
      </trkpt>
      <trkpt lat="44.13289" lon="6.74218">
        <ele>1417.4850649053</ele>
        <time>2021-07-10T06:52:21Z</time>
      </trkpt>
      <trkpt lat="44.13287" lon="6.74218">
        <ele>1417.4851394706</ele>
        <time>2021-07-10T06:52:23Z</time>
      </trkpt>
      <trkpt lat="44.13284" lon="6.7422">
        <ele>1417.4852053899</ele>
        <time>2021-07-10T06:52:25Z</time>
      </trkpt>
      <trkpt lat="44.13283" lon="6.74222">
        <ele>1417.4852206277</ele>
        <time>2021-07-10T06:52:26Z</time>
      </trkpt>
      <trkpt lat="44.13281" lon="6.74223">
        <ele>1417.4852635473</ele>
        <time>2021-07-10T06:52:28Z</time>
      </trkpt>
      <trkpt lat="44.13279" lon="6.74224">
        <ele>1417.4853449247</ele>
        <time>2021-07-10T06:52:30Z</time>
      </trkpt>
      <trkpt lat="44.13278" lon="6.74224">
        <ele>1418.4853805385</ele>
        <time>2021-07-10T06:52:31Z</time>
      </trkpt>
      <trkpt lat="44.13277" lon="6.74224">
        <ele>1418.4854087049</ele>
        <time>2021-07-10T06:52:32Z</time>
      </trkpt>
      <trkpt lat="44.13275" lon="6.74225">
        <ele>1417.4854840045</ele>
        <time>2021-07-10T06:52:34Z</time>
      </trkpt>
      <trkpt lat="44.13273" lon="6.74225">
        <ele>1418.4855316814</ele>
        <time>2021-07-10T06:52:35Z</time>
      </trkpt>
      <trkpt lat="44.13272" lon="6.74226">
        <ele>1418.4855573312</ele>
        <time>2021-07-10T06:52:36Z</time>
      </trkpt>
      <trkpt lat="44.13271" lon="6.74227">
        <ele>1418.4855837245</ele>
        <time>2021-07-10T06:52:37Z</time>
      </trkpt>
      <trkpt lat="44.1327" lon="6.74227">
        <ele>1418.4856218299</ele>
        <time>2021-07-10T06:52:38Z</time>
      </trkpt>
      <trkpt lat="44.13269" lon="6.74227">
        <ele>1418.4856653749</ele>
        <time>2021-07-10T06:52:39Z</time>
      </trkpt>
      <trkpt lat="44.13267" lon="6.74228">
        <ele>1418.4857032891</ele>
        <time>2021-07-10T06:52:40Z</time>
      </trkpt>
      <trkpt lat="44.13266" lon="6.74228">
        <ele>1418.4857280463</ele>
        <time>2021-07-10T06:52:41Z</time>
      </trkpt>
      <trkpt lat="44.13265" lon="6.74228">
        <ele>1418.4857733502</ele>
        <time>2021-07-10T06:52:42Z</time>
      </trkpt>
      <trkpt lat="44.13264" lon="6.74229">
        <ele>1418.485808122</ele>
        <time>2021-07-10T06:52:43Z</time>
      </trkpt>
      <trkpt lat="44.13263" lon="6.7423">
        <ele>1419.4858499429</ele>
        <time>2021-07-10T06:52:44Z</time>
      </trkpt>
      <trkpt lat="44.13261" lon="6.7423">
        <ele>1419.485891364</ele>
        <time>2021-07-10T06:52:45Z</time>
      </trkpt>
      <trkpt lat="44.1326" lon="6.74231">
        <ele>1419.4859241826</ele>
        <time>2021-07-10T06:52:46Z</time>
      </trkpt>
      <trkpt lat="44.13258" lon="6.74232">
        <ele>1419.4859680453</ele>
        <time>2021-07-10T06:52:48Z</time>
      </trkpt>
      <trkpt lat="44.13257" lon="6.74232">
        <ele>1419.486000866</ele>
        <time>2021-07-10T06:52:49Z</time>
      </trkpt>
      <trkpt lat="44.13256" lon="6.74233">
        <ele>1419.4860294438</ele>
        <time>2021-07-10T06:52:50Z</time>
      </trkpt>
      <trkpt lat="44.13255" lon="6.74234">
        <ele>1419.4860744127</ele>
        <time>2021-07-10T06:52:51Z</time>
      </trkpt>
      <trkpt lat="44.13254" lon="6.74234">
        <ele>1420.4861006401</ele>
        <time>2021-07-10T06:52:52Z</time>
      </trkpt>
      <trkpt lat="44.13252" lon="6.74235">
        <ele>1419.4861313438</ele>
        <time>2021-07-10T06:52:53Z</time>
      </trkpt>
      <trkpt lat="44.1325" lon="6.74237">
        <ele>1419.4861921461</ele>
        <time>2021-07-10T06:52:55Z</time>
      </trkpt>
      <trkpt lat="44.13249" lon="6.74237">
        <ele>1419.4862276751</ele>
        <time>2021-07-10T06:52:56Z</time>
      </trkpt>
      <trkpt lat="44.13248" lon="6.74238">
        <ele>1419.4862483846</ele>
        <time>2021-07-10T06:52:57Z</time>
      </trkpt>
      <trkpt lat="44.13247" lon="6.74238">
        <ele>1420.4862689907</ele>
        <time>2021-07-10T06:52:58Z</time>
      </trkpt>
      <trkpt lat="44.13246" lon="6.74239">
        <ele>1419.4862936957</ele>
        <time>2021-07-10T06:52:59Z</time>
      </trkpt>
      <trkpt lat="44.13245" lon="6.7424">
        <ele>1419.4863134097</ele>
        <time>2021-07-10T06:53:00Z</time>
      </trkpt>
      <trkpt lat="44.13244" lon="6.7424">
        <ele>1419.4863415143</ele>
        <time>2021-07-10T06:53:01Z</time>
      </trkpt>
      <trkpt lat="44.13243" lon="6.74241">
        <ele>1419.4863629636</ele>
        <time>2021-07-10T06:53:02Z</time>
      </trkpt>
      <trkpt lat="44.13241" lon="6.74243">
        <ele>1419.4864170637</ele>
        <time>2021-07-10T06:53:03Z</time>
      </trkpt>
      <trkpt lat="44.13239" lon="6.74244">
        <ele>1419.4864530633</ele>
        <time>2021-07-10T06:53:04Z</time>
      </trkpt>
      <trkpt lat="44.13237" lon="6.74244">
        <ele>1419.4865121524</ele>
        <time>2021-07-10T06:53:05Z</time>
      </trkpt>
      <trkpt lat="44.13236" lon="6.74245">
        <ele>1419.4865548294</ele>
        <time>2021-07-10T06:53:06Z</time>
      </trkpt>
      <trkpt lat="44.13233" lon="6.74247">
        <ele>1419.4866017109</ele>
        <time>2021-07-10T06:53:08Z</time>
      </trkpt>
      <trkpt lat="44.13232" lon="6.74248">
        <ele>1419.4866186532</ele>
        <time>2021-07-10T06:53:09Z</time>
      </trkpt>
      <trkpt lat="44.13232" lon="6.74249">
        <ele>1418.4866314158</ele>
        <time>2021-07-10T06:53:10Z</time>
      </trkpt>
      <trkpt lat="44.13231" lon="6.74251">
        <ele>1419.4866283913</ele>
        <time>2021-07-10T06:53:11Z</time>
      </trkpt>
      <trkpt lat="44.1323" lon="6.74252">
        <ele>1419.4866284896</ele>
        <time>2021-07-10T06:53:12Z</time>
      </trkpt>
      <trkpt lat="44.13229" lon="6.74254">
        <ele>1419.4866312822</ele>
        <time>2021-07-10T06:53:13Z</time>
      </trkpt>
      <trkpt lat="44.13228" lon="6.74257">
        <ele>1419.486632621</ele>
        <time>2021-07-10T06:53:15Z</time>
      </trkpt>
      <trkpt lat="44.13227" lon="6.74258">
        <ele>1420.4866421986</ele>
        <time>2021-07-10T06:53:16Z</time>
      </trkpt>
      <trkpt lat="44.13224" lon="6.7426">
        <ele>1420.4866797816</ele>
        <time>2021-07-10T06:53:18Z</time>
      </trkpt>
      <trkpt lat="44.13223" lon="6.74261">
        <ele>1420.4866954326</ele>
        <time>2021-07-10T06:53:19Z</time>
      </trkpt>
      <trkpt lat="44.13223" lon="6.74262">
        <ele>1420.4867063649</ele>
        <time>2021-07-10T06:53:20Z</time>
      </trkpt>
      <trkpt lat="44.13222" lon="6.74264">
        <ele>1421.4867072201</ele>
        <time>2021-07-10T06:53:21Z</time>
      </trkpt>
      <trkpt lat="44.13221" lon="6.74265">
        <ele>1421.4867229956</ele>
        <time>2021-07-10T06:53:22Z</time>
      </trkpt>
      <trkpt lat="44.1322" lon="6.74266">
        <ele>1421.4867255991</ele>
        <time>2021-07-10T06:53:23Z</time>
      </trkpt>
      <trkpt lat="44.13218" lon="6.74268">
        <ele>1421.4867681883</ele>
        <time>2021-07-10T06:53:25Z</time>
      </trkpt>
      <trkpt lat="44.13217" lon="6.74269">
        <ele>1421.486776121</ele>
        <time>2021-07-10T06:53:26Z</time>
      </trkpt>
      <trkpt lat="44.13216" lon="6.7427">
        <ele>1421.4867892012</ele>
        <time>2021-07-10T06:53:27Z</time>
      </trkpt>
      <trkpt lat="44.13215" lon="6.74271">
        <ele>1421.4868139754</ele>
        <time>2021-07-10T06:53:28Z</time>
      </trkpt>
      <trkpt lat="44.13214" lon="6.74273">
        <ele>1421.4868116036</ele>
        <time>2021-07-10T06:53:29Z</time>
      </trkpt>
      <trkpt lat="44.13213" lon="6.74275">
        <ele>1421.4867979553</ele>
        <time>2021-07-10T06:53:30Z</time>
      </trkpt>
      <trkpt lat="44.13213" lon="6.74276">
        <ele>1421.4868034903</ele>
        <time>2021-07-10T06:53:31Z</time>
      </trkpt>
      <trkpt lat="44.13211" lon="6.74279">
        <ele>1421.486829233</ele>
        <time>2021-07-10T06:53:33Z</time>
      </trkpt>
      <trkpt lat="44.13209" lon="6.74281">
        <ele>1422.4868278409</ele>
        <time>2021-07-10T06:53:35Z</time>
      </trkpt>
      <trkpt lat="44.13209" lon="6.74282">
        <ele>1422.4868212286</ele>
        <time>2021-07-10T06:53:36Z</time>
      </trkpt>
      <trkpt lat="44.13208" lon="6.74284">
        <ele>1422.4868178309</ele>
        <time>2021-07-10T06:53:37Z</time>
      </trkpt>
      <trkpt lat="44.13207" lon="6.74286">
        <ele>1422.4868278705</ele>
        <time>2021-07-10T06:53:38Z</time>
      </trkpt>
      <trkpt lat="44.13206" lon="6.74287">
        <ele>1422.4868311629</ele>
        <time>2021-07-10T06:53:39Z</time>
      </trkpt>
      <trkpt lat="44.13205" lon="6.74289">
        <ele>1422.4868158868</ele>
        <time>2021-07-10T06:53:40Z</time>
      </trkpt>
      <trkpt lat="44.13204" lon="6.74292">
        <ele>1422.4867939929</ele>
        <time>2021-07-10T06:53:41Z</time>
      </trkpt>
      <trkpt lat="44.13204" lon="6.74294">
        <ele>1423.4867597436</ele>
        <time>2021-07-10T06:53:42Z</time>
      </trkpt>
      <trkpt lat="44.13204" lon="6.74295">
        <ele>1423.4867454072</ele>
        <time>2021-07-10T06:53:43Z</time>
      </trkpt>
      <trkpt lat="44.13203" lon="6.74297">
        <ele>1423.4867202774</ele>
        <time>2021-07-10T06:53:44Z</time>
      </trkpt>
      <trkpt lat="44.13203" lon="6.74298">
        <ele>1423.4866979319</ele>
        <time>2021-07-10T06:53:45Z</time>
      </trkpt>
      <trkpt lat="44.13203" lon="6.743">
        <ele>1424.4866775229</ele>
        <time>2021-07-10T06:53:46Z</time>
      </trkpt>
      <trkpt lat="44.13203" lon="6.74303">
        <ele>1424.4866152937</ele>
        <time>2021-07-10T06:53:48Z</time>
      </trkpt>
      <trkpt lat="44.13203" lon="6.74307">
        <ele>1424.4865382984</ele>
        <time>2021-07-10T06:53:50Z</time>
      </trkpt>
      <trkpt lat="44.13203" lon="6.74309">
        <ele>1424.4864891289</ele>
        <time>2021-07-10T06:53:51Z</time>
      </trkpt>
      <trkpt lat="44.13203" lon="6.74311">
        <ele>1424.4864490254</ele>
        <time>2021-07-10T06:53:52Z</time>
      </trkpt>
      <trkpt lat="44.13203" lon="6.74315">
        <ele>1425.4863638191</ele>
        <time>2021-07-10T06:53:54Z</time>
      </trkpt>
      <trkpt lat="44.13203" lon="6.74317">
        <ele>1425.4863308515</ele>
        <time>2021-07-10T06:53:55Z</time>
      </trkpt>
      <trkpt lat="44.13202" lon="6.74318">
        <ele>1425.4863084758</ele>
        <time>2021-07-10T06:53:56Z</time>
      </trkpt>
      <trkpt lat="44.13202" lon="6.74321">
        <ele>1425.4862761029</ele>
        <time>2021-07-10T06:53:57Z</time>
      </trkpt>
      <trkpt lat="44.13202" lon="6.74322">
        <ele>1425.4862429479</ele>
        <time>2021-07-10T06:53:58Z</time>
      </trkpt>
      <trkpt lat="44.13202" lon="6.74324">
        <ele>1425.4861883762</ele>
        <time>2021-07-10T06:53:59Z</time>
      </trkpt>
      <trkpt lat="44.13203" lon="6.74326">
        <ele>1426.4861375024</ele>
        <time>2021-07-10T06:54:00Z</time>
      </trkpt>
      <trkpt lat="44.13203" lon="6.74328">
        <ele>1426.4860987682</ele>
        <time>2021-07-10T06:54:01Z</time>
      </trkpt>
      <trkpt lat="44.13203" lon="6.74329">
        <ele>1426.4860683239</ele>
        <time>2021-07-10T06:54:02Z</time>
      </trkpt>
      <trkpt lat="44.13203" lon="6.74333">
        <ele>1426.4859871233</ele>
        <time>2021-07-10T06:54:04Z</time>
      </trkpt>
      <trkpt lat="44.13203" lon="6.74335">
        <ele>1426.4859388691</ele>
        <time>2021-07-10T06:54:05Z</time>
      </trkpt>
      <trkpt lat="44.13203" lon="6.74337">
        <ele>1426.4858928181</ele>
        <time>2021-07-10T06:54:06Z</time>
      </trkpt>
      <trkpt lat="44.13203" lon="6.74338">
        <ele>1426.4858482754</ele>
        <time>2021-07-10T06:54:07Z</time>
      </trkpt>
      <trkpt lat="44.13204" lon="6.7434">
        <ele>1426.4858006866</ele>
        <time>2021-07-10T06:54:08Z</time>
      </trkpt>
      <trkpt lat="44.13204" lon="6.74341">
        <ele>1426.4857576371</ele>
        <time>2021-07-10T06:54:09Z</time>
      </trkpt>
      <trkpt lat="44.13204" lon="6.74343">
        <ele>1426.4857111294</ele>
        <time>2021-07-10T06:54:10Z</time>
      </trkpt>
      <trkpt lat="44.13204" lon="6.74345">
        <ele>1426.4856691057</ele>
        <time>2021-07-10T06:54:11Z</time>
      </trkpt>
      <trkpt lat="44.13204" lon="6.74347">
        <ele>1426.4856107758</ele>
        <time>2021-07-10T06:54:12Z</time>
      </trkpt>
      <trkpt lat="44.13205" lon="6.74349">
        <ele>1426.4855634048</ele>
        <time>2021-07-10T06:54:13Z</time>
      </trkpt>
      <trkpt lat="44.13205" lon="6.74353">
        <ele>1426.4854895204</ele>
        <time>2021-07-10T06:54:15Z</time>
      </trkpt>
      <trkpt lat="44.13205" lon="6.74355">
        <ele>1426.4854522101</ele>
        <time>2021-07-10T06:54:16Z</time>
      </trkpt>
      <trkpt lat="44.13205" lon="6.74357">
        <ele>1426.4854021668</ele>
        <time>2021-07-10T06:54:17Z</time>
      </trkpt>
      <trkpt lat="44.13205" lon="6.74361">
        <ele>1426.4852898536</ele>
        <time>2021-07-10T06:54:19Z</time>
      </trkpt>
      <trkpt lat="44.13206" lon="6.74363">
        <ele>1426.485233736</ele>
        <time>2021-07-10T06:54:20Z</time>
      </trkpt>
      <trkpt lat="44.13206" lon="6.74365">
        <ele>1426.4851898723</ele>
        <time>2021-07-10T06:54:21Z</time>
      </trkpt>
      <trkpt lat="44.13206" lon="6.74367">
        <ele>1427.4851428588</ele>
        <time>2021-07-10T06:54:22Z</time>
      </trkpt>
      <trkpt lat="44.13206" lon="6.74369">
        <ele>1427.4850970575</ele>
        <time>2021-07-10T06:54:23Z</time>
      </trkpt>
      <trkpt lat="44.13206" lon="6.74371">
        <ele>1426.4850775164</ele>
        <time>2021-07-10T06:54:24Z</time>
      </trkpt>
      <trkpt lat="44.13205" lon="6.74372">
        <ele>1426.4850474499</ele>
        <time>2021-07-10T06:54:25Z</time>
      </trkpt>
      <trkpt lat="44.13205" lon="6.74374">
        <ele>1426.4850136915</ele>
        <time>2021-07-10T06:54:26Z</time>
      </trkpt>
      <trkpt lat="44.13205" lon="6.74376">
        <ele>1426.4849786663</ele>
        <time>2021-07-10T06:54:27Z</time>
      </trkpt>
      <trkpt lat="44.13205" lon="6.74378">
        <ele>1426.484943097</ele>
        <time>2021-07-10T06:54:28Z</time>
      </trkpt>
      <trkpt lat="44.13204" lon="6.74382">
        <ele>1426.4848847688</ele>
        <time>2021-07-10T06:54:30Z</time>
      </trkpt>
      <trkpt lat="44.13204" lon="6.74383">
        <ele>1426.4848616382</ele>
        <time>2021-07-10T06:54:31Z</time>
      </trkpt>
      <trkpt lat="44.13204" lon="6.74385">
        <ele>1426.4848127783</ele>
        <time>2021-07-10T06:54:33Z</time>
      </trkpt>
      <trkpt lat="44.13204" lon="6.74387">
        <ele>1426.4847990277</ele>
        <time>2021-07-10T06:54:34Z</time>
      </trkpt>
      <trkpt lat="44.13204" lon="6.74389">
        <ele>1426.4847770755</ele>
        <time>2021-07-10T06:54:35Z</time>
      </trkpt>
      <trkpt lat="44.13203" lon="6.7439">
        <ele>1426.4847662892</ele>
        <time>2021-07-10T06:54:36Z</time>
      </trkpt>
      <trkpt lat="44.13202" lon="6.74392">
        <ele>1426.4847776917</ele>
        <time>2021-07-10T06:54:37Z</time>
      </trkpt>
      <trkpt lat="44.132" lon="6.74395">
        <ele>1426.4847816441</ele>
        <time>2021-07-10T06:54:39Z</time>
      </trkpt>
      <trkpt lat="44.13199" lon="6.74396">
        <ele>1427.4848060543</ele>
        <time>2021-07-10T06:54:40Z</time>
      </trkpt>
      <trkpt lat="44.13198" lon="6.74397">
        <ele>1426.4848099682</ele>
        <time>2021-07-10T06:54:41Z</time>
      </trkpt>
      <trkpt lat="44.13197" lon="6.74398">
        <ele>1426.4848198367</ele>
        <time>2021-07-10T06:54:42Z</time>
      </trkpt>
      <trkpt lat="44.13195" lon="6.744">
        <ele>1426.4848657914</ele>
        <time>2021-07-10T06:54:44Z</time>
      </trkpt>
      <trkpt lat="44.13194" lon="6.74401">
        <ele>1427.4848696377</ele>
        <time>2021-07-10T06:54:45Z</time>
      </trkpt>
      <trkpt lat="44.13194" lon="6.74403">
        <ele>1427.4848741053</ele>
        <time>2021-07-10T06:54:46Z</time>
      </trkpt>
      <trkpt lat="44.13193" lon="6.74404">
        <ele>1426.4848895892</ele>
        <time>2021-07-10T06:54:47Z</time>
      </trkpt>
      <trkpt lat="44.13192" lon="6.74405">
        <ele>1426.4849017288</ele>
        <time>2021-07-10T06:54:48Z</time>
      </trkpt>
      <trkpt lat="44.13191" lon="6.74406">
        <ele>1427.4849117</ele>
        <time>2021-07-10T06:54:49Z</time>
      </trkpt>
      <trkpt lat="44.1319" lon="6.74407">
        <ele>1427.4849144126</ele>
        <time>2021-07-10T06:54:50Z</time>
      </trkpt>
      <trkpt lat="44.13189" lon="6.74409">
        <ele>1427.4849321551</ele>
        <time>2021-07-10T06:54:51Z</time>
      </trkpt>
      <trkpt lat="44.13186" lon="6.7441">
        <ele>1426.4850040151</ele>
        <time>2021-07-10T06:54:53Z</time>
      </trkpt>
      <trkpt lat="44.13185" lon="6.74411">
        <ele>1427.4850158463</ele>
        <time>2021-07-10T06:54:54Z</time>
      </trkpt>
      <trkpt lat="44.13184" lon="6.74412">
        <ele>1427.4850344386</ele>
        <time>2021-07-10T06:54:55Z</time>
      </trkpt>
      <trkpt lat="44.13183" lon="6.74412">
        <ele>1427.4850646619</ele>
        <time>2021-07-10T06:54:56Z</time>
      </trkpt>
      <trkpt lat="44.13182" lon="6.74413">
        <ele>1427.4850825904</ele>
        <time>2021-07-10T06:54:57Z</time>
      </trkpt>
      <trkpt lat="44.13181" lon="6.74415">
        <ele>1427.4850959266</ele>
        <time>2021-07-10T06:54:58Z</time>
      </trkpt>
      <trkpt lat="44.1318" lon="6.74416">
        <ele>1427.4851210463</ele>
        <time>2021-07-10T06:54:59Z</time>
      </trkpt>
      <trkpt lat="44.13179" lon="6.74417">
        <ele>1427.4851548658</ele>
        <time>2021-07-10T06:55:00Z</time>
      </trkpt>
      <trkpt lat="44.13177" lon="6.74418">
        <ele>1427.4851827506</ele>
        <time>2021-07-10T06:55:01Z</time>
      </trkpt>
      <trkpt lat="44.13176" lon="6.74419">
        <ele>1426.4852058637</ele>
        <time>2021-07-10T06:55:02Z</time>
      </trkpt>
      <trkpt lat="44.13175" lon="6.7442">
        <ele>1426.4852191317</ele>
        <time>2021-07-10T06:55:03Z</time>
      </trkpt>
      <trkpt lat="44.13174" lon="6.74422">
        <ele>1426.4852255048</ele>
        <time>2021-07-10T06:55:04Z</time>
      </trkpt>
      <trkpt lat="44.13173" lon="6.74423">
        <ele>1426.4852279174</ele>
        <time>2021-07-10T06:55:05Z</time>
      </trkpt>
      <trkpt lat="44.13173" lon="6.74424">
        <ele>1425.4852255275</ele>
        <time>2021-07-10T06:55:06Z</time>
      </trkpt>
      <trkpt lat="44.13172" lon="6.74426">
        <ele>1425.4852177415</ele>
        <time>2021-07-10T06:55:07Z</time>
      </trkpt>
      <trkpt lat="44.1317" lon="6.74428">
        <ele>1425.485242385</ele>
        <time>2021-07-10T06:55:09Z</time>
      </trkpt>
      <trkpt lat="44.1317" lon="6.74429">
        <ele>1425.4852554097</ele>
        <time>2021-07-10T06:55:10Z</time>
      </trkpt>
      <trkpt lat="44.13169" lon="6.7443">
        <ele>1425.4852592026</ele>
        <time>2021-07-10T06:55:11Z</time>
      </trkpt>
      <trkpt lat="44.13168" lon="6.74431">
        <ele>1425.4852464042</ele>
        <time>2021-07-10T06:55:12Z</time>
      </trkpt>
      <trkpt lat="44.13167" lon="6.74433">
        <ele>1425.4852596109</ele>
        <time>2021-07-10T06:55:13Z</time>
      </trkpt>
      <trkpt lat="44.13166" lon="6.74434">
        <ele>1425.4852857674</ele>
        <time>2021-07-10T06:55:14Z</time>
      </trkpt>
      <trkpt lat="44.13165" lon="6.74435">
        <ele>1425.4853128244</ele>
        <time>2021-07-10T06:55:15Z</time>
      </trkpt>
      <trkpt lat="44.13164" lon="6.74436">
        <ele>1426.4853146766</ele>
        <time>2021-07-10T06:55:16Z</time>
      </trkpt>
      <trkpt lat="44.13163" lon="6.74438">
        <ele>1425.485311904</ele>
        <time>2021-07-10T06:55:17Z</time>
      </trkpt>
      <trkpt lat="44.13162" lon="6.74439">
        <ele>1426.4853349662</ele>
        <time>2021-07-10T06:55:18Z</time>
      </trkpt>
      <trkpt lat="44.13161" lon="6.7444">
        <ele>1425.4853459176</ele>
        <time>2021-07-10T06:55:19Z</time>
      </trkpt>
      <trkpt lat="44.1316" lon="6.74442">
        <ele>1425.4853448968</ele>
        <time>2021-07-10T06:55:20Z</time>
      </trkpt>
      <trkpt lat="44.1316" lon="6.74444">
        <ele>1425.4853259395</ele>
        <time>2021-07-10T06:55:21Z</time>
      </trkpt>
      <trkpt lat="44.13159" lon="6.74445">
        <ele>1425.4853290236</ele>
        <time>2021-07-10T06:55:22Z</time>
      </trkpt>
      <trkpt lat="44.13157" lon="6.74448">
        <ele>1425.4853167825</ele>
        <time>2021-07-10T06:55:24Z</time>
      </trkpt>
      <trkpt lat="44.13156" lon="6.7445">
        <ele>1425.4853241689</ele>
        <time>2021-07-10T06:55:25Z</time>
      </trkpt>
      <trkpt lat="44.13156" lon="6.74452">
        <ele>1425.4853193011</ele>
        <time>2021-07-10T06:55:26Z</time>
      </trkpt>
      <trkpt lat="44.13154" lon="6.74454">
        <ele>1425.4853337673</ele>
        <time>2021-07-10T06:55:28Z</time>
      </trkpt>
      <trkpt lat="44.13153" lon="6.74456">
        <ele>1425.4853351479</ele>
        <time>2021-07-10T06:55:29Z</time>
      </trkpt>
      <trkpt lat="44.13152" lon="6.74458">
        <ele>1425.4853253887</ele>
        <time>2021-07-10T06:55:30Z</time>
      </trkpt>
      <trkpt lat="44.13152" lon="6.7446">
        <ele>1425.4853071262</ele>
        <time>2021-07-10T06:55:31Z</time>
      </trkpt>
      <trkpt lat="44.13151" lon="6.74461">
        <ele>1425.4852955728</ele>
        <time>2021-07-10T06:55:32Z</time>
      </trkpt>
      <trkpt lat="44.1315" lon="6.74463">
        <ele>1425.485307493</ele>
        <time>2021-07-10T06:55:33Z</time>
      </trkpt>
      <trkpt lat="44.13148" lon="6.74466">
        <ele>1426.4852991368</ele>
        <time>2021-07-10T06:55:35Z</time>
      </trkpt>
      <trkpt lat="44.13148" lon="6.74467">
        <ele>1425.4852832621</ele>
        <time>2021-07-10T06:55:36Z</time>
      </trkpt>
      <trkpt lat="44.13147" lon="6.74469">
        <ele>1426.4852730931</ele>
        <time>2021-07-10T06:55:37Z</time>
      </trkpt>
      <trkpt lat="44.13147" lon="6.74473">
        <ele>1426.4852159078</ele>
        <time>2021-07-10T06:55:39Z</time>
      </trkpt>
      <trkpt lat="44.13146" lon="6.74475">
        <ele>1426.4851913129</ele>
        <time>2021-07-10T06:55:40Z</time>
      </trkpt>
      <trkpt lat="44.13146" lon="6.74477">
        <ele>1426.485178958</ele>
        <time>2021-07-10T06:55:41Z</time>
      </trkpt>
      <trkpt lat="44.13145" lon="6.74478">
        <ele>1426.4851684893</ele>
        <time>2021-07-10T06:55:42Z</time>
      </trkpt>
      <trkpt lat="44.13144" lon="6.74481">
        <ele>1427.4851501791</ele>
        <time>2021-07-10T06:55:44Z</time>
      </trkpt>
      <trkpt lat="44.13143" lon="6.74482">
        <ele>1427.4851529174</ele>
        <time>2021-07-10T06:55:45Z</time>
      </trkpt>
      <trkpt lat="44.13143" lon="6.74484">
        <ele>1427.4851517192</ele>
        <time>2021-07-10T06:55:46Z</time>
      </trkpt>
      <trkpt lat="44.13141" lon="6.74487">
        <ele>1427.4851451739</ele>
        <time>2021-07-10T06:55:48Z</time>
      </trkpt>
      <trkpt lat="44.13141" lon="6.74489">
        <ele>1427.4851308856</ele>
        <time>2021-07-10T06:55:49Z</time>
      </trkpt>
      <trkpt lat="44.1314" lon="6.7449">
        <ele>1428.4851207772</ele>
        <time>2021-07-10T06:55:50Z</time>
      </trkpt>
      <trkpt lat="44.13139" lon="6.74492">
        <ele>1428.4851172242</ele>
        <time>2021-07-10T06:55:51Z</time>
      </trkpt>
      <trkpt lat="44.13138" lon="6.74494">
        <ele>1428.4851245309</ele>
        <time>2021-07-10T06:55:53Z</time>
      </trkpt>
      <trkpt lat="44.13137" lon="6.74496">
        <ele>1428.4851337757</ele>
        <time>2021-07-10T06:55:54Z</time>
      </trkpt>
      <trkpt lat="44.13136" lon="6.74497">
        <ele>1428.4851585801</ele>
        <time>2021-07-10T06:55:55Z</time>
      </trkpt>
      <trkpt lat="44.13135" lon="6.74497">
        <ele>1428.4851784883</ele>
        <time>2021-07-10T06:55:56Z</time>
      </trkpt>
      <trkpt lat="44.13133" lon="6.74498">
        <ele>1428.4852115169</ele>
        <time>2021-07-10T06:55:57Z</time>
      </trkpt>
      <trkpt lat="44.13132" lon="6.745">
        <ele>1428.4852387632</ele>
        <time>2021-07-10T06:55:59Z</time>
      </trkpt>
      <trkpt lat="44.1313" lon="6.74501">
        <ele>1429.4852837381</ele>
        <time>2021-07-10T06:56:00Z</time>
      </trkpt>
      <trkpt lat="44.13129" lon="6.74501">
        <ele>1429.4853186816</ele>
        <time>2021-07-10T06:56:01Z</time>
      </trkpt>
      <trkpt lat="44.13128" lon="6.74501">
        <ele>1428.4853811601</ele>
        <time>2021-07-10T06:56:02Z</time>
      </trkpt>
      <trkpt lat="44.13127" lon="6.74501">
        <ele>1428.4854216111</ele>
        <time>2021-07-10T06:56:03Z</time>
      </trkpt>
      <trkpt lat="44.13126" lon="6.74501">
        <ele>1428.4854570626</ele>
        <time>2021-07-10T06:56:04Z</time>
      </trkpt>
      <trkpt lat="44.13124" lon="6.74501">
        <ele>1428.4855138014</ele>
        <time>2021-07-10T06:56:05Z</time>
      </trkpt>
      <trkpt lat="44.13123" lon="6.745">
        <ele>1428.4855656686</ele>
        <time>2021-07-10T06:56:06Z</time>
      </trkpt>
      <trkpt lat="44.13122" lon="6.745">
        <ele>1428.485605191</ele>
        <time>2021-07-10T06:56:07Z</time>
      </trkpt>
      <trkpt lat="44.13121" lon="6.745">
        <ele>1428.4856725719</ele>
        <time>2021-07-10T06:56:09Z</time>
      </trkpt>
      <trkpt lat="44.1312" lon="6.745">
        <ele>1428.4857014154</ele>
        <time>2021-07-10T06:56:10Z</time>
      </trkpt>
      <trkpt lat="44.13119" lon="6.745">
        <ele>1428.4857540568</ele>
        <time>2021-07-10T06:56:11Z</time>
      </trkpt>
      <trkpt lat="44.13116" lon="6.745">
        <ele>1428.4858530813</ele>
        <time>2021-07-10T06:56:13Z</time>
      </trkpt>
      <trkpt lat="44.13114" lon="6.745">
        <ele>1428.485925944</ele>
        <time>2021-07-10T06:56:15Z</time>
      </trkpt>
      <trkpt lat="44.13114" lon="6.745">
        <ele>1428.485951901</ele>
        <time>2021-07-10T06:56:16Z</time>
      </trkpt>
      <trkpt lat="44.13111" lon="6.745">
        <ele>1428.4860374498</ele>
        <time>2021-07-10T06:56:18Z</time>
      </trkpt>
      <trkpt lat="44.1311" lon="6.745">
        <ele>1428.4860793256</ele>
        <time>2021-07-10T06:56:19Z</time>
      </trkpt>
      <trkpt lat="44.13109" lon="6.745">
        <ele>1428.4861229416</ele>
        <time>2021-07-10T06:56:20Z</time>
      </trkpt>
      <trkpt lat="44.13109" lon="6.745">
        <ele>1428.4861576799</ele>
        <time>2021-07-10T06:56:21Z</time>
      </trkpt>
      <trkpt lat="44.13108" lon="6.74499">
        <ele>1428.4862007205</ele>
        <time>2021-07-10T06:56:22Z</time>
      </trkpt>
      <trkpt lat="44.13107" lon="6.74499">
        <ele>1429.4862331656</ele>
        <time>2021-07-10T06:56:23Z</time>
      </trkpt>
      <trkpt lat="44.13106" lon="6.74498">
        <ele>1428.4862771617</ele>
        <time>2021-07-10T06:56:24Z</time>
      </trkpt>
      <trkpt lat="44.13105" lon="6.74498">
        <ele>1428.4863154721</ele>
        <time>2021-07-10T06:56:25Z</time>
      </trkpt>
      <trkpt lat="44.13104" lon="6.74498">
        <ele>1428.4863551157</ele>
        <time>2021-07-10T06:56:26Z</time>
      </trkpt>
      <trkpt lat="44.13103" lon="6.74498">
        <ele>1428.4863999964</ele>
        <time>2021-07-10T06:56:27Z</time>
      </trkpt>
      <trkpt lat="44.13102" lon="6.74497">
        <ele>1428.4864688362</ele>
        <time>2021-07-10T06:56:29Z</time>
      </trkpt>
      <trkpt lat="44.13101" lon="6.74497">
        <ele>1428.4865081491</ele>
        <time>2021-07-10T06:56:30Z</time>
      </trkpt>
      <trkpt lat="44.131" lon="6.74497">
        <ele>1428.486554128</ele>
        <time>2021-07-10T06:56:31Z</time>
      </trkpt>
      <trkpt lat="44.13099" lon="6.74497">
        <ele>1428.4865959314</ele>
        <time>2021-07-10T06:56:32Z</time>
      </trkpt>
      <trkpt lat="44.13098" lon="6.74497">
        <ele>1428.4866308403</ele>
        <time>2021-07-10T06:56:33Z</time>
      </trkpt>
      <trkpt lat="44.13096" lon="6.74497">
        <ele>1429.4866751569</ele>
        <time>2021-07-10T06:56:34Z</time>
      </trkpt>
      <trkpt lat="44.13095" lon="6.74498">
        <ele>1428.4867157418</ele>
        <time>2021-07-10T06:56:35Z</time>
      </trkpt>
      <trkpt lat="44.13094" lon="6.74498">
        <ele>1428.4867483463</ele>
        <time>2021-07-10T06:56:36Z</time>
      </trkpt>
      <trkpt lat="44.13092" lon="6.74498">
        <ele>1429.4868153354</ele>
        <time>2021-07-10T06:56:38Z</time>
      </trkpt>
      <trkpt lat="44.13092" lon="6.74499">
        <ele>1429.4868438129</ele>
        <time>2021-07-10T06:56:39Z</time>
      </trkpt>
      <trkpt lat="44.13091" lon="6.74499">
        <ele>1429.4868752135</ele>
        <time>2021-07-10T06:56:40Z</time>
      </trkpt>
      <trkpt lat="44.13089" lon="6.74499">
        <ele>1429.4869278883</ele>
        <time>2021-07-10T06:56:41Z</time>
      </trkpt>
      <trkpt lat="44.13088" lon="6.74498">
        <ele>1429.4869865324</ele>
        <time>2021-07-10T06:56:42Z</time>
      </trkpt>
      <trkpt lat="44.13086" lon="6.74498">
        <ele>1429.487067841</ele>
        <time>2021-07-10T06:56:44Z</time>
      </trkpt>
      <trkpt lat="44.13085" lon="6.74498">
        <ele>1429.4871002512</ele>
        <time>2021-07-10T06:56:45Z</time>
      </trkpt>
      <trkpt lat="44.13084" lon="6.74499">
        <ele>1429.4871440082</ele>
        <time>2021-07-10T06:56:46Z</time>
      </trkpt>
      <trkpt lat="44.13083" lon="6.74499">
        <ele>1429.4871954524</ele>
        <time>2021-07-10T06:56:47Z</time>
      </trkpt>
      <trkpt lat="44.1308" lon="6.74499">
        <ele>1429.4872969745</ele>
        <time>2021-07-10T06:56:49Z</time>
      </trkpt>
      <trkpt lat="44.13079" lon="6.74499">
        <ele>1429.4873430665</ele>
        <time>2021-07-10T06:56:50Z</time>
      </trkpt>
      <trkpt lat="44.13077" lon="6.74499">
        <ele>1429.4873978327</ele>
        <time>2021-07-10T06:56:51Z</time>
      </trkpt>
      <trkpt lat="44.13076" lon="6.74499">
        <ele>1429.4874336563</ele>
        <time>2021-07-10T06:56:52Z</time>
      </trkpt>
      <trkpt lat="44.13075" lon="6.74499">
        <ele>1430.4874703789</ele>
        <time>2021-07-10T06:56:53Z</time>
      </trkpt>
      <trkpt lat="44.13075" lon="6.74499">
        <ele>1430.4874976949</ele>
        <time>2021-07-10T06:56:54Z</time>
      </trkpt>
      <trkpt lat="44.13074" lon="6.74499">
        <ele>1431.4875129156</ele>
        <time>2021-07-10T06:56:55Z</time>
      </trkpt>
      <trkpt lat="44.13074" lon="6.74499">
        <ele>1431.4875340647</ele>
        <time>2021-07-10T06:56:56Z</time>
      </trkpt>
      <trkpt lat="44.13073" lon="6.74499">
        <ele>1431.4875611387</ele>
        <time>2021-07-10T06:56:57Z</time>
      </trkpt>
      <trkpt lat="44.13072" lon="6.74499">
        <ele>1432.4875881228</ele>
        <time>2021-07-10T06:56:58Z</time>
      </trkpt>
      <trkpt lat="44.13071" lon="6.74499">
        <ele>1432.4876334391</ele>
        <time>2021-07-10T06:56:59Z</time>
      </trkpt>
      <trkpt lat="44.1307" lon="6.74499">
        <ele>1432.4876758686</ele>
        <time>2021-07-10T06:57:00Z</time>
      </trkpt>
      <trkpt lat="44.1307" lon="6.74499">
        <ele>1432.4877003788</ele>
        <time>2021-07-10T06:57:01Z</time>
      </trkpt>
      <trkpt lat="44.13069" lon="6.74499">
        <ele>1432.4877357746</ele>
        <time>2021-07-10T06:57:02Z</time>
      </trkpt>
      <trkpt lat="44.13068" lon="6.74499">
        <ele>1432.4877747195</ele>
        <time>2021-07-10T06:57:03Z</time>
      </trkpt>
      <trkpt lat="44.13067" lon="6.74499">
        <ele>1432.4878061068</ele>
        <time>2021-07-10T06:57:04Z</time>
      </trkpt>
      <trkpt lat="44.13066" lon="6.74499">
        <ele>1432.4878328732</ele>
        <time>2021-07-10T06:57:05Z</time>
      </trkpt>
      <trkpt lat="44.13065" lon="6.74499">
        <ele>1432.4878663198</ele>
        <time>2021-07-10T06:57:06Z</time>
      </trkpt>
      <trkpt lat="44.13064" lon="6.74499">
        <ele>1433.4879135542</ele>
        <time>2021-07-10T06:57:07Z</time>
      </trkpt>
      <trkpt lat="44.13064" lon="6.74499">
        <ele>1433.487936038</ele>
        <time>2021-07-10T06:57:08Z</time>
      </trkpt>
      <trkpt lat="44.13063" lon="6.74498">
        <ele>1432.4879696894</ele>
        <time>2021-07-10T06:57:09Z</time>
      </trkpt>
      <trkpt lat="44.13063" lon="6.74497">
        <ele>1432.4880076002</ele>
        <time>2021-07-10T06:57:10Z</time>
      </trkpt>
      <trkpt lat="44.13062" lon="6.74497">
        <ele>1432.4880292821</ele>
        <time>2021-07-10T06:57:11Z</time>
      </trkpt>
      <trkpt lat="44.13062" lon="6.74497">
        <ele>1432.488050614</ele>
        <time>2021-07-10T06:57:12Z</time>
      </trkpt>
      <trkpt lat="44.13061" lon="6.74496">
        <ele>1432.4881083968</ele>
        <time>2021-07-10T06:57:14Z</time>
      </trkpt>
      <trkpt lat="44.1306" lon="6.74495">
        <ele>1432.4881297128</ele>
        <time>2021-07-10T06:57:16Z</time>
      </trkpt>
      <trkpt lat="44.13059" lon="6.74494">
        <ele>1432.4881917704</ele>
        <time>2021-07-10T06:57:18Z</time>
      </trkpt>
      <trkpt lat="44.13059" lon="6.74494">
        <ele>1432.4882267057</ele>
        <time>2021-07-10T06:57:20Z</time>
      </trkpt>
      <trkpt lat="44.13058" lon="6.74494">
        <ele>1432.4882646248</ele>
        <time>2021-07-10T06:57:21Z</time>
      </trkpt>
      <trkpt lat="44.13057" lon="6.74492">
        <ele>1432.4883275977</ele>
        <time>2021-07-10T06:57:23Z</time>
      </trkpt>
      <trkpt lat="44.13057" lon="6.74489">
        <ele>1432.4884024343</ele>
        <time>2021-07-10T06:57:25Z</time>
      </trkpt>
      <trkpt lat="44.13056" lon="6.74488">
        <ele>1432.4884542296</ele>
        <time>2021-07-10T06:57:26Z</time>
      </trkpt>
      <trkpt lat="44.13055" lon="6.74488">
        <ele>1432.488487975</ele>
        <time>2021-07-10T06:57:27Z</time>
      </trkpt>
      <trkpt lat="44.13055" lon="6.74486">
        <ele>1432.488560053</ele>
        <time>2021-07-10T06:57:29Z</time>
      </trkpt>
      <trkpt lat="44.13054" lon="6.74485">
        <ele>1433.488604014</ele>
        <time>2021-07-10T06:57:30Z</time>
      </trkpt>
      <trkpt lat="44.13053" lon="6.74483">
        <ele>1433.4886537502</ele>
        <time>2021-07-10T06:57:31Z</time>
      </trkpt>
      <trkpt lat="44.13052" lon="6.74481">
        <ele>1433.4887531299</ele>
        <time>2021-07-10T06:57:33Z</time>
      </trkpt>
      <trkpt lat="44.13052" lon="6.7448">
        <ele>1433.4887773545</ele>
        <time>2021-07-10T06:57:34Z</time>
      </trkpt>
      <trkpt lat="44.13051" lon="6.74479">
        <ele>1433.4888217006</ele>
        <time>2021-07-10T06:57:35Z</time>
      </trkpt>
      <trkpt lat="44.13051" lon="6.74478">
        <ele>1433.4888636834</ele>
        <time>2021-07-10T06:57:36Z</time>
      </trkpt>
      <trkpt lat="44.1305" lon="6.74476">
        <ele>1433.4889453207</ele>
        <time>2021-07-10T06:57:38Z</time>
      </trkpt>
      <trkpt lat="44.1305" lon="6.74476">
        <ele>1433.4889712354</ele>
        <time>2021-07-10T06:57:39Z</time>
      </trkpt>
      <trkpt lat="44.13049" lon="6.74475">
        <ele>1434.4890074453</ele>
        <time>2021-07-10T06:57:40Z</time>
      </trkpt>
      <trkpt lat="44.13048" lon="6.74474">
        <ele>1434.4890471546</ele>
        <time>2021-07-10T06:57:41Z</time>
      </trkpt>
      <trkpt lat="44.13048" lon="6.74473">
        <ele>1433.4890929878</ele>
        <time>2021-07-10T06:57:42Z</time>
      </trkpt>
      <trkpt lat="44.13048" lon="6.74472">
        <ele>1434.4891228464</ele>
        <time>2021-07-10T06:57:43Z</time>
      </trkpt>
      <trkpt lat="44.13046" lon="6.7447">
        <ele>1433.4892085349</ele>
        <time>2021-07-10T06:57:45Z</time>
      </trkpt>
      <trkpt lat="44.13046" lon="6.7447">
        <ele>1433.4892419924</ele>
        <time>2021-07-10T06:57:46Z</time>
      </trkpt>
      <trkpt lat="44.13046" lon="6.74467">
        <ele>1434.4892949631</ele>
        <time>2021-07-10T06:57:48Z</time>
      </trkpt>
      <trkpt lat="44.13045" lon="6.74465">
        <ele>1433.4893863062</ele>
        <time>2021-07-10T06:57:50Z</time>
      </trkpt>
      <trkpt lat="44.13044" lon="6.74463">
        <ele>1433.489432822</ele>
        <time>2021-07-10T06:57:51Z</time>
      </trkpt>
      <trkpt lat="44.13044" lon="6.74461">
        <ele>1433.4895078082</ele>
        <time>2021-07-10T06:57:53Z</time>
      </trkpt>
      <trkpt lat="44.13043" lon="6.74458">
        <ele>1433.4895715696</ele>
        <time>2021-07-10T06:57:55Z</time>
      </trkpt>
      <trkpt lat="44.13044" lon="6.74457">
        <ele>1432.4895808951</ele>
        <time>2021-07-10T06:57:56Z</time>
      </trkpt>
      <trkpt lat="44.13044" lon="6.74456">
        <ele>1431.4895971861</ele>
        <time>2021-07-10T06:57:57Z</time>
      </trkpt>
      <trkpt lat="44.13044" lon="6.74455">
        <ele>1431.4896068527</ele>
        <time>2021-07-10T06:57:58Z</time>
      </trkpt>
      <trkpt lat="44.13045" lon="6.74452">
        <ele>1431.4896342903</ele>
        <time>2021-07-10T06:58:00Z</time>
      </trkpt>
      <trkpt lat="44.13045" lon="6.74451">
        <ele>1431.4896573832</ele>
        <time>2021-07-10T06:58:01Z</time>
      </trkpt>
      <trkpt lat="44.13045" lon="6.7445">
        <ele>1432.4896851317</ele>
        <time>2021-07-10T06:58:02Z</time>
      </trkpt>
      <trkpt lat="44.13044" lon="6.74447">
        <ele>1431.4897854999</ele>
        <time>2021-07-10T06:58:04Z</time>
      </trkpt>
      <trkpt lat="44.13044" lon="6.74445">
        <ele>1432.489814825</ele>
        <time>2021-07-10T06:58:05Z</time>
      </trkpt>
      <trkpt lat="44.13044" lon="6.74444">
        <ele>1432.4898534699</ele>
        <time>2021-07-10T06:58:06Z</time>
      </trkpt>
      <trkpt lat="44.13043" lon="6.74442">
        <ele>1431.4899113702</ele>
        <time>2021-07-10T06:58:08Z</time>
      </trkpt>
      <trkpt lat="44.13043" lon="6.7444">
        <ele>1431.4899858625</ele>
        <time>2021-07-10T06:58:10Z</time>
      </trkpt>
      <trkpt lat="44.13042" lon="6.74439">
        <ele>1431.4900264842</ele>
        <time>2021-07-10T06:58:11Z</time>
      </trkpt>
      <trkpt lat="44.13041" lon="6.74438">
        <ele>1430.490079908</ele>
        <time>2021-07-10T06:58:12Z</time>
      </trkpt>
      <trkpt lat="44.1304" lon="6.74436">
        <ele>1430.4901583</ele>
        <time>2021-07-10T06:58:14Z</time>
      </trkpt>
      <trkpt lat="44.1304" lon="6.74435">
        <ele>1430.4901942168</ele>
        <time>2021-07-10T06:58:15Z</time>
      </trkpt>
      <trkpt lat="44.13039" lon="6.74434">
        <ele>1430.4902381732</ele>
        <time>2021-07-10T06:58:16Z</time>
      </trkpt>
      <trkpt lat="44.13039" lon="6.74433">
        <ele>1430.4902803334</ele>
        <time>2021-07-10T06:58:17Z</time>
      </trkpt>
      <trkpt lat="44.13037" lon="6.74432">
        <ele>1430.4903607431</ele>
        <time>2021-07-10T06:58:19Z</time>
      </trkpt>
      <trkpt lat="44.13036" lon="6.74432">
        <ele>1430.4904022825</ele>
        <time>2021-07-10T06:58:20Z</time>
      </trkpt>
      <trkpt lat="44.13035" lon="6.74432">
        <ele>1430.4904385335</ele>
        <time>2021-07-10T06:58:21Z</time>
      </trkpt>
      <trkpt lat="44.13035" lon="6.74432">
        <ele>1431.4904542581</ele>
        <time>2021-07-10T06:58:22Z</time>
      </trkpt>
      <trkpt lat="44.13034" lon="6.74432">
        <ele>1431.4904920164</ele>
        <time>2021-07-10T06:58:23Z</time>
      </trkpt>
      <trkpt lat="44.13033" lon="6.74432">
        <ele>1431.490523986</ele>
        <time>2021-07-10T06:58:24Z</time>
      </trkpt>
      <trkpt lat="44.13033" lon="6.74431">
        <ele>1431.490554352</ele>
        <time>2021-07-10T06:58:25Z</time>
      </trkpt>
      <trkpt lat="44.13032" lon="6.74431">
        <ele>1432.4905882635</ele>
        <time>2021-07-10T06:58:26Z</time>
      </trkpt>
      <trkpt lat="44.13031" lon="6.74431">
        <ele>1432.4906196626</ele>
        <time>2021-07-10T06:58:27Z</time>
      </trkpt>
      <trkpt lat="44.1303" lon="6.7443">
        <ele>1432.4906637415</ele>
        <time>2021-07-10T06:58:28Z</time>
      </trkpt>
      <trkpt lat="44.1303" lon="6.7443">
        <ele>1431.4906921475</ele>
        <time>2021-07-10T06:58:29Z</time>
      </trkpt>
      <trkpt lat="44.1303" lon="6.7443">
        <ele>1432.4907067272</ele>
        <time>2021-07-10T06:58:30Z</time>
      </trkpt>
      <trkpt lat="44.13029" lon="6.74429">
        <ele>1432.4907395009</ele>
        <time>2021-07-10T06:58:31Z</time>
      </trkpt>
      <trkpt lat="44.13029" lon="6.74428">
        <ele>1432.4907616921</ele>
        <time>2021-07-10T06:58:32Z</time>
      </trkpt>
      <trkpt lat="44.1303" lon="6.74427">
        <ele>1432.4907543005</ele>
        <time>2021-07-10T06:58:33Z</time>
      </trkpt>
      <trkpt lat="44.1303" lon="6.74426">
        <ele>1431.4907595996</ele>
        <time>2021-07-10T06:58:34Z</time>
      </trkpt>
      <trkpt lat="44.1303" lon="6.74425">
        <ele>1431.4907668338</ele>
        <time>2021-07-10T06:58:35Z</time>
      </trkpt>
      <trkpt lat="44.13031" lon="6.74425">
        <ele>1431.490774033</ele>
        <time>2021-07-10T06:58:36Z</time>
      </trkpt>
      <trkpt lat="44.13031" lon="6.74424">
        <ele>1431.4907741354</ele>
        <time>2021-07-10T06:58:37Z</time>
      </trkpt>
      <trkpt lat="44.13031" lon="6.74423">
        <ele>1430.4907831337</ele>
        <time>2021-07-10T06:58:39Z</time>
      </trkpt>
      <trkpt lat="44.13032" lon="6.74421">
        <ele>1430.4907967185</ele>
        <time>2021-07-10T06:58:40Z</time>
      </trkpt>
      <trkpt lat="44.13032" lon="6.7442">
        <ele>1430.4908088423</ele>
        <time>2021-07-10T06:58:41Z</time>
      </trkpt>
      <trkpt lat="44.13033" lon="6.74417">
        <ele>1430.4908419564</ele>
        <time>2021-07-10T06:58:43Z</time>
      </trkpt>
      <trkpt lat="44.13034" lon="6.74413">
        <ele>1429.4908931564</ele>
        <time>2021-07-10T06:58:45Z</time>
      </trkpt>
      <trkpt lat="44.13034" lon="6.74412">
        <ele>1429.4909131801</ele>
        <time>2021-07-10T06:58:46Z</time>
      </trkpt>
      <trkpt lat="44.13033" lon="6.7441">
        <ele>1428.4909769093</ele>
        <time>2021-07-10T06:58:48Z</time>
      </trkpt>
      <trkpt lat="44.13033" lon="6.74408">
        <ele>1428.4910484634</ele>
        <time>2021-07-10T06:58:50Z</time>
      </trkpt>
      <trkpt lat="44.13032" lon="6.74407">
        <ele>1427.4910746518</ele>
        <time>2021-07-10T06:58:51Z</time>
      </trkpt>
      <trkpt lat="44.13032" lon="6.74406">
        <ele>1427.4911000137</ele>
        <time>2021-07-10T06:58:52Z</time>
      </trkpt>
      <trkpt lat="44.13032" lon="6.74404">
        <ele>1428.4911439873</ele>
        <time>2021-07-10T06:58:54Z</time>
      </trkpt>
      <trkpt lat="44.13032" lon="6.74402">
        <ele>1428.491176172</ele>
        <time>2021-07-10T06:58:55Z</time>
      </trkpt>
      <trkpt lat="44.13032" lon="6.74401">
        <ele>1428.4912105399</ele>
        <time>2021-07-10T06:58:56Z</time>
      </trkpt>
      <trkpt lat="44.13032" lon="6.744">
        <ele>1428.4912221531</ele>
        <time>2021-07-10T06:58:57Z</time>
      </trkpt>
      <trkpt lat="44.13032" lon="6.74399">
        <ele>1428.4912489753</ele>
        <time>2021-07-10T06:58:58Z</time>
      </trkpt>
      <trkpt lat="44.13032" lon="6.74397">
        <ele>1428.4912926566</ele>
        <time>2021-07-10T06:58:59Z</time>
      </trkpt>
      <trkpt lat="44.13032" lon="6.74396">
        <ele>1428.491333331</ele>
        <time>2021-07-10T06:59:00Z</time>
      </trkpt>
      <trkpt lat="44.13031" lon="6.74395">
        <ele>1429.4913645556</ele>
        <time>2021-07-10T06:59:01Z</time>
      </trkpt>
      <trkpt lat="44.13031" lon="6.74393">
        <ele>1429.4914107104</ele>
        <time>2021-07-10T06:59:03Z</time>
      </trkpt>
      <trkpt lat="44.13031" lon="6.74391">
        <ele>1430.4914612541</ele>
        <time>2021-07-10T06:59:05Z</time>
      </trkpt>
      <trkpt lat="44.13031" lon="6.74389">
        <ele>1430.4914768042</ele>
        <time>2021-07-10T06:59:06Z</time>
      </trkpt>
      <trkpt lat="44.13031" lon="6.74388">
        <ele>1430.4914992238</ele>
        <time>2021-07-10T06:59:07Z</time>
      </trkpt>
      <trkpt lat="44.13031" lon="6.74387">
        <ele>1431.4915303956</ele>
        <time>2021-07-10T06:59:08Z</time>
      </trkpt>
      <trkpt lat="44.13031" lon="6.74385">
        <ele>1431.4915890049</ele>
        <time>2021-07-10T06:59:10Z</time>
      </trkpt>
      <trkpt lat="44.13031" lon="6.74384">
        <ele>1431.491624189</ele>
        <time>2021-07-10T06:59:11Z</time>
      </trkpt>
      <trkpt lat="44.13031" lon="6.74383">
        <ele>1431.4916519365</ele>
        <time>2021-07-10T06:59:12Z</time>
      </trkpt>
      <trkpt lat="44.13031" lon="6.7438">
        <ele>1432.4916865823</ele>
        <time>2021-07-10T06:59:14Z</time>
      </trkpt>
      <trkpt lat="44.13031" lon="6.74379">
        <ele>1432.4917040756</ele>
        <time>2021-07-10T06:59:15Z</time>
      </trkpt>
      <trkpt lat="44.13031" lon="6.74378">
        <ele>1432.4917128029</ele>
        <time>2021-07-10T06:59:16Z</time>
      </trkpt>
      <trkpt lat="44.13032" lon="6.74378">
        <ele>1432.4917114912</ele>
        <time>2021-07-10T06:59:18Z</time>
      </trkpt>
      <trkpt lat="44.13032" lon="6.74376">
        <ele>1431.491722427</ele>
        <time>2021-07-10T06:59:20Z</time>
      </trkpt>
      <trkpt lat="44.13033" lon="6.74375">
        <ele>1431.491732287</ele>
        <time>2021-07-10T06:59:21Z</time>
      </trkpt>
      <trkpt lat="44.13033" lon="6.74374">
        <ele>1431.4917331373</ele>
        <time>2021-07-10T06:59:22Z</time>
      </trkpt>
      <trkpt lat="44.13033" lon="6.74373">
        <ele>1431.4917522936</ele>
        <time>2021-07-10T06:59:24Z</time>
      </trkpt>
      <trkpt lat="44.13033" lon="6.74371">
        <ele>1432.4917768026</ele>
        <time>2021-07-10T06:59:26Z</time>
      </trkpt>
      <trkpt lat="44.13033" lon="6.7437">
        <ele>1431.4918173994</ele>
        <time>2021-07-10T06:59:28Z</time>
      </trkpt>
      <trkpt lat="44.13034" lon="6.74367">
        <ele>1431.4918408624</ele>
        <time>2021-07-10T06:59:30Z</time>
      </trkpt>
      <trkpt lat="44.13034" lon="6.74366">
        <ele>1431.4918567327</ele>
        <time>2021-07-10T06:59:31Z</time>
      </trkpt>
      <trkpt lat="44.13035" lon="6.74364">
        <ele>1431.4918809324</ele>
        <time>2021-07-10T06:59:32Z</time>
      </trkpt>
      <trkpt lat="44.13035" lon="6.74363">
        <ele>1431.491872428</ele>
        <time>2021-07-10T06:59:34Z</time>
      </trkpt>
      <trkpt lat="44.13036" lon="6.74362">
        <ele>1430.4918722037</ele>
        <time>2021-07-10T06:59:35Z</time>
      </trkpt>
      <trkpt lat="44.13037" lon="6.74362">
        <ele>1430.4918455079</ele>
        <time>2021-07-10T06:59:36Z</time>
      </trkpt>
      <trkpt lat="44.13037" lon="6.74359">
        <ele>1429.491869218</ele>
        <time>2021-07-10T06:59:38Z</time>
      </trkpt>
      <trkpt lat="44.13038" lon="6.74357">
        <ele>1429.4918988578</ele>
        <time>2021-07-10T06:59:40Z</time>
      </trkpt>
      <trkpt lat="44.13038" lon="6.74356">
        <ele>1429.4919107515</ele>
        <time>2021-07-10T06:59:41Z</time>
      </trkpt>
      <trkpt lat="44.13038" lon="6.74355">
        <ele>1429.4919191818</ele>
        <time>2021-07-10T06:59:42Z</time>
      </trkpt>
      <trkpt lat="44.13039" lon="6.74353">
        <ele>1428.4919586722</ele>
        <time>2021-07-10T06:59:44Z</time>
      </trkpt>
      <trkpt lat="44.13039" lon="6.74352">
        <ele>1429.491967955</ele>
        <time>2021-07-10T06:59:45Z</time>
      </trkpt>
      <trkpt lat="44.13039" lon="6.74351">
        <ele>1428.4919730982</ele>
        <time>2021-07-10T06:59:46Z</time>
      </trkpt>
      <trkpt lat="44.1304" lon="6.7435">
        <ele>1428.4919841383</ele>
        <time>2021-07-10T06:59:47Z</time>
      </trkpt>
      <trkpt lat="44.1304" lon="6.74349">
        <ele>1427.4919968318</ele>
        <time>2021-07-10T06:59:48Z</time>
      </trkpt>
      <trkpt lat="44.1304" lon="6.74347">
        <ele>1427.4920056146</ele>
        <time>2021-07-10T06:59:50Z</time>
      </trkpt>
      <trkpt lat="44.1304" lon="6.74346">
        <ele>1427.4920346687</ele>
        <time>2021-07-10T06:59:51Z</time>
      </trkpt>
      <trkpt lat="44.13041" lon="6.74345">
        <ele>1426.4920471775</ele>
        <time>2021-07-10T06:59:52Z</time>
      </trkpt>
      <trkpt lat="44.13041" lon="6.74342">
        <ele>1426.4920743552</ele>
        <time>2021-07-10T06:59:54Z</time>
      </trkpt>
      <trkpt lat="44.13042" lon="6.74341">
        <ele>1426.4920736574</ele>
        <time>2021-07-10T06:59:55Z</time>
      </trkpt>
      <trkpt lat="44.13042" lon="6.7434">
        <ele>1425.4920792928</ele>
        <time>2021-07-10T06:59:56Z</time>
      </trkpt>
      <trkpt lat="44.13042" lon="6.74338">
        <ele>1425.4921291524</ele>
        <time>2021-07-10T06:59:58Z</time>
      </trkpt>
      <trkpt lat="44.13042" lon="6.74337">
        <ele>1424.4921552714</ele>
        <time>2021-07-10T06:59:59Z</time>
      </trkpt>
      <trkpt lat="44.13042" lon="6.74336">
        <ele>1424.4921769854</ele>
        <time>2021-07-10T07:00:00Z</time>
      </trkpt>
      <trkpt lat="44.13043" lon="6.74334">
        <ele>1424.4921931754</ele>
        <time>2021-07-10T07:00:01Z</time>
      </trkpt>
      <trkpt lat="44.13043" lon="6.74331">
        <ele>1424.4922246539</ele>
        <time>2021-07-10T07:00:03Z</time>
      </trkpt>
      <trkpt lat="44.13044" lon="6.74329">
        <ele>1424.4922560272</ele>
        <time>2021-07-10T07:00:05Z</time>
      </trkpt>
      <trkpt lat="44.13044" lon="6.74328">
        <ele>1424.4922855883</ele>
        <time>2021-07-10T07:00:06Z</time>
      </trkpt>
      <trkpt lat="44.13044" lon="6.74327">
        <ele>1424.492303488</ele>
        <time>2021-07-10T07:00:07Z</time>
      </trkpt>
      <trkpt lat="44.13044" lon="6.74325">
        <ele>1424.4923151911</ele>
        <time>2021-07-10T07:00:08Z</time>
      </trkpt>
      <trkpt lat="44.13044" lon="6.74323">
        <ele>1424.4923528035</ele>
        <time>2021-07-10T07:00:10Z</time>
      </trkpt>
      <trkpt lat="44.13045" lon="6.74322">
        <ele>1424.4923755987</ele>
        <time>2021-07-10T07:00:11Z</time>
      </trkpt>
      <trkpt lat="44.13045" lon="6.74321">
        <ele>1424.4923922952</ele>
        <time>2021-07-10T07:00:12Z</time>
      </trkpt>
      <trkpt lat="44.13045" lon="6.7432">
        <ele>1424.4923760201</ele>
        <time>2021-07-10T07:00:13Z</time>
      </trkpt>
      <trkpt lat="44.13046" lon="6.74319">
        <ele>1425.4923957249</ele>
        <time>2021-07-10T07:00:15Z</time>
      </trkpt>
      <trkpt lat="44.13046" lon="6.74318">
        <ele>1425.492403353</ele>
        <time>2021-07-10T07:00:16Z</time>
      </trkpt>
      <trkpt lat="44.13047" lon="6.74317">
        <ele>1425.4923908408</ele>
        <time>2021-07-10T07:00:17Z</time>
      </trkpt>
      <trkpt lat="44.13047" lon="6.74316">
        <ele>1425.4923773216</ele>
        <time>2021-07-10T07:00:18Z</time>
      </trkpt>
      <trkpt lat="44.13048" lon="6.74316">
        <ele>1424.4923659436</ele>
        <time>2021-07-10T07:00:19Z</time>
      </trkpt>
      <trkpt lat="44.13048" lon="6.74316">
        <ele>1424.4923604479</ele>
        <time>2021-07-10T07:00:20Z</time>
      </trkpt>
      <trkpt lat="44.13048" lon="6.74315">
        <ele>1424.4923654319</ele>
        <time>2021-07-10T07:00:21Z</time>
      </trkpt>
      <trkpt lat="44.13049" lon="6.74314">
        <ele>1424.4923739521</ele>
        <time>2021-07-10T07:00:22Z</time>
      </trkpt>
      <trkpt lat="44.13049" lon="6.74313">
        <ele>1424.4923787036</ele>
        <time>2021-07-10T07:00:23Z</time>
      </trkpt>
      <trkpt lat="44.13049" lon="6.74312">
        <ele>1424.4923902362</ele>
        <time>2021-07-10T07:00:24Z</time>
      </trkpt>
      <trkpt lat="44.1305" lon="6.74312">
        <ele>1423.4923963084</ele>
        <time>2021-07-10T07:00:25Z</time>
      </trkpt>
      <trkpt lat="44.1305" lon="6.7431">
        <ele>1424.4924065552</ele>
        <time>2021-07-10T07:00:26Z</time>
      </trkpt>
      <trkpt lat="44.1305" lon="6.74309">
        <ele>1424.4924158613</ele>
        <time>2021-07-10T07:00:27Z</time>
      </trkpt>
      <trkpt lat="44.1305" lon="6.74308">
        <ele>1423.4924401593</ele>
        <time>2021-07-10T07:00:28Z</time>
      </trkpt>
      <trkpt lat="44.1305" lon="6.74307">
        <ele>1424.4924558733</ele>
        <time>2021-07-10T07:00:29Z</time>
      </trkpt>
      <trkpt lat="44.1305" lon="6.74306">
        <ele>1424.4924726136</ele>
        <time>2021-07-10T07:00:30Z</time>
      </trkpt>
      <trkpt lat="44.1305" lon="6.74305">
        <ele>1423.4925072681</ele>
        <time>2021-07-10T07:00:31Z</time>
      </trkpt>
      <trkpt lat="44.1305" lon="6.74304">
        <ele>1423.4925357306</ele>
        <time>2021-07-10T07:00:32Z</time>
      </trkpt>
      <trkpt lat="44.1305" lon="6.74303">
        <ele>1423.4925438644</ele>
        <time>2021-07-10T07:00:33Z</time>
      </trkpt>
      <trkpt lat="44.13051" lon="6.74302">
        <ele>1423.4925293661</ele>
        <time>2021-07-10T07:00:35Z</time>
      </trkpt>
      <trkpt lat="44.13051" lon="6.74302">
        <ele>1423.4925267769</ele>
        <time>2021-07-10T07:00:36Z</time>
      </trkpt>
      <trkpt lat="44.13052" lon="6.74301">
        <ele>1423.49253603</ele>
        <time>2021-07-10T07:00:37Z</time>
      </trkpt>
      <trkpt lat="44.13052" lon="6.743">
        <ele>1424.4925439261</ele>
        <time>2021-07-10T07:00:38Z</time>
      </trkpt>
      <trkpt lat="44.13052" lon="6.74299">
        <ele>1424.4925662902</ele>
        <time>2021-07-10T07:00:39Z</time>
      </trkpt>
      <trkpt lat="44.13052" lon="6.74298">
        <ele>1424.4925771573</ele>
        <time>2021-07-10T07:00:41Z</time>
      </trkpt>
      <trkpt lat="44.13053" lon="6.74297">
        <ele>1424.4925878744</ele>
        <time>2021-07-10T07:00:42Z</time>
      </trkpt>
      <trkpt lat="44.13053" lon="6.74295">
        <ele>1425.4926059151</ele>
        <time>2021-07-10T07:00:43Z</time>
      </trkpt>
      <trkpt lat="44.13053" lon="6.74294">
        <ele>1425.4926092474</ele>
        <time>2021-07-10T07:00:44Z</time>
      </trkpt>
      <trkpt lat="44.13053" lon="6.74293">
        <ele>1425.4926378282</ele>
        <time>2021-07-10T07:00:45Z</time>
      </trkpt>
      <trkpt lat="44.13054" lon="6.74291">
        <ele>1425.4926668912</ele>
        <time>2021-07-10T07:00:46Z</time>
      </trkpt>
      <trkpt lat="44.13054" lon="6.7429">
        <ele>1425.4926827507</ele>
        <time>2021-07-10T07:00:47Z</time>
      </trkpt>
      <trkpt lat="44.13054" lon="6.74289">
        <ele>1426.4926889382</ele>
        <time>2021-07-10T07:00:48Z</time>
      </trkpt>
      <trkpt lat="44.13054" lon="6.74288">
        <ele>1426.4926897472</ele>
        <time>2021-07-10T07:00:49Z</time>
      </trkpt>
      <trkpt lat="44.13055" lon="6.74287">
        <ele>1426.4927018436</ele>
        <time>2021-07-10T07:00:52Z</time>
      </trkpt>
      <trkpt lat="44.13055" lon="6.74285">
        <ele>1426.4927229777</ele>
        <time>2021-07-10T07:00:53Z</time>
      </trkpt>
      <trkpt lat="44.13056" lon="6.74284">
        <ele>1426.4927377685</ele>
        <time>2021-07-10T07:00:54Z</time>
      </trkpt>
      <trkpt lat="44.13055" lon="6.74282">
        <ele>1426.4927721819</ele>
        <time>2021-07-10T07:00:55Z</time>
      </trkpt>
      <trkpt lat="44.13055" lon="6.74281">
        <ele>1426.4928045239</ele>
        <time>2021-07-10T07:00:56Z</time>
      </trkpt>
      <trkpt lat="44.13056" lon="6.7428">
        <ele>1426.4928225483</ele>
        <time>2021-07-10T07:00:57Z</time>
      </trkpt>
      <trkpt lat="44.13056" lon="6.74279">
        <ele>1426.492836878</ele>
        <time>2021-07-10T07:00:58Z</time>
      </trkpt>
      <trkpt lat="44.13056" lon="6.74277">
        <ele>1426.4928619721</ele>
        <time>2021-07-10T07:00:59Z</time>
      </trkpt>
      <trkpt lat="44.13056" lon="6.74276">
        <ele>1427.4928826498</ele>
        <time>2021-07-10T07:01:00Z</time>
      </trkpt>
      <trkpt lat="44.13056" lon="6.74274">
        <ele>1427.4929089585</ele>
        <time>2021-07-10T07:01:01Z</time>
      </trkpt>
      <trkpt lat="44.13056" lon="6.74274">
        <ele>1426.4929242069</ele>
        <time>2021-07-10T07:01:02Z</time>
      </trkpt>
      <trkpt lat="44.13056" lon="6.74272">
        <ele>1427.4929469303</ele>
        <time>2021-07-10T07:01:03Z</time>
      </trkpt>
      <trkpt lat="44.13057" lon="6.74271">
        <ele>1427.4929650475</ele>
        <time>2021-07-10T07:01:04Z</time>
      </trkpt>
      <trkpt lat="44.13056" lon="6.7427">
        <ele>1428.4929897388</ele>
        <time>2021-07-10T07:01:05Z</time>
      </trkpt>
      <trkpt lat="44.13056" lon="6.74269">
        <ele>1428.4930168339</ele>
        <time>2021-07-10T07:01:06Z</time>
      </trkpt>
      <trkpt lat="44.13056" lon="6.74268">
        <ele>1428.493035283</ele>
        <time>2021-07-10T07:01:07Z</time>
      </trkpt>
      <trkpt lat="44.13056" lon="6.74267">
        <ele>1428.4930533799</ele>
        <time>2021-07-10T07:01:08Z</time>
      </trkpt>
      <trkpt lat="44.13056" lon="6.74266">
        <ele>1428.4930801611</ele>
        <time>2021-07-10T07:01:09Z</time>
      </trkpt>
      <trkpt lat="44.13056" lon="6.74266">
        <ele>1429.4930920748</ele>
        <time>2021-07-10T07:01:10Z</time>
      </trkpt>
      <trkpt lat="44.13056" lon="6.74264">
        <ele>1430.4931230473</ele>
        <time>2021-07-10T07:01:12Z</time>
      </trkpt>
      <trkpt lat="44.13057" lon="6.74262">
        <ele>1430.4931424452</ele>
        <time>2021-07-10T07:01:14Z</time>
      </trkpt>
      <trkpt lat="44.13057" lon="6.74261">
        <ele>1430.4931663462</ele>
        <time>2021-07-10T07:01:15Z</time>
      </trkpt>
      <trkpt lat="44.13056" lon="6.7426">
        <ele>1431.4932028106</ele>
        <time>2021-07-10T07:01:16Z</time>
      </trkpt>
      <trkpt lat="44.13056" lon="6.74259">
        <ele>1431.4932312908</ele>
        <time>2021-07-10T07:01:17Z</time>
      </trkpt>
      <trkpt lat="44.13056" lon="6.74258">
        <ele>1431.4932494389</ele>
        <time>2021-07-10T07:01:20Z</time>
      </trkpt>
      <trkpt lat="44.13056" lon="6.74255">
        <ele>1432.4933006416</ele>
        <time>2021-07-10T07:01:21Z</time>
      </trkpt>
      <trkpt lat="44.13056" lon="6.74254">
        <ele>1432.4933498356</ele>
        <time>2021-07-10T07:01:23Z</time>
      </trkpt>
      <trkpt lat="44.13056" lon="6.74253">
        <ele>1432.493376514</ele>
        <time>2021-07-10T07:01:26Z</time>
      </trkpt>
      <trkpt lat="44.13056" lon="6.74253">
        <ele>1432.493362327</ele>
        <time>2021-07-10T07:01:27Z</time>
      </trkpt>
      <trkpt lat="44.13057" lon="6.74251">
        <ele>1432.4933700276</ele>
        <time>2021-07-10T07:01:29Z</time>
      </trkpt>
      <trkpt lat="44.13057" lon="6.7425">
        <ele>1432.4934048498</ele>
        <time>2021-07-10T07:01:30Z</time>
      </trkpt>
      <trkpt lat="44.13057" lon="6.74249">
        <ele>1432.4934211095</ele>
        <time>2021-07-10T07:01:31Z</time>
      </trkpt>
      <trkpt lat="44.13057" lon="6.74248">
        <ele>1432.4934350927</ele>
        <time>2021-07-10T07:01:33Z</time>
      </trkpt>
      <trkpt lat="44.13057" lon="6.74246">
        <ele>1432.49345792</ele>
        <time>2021-07-10T07:01:35Z</time>
      </trkpt>
      <trkpt lat="44.13057" lon="6.74245">
        <ele>1431.4934930402</ele>
        <time>2021-07-10T07:01:36Z</time>
      </trkpt>
      <trkpt lat="44.13057" lon="6.74244">
        <ele>1432.4935136776</ele>
        <time>2021-07-10T07:01:37Z</time>
      </trkpt>
      <trkpt lat="44.13057" lon="6.74243">
        <ele>1432.4935316545</ele>
        <time>2021-07-10T07:01:39Z</time>
      </trkpt>
      <trkpt lat="44.13057" lon="6.74241">
        <ele>1432.493564964</ele>
        <time>2021-07-10T07:01:40Z</time>
      </trkpt>
      <trkpt lat="44.13057" lon="6.74241">
        <ele>1432.493564964</ele>
        <time>2021-07-10T07:01:41Z</time>
      </trkpt>
      <trkpt lat="44.13058" lon="6.74237">
        <ele>1432.493628841</ele>
        <time>2021-07-10T07:01:43Z</time>
      </trkpt>
      <trkpt lat="44.13059" lon="6.74234">
        <ele>1432.4936352779</ele>
        <time>2021-07-10T07:01:45Z</time>
      </trkpt>
      <trkpt lat="44.1306" lon="6.74233">
        <ele>1431.4936469852</ele>
        <time>2021-07-10T07:01:46Z</time>
      </trkpt>
      <trkpt lat="44.1306" lon="6.74232">
        <ele>1431.4936713824</ele>
        <time>2021-07-10T07:01:47Z</time>
      </trkpt>
      <trkpt lat="44.1306" lon="6.74229">
        <ele>1431.4937267757</ele>
        <time>2021-07-10T07:01:49Z</time>
      </trkpt>
      <trkpt lat="44.1306" lon="6.74227">
        <ele>1431.493755996</ele>
        <time>2021-07-10T07:01:50Z</time>
      </trkpt>
      <trkpt lat="44.13061" lon="6.74225">
        <ele>1431.4937564324</ele>
        <time>2021-07-10T07:01:51Z</time>
      </trkpt>
      <trkpt lat="44.13062" lon="6.74222">
        <ele>1432.4937730721</ele>
        <time>2021-07-10T07:01:53Z</time>
      </trkpt>
      <trkpt lat="44.13062" lon="6.74222">
        <ele>1432.4937730721</ele>
        <time>2021-07-10T07:01:55Z</time>
      </trkpt>
      <trkpt lat="44.13063" lon="6.74218">
        <ele>1432.4938326563</ele>
        <time>2021-07-10T07:01:56Z</time>
      </trkpt>
      <trkpt lat="44.13063" lon="6.74214">
        <ele>1432.4938930873</ele>
        <time>2021-07-10T07:01:58Z</time>
      </trkpt>
      <trkpt lat="44.13064" lon="6.74212">
        <ele>1433.4939091009</ele>
        <time>2021-07-10T07:02:00Z</time>
      </trkpt>
      <trkpt lat="44.13064" lon="6.74211">
        <ele>1433.4939251998</ele>
        <time>2021-07-10T07:02:01Z</time>
      </trkpt>
      <trkpt lat="44.13065" lon="6.7421">
        <ele>1433.4939292656</ele>
        <time>2021-07-10T07:02:02Z</time>
      </trkpt>
      <trkpt lat="44.13066" lon="6.74207">
        <ele>1434.4939649132</ele>
        <time>2021-07-10T07:02:04Z</time>
      </trkpt>
      <trkpt lat="44.13065" lon="6.74204">
        <ele>1435.4940153347</ele>
        <time>2021-07-10T07:02:05Z</time>
      </trkpt>
      <trkpt lat="44.13065" lon="6.74203">
        <ele>1435.4940603419</ele>
        <time>2021-07-10T07:02:06Z</time>
      </trkpt>
      <trkpt lat="44.13066" lon="6.74201">
        <ele>1436.4940886606</ele>
        <time>2021-07-10T07:02:07Z</time>
      </trkpt>
      <trkpt lat="44.13066" lon="6.74199">
        <ele>1436.4941012203</ele>
        <time>2021-07-10T07:02:09Z</time>
      </trkpt>
      <trkpt lat="44.13067" lon="6.74197">
        <ele>1436.4941114811</ele>
        <time>2021-07-10T07:02:10Z</time>
      </trkpt>
      <trkpt lat="44.13067" lon="6.74196">
        <ele>1435.4941197312</ele>
        <time>2021-07-10T07:02:11Z</time>
      </trkpt>
      <trkpt lat="44.13068" lon="6.74194">
        <ele>1434.4941526094</ele>
        <time>2021-07-10T07:02:13Z</time>
      </trkpt>
      <trkpt lat="44.13068" lon="6.74191">
        <ele>1434.4941992365</ele>
        <time>2021-07-10T07:02:15Z</time>
      </trkpt>
      <trkpt lat="44.13068" lon="6.7419">
        <ele>1433.4942131525</ele>
        <time>2021-07-10T07:02:17Z</time>
      </trkpt>
      <trkpt lat="44.13068" lon="6.74189">
        <ele>1433.4942307265</ele>
        <time>2021-07-10T07:02:19Z</time>
      </trkpt>
      <trkpt lat="44.13068" lon="6.74188">
        <ele>1433.4942485025</ele>
        <time>2021-07-10T07:02:21Z</time>
      </trkpt>
      <trkpt lat="44.13069" lon="6.74186">
        <ele>1434.4942586607</ele>
        <time>2021-07-10T07:02:23Z</time>
      </trkpt>
      <trkpt lat="44.1307" lon="6.74183">
        <ele>1435.4942795552</ele>
        <time>2021-07-10T07:02:25Z</time>
      </trkpt>
      <trkpt lat="44.13071" lon="6.74181">
        <ele>1435.4942940287</ele>
        <time>2021-07-10T07:02:26Z</time>
      </trkpt>
      <trkpt lat="44.13071" lon="6.7418">
        <ele>1435.4942996035</ele>
        <time>2021-07-10T07:02:27Z</time>
      </trkpt>
      <trkpt lat="44.13072" lon="6.74178">
        <ele>1435.4943118489</ele>
        <time>2021-07-10T07:02:29Z</time>
      </trkpt>
      <trkpt lat="44.13073" lon="6.74176">
        <ele>1435.4943160863</ele>
        <time>2021-07-10T07:02:30Z</time>
      </trkpt>
      <trkpt lat="44.13074" lon="6.74175">
        <ele>1435.4943201619</ele>
        <time>2021-07-10T07:02:31Z</time>
      </trkpt>
      <trkpt lat="44.13074" lon="6.74174">
        <ele>1435.494326474</ele>
        <time>2021-07-10T07:02:32Z</time>
      </trkpt>
      <trkpt lat="44.13075" lon="6.74171">
        <ele>1436.4943488237</ele>
        <time>2021-07-10T07:02:34Z</time>
      </trkpt>
      <trkpt lat="44.13076" lon="6.7417">
        <ele>1436.4943477709</ele>
        <time>2021-07-10T07:02:35Z</time>
      </trkpt>
      <trkpt lat="44.13076" lon="6.74168">
        <ele>1437.4943450228</ele>
        <time>2021-07-10T07:02:36Z</time>
      </trkpt>
      <trkpt lat="44.13077" lon="6.74167">
        <ele>1437.4943507188</ele>
        <time>2021-07-10T07:02:38Z</time>
      </trkpt>
      <trkpt lat="44.13077" lon="6.74166">
        <ele>1437.4943701306</ele>
        <time>2021-07-10T07:02:39Z</time>
      </trkpt>
      <trkpt lat="44.13078" lon="6.74165">
        <ele>1437.4943803617</ele>
        <time>2021-07-10T07:02:40Z</time>
      </trkpt>
      <trkpt lat="44.13078" lon="6.74164">
        <ele>1437.4943737157</ele>
        <time>2021-07-10T07:02:41Z</time>
      </trkpt>
      <trkpt lat="44.13079" lon="6.74162">
        <ele>1437.4943736643</ele>
        <time>2021-07-10T07:02:43Z</time>
      </trkpt>
      <trkpt lat="44.1308" lon="6.74161">
        <ele>1437.4943577549</ele>
        <time>2021-07-10T07:02:45Z</time>
      </trkpt>
      <trkpt lat="44.13081" lon="6.7416">
        <ele>1437.494343546</ele>
        <time>2021-07-10T07:02:46Z</time>
      </trkpt>
      <trkpt lat="44.13082" lon="6.74159">
        <ele>1437.4943088196</ele>
        <time>2021-07-10T07:02:47Z</time>
      </trkpt>
      <trkpt lat="44.13083" lon="6.74157">
        <ele>1438.494308269</ele>
        <time>2021-07-10T07:02:49Z</time>
      </trkpt>
      <trkpt lat="44.13084" lon="6.74156">
        <ele>1438.4943246666</ele>
        <time>2021-07-10T07:02:50Z</time>
      </trkpt>
      <trkpt lat="44.13085" lon="6.74155">
        <ele>1438.4943129235</ele>
        <time>2021-07-10T07:02:51Z</time>
      </trkpt>
      <trkpt lat="44.13085" lon="6.74153">
        <ele>1439.494321187</ele>
        <time>2021-07-10T07:02:53Z</time>
      </trkpt>
      <trkpt lat="44.13086" lon="6.74151">
        <ele>1440.494324476</ele>
        <time>2021-07-10T07:02:55Z</time>
      </trkpt>
      <trkpt lat="44.13086" lon="6.74151">
        <ele>1439.4943392463</ele>
        <time>2021-07-10T07:02:56Z</time>
      </trkpt>
      <trkpt lat="44.13087" lon="6.74149">
        <ele>1440.4943474745</ele>
        <time>2021-07-10T07:02:57Z</time>
      </trkpt>
      <trkpt lat="44.13087" lon="6.74147">
        <ele>1440.4943778956</ele>
        <time>2021-07-10T07:02:59Z</time>
      </trkpt>
      <trkpt lat="44.13087" lon="6.74146">
        <ele>1441.494401279</ele>
        <time>2021-07-10T07:03:00Z</time>
      </trkpt>
      <trkpt lat="44.13087" lon="6.74145">
        <ele>1441.4944249849</ele>
        <time>2021-07-10T07:03:01Z</time>
      </trkpt>
      <trkpt lat="44.13087" lon="6.74144">
        <ele>1442.4944397712</ele>
        <time>2021-07-10T07:03:05Z</time>
      </trkpt>
      <trkpt lat="44.13087" lon="6.74143">
        <ele>1443.4944582819</ele>
        <time>2021-07-10T07:03:06Z</time>
      </trkpt>
      <trkpt lat="44.13088" lon="6.74142">
        <ele>1443.4944530912</ele>
        <time>2021-07-10T07:03:07Z</time>
      </trkpt>
      <trkpt lat="44.13089" lon="6.74142">
        <ele>1443.4944387116</ele>
        <time>2021-07-10T07:03:09Z</time>
      </trkpt>
      <trkpt lat="44.13089" lon="6.74141">
        <ele>1444.4944588586</ele>
        <time>2021-07-10T07:03:11Z</time>
      </trkpt>
      <trkpt lat="44.13088" lon="6.7414">
        <ele>1445.4944825764</ele>
        <time>2021-07-10T07:03:12Z</time>
      </trkpt>
      <trkpt lat="44.13088" lon="6.74139">
        <ele>1445.4945149839</ele>
        <time>2021-07-10T07:03:14Z</time>
      </trkpt>
      <trkpt lat="44.13088" lon="6.74137">
        <ele>1446.4945601395</ele>
        <time>2021-07-10T07:03:15Z</time>
      </trkpt>
      <trkpt lat="44.13088" lon="6.74135">
        <ele>1446.4945924766</ele>
        <time>2021-07-10T07:03:16Z</time>
      </trkpt>
      <trkpt lat="44.13088" lon="6.74133">
        <ele>1446.4946405176</ele>
        <time>2021-07-10T07:03:18Z</time>
      </trkpt>
      <trkpt lat="44.13087" lon="6.7413">
        <ele>1446.4947153584</ele>
        <time>2021-07-10T07:03:20Z</time>
      </trkpt>
      <trkpt lat="44.13088" lon="6.74129">
        <ele>1446.494732241</ele>
        <time>2021-07-10T07:03:21Z</time>
      </trkpt>
      <trkpt lat="44.13088" lon="6.74128">
        <ele>1447.4947401627</ele>
        <time>2021-07-10T07:03:22Z</time>
      </trkpt>
      <trkpt lat="44.13088" lon="6.74126">
        <ele>1447.4947769708</ele>
        <time>2021-07-10T07:03:24Z</time>
      </trkpt>
      <trkpt lat="44.13089" lon="6.74125">
        <ele>1447.4947684706</ele>
        <time>2021-07-10T07:03:25Z</time>
      </trkpt>
      <trkpt lat="44.13089" lon="6.74124">
        <ele>1447.4947892186</ele>
        <time>2021-07-10T07:03:26Z</time>
      </trkpt>
      <trkpt lat="44.13091" lon="6.74122">
        <ele>1447.4947485168</ele>
        <time>2021-07-10T07:03:28Z</time>
      </trkpt>
      <trkpt lat="44.13092" lon="6.74121">
        <ele>1447.4947386416</ele>
        <time>2021-07-10T07:03:30Z</time>
      </trkpt>
      <trkpt lat="44.13092" lon="6.74121">
        <ele>1449.4947320539</ele>
        <time>2021-07-10T07:03:32Z</time>
      </trkpt>
      <trkpt lat="44.13093" lon="6.7412">
        <ele>1449.4947128153</ele>
        <time>2021-07-10T07:03:33Z</time>
      </trkpt>
      <trkpt lat="44.13094" lon="6.74118">
        <ele>1449.494706071</ele>
        <time>2021-07-10T07:03:35Z</time>
      </trkpt>
      <trkpt lat="44.13096" lon="6.74117">
        <ele>1449.4946787494</ele>
        <time>2021-07-10T07:03:36Z</time>
      </trkpt>
      <trkpt lat="44.13097" lon="6.74117">
        <ele>1450.4946405341</ele>
        <time>2021-07-10T07:03:37Z</time>
      </trkpt>
      <trkpt lat="44.13098" lon="6.74116">
        <ele>1450.4945967961</ele>
        <time>2021-07-10T07:03:39Z</time>
      </trkpt>
      <trkpt lat="44.13099" lon="6.74115">
        <ele>1450.4945830514</ele>
        <time>2021-07-10T07:03:40Z</time>
      </trkpt>
      <trkpt lat="44.131" lon="6.74114">
        <ele>1450.4945670716</ele>
        <time>2021-07-10T07:03:41Z</time>
      </trkpt>
      <trkpt lat="44.13101" lon="6.74113">
        <ele>1449.4945573778</ele>
        <time>2021-07-10T07:03:43Z</time>
      </trkpt>
      <trkpt lat="44.13102" lon="6.74112">
        <ele>1450.4945368784</ele>
        <time>2021-07-10T07:03:45Z</time>
      </trkpt>
      <trkpt lat="44.13102" lon="6.74111">
        <ele>1450.4945363983</ele>
        <time>2021-07-10T07:03:46Z</time>
      </trkpt>
      <trkpt lat="44.13103" lon="6.74111">
        <ele>1450.4945293958</ele>
        <time>2021-07-10T07:03:47Z</time>
      </trkpt>
      <trkpt lat="44.13104" lon="6.74111">
        <ele>1451.4945017988</ele>
        <time>2021-07-10T07:03:48Z</time>
      </trkpt>
      <trkpt lat="44.13104" lon="6.74109">
        <ele>1451.4945265784</ele>
        <time>2021-07-10T07:03:50Z</time>
      </trkpt>
      <trkpt lat="44.13105" lon="6.74108">
        <ele>1451.494508481</ele>
        <time>2021-07-10T07:03:51Z</time>
      </trkpt>
      <trkpt lat="44.13105" lon="6.74108">
        <ele>1451.4945003717</ele>
        <time>2021-07-10T07:03:52Z</time>
      </trkpt>
      <trkpt lat="44.13106" lon="6.74107">
        <ele>1452.4944828394</ele>
        <time>2021-07-10T07:03:53Z</time>
      </trkpt>
      <trkpt lat="44.13108" lon="6.74107">
        <ele>1452.4944368871</ele>
        <time>2021-07-10T07:03:55Z</time>
      </trkpt>
      <trkpt lat="44.13108" lon="6.74106">
        <ele>1452.4944218967</ele>
        <time>2021-07-10T07:03:56Z</time>
      </trkpt>
      <trkpt lat="44.13109" lon="6.74105">
        <ele>1452.494409395</ele>
        <time>2021-07-10T07:03:57Z</time>
      </trkpt>
      <trkpt lat="44.1311" lon="6.74105">
        <ele>1452.4943863176</ele>
        <time>2021-07-10T07:03:58Z</time>
      </trkpt>
      <trkpt lat="44.1311" lon="6.74105">
        <ele>1452.4943565195</ele>
        <time>2021-07-10T07:03:59Z</time>
      </trkpt>
      <trkpt lat="44.13111" lon="6.74105">
        <ele>1452.4943365648</ele>
        <time>2021-07-10T07:04:00Z</time>
      </trkpt>
      <trkpt lat="44.13112" lon="6.74105">
        <ele>1452.4943199285</ele>
        <time>2021-07-10T07:04:01Z</time>
      </trkpt>
      <trkpt lat="44.13113" lon="6.74104">
        <ele>1452.4942892943</ele>
        <time>2021-07-10T07:04:03Z</time>
      </trkpt>
      <trkpt lat="44.13114" lon="6.74103">
        <ele>1452.4942632097</ele>
        <time>2021-07-10T07:04:04Z</time>
      </trkpt>
      <trkpt lat="44.13115" lon="6.74103">
        <ele>1453.4942388945</ele>
        <time>2021-07-10T07:04:05Z</time>
      </trkpt>
      <trkpt lat="44.13115" lon="6.74102">
        <ele>1452.4942293307</ele>
        <time>2021-07-10T07:04:06Z</time>
      </trkpt>
      <trkpt lat="44.13117" lon="6.74102">
        <ele>1452.4941904355</ele>
        <time>2021-07-10T07:04:08Z</time>
      </trkpt>
      <trkpt lat="44.13118" lon="6.74101">
        <ele>1452.4941648872</ele>
        <time>2021-07-10T07:04:10Z</time>
      </trkpt>
      <trkpt lat="44.13118" lon="6.741">
        <ele>1452.4941672134</ele>
        <time>2021-07-10T07:04:11Z</time>
      </trkpt>
      <trkpt lat="44.13119" lon="6.74099">
        <ele>1452.4941394639</ele>
        <time>2021-07-10T07:04:12Z</time>
      </trkpt>
      <trkpt lat="44.13121" lon="6.74098">
        <ele>1453.4941089544</ele>
        <time>2021-07-10T07:04:14Z</time>
      </trkpt>
      <trkpt lat="44.13122" lon="6.74097">
        <ele>1453.4940828106</ele>
        <time>2021-07-10T07:04:15Z</time>
      </trkpt>
      <trkpt lat="44.13122" lon="6.74097">
        <ele>1453.494070759</ele>
        <time>2021-07-10T07:04:16Z</time>
      </trkpt>
      <trkpt lat="44.13124" lon="6.74096">
        <ele>1453.4940386819</ele>
        <time>2021-07-10T07:04:18Z</time>
      </trkpt>
      <trkpt lat="44.13125" lon="6.74096">
        <ele>1454.494013846</ele>
        <time>2021-07-10T07:04:20Z</time>
      </trkpt>
      <trkpt lat="44.13125" lon="6.74096">
        <ele>1454.494013846</ele>
        <time>2021-07-10T07:04:22Z</time>
      </trkpt>
      <trkpt lat="44.13126" lon="6.74094">
        <ele>1455.4939820078</ele>
        <time>2021-07-10T07:04:23Z</time>
      </trkpt>
      <trkpt lat="44.13128" lon="6.74093">
        <ele>1455.4939491244</ele>
        <time>2021-07-10T07:04:25Z</time>
      </trkpt>
      <trkpt lat="44.13129" lon="6.74092">
        <ele>1455.4939278635</ele>
        <time>2021-07-10T07:04:26Z</time>
      </trkpt>
      <trkpt lat="44.1313" lon="6.74091">
        <ele>1455.4939007816</ele>
        <time>2021-07-10T07:04:27Z</time>
      </trkpt>
      <trkpt lat="44.13131" lon="6.7409">
        <ele>1455.493895934</ele>
        <time>2021-07-10T07:04:28Z</time>
      </trkpt>
      <trkpt lat="44.13132" lon="6.74089">
        <ele>1456.4938607358</ele>
        <time>2021-07-10T07:04:30Z</time>
      </trkpt>
      <trkpt lat="44.13133" lon="6.74089">
        <ele>1456.493834217</ele>
        <time>2021-07-10T07:04:31Z</time>
      </trkpt>
      <trkpt lat="44.13134" lon="6.74089">
        <ele>1456.4938043909</ele>
        <time>2021-07-10T07:04:32Z</time>
      </trkpt>
      <trkpt lat="44.13135" lon="6.74088">
        <ele>1456.4937748001</ele>
        <time>2021-07-10T07:04:33Z</time>
      </trkpt>
      <trkpt lat="44.13135" lon="6.74088">
        <ele>1456.4937514942</ele>
        <time>2021-07-10T07:04:34Z</time>
      </trkpt>
      <trkpt lat="44.13136" lon="6.74088">
        <ele>1456.4937266909</ele>
        <time>2021-07-10T07:04:35Z</time>
      </trkpt>
      <trkpt lat="44.13137" lon="6.74087">
        <ele>1457.4937075411</ele>
        <time>2021-07-10T07:04:36Z</time>
      </trkpt>
      <trkpt lat="44.13139" lon="6.74086">
        <ele>1457.4936837259</ele>
        <time>2021-07-10T07:04:37Z</time>
      </trkpt>
      <trkpt lat="44.1314" lon="6.74084">
        <ele>1458.493665289</ele>
        <time>2021-07-10T07:04:38Z</time>
      </trkpt>
      <trkpt lat="44.1314" lon="6.74084">
        <ele>1458.4936462785</ele>
        <time>2021-07-10T07:04:39Z</time>
      </trkpt>
      <trkpt lat="44.13141" lon="6.74083">
        <ele>1459.4936259341</ele>
        <time>2021-07-10T07:04:40Z</time>
      </trkpt>
      <trkpt lat="44.13142" lon="6.74083">
        <ele>1459.4935986915</ele>
        <time>2021-07-10T07:04:41Z</time>
      </trkpt>
      <trkpt lat="44.13143" lon="6.74082">
        <ele>1459.4935724981</ele>
        <time>2021-07-10T07:04:42Z</time>
      </trkpt>
      <trkpt lat="44.13145" lon="6.74081">
        <ele>1459.4935457608</ele>
        <time>2021-07-10T07:04:43Z</time>
      </trkpt>
      <trkpt lat="44.13145" lon="6.7408">
        <ele>1460.4935397861</ele>
        <time>2021-07-10T07:04:44Z</time>
      </trkpt>
      <trkpt lat="44.13146" lon="6.74079">
        <ele>1460.4935340917</ele>
        <time>2021-07-10T07:04:45Z</time>
      </trkpt>
      <trkpt lat="44.13146" lon="6.74078">
        <ele>1460.4935383725</ele>
        <time>2021-07-10T07:04:46Z</time>
      </trkpt>
      <trkpt lat="44.13147" lon="6.74077">
        <ele>1460.4935243907</ele>
        <time>2021-07-10T07:04:47Z</time>
      </trkpt>
      <trkpt lat="44.13148" lon="6.74076">
        <ele>1461.4935141545</ele>
        <time>2021-07-10T07:04:48Z</time>
      </trkpt>
      <trkpt lat="44.13149" lon="6.74075">
        <ele>1462.4934918651</ele>
        <time>2021-07-10T07:04:49Z</time>
      </trkpt>
      <trkpt lat="44.1315" lon="6.74074">
        <ele>1463.4935008479</ele>
        <time>2021-07-10T07:04:50Z</time>
      </trkpt>
      <trkpt lat="44.1315" lon="6.74073">
        <ele>1463.4935003704</ele>
        <time>2021-07-10T07:04:51Z</time>
      </trkpt>
      <trkpt lat="44.13151" lon="6.74071">
        <ele>1463.4935029385</ele>
        <time>2021-07-10T07:04:52Z</time>
      </trkpt>
      <trkpt lat="44.13152" lon="6.7407">
        <ele>1463.4935021167</ele>
        <time>2021-07-10T07:04:53Z</time>
      </trkpt>
      <trkpt lat="44.13152" lon="6.74069">
        <ele>1462.4934999467</ele>
        <time>2021-07-10T07:04:54Z</time>
      </trkpt>
      <trkpt lat="44.13153" lon="6.74068">
        <ele>1462.4935040622</ele>
        <time>2021-07-10T07:04:55Z</time>
      </trkpt>
      <trkpt lat="44.13154" lon="6.74066">
        <ele>1462.4935176682</ele>
        <time>2021-07-10T07:04:56Z</time>
      </trkpt>
      <trkpt lat="44.13154" lon="6.74065">
        <ele>1462.4935125334</ele>
        <time>2021-07-10T07:04:57Z</time>
      </trkpt>
      <trkpt lat="44.13155" lon="6.74064">
        <ele>1462.4935082185</ele>
        <time>2021-07-10T07:04:58Z</time>
      </trkpt>
      <trkpt lat="44.13155" lon="6.74063">
        <ele>1462.4935137117</ele>
        <time>2021-07-10T07:04:59Z</time>
      </trkpt>
      <trkpt lat="44.13156" lon="6.74062">
        <ele>1461.4935193586</ele>
        <time>2021-07-10T07:05:00Z</time>
      </trkpt>
      <trkpt lat="44.13156" lon="6.74061">
        <ele>1461.4935257066</ele>
        <time>2021-07-10T07:05:01Z</time>
      </trkpt>
      <trkpt lat="44.13157" lon="6.7406">
        <ele>1462.4935311534</ele>
        <time>2021-07-10T07:05:02Z</time>
      </trkpt>
      <trkpt lat="44.13157" lon="6.74058">
        <ele>1462.4935512929</ele>
        <time>2021-07-10T07:05:03Z</time>
      </trkpt>
      <trkpt lat="44.13158" lon="6.74056">
        <ele>1461.4935395157</ele>
        <time>2021-07-10T07:05:05Z</time>
      </trkpt>
      <trkpt lat="44.13159" lon="6.74055">
        <ele>1462.4935514341</ele>
        <time>2021-07-10T07:05:06Z</time>
      </trkpt>
      <trkpt lat="44.13159" lon="6.74053">
        <ele>1462.4935552749</ele>
        <time>2021-07-10T07:05:07Z</time>
      </trkpt>
      <trkpt lat="44.1316" lon="6.74052">
        <ele>1462.4935571865</ele>
        <time>2021-07-10T07:05:08Z</time>
      </trkpt>
      <trkpt lat="44.13161" lon="6.7405">
        <ele>1462.4935459747</ele>
        <time>2021-07-10T07:05:10Z</time>
      </trkpt>
      <trkpt lat="44.13162" lon="6.74049">
        <ele>1462.4935479324</ele>
        <time>2021-07-10T07:05:11Z</time>
      </trkpt>
      <trkpt lat="44.13162" lon="6.74048">
        <ele>1463.4935684345</ele>
        <time>2021-07-10T07:05:12Z</time>
      </trkpt>
      <trkpt lat="44.13163" lon="6.74045">
        <ele>1463.4935928439</ele>
        <time>2021-07-10T07:05:14Z</time>
      </trkpt>
      <trkpt lat="44.13163" lon="6.74044">
        <ele>1463.4935989764</ele>
        <time>2021-07-10T07:05:15Z</time>
      </trkpt>
      <trkpt lat="44.13164" lon="6.74043">
        <ele>1463.4936034855</ele>
        <time>2021-07-10T07:05:16Z</time>
      </trkpt>
      <trkpt lat="44.13165" lon="6.74041">
        <ele>1463.4936067664</ele>
        <time>2021-07-10T07:05:18Z</time>
      </trkpt>
      <trkpt lat="44.13165" lon="6.7404">
        <ele>1462.4936153565</ele>
        <time>2021-07-10T07:05:19Z</time>
      </trkpt>
      <trkpt lat="44.13166" lon="6.74038">
        <ele>1462.4936260751</ele>
        <time>2021-07-10T07:05:20Z</time>
      </trkpt>
      <trkpt lat="44.13167" lon="6.74037">
        <ele>1462.4936274468</ele>
        <time>2021-07-10T07:05:21Z</time>
      </trkpt>
      <trkpt lat="44.13167" lon="6.74036">
        <ele>1462.4936242121</ele>
        <time>2021-07-10T07:05:22Z</time>
      </trkpt>
      <trkpt lat="44.13168" lon="6.74035">
        <ele>1462.4936141421</ele>
        <time>2021-07-10T07:05:23Z</time>
      </trkpt>
      <trkpt lat="44.13169" lon="6.74034">
        <ele>1462.4936103548</ele>
        <time>2021-07-10T07:05:24Z</time>
      </trkpt>
      <trkpt lat="44.13169" lon="6.74034">
        <ele>1462.493614498</ele>
        <time>2021-07-10T07:05:25Z</time>
      </trkpt>
      <trkpt lat="44.13169" lon="6.74033">
        <ele>1462.4936197807</ele>
        <time>2021-07-10T07:05:26Z</time>
      </trkpt>
      <trkpt lat="44.13169" lon="6.74032">
        <ele>1462.4936351507</ele>
        <time>2021-07-10T07:05:27Z</time>
      </trkpt>
      <trkpt lat="44.1317" lon="6.74031">
        <ele>1462.49364693</ele>
        <time>2021-07-10T07:05:28Z</time>
      </trkpt>
      <trkpt lat="44.1317" lon="6.7403">
        <ele>1462.4936595283</ele>
        <time>2021-07-10T07:05:29Z</time>
      </trkpt>
      <trkpt lat="44.1317" lon="6.74029">
        <ele>1462.493663671</ele>
        <time>2021-07-10T07:05:30Z</time>
      </trkpt>
      <trkpt lat="44.1317" lon="6.74028">
        <ele>1461.4936788363</ele>
        <time>2021-07-10T07:05:31Z</time>
      </trkpt>
      <trkpt lat="44.13171" lon="6.74026">
        <ele>1461.4936950072</ele>
        <time>2021-07-10T07:05:32Z</time>
      </trkpt>
      <trkpt lat="44.13171" lon="6.74025">
        <ele>1461.4937148598</ele>
        <time>2021-07-10T07:05:33Z</time>
      </trkpt>
      <trkpt lat="44.13171" lon="6.74024">
        <ele>1461.4937263478</ele>
        <time>2021-07-10T07:05:34Z</time>
      </trkpt>
      <trkpt lat="44.13171" lon="6.74022">
        <ele>1461.4937529458</ele>
        <time>2021-07-10T07:05:35Z</time>
      </trkpt>
      <trkpt lat="44.13172" lon="6.74021">
        <ele>1461.4937776015</ele>
        <time>2021-07-10T07:05:36Z</time>
      </trkpt>
      <trkpt lat="44.13172" lon="6.74019">
        <ele>1461.4937929592</ele>
        <time>2021-07-10T07:05:37Z</time>
      </trkpt>
      <trkpt lat="44.13173" lon="6.74018">
        <ele>1461.4937949769</ele>
        <time>2021-07-10T07:05:38Z</time>
      </trkpt>
      <trkpt lat="44.13173" lon="6.74017">
        <ele>1461.4937931635</ele>
        <time>2021-07-10T07:05:39Z</time>
      </trkpt>
      <trkpt lat="44.13174" lon="6.74016">
        <ele>1461.493795044</ele>
        <time>2021-07-10T07:05:40Z</time>
      </trkpt>
      <trkpt lat="44.13174" lon="6.74014">
        <ele>1461.4938027788</ele>
        <time>2021-07-10T07:05:41Z</time>
      </trkpt>
      <trkpt lat="44.13175" lon="6.74013">
        <ele>1461.4937980806</ele>
        <time>2021-07-10T07:05:42Z</time>
      </trkpt>
      <trkpt lat="44.13175" lon="6.74012">
        <ele>1461.4938013837</ele>
        <time>2021-07-10T07:05:43Z</time>
      </trkpt>
      <trkpt lat="44.13176" lon="6.74011">
        <ele>1461.4938147244</ele>
        <time>2021-07-10T07:05:44Z</time>
      </trkpt>
      <trkpt lat="44.13176" lon="6.7401">
        <ele>1462.4938292492</ele>
        <time>2021-07-10T07:05:45Z</time>
      </trkpt>
      <trkpt lat="44.13176" lon="6.74008">
        <ele>1462.4938514167</ele>
        <time>2021-07-10T07:05:46Z</time>
      </trkpt>
      <trkpt lat="44.13177" lon="6.74007">
        <ele>1462.4938853098</ele>
        <time>2021-07-10T07:05:47Z</time>
      </trkpt>
      <trkpt lat="44.13177" lon="6.74005">
        <ele>1462.4939032798</ele>
        <time>2021-07-10T07:05:48Z</time>
      </trkpt>
      <trkpt lat="44.13177" lon="6.74003">
        <ele>1462.4939288681</ele>
        <time>2021-07-10T07:05:49Z</time>
      </trkpt>
      <trkpt lat="44.13178" lon="6.74001">
        <ele>1462.4939514916</ele>
        <time>2021-07-10T07:05:50Z</time>
      </trkpt>
      <trkpt lat="44.13178" lon="6.73999">
        <ele>1462.4939659073</ele>
        <time>2021-07-10T07:05:51Z</time>
      </trkpt>
      <trkpt lat="44.13179" lon="6.73998">
        <ele>1461.4939945144</ele>
        <time>2021-07-10T07:05:52Z</time>
      </trkpt>
      <trkpt lat="44.13179" lon="6.73996">
        <ele>1462.4940178491</ele>
        <time>2021-07-10T07:05:53Z</time>
      </trkpt>
      <trkpt lat="44.13179" lon="6.73995">
        <ele>1462.4940297548</ele>
        <time>2021-07-10T07:05:54Z</time>
      </trkpt>
      <trkpt lat="44.13179" lon="6.73994">
        <ele>1462.4940462864</ele>
        <time>2021-07-10T07:05:55Z</time>
      </trkpt>
      <trkpt lat="44.1318" lon="6.73993">
        <ele>1462.4940641586</ele>
        <time>2021-07-10T07:05:56Z</time>
      </trkpt>
      <trkpt lat="44.1318" lon="6.73991">
        <ele>1462.4940736546</ele>
        <time>2021-07-10T07:05:57Z</time>
      </trkpt>
      <trkpt lat="44.1318" lon="6.7399">
        <ele>1462.4940935846</ele>
        <time>2021-07-10T07:05:58Z</time>
      </trkpt>
      <trkpt lat="44.1318" lon="6.73988">
        <ele>1462.494120125</ele>
        <time>2021-07-10T07:05:59Z</time>
      </trkpt>
      <trkpt lat="44.13181" lon="6.73987">
        <ele>1462.4941449462</ele>
        <time>2021-07-10T07:06:00Z</time>
      </trkpt>
      <trkpt lat="44.13181" lon="6.73986">
        <ele>1462.4941583453</ele>
        <time>2021-07-10T07:06:01Z</time>
      </trkpt>
      <trkpt lat="44.13181" lon="6.73986">
        <ele>1462.4941749309</ele>
        <time>2021-07-10T07:06:02Z</time>
      </trkpt>
      <trkpt lat="44.1318" lon="6.73985">
        <ele>1462.4941927233</ele>
        <time>2021-07-10T07:06:03Z</time>
      </trkpt>
      <trkpt lat="44.1318" lon="6.73984">
        <ele>1462.4942248276</ele>
        <time>2021-07-10T07:06:04Z</time>
      </trkpt>
      <trkpt lat="44.1318" lon="6.73983">
        <ele>1462.4942495403</ele>
        <time>2021-07-10T07:06:05Z</time>
      </trkpt>
      <trkpt lat="44.1318" lon="6.73982">
        <ele>1462.4942667098</ele>
        <time>2021-07-10T07:06:06Z</time>
      </trkpt>
      <trkpt lat="44.1318" lon="6.73981">
        <ele>1462.4942899146</ele>
        <time>2021-07-10T07:06:07Z</time>
      </trkpt>
      <trkpt lat="44.1318" lon="6.7398">
        <ele>1462.4943249088</ele>
        <time>2021-07-10T07:06:08Z</time>
      </trkpt>
      <trkpt lat="44.13179" lon="6.73978">
        <ele>1462.4943767774</ele>
        <time>2021-07-10T07:06:09Z</time>
      </trkpt>
      <trkpt lat="44.13179" lon="6.73977">
        <ele>1463.4944164106</ele>
        <time>2021-07-10T07:06:10Z</time>
      </trkpt>
      <trkpt lat="44.13178" lon="6.73976">
        <ele>1463.4944621949</ele>
        <time>2021-07-10T07:06:11Z</time>
      </trkpt>
      <trkpt lat="44.13178" lon="6.73975">
        <ele>1463.4945131113</ele>
        <time>2021-07-10T07:06:12Z</time>
      </trkpt>
      <trkpt lat="44.13177" lon="6.73973">
        <ele>1464.4945720104</ele>
        <time>2021-07-10T07:06:13Z</time>
      </trkpt>
      <trkpt lat="44.13176" lon="6.73973">
        <ele>1464.4946179428</ele>
        <time>2021-07-10T07:06:14Z</time>
      </trkpt>
      <trkpt lat="44.13175" lon="6.73972">
        <ele>1465.494650863</ele>
        <time>2021-07-10T07:06:15Z</time>
      </trkpt>
      <trkpt lat="44.13175" lon="6.73972">
        <ele>1465.4946884007</ele>
        <time>2021-07-10T07:06:16Z</time>
      </trkpt>
      <trkpt lat="44.13174" lon="6.7397">
        <ele>1465.4947354923</ele>
        <time>2021-07-10T07:06:17Z</time>
      </trkpt>
      <trkpt lat="44.13174" lon="6.73969">
        <ele>1466.4947805612</ele>
        <time>2021-07-10T07:06:18Z</time>
      </trkpt>
      <trkpt lat="44.13173" lon="6.73969">
        <ele>1466.4948203308</ele>
        <time>2021-07-10T07:06:19Z</time>
      </trkpt>
      <trkpt lat="44.13173" lon="6.73968">
        <ele>1466.4948463263</ele>
        <time>2021-07-10T07:06:24Z</time>
      </trkpt>
      <trkpt lat="44.13172" lon="6.73967">
        <ele>1465.4948782969</ele>
        <time>2021-07-10T07:06:25Z</time>
      </trkpt>
      <trkpt lat="44.13172" lon="6.73967">
        <ele>1465.4949163415</ele>
        <time>2021-07-10T07:06:26Z</time>
      </trkpt>
      <trkpt lat="44.13171" lon="6.73966">
        <ele>1465.4949411313</ele>
        <time>2021-07-10T07:06:27Z</time>
      </trkpt>
      <trkpt lat="44.13171" lon="6.73966">
        <ele>1465.4949655875</ele>
        <time>2021-07-10T07:06:28Z</time>
      </trkpt>
      <trkpt lat="44.1317" lon="6.73965">
        <ele>1465.4949933298</ele>
        <time>2021-07-10T07:06:29Z</time>
      </trkpt>
      <trkpt lat="44.1317" lon="6.73964">
        <ele>1465.4950345396</ele>
        <time>2021-07-10T07:06:30Z</time>
      </trkpt>
      <trkpt lat="44.1317" lon="6.73962">
        <ele>1465.4950743658</ele>
        <time>2021-07-10T07:06:31Z</time>
      </trkpt>
      <trkpt lat="44.13169" lon="6.73961">
        <ele>1465.4951228856</ele>
        <time>2021-07-10T07:06:32Z</time>
      </trkpt>
      <trkpt lat="44.13169" lon="6.7396">
        <ele>1465.4951699449</ele>
        <time>2021-07-10T07:06:33Z</time>
      </trkpt>
      <trkpt lat="44.13168" lon="6.73959">
        <ele>1465.4952054728</ele>
        <time>2021-07-10T07:06:34Z</time>
      </trkpt>
      <trkpt lat="44.13168" lon="6.73959">
        <ele>1466.4952314795</ele>
        <time>2021-07-10T07:06:36Z</time>
      </trkpt>
      <trkpt lat="44.13167" lon="6.73959">
        <ele>1466.4952658732</ele>
        <time>2021-07-10T07:06:37Z</time>
      </trkpt>
      <trkpt lat="44.13166" lon="6.73958">
        <ele>1466.4953021754</ele>
        <time>2021-07-10T07:06:38Z</time>
      </trkpt>
      <trkpt lat="44.13165" lon="6.73958">
        <ele>1466.4953425551</ele>
        <time>2021-07-10T07:06:40Z</time>
      </trkpt>
      <trkpt lat="44.13165" lon="6.73958">
        <ele>1466.495365326</ele>
        <time>2021-07-10T07:06:41Z</time>
      </trkpt>
      <trkpt lat="44.13164" lon="6.73957">
        <ele>1466.4953969588</ele>
        <time>2021-07-10T07:06:42Z</time>
      </trkpt>
      <trkpt lat="44.13164" lon="6.73956">
        <ele>1466.4954417868</ele>
        <time>2021-07-10T07:06:43Z</time>
      </trkpt>
      <trkpt lat="44.13164" lon="6.73954">
        <ele>1466.495476382</ele>
        <time>2021-07-10T07:06:44Z</time>
      </trkpt>
      <trkpt lat="44.13163" lon="6.73953">
        <ele>1466.4955096579</ele>
        <time>2021-07-10T07:06:45Z</time>
      </trkpt>
      <trkpt lat="44.13163" lon="6.73953">
        <ele>1466.4955355562</ele>
        <time>2021-07-10T07:06:46Z</time>
      </trkpt>
      <trkpt lat="44.13163" lon="6.73952">
        <ele>1467.4955626259</ele>
        <time>2021-07-10T07:06:47Z</time>
      </trkpt>
      <trkpt lat="44.13162" lon="6.73952">
        <ele>1467.4955881033</ele>
        <time>2021-07-10T07:06:50Z</time>
      </trkpt>
      <trkpt lat="44.13161" lon="6.73949">
        <ele>1467.4956676435</ele>
        <time>2021-07-10T07:06:51Z</time>
      </trkpt>
      <trkpt lat="44.13161" lon="6.73948">
        <ele>1467.4957069001</ele>
        <time>2021-07-10T07:06:52Z</time>
      </trkpt>
      <trkpt lat="44.13161" lon="6.73947">
        <ele>1467.4957412812</ele>
        <time>2021-07-10T07:06:53Z</time>
      </trkpt>
      <trkpt lat="44.13161" lon="6.73946">
        <ele>1468.4957610455</ele>
        <time>2021-07-10T07:06:55Z</time>
      </trkpt>
      <trkpt lat="44.13161" lon="6.73945">
        <ele>1468.4957875132</ele>
        <time>2021-07-10T07:06:57Z</time>
      </trkpt>
      <trkpt lat="44.13161" lon="6.73944">
        <ele>1468.4958027079</ele>
        <time>2021-07-10T07:06:58Z</time>
      </trkpt>
      <trkpt lat="44.13161" lon="6.73944">
        <ele>1468.4958266022</ele>
        <time>2021-07-10T07:07:02Z</time>
      </trkpt>
      <trkpt lat="44.13159" lon="6.73942">
        <ele>1468.4959312986</ele>
        <time>2021-07-10T07:07:03Z</time>
      </trkpt>
      <trkpt lat="44.13158" lon="6.73941">
        <ele>1468.4959574935</ele>
        <time>2021-07-10T07:07:04Z</time>
      </trkpt>
      <trkpt lat="44.13158" lon="6.73941">
        <ele>1468.4959806363</ele>
        <time>2021-07-10T07:07:05Z</time>
      </trkpt>
      <trkpt lat="44.13158" lon="6.7394">
        <ele>1467.4960172741</ele>
        <time>2021-07-10T07:07:06Z</time>
      </trkpt>
      <trkpt lat="44.13157" lon="6.73939">
        <ele>1467.4960436567</ele>
        <time>2021-07-10T07:07:07Z</time>
      </trkpt>
      <trkpt lat="44.13157" lon="6.73938">
        <ele>1467.4960714733</ele>
        <time>2021-07-10T07:07:10Z</time>
      </trkpt>
      <trkpt lat="44.13156" lon="6.73936">
        <ele>1468.49615573</ele>
        <time>2021-07-10T07:07:11Z</time>
      </trkpt>
      <trkpt lat="44.13155" lon="6.73936">
        <ele>1468.4961912073</ele>
        <time>2021-07-10T07:07:12Z</time>
      </trkpt>
      <trkpt lat="44.13155" lon="6.73935">
        <ele>1468.4962219505</ele>
        <time>2021-07-10T07:07:13Z</time>
      </trkpt>
      <trkpt lat="44.13154" lon="6.73935">
        <ele>1468.496251767</ele>
        <time>2021-07-10T07:07:17Z</time>
      </trkpt>
      <trkpt lat="44.13153" lon="6.73934">
        <ele>1468.4963203702</ele>
        <time>2021-07-10T07:07:18Z</time>
      </trkpt>
      <trkpt lat="44.13152" lon="6.73934">
        <ele>1468.4963556674</ele>
        <time>2021-07-10T07:07:19Z</time>
      </trkpt>
      <trkpt lat="44.13151" lon="6.73933">
        <ele>1468.496404271</ele>
        <time>2021-07-10T07:07:20Z</time>
      </trkpt>
      <trkpt lat="44.1315" lon="6.73933">
        <ele>1468.4964551447</ele>
        <time>2021-07-10T07:07:21Z</time>
      </trkpt>
      <trkpt lat="44.13149" lon="6.73932">
        <ele>1469.4964890341</ele>
        <time>2021-07-10T07:07:22Z</time>
      </trkpt>
      <trkpt lat="44.13149" lon="6.73932">
        <ele>1469.4965193058</ele>
        <time>2021-07-10T07:07:23Z</time>
      </trkpt>
      <trkpt lat="44.13148" lon="6.73932">
        <ele>1468.4965454754</ele>
        <time>2021-07-10T07:07:24Z</time>
      </trkpt>
      <trkpt lat="44.13148" lon="6.73931">
        <ele>1469.4965815741</ele>
        <time>2021-07-10T07:07:25Z</time>
      </trkpt>
      <trkpt lat="44.13146" lon="6.73931">
        <ele>1469.4966297865</ele>
        <time>2021-07-10T07:07:26Z</time>
      </trkpt>
      <trkpt lat="44.13146" lon="6.73931">
        <ele>1469.4966674542</ele>
        <time>2021-07-10T07:07:27Z</time>
      </trkpt>
      <trkpt lat="44.13145" lon="6.7393">
        <ele>1469.4967136549</ele>
        <time>2021-07-10T07:07:28Z</time>
      </trkpt>
      <trkpt lat="44.13144" lon="6.73929">
        <ele>1470.4967605342</ele>
        <time>2021-07-10T07:07:29Z</time>
      </trkpt>
      <trkpt lat="44.13143" lon="6.73929">
        <ele>1470.4967957171</ele>
        <time>2021-07-10T07:07:30Z</time>
      </trkpt>
      <trkpt lat="44.13143" lon="6.73929">
        <ele>1470.4968205039</ele>
        <time>2021-07-10T07:07:31Z</time>
      </trkpt>
      <trkpt lat="44.13142" lon="6.73929">
        <ele>1471.4968393853</ele>
        <time>2021-07-10T07:07:32Z</time>
      </trkpt>
      <trkpt lat="44.13142" lon="6.73928">
        <ele>1471.4968652714</ele>
        <time>2021-07-10T07:07:35Z</time>
      </trkpt>
      <trkpt lat="44.1314" lon="6.73926">
        <ele>1474.4969641813</ele>
        <time>2021-07-10T07:07:36Z</time>
      </trkpt>
      <trkpt lat="44.1314" lon="6.73926">
        <ele>1475.4969886601</ele>
        <time>2021-07-10T07:07:37Z</time>
      </trkpt>
      <trkpt lat="44.1314" lon="6.73925">
        <ele>1475.4970139981</ele>
        <time>2021-07-10T07:07:38Z</time>
      </trkpt>
      <trkpt lat="44.13139" lon="6.73925">
        <ele>1476.4970362297</ele>
        <time>2021-07-10T07:07:39Z</time>
      </trkpt>
      <trkpt lat="44.13139" lon="6.73924">
        <ele>1477.4970843808</ele>
        <time>2021-07-10T07:07:40Z</time>
      </trkpt>
      <trkpt lat="44.13138" lon="6.73923">
        <ele>1477.4971376209</ele>
        <time>2021-07-10T07:07:41Z</time>
      </trkpt>
      <trkpt lat="44.13137" lon="6.73922">
        <ele>1477.4971686144</ele>
        <time>2021-07-10T07:07:42Z</time>
      </trkpt>
      <trkpt lat="44.13137" lon="6.73921">
        <ele>1477.4971976426</ele>
        <time>2021-07-10T07:07:43Z</time>
      </trkpt>
      <trkpt lat="44.13137" lon="6.7392">
        <ele>1477.4972263597</ele>
        <time>2021-07-10T07:07:44Z</time>
      </trkpt>
      <trkpt lat="44.13137" lon="6.73919">
        <ele>1477.4972595385</ele>
        <time>2021-07-10T07:07:45Z</time>
      </trkpt>
      <trkpt lat="44.13137" lon="6.73918">
        <ele>1477.49728557</ele>
        <time>2021-07-10T07:07:46Z</time>
      </trkpt>
      <trkpt lat="44.13136" lon="6.73917">
        <ele>1477.4973224022</ele>
        <time>2021-07-10T07:07:47Z</time>
      </trkpt>
      <trkpt lat="44.13136" lon="6.73915">
        <ele>1477.4973442925</ele>
        <time>2021-07-10T07:07:48Z</time>
      </trkpt>
      <trkpt lat="44.13136" lon="6.73914">
        <ele>1477.4973774647</ele>
        <time>2021-07-10T07:07:49Z</time>
      </trkpt>
      <trkpt lat="44.13136" lon="6.73913">
        <ele>1477.4974188925</ele>
        <time>2021-07-10T07:07:50Z</time>
      </trkpt>
      <trkpt lat="44.13135" lon="6.73912">
        <ele>1477.4974537245</ele>
        <time>2021-07-10T07:07:51Z</time>
      </trkpt>
      <trkpt lat="44.13135" lon="6.73911">
        <ele>1477.497480317</ele>
        <time>2021-07-10T07:07:52Z</time>
      </trkpt>
      <trkpt lat="44.13135" lon="6.7391">
        <ele>1476.4975131123</ele>
        <time>2021-07-10T07:07:53Z</time>
      </trkpt>
      <trkpt lat="44.13135" lon="6.73909">
        <ele>1476.4975489169</ele>
        <time>2021-07-10T07:07:54Z</time>
      </trkpt>
      <trkpt lat="44.13134" lon="6.73908">
        <ele>1477.4975911784</ele>
        <time>2021-07-10T07:07:55Z</time>
      </trkpt>
      <trkpt lat="44.13133" lon="6.73907">
        <ele>1476.4976417664</ele>
        <time>2021-07-10T07:07:56Z</time>
      </trkpt>
      <trkpt lat="44.13133" lon="6.73906">
        <ele>1476.4976855224</ele>
        <time>2021-07-10T07:07:57Z</time>
      </trkpt>
      <trkpt lat="44.13132" lon="6.73906">
        <ele>1476.4977255617</ele>
        <time>2021-07-10T07:07:58Z</time>
      </trkpt>
      <trkpt lat="44.13131" lon="6.73905">
        <ele>1476.4977717797</ele>
        <time>2021-07-10T07:07:59Z</time>
      </trkpt>
      <trkpt lat="44.1313" lon="6.73905">
        <ele>1476.4978189289</ele>
        <time>2021-07-10T07:08:00Z</time>
      </trkpt>
      <trkpt lat="44.13129" lon="6.73905">
        <ele>1476.4978579331</ele>
        <time>2021-07-10T07:08:01Z</time>
      </trkpt>
      <trkpt lat="44.13128" lon="6.73906">
        <ele>1476.4978792686</ele>
        <time>2021-07-10T07:08:02Z</time>
      </trkpt>
      <trkpt lat="44.13127" lon="6.73906">
        <ele>1476.497913431</ele>
        <time>2021-07-10T07:08:03Z</time>
      </trkpt>
      <trkpt lat="44.13126" lon="6.73906">
        <ele>1476.4979396985</ele>
        <time>2021-07-10T07:08:04Z</time>
      </trkpt>
      <trkpt lat="44.13125" lon="6.73905">
        <ele>1477.4979730691</ele>
        <time>2021-07-10T07:08:05Z</time>
      </trkpt>
      <trkpt lat="44.13125" lon="6.73905">
        <ele>1477.4980048681</ele>
        <time>2021-07-10T07:08:06Z</time>
      </trkpt>
      <trkpt lat="44.13124" lon="6.73905">
        <ele>1477.4980337086</ele>
        <time>2021-07-10T07:08:08Z</time>
      </trkpt>
      <trkpt lat="44.13124" lon="6.73905">
        <ele>1477.4980541289</ele>
        <time>2021-07-10T07:08:09Z</time>
      </trkpt>
      <trkpt lat="44.13123" lon="6.73905">
        <ele>1477.498073946</ele>
        <time>2021-07-10T07:08:10Z</time>
      </trkpt>
      <trkpt lat="44.13122" lon="6.73905">
        <ele>1477.4981072267</ele>
        <time>2021-07-10T07:08:11Z</time>
      </trkpt>
      <trkpt lat="44.13122" lon="6.73904">
        <ele>1477.4981347921</ele>
        <time>2021-07-10T07:08:12Z</time>
      </trkpt>
      <trkpt lat="44.13121" lon="6.73904">
        <ele>1476.4981507149</ele>
        <time>2021-07-10T07:08:13Z</time>
      </trkpt>
      <trkpt lat="44.1312" lon="6.73904">
        <ele>1477.4982261003</ele>
        <time>2021-07-10T07:08:15Z</time>
      </trkpt>
      <trkpt lat="44.13119" lon="6.73903">
        <ele>1476.4982843984</ele>
        <time>2021-07-10T07:08:16Z</time>
      </trkpt>
      <trkpt lat="44.13118" lon="6.73902">
        <ele>1477.4983301649</ele>
        <time>2021-07-10T07:08:17Z</time>
      </trkpt>
      <trkpt lat="44.13117" lon="6.73903">
        <ele>1477.4983365838</ele>
        <time>2021-07-10T07:08:19Z</time>
      </trkpt>
      <trkpt lat="44.13116" lon="6.73904">
        <ele>1477.4983909485</ele>
        <time>2021-07-10T07:08:21Z</time>
      </trkpt>
      <trkpt lat="44.13114" lon="6.73904">
        <ele>1477.4984291875</ele>
        <time>2021-07-10T07:08:22Z</time>
      </trkpt>
      <trkpt lat="44.13113" lon="6.73904">
        <ele>1477.4984789744</ele>
        <time>2021-07-10T07:08:23Z</time>
      </trkpt>
      <trkpt lat="44.13111" lon="6.73903">
        <ele>1477.498562173</ele>
        <time>2021-07-10T07:08:25Z</time>
      </trkpt>
      <trkpt lat="44.13111" lon="6.73903">
        <ele>1477.4985976117</ele>
        <time>2021-07-10T07:08:27Z</time>
      </trkpt>
      <trkpt lat="44.1311" lon="6.73902">
        <ele>1477.4986440591</ele>
        <time>2021-07-10T07:08:29Z</time>
      </trkpt>
      <trkpt lat="44.1311" lon="6.739">
        <ele>1477.4986797905</ele>
        <time>2021-07-10T07:08:31Z</time>
      </trkpt>
      <trkpt lat="44.1311" lon="6.739">
        <ele>1477.4986797905</ele>
        <time>2021-07-10T07:08:32Z</time>
      </trkpt>
      <trkpt lat="44.13109" lon="6.73899">
        <ele>1477.4987590587</ele>
        <time>2021-07-10T07:08:33Z</time>
      </trkpt>
      <trkpt lat="44.13108" lon="6.73897">
        <ele>1477.4988199336</ele>
        <time>2021-07-10T07:08:35Z</time>
      </trkpt>
      <trkpt lat="44.13108" lon="6.73896">
        <ele>1478.4988476182</ele>
        <time>2021-07-10T07:08:37Z</time>
      </trkpt>
      <trkpt lat="44.13106" lon="6.73894">
        <ele>1478.4989388722</ele>
        <time>2021-07-10T07:08:39Z</time>
      </trkpt>
      <trkpt lat="44.13106" lon="6.73893">
        <ele>1478.4989654897</ele>
        <time>2021-07-10T07:08:45Z</time>
      </trkpt>
      <trkpt lat="44.13106" lon="6.73892">
        <ele>1478.499001755</ele>
        <time>2021-07-10T07:08:46Z</time>
      </trkpt>
      <trkpt lat="44.13106" lon="6.73891">
        <ele>1478.4990201664</ele>
        <time>2021-07-10T07:08:47Z</time>
      </trkpt>
      <trkpt lat="44.13105" lon="6.7389">
        <ele>1478.499098737</ele>
        <time>2021-07-10T07:08:49Z</time>
      </trkpt>
      <trkpt lat="44.13104" lon="6.73888">
        <ele>1479.4991539118</ele>
        <time>2021-07-10T07:08:51Z</time>
      </trkpt>
      <trkpt lat="44.13103" lon="6.73888">
        <ele>1479.4991861505</ele>
        <time>2021-07-10T07:08:52Z</time>
      </trkpt>
      <trkpt lat="44.13103" lon="6.73888">
        <ele>1479.499194315</ele>
        <time>2021-07-10T07:08:54Z</time>
      </trkpt>
      <trkpt lat="44.13102" lon="6.73885">
        <ele>1478.4992893126</ele>
        <time>2021-07-10T07:08:56Z</time>
      </trkpt>
      <trkpt lat="44.13101" lon="6.73884">
        <ele>1478.4993474125</ele>
        <time>2021-07-10T07:08:57Z</time>
      </trkpt>
      <trkpt lat="44.131" lon="6.73883">
        <ele>1478.4994103557</ele>
        <time>2021-07-10T07:08:58Z</time>
      </trkpt>
      <trkpt lat="44.131" lon="6.73882">
        <ele>1477.4994543739</ele>
        <time>2021-07-10T07:08:59Z</time>
      </trkpt>
      <trkpt lat="44.13098" lon="6.7388">
        <ele>1477.499548609</ele>
        <time>2021-07-10T07:09:01Z</time>
      </trkpt>
      <trkpt lat="44.13098" lon="6.73879">
        <ele>1477.4995717733</ele>
        <time>2021-07-10T07:09:02Z</time>
      </trkpt>
      <trkpt lat="44.13098" lon="6.73879">
        <ele>1477.4995949215</ele>
        <time>2021-07-10T07:09:03Z</time>
      </trkpt>
      <trkpt lat="44.13097" lon="6.73877">
        <ele>1477.4996473498</ele>
        <time>2021-07-10T07:09:05Z</time>
      </trkpt>
      <trkpt lat="44.13097" lon="6.73876">
        <ele>1477.4996651151</ele>
        <time>2021-07-10T07:09:07Z</time>
      </trkpt>
      <trkpt lat="44.13096" lon="6.73874">
        <ele>1477.4997693379</ele>
        <time>2021-07-10T07:09:09Z</time>
      </trkpt>
      <trkpt lat="44.13094" lon="6.73871">
        <ele>1477.4998745971</ele>
        <time>2021-07-10T07:09:11Z</time>
      </trkpt>
      <trkpt lat="44.13094" lon="6.73871">
        <ele>1476.4999064798</ele>
        <time>2021-07-10T07:09:12Z</time>
      </trkpt>
      <trkpt lat="44.13094" lon="6.7387">
        <ele>1476.4999269351</ele>
        <time>2021-07-10T07:09:13Z</time>
      </trkpt>
      <trkpt lat="44.13093" lon="6.73869">
        <ele>1477.4999801436</ele>
        <time>2021-07-10T07:09:15Z</time>
      </trkpt>
      <trkpt lat="44.13092" lon="6.73868">
        <ele>1477.500009425</ele>
        <time>2021-07-10T07:09:16Z</time>
      </trkpt>
      <trkpt lat="44.13093" lon="6.73867">
        <ele>1477.5000287967</ele>
        <time>2021-07-10T07:09:17Z</time>
      </trkpt>
      <trkpt lat="44.13091" lon="6.73865">
        <ele>1478.5001221353</ele>
        <time>2021-07-10T07:09:19Z</time>
      </trkpt>
      <trkpt lat="44.13089" lon="6.73863">
        <ele>1479.5002334769</ele>
        <time>2021-07-10T07:09:21Z</time>
      </trkpt>
      <trkpt lat="44.13089" lon="6.73862">
        <ele>1479.5002941893</ele>
        <time>2021-07-10T07:09:22Z</time>
      </trkpt>
      <trkpt lat="44.13088" lon="6.73861">
        <ele>1480.5003474594</ele>
        <time>2021-07-10T07:09:23Z</time>
      </trkpt>
      <trkpt lat="44.13087" lon="6.73858">
        <ele>1481.5004433714</ele>
        <time>2021-07-10T07:09:25Z</time>
      </trkpt>
      <trkpt lat="44.13086" lon="6.73857">
        <ele>1482.5004913806</ele>
        <time>2021-07-10T07:09:26Z</time>
      </trkpt>
      <trkpt lat="44.13086" lon="6.73857">
        <ele>1482.5005085504</ele>
        <time>2021-07-10T07:09:28Z</time>
      </trkpt>
      <trkpt lat="44.13084" lon="6.73855">
        <ele>1483.5006076451</ele>
        <time>2021-07-10T07:09:30Z</time>
      </trkpt>
      <trkpt lat="44.13084" lon="6.73854">
        <ele>1484.5006538308</ele>
        <time>2021-07-10T07:09:31Z</time>
      </trkpt>
      <trkpt lat="44.13083" lon="6.73853">
        <ele>1484.5007045025</ele>
        <time>2021-07-10T07:09:32Z</time>
      </trkpt>
      <trkpt lat="44.13082" lon="6.73852">
        <ele>1484.5007425201</ele>
        <time>2021-07-10T07:09:33Z</time>
      </trkpt>
      <trkpt lat="44.13081" lon="6.73851">
        <ele>1484.5007949612</ele>
        <time>2021-07-10T07:09:34Z</time>
      </trkpt>
      <trkpt lat="44.1308" lon="6.7385">
        <ele>1485.5008825126</ele>
        <time>2021-07-10T07:09:36Z</time>
      </trkpt>
      <trkpt lat="44.1308" lon="6.73848">
        <ele>1486.5009262047</ele>
        <time>2021-07-10T07:09:37Z</time>
      </trkpt>
      <trkpt lat="44.13079" lon="6.73846">
        <ele>1486.5009839495</ele>
        <time>2021-07-10T07:09:39Z</time>
      </trkpt>
      <trkpt lat="44.13079" lon="6.73844">
        <ele>1486.501036473</ele>
        <time>2021-07-10T07:09:40Z</time>
      </trkpt>
      <trkpt lat="44.13079" lon="6.73843">
        <ele>1487.5010706528</ele>
        <time>2021-07-10T07:09:41Z</time>
      </trkpt>
      <trkpt lat="44.13079" lon="6.73842">
        <ele>1487.5010925914</ele>
        <time>2021-07-10T07:09:43Z</time>
      </trkpt>
      <trkpt lat="44.13078" lon="6.73839">
        <ele>1488.5011833574</ele>
        <time>2021-07-10T07:09:45Z</time>
      </trkpt>
      <trkpt lat="44.13077" lon="6.73838">
        <ele>1489.5012180062</ele>
        <time>2021-07-10T07:09:46Z</time>
      </trkpt>
      <trkpt lat="44.13077" lon="6.73837">
        <ele>1489.5012320678</ele>
        <time>2021-07-10T07:09:47Z</time>
      </trkpt>
      <trkpt lat="44.13077" lon="6.73836">
        <ele>1491.5012623063</ele>
        <time>2021-07-10T07:09:49Z</time>
      </trkpt>
      <trkpt lat="44.13076" lon="6.73837">
        <ele>1492.5012729581</ele>
        <time>2021-07-10T07:09:54Z</time>
      </trkpt>
      <trkpt lat="44.13076" lon="6.73837">
        <ele>1493.5012829504</ele>
        <time>2021-07-10T07:09:55Z</time>
      </trkpt>
      <trkpt lat="44.13076" lon="6.73837">
        <ele>1493.5013059209</ele>
        <time>2021-07-10T07:09:56Z</time>
      </trkpt>
      <trkpt lat="44.13074" lon="6.73837">
        <ele>1494.5013614603</ele>
        <time>2021-07-10T07:09:58Z</time>
      </trkpt>
      <trkpt lat="44.13075" lon="6.73835">
        <ele>1496.5013806873</ele>
        <time>2021-07-10T07:10:06Z</time>
      </trkpt>
      <trkpt lat="44.13074" lon="6.73835">
        <ele>1497.501401904</ele>
        <time>2021-07-10T07:10:08Z</time>
      </trkpt>
      <trkpt lat="44.13074" lon="6.73834">
        <ele>1499.5014330799</ele>
        <time>2021-07-10T07:10:14Z</time>
      </trkpt>
      <trkpt lat="44.13073" lon="6.73833">
        <ele>1500.5014693131</ele>
        <time>2021-07-10T07:10:15Z</time>
      </trkpt>
      <trkpt lat="44.13073" lon="6.73832">
        <ele>1500.5014968472</ele>
        <time>2021-07-10T07:10:16Z</time>
      </trkpt>
      <trkpt lat="44.13073" lon="6.73832">
        <ele>1500.5015245325</ele>
        <time>2021-07-10T07:10:20Z</time>
      </trkpt>
      <trkpt lat="44.13072" lon="6.7383">
        <ele>1500.5015715791</ele>
        <time>2021-07-10T07:10:21Z</time>
      </trkpt>
      <trkpt lat="44.13072" lon="6.73831">
        <ele>1500.5015720399</ele>
        <time>2021-07-10T07:10:23Z</time>
      </trkpt>
      <trkpt lat="44.13072" lon="6.73831">
        <ele>1500.5015765583</ele>
        <time>2021-07-10T07:10:24Z</time>
      </trkpt>
      <trkpt lat="44.13071" lon="6.73832">
        <ele>1500.5015853921</ele>
        <time>2021-07-10T07:10:25Z</time>
      </trkpt>
      <trkpt lat="44.13071" lon="6.73833">
        <ele>1501.5015887667</ele>
        <time>2021-07-10T07:10:27Z</time>
      </trkpt>
      <trkpt lat="44.1307" lon="6.73834">
        <ele>1502.5015769138</ele>
        <time>2021-07-10T07:10:29Z</time>
      </trkpt>
      <trkpt lat="44.1307" lon="6.73834">
        <ele>1502.5015824817</ele>
        <time>2021-07-10T07:10:31Z</time>
      </trkpt>
      <trkpt lat="44.13069" lon="6.73834">
        <ele>1502.5016154765</ele>
        <time>2021-07-10T07:10:32Z</time>
      </trkpt>
      <trkpt lat="44.13069" lon="6.73834">
        <ele>1502.5016320252</ele>
        <time>2021-07-10T07:10:33Z</time>
      </trkpt>
      <trkpt lat="44.13068" lon="6.73833">
        <ele>1503.5016720605</ele>
        <time>2021-07-10T07:10:35Z</time>
      </trkpt>
      <trkpt lat="44.13067" lon="6.73833">
        <ele>1504.501714836</ele>
        <time>2021-07-10T07:10:38Z</time>
      </trkpt>
      <trkpt lat="44.13067" lon="6.7383">
        <ele>1503.5017919618</ele>
        <time>2021-07-10T07:10:39Z</time>
      </trkpt>
      <trkpt lat="44.13066" lon="6.73829">
        <ele>1503.5018416646</ele>
        <time>2021-07-10T07:10:40Z</time>
      </trkpt>
      <trkpt lat="44.13065" lon="6.73828">
        <ele>1503.5019118425</ele>
        <time>2021-07-10T07:10:41Z</time>
      </trkpt>
      <trkpt lat="44.13064" lon="6.73828">
        <ele>1503.5019520428</ele>
        <time>2021-07-10T07:10:42Z</time>
      </trkpt>
      <trkpt lat="44.13063" lon="6.73827">
        <ele>1503.5019793268</ele>
        <time>2021-07-10T07:10:43Z</time>
      </trkpt>
      <trkpt lat="44.13063" lon="6.73827">
        <ele>1503.5020087254</ele>
        <time>2021-07-10T07:10:44Z</time>
      </trkpt>
      <trkpt lat="44.13062" lon="6.73827">
        <ele>1503.5020457237</ele>
        <time>2021-07-10T07:10:46Z</time>
      </trkpt>
      <trkpt lat="44.13061" lon="6.73827">
        <ele>1504.5020638471</ele>
        <time>2021-07-10T07:10:47Z</time>
      </trkpt>
      <trkpt lat="44.13061" lon="6.73826">
        <ele>1503.5020959756</ele>
        <time>2021-07-10T07:10:48Z</time>
      </trkpt>
      <trkpt lat="44.13061" lon="6.73826">
        <ele>1503.50211733</ele>
        <time>2021-07-10T07:10:49Z</time>
      </trkpt>
      <trkpt lat="44.1306" lon="6.73825">
        <ele>1503.5021567678</ele>
        <time>2021-07-10T07:10:51Z</time>
      </trkpt>
      <trkpt lat="44.1306" lon="6.73825">
        <ele>1503.5021734455</ele>
        <time>2021-07-10T07:10:53Z</time>
      </trkpt>
      <trkpt lat="44.13059" lon="6.73823">
        <ele>1503.502241493</ele>
        <time>2021-07-10T07:10:55Z</time>
      </trkpt>
      <trkpt lat="44.13058" lon="6.73822">
        <ele>1503.5022836134</ele>
        <time>2021-07-10T07:10:56Z</time>
      </trkpt>
      <trkpt lat="44.13058" lon="6.73821">
        <ele>1504.5022999059</ele>
        <time>2021-07-10T07:10:57Z</time>
      </trkpt>
      <trkpt lat="44.13058" lon="6.7382">
        <ele>1504.5023204648</ele>
        <time>2021-07-10T07:11:00Z</time>
      </trkpt>
      <trkpt lat="44.13058" lon="6.73818">
        <ele>1505.5023671302</ele>
        <time>2021-07-10T07:11:01Z</time>
      </trkpt>
      <trkpt lat="44.13059" lon="6.73817">
        <ele>1508.5023522926</ele>
        <time>2021-07-10T07:11:03Z</time>
      </trkpt>
      <trkpt lat="44.1306" lon="6.73815">
        <ele>1508.5023746217</ele>
        <time>2021-07-10T07:11:04Z</time>
      </trkpt>
      <trkpt lat="44.1306" lon="6.73814">
        <ele>1509.5023912197</ele>
        <time>2021-07-10T07:11:05Z</time>
      </trkpt>
      <trkpt lat="44.13061" lon="6.73812">
        <ele>1510.5023857954</ele>
        <time>2021-07-10T07:11:06Z</time>
      </trkpt>
      <trkpt lat="44.13062" lon="6.73811">
        <ele>1510.5023619043</ele>
        <time>2021-07-10T07:11:07Z</time>
      </trkpt>
      <trkpt lat="44.13064" lon="6.73809">
        <ele>1510.5023577805</ele>
        <time>2021-07-10T07:11:09Z</time>
      </trkpt>
      <trkpt lat="44.13065" lon="6.73807">
        <ele>1511.5023437257</ele>
        <time>2021-07-10T07:11:11Z</time>
      </trkpt>
      <trkpt lat="44.13066" lon="6.73807">
        <ele>1511.5023274273</ele>
        <time>2021-07-10T07:11:12Z</time>
      </trkpt>
      <trkpt lat="44.13066" lon="6.73806">
        <ele>1512.5023350672</ele>
        <time>2021-07-10T07:11:13Z</time>
      </trkpt>
      <trkpt lat="44.13066" lon="6.73805">
        <ele>1512.5023433981</ele>
        <time>2021-07-10T07:11:14Z</time>
      </trkpt>
      <trkpt lat="44.13067" lon="6.73804">
        <ele>1512.5023550809</ele>
        <time>2021-07-10T07:11:15Z</time>
      </trkpt>
      <trkpt lat="44.13068" lon="6.73802">
        <ele>1512.5023462809</ele>
        <time>2021-07-10T07:11:16Z</time>
      </trkpt>
      <trkpt lat="44.13068" lon="6.73801">
        <ele>1512.502358971</ele>
        <time>2021-07-10T07:11:17Z</time>
      </trkpt>
      <trkpt lat="44.13069" lon="6.738">
        <ele>1512.5023467495</ele>
        <time>2021-07-10T07:11:18Z</time>
      </trkpt>
      <trkpt lat="44.13069" lon="6.73798">
        <ele>1511.5023657392</ele>
        <time>2021-07-10T07:11:19Z</time>
      </trkpt>
      <trkpt lat="44.1307" lon="6.73797">
        <ele>1511.5023839181</ele>
        <time>2021-07-10T07:11:20Z</time>
      </trkpt>
      <trkpt lat="44.1307" lon="6.73796">
        <ele>1511.5023851025</ele>
        <time>2021-07-10T07:11:21Z</time>
      </trkpt>
      <trkpt lat="44.13071" lon="6.73795">
        <ele>1512.5023776026</ele>
        <time>2021-07-10T07:11:22Z</time>
      </trkpt>
      <trkpt lat="44.13071" lon="6.73794">
        <ele>1513.5023675342</ele>
        <time>2021-07-10T07:11:24Z</time>
      </trkpt>
      <trkpt lat="44.13071" lon="6.73794">
        <ele>1513.5023675342</ele>
        <time>2021-07-10T07:11:26Z</time>
      </trkpt>
      <trkpt lat="44.13072" lon="6.73791">
        <ele>1514.5024031371</ele>
        <time>2021-07-10T07:11:28Z</time>
      </trkpt>
      <trkpt lat="44.13072" lon="6.73789">
        <ele>1515.5024483772</ele>
        <time>2021-07-10T07:11:30Z</time>
      </trkpt>
      <trkpt lat="44.13072" lon="6.73788">
        <ele>1515.5024469433</ele>
        <time>2021-07-10T07:11:32Z</time>
      </trkpt>
      <trkpt lat="44.13073" lon="6.73787">
        <ele>1515.5024499239</ele>
        <time>2021-07-10T07:11:34Z</time>
      </trkpt>
      <trkpt lat="44.13073" lon="6.73786">
        <ele>1515.5024713158</ele>
        <time>2021-07-10T07:11:46Z</time>
      </trkpt>
      <trkpt lat="44.13073" lon="6.73785">
        <ele>1517.5024973682</ele>
        <time>2021-07-10T07:11:47Z</time>
      </trkpt>
      <trkpt lat="44.13074" lon="6.73784">
        <ele>1517.5024928305</ele>
        <time>2021-07-10T07:11:49Z</time>
      </trkpt>
      <trkpt lat="44.13074" lon="6.73783">
        <ele>1517.5025037952</ele>
        <time>2021-07-10T07:11:50Z</time>
      </trkpt>
      <trkpt lat="44.13074" lon="6.73782">
        <ele>1517.5025275566</ele>
        <time>2021-07-10T07:11:51Z</time>
      </trkpt>
      <trkpt lat="44.13074" lon="6.73781">
        <ele>1517.5025491046</ele>
        <time>2021-07-10T07:11:52Z</time>
      </trkpt>
      <trkpt lat="44.13074" lon="6.7378">
        <ele>1517.5025682162</ele>
        <time>2021-07-10T07:11:53Z</time>
      </trkpt>
      <trkpt lat="44.13075" lon="6.73779">
        <ele>1517.502546126</ele>
        <time>2021-07-10T07:11:55Z</time>
      </trkpt>
      <trkpt lat="44.13075" lon="6.73778">
        <ele>1517.5025501087</ele>
        <time>2021-07-10T07:11:57Z</time>
      </trkpt>
      <trkpt lat="44.13077" lon="6.73776">
        <ele>1517.5025463737</ele>
        <time>2021-07-10T07:11:59Z</time>
      </trkpt>
      <trkpt lat="44.13077" lon="6.73775">
        <ele>1516.502553357</ele>
        <time>2021-07-10T07:12:01Z</time>
      </trkpt>
      <trkpt lat="44.13077" lon="6.73774">
        <ele>1516.5025692533</ele>
        <time>2021-07-10T07:12:03Z</time>
      </trkpt>
      <trkpt lat="44.13078" lon="6.73773">
        <ele>1517.5025738157</ele>
        <time>2021-07-10T07:12:04Z</time>
      </trkpt>
      <trkpt lat="44.13078" lon="6.73772">
        <ele>1517.5025849447</ele>
        <time>2021-07-10T07:12:05Z</time>
      </trkpt>
      <trkpt lat="44.13078" lon="6.73772">
        <ele>1517.5025760537</ele>
        <time>2021-07-10T07:12:06Z</time>
      </trkpt>
      <trkpt lat="44.13079" lon="6.73771">
        <ele>1517.5025745609</ele>
        <time>2021-07-10T07:12:07Z</time>
      </trkpt>
      <trkpt lat="44.13079" lon="6.7377">
        <ele>1517.5025867769</ele>
        <time>2021-07-10T07:12:08Z</time>
      </trkpt>
      <trkpt lat="44.13079" lon="6.73769">
        <ele>1517.50260099</ele>
        <time>2021-07-10T07:12:09Z</time>
      </trkpt>
      <trkpt lat="44.13078" lon="6.73767">
        <ele>1517.5026902931</ele>
        <time>2021-07-10T07:12:11Z</time>
      </trkpt>
      <trkpt lat="44.13078" lon="6.73766">
        <ele>1517.5027079423</ele>
        <time>2021-07-10T07:12:12Z</time>
      </trkpt>
      <trkpt lat="44.13078" lon="6.73765">
        <ele>1517.5027242554</ele>
        <time>2021-07-10T07:12:13Z</time>
      </trkpt>
      <trkpt lat="44.13078" lon="6.73764">
        <ele>1517.5027325552</ele>
        <time>2021-07-10T07:12:14Z</time>
      </trkpt>
      <trkpt lat="44.13079" lon="6.73762">
        <ele>1518.5027392078</ele>
        <time>2021-07-10T07:12:16Z</time>
      </trkpt>
      <trkpt lat="44.1308" lon="6.73762">
        <ele>1518.5027313457</ele>
        <time>2021-07-10T07:12:17Z</time>
      </trkpt>
      <trkpt lat="44.1308" lon="6.73761">
        <ele>1518.50272713</ele>
        <time>2021-07-10T07:12:20Z</time>
      </trkpt>
      <trkpt lat="44.1308" lon="6.7376">
        <ele>1519.5027326642</ele>
        <time>2021-07-10T07:12:21Z</time>
      </trkpt>
      <trkpt lat="44.13081" lon="6.7376">
        <ele>1519.5027182353</ele>
        <time>2021-07-10T07:12:22Z</time>
      </trkpt>
      <trkpt lat="44.13081" lon="6.73758">
        <ele>1520.5027458129</ele>
        <time>2021-07-10T07:12:24Z</time>
      </trkpt>
      <trkpt lat="44.13081" lon="6.73758">
        <ele>1520.5027458129</ele>
        <time>2021-07-10T07:12:26Z</time>
      </trkpt>
      <trkpt lat="44.13082" lon="6.73756">
        <ele>1521.5027697923</ele>
        <time>2021-07-10T07:12:27Z</time>
      </trkpt>
      <trkpt lat="44.13082" lon="6.73753">
        <ele>1521.5028127942</ele>
        <time>2021-07-10T07:12:29Z</time>
      </trkpt>
      <trkpt lat="44.13084" lon="6.73752">
        <ele>1521.5027732995</ele>
        <time>2021-07-10T07:12:31Z</time>
      </trkpt>
      <trkpt lat="44.13085" lon="6.73752">
        <ele>1522.5027254059</ele>
        <time>2021-07-10T07:12:32Z</time>
      </trkpt>
      <trkpt lat="44.13086" lon="6.73751">
        <ele>1522.5027304023</ele>
        <time>2021-07-10T07:12:33Z</time>
      </trkpt>
      <trkpt lat="44.13086" lon="6.73751">
        <ele>1523.502723475</ele>
        <time>2021-07-10T07:12:35Z</time>
      </trkpt>
      <trkpt lat="44.13086" lon="6.7375">
        <ele>1523.5027207215</ele>
        <time>2021-07-10T07:12:36Z</time>
      </trkpt>
      <trkpt lat="44.13087" lon="6.73749">
        <ele>1524.5027169515</ele>
        <time>2021-07-10T07:12:37Z</time>
      </trkpt>
      <trkpt lat="44.13089" lon="6.73748">
        <ele>1526.5026635014</ele>
        <time>2021-07-10T07:12:39Z</time>
      </trkpt>
      <trkpt lat="44.1309" lon="6.73746">
        <ele>1526.502665273</ele>
        <time>2021-07-10T07:12:40Z</time>
      </trkpt>
      <trkpt lat="44.1309" lon="6.73746">
        <ele>1527.5026646679</ele>
        <time>2021-07-10T07:12:41Z</time>
      </trkpt>
      <trkpt lat="44.13091" lon="6.73745">
        <ele>1527.5026631456</ele>
        <time>2021-07-10T07:12:42Z</time>
      </trkpt>
      <trkpt lat="44.13091" lon="6.73744">
        <ele>1527.5026611555</ele>
        <time>2021-07-10T07:12:43Z</time>
      </trkpt>
      <trkpt lat="44.13092" lon="6.73743">
        <ele>1528.5026459334</ele>
        <time>2021-07-10T07:12:44Z</time>
      </trkpt>
      <trkpt lat="44.13093" lon="6.73743">
        <ele>1528.5026279207</ele>
        <time>2021-07-10T07:12:45Z</time>
      </trkpt>
      <trkpt lat="44.13093" lon="6.73742">
        <ele>1529.5026240901</ele>
        <time>2021-07-10T07:12:46Z</time>
      </trkpt>
      <trkpt lat="44.13094" lon="6.73741">
        <ele>1529.5026022675</ele>
        <time>2021-07-10T07:12:47Z</time>
      </trkpt>
      <trkpt lat="44.13096" lon="6.7374">
        <ele>1530.5025772702</ele>
        <time>2021-07-10T07:12:48Z</time>
      </trkpt>
      <trkpt lat="44.13096" lon="6.73739">
        <ele>1530.502573046</ele>
        <time>2021-07-10T07:12:49Z</time>
      </trkpt>
      <trkpt lat="44.13097" lon="6.73739">
        <ele>1530.5025526207</ele>
        <time>2021-07-10T07:12:50Z</time>
      </trkpt>
      <trkpt lat="44.13097" lon="6.73738">
        <ele>1531.5025527633</ele>
        <time>2021-07-10T07:12:51Z</time>
      </trkpt>
      <trkpt lat="44.13098" lon="6.73737">
        <ele>1531.5025608384</ele>
        <time>2021-07-10T07:12:52Z</time>
      </trkpt>
      <trkpt lat="44.13099" lon="6.73735">
        <ele>1531.5025634583</ele>
        <time>2021-07-10T07:12:54Z</time>
      </trkpt>
      <trkpt lat="44.13099" lon="6.73735">
        <ele>1531.5025453777</ele>
        <time>2021-07-10T07:12:55Z</time>
      </trkpt>
      <trkpt lat="44.131" lon="6.73734">
        <ele>1531.5025360762</ele>
        <time>2021-07-10T07:12:56Z</time>
      </trkpt>
      <trkpt lat="44.13101" lon="6.73733">
        <ele>1532.5025297289</ele>
        <time>2021-07-10T07:12:57Z</time>
      </trkpt>
      <trkpt lat="44.13102" lon="6.73732">
        <ele>1533.502519039</ele>
        <time>2021-07-10T07:12:58Z</time>
      </trkpt>
      <trkpt lat="44.13103" lon="6.7373">
        <ele>1533.5025232219</ele>
        <time>2021-07-10T07:13:00Z</time>
      </trkpt>
      <trkpt lat="44.13103" lon="6.7373">
        <ele>1533.5025232219</ele>
        <time>2021-07-10T07:13:01Z</time>
      </trkpt>
      <trkpt lat="44.13103" lon="6.73729">
        <ele>1533.5025468654</ele>
        <time>2021-07-10T07:13:02Z</time>
      </trkpt>
      <trkpt lat="44.13103" lon="6.73727">
        <ele>1532.5025935552</ele>
        <time>2021-07-10T07:13:04Z</time>
      </trkpt>
      <trkpt lat="44.13103" lon="6.73724">
        <ele>1532.5026426784</ele>
        <time>2021-07-10T07:13:06Z</time>
      </trkpt>
      <trkpt lat="44.13103" lon="6.73724">
        <ele>1532.5026426784</ele>
        <time>2021-07-10T07:13:08Z</time>
      </trkpt>
      <trkpt lat="44.13102" lon="6.73721">
        <ele>1532.5027267347</ele>
        <time>2021-07-10T07:13:10Z</time>
      </trkpt>
      <trkpt lat="44.13103" lon="6.7372">
        <ele>1532.5027041957</ele>
        <time>2021-07-10T07:13:11Z</time>
      </trkpt>
      <trkpt lat="44.13104" lon="6.7372">
        <ele>1532.5026920705</ele>
        <time>2021-07-10T07:13:12Z</time>
      </trkpt>
      <trkpt lat="44.13105" lon="6.73719">
        <ele>1532.5026734998</ele>
        <time>2021-07-10T07:13:13Z</time>
      </trkpt>
      <trkpt lat="44.13105" lon="6.73718">
        <ele>1532.5026819167</ele>
        <time>2021-07-10T07:13:18Z</time>
      </trkpt>
      <trkpt lat="44.13106" lon="6.73716">
        <ele>1532.5027059668</ele>
        <time>2021-07-10T07:13:20Z</time>
      </trkpt>
      <trkpt lat="44.13106" lon="6.73715">
        <ele>1532.5027169058</ele>
        <time>2021-07-10T07:13:21Z</time>
      </trkpt>
      <trkpt lat="44.13106" lon="6.73714">
        <ele>1532.5027299382</ele>
        <time>2021-07-10T07:13:22Z</time>
      </trkpt>
      <trkpt lat="44.13106" lon="6.73712">
        <ele>1532.5027620284</ele>
        <time>2021-07-10T07:13:23Z</time>
      </trkpt>
      <trkpt lat="44.13107" lon="6.73711">
        <ele>1533.5027510857</ele>
        <time>2021-07-10T07:13:27Z</time>
      </trkpt>
      <trkpt lat="44.13108" lon="6.73709">
        <ele>1533.5027511536</ele>
        <time>2021-07-10T07:13:28Z</time>
      </trkpt>
      <trkpt lat="44.13108" lon="6.73708">
        <ele>1532.5027733694</ele>
        <time>2021-07-10T07:13:29Z</time>
      </trkpt>
      <trkpt lat="44.13108" lon="6.73707">
        <ele>1533.5027943898</ele>
        <time>2021-07-10T07:13:30Z</time>
      </trkpt>
      <trkpt lat="44.13108" lon="6.73706">
        <ele>1533.5028186008</ele>
        <time>2021-07-10T07:13:31Z</time>
      </trkpt>
      <trkpt lat="44.13108" lon="6.73706">
        <ele>1533.5028186008</ele>
        <time>2021-07-10T07:13:32Z</time>
      </trkpt>
      <trkpt lat="44.13109" lon="6.73704">
        <ele>1533.5028322561</ele>
        <time>2021-07-10T07:13:34Z</time>
      </trkpt>
      <trkpt lat="44.13109" lon="6.73702">
        <ele>1533.5028533029</ele>
        <time>2021-07-10T07:13:36Z</time>
      </trkpt>
      <trkpt lat="44.13109" lon="6.73701">
        <ele>1533.5028897822</ele>
        <time>2021-07-10T07:13:39Z</time>
      </trkpt>
      <trkpt lat="44.1311" lon="6.73699">
        <ele>1534.5028966757</ele>
        <time>2021-07-10T07:13:40Z</time>
      </trkpt>
      <trkpt lat="44.1311" lon="6.73699">
        <ele>1534.5028936901</ele>
        <time>2021-07-10T07:13:41Z</time>
      </trkpt>
      <trkpt lat="44.13111" lon="6.73697">
        <ele>1534.5029025995</ele>
        <time>2021-07-10T07:13:42Z</time>
      </trkpt>
      <trkpt lat="44.13112" lon="6.73695">
        <ele>1534.5028951924</ele>
        <time>2021-07-10T07:13:43Z</time>
      </trkpt>
      <trkpt lat="44.13112" lon="6.73694">
        <ele>1534.5028999814</ele>
        <time>2021-07-10T07:13:44Z</time>
      </trkpt>
      <trkpt lat="44.13112" lon="6.73694">
        <ele>1533.5029240696</ele>
        <time>2021-07-10T07:13:47Z</time>
      </trkpt>
      <trkpt lat="44.13112" lon="6.73691">
        <ele>1533.5029911452</ele>
        <time>2021-07-10T07:13:48Z</time>
      </trkpt>
      <trkpt lat="44.13111" lon="6.73691">
        <ele>1533.5030094846</ele>
        <time>2021-07-10T07:13:49Z</time>
      </trkpt>
      <trkpt lat="44.13111" lon="6.7369">
        <ele>1533.5030294631</ele>
        <time>2021-07-10T07:13:50Z</time>
      </trkpt>
      <trkpt lat="44.13111" lon="6.73689">
        <ele>1533.5030645351</ele>
        <time>2021-07-10T07:13:51Z</time>
      </trkpt>
      <trkpt lat="44.13111" lon="6.73688">
        <ele>1533.5030865497</ele>
        <time>2021-07-10T07:13:52Z</time>
      </trkpt>
      <trkpt lat="44.1311" lon="6.73687">
        <ele>1534.5031207365</ele>
        <time>2021-07-10T07:13:53Z</time>
      </trkpt>
      <trkpt lat="44.1311" lon="6.73685">
        <ele>1533.5032111231</ele>
        <time>2021-07-10T07:13:55Z</time>
      </trkpt>
      <trkpt lat="44.1311" lon="6.73684">
        <ele>1534.5032087573</ele>
        <time>2021-07-10T07:13:58Z</time>
      </trkpt>
      <trkpt lat="44.1311" lon="6.73682">
        <ele>1534.5032693851</ele>
        <time>2021-07-10T07:13:59Z</time>
      </trkpt>
      <trkpt lat="44.1311" lon="6.73681">
        <ele>1534.5032702479</ele>
        <time>2021-07-10T07:14:00Z</time>
      </trkpt>
      <trkpt lat="44.13111" lon="6.73679">
        <ele>1534.5032896423</ele>
        <time>2021-07-10T07:14:01Z</time>
      </trkpt>
      <trkpt lat="44.1311" lon="6.73678">
        <ele>1534.5033101436</ele>
        <time>2021-07-10T07:14:02Z</time>
      </trkpt>
      <trkpt lat="44.1311" lon="6.73678">
        <ele>1534.5033261212</ele>
        <time>2021-07-10T07:14:03Z</time>
      </trkpt>
      <trkpt lat="44.1311" lon="6.73676">
        <ele>1535.5033576618</ele>
        <time>2021-07-10T07:14:05Z</time>
      </trkpt>
      <trkpt lat="44.1311" lon="6.73676">
        <ele>1535.5033576618</ele>
        <time>2021-07-10T07:14:07Z</time>
      </trkpt>
      <trkpt lat="44.13111" lon="6.73674">
        <ele>1534.5033922659</ele>
        <time>2021-07-10T07:14:08Z</time>
      </trkpt>
      <trkpt lat="44.13111" lon="6.73672">
        <ele>1534.5034266771</ele>
        <time>2021-07-10T07:14:09Z</time>
      </trkpt>
      <trkpt lat="44.13111" lon="6.73671">
        <ele>1535.5034421822</ele>
        <time>2021-07-10T07:14:10Z</time>
      </trkpt>
      <trkpt lat="44.13111" lon="6.73669">
        <ele>1535.5034622798</ele>
        <time>2021-07-10T07:14:11Z</time>
      </trkpt>
      <trkpt lat="44.13111" lon="6.73669">
        <ele>1535.5034774143</ele>
        <time>2021-07-10T07:14:12Z</time>
      </trkpt>
      <trkpt lat="44.13111" lon="6.73668">
        <ele>1534.5035160874</ele>
        <time>2021-07-10T07:14:13Z</time>
      </trkpt>
      <trkpt lat="44.13111" lon="6.73667">
        <ele>1534.5035192894</ele>
        <time>2021-07-10T07:14:15Z</time>
      </trkpt>
      <trkpt lat="44.13112" lon="6.73666">
        <ele>1534.5035262274</ele>
        <time>2021-07-10T07:14:17Z</time>
      </trkpt>
      <trkpt lat="44.13113" lon="6.73665">
        <ele>1535.5034985296</ele>
        <time>2021-07-10T07:14:19Z</time>
      </trkpt>
      <trkpt lat="44.13112" lon="6.73665">
        <ele>1534.5035131894</ele>
        <time>2021-07-10T07:14:21Z</time>
      </trkpt>
      <trkpt lat="44.13112" lon="6.73664">
        <ele>1534.5035349565</ele>
        <time>2021-07-10T07:14:22Z</time>
      </trkpt>
      <trkpt lat="44.13112" lon="6.73663">
        <ele>1534.5035597457</ele>
        <time>2021-07-10T07:14:23Z</time>
      </trkpt>
      <trkpt lat="44.13111" lon="6.73662">
        <ele>1535.5036337954</ele>
        <time>2021-07-10T07:14:25Z</time>
      </trkpt>
      <trkpt lat="44.13111" lon="6.73662">
        <ele>1536.5036403443</ele>
        <time>2021-07-10T07:14:34Z</time>
      </trkpt>
      <trkpt lat="44.13108" lon="6.73658">
        <ele>1538.5038134674</ele>
        <time>2021-07-10T07:14:36Z</time>
      </trkpt>
      <trkpt lat="44.13109" lon="6.73658">
        <ele>1540.5038072767</ele>
        <time>2021-07-10T07:14:40Z</time>
      </trkpt>
      <trkpt lat="44.13109" lon="6.73656">
        <ele>1540.5038278434</ele>
        <time>2021-07-10T07:14:41Z</time>
      </trkpt>
      <trkpt lat="44.13109" lon="6.73654">
        <ele>1539.5038697735</ele>
        <time>2021-07-10T07:14:42Z</time>
      </trkpt>
      <trkpt lat="44.13109" lon="6.73654">
        <ele>1539.5038697735</ele>
        <time>2021-07-10T07:14:44Z</time>
      </trkpt>
      <trkpt lat="44.13109" lon="6.73652">
        <ele>1539.503912431</ele>
        <time>2021-07-10T07:14:45Z</time>
      </trkpt>
      <trkpt lat="44.13109" lon="6.73651">
        <ele>1539.5039189235</ele>
        <time>2021-07-10T07:14:46Z</time>
      </trkpt>
      <trkpt lat="44.13109" lon="6.7365">
        <ele>1540.5039520827</ele>
        <time>2021-07-10T07:14:47Z</time>
      </trkpt>
      <trkpt lat="44.13109" lon="6.73647">
        <ele>1539.5040362389</ele>
        <time>2021-07-10T07:14:49Z</time>
      </trkpt>
      <trkpt lat="44.13108" lon="6.73646">
        <ele>1540.5040756174</ele>
        <time>2021-07-10T07:14:52Z</time>
      </trkpt>
      <trkpt lat="44.13107" lon="6.73645">
        <ele>1540.5041325866</ele>
        <time>2021-07-10T07:14:53Z</time>
      </trkpt>
      <trkpt lat="44.13107" lon="6.73644">
        <ele>1540.5041725091</ele>
        <time>2021-07-10T07:14:57Z</time>
      </trkpt>
      <trkpt lat="44.13107" lon="6.73643">
        <ele>1541.5041966692</ele>
        <time>2021-07-10T07:14:58Z</time>
      </trkpt>
      <trkpt lat="44.13107" lon="6.73641">
        <ele>1542.5042444175</ele>
        <time>2021-07-10T07:15:00Z</time>
      </trkpt>
      <trkpt lat="44.13106" lon="6.7364">
        <ele>1543.5042728971</ele>
        <time>2021-07-10T07:15:01Z</time>
      </trkpt>
      <trkpt lat="44.13106" lon="6.73639">
        <ele>1544.5043049587</ele>
        <time>2021-07-10T07:15:02Z</time>
      </trkpt>
      <trkpt lat="44.13106" lon="6.73637">
        <ele>1543.5043471345</ele>
        <time>2021-07-10T07:15:04Z</time>
      </trkpt>
      <trkpt lat="44.13105" lon="6.73633">
        <ele>1544.5044562749</ele>
        <time>2021-07-10T07:15:06Z</time>
      </trkpt>
      <trkpt lat="44.13105" lon="6.73633">
        <ele>1544.5044819265</ele>
        <time>2021-07-10T07:15:07Z</time>
      </trkpt>
      <trkpt lat="44.13104" lon="6.73632">
        <ele>1544.5045147943</ele>
        <time>2021-07-10T07:15:08Z</time>
      </trkpt>
      <trkpt lat="44.13104" lon="6.73631">
        <ele>1544.5045396782</ele>
        <time>2021-07-10T07:15:09Z</time>
      </trkpt>
      <trkpt lat="44.13103" lon="6.73631">
        <ele>1544.5045675125</ele>
        <time>2021-07-10T07:15:10Z</time>
      </trkpt>
      <trkpt lat="44.13103" lon="6.73631">
        <ele>1545.504605791</ele>
        <time>2021-07-10T07:15:11Z</time>
      </trkpt>
      <trkpt lat="44.13102" lon="6.7363">
        <ele>1545.5046338491</ele>
        <time>2021-07-10T07:15:12Z</time>
      </trkpt>
      <trkpt lat="44.13103" lon="6.73629">
        <ele>1546.5046294089</ele>
        <time>2021-07-10T07:15:13Z</time>
      </trkpt>
      <trkpt lat="44.13104" lon="6.73628">
        <ele>1545.5045961832</ele>
        <time>2021-07-10T07:15:14Z</time>
      </trkpt>
      <trkpt lat="44.13106" lon="6.73626">
        <ele>1545.5045922576</ele>
        <time>2021-07-10T07:15:16Z</time>
      </trkpt>
      <trkpt lat="44.13105" lon="6.73625">
        <ele>1546.5046256241</ele>
        <time>2021-07-10T07:15:17Z</time>
      </trkpt>
      <trkpt lat="44.13106" lon="6.73624">
        <ele>1546.504645183</ele>
        <time>2021-07-10T07:15:18Z</time>
      </trkpt>
      <trkpt lat="44.13106" lon="6.73623">
        <ele>1547.5046539621</ele>
        <time>2021-07-10T07:15:21Z</time>
      </trkpt>
      <trkpt lat="44.13107" lon="6.73621">
        <ele>1548.5046613183</ele>
        <time>2021-07-10T07:15:22Z</time>
      </trkpt>
      <trkpt lat="44.13106" lon="6.73621">
        <ele>1547.5046688595</ele>
        <time>2021-07-10T07:15:23Z</time>
      </trkpt>
      <trkpt lat="44.13105" lon="6.73623">
        <ele>1546.5046652523</ele>
        <time>2021-07-10T07:15:25Z</time>
      </trkpt>
      <trkpt lat="44.13105" lon="6.73623">
        <ele>1546.5046652523</ele>
        <time>2021-07-10T07:15:27Z</time>
      </trkpt>
      <trkpt lat="44.13105" lon="6.7362">
        <ele>1547.5047341431</ele>
        <time>2021-07-10T07:15:28Z</time>
      </trkpt>
      <trkpt lat="44.13105" lon="6.7362">
        <ele>1547.5047355582</ele>
        <time>2021-07-10T07:15:30Z</time>
      </trkpt>
      <trkpt lat="44.13105" lon="6.73619">
        <ele>1548.5047650579</ele>
        <time>2021-07-10T07:15:33Z</time>
      </trkpt>
      <trkpt lat="44.13105" lon="6.73615">
        <ele>1548.5048195055</ele>
        <time>2021-07-10T07:15:34Z</time>
      </trkpt>
      <trkpt lat="44.13105" lon="6.73614">
        <ele>1549.5048481745</ele>
        <time>2021-07-10T07:15:35Z</time>
      </trkpt>
      <trkpt lat="44.13105" lon="6.73613">
        <ele>1549.5048764616</ele>
        <time>2021-07-10T07:15:38Z</time>
      </trkpt>
      <trkpt lat="44.13105" lon="6.7361">
        <ele>1549.5049569939</ele>
        <time>2021-07-10T07:15:40Z</time>
      </trkpt>
      <trkpt lat="44.13105" lon="6.73609">
        <ele>1549.5049754639</ele>
        <time>2021-07-10T07:15:41Z</time>
      </trkpt>
      <trkpt lat="44.13105" lon="6.73607">
        <ele>1549.5050026382</ele>
        <time>2021-07-10T07:15:42Z</time>
      </trkpt>
      <trkpt lat="44.13105" lon="6.73607">
        <ele>1550.5050320155</ele>
        <time>2021-07-10T07:15:43Z</time>
      </trkpt>
      <trkpt lat="44.13105" lon="6.73606">
        <ele>1550.5050429666</ele>
        <time>2021-07-10T07:15:46Z</time>
      </trkpt>
      <trkpt lat="44.13104" lon="6.73606">
        <ele>1551.5050959287</ele>
        <time>2021-07-10T07:15:47Z</time>
      </trkpt>
      <trkpt lat="44.13103" lon="6.73605">
        <ele>1552.5051371408</ele>
        <time>2021-07-10T07:15:49Z</time>
      </trkpt>
      <trkpt lat="44.13101" lon="6.73603">
        <ele>1552.5052231642</ele>
        <time>2021-07-10T07:15:51Z</time>
      </trkpt>
      <trkpt lat="44.13101" lon="6.73603">
        <ele>1553.5052455564</ele>
        <time>2021-07-10T07:15:52Z</time>
      </trkpt>
      <trkpt lat="44.13101" lon="6.73601">
        <ele>1553.5052611684</ele>
        <time>2021-07-10T07:15:55Z</time>
      </trkpt>
      <trkpt lat="44.13101" lon="6.736">
        <ele>1554.5052859625</ele>
        <time>2021-07-10T07:15:56Z</time>
      </trkpt>
      <trkpt lat="44.13101" lon="6.73599">
        <ele>1554.5053079765</ele>
        <time>2021-07-10T07:15:57Z</time>
      </trkpt>
      <trkpt lat="44.13101" lon="6.73599">
        <ele>1554.505325871</ele>
        <time>2021-07-10T07:15:59Z</time>
      </trkpt>
      <trkpt lat="44.13101" lon="6.73599">
        <ele>1554.5053487092</ele>
        <time>2021-07-10T07:16:00Z</time>
      </trkpt>
      <trkpt lat="44.131" lon="6.73598">
        <ele>1554.5053699736</ele>
        <time>2021-07-10T07:16:02Z</time>
      </trkpt>
      <trkpt lat="44.131" lon="6.73596">
        <ele>1553.5054409545</ele>
        <time>2021-07-10T07:16:04Z</time>
      </trkpt>
      <trkpt lat="44.13099" lon="6.73595">
        <ele>1554.5054836071</ele>
        <time>2021-07-10T07:16:05Z</time>
      </trkpt>
      <trkpt lat="44.13099" lon="6.73594">
        <ele>1554.5055171164</ele>
        <time>2021-07-10T07:16:06Z</time>
      </trkpt>
      <trkpt lat="44.13098" lon="6.73593">
        <ele>1554.5055733808</ele>
        <time>2021-07-10T07:16:07Z</time>
      </trkpt>
      <trkpt lat="44.13098" lon="6.73592">
        <ele>1553.5056115415</ele>
        <time>2021-07-10T07:16:08Z</time>
      </trkpt>
      <trkpt lat="44.13097" lon="6.73591">
        <ele>1553.5056630288</ele>
        <time>2021-07-10T07:16:09Z</time>
      </trkpt>
      <trkpt lat="44.13096" lon="6.7359">
        <ele>1553.5057061998</ele>
        <time>2021-07-10T07:16:10Z</time>
      </trkpt>
      <trkpt lat="44.13096" lon="6.73588">
        <ele>1553.5057451429</ele>
        <time>2021-07-10T07:16:11Z</time>
      </trkpt>
      <trkpt lat="44.13096" lon="6.73587">
        <ele>1554.505778202</ele>
        <time>2021-07-10T07:16:12Z</time>
      </trkpt>
      <trkpt lat="44.13095" lon="6.73585">
        <ele>1554.5058546719</ele>
        <time>2021-07-10T07:16:14Z</time>
      </trkpt>
      <trkpt lat="44.13095" lon="6.73583">
        <ele>1555.5058897551</ele>
        <time>2021-07-10T07:16:16Z</time>
      </trkpt>
      <trkpt lat="44.13095" lon="6.73583">
        <ele>1556.5058947581</ele>
        <time>2021-07-10T07:16:24Z</time>
      </trkpt>
      <trkpt lat="44.13094" lon="6.73582">
        <ele>1556.5059408173</ele>
        <time>2021-07-10T07:16:25Z</time>
      </trkpt>
      <trkpt lat="44.13094" lon="6.73581">
        <ele>1556.5059766321</ele>
        <time>2021-07-10T07:16:26Z</time>
      </trkpt>
      <trkpt lat="44.13093" lon="6.7358">
        <ele>1557.5060244068</ele>
        <time>2021-07-10T07:16:27Z</time>
      </trkpt>
      <trkpt lat="44.13092" lon="6.73579">
        <ele>1557.5060772936</ele>
        <time>2021-07-10T07:16:28Z</time>
      </trkpt>
      <trkpt lat="44.13091" lon="6.73578">
        <ele>1557.5061345669</ele>
        <time>2021-07-10T07:16:29Z</time>
      </trkpt>
      <trkpt lat="44.13091" lon="6.73577">
        <ele>1557.5061741368</ele>
        <time>2021-07-10T07:16:30Z</time>
      </trkpt>
      <trkpt lat="44.1309" lon="6.73577">
        <ele>1557.5062062216</ele>
        <time>2021-07-10T07:16:31Z</time>
      </trkpt>
      <trkpt lat="44.1309" lon="6.73576">
        <ele>1557.5062500699</ele>
        <time>2021-07-10T07:16:32Z</time>
      </trkpt>
      <trkpt lat="44.13089" lon="6.73575">
        <ele>1558.506283993</ele>
        <time>2021-07-10T07:16:33Z</time>
      </trkpt>
      <trkpt lat="44.13089" lon="6.73574">
        <ele>1558.5063120314</ele>
        <time>2021-07-10T07:16:34Z</time>
      </trkpt>
      <trkpt lat="44.13089" lon="6.73573">
        <ele>1558.5063379462</ele>
        <time>2021-07-10T07:16:35Z</time>
      </trkpt>
      <trkpt lat="44.13089" lon="6.73571">
        <ele>1558.5063694724</ele>
        <time>2021-07-10T07:16:36Z</time>
      </trkpt>
      <trkpt lat="44.13089" lon="6.7357">
        <ele>1558.5063846683</ele>
        <time>2021-07-10T07:16:37Z</time>
      </trkpt>
      <trkpt lat="44.13089" lon="6.73569">
        <ele>1558.506405099</ele>
        <time>2021-07-10T07:16:38Z</time>
      </trkpt>
      <trkpt lat="44.1309" lon="6.73567">
        <ele>1559.5064043689</ele>
        <time>2021-07-10T07:16:40Z</time>
      </trkpt>
      <trkpt lat="44.13091" lon="6.73566">
        <ele>1559.5063999946</ele>
        <time>2021-07-10T07:16:41Z</time>
      </trkpt>
      <trkpt lat="44.13091" lon="6.73565">
        <ele>1558.5064018888</ele>
        <time>2021-07-10T07:16:42Z</time>
      </trkpt>
      <trkpt lat="44.13092" lon="6.73564">
        <ele>1558.5064123525</ele>
        <time>2021-07-10T07:16:43Z</time>
      </trkpt>
      <trkpt lat="44.13093" lon="6.73561">
        <ele>1558.506436552</ele>
        <time>2021-07-10T07:16:45Z</time>
      </trkpt>
      <trkpt lat="44.13093" lon="6.7356">
        <ele>1558.506442107</ele>
        <time>2021-07-10T07:16:46Z</time>
      </trkpt>
      <trkpt lat="44.13093" lon="6.73558">
        <ele>1559.5064676933</ele>
        <time>2021-07-10T07:16:47Z</time>
      </trkpt>
      <trkpt lat="44.13094" lon="6.73556">
        <ele>1560.5065172505</ele>
        <time>2021-07-10T07:16:49Z</time>
      </trkpt>
      <trkpt lat="44.13093" lon="6.73553">
        <ele>1560.5065780367</ele>
        <time>2021-07-10T07:16:51Z</time>
      </trkpt>
      <trkpt lat="44.13093" lon="6.73552">
        <ele>1560.5066161841</ele>
        <time>2021-07-10T07:16:52Z</time>
      </trkpt>
      <trkpt lat="44.13093" lon="6.73552">
        <ele>1560.5066394751</ele>
        <time>2021-07-10T07:16:53Z</time>
      </trkpt>
      <trkpt lat="44.13092" lon="6.7355">
        <ele>1561.5066903493</ele>
        <time>2021-07-10T07:16:55Z</time>
      </trkpt>
      <trkpt lat="44.13092" lon="6.73549">
        <ele>1561.5067097514</ele>
        <time>2021-07-10T07:16:56Z</time>
      </trkpt>
      <trkpt lat="44.13092" lon="6.73548">
        <ele>1561.5067344822</ele>
        <time>2021-07-10T07:16:57Z</time>
      </trkpt>
      <trkpt lat="44.13091" lon="6.73546">
        <ele>1562.5067989901</ele>
        <time>2021-07-10T07:16:59Z</time>
      </trkpt>
      <trkpt lat="44.13091" lon="6.73545">
        <ele>1562.50682879</ele>
        <time>2021-07-10T07:17:00Z</time>
      </trkpt>
      <trkpt lat="44.13091" lon="6.73544">
        <ele>1562.5068682989</ele>
        <time>2021-07-10T07:17:01Z</time>
      </trkpt>
      <trkpt lat="44.13091" lon="6.73543">
        <ele>1562.5068905773</ele>
        <time>2021-07-10T07:17:02Z</time>
      </trkpt>
      <trkpt lat="44.1309" lon="6.73543">
        <ele>1562.5069155296</ele>
        <time>2021-07-10T07:17:03Z</time>
      </trkpt>
      <trkpt lat="44.1309" lon="6.73541">
        <ele>1563.5069470614</ele>
        <time>2021-07-10T07:17:05Z</time>
      </trkpt>
      <trkpt lat="44.13091" lon="6.7354">
        <ele>1563.5069585879</ele>
        <time>2021-07-10T07:17:06Z</time>
      </trkpt>
      <trkpt lat="44.13091" lon="6.73539">
        <ele>1563.5069757511</ele>
        <time>2021-07-10T07:17:07Z</time>
      </trkpt>
      <trkpt lat="44.13091" lon="6.73537">
        <ele>1563.5070070154</ele>
        <time>2021-07-10T07:17:08Z</time>
      </trkpt>
      <trkpt lat="44.1309" lon="6.73536">
        <ele>1564.5070683911</ele>
        <time>2021-07-10T07:17:10Z</time>
      </trkpt>
      <trkpt lat="44.13089" lon="6.73535">
        <ele>1563.5071091218</ele>
        <time>2021-07-10T07:17:11Z</time>
      </trkpt>
      <trkpt lat="44.13088" lon="6.73535">
        <ele>1563.5071547238</ele>
        <time>2021-07-10T07:17:12Z</time>
      </trkpt>
      <trkpt lat="44.13088" lon="6.73533">
        <ele>1564.5072016342</ele>
        <time>2021-07-10T07:17:14Z</time>
      </trkpt>
      <trkpt lat="44.13088" lon="6.73532">
        <ele>1564.5072238089</ele>
        <time>2021-07-10T07:17:17Z</time>
      </trkpt>
      <trkpt lat="44.13087" lon="6.73531">
        <ele>1563.5072814215</ele>
        <time>2021-07-10T07:17:18Z</time>
      </trkpt>
      <trkpt lat="44.13087" lon="6.7353">
        <ele>1564.5073095334</ele>
        <time>2021-07-10T07:17:19Z</time>
      </trkpt>
      <trkpt lat="44.13086" lon="6.73529">
        <ele>1564.50734239</ele>
        <time>2021-07-10T07:17:20Z</time>
      </trkpt>
      <trkpt lat="44.13087" lon="6.73529">
        <ele>1565.5073254043</ele>
        <time>2021-07-10T07:17:21Z</time>
      </trkpt>
      <trkpt lat="44.13088" lon="6.73527">
        <ele>1566.5073190369</ele>
        <time>2021-07-10T07:17:22Z</time>
      </trkpt>
      <trkpt lat="44.13089" lon="6.73526">
        <ele>1566.5073120971</ele>
        <time>2021-07-10T07:17:23Z</time>
      </trkpt>
      <trkpt lat="44.1309" lon="6.73525">
        <ele>1566.5073020754</ele>
        <time>2021-07-10T07:17:24Z</time>
      </trkpt>
      <trkpt lat="44.1309" lon="6.73525">
        <ele>1565.5072947472</ele>
        <time>2021-07-10T07:17:25Z</time>
      </trkpt>
      <trkpt lat="44.1309" lon="6.73524">
        <ele>1566.507296981</ele>
        <time>2021-07-10T07:17:26Z</time>
      </trkpt>
      <trkpt lat="44.13091" lon="6.73523">
        <ele>1565.5073178089</ele>
        <time>2021-07-10T07:17:27Z</time>
      </trkpt>
      <trkpt lat="44.1309" lon="6.73522">
        <ele>1565.5073552258</ele>
        <time>2021-07-10T07:17:28Z</time>
      </trkpt>
      <trkpt lat="44.1309" lon="6.73521">
        <ele>1565.5073727441</ele>
        <time>2021-07-10T07:17:29Z</time>
      </trkpt>
      <trkpt lat="44.1309" lon="6.73519">
        <ele>1564.50739703</ele>
        <time>2021-07-10T07:17:30Z</time>
      </trkpt>
      <trkpt lat="44.1309" lon="6.73518">
        <ele>1564.5074394428</ele>
        <time>2021-07-10T07:17:31Z</time>
      </trkpt>
      <trkpt lat="44.1309" lon="6.73516">
        <ele>1564.5075021668</ele>
        <time>2021-07-10T07:17:32Z</time>
      </trkpt>
      <trkpt lat="44.13089" lon="6.73514">
        <ele>1564.5075613347</ele>
        <time>2021-07-10T07:17:33Z</time>
      </trkpt>
      <trkpt lat="44.13089" lon="6.73512">
        <ele>1564.5076109797</ele>
        <time>2021-07-10T07:17:34Z</time>
      </trkpt>
      <trkpt lat="44.13089" lon="6.73511">
        <ele>1564.5076425626</ele>
        <time>2021-07-10T07:17:36Z</time>
      </trkpt>
      <trkpt lat="44.13088" lon="6.73511">
        <ele>1564.5076594183</ele>
        <time>2021-07-10T07:17:38Z</time>
      </trkpt>
      <trkpt lat="44.13087" lon="6.73508">
        <ele>1563.507763028</ele>
        <time>2021-07-10T07:17:40Z</time>
      </trkpt>
      <trkpt lat="44.13087" lon="6.73506">
        <ele>1563.5077992445</ele>
        <time>2021-07-10T07:17:41Z</time>
      </trkpt>
      <trkpt lat="44.13087" lon="6.73505">
        <ele>1563.5078293563</ele>
        <time>2021-07-10T07:17:42Z</time>
      </trkpt>
      <trkpt lat="44.13087" lon="6.73502">
        <ele>1564.5078782019</ele>
        <time>2021-07-10T07:17:43Z</time>
      </trkpt>
      <trkpt lat="44.13088" lon="6.735">
        <ele>1564.5079073361</ele>
        <time>2021-07-10T07:17:44Z</time>
      </trkpt>
      <trkpt lat="44.13088" lon="6.73497">
        <ele>1564.5079401372</ele>
        <time>2021-07-10T07:17:46Z</time>
      </trkpt>
      <trkpt lat="44.13088" lon="6.73496">
        <ele>1564.5079879102</ele>
        <time>2021-07-10T07:17:47Z</time>
      </trkpt>
      <trkpt lat="44.13088" lon="6.73494">
        <ele>1564.5080182849</ele>
        <time>2021-07-10T07:17:48Z</time>
      </trkpt>
      <trkpt lat="44.13087" lon="6.73492">
        <ele>1565.508083891</ele>
        <time>2021-07-10T07:17:50Z</time>
      </trkpt>
      <trkpt lat="44.13087" lon="6.73491">
        <ele>1566.5081183145</ele>
        <time>2021-07-10T07:17:51Z</time>
      </trkpt>
      <trkpt lat="44.13087" lon="6.7349">
        <ele>1566.5081409639</ele>
        <time>2021-07-10T07:17:52Z</time>
      </trkpt>
      <trkpt lat="44.13087" lon="6.73488">
        <ele>1566.5081985976</ele>
        <time>2021-07-10T07:17:54Z</time>
      </trkpt>
      <trkpt lat="44.13086" lon="6.73486">
        <ele>1567.5082518816</ele>
        <time>2021-07-10T07:17:56Z</time>
      </trkpt>
      <trkpt lat="44.13086" lon="6.73485">
        <ele>1567.5082819038</ele>
        <time>2021-07-10T07:17:57Z</time>
      </trkpt>
      <trkpt lat="44.13085" lon="6.73484">
        <ele>1568.5083227648</ele>
        <time>2021-07-10T07:17:58Z</time>
      </trkpt>
      <trkpt lat="44.13085" lon="6.73482">
        <ele>1569.508378934</ele>
        <time>2021-07-10T07:18:00Z</time>
      </trkpt>
      <trkpt lat="44.13085" lon="6.73481">
        <ele>1569.508403043</ele>
        <time>2021-07-10T07:18:01Z</time>
      </trkpt>
      <trkpt lat="44.13086" lon="6.73479">
        <ele>1570.5084133743</ele>
        <time>2021-07-10T07:18:02Z</time>
      </trkpt>
      <trkpt lat="44.13086" lon="6.73478">
        <ele>1570.5084332693</ele>
        <time>2021-07-10T07:18:03Z</time>
      </trkpt>
      <trkpt lat="44.13086" lon="6.73476">
        <ele>1570.5084887252</ele>
        <time>2021-07-10T07:18:05Z</time>
      </trkpt>
      <trkpt lat="44.13086" lon="6.73473">
        <ele>1570.5085207572</ele>
        <time>2021-07-10T07:18:06Z</time>
      </trkpt>
      <trkpt lat="44.13086" lon="6.73473">
        <ele>1570.5085384825</ele>
        <time>2021-07-10T07:18:07Z</time>
      </trkpt>
      <trkpt lat="44.13086" lon="6.7347">
        <ele>1571.5085706314</ele>
        <time>2021-07-10T07:18:09Z</time>
      </trkpt>
      <trkpt lat="44.13086" lon="6.7347">
        <ele>1571.5085923278</ele>
        <time>2021-07-10T07:18:10Z</time>
      </trkpt>
      <trkpt lat="44.13086" lon="6.73469">
        <ele>1571.5086099382</ele>
        <time>2021-07-10T07:18:11Z</time>
      </trkpt>
      <trkpt lat="44.13087" lon="6.73467">
        <ele>1571.5086341026</ele>
        <time>2021-07-10T07:18:12Z</time>
      </trkpt>
      <trkpt lat="44.13088" lon="6.73466">
        <ele>1571.5086159457</ele>
        <time>2021-07-10T07:18:13Z</time>
      </trkpt>
      <trkpt lat="44.13088" lon="6.73465">
        <ele>1571.5086347646</ele>
        <time>2021-07-10T07:18:15Z</time>
      </trkpt>
      <trkpt lat="44.13088" lon="6.73464">
        <ele>1571.5086379803</ele>
        <time>2021-07-10T07:18:16Z</time>
      </trkpt>
      <trkpt lat="44.13089" lon="6.73463">
        <ele>1572.5086444406</ele>
        <time>2021-07-10T07:18:18Z</time>
      </trkpt>
      <trkpt lat="44.13089" lon="6.73461">
        <ele>1571.5086602144</ele>
        <time>2021-07-10T07:18:19Z</time>
      </trkpt>
      <trkpt lat="44.13089" lon="6.73459">
        <ele>1571.5087101629</ele>
        <time>2021-07-10T07:18:21Z</time>
      </trkpt>
      <trkpt lat="44.13089" lon="6.73458">
        <ele>1571.5087401569</ele>
        <time>2021-07-10T07:18:22Z</time>
      </trkpt>
      <trkpt lat="44.13089" lon="6.73457">
        <ele>1570.5087615765</ele>
        <time>2021-07-10T07:18:25Z</time>
      </trkpt>
      <trkpt lat="44.13089" lon="6.73456">
        <ele>1570.5087706542</ele>
        <time>2021-07-10T07:18:26Z</time>
      </trkpt>
      <trkpt lat="44.1309" lon="6.73454">
        <ele>1570.5087852776</ele>
        <time>2021-07-10T07:18:27Z</time>
      </trkpt>
      <trkpt lat="44.13089" lon="6.73453">
        <ele>1570.5088246669</ele>
        <time>2021-07-10T07:18:29Z</time>
      </trkpt>
      <trkpt lat="44.13089" lon="6.73452">
        <ele>1570.5088683035</ele>
        <time>2021-07-10T07:18:31Z</time>
      </trkpt>
      <trkpt lat="44.13089" lon="6.73451">
        <ele>1571.5088851108</ele>
        <time>2021-07-10T07:18:32Z</time>
      </trkpt>
      <trkpt lat="44.13089" lon="6.7345">
        <ele>1571.5089055241</ele>
        <time>2021-07-10T07:18:33Z</time>
      </trkpt>
      <trkpt lat="44.1309" lon="6.73448">
        <ele>1571.5089188071</ele>
        <time>2021-07-10T07:18:35Z</time>
      </trkpt>
      <trkpt lat="44.1309" lon="6.73446">
        <ele>1571.508944709</ele>
        <time>2021-07-10T07:18:36Z</time>
      </trkpt>
      <trkpt lat="44.1309" lon="6.73445">
        <ele>1571.5089510965</ele>
        <time>2021-07-10T07:18:37Z</time>
      </trkpt>
      <trkpt lat="44.13091" lon="6.73443">
        <ele>1570.5089785486</ele>
        <time>2021-07-10T07:18:39Z</time>
      </trkpt>
      <trkpt lat="44.13091" lon="6.7344">
        <ele>1571.5090238321</ele>
        <time>2021-07-10T07:18:41Z</time>
      </trkpt>
      <trkpt lat="44.13091" lon="6.7344">
        <ele>1571.5090238321</ele>
        <time>2021-07-10T07:18:43Z</time>
      </trkpt>
      <trkpt lat="44.13092" lon="6.73437">
        <ele>1570.5090666097</ele>
        <time>2021-07-10T07:18:45Z</time>
      </trkpt>
      <trkpt lat="44.13092" lon="6.73436">
        <ele>1570.5090993989</ele>
        <time>2021-07-10T07:18:46Z</time>
      </trkpt>
      <trkpt lat="44.13092" lon="6.73434">
        <ele>1570.5091446977</ele>
        <time>2021-07-10T07:18:47Z</time>
      </trkpt>
      <trkpt lat="44.13091" lon="6.73433">
        <ele>1570.5091777354</ele>
        <time>2021-07-10T07:18:48Z</time>
      </trkpt>
      <trkpt lat="44.13091" lon="6.73431">
        <ele>1571.5092414443</ele>
        <time>2021-07-10T07:18:50Z</time>
      </trkpt>
      <trkpt lat="44.13091" lon="6.7343">
        <ele>1571.5092574112</ele>
        <time>2021-07-10T07:18:51Z</time>
      </trkpt>
      <trkpt lat="44.13091" lon="6.73429">
        <ele>1571.5092819519</ele>
        <time>2021-07-10T07:18:52Z</time>
      </trkpt>
      <trkpt lat="44.13091" lon="6.73426">
        <ele>1572.5093528778</ele>
        <time>2021-07-10T07:18:54Z</time>
      </trkpt>
      <trkpt lat="44.1309" lon="6.73423">
        <ele>1572.5094111806</ele>
        <time>2021-07-10T07:18:56Z</time>
      </trkpt>
      <trkpt lat="44.1309" lon="6.73423">
        <ele>1572.5094394624</ele>
        <time>2021-07-10T07:18:57Z</time>
      </trkpt>
      <trkpt lat="44.1309" lon="6.73421">
        <ele>1573.5094892429</ele>
        <time>2021-07-10T07:18:58Z</time>
      </trkpt>
      <trkpt lat="44.13089" lon="6.73419">
        <ele>1573.5095403324</ele>
        <time>2021-07-10T07:19:00Z</time>
      </trkpt>
      <trkpt lat="44.13089" lon="6.73419">
        <ele>1573.5095489063</ele>
        <time>2021-07-10T07:19:01Z</time>
      </trkpt>
      <trkpt lat="44.13088" lon="6.73418">
        <ele>1573.5095879354</ele>
        <time>2021-07-10T07:19:02Z</time>
      </trkpt>
      <trkpt lat="44.13088" lon="6.73417">
        <ele>1573.5096124255</ele>
        <time>2021-07-10T07:19:05Z</time>
      </trkpt>
      <trkpt lat="44.13088" lon="6.73415">
        <ele>1572.5096654703</ele>
        <time>2021-07-10T07:19:06Z</time>
      </trkpt>
      <trkpt lat="44.13088" lon="6.73414">
        <ele>1572.5096927606</ele>
        <time>2021-07-10T07:19:07Z</time>
      </trkpt>
      <trkpt lat="44.13089" lon="6.73412">
        <ele>1572.5096976101</ele>
        <time>2021-07-10T07:19:08Z</time>
      </trkpt>
      <trkpt lat="44.13089" lon="6.73411">
        <ele>1572.5097065308</ele>
        <time>2021-07-10T07:19:09Z</time>
      </trkpt>
      <trkpt lat="44.1309" lon="6.7341">
        <ele>1571.5097094704</ele>
        <time>2021-07-10T07:19:10Z</time>
      </trkpt>
      <trkpt lat="44.1309" lon="6.73409">
        <ele>1572.5097067033</ele>
        <time>2021-07-10T07:19:11Z</time>
      </trkpt>
      <trkpt lat="44.13091" lon="6.73408">
        <ele>1572.5097281996</ele>
        <time>2021-07-10T07:19:12Z</time>
      </trkpt>
      <trkpt lat="44.13091" lon="6.73405">
        <ele>1572.5097780361</ele>
        <time>2021-07-10T07:19:14Z</time>
      </trkpt>
      <trkpt lat="44.13091" lon="6.73404">
        <ele>1571.5098162094</ele>
        <time>2021-07-10T07:19:15Z</time>
      </trkpt>
      <trkpt lat="44.1309" lon="6.73402">
        <ele>1571.5098706939</ele>
        <time>2021-07-10T07:19:16Z</time>
      </trkpt>
      <trkpt lat="44.1309" lon="6.73401">
        <ele>1572.5098901064</ele>
        <time>2021-07-10T07:19:17Z</time>
      </trkpt>
      <trkpt lat="44.1309" lon="6.734">
        <ele>1572.5099056623</ele>
        <time>2021-07-10T07:19:18Z</time>
      </trkpt>
      <trkpt lat="44.1309" lon="6.73398">
        <ele>1572.509941785</ele>
        <time>2021-07-10T07:19:20Z</time>
      </trkpt>
      <trkpt lat="44.1309" lon="6.73398">
        <ele>1572.509941785</ele>
        <time>2021-07-10T07:19:22Z</time>
      </trkpt>
      <trkpt lat="44.13089" lon="6.73395">
        <ele>1572.5100518044</ele>
        <time>2021-07-10T07:19:24Z</time>
      </trkpt>
      <trkpt lat="44.13089" lon="6.73393">
        <ele>1572.5100814259</ele>
        <time>2021-07-10T07:19:25Z</time>
      </trkpt>
      <trkpt lat="44.13089" lon="6.73392">
        <ele>1572.5101280926</ele>
        <time>2021-07-10T07:19:26Z</time>
      </trkpt>
      <trkpt lat="44.13089" lon="6.7339">
        <ele>1572.5101486158</ele>
        <time>2021-07-10T07:19:27Z</time>
      </trkpt>
      <trkpt lat="44.13089" lon="6.7339">
        <ele>1572.5101684837</ele>
        <time>2021-07-10T07:19:28Z</time>
      </trkpt>
      <trkpt lat="44.13088" lon="6.73388">
        <ele>1572.5102520487</ele>
        <time>2021-07-10T07:19:30Z</time>
      </trkpt>
      <trkpt lat="44.13088" lon="6.73387">
        <ele>1572.5102841706</ele>
        <time>2021-07-10T07:19:31Z</time>
      </trkpt>
      <trkpt lat="44.13087" lon="6.73386">
        <ele>1572.5103203916</ele>
        <time>2021-07-10T07:19:32Z</time>
      </trkpt>
      <trkpt lat="44.13087" lon="6.73384">
        <ele>1573.510351427</ele>
        <time>2021-07-10T07:19:33Z</time>
      </trkpt>
      <trkpt lat="44.13086" lon="6.73383">
        <ele>1573.5104014368</ele>
        <time>2021-07-10T07:19:35Z</time>
      </trkpt>
      <trkpt lat="44.13086" lon="6.73382">
        <ele>1573.5104304024</ele>
        <time>2021-07-10T07:19:36Z</time>
      </trkpt>
      <trkpt lat="44.13085" lon="6.73382">
        <ele>1573.5104631053</ele>
        <time>2021-07-10T07:19:37Z</time>
      </trkpt>
      <trkpt lat="44.13085" lon="6.73382">
        <ele>1573.5104879899</ele>
        <time>2021-07-10T07:19:38Z</time>
      </trkpt>
      <trkpt lat="44.13084" lon="6.73381">
        <ele>1574.5105168594</ele>
        <time>2021-07-10T07:19:39Z</time>
      </trkpt>
      <trkpt lat="44.13084" lon="6.73379">
        <ele>1574.5105869358</ele>
        <time>2021-07-10T07:19:41Z</time>
      </trkpt>
      <trkpt lat="44.13083" lon="6.73378">
        <ele>1575.5106233859</ele>
        <time>2021-07-10T07:19:42Z</time>
      </trkpt>
      <trkpt lat="44.13082" lon="6.73377">
        <ele>1575.5106794465</ele>
        <time>2021-07-10T07:19:43Z</time>
      </trkpt>
      <trkpt lat="44.13081" lon="6.73375">
        <ele>1573.510785051</ele>
        <time>2021-07-10T07:19:45Z</time>
      </trkpt>
      <trkpt lat="44.1308" lon="6.73373">
        <ele>1572.5108284977</ele>
        <time>2021-07-10T07:19:46Z</time>
      </trkpt>
      <trkpt lat="44.1308" lon="6.73372">
        <ele>1572.5108733387</ele>
        <time>2021-07-10T07:19:47Z</time>
      </trkpt>
      <trkpt lat="44.13081" lon="6.73369">
        <ele>1571.5109089908</ele>
        <time>2021-07-10T07:19:49Z</time>
      </trkpt>
      <trkpt lat="44.13081" lon="6.73367">
        <ele>1571.5109390458</ele>
        <time>2021-07-10T07:19:51Z</time>
      </trkpt>
      <trkpt lat="44.13081" lon="6.73366">
        <ele>1570.5109674305</ele>
        <time>2021-07-10T07:19:52Z</time>
      </trkpt>
      <trkpt lat="44.13081" lon="6.73365">
        <ele>1570.5110052912</ele>
        <time>2021-07-10T07:19:53Z</time>
      </trkpt>
      <trkpt lat="44.1308" lon="6.73363">
        <ele>1570.5110574133</ele>
        <time>2021-07-10T07:19:55Z</time>
      </trkpt>
      <trkpt lat="44.1308" lon="6.73362">
        <ele>1570.5110736344</ele>
        <time>2021-07-10T07:19:56Z</time>
      </trkpt>
      <trkpt lat="44.1308" lon="6.73361">
        <ele>1570.5110971453</ele>
        <time>2021-07-10T07:19:57Z</time>
      </trkpt>
      <trkpt lat="44.1308" lon="6.73359">
        <ele>1570.511135594</ele>
        <time>2021-07-10T07:19:59Z</time>
      </trkpt>
      <trkpt lat="44.13081" lon="6.73359">
        <ele>1570.5111175745</ele>
        <time>2021-07-10T07:20:03Z</time>
      </trkpt>
      <trkpt lat="44.13081" lon="6.73362">
        <ele>1570.511052485</ele>
        <time>2021-07-10T07:20:05Z</time>
      </trkpt>
      <trkpt lat="44.13081" lon="6.73364">
        <ele>1570.5110086154</ele>
        <time>2021-07-10T07:20:06Z</time>
      </trkpt>
      <trkpt lat="44.13081" lon="6.73365">
        <ele>1570.5109790849</ele>
        <time>2021-07-10T07:20:07Z</time>
      </trkpt>
      <trkpt lat="44.13081" lon="6.73367">
        <ele>1571.5109394597</ele>
        <time>2021-07-10T07:20:09Z</time>
      </trkpt>
      <trkpt lat="44.1308" lon="6.73369">
        <ele>1573.5109266983</ele>
        <time>2021-07-10T07:20:11Z</time>
      </trkpt>
      <trkpt lat="44.1308" lon="6.73371">
        <ele>1573.5109080764</ele>
        <time>2021-07-10T07:20:12Z</time>
      </trkpt>
      <trkpt lat="44.1308" lon="6.73372">
        <ele>1574.5108941379</ele>
        <time>2021-07-10T07:20:13Z</time>
      </trkpt>
      <trkpt lat="44.13079" lon="6.73374">
        <ele>1574.510865828</ele>
        <time>2021-07-10T07:20:15Z</time>
      </trkpt>
      <trkpt lat="44.13079" lon="6.73375">
        <ele>1575.5108582854</ele>
        <time>2021-07-10T07:20:17Z</time>
      </trkpt>
      <trkpt lat="44.13078" lon="6.73378">
        <ele>1575.5108233498</ele>
        <time>2021-07-10T07:20:19Z</time>
      </trkpt>
      <trkpt lat="44.13077" lon="6.7338">
        <ele>1576.5108347655</ele>
        <time>2021-07-10T07:20:21Z</time>
      </trkpt>
      <trkpt lat="44.13077" lon="6.73381">
        <ele>1576.5108132191</ele>
        <time>2021-07-10T07:20:22Z</time>
      </trkpt>
      <trkpt lat="44.13076" lon="6.73382">
        <ele>1577.5108166613</ele>
        <time>2021-07-10T07:20:23Z</time>
      </trkpt>
      <trkpt lat="44.13075" lon="6.73383">
        <ele>1577.5108300643</ele>
        <time>2021-07-10T07:20:24Z</time>
      </trkpt>
      <trkpt lat="44.13073" lon="6.73383">
        <ele>1578.5108930106</ele>
        <time>2021-07-10T07:20:26Z</time>
      </trkpt>
      <trkpt lat="44.13073" lon="6.73382">
        <ele>1579.5109297156</ele>
        <time>2021-07-10T07:20:28Z</time>
      </trkpt>
      <trkpt lat="44.13073" lon="6.7338">
        <ele>1579.5109745369</ele>
        <time>2021-07-10T07:20:30Z</time>
      </trkpt>
      <trkpt lat="44.13073" lon="6.7338">
        <ele>1580.5109531697</ele>
        <time>2021-07-10T07:20:33Z</time>
      </trkpt>
      <trkpt lat="44.13073" lon="6.73381">
        <ele>1580.5109318273</ele>
        <time>2021-07-10T07:20:36Z</time>
      </trkpt>
      <trkpt lat="44.13072" lon="6.73384">
        <ele>1580.5109206347</ele>
        <time>2021-07-10T07:20:37Z</time>
      </trkpt>
      <trkpt lat="44.13072" lon="6.73384">
        <ele>1580.5109345879</ele>
        <time>2021-07-10T07:20:38Z</time>
      </trkpt>
      <trkpt lat="44.13071" lon="6.73385">
        <ele>1580.510929943</ele>
        <time>2021-07-10T07:20:39Z</time>
      </trkpt>
      <trkpt lat="44.13071" lon="6.73386">
        <ele>1580.5109243114</ele>
        <time>2021-07-10T07:20:40Z</time>
      </trkpt>
      <trkpt lat="44.1307" lon="6.73387">
        <ele>1580.51091799</ele>
        <time>2021-07-10T07:20:41Z</time>
      </trkpt>
      <trkpt lat="44.1307" lon="6.73388">
        <ele>1581.5109218544</ele>
        <time>2021-07-10T07:20:42Z</time>
      </trkpt>
      <trkpt lat="44.13069" lon="6.73389">
        <ele>1581.5109191892</ele>
        <time>2021-07-10T07:20:44Z</time>
      </trkpt>
      <trkpt lat="44.13068" lon="6.73391">
        <ele>1581.5109068902</ele>
        <time>2021-07-10T07:20:46Z</time>
      </trkpt>
      <trkpt lat="44.13068" lon="6.73392">
        <ele>1582.5108996715</ele>
        <time>2021-07-10T07:20:47Z</time>
      </trkpt>
      <trkpt lat="44.13067" lon="6.73393">
        <ele>1582.5109120053</ele>
        <time>2021-07-10T07:20:48Z</time>
      </trkpt>
      <trkpt lat="44.13066" lon="6.73395">
        <ele>1583.5109140825</ele>
        <time>2021-07-10T07:20:50Z</time>
      </trkpt>
      <trkpt lat="44.13065" lon="6.73395">
        <ele>1582.5109327565</ele>
        <time>2021-07-10T07:20:51Z</time>
      </trkpt>
      <trkpt lat="44.13065" lon="6.73397">
        <ele>1582.5109131098</ele>
        <time>2021-07-10T07:20:52Z</time>
      </trkpt>
      <trkpt lat="44.13065" lon="6.73398">
        <ele>1582.5109173414</ele>
        <time>2021-07-10T07:20:54Z</time>
      </trkpt>
      <trkpt lat="44.13063" lon="6.734">
        <ele>1582.5109355755</ele>
        <time>2021-07-10T07:20:56Z</time>
      </trkpt>
      <trkpt lat="44.13062" lon="6.73401">
        <ele>1582.5109322556</ele>
        <time>2021-07-10T07:20:57Z</time>
      </trkpt>
      <trkpt lat="44.13062" lon="6.73402">
        <ele>1583.510914354</ele>
        <time>2021-07-10T07:20:58Z</time>
      </trkpt>
      <trkpt lat="44.13062" lon="6.73402">
        <ele>1583.510914354</ele>
        <time>2021-07-10T07:21:00Z</time>
      </trkpt>
      <trkpt lat="44.13061" lon="6.73405">
        <ele>1585.5109095786</ele>
        <time>2021-07-10T07:21:01Z</time>
      </trkpt>
      <trkpt lat="44.13061" lon="6.73406">
        <ele>1585.5108792177</ele>
        <time>2021-07-10T07:21:02Z</time>
      </trkpt>
      <trkpt lat="44.1306" lon="6.73407">
        <ele>1585.5108868948</ele>
        <time>2021-07-10T07:21:03Z</time>
      </trkpt>
      <trkpt lat="44.13059" lon="6.73408">
        <ele>1585.5108943801</ele>
        <time>2021-07-10T07:21:05Z</time>
      </trkpt>
      <trkpt lat="44.13059" lon="6.73408">
        <ele>1585.5108882915</ele>
        <time>2021-07-10T07:21:06Z</time>
      </trkpt>
      <trkpt lat="44.13059" lon="6.7341">
        <ele>1585.5108756955</ele>
        <time>2021-07-10T07:21:07Z</time>
      </trkpt>
      <trkpt lat="44.13058" lon="6.73412">
        <ele>1586.5108571689</ele>
        <time>2021-07-10T07:21:09Z</time>
      </trkpt>
      <trkpt lat="44.13057" lon="6.73414">
        <ele>1587.5108586884</ele>
        <time>2021-07-10T07:21:11Z</time>
      </trkpt>
      <trkpt lat="44.13057" lon="6.73414">
        <ele>1587.5108541483</ele>
        <time>2021-07-10T07:21:12Z</time>
      </trkpt>
      <trkpt lat="44.13056" lon="6.73415">
        <ele>1588.510878455</ele>
        <time>2021-07-10T07:21:13Z</time>
      </trkpt>
      <trkpt lat="44.13056" lon="6.73415">
        <ele>1588.5108839397</ele>
        <time>2021-07-10T07:21:14Z</time>
      </trkpt>
      <trkpt lat="44.13055" lon="6.73416">
        <ele>1588.5108871611</ele>
        <time>2021-07-10T07:21:17Z</time>
      </trkpt>
      <trkpt lat="44.13055" lon="6.73418">
        <ele>1589.5108509651</ele>
        <time>2021-07-10T07:21:18Z</time>
      </trkpt>
      <trkpt lat="44.13054" lon="6.7342">
        <ele>1590.5108299301</ele>
        <time>2021-07-10T07:21:20Z</time>
      </trkpt>
      <trkpt lat="44.13054" lon="6.73422">
        <ele>1591.5107933581</ele>
        <time>2021-07-10T07:21:21Z</time>
      </trkpt>
      <trkpt lat="44.13054" lon="6.73422">
        <ele>1591.5107925294</ele>
        <time>2021-07-10T07:21:22Z</time>
      </trkpt>
      <trkpt lat="44.13053" lon="6.73422">
        <ele>1591.510818537</ele>
        <time>2021-07-10T07:21:25Z</time>
      </trkpt>
      <trkpt lat="44.13051" lon="6.73424">
        <ele>1592.5108611402</ele>
        <time>2021-07-10T07:21:26Z</time>
      </trkpt>
      <trkpt lat="44.13051" lon="6.73425">
        <ele>1591.510863747</ele>
        <time>2021-07-10T07:21:29Z</time>
      </trkpt>
      <trkpt lat="44.1305" lon="6.73425">
        <ele>1591.5108734411</ele>
        <time>2021-07-10T07:21:30Z</time>
      </trkpt>
      <trkpt lat="44.13049" lon="6.73426">
        <ele>1590.5109015197</ele>
        <time>2021-07-10T07:21:31Z</time>
      </trkpt>
      <trkpt lat="44.13049" lon="6.73427">
        <ele>1590.5108910084</ele>
        <time>2021-07-10T07:21:32Z</time>
      </trkpt>
      <trkpt lat="44.13048" lon="6.73428">
        <ele>1590.5108820392</ele>
        <time>2021-07-10T07:21:33Z</time>
      </trkpt>
      <trkpt lat="44.13048" lon="6.73429">
        <ele>1590.5108878269</ele>
        <time>2021-07-10T07:21:34Z</time>
      </trkpt>
      <trkpt lat="44.13047" lon="6.73429">
        <ele>1590.5108971307</ele>
        <time>2021-07-10T07:21:35Z</time>
      </trkpt>
      <trkpt lat="44.13048" lon="6.7343">
        <ele>1589.5108725554</ele>
        <time>2021-07-10T07:21:36Z</time>
      </trkpt>
      <trkpt lat="44.13048" lon="6.73431">
        <ele>1589.5108479624</ele>
        <time>2021-07-10T07:21:37Z</time>
      </trkpt>
      <trkpt lat="44.13048" lon="6.73433">
        <ele>1590.5108119763</ele>
        <time>2021-07-10T07:21:39Z</time>
      </trkpt>
      <trkpt lat="44.13048" lon="6.73433">
        <ele>1590.5107982241</ele>
        <time>2021-07-10T07:21:42Z</time>
      </trkpt>
      <trkpt lat="44.13047" lon="6.73434">
        <ele>1590.510797808</ele>
        <time>2021-07-10T07:21:43Z</time>
      </trkpt>
      <trkpt lat="44.13046" lon="6.73436">
        <ele>1591.5108269168</ele>
        <time>2021-07-10T07:21:45Z</time>
      </trkpt>
      <trkpt lat="44.13045" lon="6.73437">
        <ele>1591.5108425747</ele>
        <time>2021-07-10T07:21:46Z</time>
      </trkpt>
      <trkpt lat="44.13045" lon="6.73438">
        <ele>1591.5108313106</ele>
        <time>2021-07-10T07:21:47Z</time>
      </trkpt>
      <trkpt lat="44.13044" lon="6.73438">
        <ele>1590.5108537831</ele>
        <time>2021-07-10T07:21:49Z</time>
      </trkpt>
      <trkpt lat="44.13041" lon="6.7344">
        <ele>1590.5108979916</ele>
        <time>2021-07-10T07:21:51Z</time>
      </trkpt>
      <trkpt lat="44.13041" lon="6.73441">
        <ele>1590.51089856</ele>
        <time>2021-07-10T07:21:52Z</time>
      </trkpt>
      <trkpt lat="44.1304" lon="6.73442">
        <ele>1590.5108987914</ele>
        <time>2021-07-10T07:21:53Z</time>
      </trkpt>
      <trkpt lat="44.13039" lon="6.73443">
        <ele>1591.5109283764</ele>
        <time>2021-07-10T07:21:55Z</time>
      </trkpt>
      <trkpt lat="44.13038" lon="6.73444">
        <ele>1591.5109269797</ele>
        <time>2021-07-10T07:21:56Z</time>
      </trkpt>
      <trkpt lat="44.13038" lon="6.73445">
        <ele>1592.5109120191</ele>
        <time>2021-07-10T07:21:57Z</time>
      </trkpt>
      <trkpt lat="44.13038" lon="6.73445">
        <ele>1592.5109120191</ele>
        <time>2021-07-10T07:21:59Z</time>
      </trkpt>
      <trkpt lat="44.13039" lon="6.73448">
        <ele>1593.5108350175</ele>
        <time>2021-07-10T07:22:00Z</time>
      </trkpt>
      <trkpt lat="44.13038" lon="6.73449">
        <ele>1593.5108166663</ele>
        <time>2021-07-10T07:22:01Z</time>
      </trkpt>
      <trkpt lat="44.13038" lon="6.7345">
        <ele>1594.5108266229</ele>
        <time>2021-07-10T07:22:02Z</time>
      </trkpt>
      <trkpt lat="44.13036" lon="6.73452">
        <ele>1594.5108436831</ele>
        <time>2021-07-10T07:22:04Z</time>
      </trkpt>
      <trkpt lat="44.13034" lon="6.73453">
        <ele>1594.5108813823</ele>
        <time>2021-07-10T07:22:06Z</time>
      </trkpt>
      <trkpt lat="44.13034" lon="6.73454">
        <ele>1594.5108799101</ele>
        <time>2021-07-10T07:22:07Z</time>
      </trkpt>
      <trkpt lat="44.13033" lon="6.73454">
        <ele>1593.5109054913</ele>
        <time>2021-07-10T07:22:08Z</time>
      </trkpt>
      <trkpt lat="44.13032" lon="6.73456">
        <ele>1593.5109179467</ele>
        <time>2021-07-10T07:22:10Z</time>
      </trkpt>
      <trkpt lat="44.13031" lon="6.73456">
        <ele>1593.510957023</ele>
        <time>2021-07-10T07:22:11Z</time>
      </trkpt>
      <trkpt lat="44.1303" lon="6.73457">
        <ele>1593.5109910156</ele>
        <time>2021-07-10T07:22:12Z</time>
      </trkpt>
      <trkpt lat="44.13029" lon="6.73457">
        <ele>1593.5110234692</ele>
        <time>2021-07-10T07:22:14Z</time>
      </trkpt>
      <trkpt lat="44.13027" lon="6.73459">
        <ele>1593.5110384254</ele>
        <time>2021-07-10T07:22:16Z</time>
      </trkpt>
      <trkpt lat="44.13026" lon="6.7346">
        <ele>1593.5110572969</ele>
        <time>2021-07-10T07:22:17Z</time>
      </trkpt>
      <trkpt lat="44.13025" lon="6.7346">
        <ele>1594.5110725434</ele>
        <time>2021-07-10T07:22:18Z</time>
      </trkpt>
      <trkpt lat="44.13025" lon="6.73461">
        <ele>1594.5110654243</ele>
        <time>2021-07-10T07:22:19Z</time>
      </trkpt>
      <trkpt lat="44.13024" lon="6.73462">
        <ele>1595.511075207</ele>
        <time>2021-07-10T07:22:20Z</time>
      </trkpt>
      <trkpt lat="44.13024" lon="6.73463">
        <ele>1594.5110956523</ele>
        <time>2021-07-10T07:22:21Z</time>
      </trkpt>
      <trkpt lat="44.13023" lon="6.73464">
        <ele>1595.5110881893</ele>
        <time>2021-07-10T07:22:22Z</time>
      </trkpt>
      <trkpt lat="44.13022" lon="6.73465">
        <ele>1596.5110852568</ele>
        <time>2021-07-10T07:22:24Z</time>
      </trkpt>
      <trkpt lat="44.13021" lon="6.73466">
        <ele>1596.5111189364</ele>
        <time>2021-07-10T07:22:25Z</time>
      </trkpt>
      <trkpt lat="44.1302" lon="6.73469">
        <ele>1596.5110988496</ele>
        <time>2021-07-10T07:22:26Z</time>
      </trkpt>
      <trkpt lat="44.13019" lon="6.73469">
        <ele>1596.5111183757</ele>
        <time>2021-07-10T07:22:27Z</time>
      </trkpt>
      <trkpt lat="44.13018" lon="6.73471">
        <ele>1596.5111379193</ele>
        <time>2021-07-10T07:22:29Z</time>
      </trkpt>
      <trkpt lat="44.13016" lon="6.73473">
        <ele>1597.511181136</ele>
        <time>2021-07-10T07:22:31Z</time>
      </trkpt>
      <trkpt lat="44.13015" lon="6.73473">
        <ele>1597.5112207799</ele>
        <time>2021-07-10T07:22:32Z</time>
      </trkpt>
      <trkpt lat="44.13014" lon="6.73474">
        <ele>1597.5112393917</ele>
        <time>2021-07-10T07:22:34Z</time>
      </trkpt>
      <trkpt lat="44.13013" lon="6.73475">
        <ele>1597.5112368764</ele>
        <time>2021-07-10T07:22:36Z</time>
      </trkpt>
      <trkpt lat="44.13012" lon="6.73476">
        <ele>1597.5112370462</ele>
        <time>2021-07-10T07:22:37Z</time>
      </trkpt>
      <trkpt lat="44.13012" lon="6.73478">
        <ele>1597.5112149557</ele>
        <time>2021-07-10T07:22:38Z</time>
      </trkpt>
      <trkpt lat="44.1301" lon="6.73479">
        <ele>1598.5112452517</ele>
        <time>2021-07-10T07:22:39Z</time>
      </trkpt>
      <trkpt lat="44.1301" lon="6.7348">
        <ele>1599.5112369136</ele>
        <time>2021-07-10T07:22:40Z</time>
      </trkpt>
      <trkpt lat="44.13009" lon="6.73481">
        <ele>1599.5112452709</ele>
        <time>2021-07-10T07:22:41Z</time>
      </trkpt>
      <trkpt lat="44.13009" lon="6.73482">
        <ele>1598.5112419997</ele>
        <time>2021-07-10T07:22:42Z</time>
      </trkpt>
      <trkpt lat="44.13008" lon="6.73483">
        <ele>1598.511251174</ele>
        <time>2021-07-10T07:22:43Z</time>
      </trkpt>
      <trkpt lat="44.13007" lon="6.73484">
        <ele>1599.5112591514</ele>
        <time>2021-07-10T07:22:44Z</time>
      </trkpt>
      <trkpt lat="44.13005" lon="6.73484">
        <ele>1599.5113316038</ele>
        <time>2021-07-10T07:22:46Z</time>
      </trkpt>
      <trkpt lat="44.13004" lon="6.73485">
        <ele>1598.5113517573</ele>
        <time>2021-07-10T07:22:47Z</time>
      </trkpt>
      <trkpt lat="44.13004" lon="6.73485">
        <ele>1599.5113703541</ele>
        <time>2021-07-10T07:22:48Z</time>
      </trkpt>
      <trkpt lat="44.13002" lon="6.73486">
        <ele>1600.5114009311</ele>
        <time>2021-07-10T07:22:50Z</time>
      </trkpt>
      <trkpt lat="44.13002" lon="6.73487">
        <ele>1600.5114083772</ele>
        <time>2021-07-10T07:22:51Z</time>
      </trkpt>
      <trkpt lat="44.13001" lon="6.73488">
        <ele>1601.5114135584</ele>
        <time>2021-07-10T07:22:52Z</time>
      </trkpt>
      <trkpt lat="44.13001" lon="6.73489">
        <ele>1601.5114127675</ele>
        <time>2021-07-10T07:22:53Z</time>
      </trkpt>
      <trkpt lat="44.13" lon="6.7349">
        <ele>1602.5114050593</ele>
        <time>2021-07-10T07:22:56Z</time>
      </trkpt>
      <trkpt lat="44.13" lon="6.73491">
        <ele>1602.5114103528</ele>
        <time>2021-07-10T07:22:57Z</time>
      </trkpt>
      <trkpt lat="44.12999" lon="6.73492">
        <ele>1602.5114168015</ele>
        <time>2021-07-10T07:22:58Z</time>
      </trkpt>
      <trkpt lat="44.12998" lon="6.73493">
        <ele>1603.5114348748</ele>
        <time>2021-07-10T07:22:59Z</time>
      </trkpt>
      <trkpt lat="44.12996" lon="6.73495">
        <ele>1603.5114636914</ele>
        <time>2021-07-10T07:23:01Z</time>
      </trkpt>
      <trkpt lat="44.12995" lon="6.73497">
        <ele>1604.5114481119</ele>
        <time>2021-07-10T07:23:02Z</time>
      </trkpt>
      <trkpt lat="44.12995" lon="6.73497">
        <ele>1603.5114645452</ele>
        <time>2021-07-10T07:23:03Z</time>
      </trkpt>
      <trkpt lat="44.12993" lon="6.73498">
        <ele>1603.5114908512</ele>
        <time>2021-07-10T07:23:05Z</time>
      </trkpt>
      <trkpt lat="44.12993" lon="6.73499">
        <ele>1603.5114868882</ele>
        <time>2021-07-10T07:23:06Z</time>
      </trkpt>
      <trkpt lat="44.12992" lon="6.735">
        <ele>1604.5114902867</ele>
        <time>2021-07-10T07:23:07Z</time>
      </trkpt>
      <trkpt lat="44.12991" lon="6.73502">
        <ele>1604.511513207</ele>
        <time>2021-07-10T07:23:09Z</time>
      </trkpt>
      <trkpt lat="44.12989" lon="6.73503">
        <ele>1605.5115548685</ele>
        <time>2021-07-10T07:23:11Z</time>
      </trkpt>
      <trkpt lat="44.12989" lon="6.73503">
        <ele>1605.511568895</ele>
        <time>2021-07-10T07:23:12Z</time>
      </trkpt>
      <trkpt lat="44.12988" lon="6.73504">
        <ele>1605.5115812468</ele>
        <time>2021-07-10T07:23:13Z</time>
      </trkpt>
      <trkpt lat="44.12986" lon="6.73505">
        <ele>1606.5116119183</ele>
        <time>2021-07-10T07:23:15Z</time>
      </trkpt>
      <trkpt lat="44.12985" lon="6.73506">
        <ele>1606.5116384296</ele>
        <time>2021-07-10T07:23:17Z</time>
      </trkpt>
      <trkpt lat="44.12984" lon="6.73506">
        <ele>1606.5116644685</ele>
        <time>2021-07-10T07:23:19Z</time>
      </trkpt>
      <trkpt lat="44.12983" lon="6.73506">
        <ele>1607.5117029969</ele>
        <time>2021-07-10T07:23:21Z</time>
      </trkpt>
      <trkpt lat="44.12983" lon="6.73507">
        <ele>1607.5117194211</ele>
        <time>2021-07-10T07:23:22Z</time>
      </trkpt>
      <trkpt lat="44.12981" lon="6.73507">
        <ele>1607.5117883358</ele>
        <time>2021-07-10T07:23:24Z</time>
      </trkpt>
      <trkpt lat="44.12979" lon="6.73507">
        <ele>1607.5118350379</ele>
        <time>2021-07-10T07:23:26Z</time>
      </trkpt>
      <trkpt lat="44.12979" lon="6.73507">
        <ele>1607.5118350379</ele>
        <time>2021-07-10T07:23:28Z</time>
      </trkpt>
      <trkpt lat="44.12977" lon="6.73507">
        <ele>1608.511930661</ele>
        <time>2021-07-10T07:23:29Z</time>
      </trkpt>
      <trkpt lat="44.12975" lon="6.73507">
        <ele>1608.5120020759</ele>
        <time>2021-07-10T07:23:31Z</time>
      </trkpt>
      <trkpt lat="44.12973" lon="6.73507">
        <ele>1608.5120640887</ele>
        <time>2021-07-10T07:23:32Z</time>
      </trkpt>
      <trkpt lat="44.12972" lon="6.73508">
        <ele>1607.5120955073</ele>
        <time>2021-07-10T07:23:33Z</time>
      </trkpt>
      <trkpt lat="44.12971" lon="6.73509">
        <ele>1607.5121135519</ele>
        <time>2021-07-10T07:23:34Z</time>
      </trkpt>
      <trkpt lat="44.12969" lon="6.7351">
        <ele>1606.512179735</ele>
        <time>2021-07-10T07:23:36Z</time>
      </trkpt>
      <trkpt lat="44.12968" lon="6.73511">
        <ele>1605.5121980605</ele>
        <time>2021-07-10T07:23:37Z</time>
      </trkpt>
      <trkpt lat="44.12967" lon="6.73511">
        <ele>1605.5122195488</ele>
        <time>2021-07-10T07:23:38Z</time>
      </trkpt>
      <trkpt lat="44.12966" lon="6.73512">
        <ele>1605.5122458358</ele>
        <time>2021-07-10T07:23:39Z</time>
      </trkpt>
      <trkpt lat="44.12964" lon="6.73513">
        <ele>1605.5122975743</ele>
        <time>2021-07-10T07:23:41Z</time>
      </trkpt>
      <trkpt lat="44.12963" lon="6.73514">
        <ele>1605.5122870163</ele>
        <time>2021-07-10T07:23:42Z</time>
      </trkpt>
      <trkpt lat="44.12962" lon="6.73516">
        <ele>1605.5122862617</ele>
        <time>2021-07-10T07:23:43Z</time>
      </trkpt>
      <trkpt lat="44.1296" lon="6.73518">
        <ele>1604.512330133</ele>
        <time>2021-07-10T07:23:45Z</time>
      </trkpt>
      <trkpt lat="44.12959" lon="6.73518">
        <ele>1603.5123881176</ele>
        <time>2021-07-10T07:23:46Z</time>
      </trkpt>
      <trkpt lat="44.12957" lon="6.73518">
        <ele>1603.5124371556</ele>
        <time>2021-07-10T07:23:47Z</time>
      </trkpt>
      <trkpt lat="44.12955" lon="6.73519">
        <ele>1602.5125169035</ele>
        <time>2021-07-10T07:23:49Z</time>
      </trkpt>
      <trkpt lat="44.12953" lon="6.7352">
        <ele>1602.5125605623</ele>
        <time>2021-07-10T07:23:51Z</time>
      </trkpt>
      <trkpt lat="44.12952" lon="6.7352">
        <ele>1602.5125948784</ele>
        <time>2021-07-10T07:23:52Z</time>
      </trkpt>
      <trkpt lat="44.12951" lon="6.73521">
        <ele>1602.5126194208</ele>
        <time>2021-07-10T07:23:53Z</time>
      </trkpt>
      <trkpt lat="44.12949" lon="6.73521">
        <ele>1601.51269174</ele>
        <time>2021-07-10T07:23:55Z</time>
      </trkpt>
      <trkpt lat="44.12948" lon="6.73521">
        <ele>1601.5127266885</ele>
        <time>2021-07-10T07:23:56Z</time>
      </trkpt>
      <trkpt lat="44.12947" lon="6.73521">
        <ele>1601.5127568248</ele>
        <time>2021-07-10T07:23:57Z</time>
      </trkpt>
      <trkpt lat="44.12945" lon="6.73522">
        <ele>1600.5128040357</ele>
        <time>2021-07-10T07:23:59Z</time>
      </trkpt>
      <trkpt lat="44.12944" lon="6.73524">
        <ele>1600.5128009511</ele>
        <time>2021-07-10T07:24:01Z</time>
      </trkpt>
      <trkpt lat="44.12943" lon="6.73526">
        <ele>1601.5128000261</ele>
        <time>2021-07-10T07:24:02Z</time>
      </trkpt>
      <trkpt lat="44.12943" lon="6.73526">
        <ele>1601.5128007482</ele>
        <time>2021-07-10T07:24:03Z</time>
      </trkpt>
      <trkpt lat="44.12942" lon="6.73527">
        <ele>1601.5128084265</ele>
        <time>2021-07-10T07:24:04Z</time>
      </trkpt>
      <trkpt lat="44.12942" lon="6.73527">
        <ele>1601.5128114068</ele>
        <time>2021-07-10T07:24:10Z</time>
      </trkpt>
      <trkpt lat="44.12941" lon="6.7353">
        <ele>1601.512784313</ele>
        <time>2021-07-10T07:24:11Z</time>
      </trkpt>
      <trkpt lat="44.12941" lon="6.73531">
        <ele>1601.5127840621</ele>
        <time>2021-07-10T07:24:12Z</time>
      </trkpt>
      <trkpt lat="44.1294" lon="6.73534">
        <ele>1602.5127707866</ele>
        <time>2021-07-10T07:24:14Z</time>
      </trkpt>
      <trkpt lat="44.12939" lon="6.73535">
        <ele>1602.5127724213</ele>
        <time>2021-07-10T07:24:15Z</time>
      </trkpt>
      <trkpt lat="44.12938" lon="6.73537">
        <ele>1601.5127746851</ele>
        <time>2021-07-10T07:24:16Z</time>
      </trkpt>
      <trkpt lat="44.12937" lon="6.73538">
        <ele>1601.5127838241</ele>
        <time>2021-07-10T07:24:17Z</time>
      </trkpt>
      <trkpt lat="44.12936" lon="6.7354">
        <ele>1601.5127842837</ele>
        <time>2021-07-10T07:24:18Z</time>
      </trkpt>
      <trkpt lat="44.12936" lon="6.73541">
        <ele>1601.5127852972</ele>
        <time>2021-07-10T07:24:19Z</time>
      </trkpt>
      <trkpt lat="44.12935" lon="6.73541">
        <ele>1601.512778432</ele>
        <time>2021-07-10T07:24:20Z</time>
      </trkpt>
      <trkpt lat="44.12935" lon="6.73543">
        <ele>1601.5127612009</ele>
        <time>2021-07-10T07:24:21Z</time>
      </trkpt>
      <trkpt lat="44.12935" lon="6.73543">
        <ele>1602.5127639774</ele>
        <time>2021-07-10T07:24:22Z</time>
      </trkpt>
      <trkpt lat="44.12934" lon="6.73545">
        <ele>1601.5127365547</ele>
        <time>2021-07-10T07:24:24Z</time>
      </trkpt>
      <trkpt lat="44.12933" lon="6.73547">
        <ele>1601.5127401958</ele>
        <time>2021-07-10T07:24:26Z</time>
      </trkpt>
      <trkpt lat="44.12932" lon="6.73549">
        <ele>1602.5127446552</ele>
        <time>2021-07-10T07:24:27Z</time>
      </trkpt>
      <trkpt lat="44.12932" lon="6.7355">
        <ele>1602.5127341475</ele>
        <time>2021-07-10T07:24:28Z</time>
      </trkpt>
      <trkpt lat="44.12931" lon="6.73552">
        <ele>1601.5127246074</ele>
        <time>2021-07-10T07:24:30Z</time>
      </trkpt>
      <trkpt lat="44.12931" lon="6.73552">
        <ele>1601.5127331972</ele>
        <time>2021-07-10T07:24:31Z</time>
      </trkpt>
      <trkpt lat="44.1293" lon="6.73553">
        <ele>1601.5127240471</ele>
        <time>2021-07-10T07:24:32Z</time>
      </trkpt>
      <trkpt lat="44.1293" lon="6.73554">
        <ele>1601.5127083454</ele>
        <time>2021-07-10T07:24:33Z</time>
      </trkpt>
      <trkpt lat="44.12929" lon="6.73556">
        <ele>1601.5127068622</ele>
        <time>2021-07-10T07:24:35Z</time>
      </trkpt>
      <trkpt lat="44.12929" lon="6.73557">
        <ele>1601.5127035504</ele>
        <time>2021-07-10T07:24:37Z</time>
      </trkpt>
      <trkpt lat="44.12927" lon="6.73558">
        <ele>1601.5127439892</ele>
        <time>2021-07-10T07:24:39Z</time>
      </trkpt>
      <trkpt lat="44.12927" lon="6.73559">
        <ele>1601.5127466919</ele>
        <time>2021-07-10T07:24:40Z</time>
      </trkpt>
      <trkpt lat="44.12926" lon="6.7356">
        <ele>1601.512738909</ele>
        <time>2021-07-10T07:24:41Z</time>
      </trkpt>
      <trkpt lat="44.12926" lon="6.73561">
        <ele>1602.5127189118</ele>
        <time>2021-07-10T07:24:42Z</time>
      </trkpt>
      <trkpt lat="44.12925" lon="6.73562">
        <ele>1602.5127352856</ele>
        <time>2021-07-10T07:24:43Z</time>
      </trkpt>
      <trkpt lat="44.12923" lon="6.73564">
        <ele>1602.512769974</ele>
        <time>2021-07-10T07:24:45Z</time>
      </trkpt>
      <trkpt lat="44.12922" lon="6.73566">
        <ele>1602.5127595506</ele>
        <time>2021-07-10T07:24:46Z</time>
      </trkpt>
      <trkpt lat="44.12922" lon="6.73567">
        <ele>1602.5127339629</ele>
        <time>2021-07-10T07:24:47Z</time>
      </trkpt>
      <trkpt lat="44.12921" lon="6.73567">
        <ele>1602.5127628124</ele>
        <time>2021-07-10T07:24:48Z</time>
      </trkpt>
      <trkpt lat="44.12921" lon="6.73568">
        <ele>1602.5127757601</ele>
        <time>2021-07-10T07:24:49Z</time>
      </trkpt>
      <trkpt lat="44.1292" lon="6.73569">
        <ele>1603.5127837212</ele>
        <time>2021-07-10T07:24:50Z</time>
      </trkpt>
      <trkpt lat="44.12919" lon="6.7357">
        <ele>1603.5127970534</ele>
        <time>2021-07-10T07:24:51Z</time>
      </trkpt>
      <trkpt lat="44.12918" lon="6.73571">
        <ele>1602.5128182775</ele>
        <time>2021-07-10T07:24:52Z</time>
      </trkpt>
      <trkpt lat="44.12917" lon="6.73571">
        <ele>1602.5128400014</ele>
        <time>2021-07-10T07:24:53Z</time>
      </trkpt>
      <trkpt lat="44.12917" lon="6.73572">
        <ele>1602.512854979</ele>
        <time>2021-07-10T07:24:54Z</time>
      </trkpt>
      <trkpt lat="44.12915" lon="6.73572">
        <ele>1601.5128984889</ele>
        <time>2021-07-10T07:24:56Z</time>
      </trkpt>
      <trkpt lat="44.12915" lon="6.73571">
        <ele>1601.5129255427</ele>
        <time>2021-07-10T07:24:57Z</time>
      </trkpt>
      <trkpt lat="44.12914" lon="6.73572">
        <ele>1601.512941589</ele>
        <time>2021-07-10T07:24:58Z</time>
      </trkpt>
      <trkpt lat="44.12914" lon="6.73571">
        <ele>1601.5129820619</ele>
        <time>2021-07-10T07:24:59Z</time>
      </trkpt>
      <trkpt lat="44.12913" lon="6.73571">
        <ele>1601.5130134122</ele>
        <time>2021-07-10T07:25:02Z</time>
      </trkpt>
      <trkpt lat="44.12911" lon="6.73573">
        <ele>1602.5130335341</ele>
        <time>2021-07-10T07:25:04Z</time>
      </trkpt>
      <trkpt lat="44.12911" lon="6.73574">
        <ele>1602.5130422871</ele>
        <time>2021-07-10T07:25:05Z</time>
      </trkpt>
      <trkpt lat="44.1291" lon="6.73575">
        <ele>1603.513020817</ele>
        <time>2021-07-10T07:25:06Z</time>
      </trkpt>
      <trkpt lat="44.1291" lon="6.73577">
        <ele>1604.5130023218</ele>
        <time>2021-07-10T07:25:07Z</time>
      </trkpt>
      <trkpt lat="44.12909" lon="6.73578">
        <ele>1605.5129981559</ele>
        <time>2021-07-10T07:25:08Z</time>
      </trkpt>
      <trkpt lat="44.12909" lon="6.73579">
        <ele>1605.5130022274</ele>
        <time>2021-07-10T07:25:09Z</time>
      </trkpt>
      <trkpt lat="44.12907" lon="6.73581">
        <ele>1606.5130183715</ele>
        <time>2021-07-10T07:25:10Z</time>
      </trkpt>
      <trkpt lat="44.12907" lon="6.73581">
        <ele>1605.5130465551</ele>
        <time>2021-07-10T07:25:11Z</time>
      </trkpt>
      <trkpt lat="44.12906" lon="6.73581">
        <ele>1606.5130715743</ele>
        <time>2021-07-10T07:25:12Z</time>
      </trkpt>
      <trkpt lat="44.12903" lon="6.73583">
        <ele>1606.5131257258</ele>
        <time>2021-07-10T07:25:14Z</time>
      </trkpt>
      <trkpt lat="44.12902" lon="6.73584">
        <ele>1606.5131451112</ele>
        <time>2021-07-10T07:25:16Z</time>
      </trkpt>
      <trkpt lat="44.12901" lon="6.73584">
        <ele>1607.5131653613</ele>
        <time>2021-07-10T07:25:17Z</time>
      </trkpt>
      <trkpt lat="44.12901" lon="6.73585">
        <ele>1607.5131892253</ele>
        <time>2021-07-10T07:25:18Z</time>
      </trkpt>
      <trkpt lat="44.129" lon="6.73585">
        <ele>1607.5132145385</ele>
        <time>2021-07-10T07:25:19Z</time>
      </trkpt>
      <trkpt lat="44.12899" lon="6.73586">
        <ele>1608.5132362431</ele>
        <time>2021-07-10T07:25:21Z</time>
      </trkpt>
      <trkpt lat="44.12898" lon="6.73587">
        <ele>1607.513234983</ele>
        <time>2021-07-10T07:25:28Z</time>
      </trkpt>
      <trkpt lat="44.12897" lon="6.73586">
        <ele>1607.5133024256</ele>
        <time>2021-07-10T07:25:30Z</time>
      </trkpt>
      <trkpt lat="44.12897" lon="6.73585">
        <ele>1607.5133378653</ele>
        <time>2021-07-10T07:25:31Z</time>
      </trkpt>
      <trkpt lat="44.12896" lon="6.73584">
        <ele>1607.5133773158</ele>
        <time>2021-07-10T07:25:32Z</time>
      </trkpt>
      <trkpt lat="44.12895" lon="6.73585">
        <ele>1607.5133898102</ele>
        <time>2021-07-10T07:25:33Z</time>
      </trkpt>
      <trkpt lat="44.12895" lon="6.73585">
        <ele>1606.513390015</ele>
        <time>2021-07-10T07:25:37Z</time>
      </trkpt>
      <trkpt lat="44.12894" lon="6.73586">
        <ele>1606.5134187698</ele>
        <time>2021-07-10T07:25:39Z</time>
      </trkpt>
      <trkpt lat="44.12893" lon="6.73586">
        <ele>1606.5134600608</ele>
        <time>2021-07-10T07:25:40Z</time>
      </trkpt>
      <trkpt lat="44.12893" lon="6.73586">
        <ele>1606.5134628389</ele>
        <time>2021-07-10T07:25:41Z</time>
      </trkpt>
      <trkpt lat="44.12892" lon="6.73586">
        <ele>1606.5135083745</ele>
        <time>2021-07-10T07:25:42Z</time>
      </trkpt>
      <trkpt lat="44.1289" lon="6.73586">
        <ele>1606.5135553613</ele>
        <time>2021-07-10T07:25:44Z</time>
      </trkpt>
      <trkpt lat="44.1289" lon="6.73587">
        <ele>1606.5135568742</ele>
        <time>2021-07-10T07:25:46Z</time>
      </trkpt>
      <trkpt lat="44.12888" lon="6.73587">
        <ele>1606.513622824</ele>
        <time>2021-07-10T07:25:47Z</time>
      </trkpt>
      <trkpt lat="44.12887" lon="6.73587">
        <ele>1606.5136561211</ele>
        <time>2021-07-10T07:25:48Z</time>
      </trkpt>
      <trkpt lat="44.12886" lon="6.73587">
        <ele>1606.5137006695</ele>
        <time>2021-07-10T07:25:50Z</time>
      </trkpt>
      <trkpt lat="44.12885" lon="6.73587">
        <ele>1607.5137279382</ele>
        <time>2021-07-10T07:25:52Z</time>
      </trkpt>
      <trkpt lat="44.12885" lon="6.73588">
        <ele>1608.5137329765</ele>
        <time>2021-07-10T07:25:53Z</time>
      </trkpt>
      <trkpt lat="44.12884" lon="6.73588">
        <ele>1608.5137537348</ele>
        <time>2021-07-10T07:25:56Z</time>
      </trkpt>
      <trkpt lat="44.12883" lon="6.73587">
        <ele>1608.5137991561</ele>
        <time>2021-07-10T07:25:57Z</time>
      </trkpt>
      <trkpt lat="44.12883" lon="6.73588">
        <ele>1607.5138144322</ele>
        <time>2021-07-10T07:25:59Z</time>
      </trkpt>
      <trkpt lat="44.12882" lon="6.73587">
        <ele>1608.5138500436</ele>
        <time>2021-07-10T07:26:02Z</time>
      </trkpt>
      <trkpt lat="44.1288" lon="6.73584">
        <ele>1607.5139836903</ele>
        <time>2021-07-10T07:26:03Z</time>
      </trkpt>
      <trkpt lat="44.1288" lon="6.73583">
        <ele>1607.5140236064</ele>
        <time>2021-07-10T07:26:04Z</time>
      </trkpt>
      <trkpt lat="44.1288" lon="6.73582">
        <ele>1607.5140327176</ele>
        <time>2021-07-10T07:26:05Z</time>
      </trkpt>
      <trkpt lat="44.1288" lon="6.73581">
        <ele>1607.5140334559</ele>
        <time>2021-07-10T07:26:06Z</time>
      </trkpt>
      <trkpt lat="44.12881" lon="6.73579">
        <ele>1606.514033989</ele>
        <time>2021-07-10T07:26:07Z</time>
      </trkpt>
      <trkpt lat="44.12882" lon="6.73578">
        <ele>1606.5140213595</ele>
        <time>2021-07-10T07:26:08Z</time>
      </trkpt>
      <trkpt lat="44.12883" lon="6.73578">
        <ele>1606.5140183749</ele>
        <time>2021-07-10T07:26:09Z</time>
      </trkpt>
      <trkpt lat="44.12883" lon="6.73577">
        <ele>1606.5140179238</ele>
        <time>2021-07-10T07:26:10Z</time>
      </trkpt>
      <trkpt lat="44.12884" lon="6.73577">
        <ele>1606.5140014042</ele>
        <time>2021-07-10T07:26:11Z</time>
      </trkpt>
      <trkpt lat="44.12884" lon="6.73576">
        <ele>1606.5140036787</ele>
        <time>2021-07-10T07:26:12Z</time>
      </trkpt>
      <trkpt lat="44.12884" lon="6.73575">
        <ele>1606.514007561</ele>
        <time>2021-07-10T07:26:13Z</time>
      </trkpt>
      <trkpt lat="44.12885" lon="6.73573">
        <ele>1606.5140249707</ele>
        <time>2021-07-10T07:26:14Z</time>
      </trkpt>
      <trkpt lat="44.12885" lon="6.73572">
        <ele>1606.5140288799</ele>
        <time>2021-07-10T07:26:15Z</time>
      </trkpt>
      <trkpt lat="44.12887" lon="6.7357">
        <ele>1605.514018304</ele>
        <time>2021-07-10T07:26:16Z</time>
      </trkpt>
      <trkpt lat="44.12887" lon="6.73568">
        <ele>1605.5140324954</ele>
        <time>2021-07-10T07:26:17Z</time>
      </trkpt>
      <trkpt lat="44.12888" lon="6.73566">
        <ele>1605.5140298909</ele>
        <time>2021-07-10T07:26:18Z</time>
      </trkpt>
      <trkpt lat="44.12889" lon="6.73566">
        <ele>1604.5140326674</ele>
        <time>2021-07-10T07:26:19Z</time>
      </trkpt>
      <trkpt lat="44.12889" lon="6.73565">
        <ele>1604.5140592559</ele>
        <time>2021-07-10T07:26:20Z</time>
      </trkpt>
      <trkpt lat="44.12889" lon="6.73563">
        <ele>1603.5140834696</ele>
        <time>2021-07-10T07:26:23Z</time>
      </trkpt>
      <trkpt lat="44.12889" lon="6.73562">
        <ele>1603.5140951773</ele>
        <time>2021-07-10T07:26:24Z</time>
      </trkpt>
      <trkpt lat="44.12889" lon="6.73561">
        <ele>1602.5141128046</ele>
        <time>2021-07-10T07:26:25Z</time>
      </trkpt>
      <trkpt lat="44.12889" lon="6.7356">
        <ele>1602.5141357943</ele>
        <time>2021-07-10T07:26:26Z</time>
      </trkpt>
      <trkpt lat="44.12889" lon="6.73559">
        <ele>1602.5141621015</ele>
        <time>2021-07-10T07:26:28Z</time>
      </trkpt>
      <trkpt lat="44.12889" lon="6.73558">
        <ele>1602.5141779835</ele>
        <time>2021-07-10T07:26:29Z</time>
      </trkpt>
      <trkpt lat="44.12889" lon="6.73558">
        <ele>1602.5141989533</ele>
        <time>2021-07-10T07:26:33Z</time>
      </trkpt>
      <trkpt lat="44.12887" lon="6.73556">
        <ele>1603.5142894325</ele>
        <time>2021-07-10T07:26:34Z</time>
      </trkpt>
      <trkpt lat="44.12887" lon="6.73556">
        <ele>1605.5143110069</ele>
        <time>2021-07-10T07:26:35Z</time>
      </trkpt>
      <trkpt lat="44.12886" lon="6.73556">
        <ele>1606.5143312976</ele>
        <time>2021-07-10T07:26:39Z</time>
      </trkpt>
      <trkpt lat="44.12884" lon="6.73558">
        <ele>1608.5143950591</ele>
        <time>2021-07-10T07:26:40Z</time>
      </trkpt>
      <trkpt lat="44.12883" lon="6.73558">
        <ele>1609.5144026414</ele>
        <time>2021-07-10T07:26:41Z</time>
      </trkpt>
      <trkpt lat="44.12883" lon="6.73559">
        <ele>1610.5143915254</ele>
        <time>2021-07-10T07:26:42Z</time>
      </trkpt>
      <trkpt lat="44.12882" lon="6.7356">
        <ele>1611.5143847887</ele>
        <time>2021-07-10T07:26:43Z</time>
      </trkpt>
      <trkpt lat="44.12882" lon="6.7356">
        <ele>1611.5144091397</ele>
        <time>2021-07-10T07:26:44Z</time>
      </trkpt>
      <trkpt lat="44.12881" lon="6.73561">
        <ele>1611.5144347724</ele>
        <time>2021-07-10T07:26:45Z</time>
      </trkpt>
      <trkpt lat="44.1288" lon="6.73562">
        <ele>1611.5144421644</ele>
        <time>2021-07-10T07:26:46Z</time>
      </trkpt>
      <trkpt lat="44.1288" lon="6.73563">
        <ele>1612.5144403791</ele>
        <time>2021-07-10T07:26:47Z</time>
      </trkpt>
      <trkpt lat="44.12879" lon="6.73563">
        <ele>1612.5144534216</ele>
        <time>2021-07-10T07:26:48Z</time>
      </trkpt>
      <trkpt lat="44.12878" lon="6.73563">
        <ele>1612.5144700045</ele>
        <time>2021-07-10T07:26:49Z</time>
      </trkpt>
      <trkpt lat="44.12878" lon="6.73563">
        <ele>1612.5145014916</ele>
        <time>2021-07-10T07:26:50Z</time>
      </trkpt>
      <trkpt lat="44.12877" lon="6.73563">
        <ele>1613.5145209001</ele>
        <time>2021-07-10T07:26:51Z</time>
      </trkpt>
      <trkpt lat="44.12877" lon="6.73564">
        <ele>1613.5145364806</ele>
        <time>2021-07-10T07:26:54Z</time>
      </trkpt>
      <trkpt lat="44.12875" lon="6.73565">
        <ele>1613.5145733446</ele>
        <time>2021-07-10T07:26:55Z</time>
      </trkpt>
      <trkpt lat="44.12874" lon="6.73565">
        <ele>1613.5146012598</ele>
        <time>2021-07-10T07:26:56Z</time>
      </trkpt>
      <trkpt lat="44.12873" lon="6.73565">
        <ele>1613.5146337025</ele>
        <time>2021-07-10T07:26:57Z</time>
      </trkpt>
      <trkpt lat="44.12873" lon="6.73565">
        <ele>1613.5146486028</ele>
        <time>2021-07-10T07:26:58Z</time>
      </trkpt>
      <trkpt lat="44.12871" lon="6.73566">
        <ele>1614.5146952748</ele>
        <time>2021-07-10T07:27:00Z</time>
      </trkpt>
      <trkpt lat="44.1287" lon="6.73566">
        <ele>1614.5147234047</ele>
        <time>2021-07-10T07:27:01Z</time>
      </trkpt>
      <trkpt lat="44.1287" lon="6.73567">
        <ele>1614.5147171873</ele>
        <time>2021-07-10T07:27:02Z</time>
      </trkpt>
      <trkpt lat="44.1287" lon="6.73568">
        <ele>1616.5146937993</ele>
        <time>2021-07-10T07:27:03Z</time>
      </trkpt>
      <trkpt lat="44.12869" lon="6.7357">
        <ele>1617.5146746687</ele>
        <time>2021-07-10T07:27:05Z</time>
      </trkpt>
      <trkpt lat="44.12869" lon="6.7357">
        <ele>1619.5146758818</ele>
        <time>2021-07-10T07:27:07Z</time>
      </trkpt>
      <trkpt lat="44.12868" lon="6.7357">
        <ele>1619.5147085454</ele>
        <time>2021-07-10T07:27:08Z</time>
      </trkpt>
      <trkpt lat="44.12867" lon="6.7357">
        <ele>1618.5147428081</ele>
        <time>2021-07-10T07:27:09Z</time>
      </trkpt>
      <trkpt lat="44.12866" lon="6.73571">
        <ele>1618.5147690737</ele>
        <time>2021-07-10T07:27:10Z</time>
      </trkpt>
      <trkpt lat="44.12865" lon="6.73572">
        <ele>1619.5147964781</ele>
        <time>2021-07-10T07:27:11Z</time>
      </trkpt>
      <trkpt lat="44.12864" lon="6.73573">
        <ele>1619.5148110833</ele>
        <time>2021-07-10T07:27:12Z</time>
      </trkpt>
      <trkpt lat="44.12864" lon="6.73574">
        <ele>1620.5148057847</ele>
        <time>2021-07-10T07:27:13Z</time>
      </trkpt>
      <trkpt lat="44.12863" lon="6.73575">
        <ele>1620.5148110679</ele>
        <time>2021-07-10T07:27:14Z</time>
      </trkpt>
      <trkpt lat="44.12863" lon="6.73576">
        <ele>1621.5147910261</ele>
        <time>2021-07-10T07:27:15Z</time>
      </trkpt>
      <trkpt lat="44.12863" lon="6.73577">
        <ele>1622.5147744792</ele>
        <time>2021-07-10T07:27:16Z</time>
      </trkpt>
      <trkpt lat="44.12862" lon="6.73578">
        <ele>1623.5147757116</ele>
        <time>2021-07-10T07:27:17Z</time>
      </trkpt>
      <trkpt lat="44.12861" lon="6.73579">
        <ele>1624.5148028191</ele>
        <time>2021-07-10T07:27:18Z</time>
      </trkpt>
      <trkpt lat="44.12859" lon="6.73579">
        <ele>1625.5148654595</ele>
        <time>2021-07-10T07:27:20Z</time>
      </trkpt>
      <trkpt lat="44.12858" lon="6.73579">
        <ele>1625.5149123901</ele>
        <time>2021-07-10T07:27:21Z</time>
      </trkpt>
      <trkpt lat="44.12857" lon="6.7358">
        <ele>1625.5149286936</ele>
        <time>2021-07-10T07:27:22Z</time>
      </trkpt>
      <trkpt lat="44.12856" lon="6.7358">
        <ele>1625.5149585949</ele>
        <time>2021-07-10T07:27:23Z</time>
      </trkpt>
      <trkpt lat="44.12855" lon="6.73581">
        <ele>1625.5149817267</ele>
        <time>2021-07-10T07:27:24Z</time>
      </trkpt>
      <trkpt lat="44.12855" lon="6.73581">
        <ele>1626.5150061815</ele>
        <time>2021-07-10T07:27:25Z</time>
      </trkpt>
      <trkpt lat="44.12854" lon="6.73581">
        <ele>1626.5150403047</ele>
        <time>2021-07-10T07:27:26Z</time>
      </trkpt>
      <trkpt lat="44.12853" lon="6.73581">
        <ele>1627.5150585665</ele>
        <time>2021-07-10T07:27:27Z</time>
      </trkpt>
      <trkpt lat="44.12852" lon="6.73581">
        <ele>1627.5150901598</ele>
        <time>2021-07-10T07:27:28Z</time>
      </trkpt>
      <trkpt lat="44.12851" lon="6.7358">
        <ele>1627.5151560012</ele>
        <time>2021-07-10T07:27:30Z</time>
      </trkpt>
      <trkpt lat="44.12849" lon="6.73581">
        <ele>1627.5152147381</ele>
        <time>2021-07-10T07:27:32Z</time>
      </trkpt>
      <trkpt lat="44.12848" lon="6.73578">
        <ele>1627.5152994854</ele>
        <time>2021-07-10T07:27:34Z</time>
      </trkpt>
      <trkpt lat="44.12847" lon="6.73578">
        <ele>1627.5153363423</ele>
        <time>2021-07-10T07:27:36Z</time>
      </trkpt>
      <trkpt lat="44.12847" lon="6.73578">
        <ele>1627.5153490087</ele>
        <time>2021-07-10T07:27:42Z</time>
      </trkpt>
      <trkpt lat="44.12845" lon="6.73577">
        <ele>1628.5154477081</ele>
        <time>2021-07-10T07:27:44Z</time>
      </trkpt>
      <trkpt lat="44.12844" lon="6.73577">
        <ele>1628.515495472</ele>
        <time>2021-07-10T07:27:46Z</time>
      </trkpt>
      <trkpt lat="44.12843" lon="6.73577">
        <ele>1629.5155159423</ele>
        <time>2021-07-10T07:27:47Z</time>
      </trkpt>
      <trkpt lat="44.12842" lon="6.73577">
        <ele>1629.5155349193</ele>
        <time>2021-07-10T07:27:48Z</time>
      </trkpt>
      <trkpt lat="44.12841" lon="6.73578">
        <ele>1629.5155871458</ele>
        <time>2021-07-10T07:27:50Z</time>
      </trkpt>
      <trkpt lat="44.1284" lon="6.73577">
        <ele>1629.5156190985</ele>
        <time>2021-07-10T07:27:53Z</time>
      </trkpt>
      <trkpt lat="44.12839" lon="6.73577">
        <ele>1630.5156944686</ele>
        <time>2021-07-10T07:27:54Z</time>
      </trkpt>
      <trkpt lat="44.12838" lon="6.73576">
        <ele>1629.5157588638</ele>
        <time>2021-07-10T07:27:56Z</time>
      </trkpt>
      <trkpt lat="44.12837" lon="6.73576">
        <ele>1630.5157831106</ele>
        <time>2021-07-10T07:27:57Z</time>
      </trkpt>
      <trkpt lat="44.12837" lon="6.73577">
        <ele>1631.5157671843</ele>
        <time>2021-07-10T07:27:59Z</time>
      </trkpt>
      <trkpt lat="44.12835" lon="6.73577">
        <ele>1631.515823831</ele>
        <time>2021-07-10T07:28:01Z</time>
      </trkpt>
      <trkpt lat="44.12834" lon="6.73576">
        <ele>1631.5158757992</ele>
        <time>2021-07-10T07:28:02Z</time>
      </trkpt>
      <trkpt lat="44.12833" lon="6.73574">
        <ele>1630.5159619032</ele>
        <time>2021-07-10T07:28:03Z</time>
      </trkpt>
      <trkpt lat="44.12832" lon="6.73574">
        <ele>1630.5160026966</ele>
        <time>2021-07-10T07:28:04Z</time>
      </trkpt>
      <trkpt lat="44.12831" lon="6.73573">
        <ele>1631.5160693632</ele>
        <time>2021-07-10T07:28:06Z</time>
      </trkpt>
      <trkpt lat="44.1283" lon="6.73573">
        <ele>1631.5160914087</ele>
        <time>2021-07-10T07:28:07Z</time>
      </trkpt>
      <trkpt lat="44.1283" lon="6.73573">
        <ele>1630.5161079206</ele>
        <time>2021-07-10T07:28:08Z</time>
      </trkpt>
      <trkpt lat="44.12829" lon="6.73572">
        <ele>1630.516168244</ele>
        <time>2021-07-10T07:28:10Z</time>
      </trkpt>
      <trkpt lat="44.12828" lon="6.73573">
        <ele>1630.516197543</ele>
        <time>2021-07-10T07:28:12Z</time>
      </trkpt>
      <trkpt lat="44.12826" lon="6.73572">
        <ele>1631.5162549583</ele>
        <time>2021-07-10T07:28:13Z</time>
      </trkpt>
      <trkpt lat="44.12825" lon="6.73572">
        <ele>1631.5162946976</ele>
        <time>2021-07-10T07:28:14Z</time>
      </trkpt>
      <trkpt lat="44.12824" lon="6.73574">
        <ele>1631.5163026561</ele>
        <time>2021-07-10T07:28:16Z</time>
      </trkpt>
      <trkpt lat="44.12824" lon="6.73574">
        <ele>1630.5162904554</ele>
        <time>2021-07-10T07:28:18Z</time>
      </trkpt>
      <trkpt lat="44.12824" lon="6.73575">
        <ele>1631.5162783852</ele>
        <time>2021-07-10T07:28:19Z</time>
      </trkpt>
      <trkpt lat="44.12823" lon="6.73577">
        <ele>1631.5162897089</ele>
        <time>2021-07-10T07:28:21Z</time>
      </trkpt>
      <trkpt lat="44.12822" lon="6.73578">
        <ele>1632.5162949484</ele>
        <time>2021-07-10T07:28:22Z</time>
      </trkpt>
      <trkpt lat="44.12822" lon="6.73579">
        <ele>1632.5162898828</ele>
        <time>2021-07-10T07:28:26Z</time>
      </trkpt>
      <trkpt lat="44.1282" lon="6.73579">
        <ele>1633.5163416804</ele>
        <time>2021-07-10T07:28:27Z</time>
      </trkpt>
      <trkpt lat="44.1282" lon="6.73579">
        <ele>1633.5163570504</ele>
        <time>2021-07-10T07:28:28Z</time>
      </trkpt>
      <trkpt lat="44.12819" lon="6.73578">
        <ele>1633.5164020431</ele>
        <time>2021-07-10T07:28:30Z</time>
      </trkpt>
      <trkpt lat="44.12819" lon="6.73578">
        <ele>1633.5164020431</ele>
        <time>2021-07-10T07:28:32Z</time>
      </trkpt>
      <trkpt lat="44.12817" lon="6.73578">
        <ele>1634.5164743047</ele>
        <time>2021-07-10T07:28:33Z</time>
      </trkpt>
      <trkpt lat="44.12816" lon="6.73578">
        <ele>1634.5165235662</ele>
        <time>2021-07-10T07:28:34Z</time>
      </trkpt>
      <trkpt lat="44.12815" lon="6.73576">
        <ele>1633.5165944347</ele>
        <time>2021-07-10T07:28:36Z</time>
      </trkpt>
      <trkpt lat="44.12815" lon="6.73575">
        <ele>1633.5166259777</ele>
        <time>2021-07-10T07:28:37Z</time>
      </trkpt>
      <trkpt lat="44.12815" lon="6.73575">
        <ele>1633.5166376706</ele>
        <time>2021-07-10T07:28:38Z</time>
      </trkpt>
      <trkpt lat="44.12815" lon="6.73574">
        <ele>1633.5166626986</ele>
        <time>2021-07-10T07:28:40Z</time>
      </trkpt>
      <trkpt lat="44.12814" lon="6.7357">
        <ele>1633.5167559918</ele>
        <time>2021-07-10T07:28:42Z</time>
      </trkpt>
      <trkpt lat="44.12814" lon="6.73568">
        <ele>1633.5167875514</ele>
        <time>2021-07-10T07:28:43Z</time>
      </trkpt>
      <trkpt lat="44.12814" lon="6.73568">
        <ele>1633.5167957278</ele>
        <time>2021-07-10T07:28:44Z</time>
      </trkpt>
      <trkpt lat="44.12813" lon="6.73566">
        <ele>1632.5168643019</ele>
        <time>2021-07-10T07:28:46Z</time>
      </trkpt>
      <trkpt lat="44.12813" lon="6.73566">
        <ele>1632.516877493</ele>
        <time>2021-07-10T07:28:49Z</time>
      </trkpt>
      <trkpt lat="44.12812" lon="6.73567">
        <ele>1633.5168927195</ele>
        <time>2021-07-10T07:28:50Z</time>
      </trkpt>
      <trkpt lat="44.12811" lon="6.73567">
        <ele>1633.5169209029</ele>
        <time>2021-07-10T07:28:51Z</time>
      </trkpt>
      <trkpt lat="44.1281" lon="6.73568">
        <ele>1633.5169511335</ele>
        <time>2021-07-10T07:28:52Z</time>
      </trkpt>
      <trkpt lat="44.12809" lon="6.73567">
        <ele>1633.5170070295</ele>
        <time>2021-07-10T07:28:54Z</time>
      </trkpt>
      <trkpt lat="44.12808" lon="6.73567">
        <ele>1633.5170464479</ele>
        <time>2021-07-10T07:28:55Z</time>
      </trkpt>
      <trkpt lat="44.12808" lon="6.73566">
        <ele>1634.517074439</ele>
        <time>2021-07-10T07:28:56Z</time>
      </trkpt>
      <trkpt lat="44.12807" lon="6.73565">
        <ele>1634.5171124532</ele>
        <time>2021-07-10T07:28:57Z</time>
      </trkpt>
      <trkpt lat="44.12806" lon="6.73565">
        <ele>1634.5171475672</ele>
        <time>2021-07-10T07:28:58Z</time>
      </trkpt>
      <trkpt lat="44.12806" lon="6.73565">
        <ele>1634.5171763607</ele>
        <time>2021-07-10T07:29:03Z</time>
      </trkpt>
      <trkpt lat="44.12804" lon="6.73566">
        <ele>1634.517241982</ele>
        <time>2021-07-10T07:29:04Z</time>
      </trkpt>
      <trkpt lat="44.12802" lon="6.73566">
        <ele>1634.5172986934</ele>
        <time>2021-07-10T07:29:06Z</time>
      </trkpt>
      <trkpt lat="44.12801" lon="6.73566">
        <ele>1634.5173323758</ele>
        <time>2021-07-10T07:29:07Z</time>
      </trkpt>
      <trkpt lat="44.128" lon="6.73567">
        <ele>1635.5173382946</ele>
        <time>2021-07-10T07:29:08Z</time>
      </trkpt>
      <trkpt lat="44.128" lon="6.73567">
        <ele>1635.517360863</ele>
        <time>2021-07-10T07:29:12Z</time>
      </trkpt>
      <trkpt lat="44.12799" lon="6.73566">
        <ele>1635.5174269994</ele>
        <time>2021-07-10T07:29:13Z</time>
      </trkpt>
      <trkpt lat="44.12798" lon="6.73565">
        <ele>1635.5174525902</ele>
        <time>2021-07-10T07:29:15Z</time>
      </trkpt>
      <trkpt lat="44.12799" lon="6.73564">
        <ele>1635.5174734163</ele>
        <time>2021-07-10T07:29:16Z</time>
      </trkpt>
      <trkpt lat="44.12798" lon="6.73563">
        <ele>1635.5174924026</ele>
        <time>2021-07-10T07:29:17Z</time>
      </trkpt>
      <trkpt lat="44.12799" lon="6.73561">
        <ele>1635.5175265376</ele>
        <time>2021-07-10T07:29:18Z</time>
      </trkpt>
      <trkpt lat="44.12799" lon="6.73559">
        <ele>1636.5175307543</ele>
        <time>2021-07-10T07:29:20Z</time>
      </trkpt>
      <trkpt lat="44.128" lon="6.73559">
        <ele>1635.5175244511</ele>
        <time>2021-07-10T07:29:21Z</time>
      </trkpt>
      <trkpt lat="44.128" lon="6.73558">
        <ele>1636.5175204145</ele>
        <time>2021-07-10T07:29:22Z</time>
      </trkpt>
      <trkpt lat="44.12801" lon="6.73557">
        <ele>1636.5175049044</ele>
        <time>2021-07-10T07:29:34Z</time>
      </trkpt>
      <trkpt lat="44.12802" lon="6.73557">
        <ele>1636.5174621511</ele>
        <time>2021-07-10T07:29:36Z</time>
      </trkpt>
      <trkpt lat="44.12803" lon="6.73556">
        <ele>1636.5174766354</ele>
        <time>2021-07-10T07:29:37Z</time>
      </trkpt>
      <trkpt lat="44.12804" lon="6.73554">
        <ele>1636.5174732132</ele>
        <time>2021-07-10T07:29:38Z</time>
      </trkpt>
      <trkpt lat="44.12805" lon="6.73553">
        <ele>1635.5174540404</ele>
        <time>2021-07-10T07:29:39Z</time>
      </trkpt>
      <trkpt lat="44.12806" lon="6.73549">
        <ele>1635.5174865381</ele>
        <time>2021-07-10T07:29:41Z</time>
      </trkpt>
      <trkpt lat="44.12806" lon="6.73548">
        <ele>1635.5175011719</ele>
        <time>2021-07-10T07:29:42Z</time>
      </trkpt>
      <trkpt lat="44.12806" lon="6.73547">
        <ele>1634.5175329802</ele>
        <time>2021-07-10T07:29:43Z</time>
      </trkpt>
      <trkpt lat="44.12806" lon="6.73546">
        <ele>1634.5175564675</ele>
        <time>2021-07-10T07:29:44Z</time>
      </trkpt>
      <trkpt lat="44.12805" lon="6.73545">
        <ele>1636.5176025864</ele>
        <time>2021-07-10T07:29:46Z</time>
      </trkpt>
      <trkpt lat="44.12804" lon="6.73545">
        <ele>1637.5176406855</ele>
        <time>2021-07-10T07:29:47Z</time>
      </trkpt>
      <trkpt lat="44.12803" lon="6.73545">
        <ele>1637.5176832222</ele>
        <time>2021-07-10T07:29:48Z</time>
      </trkpt>
      <trkpt lat="44.12802" lon="6.73545">
        <ele>1638.5177328521</ele>
        <time>2021-07-10T07:29:49Z</time>
      </trkpt>
      <trkpt lat="44.128" lon="6.73547">
        <ele>1638.5177808798</ele>
        <time>2021-07-10T07:29:51Z</time>
      </trkpt>
      <trkpt lat="44.12799" lon="6.73547">
        <ele>1639.517807336</ele>
        <time>2021-07-10T07:29:52Z</time>
      </trkpt>
      <trkpt lat="44.12798" lon="6.73548">
        <ele>1639.5178283221</ele>
        <time>2021-07-10T07:29:53Z</time>
      </trkpt>
      <trkpt lat="44.12797" lon="6.73548">
        <ele>1639.5178555906</ele>
        <time>2021-07-10T07:29:54Z</time>
      </trkpt>
      <trkpt lat="44.12796" lon="6.73548">
        <ele>1640.5178801824</ele>
        <time>2021-07-10T07:29:55Z</time>
      </trkpt>
      <trkpt lat="44.12795" lon="6.73548">
        <ele>1640.5179360869</ele>
        <time>2021-07-10T07:29:57Z</time>
      </trkpt>
      <trkpt lat="44.12794" lon="6.73548">
        <ele>1641.5179476559</ele>
        <time>2021-07-10T07:29:58Z</time>
      </trkpt>
      <trkpt lat="44.12794" lon="6.73548">
        <ele>1641.5179689879</ele>
        <time>2021-07-10T07:30:00Z</time>
      </trkpt>
      <trkpt lat="44.12793" lon="6.73549">
        <ele>1642.517994775</ele>
        <time>2021-07-10T07:30:01Z</time>
      </trkpt>
      <trkpt lat="44.12792" lon="6.73549">
        <ele>1643.5180130429</ele>
        <time>2021-07-10T07:30:02Z</time>
      </trkpt>
      <trkpt lat="44.12791" lon="6.7355">
        <ele>1643.5180360908</ele>
        <time>2021-07-10T07:30:03Z</time>
      </trkpt>
      <trkpt lat="44.1279" lon="6.73551">
        <ele>1644.5180517952</ele>
        <time>2021-07-10T07:30:05Z</time>
      </trkpt>
      <trkpt lat="44.12789" lon="6.73551">
        <ele>1644.5180705745</ele>
        <time>2021-07-10T07:30:06Z</time>
      </trkpt>
      <trkpt lat="44.12789" lon="6.73552">
        <ele>1644.5180804387</ele>
        <time>2021-07-10T07:30:07Z</time>
      </trkpt>
      <trkpt lat="44.12788" lon="6.73553">
        <ele>1644.5180942292</ele>
        <time>2021-07-10T07:30:08Z</time>
      </trkpt>
      <trkpt lat="44.12787" lon="6.73553">
        <ele>1645.5181292227</ele>
        <time>2021-07-10T07:30:09Z</time>
      </trkpt>
      <trkpt lat="44.12786" lon="6.73553">
        <ele>1646.5181667524</ele>
        <time>2021-07-10T07:30:10Z</time>
      </trkpt>
      <trkpt lat="44.12785" lon="6.73553">
        <ele>1647.5182043409</ele>
        <time>2021-07-10T07:30:11Z</time>
      </trkpt>
      <trkpt lat="44.12784" lon="6.73553">
        <ele>1647.5182244848</ele>
        <time>2021-07-10T07:30:12Z</time>
      </trkpt>
      <trkpt lat="44.12784" lon="6.73553">
        <ele>1647.5182545684</ele>
        <time>2021-07-10T07:30:13Z</time>
      </trkpt>
      <trkpt lat="44.12784" lon="6.73551">
        <ele>1647.518306917</ele>
        <time>2021-07-10T07:30:15Z</time>
      </trkpt>
      <trkpt lat="44.12783" lon="6.7355">
        <ele>1647.5183254643</ele>
        <time>2021-07-10T07:30:17Z</time>
      </trkpt>
      <trkpt lat="44.12785" lon="6.73547">
        <ele>1646.5183170571</ele>
        <time>2021-07-10T07:30:18Z</time>
      </trkpt>
      <trkpt lat="44.12786" lon="6.73546">
        <ele>1646.5183163524</ele>
        <time>2021-07-10T07:30:19Z</time>
      </trkpt>
      <trkpt lat="44.12787" lon="6.73544">
        <ele>1645.5183158164</ele>
        <time>2021-07-10T07:30:21Z</time>
      </trkpt>
      <trkpt lat="44.12787" lon="6.73545">
        <ele>1645.5182865763</ele>
        <time>2021-07-10T07:30:35Z</time>
      </trkpt>
      <trkpt lat="44.12787" lon="6.73545">
        <ele>1645.5182656598</ele>
        <time>2021-07-10T07:30:37Z</time>
      </trkpt>
      <trkpt lat="44.12788" lon="6.73545">
        <ele>1645.5182638415</ele>
        <time>2021-07-10T07:30:44Z</time>
      </trkpt>
      <trkpt lat="44.12789" lon="6.73544">
        <ele>1646.5182523602</ele>
        <time>2021-07-10T07:30:46Z</time>
      </trkpt>
      <trkpt lat="44.1279" lon="6.73543">
        <ele>1645.5182379364</ele>
        <time>2021-07-10T07:30:47Z</time>
      </trkpt>
      <trkpt lat="44.12791" lon="6.73542">
        <ele>1645.5182113818</ele>
        <time>2021-07-10T07:30:48Z</time>
      </trkpt>
      <trkpt lat="44.12791" lon="6.73541">
        <ele>1645.5182120715</ele>
        <time>2021-07-10T07:30:49Z</time>
      </trkpt>
      <trkpt lat="44.12792" lon="6.7354">
        <ele>1645.5181935112</ele>
        <time>2021-07-10T07:30:51Z</time>
      </trkpt>
      <trkpt lat="44.12793" lon="6.7354">
        <ele>1644.5181830723</ele>
        <time>2021-07-10T07:30:54Z</time>
      </trkpt>
      <trkpt lat="44.12794" lon="6.73537">
        <ele>1645.518202207</ele>
        <time>2021-07-10T07:30:56Z</time>
      </trkpt>
      <trkpt lat="44.12794" lon="6.73536">
        <ele>1644.518207221</ele>
        <time>2021-07-10T07:30:57Z</time>
      </trkpt>
      <trkpt lat="44.12795" lon="6.73534">
        <ele>1643.5182191751</ele>
        <time>2021-07-10T07:30:58Z</time>
      </trkpt>
      <trkpt lat="44.12795" lon="6.73533">
        <ele>1643.5182419918</ele>
        <time>2021-07-10T07:30:59Z</time>
      </trkpt>
      <trkpt lat="44.12795" lon="6.73531">
        <ele>1643.5182567441</ele>
        <time>2021-07-10T07:31:01Z</time>
      </trkpt>
      <trkpt lat="44.12796" lon="6.7353">
        <ele>1642.5182515481</ele>
        <time>2021-07-10T07:31:02Z</time>
      </trkpt>
      <trkpt lat="44.12797" lon="6.73529">
        <ele>1642.5182626078</ele>
        <time>2021-07-10T07:31:03Z</time>
      </trkpt>
      <trkpt lat="44.12797" lon="6.73528">
        <ele>1641.5182745191</ele>
        <time>2021-07-10T07:31:05Z</time>
      </trkpt>
      <trkpt lat="44.12797" lon="6.73525">
        <ele>1642.5183337137</ele>
        <time>2021-07-10T07:31:07Z</time>
      </trkpt>
      <trkpt lat="44.12797" lon="6.73523">
        <ele>1642.5183593293</ele>
        <time>2021-07-10T07:31:09Z</time>
      </trkpt>
      <trkpt lat="44.12797" lon="6.73522">
        <ele>1642.5184016953</ele>
        <time>2021-07-10T07:31:11Z</time>
      </trkpt>
      <trkpt lat="44.12796" lon="6.73522">
        <ele>1642.518416214</ele>
        <time>2021-07-10T07:31:14Z</time>
      </trkpt>
      <trkpt lat="44.12794" lon="6.7352">
        <ele>1642.5185130253</ele>
        <time>2021-07-10T07:31:16Z</time>
      </trkpt>
      <trkpt lat="44.12794" lon="6.7352">
        <ele>1642.5185389947</ele>
        <time>2021-07-10T07:31:17Z</time>
      </trkpt>
      <trkpt lat="44.12794" lon="6.73519">
        <ele>1641.518570161</ele>
        <time>2021-07-10T07:31:18Z</time>
      </trkpt>
      <trkpt lat="44.12794" lon="6.73517">
        <ele>1641.5185883345</ele>
        <time>2021-07-10T07:31:20Z</time>
      </trkpt>
      <trkpt lat="44.12795" lon="6.73516">
        <ele>1642.5185714781</ele>
        <time>2021-07-10T07:31:22Z</time>
      </trkpt>
      <trkpt lat="44.12795" lon="6.73516">
        <ele>1642.5185714781</ele>
        <time>2021-07-10T07:31:24Z</time>
      </trkpt>
      <trkpt lat="44.12798" lon="6.73513">
        <ele>1641.5185305156</ele>
        <time>2021-07-10T07:31:26Z</time>
      </trkpt>
      <trkpt lat="44.12799" lon="6.73512">
        <ele>1641.5185165323</ele>
        <time>2021-07-10T07:31:27Z</time>
      </trkpt>
      <trkpt lat="44.12799" lon="6.73511">
        <ele>1641.5185254598</ele>
        <time>2021-07-10T07:31:28Z</time>
      </trkpt>
      <trkpt lat="44.128" lon="6.7351">
        <ele>1641.5185289271</ele>
        <time>2021-07-10T07:31:29Z</time>
      </trkpt>
      <trkpt lat="44.128" lon="6.73509">
        <ele>1641.5185320843</ele>
        <time>2021-07-10T07:31:30Z</time>
      </trkpt>
      <trkpt lat="44.12801" lon="6.73508">
        <ele>1641.5185414221</ele>
        <time>2021-07-10T07:31:31Z</time>
      </trkpt>
      <trkpt lat="44.12801" lon="6.73507">
        <ele>1641.5185294593</ele>
        <time>2021-07-10T07:31:32Z</time>
      </trkpt>
      <trkpt lat="44.12801" lon="6.73506">
        <ele>1640.5185529933</ele>
        <time>2021-07-10T07:31:33Z</time>
      </trkpt>
      <trkpt lat="44.12801" lon="6.73505">
        <ele>1640.5185698711</ele>
        <time>2021-07-10T07:31:34Z</time>
      </trkpt>
      <trkpt lat="44.12802" lon="6.73505">
        <ele>1640.5185549486</ele>
        <time>2021-07-10T07:31:35Z</time>
      </trkpt>
      <trkpt lat="44.12803" lon="6.73505">
        <ele>1640.5185300461</ele>
        <time>2021-07-10T07:31:36Z</time>
      </trkpt>
      <trkpt lat="44.12803" lon="6.73504">
        <ele>1640.5185134789</ele>
        <time>2021-07-10T07:31:37Z</time>
      </trkpt>
      <trkpt lat="44.12804" lon="6.73503">
        <ele>1640.5185091005</ele>
        <time>2021-07-10T07:31:38Z</time>
      </trkpt>
      <trkpt lat="44.12805" lon="6.73502">
        <ele>1640.5184997839</ele>
        <time>2021-07-10T07:31:43Z</time>
      </trkpt>
      <trkpt lat="44.12805" lon="6.73501">
        <ele>1639.5185248712</ele>
        <time>2021-07-10T07:31:44Z</time>
      </trkpt>
      <trkpt lat="44.12805" lon="6.73499">
        <ele>1639.5185543271</ele>
        <time>2021-07-10T07:31:46Z</time>
      </trkpt>
      <trkpt lat="44.12804" lon="6.73499">
        <ele>1638.5185775029</ele>
        <time>2021-07-10T07:31:47Z</time>
      </trkpt>
      <trkpt lat="44.12804" lon="6.73498">
        <ele>1639.5185996931</ele>
        <time>2021-07-10T07:31:48Z</time>
      </trkpt>
      <trkpt lat="44.12805" lon="6.73497">
        <ele>1639.5185999634</ele>
        <time>2021-07-10T07:31:51Z</time>
      </trkpt>
      <trkpt lat="44.12806" lon="6.73495">
        <ele>1639.5186116533</ele>
        <time>2021-07-10T07:31:52Z</time>
      </trkpt>
      <trkpt lat="44.12806" lon="6.73494">
        <ele>1639.5186263335</ele>
        <time>2021-07-10T07:31:53Z</time>
      </trkpt>
      <trkpt lat="44.12807" lon="6.73491">
        <ele>1640.5186311557</ele>
        <time>2021-07-10T07:31:55Z</time>
      </trkpt>
      <trkpt lat="44.12808" lon="6.73491">
        <ele>1640.5186217278</ele>
        <time>2021-07-10T07:31:57Z</time>
      </trkpt>
      <trkpt lat="44.12809" lon="6.73489">
        <ele>1640.5186143569</ele>
        <time>2021-07-10T07:31:59Z</time>
      </trkpt>
      <trkpt lat="44.12809" lon="6.73488">
        <ele>1640.5186247327</ele>
        <time>2021-07-10T07:32:01Z</time>
      </trkpt>
      <trkpt lat="44.12809" lon="6.73488">
        <ele>1640.5186339365</ele>
        <time>2021-07-10T07:32:02Z</time>
      </trkpt>
      <trkpt lat="44.1281" lon="6.73487">
        <ele>1640.5186317866</ele>
        <time>2021-07-10T07:32:03Z</time>
      </trkpt>
      <trkpt lat="44.1281" lon="6.73486">
        <ele>1641.5186311704</ele>
        <time>2021-07-10T07:32:04Z</time>
      </trkpt>
      <trkpt lat="44.12809" lon="6.73485">
        <ele>1641.5186732029</ele>
        <time>2021-07-10T07:32:06Z</time>
      </trkpt>
      <trkpt lat="44.12808" lon="6.73485">
        <ele>1642.5187220484</ele>
        <time>2021-07-10T07:32:07Z</time>
      </trkpt>
      <trkpt lat="44.12808" lon="6.73484">
        <ele>1643.5187595823</ele>
        <time>2021-07-10T07:32:08Z</time>
      </trkpt>
      <trkpt lat="44.12808" lon="6.73483">
        <ele>1643.5187887975</ele>
        <time>2021-07-10T07:32:09Z</time>
      </trkpt>
      <trkpt lat="44.12807" lon="6.73482">
        <ele>1643.518819329</ele>
        <time>2021-07-10T07:32:13Z</time>
      </trkpt>
      <trkpt lat="44.12806" lon="6.73479">
        <ele>1642.5189030464</ele>
        <time>2021-07-10T07:32:14Z</time>
      </trkpt>
      <trkpt lat="44.12806" lon="6.73478">
        <ele>1642.5189357786</ele>
        <time>2021-07-10T07:32:19Z</time>
      </trkpt>
      <trkpt lat="44.12803" lon="6.73477">
        <ele>1644.5190751161</ele>
        <time>2021-07-10T07:32:20Z</time>
      </trkpt>
      <trkpt lat="44.12803" lon="6.73477">
        <ele>1645.5190887098</ele>
        <time>2021-07-10T07:32:22Z</time>
      </trkpt>
      <trkpt lat="44.12802" lon="6.73477">
        <ele>1646.5191162034</ele>
        <time>2021-07-10T07:32:23Z</time>
      </trkpt>
      <trkpt lat="44.12801" lon="6.73476">
        <ele>1647.5191951357</ele>
        <time>2021-07-10T07:32:25Z</time>
      </trkpt>
      <trkpt lat="44.12798" lon="6.73474">
        <ele>1648.5193127072</ele>
        <time>2021-07-10T07:32:27Z</time>
      </trkpt>
      <trkpt lat="44.12798" lon="6.73473">
        <ele>1648.5193636126</ele>
        <time>2021-07-10T07:32:28Z</time>
      </trkpt>
      <trkpt lat="44.12797" lon="6.73473">
        <ele>1649.5193930434</ele>
        <time>2021-07-10T07:32:29Z</time>
      </trkpt>
      <trkpt lat="44.12797" lon="6.73471">
        <ele>1648.5194346907</ele>
        <time>2021-07-10T07:32:31Z</time>
      </trkpt>
      <trkpt lat="44.12797" lon="6.7347">
        <ele>1648.5194476887</ele>
        <time>2021-07-10T07:32:32Z</time>
      </trkpt>
      <trkpt lat="44.12797" lon="6.73469">
        <ele>1648.5194555633</ele>
        <time>2021-07-10T07:32:33Z</time>
      </trkpt>
      <trkpt lat="44.12799" lon="6.73467">
        <ele>1647.5194464699</ele>
        <time>2021-07-10T07:32:35Z</time>
      </trkpt>
      <trkpt lat="44.12799" lon="6.73465">
        <ele>1647.5194544366</ele>
        <time>2021-07-10T07:32:37Z</time>
      </trkpt>
      <trkpt lat="44.128" lon="6.73463">
        <ele>1647.5194549124</ele>
        <time>2021-07-10T07:32:38Z</time>
      </trkpt>
      <trkpt lat="44.12801" lon="6.73462">
        <ele>1647.5194559609</ele>
        <time>2021-07-10T07:32:39Z</time>
      </trkpt>
      <trkpt lat="44.12802" lon="6.73461">
        <ele>1646.5194199831</ele>
        <time>2021-07-10T07:32:41Z</time>
      </trkpt>
      <trkpt lat="44.12803" lon="6.7346">
        <ele>1646.5194199246</ele>
        <time>2021-07-10T07:32:42Z</time>
      </trkpt>
      <trkpt lat="44.12804" lon="6.73459">
        <ele>1645.519402729</ele>
        <time>2021-07-10T07:32:43Z</time>
      </trkpt>
      <trkpt lat="44.12804" lon="6.73459">
        <ele>1646.5194061012</ele>
        <time>2021-07-10T07:32:44Z</time>
      </trkpt>
      <trkpt lat="44.12805" lon="6.73457">
        <ele>1646.5194125663</ele>
        <time>2021-07-10T07:32:46Z</time>
      </trkpt>
      <trkpt lat="44.12806" lon="6.73456">
        <ele>1646.5194014089</ele>
        <time>2021-07-10T07:32:47Z</time>
      </trkpt>
      <trkpt lat="44.12806" lon="6.73455">
        <ele>1646.5194181888</ele>
        <time>2021-07-10T07:32:49Z</time>
      </trkpt>
      <trkpt lat="44.12807" lon="6.73453">
        <ele>1646.5194211443</ele>
        <time>2021-07-10T07:32:51Z</time>
      </trkpt>
      <trkpt lat="44.12807" lon="6.73452">
        <ele>1647.5194233343</ele>
        <time>2021-07-10T07:32:52Z</time>
      </trkpt>
      <trkpt lat="44.12808" lon="6.73452">
        <ele>1647.519413886</ele>
        <time>2021-07-10T07:32:53Z</time>
      </trkpt>
      <trkpt lat="44.12808" lon="6.73451">
        <ele>1647.5194144838</ele>
        <time>2021-07-10T07:32:57Z</time>
      </trkpt>
      <trkpt lat="44.12809" lon="6.73447">
        <ele>1648.5194742723</ele>
        <time>2021-07-10T07:32:59Z</time>
      </trkpt>
      <trkpt lat="44.12809" lon="6.73445">
        <ele>1648.5195064678</ele>
        <time>2021-07-10T07:33:01Z</time>
      </trkpt>
      <trkpt lat="44.12809" lon="6.73444">
        <ele>1648.5195341598</ele>
        <time>2021-07-10T07:33:02Z</time>
      </trkpt>
      <trkpt lat="44.12809" lon="6.73442">
        <ele>1648.5195752365</ele>
        <time>2021-07-10T07:33:03Z</time>
      </trkpt>
      <trkpt lat="44.12808" lon="6.73441">
        <ele>1648.519613881</ele>
        <time>2021-07-10T07:33:05Z</time>
      </trkpt>
      <trkpt lat="44.12808" lon="6.73441">
        <ele>1648.519623113</ele>
        <time>2021-07-10T07:33:06Z</time>
      </trkpt>
      <trkpt lat="44.12809" lon="6.7344">
        <ele>1648.5196346646</ele>
        <time>2021-07-10T07:33:07Z</time>
      </trkpt>
      <trkpt lat="44.12809" lon="6.73438">
        <ele>1648.5196516952</ele>
        <time>2021-07-10T07:33:09Z</time>
      </trkpt>
      <trkpt lat="44.12809" lon="6.73435">
        <ele>1649.5197155907</ele>
        <time>2021-07-10T07:33:11Z</time>
      </trkpt>
      <trkpt lat="44.12809" lon="6.73434">
        <ele>1649.5197325092</ele>
        <time>2021-07-10T07:33:12Z</time>
      </trkpt>
      <trkpt lat="44.12809" lon="6.73433">
        <ele>1650.5197407162</ele>
        <time>2021-07-10T07:33:13Z</time>
      </trkpt>
      <trkpt lat="44.12809" lon="6.73433">
        <ele>1651.5197375858</ele>
        <time>2021-07-10T07:33:15Z</time>
      </trkpt>
      <trkpt lat="44.1281" lon="6.73432">
        <ele>1650.5197277329</ele>
        <time>2021-07-10T07:33:17Z</time>
      </trkpt>
      <trkpt lat="44.1281" lon="6.73431">
        <ele>1651.5197433841</ele>
        <time>2021-07-10T07:33:18Z</time>
      </trkpt>
      <trkpt lat="44.1281" lon="6.73429">
        <ele>1650.5198087109</ele>
        <time>2021-07-10T07:33:20Z</time>
      </trkpt>
      <trkpt lat="44.1281" lon="6.73427">
        <ele>1650.5198559946</ele>
        <time>2021-07-10T07:33:22Z</time>
      </trkpt>
      <trkpt lat="44.1281" lon="6.73425">
        <ele>1650.5198858225</ele>
        <time>2021-07-10T07:33:23Z</time>
      </trkpt>
      <trkpt lat="44.1281" lon="6.73424">
        <ele>1649.5199021625</ele>
        <time>2021-07-10T07:33:24Z</time>
      </trkpt>
      <trkpt lat="44.12811" lon="6.73422">
        <ele>1649.5199313254</ele>
        <time>2021-07-10T07:33:26Z</time>
      </trkpt>
      <trkpt lat="44.12811" lon="6.7342">
        <ele>1649.5199477911</ele>
        <time>2021-07-10T07:33:27Z</time>
      </trkpt>
      <trkpt lat="44.12812" lon="6.73419">
        <ele>1649.5199406913</ele>
        <time>2021-07-10T07:33:28Z</time>
      </trkpt>
      <trkpt lat="44.12812" lon="6.73418">
        <ele>1649.5199666209</ele>
        <time>2021-07-10T07:33:30Z</time>
      </trkpt>
      <trkpt lat="44.12811" lon="6.73416">
        <ele>1649.5200146506</ele>
        <time>2021-07-10T07:33:32Z</time>
      </trkpt>
      <trkpt lat="44.12811" lon="6.73415">
        <ele>1648.5200513359</ele>
        <time>2021-07-10T07:33:33Z</time>
      </trkpt>
      <trkpt lat="44.12811" lon="6.73414">
        <ele>1648.5200724478</ele>
        <time>2021-07-10T07:33:34Z</time>
      </trkpt>
      <trkpt lat="44.12811" lon="6.73412">
        <ele>1648.520112459</ele>
        <time>2021-07-10T07:33:36Z</time>
      </trkpt>
      <trkpt lat="44.12811" lon="6.73412">
        <ele>1648.520112459</ele>
        <time>2021-07-10T07:33:38Z</time>
      </trkpt>
      <trkpt lat="44.12811" lon="6.7341">
        <ele>1649.5201456842</ele>
        <time>2021-07-10T07:33:39Z</time>
      </trkpt>
      <trkpt lat="44.12812" lon="6.73409">
        <ele>1649.5201451492</ele>
        <time>2021-07-10T07:33:41Z</time>
      </trkpt>
      <trkpt lat="44.12812" lon="6.73408">
        <ele>1649.520162853</ele>
        <time>2021-07-10T07:33:43Z</time>
      </trkpt>
      <trkpt lat="44.12812" lon="6.73407">
        <ele>1649.5202003066</ele>
        <time>2021-07-10T07:33:45Z</time>
      </trkpt>
      <trkpt lat="44.12811" lon="6.73406">
        <ele>1649.5202297302</ele>
        <time>2021-07-10T07:33:46Z</time>
      </trkpt>
      <trkpt lat="44.12811" lon="6.73404">
        <ele>1648.5202680295</ele>
        <time>2021-07-10T07:33:47Z</time>
      </trkpt>
      <trkpt lat="44.12811" lon="6.73402">
        <ele>1648.5203062773</ele>
        <time>2021-07-10T07:33:48Z</time>
      </trkpt>
      <trkpt lat="44.12812" lon="6.73399">
        <ele>1648.5203525221</ele>
        <time>2021-07-10T07:33:50Z</time>
      </trkpt>
      <trkpt lat="44.12811" lon="6.73398">
        <ele>1647.5203767635</ele>
        <time>2021-07-10T07:33:51Z</time>
      </trkpt>
      <trkpt lat="44.12811" lon="6.73397">
        <ele>1647.5203962536</ele>
        <time>2021-07-10T07:33:52Z</time>
      </trkpt>
      <trkpt lat="44.12811" lon="6.73397">
        <ele>1647.5204074659</ele>
        <time>2021-07-10T07:33:53Z</time>
      </trkpt>
      <trkpt lat="44.12812" lon="6.73396">
        <ele>1647.5204119325</ele>
        <time>2021-07-10T07:33:55Z</time>
      </trkpt>
      <trkpt lat="44.12813" lon="6.73394">
        <ele>1646.5204183886</ele>
        <time>2021-07-10T07:33:57Z</time>
      </trkpt>
      <trkpt lat="44.12813" lon="6.73393">
        <ele>1646.5204376264</ele>
        <time>2021-07-10T07:33:58Z</time>
      </trkpt>
      <trkpt lat="44.12812" lon="6.73393">
        <ele>1646.5204593199</ele>
        <time>2021-07-10T07:34:01Z</time>
      </trkpt>
      <trkpt lat="44.12812" lon="6.7339">
        <ele>1647.5205176262</ele>
        <time>2021-07-10T07:34:02Z</time>
      </trkpt>
      <trkpt lat="44.12812" lon="6.73389">
        <ele>1646.5205382461</ele>
        <time>2021-07-10T07:34:03Z</time>
      </trkpt>
      <trkpt lat="44.12812" lon="6.73388">
        <ele>1647.5205720192</ele>
        <time>2021-07-10T07:34:05Z</time>
      </trkpt>
      <trkpt lat="44.12812" lon="6.73387">
        <ele>1647.5205921784</ele>
        <time>2021-07-10T07:34:06Z</time>
      </trkpt>
      <trkpt lat="44.12812" lon="6.73386">
        <ele>1647.5206235584</ele>
        <time>2021-07-10T07:34:10Z</time>
      </trkpt>
      <trkpt lat="44.12812" lon="6.73384">
        <ele>1645.5206590564</ele>
        <time>2021-07-10T07:34:12Z</time>
      </trkpt>
      <trkpt lat="44.12812" lon="6.73383">
        <ele>1645.5206586756</ele>
        <time>2021-07-10T07:34:13Z</time>
      </trkpt>
      <trkpt lat="44.12812" lon="6.73382">
        <ele>1645.5206899284</ele>
        <time>2021-07-10T07:34:14Z</time>
      </trkpt>
      <trkpt lat="44.12813" lon="6.7338">
        <ele>1645.5207122002</ele>
        <time>2021-07-10T07:34:16Z</time>
      </trkpt>
      <trkpt lat="44.12813" lon="6.73379">
        <ele>1645.5207328073</ele>
        <time>2021-07-10T07:34:17Z</time>
      </trkpt>
      <trkpt lat="44.12813" lon="6.73378">
        <ele>1645.5207420377</ele>
        <time>2021-07-10T07:34:18Z</time>
      </trkpt>
      <trkpt lat="44.12813" lon="6.73377">
        <ele>1644.5207588112</ele>
        <time>2021-07-10T07:34:19Z</time>
      </trkpt>
      <trkpt lat="44.12814" lon="6.73375">
        <ele>1644.5207710115</ele>
        <time>2021-07-10T07:34:21Z</time>
      </trkpt>
      <trkpt lat="44.12814" lon="6.73374">
        <ele>1644.520778233</ele>
        <time>2021-07-10T07:34:22Z</time>
      </trkpt>
      <trkpt lat="44.12814" lon="6.73373">
        <ele>1643.5207908179</ele>
        <time>2021-07-10T07:34:23Z</time>
      </trkpt>
      <trkpt lat="44.12814" lon="6.73371">
        <ele>1643.5208232005</ele>
        <time>2021-07-10T07:34:25Z</time>
      </trkpt>
      <trkpt lat="44.12814" lon="6.73369">
        <ele>1643.5208770614</ele>
        <time>2021-07-10T07:34:27Z</time>
      </trkpt>
      <trkpt lat="44.12814" lon="6.73368">
        <ele>1644.5209137879</ele>
        <time>2021-07-10T07:34:28Z</time>
      </trkpt>
      <trkpt lat="44.12813" lon="6.73369">
        <ele>1646.5209177178</ele>
        <time>2021-07-10T07:34:30Z</time>
      </trkpt>
      <trkpt lat="44.12813" lon="6.73371">
        <ele>1647.5208763893</ele>
        <time>2021-07-10T07:34:31Z</time>
      </trkpt>
      <trkpt lat="44.12813" lon="6.73372">
        <ele>1649.5208575942</ele>
        <time>2021-07-10T07:34:32Z</time>
      </trkpt>
      <trkpt lat="44.12813" lon="6.73373">
        <ele>1651.5208512754</ele>
        <time>2021-07-10T07:34:33Z</time>
      </trkpt>
      <trkpt lat="44.12813" lon="6.73373">
        <ele>1654.5208344678</ele>
        <time>2021-07-10T07:34:35Z</time>
      </trkpt>
      <trkpt lat="44.12815" lon="6.73375">
        <ele>1655.5207417428</ele>
        <time>2021-07-10T07:34:37Z</time>
      </trkpt>
      <trkpt lat="44.12814" lon="6.73376">
        <ele>1657.520733363</ele>
        <time>2021-07-10T07:34:38Z</time>
      </trkpt>
      <trkpt lat="44.12814" lon="6.73377">
        <ele>1658.5207365673</ele>
        <time>2021-07-10T07:34:39Z</time>
      </trkpt>
      <trkpt lat="44.12813" lon="6.73378">
        <ele>1659.5207403646</ele>
        <time>2021-07-10T07:34:40Z</time>
      </trkpt>
      <trkpt lat="44.12811" lon="6.73379">
        <ele>1660.5207875403</ele>
        <time>2021-07-10T07:34:42Z</time>
      </trkpt>
      <trkpt lat="44.1281" lon="6.73379">
        <ele>1661.520833645</ele>
        <time>2021-07-10T07:34:43Z</time>
      </trkpt>
      <trkpt lat="44.1281" lon="6.73378">
        <ele>1661.5208556088</ele>
        <time>2021-07-10T07:34:47Z</time>
      </trkpt>
      <trkpt lat="44.12809" lon="6.73375">
        <ele>1661.5209319854</ele>
        <time>2021-07-10T07:34:48Z</time>
      </trkpt>
      <trkpt lat="44.1281" lon="6.73374">
        <ele>1661.5209382643</ele>
        <time>2021-07-10T07:34:49Z</time>
      </trkpt>
      <trkpt lat="44.12811" lon="6.73372">
        <ele>1660.5209370013</ele>
        <time>2021-07-10T07:34:51Z</time>
      </trkpt>
      <trkpt lat="44.12811" lon="6.73371">
        <ele>1660.5209546889</ele>
        <time>2021-07-10T07:34:52Z</time>
      </trkpt>
      <trkpt lat="44.12811" lon="6.7337">
        <ele>1660.5209894829</ele>
        <time>2021-07-10T07:34:53Z</time>
      </trkpt>
      <trkpt lat="44.1281" lon="6.73368">
        <ele>1660.5210496739</ele>
        <time>2021-07-10T07:34:55Z</time>
      </trkpt>
      <trkpt lat="44.12809" lon="6.73366">
        <ele>1660.5211215179</ele>
        <time>2021-07-10T07:34:57Z</time>
      </trkpt>
      <trkpt lat="44.12809" lon="6.73366">
        <ele>1660.5211304167</ele>
        <time>2021-07-10T07:34:58Z</time>
      </trkpt>
      <trkpt lat="44.12808" lon="6.73366">
        <ele>1660.5211589708</ele>
        <time>2021-07-10T07:34:59Z</time>
      </trkpt>
      <trkpt lat="44.12806" lon="6.73367">
        <ele>1660.5212114538</ele>
        <time>2021-07-10T07:35:01Z</time>
      </trkpt>
      <trkpt lat="44.12806" lon="6.73367">
        <ele>1661.5212274271</ele>
        <time>2021-07-10T07:35:03Z</time>
      </trkpt>
      <trkpt lat="44.12804" lon="6.73368">
        <ele>1662.5212640594</ele>
        <time>2021-07-10T07:35:05Z</time>
      </trkpt>
      <trkpt lat="44.12804" lon="6.73368">
        <ele>1663.5212838394</ele>
        <time>2021-07-10T07:35:06Z</time>
      </trkpt>
      <trkpt lat="44.12803" lon="6.73368">
        <ele>1663.521299492</ele>
        <time>2021-07-10T07:35:10Z</time>
      </trkpt>
      <trkpt lat="44.12804" lon="6.7337">
        <ele>1665.5212414067</ele>
        <time>2021-07-10T07:35:11Z</time>
      </trkpt>
      <trkpt lat="44.12804" lon="6.73371">
        <ele>1666.5212256741</ele>
        <time>2021-07-10T07:35:12Z</time>
      </trkpt>
      <trkpt lat="44.12804" lon="6.73372">
        <ele>1666.5212211536</ele>
        <time>2021-07-10T07:35:13Z</time>
      </trkpt>
      <trkpt lat="44.12803" lon="6.73373">
        <ele>1668.5212191977</ele>
        <time>2021-07-10T07:35:15Z</time>
      </trkpt>
      <trkpt lat="44.12803" lon="6.73373">
        <ele>1668.5212191977</ele>
        <time>2021-07-10T07:35:17Z</time>
      </trkpt>
      <trkpt lat="44.12801" lon="6.73375">
        <ele>1671.5212608077</ele>
        <time>2021-07-10T07:35:18Z</time>
      </trkpt>
      <trkpt lat="44.128" lon="6.73375">
        <ele>1672.5212735786</ele>
        <time>2021-07-10T07:35:19Z</time>
      </trkpt>
      <trkpt lat="44.12798" lon="6.73376">
        <ele>1673.5213260012</ele>
        <time>2021-07-10T07:35:21Z</time>
      </trkpt>
      <trkpt lat="44.12797" lon="6.73376">
        <ele>1673.5213609471</ele>
        <time>2021-07-10T07:35:22Z</time>
      </trkpt>
      <trkpt lat="44.12796" lon="6.73376">
        <ele>1674.5213986258</ele>
        <time>2021-07-10T07:35:23Z</time>
      </trkpt>
      <trkpt lat="44.12795" lon="6.73376">
        <ele>1675.5214349844</ele>
        <time>2021-07-10T07:35:25Z</time>
      </trkpt>
      <trkpt lat="44.12795" lon="6.73377">
        <ele>1676.5214263456</ele>
        <time>2021-07-10T07:35:27Z</time>
      </trkpt>
      <trkpt lat="44.12795" lon="6.73378">
        <ele>1676.5214279891</ele>
        <time>2021-07-10T07:35:28Z</time>
      </trkpt>
      <trkpt lat="44.12794" lon="6.73379">
        <ele>1676.5214494664</ele>
        <time>2021-07-10T07:35:29Z</time>
      </trkpt>
      <trkpt lat="44.12793" lon="6.73379">
        <ele>1677.5214652099</ele>
        <time>2021-07-10T07:35:30Z</time>
      </trkpt>
      <trkpt lat="44.12792" lon="6.7338">
        <ele>1677.5214694229</ele>
        <time>2021-07-10T07:35:31Z</time>
      </trkpt>
      <trkpt lat="44.12791" lon="6.73381">
        <ele>1677.5214932249</ele>
        <time>2021-07-10T07:35:32Z</time>
      </trkpt>
      <trkpt lat="44.1279" lon="6.73381">
        <ele>1678.5215239027</ele>
        <time>2021-07-10T07:35:33Z</time>
      </trkpt>
      <trkpt lat="44.12788" lon="6.73381">
        <ele>1678.5216135501</ele>
        <time>2021-07-10T07:35:35Z</time>
      </trkpt>
      <trkpt lat="44.12787" lon="6.7338">
        <ele>1679.5216473757</ele>
        <time>2021-07-10T07:35:36Z</time>
      </trkpt>
      <trkpt lat="44.12787" lon="6.7338">
        <ele>1679.5216872071</ele>
        <time>2021-07-10T07:35:37Z</time>
      </trkpt>
      <trkpt lat="44.12786" lon="6.7338">
        <ele>1680.5217075534</ele>
        <time>2021-07-10T07:35:38Z</time>
      </trkpt>
      <trkpt lat="44.12785" lon="6.73381">
        <ele>1680.521716495</ele>
        <time>2021-07-10T07:35:39Z</time>
      </trkpt>
      <trkpt lat="44.12785" lon="6.73381">
        <ele>1680.5217143599</ele>
        <time>2021-07-10T07:35:40Z</time>
      </trkpt>
      <trkpt lat="44.12785" lon="6.7338">
        <ele>1680.5217252835</ele>
        <time>2021-07-10T07:35:42Z</time>
      </trkpt>
      <trkpt lat="44.12785" lon="6.73379">
        <ele>1680.5217477555</ele>
        <time>2021-07-10T07:35:43Z</time>
      </trkpt>
      <trkpt lat="44.12785" lon="6.73379">
        <ele>1680.5217715156</ele>
        <time>2021-07-10T07:35:44Z</time>
      </trkpt>
      <trkpt lat="44.12784" lon="6.73379">
        <ele>1680.5218051823</ele>
        <time>2021-07-10T07:35:45Z</time>
      </trkpt>
      <trkpt lat="44.12783" lon="6.73379">
        <ele>1680.5218248069</ele>
        <time>2021-07-10T07:35:46Z</time>
      </trkpt>
      <trkpt lat="44.12782" lon="6.73379">
        <ele>1679.5218696955</ele>
        <time>2021-07-10T07:35:47Z</time>
      </trkpt>
      <trkpt lat="44.12781" lon="6.73379">
        <ele>1679.5219139746</ele>
        <time>2021-07-10T07:35:48Z</time>
      </trkpt>
      <trkpt lat="44.1278" lon="6.73379">
        <ele>1679.5219694975</ele>
        <time>2021-07-10T07:35:50Z</time>
      </trkpt>
      <trkpt lat="44.12778" lon="6.73379">
        <ele>1679.5220276296</ele>
        <time>2021-07-10T07:35:52Z</time>
      </trkpt>
      <trkpt lat="44.12777" lon="6.73379">
        <ele>1679.5220613593</ele>
        <time>2021-07-10T07:35:53Z</time>
      </trkpt>
      <trkpt lat="44.12776" lon="6.73379">
        <ele>1679.522091813</ele>
        <time>2021-07-10T07:35:54Z</time>
      </trkpt>
      <trkpt lat="44.12775" lon="6.73379">
        <ele>1679.5221303046</ele>
        <time>2021-07-10T07:35:55Z</time>
      </trkpt>
      <trkpt lat="44.12775" lon="6.7338">
        <ele>1680.5221295217</ele>
        <time>2021-07-10T07:35:57Z</time>
      </trkpt>
      <trkpt lat="44.12774" lon="6.73381">
        <ele>1680.5221443533</ele>
        <time>2021-07-10T07:35:58Z</time>
      </trkpt>
      <trkpt lat="44.12773" lon="6.73381">
        <ele>1680.5221542417</ele>
        <time>2021-07-10T07:35:59Z</time>
      </trkpt>
      <trkpt lat="44.12772" lon="6.73382">
        <ele>1680.5221884848</ele>
        <time>2021-07-10T07:36:01Z</time>
      </trkpt>
      <trkpt lat="44.12771" lon="6.73382">
        <ele>1680.5222066127</ele>
        <time>2021-07-10T07:36:02Z</time>
      </trkpt>
      <trkpt lat="44.12771" lon="6.73383">
        <ele>1680.5222174187</ele>
        <time>2021-07-10T07:36:03Z</time>
      </trkpt>
      <trkpt lat="44.1277" lon="6.73383">
        <ele>1680.5222227763</ele>
        <time>2021-07-10T07:36:04Z</time>
      </trkpt>
      <trkpt lat="44.12769" lon="6.73384">
        <ele>1680.5222481639</ele>
        <time>2021-07-10T07:36:06Z</time>
      </trkpt>
      <trkpt lat="44.12769" lon="6.73385">
        <ele>1681.5222545647</ele>
        <time>2021-07-10T07:36:07Z</time>
      </trkpt>
      <trkpt lat="44.12768" lon="6.73385">
        <ele>1681.5222823018</ele>
        <time>2021-07-10T07:36:08Z</time>
      </trkpt>
      <trkpt lat="44.12767" lon="6.73385">
        <ele>1681.5223106878</ele>
        <time>2021-07-10T07:36:10Z</time>
      </trkpt>
      <trkpt lat="44.12767" lon="6.73385">
        <ele>1681.5223308042</ele>
        <time>2021-07-10T07:36:11Z</time>
      </trkpt>
      <trkpt lat="44.12765" lon="6.73385">
        <ele>1681.5223716448</ele>
        <time>2021-07-10T07:36:12Z</time>
      </trkpt>
      <trkpt lat="44.12764" lon="6.73385">
        <ele>1681.5224313194</ele>
        <time>2021-07-10T07:36:13Z</time>
      </trkpt>
      <trkpt lat="44.12763" lon="6.73385">
        <ele>1681.5224522719</ele>
        <time>2021-07-10T07:36:14Z</time>
      </trkpt>
      <trkpt lat="44.12763" lon="6.73385">
        <ele>1682.5224769186</ele>
        <time>2021-07-10T07:36:16Z</time>
      </trkpt>
      <trkpt lat="44.12762" lon="6.73385">
        <ele>1682.5225145593</ele>
        <time>2021-07-10T07:36:18Z</time>
      </trkpt>
      <trkpt lat="44.12762" lon="6.73384">
        <ele>1682.5225234581</ele>
        <time>2021-07-10T07:36:19Z</time>
      </trkpt>
      <trkpt lat="44.1276" lon="6.73385">
        <ele>1683.5225614682</ele>
        <time>2021-07-10T07:36:21Z</time>
      </trkpt>
      <trkpt lat="44.1276" lon="6.73386">
        <ele>1683.5225568856</ele>
        <time>2021-07-10T07:36:25Z</time>
      </trkpt>
      <trkpt lat="44.12758" lon="6.73387">
        <ele>1685.5226100297</ele>
        <time>2021-07-10T07:36:27Z</time>
      </trkpt>
      <trkpt lat="44.12758" lon="6.73387">
        <ele>1687.5226166015</ele>
        <time>2021-07-10T07:36:31Z</time>
      </trkpt>
      <trkpt lat="44.12757" lon="6.73387">
        <ele>1687.5226584009</ele>
        <time>2021-07-10T07:36:32Z</time>
      </trkpt>
      <trkpt lat="44.12755" lon="6.73387">
        <ele>1687.5227092973</ele>
        <time>2021-07-10T07:36:33Z</time>
      </trkpt>
      <trkpt lat="44.12754" lon="6.73387">
        <ele>1689.5227727958</ele>
        <time>2021-07-10T07:36:35Z</time>
      </trkpt>
      <trkpt lat="44.12753" lon="6.73387">
        <ele>1689.522801921</ele>
        <time>2021-07-10T07:36:36Z</time>
      </trkpt>
      <trkpt lat="44.12752" lon="6.73386">
        <ele>1689.5228444589</ele>
        <time>2021-07-10T07:36:37Z</time>
      </trkpt>
      <trkpt lat="44.12751" lon="6.73386">
        <ele>1689.5228660714</ele>
        <time>2021-07-10T07:36:38Z</time>
      </trkpt>
      <trkpt lat="44.12751" lon="6.73386">
        <ele>1688.5228893365</ele>
        <time>2021-07-10T07:36:39Z</time>
      </trkpt>
      <trkpt lat="44.1275" lon="6.73386">
        <ele>1689.5229212554</ele>
        <time>2021-07-10T07:36:42Z</time>
      </trkpt>
      <trkpt lat="44.12749" lon="6.73385">
        <ele>1689.5229841404</ele>
        <time>2021-07-10T07:36:43Z</time>
      </trkpt>
      <trkpt lat="44.12748" lon="6.73385">
        <ele>1689.523007247</ele>
        <time>2021-07-10T07:36:44Z</time>
      </trkpt>
      <trkpt lat="44.12747" lon="6.73385">
        <ele>1689.5230387268</ele>
        <time>2021-07-10T07:36:45Z</time>
      </trkpt>
      <trkpt lat="44.12746" lon="6.73386">
        <ele>1690.5230684529</ele>
        <time>2021-07-10T07:36:47Z</time>
      </trkpt>
      <trkpt lat="44.12746" lon="6.73386">
        <ele>1690.523086464</ele>
        <time>2021-07-10T07:36:48Z</time>
      </trkpt>
      <trkpt lat="44.12744" lon="6.73387">
        <ele>1690.5231051381</ele>
        <time>2021-07-10T07:36:50Z</time>
      </trkpt>
      <trkpt lat="44.12743" lon="6.73388">
        <ele>1691.5231465802</ele>
        <time>2021-07-10T07:36:52Z</time>
      </trkpt>
      <trkpt lat="44.12742" lon="6.73388">
        <ele>1691.5231814523</ele>
        <time>2021-07-10T07:36:53Z</time>
      </trkpt>
      <trkpt lat="44.12741" lon="6.73388">
        <ele>1692.5232216706</ele>
        <time>2021-07-10T07:36:54Z</time>
      </trkpt>
      <trkpt lat="44.1274" lon="6.73388">
        <ele>1692.5232678316</ele>
        <time>2021-07-10T07:36:55Z</time>
      </trkpt>
      <trkpt lat="44.12739" lon="6.73388">
        <ele>1692.5233005025</ele>
        <time>2021-07-10T07:36:57Z</time>
      </trkpt>
      <trkpt lat="44.12739" lon="6.73387">
        <ele>1693.5233227777</ele>
        <time>2021-07-10T07:36:58Z</time>
      </trkpt>
      <trkpt lat="44.12738" lon="6.73387">
        <ele>1693.5233440497</ele>
        <time>2021-07-10T07:36:59Z</time>
      </trkpt>
      <trkpt lat="44.12738" lon="6.73387">
        <ele>1693.5233683294</ele>
        <time>2021-07-10T07:37:00Z</time>
      </trkpt>
      <trkpt lat="44.12737" lon="6.73387">
        <ele>1693.5234031834</ele>
        <time>2021-07-10T07:37:01Z</time>
      </trkpt>
      <trkpt lat="44.12736" lon="6.73387">
        <ele>1693.5234303108</ele>
        <time>2021-07-10T07:37:02Z</time>
      </trkpt>
      <trkpt lat="44.12735" lon="6.73387">
        <ele>1693.5234525579</ele>
        <time>2021-07-10T07:37:03Z</time>
      </trkpt>
      <trkpt lat="44.12734" lon="6.73388">
        <ele>1693.5234753837</ele>
        <time>2021-07-10T07:37:04Z</time>
      </trkpt>
      <trkpt lat="44.12733" lon="6.73387">
        <ele>1694.5235389018</ele>
        <time>2021-07-10T07:37:06Z</time>
      </trkpt>
      <trkpt lat="44.12732" lon="6.73388">
        <ele>1694.5235698557</ele>
        <time>2021-07-10T07:37:07Z</time>
      </trkpt>
      <trkpt lat="44.12731" lon="6.73388">
        <ele>1695.5235862261</ele>
        <time>2021-07-10T07:37:09Z</time>
      </trkpt>
      <trkpt lat="44.12729" lon="6.73389">
        <ele>1695.5236446226</ele>
        <time>2021-07-10T07:37:11Z</time>
      </trkpt>
      <trkpt lat="44.12729" lon="6.73389">
        <ele>1695.5236662088</ele>
        <time>2021-07-10T07:37:12Z</time>
      </trkpt>
      <trkpt lat="44.12728" lon="6.7339">
        <ele>1696.5236852581</ele>
        <time>2021-07-10T07:37:13Z</time>
      </trkpt>
      <trkpt lat="44.12727" lon="6.7339">
        <ele>1697.5237015321</ele>
        <time>2021-07-10T07:37:14Z</time>
      </trkpt>
      <trkpt lat="44.12725" lon="6.73391">
        <ele>1698.5237625371</ele>
        <time>2021-07-10T07:37:16Z</time>
      </trkpt>
      <trkpt lat="44.12725" lon="6.73391">
        <ele>1699.5237663403</ele>
        <time>2021-07-10T07:37:17Z</time>
      </trkpt>
      <trkpt lat="44.12724" lon="6.73392">
        <ele>1700.5237654642</ele>
        <time>2021-07-10T07:37:19Z</time>
      </trkpt>
      <trkpt lat="44.12723" lon="6.73392">
        <ele>1701.5237982834</ele>
        <time>2021-07-10T07:37:21Z</time>
      </trkpt>
      <trkpt lat="44.12723" lon="6.73392">
        <ele>1701.5238298995</ele>
        <time>2021-07-10T07:37:22Z</time>
      </trkpt>
      <trkpt lat="44.12722" lon="6.73392">
        <ele>1701.5238451504</ele>
        <time>2021-07-10T07:37:23Z</time>
      </trkpt>
      <trkpt lat="44.12722" lon="6.73392">
        <ele>1701.5238697931</ele>
        <time>2021-07-10T07:37:24Z</time>
      </trkpt>
      <trkpt lat="44.12721" lon="6.73393">
        <ele>1702.5238685556</ele>
        <time>2021-07-10T07:37:27Z</time>
      </trkpt>
      <trkpt lat="44.12721" lon="6.73392">
        <ele>1702.5238954415</ele>
        <time>2021-07-10T07:37:28Z</time>
      </trkpt>
      <trkpt lat="44.1272" lon="6.73392">
        <ele>1704.5239288935</ele>
        <time>2021-07-10T07:37:30Z</time>
      </trkpt>
      <trkpt lat="44.12719" lon="6.73393">
        <ele>1705.5239570046</ele>
        <time>2021-07-10T07:37:33Z</time>
      </trkpt>
      <trkpt lat="44.12717" lon="6.73392">
        <ele>1706.524030097</ele>
        <time>2021-07-10T07:37:34Z</time>
      </trkpt>
      <trkpt lat="44.12716" lon="6.73392">
        <ele>1707.5240708795</ele>
        <time>2021-07-10T07:37:36Z</time>
      </trkpt>
      <trkpt lat="44.12716" lon="6.73392">
        <ele>1707.5240866118</ele>
        <time>2021-07-10T07:37:39Z</time>
      </trkpt>
      <trkpt lat="44.12714" lon="6.73391">
        <ele>1708.5241591223</ele>
        <time>2021-07-10T07:37:40Z</time>
      </trkpt>
      <trkpt lat="44.12713" lon="6.73391">
        <ele>1708.5242144637</ele>
        <time>2021-07-10T07:37:42Z</time>
      </trkpt>
      <trkpt lat="44.12712" lon="6.73391">
        <ele>1709.5242351675</ele>
        <time>2021-07-10T07:37:43Z</time>
      </trkpt>
      <trkpt lat="44.12712" lon="6.73391">
        <ele>1709.524252428</ele>
        <time>2021-07-10T07:37:44Z</time>
      </trkpt>
      <trkpt lat="44.12711" lon="6.73392">
        <ele>1710.5242818075</ele>
        <time>2021-07-10T07:37:45Z</time>
      </trkpt>
      <trkpt lat="44.1271" lon="6.73391">
        <ele>1710.5243049936</ele>
        <time>2021-07-10T07:37:46Z</time>
      </trkpt>
      <trkpt lat="44.1271" lon="6.73391">
        <ele>1710.5243393221</ele>
        <time>2021-07-10T07:37:47Z</time>
      </trkpt>
      <trkpt lat="44.12709" lon="6.73391">
        <ele>1710.5243743713</ele>
        <time>2021-07-10T07:37:48Z</time>
      </trkpt>
      <trkpt lat="44.12708" lon="6.7339">
        <ele>1710.5244222459</ele>
        <time>2021-07-10T07:37:49Z</time>
      </trkpt>
      <trkpt lat="44.12707" lon="6.7339">
        <ele>1710.5244591564</ele>
        <time>2021-07-10T07:37:51Z</time>
      </trkpt>
      <trkpt lat="44.12707" lon="6.73389">
        <ele>1710.5244780963</ele>
        <time>2021-07-10T07:37:52Z</time>
      </trkpt>
      <trkpt lat="44.12706" lon="6.73389">
        <ele>1709.5245192095</ele>
        <time>2021-07-10T07:37:53Z</time>
      </trkpt>
      <trkpt lat="44.12706" lon="6.73388">
        <ele>1709.5245309432</ele>
        <time>2021-07-10T07:37:54Z</time>
      </trkpt>
      <trkpt lat="44.12705" lon="6.73388">
        <ele>1709.5245688154</ele>
        <time>2021-07-10T07:37:55Z</time>
      </trkpt>
      <trkpt lat="44.12705" lon="6.73387">
        <ele>1709.5245883397</ele>
        <time>2021-07-10T07:37:57Z</time>
      </trkpt>
      <trkpt lat="44.12704" lon="6.73387">
        <ele>1709.5246199894</ele>
        <time>2021-07-10T07:38:00Z</time>
      </trkpt>
      <trkpt lat="44.12703" lon="6.73384">
        <ele>1708.5247205479</ele>
        <time>2021-07-10T07:38:02Z</time>
      </trkpt>
      <trkpt lat="44.12702" lon="6.73384">
        <ele>1708.5247434587</ele>
        <time>2021-07-10T07:38:03Z</time>
      </trkpt>
      <trkpt lat="44.12702" lon="6.73384">
        <ele>1708.5247758777</ele>
        <time>2021-07-10T07:38:06Z</time>
      </trkpt>
      <trkpt lat="44.127" lon="6.73383">
        <ele>1708.5248483226</ele>
        <time>2021-07-10T07:38:07Z</time>
      </trkpt>
      <trkpt lat="44.127" lon="6.73383">
        <ele>1707.5248757427</ele>
        <time>2021-07-10T07:38:08Z</time>
      </trkpt>
      <trkpt lat="44.12699" lon="6.73383">
        <ele>1707.5248951964</ele>
        <time>2021-07-10T07:38:09Z</time>
      </trkpt>
      <trkpt lat="44.12698" lon="6.73383">
        <ele>1707.5249310283</ele>
        <time>2021-07-10T07:38:12Z</time>
      </trkpt>
      <trkpt lat="44.12697" lon="6.73382">
        <ele>1707.5249964356</ele>
        <time>2021-07-10T07:38:13Z</time>
      </trkpt>
      <trkpt lat="44.12696" lon="6.73382">
        <ele>1707.5250286781</ele>
        <time>2021-07-10T07:38:14Z</time>
      </trkpt>
      <trkpt lat="44.12695" lon="6.7338">
        <ele>1707.5250880639</ele>
        <time>2021-07-10T07:38:16Z</time>
      </trkpt>
      <trkpt lat="44.12695" lon="6.73379">
        <ele>1708.5251153488</ele>
        <time>2021-07-10T07:38:17Z</time>
      </trkpt>
      <trkpt lat="44.12695" lon="6.73378">
        <ele>1708.5251567402</ele>
        <time>2021-07-10T07:38:18Z</time>
      </trkpt>
      <trkpt lat="44.12695" lon="6.73378">
        <ele>1707.5251691952</ele>
        <time>2021-07-10T07:38:21Z</time>
      </trkpt>
      <trkpt lat="44.12694" lon="6.73377">
        <ele>1706.5252161314</ele>
        <time>2021-07-10T07:38:22Z</time>
      </trkpt>
      <trkpt lat="44.12693" lon="6.73377">
        <ele>1707.525232346</ele>
        <time>2021-07-10T07:38:23Z</time>
      </trkpt>
      <trkpt lat="44.12693" lon="6.73376">
        <ele>1709.5252593925</ele>
        <time>2021-07-10T07:38:25Z</time>
      </trkpt>
      <trkpt lat="44.12693" lon="6.73374">
        <ele>1709.5253093629</ele>
        <time>2021-07-10T07:38:27Z</time>
      </trkpt>
      <trkpt lat="44.12693" lon="6.73373">
        <ele>1708.5253299868</ele>
        <time>2021-07-10T07:38:28Z</time>
      </trkpt>
      <trkpt lat="44.12693" lon="6.73372">
        <ele>1708.5253644885</ele>
        <time>2021-07-10T07:38:29Z</time>
      </trkpt>
      <trkpt lat="44.12692" lon="6.7337">
        <ele>1708.5254146949</ele>
        <time>2021-07-10T07:38:31Z</time>
      </trkpt>
      <trkpt lat="44.12692" lon="6.7337">
        <ele>1708.5254237407</ele>
        <time>2021-07-10T07:38:35Z</time>
      </trkpt>
      <trkpt lat="44.12694" lon="6.73368">
        <ele>1707.5253951172</ele>
        <time>2021-07-10T07:38:36Z</time>
      </trkpt>
      <trkpt lat="44.12694" lon="6.73367">
        <ele>1707.5253851397</ele>
        <time>2021-07-10T07:38:37Z</time>
      </trkpt>
      <trkpt lat="44.12695" lon="6.73367">
        <ele>1707.5253948753</ele>
        <time>2021-07-10T07:38:38Z</time>
      </trkpt>
      <trkpt lat="44.12695" lon="6.73366">
        <ele>1707.5253816336</ele>
        <time>2021-07-10T07:38:39Z</time>
      </trkpt>
      <trkpt lat="44.12695" lon="6.73366">
        <ele>1707.5253816336</ele>
        <time>2021-07-10T07:38:41Z</time>
      </trkpt>
      <trkpt lat="44.12698" lon="6.73364">
        <ele>1708.5253257372</ele>
        <time>2021-07-10T07:38:42Z</time>
      </trkpt>
      <trkpt lat="44.12699" lon="6.73364">
        <ele>1708.5252966994</ele>
        <time>2021-07-10T07:38:43Z</time>
      </trkpt>
      <trkpt lat="44.127" lon="6.73362">
        <ele>1707.5252853495</ele>
        <time>2021-07-10T07:38:44Z</time>
      </trkpt>
      <trkpt lat="44.12701" lon="6.73361">
        <ele>1707.5252710525</ele>
        <time>2021-07-10T07:38:45Z</time>
      </trkpt>
      <trkpt lat="44.12703" lon="6.73358">
        <ele>1706.5252575714</ele>
        <time>2021-07-10T07:38:47Z</time>
      </trkpt>
      <trkpt lat="44.12703" lon="6.73357">
        <ele>1706.5252706201</ele>
        <time>2021-07-10T07:38:48Z</time>
      </trkpt>
      <trkpt lat="44.12704" lon="6.73356">
        <ele>1706.52527346</ele>
        <time>2021-07-10T07:38:49Z</time>
      </trkpt>
      <trkpt lat="44.12704" lon="6.73355">
        <ele>1705.5252760668</ele>
        <time>2021-07-10T07:38:50Z</time>
      </trkpt>
      <trkpt lat="44.12705" lon="6.73354">
        <ele>1705.5252677573</ele>
        <time>2021-07-10T07:38:51Z</time>
      </trkpt>
      <trkpt lat="44.12705" lon="6.73354">
        <ele>1704.5252659223</ele>
        <time>2021-07-10T07:38:56Z</time>
      </trkpt>
      <trkpt lat="44.12706" lon="6.73352">
        <ele>1704.5252714233</ele>
        <time>2021-07-10T07:38:57Z</time>
      </trkpt>
      <trkpt lat="44.12706" lon="6.7335">
        <ele>1704.5253092882</ele>
        <time>2021-07-10T07:38:59Z</time>
      </trkpt>
      <trkpt lat="44.12706" lon="6.73349">
        <ele>1705.5253431138</ele>
        <time>2021-07-10T07:39:00Z</time>
      </trkpt>
      <trkpt lat="44.12706" lon="6.73348">
        <ele>1704.5253596058</ele>
        <time>2021-07-10T07:39:02Z</time>
      </trkpt>
      <trkpt lat="44.12707" lon="6.73346">
        <ele>1704.5253630933</ele>
        <time>2021-07-10T07:39:03Z</time>
      </trkpt>
      <trkpt lat="44.12708" lon="6.73346">
        <ele>1705.5253300835</ele>
        <time>2021-07-10T07:39:04Z</time>
      </trkpt>
      <trkpt lat="44.12708" lon="6.73345">
        <ele>1705.5253297804</ele>
        <time>2021-07-10T07:39:05Z</time>
      </trkpt>
      <trkpt lat="44.12708" lon="6.73344">
        <ele>1704.5253461768</ele>
        <time>2021-07-10T07:39:06Z</time>
      </trkpt>
      <trkpt lat="44.12707" lon="6.73344">
        <ele>1705.5253934954</ele>
        <time>2021-07-10T07:39:08Z</time>
      </trkpt>
      <trkpt lat="44.12706" lon="6.73344">
        <ele>1705.5254154458</ele>
        <time>2021-07-10T07:39:10Z</time>
      </trkpt>
      <trkpt lat="44.12706" lon="6.73344">
        <ele>1707.5254420429</ele>
        <time>2021-07-10T07:39:12Z</time>
      </trkpt>
      <trkpt lat="44.12705" lon="6.73344">
        <ele>1708.5254782855</ele>
        <time>2021-07-10T07:39:14Z</time>
      </trkpt>
      <trkpt lat="44.12704" lon="6.73344">
        <ele>1709.5255171476</ele>
        <time>2021-07-10T07:39:15Z</time>
      </trkpt>
      <trkpt lat="44.12704" lon="6.73344">
        <ele>1709.5255171476</ele>
        <time>2021-07-10T07:39:16Z</time>
      </trkpt>
      <trkpt lat="44.12702" lon="6.73344">
        <ele>1711.5255633853</ele>
        <time>2021-07-10T07:39:18Z</time>
      </trkpt>
      <trkpt lat="44.12702" lon="6.73344">
        <ele>1711.5255943189</ele>
        <time>2021-07-10T07:39:19Z</time>
      </trkpt>
      <trkpt lat="44.12701" lon="6.73344">
        <ele>1712.5256207773</ele>
        <time>2021-07-10T07:39:20Z</time>
      </trkpt>
      <trkpt lat="44.127" lon="6.73344">
        <ele>1713.5256417662</ele>
        <time>2021-07-10T07:39:21Z</time>
      </trkpt>
      <trkpt lat="44.127" lon="6.73343">
        <ele>1713.5256748292</ele>
        <time>2021-07-10T07:39:22Z</time>
      </trkpt>
      <trkpt lat="44.12699" lon="6.73342">
        <ele>1714.5257175492</ele>
        <time>2021-07-10T07:39:23Z</time>
      </trkpt>
      <trkpt lat="44.12698" lon="6.73343">
        <ele>1714.5257418713</ele>
        <time>2021-07-10T07:39:24Z</time>
      </trkpt>
      <trkpt lat="44.12697" lon="6.73343">
        <ele>1715.5257694263</ele>
        <time>2021-07-10T07:39:25Z</time>
      </trkpt>
      <trkpt lat="44.12697" lon="6.73343">
        <ele>1716.5257935716</ele>
        <time>2021-07-10T07:39:26Z</time>
      </trkpt>
      <trkpt lat="44.12696" lon="6.73343">
        <ele>1716.525819133</ele>
        <time>2021-07-10T07:39:28Z</time>
      </trkpt>
      <trkpt lat="44.12695" lon="6.73342">
        <ele>1717.5258645063</ele>
        <time>2021-07-10T07:39:29Z</time>
      </trkpt>
      <trkpt lat="44.12695" lon="6.73342">
        <ele>1718.5258839865</ele>
        <time>2021-07-10T07:39:30Z</time>
      </trkpt>
      <trkpt lat="44.12695" lon="6.73342">
        <ele>1720.5258880011</ele>
        <time>2021-07-10T07:39:32Z</time>
      </trkpt>
      <trkpt lat="44.12693" lon="6.73342">
        <ele>1721.5259354271</ele>
        <time>2021-07-10T07:39:34Z</time>
      </trkpt>
      <trkpt lat="44.12693" lon="6.73342">
        <ele>1722.5259646967</ele>
        <time>2021-07-10T07:39:35Z</time>
      </trkpt>
      <trkpt lat="44.12692" lon="6.73342">
        <ele>1722.5260087041</ele>
        <time>2021-07-10T07:39:36Z</time>
      </trkpt>
      <trkpt lat="44.12691" lon="6.73342">
        <ele>1722.5260309647</ele>
        <time>2021-07-10T07:39:37Z</time>
      </trkpt>
      <trkpt lat="44.12691" lon="6.73342">
        <ele>1723.5260465527</ele>
        <time>2021-07-10T07:39:38Z</time>
      </trkpt>
      <trkpt lat="44.1269" lon="6.73342">
        <ele>1724.5260680071</ele>
        <time>2021-07-10T07:39:39Z</time>
      </trkpt>
      <trkpt lat="44.12689" lon="6.73343">
        <ele>1724.5260884832</ele>
        <time>2021-07-10T07:39:40Z</time>
      </trkpt>
      <trkpt lat="44.12689" lon="6.73343">
        <ele>1724.5260858737</ele>
        <time>2021-07-10T07:39:41Z</time>
      </trkpt>
      <trkpt lat="44.12688" lon="6.73343">
        <ele>1724.5261114555</ele>
        <time>2021-07-10T07:39:42Z</time>
      </trkpt>
      <trkpt lat="44.12688" lon="6.73344">
        <ele>1725.5261072485</ele>
        <time>2021-07-10T07:39:43Z</time>
      </trkpt>
      <trkpt lat="44.12687" lon="6.73344">
        <ele>1726.5261349414</ele>
        <time>2021-07-10T07:39:44Z</time>
      </trkpt>
      <trkpt lat="44.12687" lon="6.73345">
        <ele>1726.5261436531</ele>
        <time>2021-07-10T07:39:45Z</time>
      </trkpt>
      <trkpt lat="44.12685" lon="6.73344">
        <ele>1726.5262114924</ele>
        <time>2021-07-10T07:39:47Z</time>
      </trkpt>
      <trkpt lat="44.12684" lon="6.73345">
        <ele>1726.5262347575</ele>
        <time>2021-07-10T07:39:49Z</time>
      </trkpt>
      <trkpt lat="44.12683" lon="6.73345">
        <ele>1727.5262695223</ele>
        <time>2021-07-10T07:39:50Z</time>
      </trkpt>
      <trkpt lat="44.12682" lon="6.73345">
        <ele>1727.5262981625</ele>
        <time>2021-07-10T07:39:51Z</time>
      </trkpt>
      <trkpt lat="44.12682" lon="6.73344">
        <ele>1727.5263321937</ele>
        <time>2021-07-10T07:39:52Z</time>
      </trkpt>
      <trkpt lat="44.12681" lon="6.73342">
        <ele>1726.5263845626</ele>
        <time>2021-07-10T07:39:54Z</time>
      </trkpt>
      <trkpt lat="44.12681" lon="6.73342">
        <ele>1726.5263845626</ele>
        <time>2021-07-10T07:39:55Z</time>
      </trkpt>
      <trkpt lat="44.1268" lon="6.73339">
        <ele>1726.526502393</ele>
        <time>2021-07-10T07:39:56Z</time>
      </trkpt>
      <trkpt lat="44.12679" lon="6.73339">
        <ele>1725.5265258049</ele>
        <time>2021-07-10T07:39:57Z</time>
      </trkpt>
      <trkpt lat="44.12679" lon="6.73339">
        <ele>1725.5265544308</ele>
        <time>2021-07-10T07:39:58Z</time>
      </trkpt>
      <trkpt lat="44.12678" lon="6.73339">
        <ele>1725.5265847144</ele>
        <time>2021-07-10T07:39:59Z</time>
      </trkpt>
      <trkpt lat="44.12677" lon="6.73338">
        <ele>1725.5266173331</ele>
        <time>2021-07-10T07:40:00Z</time>
      </trkpt>
      <trkpt lat="44.12676" lon="6.73337">
        <ele>1725.5266849524</ele>
        <time>2021-07-10T07:40:02Z</time>
      </trkpt>
      <trkpt lat="44.12675" lon="6.73337">
        <ele>1725.5267095028</ele>
        <time>2021-07-10T07:40:03Z</time>
      </trkpt>
      <trkpt lat="44.12675" lon="6.73337">
        <ele>1725.5267286428</ele>
        <time>2021-07-10T07:40:04Z</time>
      </trkpt>
      <trkpt lat="44.12675" lon="6.73337">
        <ele>1726.5267397076</ele>
        <time>2021-07-10T07:40:05Z</time>
      </trkpt>
      <trkpt lat="44.12674" lon="6.73337">
        <ele>1726.5267830108</ele>
        <time>2021-07-10T07:40:06Z</time>
      </trkpt>
      <trkpt lat="44.12672" lon="6.73335">
        <ele>1726.5268744982</ele>
        <time>2021-07-10T07:40:08Z</time>
      </trkpt>
      <trkpt lat="44.12671" lon="6.73335">
        <ele>1726.5269020834</ele>
        <time>2021-07-10T07:40:10Z</time>
      </trkpt>
      <trkpt lat="44.12671" lon="6.73335">
        <ele>1727.5269298467</ele>
        <time>2021-07-10T07:40:12Z</time>
      </trkpt>
      <trkpt lat="44.1267" lon="6.73335">
        <ele>1727.5269534169</ele>
        <time>2021-07-10T07:40:13Z</time>
      </trkpt>
      <trkpt lat="44.12669" lon="6.73335">
        <ele>1727.5269872744</ele>
        <time>2021-07-10T07:40:14Z</time>
      </trkpt>
      <trkpt lat="44.12669" lon="6.73334">
        <ele>1727.527016249</ele>
        <time>2021-07-10T07:40:15Z</time>
      </trkpt>
      <trkpt lat="44.12668" lon="6.73335">
        <ele>1726.5270306211</ele>
        <time>2021-07-10T07:40:16Z</time>
      </trkpt>
      <trkpt lat="44.12667" lon="6.73335">
        <ele>1726.5270663152</ele>
        <time>2021-07-10T07:40:17Z</time>
      </trkpt>
      <trkpt lat="44.12665" lon="6.73336">
        <ele>1726.5271434896</ele>
        <time>2021-07-10T07:40:19Z</time>
      </trkpt>
      <trkpt lat="44.12664" lon="6.73336">
        <ele>1727.5271746667</ele>
        <time>2021-07-10T07:40:20Z</time>
      </trkpt>
      <trkpt lat="44.12663" lon="6.73336">
        <ele>1728.5271999957</ele>
        <time>2021-07-10T07:40:21Z</time>
      </trkpt>
      <trkpt lat="44.12661" lon="6.73337">
        <ele>1729.5272448954</ele>
        <time>2021-07-10T07:40:23Z</time>
      </trkpt>
      <trkpt lat="44.12661" lon="6.73337">
        <ele>1729.5272723899</ele>
        <time>2021-07-10T07:40:24Z</time>
      </trkpt>
      <trkpt lat="44.1266" lon="6.73337">
        <ele>1729.5273118238</ele>
        <time>2021-07-10T07:40:25Z</time>
      </trkpt>
      <trkpt lat="44.12658" lon="6.73336">
        <ele>1729.5273633127</ele>
        <time>2021-07-10T07:40:26Z</time>
      </trkpt>
      <trkpt lat="44.12657" lon="6.73337">
        <ele>1729.5273985504</ele>
        <time>2021-07-10T07:40:27Z</time>
      </trkpt>
      <trkpt lat="44.12656" lon="6.73337">
        <ele>1729.5274213947</ele>
        <time>2021-07-10T07:40:28Z</time>
      </trkpt>
      <trkpt lat="44.12656" lon="6.73337">
        <ele>1729.5274350595</ele>
        <time>2021-07-10T07:40:29Z</time>
      </trkpt>
      <trkpt lat="44.12656" lon="6.73337">
        <ele>1729.5274622181</ele>
        <time>2021-07-10T07:40:33Z</time>
      </trkpt>
      <trkpt lat="44.12655" lon="6.73336">
        <ele>1728.5275066972</ele>
        <time>2021-07-10T07:40:34Z</time>
      </trkpt>
      <trkpt lat="44.12654" lon="6.73336">
        <ele>1729.5275395668</ele>
        <time>2021-07-10T07:40:36Z</time>
      </trkpt>
      <trkpt lat="44.12653" lon="6.73336">
        <ele>1729.5275620357</ele>
        <time>2021-07-10T07:40:39Z</time>
      </trkpt>
      <trkpt lat="44.12652" lon="6.73336">
        <ele>1730.5276082812</ele>
        <time>2021-07-10T07:40:40Z</time>
      </trkpt>
      <trkpt lat="44.12651" lon="6.73336">
        <ele>1730.5276382233</ele>
        <time>2021-07-10T07:40:41Z</time>
      </trkpt>
      <trkpt lat="44.12651" lon="6.73336">
        <ele>1730.527667358</ele>
        <time>2021-07-10T07:40:45Z</time>
      </trkpt>
      <trkpt lat="44.12648" lon="6.73335">
        <ele>1732.5277678692</ele>
        <time>2021-07-10T07:40:46Z</time>
      </trkpt>
      <trkpt lat="44.12647" lon="6.73334">
        <ele>1733.5278206612</ele>
        <time>2021-07-10T07:40:48Z</time>
      </trkpt>
      <trkpt lat="44.12647" lon="6.73334">
        <ele>1733.5278535177</ele>
        <time>2021-07-10T07:40:49Z</time>
      </trkpt>
      <trkpt lat="44.12646" lon="6.73334">
        <ele>1734.5278818885</ele>
        <time>2021-07-10T07:40:50Z</time>
      </trkpt>
      <trkpt lat="44.12645" lon="6.73334">
        <ele>1733.5279062974</ele>
        <time>2021-07-10T07:40:51Z</time>
      </trkpt>
      <trkpt lat="44.12643" lon="6.73335">
        <ele>1734.5279673427</ele>
        <time>2021-07-10T07:40:53Z</time>
      </trkpt>
      <trkpt lat="44.12642" lon="6.73335">
        <ele>1734.5279993276</ele>
        <time>2021-07-10T07:40:54Z</time>
      </trkpt>
      <trkpt lat="44.12641" lon="6.73335">
        <ele>1734.5280237232</ele>
        <time>2021-07-10T07:40:55Z</time>
      </trkpt>
      <trkpt lat="44.12639" lon="6.73336">
        <ele>1735.5280861824</ele>
        <time>2021-07-10T07:40:57Z</time>
      </trkpt>
      <trkpt lat="44.12637" lon="6.73336">
        <ele>1735.5281543949</ele>
        <time>2021-07-10T07:40:59Z</time>
      </trkpt>
      <trkpt lat="44.12636" lon="6.73337">
        <ele>1736.5281822652</ele>
        <time>2021-07-10T07:41:00Z</time>
      </trkpt>
      <trkpt lat="44.12635" lon="6.73337">
        <ele>1736.5282083227</ele>
        <time>2021-07-10T07:41:01Z</time>
      </trkpt>
      <trkpt lat="44.12635" lon="6.73337">
        <ele>1737.5282424745</ele>
        <time>2021-07-10T07:41:03Z</time>
      </trkpt>
      <trkpt lat="44.12634" lon="6.73337">
        <ele>1737.5282646893</ele>
        <time>2021-07-10T07:41:04Z</time>
      </trkpt>
      <trkpt lat="44.12633" lon="6.73338">
        <ele>1737.5282868345</ele>
        <time>2021-07-10T07:41:05Z</time>
      </trkpt>
      <trkpt lat="44.12632" lon="6.73338">
        <ele>1737.5283074468</ele>
        <time>2021-07-10T07:41:06Z</time>
      </trkpt>
      <trkpt lat="44.12631" lon="6.73338">
        <ele>1738.5283405315</ele>
        <time>2021-07-10T07:41:07Z</time>
      </trkpt>
      <trkpt lat="44.12629" lon="6.73338">
        <ele>1738.5284391719</ele>
        <time>2021-07-10T07:41:09Z</time>
      </trkpt>
      <trkpt lat="44.12627" lon="6.73338">
        <ele>1738.5284799507</ele>
        <time>2021-07-10T07:41:10Z</time>
      </trkpt>
      <trkpt lat="44.12627" lon="6.73339">
        <ele>1739.5284898789</ele>
        <time>2021-07-10T07:41:11Z</time>
      </trkpt>
      <trkpt lat="44.12626" lon="6.73339">
        <ele>1740.5285052281</ele>
        <time>2021-07-10T07:41:12Z</time>
      </trkpt>
      <trkpt lat="44.12626" lon="6.73339">
        <ele>1740.5285259994</ele>
        <time>2021-07-10T07:41:13Z</time>
      </trkpt>
      <trkpt lat="44.12625" lon="6.7334">
        <ele>1740.5285369273</ele>
        <time>2021-07-10T07:41:14Z</time>
      </trkpt>
      <trkpt lat="44.12624" lon="6.7334">
        <ele>1740.5285785737</ele>
        <time>2021-07-10T07:41:15Z</time>
      </trkpt>
      <trkpt lat="44.12622" lon="6.7334">
        <ele>1741.5286459351</ele>
        <time>2021-07-10T07:41:17Z</time>
      </trkpt>
      <trkpt lat="44.12621" lon="6.7334">
        <ele>1742.5286717682</ele>
        <time>2021-07-10T07:41:18Z</time>
      </trkpt>
      <trkpt lat="44.1262" lon="6.7334">
        <ele>1742.5287163213</ele>
        <time>2021-07-10T07:41:19Z</time>
      </trkpt>
      <trkpt lat="44.12619" lon="6.7334">
        <ele>1742.5287460431</ele>
        <time>2021-07-10T07:41:20Z</time>
      </trkpt>
      <trkpt lat="44.12619" lon="6.7334">
        <ele>1742.5287673587</ele>
        <time>2021-07-10T07:41:21Z</time>
      </trkpt>
      <trkpt lat="44.12618" lon="6.7334">
        <ele>1743.528811341</ele>
        <time>2021-07-10T07:41:23Z</time>
      </trkpt>
      <trkpt lat="44.12617" lon="6.7334">
        <ele>1744.5288396859</ele>
        <time>2021-07-10T07:41:24Z</time>
      </trkpt>
      <trkpt lat="44.12617" lon="6.73339">
        <ele>1744.5288594483</ele>
        <time>2021-07-10T07:41:25Z</time>
      </trkpt>
      <trkpt lat="44.12616" lon="6.73338">
        <ele>1744.5288970642</ele>
        <time>2021-07-10T07:41:27Z</time>
      </trkpt>
      <trkpt lat="44.12616" lon="6.73339">
        <ele>1744.528909165</ele>
        <time>2021-07-10T07:41:28Z</time>
      </trkpt>
      <trkpt lat="44.12615" lon="6.73339">
        <ele>1744.5289374658</ele>
        <time>2021-07-10T07:41:29Z</time>
      </trkpt>
      <trkpt lat="44.12614" lon="6.73339">
        <ele>1744.5289585759</ele>
        <time>2021-07-10T07:41:30Z</time>
      </trkpt>
      <trkpt lat="44.12613" lon="6.73339">
        <ele>1744.5289960087</ele>
        <time>2021-07-10T07:41:31Z</time>
      </trkpt>
      <trkpt lat="44.12613" lon="6.73339">
        <ele>1744.5289960087</ele>
        <time>2021-07-10T07:41:33Z</time>
      </trkpt>
      <trkpt lat="44.12612" lon="6.73338">
        <ele>1744.5290566885</ele>
        <time>2021-07-10T07:41:34Z</time>
      </trkpt>
      <trkpt lat="44.12612" lon="6.73338">
        <ele>1744.5290792076</ele>
        <time>2021-07-10T07:41:35Z</time>
      </trkpt>
      <trkpt lat="44.12611" lon="6.73336">
        <ele>1744.5291447986</ele>
        <time>2021-07-10T07:41:37Z</time>
      </trkpt>
      <trkpt lat="44.12609" lon="6.73336">
        <ele>1745.5292117629</ele>
        <time>2021-07-10T07:41:39Z</time>
      </trkpt>
      <trkpt lat="44.12608" lon="6.73335">
        <ele>1744.5292637556</ele>
        <time>2021-07-10T07:41:40Z</time>
      </trkpt>
      <trkpt lat="44.12608" lon="6.73334">
        <ele>1744.5293127602</ele>
        <time>2021-07-10T07:41:41Z</time>
      </trkpt>
      <trkpt lat="44.12607" lon="6.73333">
        <ele>1744.5293593374</ele>
        <time>2021-07-10T07:41:42Z</time>
      </trkpt>
      <trkpt lat="44.12606" lon="6.73333">
        <ele>1744.5293858852</ele>
        <time>2021-07-10T07:41:43Z</time>
      </trkpt>
      <trkpt lat="44.12605" lon="6.73333">
        <ele>1744.5294066009</ele>
        <time>2021-07-10T07:41:44Z</time>
      </trkpt>
      <trkpt lat="44.12605" lon="6.73333">
        <ele>1744.5294307334</ele>
        <time>2021-07-10T07:41:45Z</time>
      </trkpt>
      <trkpt lat="44.12604" lon="6.73334">
        <ele>1744.5294414186</ele>
        <time>2021-07-10T07:41:48Z</time>
      </trkpt>
      <trkpt lat="44.12602" lon="6.73333">
        <ele>1744.5295361327</ele>
        <time>2021-07-10T07:41:49Z</time>
      </trkpt>
      <trkpt lat="44.12601" lon="6.73333">
        <ele>1744.5295699333</ele>
        <time>2021-07-10T07:41:50Z</time>
      </trkpt>
      <trkpt lat="44.12599" lon="6.73333">
        <ele>1744.5296427859</ele>
        <time>2021-07-10T07:41:52Z</time>
      </trkpt>
      <trkpt lat="44.12598" lon="6.73333">
        <ele>1745.5296729709</ele>
        <time>2021-07-10T07:41:53Z</time>
      </trkpt>
      <trkpt lat="44.12598" lon="6.73334">
        <ele>1745.5296791384</ele>
        <time>2021-07-10T07:41:54Z</time>
      </trkpt>
      <trkpt lat="44.12597" lon="6.73334">
        <ele>1746.5296871057</ele>
        <time>2021-07-10T07:42:01Z</time>
      </trkpt>
      <trkpt lat="44.12596" lon="6.73332">
        <ele>1748.5297811262</ele>
        <time>2021-07-10T07:42:02Z</time>
      </trkpt>
      <trkpt lat="44.12595" lon="6.73331">
        <ele>1749.529819691</ele>
        <time>2021-07-10T07:42:03Z</time>
      </trkpt>
      <trkpt lat="44.12595" lon="6.7333">
        <ele>1749.5298402941</ele>
        <time>2021-07-10T07:42:04Z</time>
      </trkpt>
      <trkpt lat="44.12595" lon="6.7333">
        <ele>1749.5298618116</ele>
        <time>2021-07-10T07:42:07Z</time>
      </trkpt>
      <trkpt lat="44.12594" lon="6.73328">
        <ele>1751.5299444864</ele>
        <time>2021-07-10T07:42:08Z</time>
      </trkpt>
      <trkpt lat="44.12593" lon="6.73328">
        <ele>1751.5299705516</ele>
        <time>2021-07-10T07:42:09Z</time>
      </trkpt>
      <trkpt lat="44.12592" lon="6.73328">
        <ele>1751.5300084726</ele>
        <time>2021-07-10T07:42:10Z</time>
      </trkpt>
      <trkpt lat="44.12591" lon="6.73327">
        <ele>1752.5300499903</ele>
        <time>2021-07-10T07:42:11Z</time>
      </trkpt>
      <trkpt lat="44.12591" lon="6.73327">
        <ele>1752.5300718788</ele>
        <time>2021-07-10T07:42:14Z</time>
      </trkpt>
      <trkpt lat="44.12589" lon="6.73327">
        <ele>1754.5301306438</ele>
        <time>2021-07-10T07:42:15Z</time>
      </trkpt>
      <trkpt lat="44.12589" lon="6.73327">
        <ele>1754.5301330522</ele>
        <time>2021-07-10T07:42:16Z</time>
      </trkpt>
      <trkpt lat="44.12588" lon="6.73326">
        <ele>1754.5301943795</ele>
        <time>2021-07-10T07:42:18Z</time>
      </trkpt>
      <trkpt lat="44.12588" lon="6.73326">
        <ele>1754.5301943795</ele>
        <time>2021-07-10T07:42:21Z</time>
      </trkpt>
      <trkpt lat="44.12588" lon="6.73329">
        <ele>1754.5301230189</ele>
        <time>2021-07-10T07:42:22Z</time>
      </trkpt>
      <trkpt lat="44.12588" lon="6.7333">
        <ele>1755.5301132214</ele>
        <time>2021-07-10T07:42:24Z</time>
      </trkpt>
      <trkpt lat="44.12587" lon="6.73331">
        <ele>1755.5301144573</ele>
        <time>2021-07-10T07:42:25Z</time>
      </trkpt>
      <trkpt lat="44.12587" lon="6.73333">
        <ele>1755.5301149347</ele>
        <time>2021-07-10T07:42:26Z</time>
      </trkpt>
      <trkpt lat="44.12586" lon="6.73334">
        <ele>1755.5301276062</ele>
        <time>2021-07-10T07:42:27Z</time>
      </trkpt>
      <trkpt lat="44.12585" lon="6.73334">
        <ele>1755.5301559241</ele>
        <time>2021-07-10T07:42:28Z</time>
      </trkpt>
      <trkpt lat="44.12584" lon="6.73335">
        <ele>1755.5301714218</ele>
        <time>2021-07-10T07:42:29Z</time>
      </trkpt>
      <trkpt lat="44.12584" lon="6.73336">
        <ele>1755.5301626911</ele>
        <time>2021-07-10T07:42:30Z</time>
      </trkpt>
      <trkpt lat="44.12583" lon="6.73336">
        <ele>1754.5301800385</ele>
        <time>2021-07-10T07:42:32Z</time>
      </trkpt>
      <trkpt lat="44.12582" lon="6.73337">
        <ele>1753.5301877471</ele>
        <time>2021-07-10T07:42:33Z</time>
      </trkpt>
      <trkpt lat="44.12582" lon="6.73337">
        <ele>1753.5302183136</ele>
        <time>2021-07-10T07:42:34Z</time>
      </trkpt>
      <trkpt lat="44.12581" lon="6.73338">
        <ele>1753.5302459475</ele>
        <time>2021-07-10T07:42:35Z</time>
      </trkpt>
      <trkpt lat="44.12579" lon="6.7334">
        <ele>1753.5302450711</ele>
        <time>2021-07-10T07:42:37Z</time>
      </trkpt>
      <trkpt lat="44.12578" lon="6.7334">
        <ele>1753.5302949908</ele>
        <time>2021-07-10T07:42:39Z</time>
      </trkpt>
      <trkpt lat="44.12577" lon="6.7334">
        <ele>1753.5303337544</ele>
        <time>2021-07-10T07:42:40Z</time>
      </trkpt>
      <trkpt lat="44.12576" lon="6.7334">
        <ele>1753.5303731351</ele>
        <time>2021-07-10T07:42:41Z</time>
      </trkpt>
      <trkpt lat="44.12575" lon="6.7334">
        <ele>1753.5304165884</ele>
        <time>2021-07-10T07:42:42Z</time>
      </trkpt>
      <trkpt lat="44.12574" lon="6.73339">
        <ele>1753.5304631619</ele>
        <time>2021-07-10T07:42:43Z</time>
      </trkpt>
      <trkpt lat="44.12573" lon="6.73338">
        <ele>1752.5305028343</ele>
        <time>2021-07-10T07:42:44Z</time>
      </trkpt>
      <trkpt lat="44.12572" lon="6.73338">
        <ele>1752.5305569604</ele>
        <time>2021-07-10T07:42:45Z</time>
      </trkpt>
      <trkpt lat="44.12571" lon="6.73338">
        <ele>1752.5305997218</ele>
        <time>2021-07-10T07:42:46Z</time>
      </trkpt>
      <trkpt lat="44.1257" lon="6.73337">
        <ele>1752.5306506074</ele>
        <time>2021-07-10T07:42:48Z</time>
      </trkpt>
      <trkpt lat="44.12569" lon="6.73338">
        <ele>1752.5306604763</ele>
        <time>2021-07-10T07:42:49Z</time>
      </trkpt>
      <trkpt lat="44.12569" lon="6.73338">
        <ele>1752.5306628941</ele>
        <time>2021-07-10T07:42:50Z</time>
      </trkpt>
      <trkpt lat="44.12568" lon="6.73339">
        <ele>1752.5306964441</ele>
        <time>2021-07-10T07:42:51Z</time>
      </trkpt>
      <trkpt lat="44.12567" lon="6.73339">
        <ele>1752.5307283937</ele>
        <time>2021-07-10T07:42:52Z</time>
      </trkpt>
      <trkpt lat="44.12565" lon="6.7334">
        <ele>1752.5307706393</ele>
        <time>2021-07-10T07:42:54Z</time>
      </trkpt>
      <trkpt lat="44.12564" lon="6.7334">
        <ele>1752.5308133687</ele>
        <time>2021-07-10T07:42:55Z</time>
      </trkpt>
      <trkpt lat="44.12563" lon="6.73341">
        <ele>1753.5308330582</ele>
        <time>2021-07-10T07:42:56Z</time>
      </trkpt>
      <trkpt lat="44.12562" lon="6.73342">
        <ele>1753.5308478606</ele>
        <time>2021-07-10T07:42:57Z</time>
      </trkpt>
      <trkpt lat="44.12561" lon="6.73342">
        <ele>1753.5308655534</ele>
        <time>2021-07-10T07:42:58Z</time>
      </trkpt>
      <trkpt lat="44.12561" lon="6.73343">
        <ele>1754.5308833788</ele>
        <time>2021-07-10T07:42:59Z</time>
      </trkpt>
      <trkpt lat="44.1256" lon="6.73343">
        <ele>1754.5308994033</ele>
        <time>2021-07-10T07:43:00Z</time>
      </trkpt>
      <trkpt lat="44.12559" lon="6.73344">
        <ele>1754.5309111227</ele>
        <time>2021-07-10T07:43:01Z</time>
      </trkpt>
      <trkpt lat="44.12559" lon="6.73344">
        <ele>1755.5309398312</ele>
        <time>2021-07-10T07:43:05Z</time>
      </trkpt>
      <trkpt lat="44.12558" lon="6.73344">
        <ele>1756.5309588631</ele>
        <time>2021-07-10T07:43:06Z</time>
      </trkpt>
      <trkpt lat="44.12557" lon="6.73344">
        <ele>1756.5310020027</ele>
        <time>2021-07-10T07:43:07Z</time>
      </trkpt>
      <trkpt lat="44.12556" lon="6.73344">
        <ele>1756.5310376711</ele>
        <time>2021-07-10T07:43:08Z</time>
      </trkpt>
      <trkpt lat="44.12555" lon="6.73344">
        <ele>1756.5310748803</ele>
        <time>2021-07-10T07:43:09Z</time>
      </trkpt>
      <trkpt lat="44.12555" lon="6.73344">
        <ele>1756.5310866675</ele>
        <time>2021-07-10T07:43:10Z</time>
      </trkpt>
      <trkpt lat="44.12553" lon="6.73344">
        <ele>1756.5311255016</ele>
        <time>2021-07-10T07:43:12Z</time>
      </trkpt>
      <trkpt lat="44.12553" lon="6.73345">
        <ele>1756.5311392297</ele>
        <time>2021-07-10T07:43:13Z</time>
      </trkpt>
      <trkpt lat="44.12552" lon="6.73344">
        <ele>1756.5311732125</ele>
        <time>2021-07-10T07:43:14Z</time>
      </trkpt>
      <trkpt lat="44.12551" lon="6.73344">
        <ele>1756.5312126511</ele>
        <time>2021-07-10T07:43:15Z</time>
      </trkpt>
      <trkpt lat="44.1255" lon="6.73345">
        <ele>1756.5312281656</ele>
        <time>2021-07-10T07:43:17Z</time>
      </trkpt>
      <trkpt lat="44.1255" lon="6.73345">
        <ele>1756.5312385326</ele>
        <time>2021-07-10T07:43:23Z</time>
      </trkpt>
      <trkpt lat="44.12548" lon="6.73345">
        <ele>1756.5312992467</ele>
        <time>2021-07-10T07:43:24Z</time>
      </trkpt>
      <trkpt lat="44.12548" lon="6.73345">
        <ele>1756.5313328635</ele>
        <time>2021-07-10T07:43:25Z</time>
      </trkpt>
      <trkpt lat="44.12546" lon="6.73345">
        <ele>1756.5313889357</ele>
        <time>2021-07-10T07:43:27Z</time>
      </trkpt>
      <trkpt lat="44.12545" lon="6.73345">
        <ele>1757.5314169167</ele>
        <time>2021-07-10T07:43:28Z</time>
      </trkpt>
      <trkpt lat="44.12544" lon="6.73345">
        <ele>1758.5314522269</ele>
        <time>2021-07-10T07:43:29Z</time>
      </trkpt>
      <trkpt lat="44.12544" lon="6.73345">
        <ele>1758.5314822516</ele>
        <time>2021-07-10T07:43:30Z</time>
      </trkpt>
      <trkpt lat="44.12543" lon="6.73345">
        <ele>1758.5315066296</ele>
        <time>2021-07-10T07:43:31Z</time>
      </trkpt>
      <trkpt lat="44.12542" lon="6.73345">
        <ele>1759.531532525</ele>
        <time>2021-07-10T07:43:32Z</time>
      </trkpt>
      <trkpt lat="44.12541" lon="6.73345">
        <ele>1759.5315705208</ele>
        <time>2021-07-10T07:43:33Z</time>
      </trkpt>
      <trkpt lat="44.1254" lon="6.73344">
        <ele>1759.5316241651</ele>
        <time>2021-07-10T07:43:34Z</time>
      </trkpt>
      <trkpt lat="44.1254" lon="6.73344">
        <ele>1759.5316427472</ele>
        <time>2021-07-10T07:43:35Z</time>
      </trkpt>
      <trkpt lat="44.12539" lon="6.73344">
        <ele>1759.5316662387</ele>
        <time>2021-07-10T07:43:36Z</time>
      </trkpt>
      <trkpt lat="44.12538" lon="6.73344">
        <ele>1759.5316813916</ele>
        <time>2021-07-10T07:43:37Z</time>
      </trkpt>
      <trkpt lat="44.12537" lon="6.73345">
        <ele>1759.5316999259</ele>
        <time>2021-07-10T07:43:38Z</time>
      </trkpt>
      <trkpt lat="44.12536" lon="6.73345">
        <ele>1758.5317410497</ele>
        <time>2021-07-10T07:43:39Z</time>
      </trkpt>
      <trkpt lat="44.12536" lon="6.73345">
        <ele>1758.5317612383</ele>
        <time>2021-07-10T07:43:40Z</time>
      </trkpt>
      <trkpt lat="44.12535" lon="6.73345">
        <ele>1758.5317902218</ele>
        <time>2021-07-10T07:43:41Z</time>
      </trkpt>
      <trkpt lat="44.12534" lon="6.73345">
        <ele>1757.5318106879</ele>
        <time>2021-07-10T07:43:42Z</time>
      </trkpt>
      <trkpt lat="44.12534" lon="6.73345">
        <ele>1757.5318360579</ele>
        <time>2021-07-10T07:43:43Z</time>
      </trkpt>
      <trkpt lat="44.12533" lon="6.73344">
        <ele>1756.5318942988</ele>
        <time>2021-07-10T07:43:44Z</time>
      </trkpt>
      <trkpt lat="44.12532" lon="6.73343">
        <ele>1756.5319362445</ele>
        <time>2021-07-10T07:43:45Z</time>
      </trkpt>
      <trkpt lat="44.12531" lon="6.73343">
        <ele>1757.5319813603</ele>
        <time>2021-07-10T07:43:46Z</time>
      </trkpt>
      <trkpt lat="44.1253" lon="6.73343">
        <ele>1758.5319995493</ele>
        <time>2021-07-10T07:43:47Z</time>
      </trkpt>
      <trkpt lat="44.1253" lon="6.73344">
        <ele>1758.5320114363</ele>
        <time>2021-07-10T07:43:48Z</time>
      </trkpt>
      <trkpt lat="44.12529" lon="6.73344">
        <ele>1758.5320370825</ele>
        <time>2021-07-10T07:43:49Z</time>
      </trkpt>
      <trkpt lat="44.12528" lon="6.73343">
        <ele>1758.5320787602</ele>
        <time>2021-07-10T07:43:50Z</time>
      </trkpt>
      <trkpt lat="44.12527" lon="6.73343">
        <ele>1759.5321269815</ele>
        <time>2021-07-10T07:43:51Z</time>
      </trkpt>
      <trkpt lat="44.12526" lon="6.73342">
        <ele>1759.5321886076</ele>
        <time>2021-07-10T07:43:52Z</time>
      </trkpt>
      <trkpt lat="44.12525" lon="6.73341">
        <ele>1759.5322529668</ele>
        <time>2021-07-10T07:43:53Z</time>
      </trkpt>
      <trkpt lat="44.12524" lon="6.73342">
        <ele>1759.5322844189</ele>
        <time>2021-07-10T07:43:54Z</time>
      </trkpt>
      <trkpt lat="44.12523" lon="6.73342">
        <ele>1759.5323075923</ele>
        <time>2021-07-10T07:43:55Z</time>
      </trkpt>
      <trkpt lat="44.12522" lon="6.73342">
        <ele>1760.5323378398</ele>
        <time>2021-07-10T07:43:56Z</time>
      </trkpt>
      <trkpt lat="44.12521" lon="6.73342">
        <ele>1760.5323798271</ele>
        <time>2021-07-10T07:43:57Z</time>
      </trkpt>
      <trkpt lat="44.1252" lon="6.73342">
        <ele>1760.5324178193</ele>
        <time>2021-07-10T07:43:58Z</time>
      </trkpt>
      <trkpt lat="44.12519" lon="6.73342">
        <ele>1760.5324553706</ele>
        <time>2021-07-10T07:43:59Z</time>
      </trkpt>
      <trkpt lat="44.12518" lon="6.73342">
        <ele>1760.5324824856</ele>
        <time>2021-07-10T07:44:00Z</time>
      </trkpt>
      <trkpt lat="44.12518" lon="6.73342">
        <ele>1760.5325118759</ele>
        <time>2021-07-10T07:44:01Z</time>
      </trkpt>
      <trkpt lat="44.12517" lon="6.73341">
        <ele>1760.5325456161</ele>
        <time>2021-07-10T07:44:04Z</time>
      </trkpt>
      <trkpt lat="44.12515" lon="6.7334">
        <ele>1761.5326275106</ele>
        <time>2021-07-10T07:44:05Z</time>
      </trkpt>
      <trkpt lat="44.12515" lon="6.7334">
        <ele>1761.5326499162</ele>
        <time>2021-07-10T07:44:06Z</time>
      </trkpt>
      <trkpt lat="44.12514" lon="6.7334">
        <ele>1761.532678976</ele>
        <time>2021-07-10T07:44:07Z</time>
      </trkpt>
      <trkpt lat="44.12513" lon="6.7334">
        <ele>1761.5327052692</ele>
        <time>2021-07-10T07:44:08Z</time>
      </trkpt>
      <trkpt lat="44.12513" lon="6.73339">
        <ele>1761.5327219828</ele>
        <time>2021-07-10T07:44:09Z</time>
      </trkpt>
      <trkpt lat="44.12513" lon="6.73339">
        <ele>1761.532746427</ele>
        <time>2021-07-10T07:44:12Z</time>
      </trkpt>
      <trkpt lat="44.12511" lon="6.73338">
        <ele>1761.5328151732</ele>
        <time>2021-07-10T07:44:13Z</time>
      </trkpt>
      <trkpt lat="44.12511" lon="6.73338">
        <ele>1761.532832583</ele>
        <time>2021-07-10T07:44:15Z</time>
      </trkpt>
      <trkpt lat="44.1251" lon="6.73338">
        <ele>1761.5328667993</ele>
        <time>2021-07-10T07:44:29Z</time>
      </trkpt>
      <trkpt lat="44.1251" lon="6.73339">
        <ele>1763.5328565203</ele>
        <time>2021-07-10T07:44:30Z</time>
      </trkpt>
      <trkpt lat="44.12509" lon="6.7334">
        <ele>1765.5328717842</ele>
        <time>2021-07-10T07:44:32Z</time>
      </trkpt>
      <trkpt lat="44.12508" lon="6.7334">
        <ele>1765.5329049398</ele>
        <time>2021-07-10T07:44:33Z</time>
      </trkpt>
      <trkpt lat="44.12507" lon="6.7334">
        <ele>1766.5329437981</ele>
        <time>2021-07-10T07:44:34Z</time>
      </trkpt>
      <trkpt lat="44.12506" lon="6.73339">
        <ele>1766.5330047928</ele>
        <time>2021-07-10T07:44:35Z</time>
      </trkpt>
      <trkpt lat="44.12505" lon="6.73338">
        <ele>1765.5330732208</ele>
        <time>2021-07-10T07:44:36Z</time>
      </trkpt>
      <trkpt lat="44.12503" lon="6.73336">
        <ele>1765.5331753327</ele>
        <time>2021-07-10T07:44:36Z</time>
      </trkpt>
      <trkpt lat="44.12503" lon="6.73336">
        <ele>1765.5331753327</ele>
        <time>2021-07-10T07:44:41Z</time>
      </trkpt>
      <trkpt lat="44.12501" lon="6.73335">
        <ele>1767.5332682362</ele>
        <time>2021-07-10T07:44:42Z</time>
      </trkpt>
      <trkpt lat="44.125" lon="6.73336">
        <ele>1766.5332943233</ele>
        <time>2021-07-10T07:44:43Z</time>
      </trkpt>
      <trkpt lat="44.12499" lon="6.73335">
        <ele>1766.533339868</ele>
        <time>2021-07-10T07:44:44Z</time>
      </trkpt>
      <trkpt lat="44.12498" lon="6.73335">
        <ele>1765.5333778133</ele>
        <time>2021-07-10T07:44:45Z</time>
      </trkpt>
      <trkpt lat="44.12497" lon="6.73335">
        <ele>1765.5334182832</ele>
        <time>2021-07-10T07:44:46Z</time>
      </trkpt>
      <trkpt lat="44.12496" lon="6.73335">
        <ele>1765.53345797</ele>
        <time>2021-07-10T07:44:47Z</time>
      </trkpt>
      <trkpt lat="44.12495" lon="6.73335">
        <ele>1765.5335065174</ele>
        <time>2021-07-10T07:44:48Z</time>
      </trkpt>
      <trkpt lat="44.12494" lon="6.73335">
        <ele>1765.5335298906</ele>
        <time>2021-07-10T07:44:49Z</time>
      </trkpt>
      <trkpt lat="44.12493" lon="6.73335">
        <ele>1765.5335453619</ele>
        <time>2021-07-10T07:44:50Z</time>
      </trkpt>
      <trkpt lat="44.12492" lon="6.73335">
        <ele>1765.5335860783</ele>
        <time>2021-07-10T07:44:51Z</time>
      </trkpt>
      <trkpt lat="44.12491" lon="6.73335">
        <ele>1766.5336279653</ele>
        <time>2021-07-10T07:44:52Z</time>
      </trkpt>
      <trkpt lat="44.12491" lon="6.73335">
        <ele>1766.5336388155</ele>
        <time>2021-07-10T07:44:53Z</time>
      </trkpt>
      <trkpt lat="44.1249" lon="6.73335">
        <ele>1766.5336799665</ele>
        <time>2021-07-10T07:44:54Z</time>
      </trkpt>
      <trkpt lat="44.12489" lon="6.73335">
        <ele>1766.5337175467</ele>
        <time>2021-07-10T07:44:55Z</time>
      </trkpt>
      <trkpt lat="44.12488" lon="6.73335">
        <ele>1766.5337456984</ele>
        <time>2021-07-10T07:44:56Z</time>
      </trkpt>
      <trkpt lat="44.12487" lon="6.73335">
        <ele>1766.5337854506</ele>
        <time>2021-07-10T07:44:57Z</time>
      </trkpt>
      <trkpt lat="44.12486" lon="6.73335">
        <ele>1767.5338237723</ele>
        <time>2021-07-10T07:44:58Z</time>
      </trkpt>
      <trkpt lat="44.12485" lon="6.73334">
        <ele>1767.5338713329</ele>
        <time>2021-07-10T07:44:59Z</time>
      </trkpt>
      <trkpt lat="44.12485" lon="6.73333">
        <ele>1766.5339131464</ele>
        <time>2021-07-10T07:45:00Z</time>
      </trkpt>
      <trkpt lat="44.12484" lon="6.73333">
        <ele>1766.5339609672</ele>
        <time>2021-07-10T07:45:01Z</time>
      </trkpt>
      <trkpt lat="44.12483" lon="6.73333">
        <ele>1766.5339869957</ele>
        <time>2021-07-10T07:45:02Z</time>
      </trkpt>
      <trkpt lat="44.12481" lon="6.73333">
        <ele>1767.5340260631</ele>
        <time>2021-07-10T07:45:03Z</time>
      </trkpt>
      <trkpt lat="44.1248" lon="6.73334">
        <ele>1767.5340533751</ele>
        <time>2021-07-10T07:45:04Z</time>
      </trkpt>
      <trkpt lat="44.12479" lon="6.73335">
        <ele>1767.5340882762</ele>
        <time>2021-07-10T07:45:05Z</time>
      </trkpt>
      <trkpt lat="44.12478" lon="6.73335">
        <ele>1767.5341057699</ele>
        <time>2021-07-10T07:45:06Z</time>
      </trkpt>
      <trkpt lat="44.12478" lon="6.73335">
        <ele>1767.5341308622</ele>
        <time>2021-07-10T07:45:07Z</time>
      </trkpt>
      <trkpt lat="44.12477" lon="6.73334">
        <ele>1767.5341714922</ele>
        <time>2021-07-10T07:45:08Z</time>
      </trkpt>
      <trkpt lat="44.12476" lon="6.73334">
        <ele>1767.5342089328</ele>
        <time>2021-07-10T07:45:09Z</time>
      </trkpt>
      <trkpt lat="44.12476" lon="6.73334">
        <ele>1767.5342314449</ele>
        <time>2021-07-10T07:45:10Z</time>
      </trkpt>
      <trkpt lat="44.12475" lon="6.73334">
        <ele>1766.5342624843</ele>
        <time>2021-07-10T07:45:11Z</time>
      </trkpt>
      <trkpt lat="44.12474" lon="6.73335">
        <ele>1767.5342705595</ele>
        <time>2021-07-10T07:45:12Z</time>
      </trkpt>
      <trkpt lat="44.12473" lon="6.73335">
        <ele>1766.5342980543</ele>
        <time>2021-07-10T07:45:13Z</time>
      </trkpt>
      <trkpt lat="44.12472" lon="6.73335">
        <ele>1766.5343325158</ele>
        <time>2021-07-10T07:45:14Z</time>
      </trkpt>
      <trkpt lat="44.12472" lon="6.73335">
        <ele>1766.534356235</ele>
        <time>2021-07-10T07:45:15Z</time>
      </trkpt>
      <trkpt lat="44.12471" lon="6.73335">
        <ele>1766.5343852695</ele>
        <time>2021-07-10T07:45:17Z</time>
      </trkpt>
      <trkpt lat="44.1247" lon="6.73335">
        <ele>1767.5343975234</ele>
        <time>2021-07-10T07:45:18Z</time>
      </trkpt>
      <trkpt lat="44.1247" lon="6.73336">
        <ele>1767.5344157342</ele>
        <time>2021-07-10T07:45:19Z</time>
      </trkpt>
      <trkpt lat="44.12469" lon="6.73336">
        <ele>1767.5344264355</ele>
        <time>2021-07-10T07:45:20Z</time>
      </trkpt>
      <trkpt lat="44.12469" lon="6.73336">
        <ele>1767.5344477412</ele>
        <time>2021-07-10T07:45:21Z</time>
      </trkpt>
      <trkpt lat="44.12467" lon="6.73336">
        <ele>1767.5345112579</ele>
        <time>2021-07-10T07:45:23Z</time>
      </trkpt>
      <trkpt lat="44.12466" lon="6.73337">
        <ele>1767.5345226649</ele>
        <time>2021-07-10T07:45:24Z</time>
      </trkpt>
      <trkpt lat="44.12466" lon="6.73337">
        <ele>1767.5345392767</ele>
        <time>2021-07-10T07:45:25Z</time>
      </trkpt>
      <trkpt lat="44.12465" lon="6.73337">
        <ele>1768.5345694431</ele>
        <time>2021-07-10T07:45:26Z</time>
      </trkpt>
      <trkpt lat="44.12464" lon="6.73338">
        <ele>1768.5346047779</ele>
        <time>2021-07-10T07:45:28Z</time>
      </trkpt>
      <trkpt lat="44.12463" lon="6.73338">
        <ele>1768.5346289808</ele>
        <time>2021-07-10T07:45:29Z</time>
      </trkpt>
      <trkpt lat="44.12462" lon="6.73337">
        <ele>1767.534669567</ele>
        <time>2021-07-10T07:45:30Z</time>
      </trkpt>
      <trkpt lat="44.12461" lon="6.73337">
        <ele>1768.5347276297</ele>
        <time>2021-07-10T07:45:32Z</time>
      </trkpt>
      <trkpt lat="44.1246" lon="6.73337">
        <ele>1768.5347526144</ele>
        <time>2021-07-10T07:45:33Z</time>
      </trkpt>
      <trkpt lat="44.12459" lon="6.73337">
        <ele>1768.5347937145</ele>
        <time>2021-07-10T07:45:34Z</time>
      </trkpt>
      <trkpt lat="44.12458" lon="6.73336">
        <ele>1768.5348280929</ele>
        <time>2021-07-10T07:45:35Z</time>
      </trkpt>
      <trkpt lat="44.12456" lon="6.73337">
        <ele>1768.5349074911</ele>
        <time>2021-07-10T07:45:37Z</time>
      </trkpt>
      <trkpt lat="44.12455" lon="6.73337">
        <ele>1767.5349393995</ele>
        <time>2021-07-10T07:45:38Z</time>
      </trkpt>
      <trkpt lat="44.12455" lon="6.73337">
        <ele>1767.5349508463</ele>
        <time>2021-07-10T07:45:39Z</time>
      </trkpt>
      <trkpt lat="44.12454" lon="6.73337">
        <ele>1768.5349769694</ele>
        <time>2021-07-10T07:45:40Z</time>
      </trkpt>
      <trkpt lat="44.12453" lon="6.73338">
        <ele>1768.5350118127</ele>
        <time>2021-07-10T07:45:41Z</time>
      </trkpt>
      <trkpt lat="44.12452" lon="6.73337">
        <ele>1768.5350547656</ele>
        <time>2021-07-10T07:45:42Z</time>
      </trkpt>
      <trkpt lat="44.12451" lon="6.73337">
        <ele>1768.535094422</ele>
        <time>2021-07-10T07:45:43Z</time>
      </trkpt>
      <trkpt lat="44.1245" lon="6.73337">
        <ele>1768.535115276</ele>
        <time>2021-07-10T07:45:44Z</time>
      </trkpt>
      <trkpt lat="44.1245" lon="6.73337">
        <ele>1768.535131664</ele>
        <time>2021-07-10T07:45:45Z</time>
      </trkpt>
      <trkpt lat="44.12449" lon="6.73338">
        <ele>1768.5351574002</ele>
        <time>2021-07-10T07:45:46Z</time>
      </trkpt>
      <trkpt lat="44.12448" lon="6.73338">
        <ele>1768.535183962</ele>
        <time>2021-07-10T07:45:47Z</time>
      </trkpt>
      <trkpt lat="44.12447" lon="6.73338">
        <ele>1768.5352169192</ele>
        <time>2021-07-10T07:45:48Z</time>
      </trkpt>
      <trkpt lat="44.12447" lon="6.73338">
        <ele>1768.5352374199</ele>
        <time>2021-07-10T07:45:49Z</time>
      </trkpt>
      <trkpt lat="44.12446" lon="6.73338">
        <ele>1769.5352532369</ele>
        <time>2021-07-10T07:45:50Z</time>
      </trkpt>
      <trkpt lat="44.12445" lon="6.73338">
        <ele>1770.5352835127</ele>
        <time>2021-07-10T07:45:51Z</time>
      </trkpt>
      <trkpt lat="44.12445" lon="6.73339">
        <ele>1770.5352866657</ele>
        <time>2021-07-10T07:45:52Z</time>
      </trkpt>
      <trkpt lat="44.12444" lon="6.73339">
        <ele>1771.5353132178</ele>
        <time>2021-07-10T07:45:53Z</time>
      </trkpt>
      <trkpt lat="44.12443" lon="6.73339">
        <ele>1771.5353397083</ele>
        <time>2021-07-10T07:45:54Z</time>
      </trkpt>
      <trkpt lat="44.12442" lon="6.73338">
        <ele>1771.5353947888</ele>
        <time>2021-07-10T07:45:55Z</time>
      </trkpt>
      <trkpt lat="44.12442" lon="6.73338">
        <ele>1771.5354165827</ele>
        <time>2021-07-10T07:45:57Z</time>
      </trkpt>
      <trkpt lat="44.1244" lon="6.73336">
        <ele>1771.5355071331</ele>
        <time>2021-07-10T07:45:58Z</time>
      </trkpt>
      <trkpt lat="44.12439" lon="6.73335">
        <ele>1772.5355623513</ele>
        <time>2021-07-10T07:45:59Z</time>
      </trkpt>
      <trkpt lat="44.12438" lon="6.73335">
        <ele>1771.5356177554</ele>
        <time>2021-07-10T07:46:00Z</time>
      </trkpt>
      <trkpt lat="44.12437" lon="6.73334">
        <ele>1771.5356531576</ele>
        <time>2021-07-10T07:46:01Z</time>
      </trkpt>
      <trkpt lat="44.12437" lon="6.73334">
        <ele>1771.5356989292</ele>
        <time>2021-07-10T07:46:02Z</time>
      </trkpt>
      <trkpt lat="44.12436" lon="6.73333">
        <ele>1772.5357374226</ele>
        <time>2021-07-10T07:46:03Z</time>
      </trkpt>
      <trkpt lat="44.12435" lon="6.73333">
        <ele>1771.5357791712</ele>
        <time>2021-07-10T07:46:04Z</time>
      </trkpt>
      <trkpt lat="44.12434" lon="6.73332">
        <ele>1771.5358242415</ele>
        <time>2021-07-10T07:46:05Z</time>
      </trkpt>
      <trkpt lat="44.12434" lon="6.73332">
        <ele>1772.535844422</ele>
        <time>2021-07-10T07:46:06Z</time>
      </trkpt>
      <trkpt lat="44.12433" lon="6.73332">
        <ele>1772.5358745946</ele>
        <time>2021-07-10T07:46:07Z</time>
      </trkpt>
      <trkpt lat="44.12432" lon="6.73332">
        <ele>1772.5359013891</ele>
        <time>2021-07-10T07:46:08Z</time>
      </trkpt>
      <trkpt lat="44.12431" lon="6.73332">
        <ele>1772.5359216765</ele>
        <time>2021-07-10T07:46:09Z</time>
      </trkpt>
      <trkpt lat="44.12431" lon="6.73332">
        <ele>1771.5359605842</ele>
        <time>2021-07-10T07:46:10Z</time>
      </trkpt>
      <trkpt lat="44.1243" lon="6.73331">
        <ele>1772.535999681</ele>
        <time>2021-07-10T07:46:11Z</time>
      </trkpt>
      <trkpt lat="44.12429" lon="6.73331">
        <ele>1771.5360261719</ele>
        <time>2021-07-10T07:46:12Z</time>
      </trkpt>
      <trkpt lat="44.12427" lon="6.7333">
        <ele>1772.5361285511</ele>
        <time>2021-07-10T07:46:14Z</time>
      </trkpt>
      <trkpt lat="44.12426" lon="6.7333">
        <ele>1772.5361615431</ele>
        <time>2021-07-10T07:46:15Z</time>
      </trkpt>
      <trkpt lat="44.12425" lon="6.73329">
        <ele>1772.5362338537</ele>
        <time>2021-07-10T07:46:17Z</time>
      </trkpt>
      <trkpt lat="44.12424" lon="6.73328">
        <ele>1772.5362792487</ele>
        <time>2021-07-10T07:46:18Z</time>
      </trkpt>
      <trkpt lat="44.12423" lon="6.73328">
        <ele>1772.5363206872</ele>
        <time>2021-07-10T07:46:19Z</time>
      </trkpt>
      <trkpt lat="44.12422" lon="6.73328">
        <ele>1772.5363505771</ele>
        <time>2021-07-10T07:46:20Z</time>
      </trkpt>
      <trkpt lat="44.12422" lon="6.73327">
        <ele>1772.5363785674</ele>
        <time>2021-07-10T07:46:21Z</time>
      </trkpt>
      <trkpt lat="44.12421" lon="6.73326">
        <ele>1773.5364556227</ele>
        <time>2021-07-10T07:46:23Z</time>
      </trkpt>
      <trkpt lat="44.1242" lon="6.73325">
        <ele>1773.5364885925</ele>
        <time>2021-07-10T07:46:24Z</time>
      </trkpt>
      <trkpt lat="44.12419" lon="6.73324">
        <ele>1773.5365339474</ele>
        <time>2021-07-10T07:46:25Z</time>
      </trkpt>
      <trkpt lat="44.12419" lon="6.73323">
        <ele>1773.5365727357</ele>
        <time>2021-07-10T07:46:26Z</time>
      </trkpt>
      <trkpt lat="44.12417" lon="6.73322">
        <ele>1774.5366598147</ele>
        <time>2021-07-10T07:46:28Z</time>
      </trkpt>
      <trkpt lat="44.12416" lon="6.73321">
        <ele>1774.5366958567</ele>
        <time>2021-07-10T07:46:29Z</time>
      </trkpt>
      <trkpt lat="44.12416" lon="6.7332">
        <ele>1774.5367259524</ele>
        <time>2021-07-10T07:46:30Z</time>
      </trkpt>
      <trkpt lat="44.12416" lon="6.73317">
        <ele>1774.5368017275</ele>
        <time>2021-07-10T07:46:32Z</time>
      </trkpt>
      <trkpt lat="44.12415" lon="6.73317">
        <ele>1773.536820177</ele>
        <time>2021-07-10T07:46:33Z</time>
      </trkpt>
      <trkpt lat="44.12415" lon="6.73316">
        <ele>1773.5368514204</ele>
        <time>2021-07-10T07:46:34Z</time>
      </trkpt>
      <trkpt lat="44.12414" lon="6.73316">
        <ele>1773.5368836719</ele>
        <time>2021-07-10T07:46:35Z</time>
      </trkpt>
      <trkpt lat="44.12414" lon="6.73315">
        <ele>1774.5369224583</ele>
        <time>2021-07-10T07:46:36Z</time>
      </trkpt>
      <trkpt lat="44.12413" lon="6.73315">
        <ele>1774.5369543501</ele>
        <time>2021-07-10T07:46:37Z</time>
      </trkpt>
      <trkpt lat="44.12412" lon="6.73314">
        <ele>1774.5369882327</ele>
        <time>2021-07-10T07:46:38Z</time>
      </trkpt>
      <trkpt lat="44.12412" lon="6.73313">
        <ele>1774.5370098294</ele>
        <time>2021-07-10T07:46:39Z</time>
      </trkpt>
      <trkpt lat="44.12412" lon="6.73313">
        <ele>1774.5370432005</ele>
        <time>2021-07-10T07:46:41Z</time>
      </trkpt>
      <trkpt lat="44.12411" lon="6.73312">
        <ele>1774.5370831182</ele>
        <time>2021-07-10T07:46:43Z</time>
      </trkpt>
      <trkpt lat="44.1241" lon="6.73311">
        <ele>1775.5371269205</ele>
        <time>2021-07-10T07:46:44Z</time>
      </trkpt>
      <trkpt lat="44.1241" lon="6.7331">
        <ele>1775.5371637838</ele>
        <time>2021-07-10T07:46:45Z</time>
      </trkpt>
      <trkpt lat="44.1241" lon="6.73309">
        <ele>1775.5371948684</ele>
        <time>2021-07-10T07:46:47Z</time>
      </trkpt>
      <trkpt lat="44.12409" lon="6.73308">
        <ele>1775.5372193228</ele>
        <time>2021-07-10T07:46:49Z</time>
      </trkpt>
      <trkpt lat="44.12409" lon="6.73308">
        <ele>1776.5372534388</ele>
        <time>2021-07-10T07:46:50Z</time>
      </trkpt>
      <trkpt lat="44.12408" lon="6.73307">
        <ele>1776.5372948585</ele>
        <time>2021-07-10T07:46:51Z</time>
      </trkpt>
      <trkpt lat="44.12407" lon="6.73306">
        <ele>1776.5373653552</ele>
        <time>2021-07-10T07:46:53Z</time>
      </trkpt>
      <trkpt lat="44.12406" lon="6.73305">
        <ele>1776.537421082</ele>
        <time>2021-07-10T07:46:54Z</time>
      </trkpt>
      <trkpt lat="44.12405" lon="6.73304">
        <ele>1777.5374837377</ele>
        <time>2021-07-10T07:46:55Z</time>
      </trkpt>
      <trkpt lat="44.12404" lon="6.73302">
        <ele>1777.5375391309</ele>
        <time>2021-07-10T07:46:56Z</time>
      </trkpt>
      <trkpt lat="44.12403" lon="6.73302">
        <ele>1777.5375722069</ele>
        <time>2021-07-10T07:46:57Z</time>
      </trkpt>
      <trkpt lat="44.12403" lon="6.73301">
        <ele>1777.5376097675</ele>
        <time>2021-07-10T07:46:58Z</time>
      </trkpt>
      <trkpt lat="44.12402" lon="6.73301">
        <ele>1777.5376336681</ele>
        <time>2021-07-10T07:47:00Z</time>
      </trkpt>
      <trkpt lat="44.12402" lon="6.73299">
        <ele>1778.537681145</ele>
        <time>2021-07-10T07:47:01Z</time>
      </trkpt>
      <trkpt lat="44.12401" lon="6.73298">
        <ele>1777.5377133497</ele>
        <time>2021-07-10T07:47:02Z</time>
      </trkpt>
      <trkpt lat="44.12401" lon="6.73297">
        <ele>1777.5377519587</ele>
        <time>2021-07-10T07:47:03Z</time>
      </trkpt>
      <trkpt lat="44.124" lon="6.73296">
        <ele>1778.537802302</ele>
        <time>2021-07-10T07:47:04Z</time>
      </trkpt>
      <trkpt lat="44.12399" lon="6.73295">
        <ele>1778.5378518251</ele>
        <time>2021-07-10T07:47:06Z</time>
      </trkpt>
      <trkpt lat="44.12398" lon="6.73295">
        <ele>1778.5379044813</ele>
        <time>2021-07-10T07:47:07Z</time>
      </trkpt>
      <trkpt lat="44.12397" lon="6.73294">
        <ele>1778.5379490023</ele>
        <time>2021-07-10T07:47:08Z</time>
      </trkpt>
      <trkpt lat="44.12397" lon="6.73294">
        <ele>1778.5379746329</ele>
        <time>2021-07-10T07:47:09Z</time>
      </trkpt>
      <trkpt lat="44.12396" lon="6.73293">
        <ele>1778.5380120919</ele>
        <time>2021-07-10T07:47:11Z</time>
      </trkpt>
      <trkpt lat="44.12395" lon="6.73291">
        <ele>1779.538075227</ele>
        <time>2021-07-10T07:47:13Z</time>
      </trkpt>
      <trkpt lat="44.12395" lon="6.7329">
        <ele>1779.5381015836</ele>
        <time>2021-07-10T07:47:14Z</time>
      </trkpt>
      <trkpt lat="44.12395" lon="6.7329">
        <ele>1779.5381214578</ele>
        <time>2021-07-10T07:47:15Z</time>
      </trkpt>
      <trkpt lat="44.12394" lon="6.7329">
        <ele>1779.5381496931</ele>
        <time>2021-07-10T07:47:16Z</time>
      </trkpt>
      <trkpt lat="44.12394" lon="6.73289">
        <ele>1779.5381910236</ele>
        <time>2021-07-10T07:47:17Z</time>
      </trkpt>
      <trkpt lat="44.12393" lon="6.73288">
        <ele>1780.5382118224</ele>
        <time>2021-07-10T07:47:18Z</time>
      </trkpt>
      <trkpt lat="44.12393" lon="6.73288">
        <ele>1780.538234775</ele>
        <time>2021-07-10T07:47:19Z</time>
      </trkpt>
      <trkpt lat="44.12392" lon="6.73287">
        <ele>1780.5382763793</ele>
        <time>2021-07-10T07:47:20Z</time>
      </trkpt>
      <trkpt lat="44.12391" lon="6.73286">
        <ele>1780.5383367136</ele>
        <time>2021-07-10T07:47:21Z</time>
      </trkpt>
      <trkpt lat="44.1239" lon="6.73285">
        <ele>1780.5383893679</ele>
        <time>2021-07-10T07:47:22Z</time>
      </trkpt>
      <trkpt lat="44.1239" lon="6.73284">
        <ele>1781.5384365964</ele>
        <time>2021-07-10T07:47:23Z</time>
      </trkpt>
      <trkpt lat="44.12389" lon="6.73283">
        <ele>1781.5384836291</ele>
        <time>2021-07-10T07:47:24Z</time>
      </trkpt>
      <trkpt lat="44.12389" lon="6.73282">
        <ele>1781.5385094721</ele>
        <time>2021-07-10T07:47:25Z</time>
      </trkpt>
      <trkpt lat="44.12388" lon="6.73282">
        <ele>1782.5385252714</ele>
        <time>2021-07-10T07:47:26Z</time>
      </trkpt>
      <trkpt lat="44.12388" lon="6.73281">
        <ele>1781.5385500734</ele>
        <time>2021-07-10T07:47:27Z</time>
      </trkpt>
      <trkpt lat="44.12388" lon="6.7328">
        <ele>1781.5385688326</ele>
        <time>2021-07-10T07:47:28Z</time>
      </trkpt>
      <trkpt lat="44.12388" lon="6.73279">
        <ele>1781.5386064784</ele>
        <time>2021-07-10T07:47:29Z</time>
      </trkpt>
      <trkpt lat="44.12387" lon="6.73279">
        <ele>1781.5386332956</ele>
        <time>2021-07-10T07:47:30Z</time>
      </trkpt>
      <trkpt lat="44.12386" lon="6.73279">
        <ele>1782.5386677384</ele>
        <time>2021-07-10T07:47:32Z</time>
      </trkpt>
      <trkpt lat="44.12386" lon="6.73279">
        <ele>1781.538679786</ele>
        <time>2021-07-10T07:47:36Z</time>
      </trkpt>
      <trkpt lat="44.12385" lon="6.73277">
        <ele>1782.5387362475</ele>
        <time>2021-07-10T07:47:38Z</time>
      </trkpt>
      <trkpt lat="44.12385" lon="6.73277">
        <ele>1782.5387617816</ele>
        <time>2021-07-10T07:47:48Z</time>
      </trkpt>
      <trkpt lat="44.12384" lon="6.73274">
        <ele>1782.5388430305</ele>
        <time>2021-07-10T07:47:49Z</time>
      </trkpt>
      <trkpt lat="44.12383" lon="6.73273">
        <ele>1782.5388823731</ele>
        <time>2021-07-10T07:47:50Z</time>
      </trkpt>
      <trkpt lat="44.12383" lon="6.73272">
        <ele>1782.5389304655</ele>
        <time>2021-07-10T07:47:51Z</time>
      </trkpt>
      <trkpt lat="44.12382" lon="6.7327">
        <ele>1782.5389925614</ele>
        <time>2021-07-10T07:47:52Z</time>
      </trkpt>
      <trkpt lat="44.12381" lon="6.73269">
        <ele>1782.5390291634</ele>
        <time>2021-07-10T07:47:53Z</time>
      </trkpt>
      <trkpt lat="44.12381" lon="6.73269">
        <ele>1783.5390672899</ele>
        <time>2021-07-10T07:47:55Z</time>
      </trkpt>
      <trkpt lat="44.1238" lon="6.73268">
        <ele>1783.5391001419</ele>
        <time>2021-07-10T07:47:56Z</time>
      </trkpt>
      <trkpt lat="44.1238" lon="6.73267">
        <ele>1784.5391299484</ele>
        <time>2021-07-10T07:48:03Z</time>
      </trkpt>
      <trkpt lat="44.12379" lon="6.73266">
        <ele>1783.5391674449</ele>
        <time>2021-07-10T07:48:04Z</time>
      </trkpt>
      <trkpt lat="44.12379" lon="6.73265">
        <ele>1783.5391939195</ele>
        <time>2021-07-10T07:48:34Z</time>
      </trkpt>
      <trkpt lat="44.12379" lon="6.73264">
        <ele>1782.5392481105</ele>
        <time>2021-07-10T07:48:35Z</time>
      </trkpt>
      <trkpt lat="44.12378" lon="6.73263">
        <ele>1782.5392806481</ele>
        <time>2021-07-10T07:48:36Z</time>
      </trkpt>
      <trkpt lat="44.12377" lon="6.73262">
        <ele>1781.5393184496</ele>
        <time>2021-07-10T07:48:39Z</time>
      </trkpt>
      <trkpt lat="44.12378" lon="6.73262">
        <ele>1781.5393172243</ele>
        <time>2021-07-10T07:48:53Z</time>
      </trkpt>
      <trkpt lat="44.12377" lon="6.73261">
        <ele>1780.5393492057</ele>
        <time>2021-07-10T07:48:57Z</time>
      </trkpt>
      <trkpt lat="44.12377" lon="6.73261">
        <ele>1779.5393716706</ele>
        <time>2021-07-10T07:48:58Z</time>
      </trkpt>
      <trkpt lat="44.12376" lon="6.73261">
        <ele>1779.5394040058</ele>
        <time>2021-07-10T07:48:59Z</time>
      </trkpt>
      <trkpt lat="44.12375" lon="6.73261">
        <ele>1780.5394383626</ele>
        <time>2021-07-10T07:49:00Z</time>
      </trkpt>
      <trkpt lat="44.12374" lon="6.73261">
        <ele>1780.5394914579</ele>
        <time>2021-07-10T07:49:01Z</time>
      </trkpt>
      <trkpt lat="44.12372" lon="6.73261">
        <ele>1780.5395339229</ele>
        <time>2021-07-10T07:49:02Z</time>
      </trkpt>
      <trkpt lat="44.12372" lon="6.7326">
        <ele>1781.5395705298</ele>
        <time>2021-07-10T07:49:04Z</time>
      </trkpt>
      <trkpt lat="44.12372" lon="6.73259">
        <ele>1781.539603574</ele>
        <time>2021-07-10T07:49:06Z</time>
      </trkpt>
      <trkpt lat="44.12372" lon="6.73258">
        <ele>1782.5396148761</ele>
        <time>2021-07-10T07:49:11Z</time>
      </trkpt>
      <trkpt lat="44.12371" lon="6.73258">
        <ele>1782.5396447768</ele>
        <time>2021-07-10T07:49:12Z</time>
      </trkpt>
      <trkpt lat="44.12371" lon="6.73258">
        <ele>1782.5396644968</ele>
        <time>2021-07-10T07:49:13Z</time>
      </trkpt>
      <trkpt lat="44.12371" lon="6.73256">
        <ele>1782.5396873978</ele>
        <time>2021-07-10T07:49:14Z</time>
      </trkpt>
      <trkpt lat="44.1237" lon="6.73257">
        <ele>1783.5396923185</ele>
        <time>2021-07-10T07:51:07Z</time>
      </trkpt>
      <trkpt lat="44.12372" lon="6.73256">
        <ele>1784.5396570889</ele>
        <time>2021-07-10T07:51:08Z</time>
      </trkpt>
      <trkpt lat="44.12372" lon="6.73256">
        <ele>1784.5396296331</ele>
        <time>2021-07-10T07:51:27Z</time>
      </trkpt>
      <trkpt lat="44.12373" lon="6.73256">
        <ele>1784.5396307285</ele>
        <time>2021-07-10T07:51:30Z</time>
      </trkpt>
      <trkpt lat="44.12372" lon="6.73256">
        <ele>1784.5396577753</ele>
        <time>2021-07-10T07:51:31Z</time>
      </trkpt>
      <trkpt lat="44.1237" lon="6.73257">
        <ele>1784.5397041273</ele>
        <time>2021-07-10T07:51:32Z</time>
      </trkpt>
      <trkpt lat="44.12369" lon="6.73257">
        <ele>1784.5397360766</ele>
        <time>2021-07-10T07:51:33Z</time>
      </trkpt>
      <trkpt lat="44.12369" lon="6.73256">
        <ele>1784.5397499887</ele>
        <time>2021-07-10T07:51:34Z</time>
      </trkpt>
      <trkpt lat="44.12368" lon="6.73256">
        <ele>1784.5397872672</ele>
        <time>2021-07-10T07:51:35Z</time>
      </trkpt>
      <trkpt lat="44.12368" lon="6.73255">
        <ele>1784.5398100987</ele>
        <time>2021-07-10T07:51:36Z</time>
      </trkpt>
      <trkpt lat="44.12367" lon="6.73255">
        <ele>1783.539841096</ele>
        <time>2021-07-10T07:51:37Z</time>
      </trkpt>
      <trkpt lat="44.12367" lon="6.73255">
        <ele>1783.5398679763</ele>
        <time>2021-07-10T07:51:38Z</time>
      </trkpt>
      <trkpt lat="44.12366" lon="6.73254">
        <ele>1783.5398915943</ele>
        <time>2021-07-10T07:51:39Z</time>
      </trkpt>
      <trkpt lat="44.12365" lon="6.73254">
        <ele>1783.539934602</ele>
        <time>2021-07-10T07:51:40Z</time>
      </trkpt>
      <trkpt lat="44.12365" lon="6.73253">
        <ele>1783.5399716534</ele>
        <time>2021-07-10T07:51:41Z</time>
      </trkpt>
      <trkpt lat="44.12364" lon="6.73253">
        <ele>1784.5400048398</ele>
        <time>2021-07-10T07:51:42Z</time>
      </trkpt>
      <trkpt lat="44.12364" lon="6.73252">
        <ele>1784.5400440908</ele>
        <time>2021-07-10T07:51:43Z</time>
      </trkpt>
      <trkpt lat="44.12363" lon="6.7325">
        <ele>1784.5400976586</ele>
        <time>2021-07-10T07:51:44Z</time>
      </trkpt>
      <trkpt lat="44.12362" lon="6.73249">
        <ele>1784.5401498749</ele>
        <time>2021-07-10T07:51:45Z</time>
      </trkpt>
      <trkpt lat="44.12361" lon="6.73249">
        <ele>1783.5401834786</ele>
        <time>2021-07-10T07:51:46Z</time>
      </trkpt>
      <trkpt lat="44.1236" lon="6.73249">
        <ele>1784.5402276011</ele>
        <time>2021-07-10T07:51:47Z</time>
      </trkpt>
      <trkpt lat="44.12359" lon="6.73249">
        <ele>1784.5402712532</ele>
        <time>2021-07-10T07:51:48Z</time>
      </trkpt>
      <trkpt lat="44.12359" lon="6.73249">
        <ele>1784.5402934179</ele>
        <time>2021-07-10T07:51:50Z</time>
      </trkpt>
      <trkpt lat="44.12357" lon="6.73248">
        <ele>1783.5403764959</ele>
        <time>2021-07-10T07:51:51Z</time>
      </trkpt>
      <trkpt lat="44.12356" lon="6.73248">
        <ele>1783.5404120017</ele>
        <time>2021-07-10T07:51:52Z</time>
      </trkpt>
      <trkpt lat="44.12355" lon="6.73248">
        <ele>1782.5404389399</ele>
        <time>2021-07-10T07:51:53Z</time>
      </trkpt>
      <trkpt lat="44.12354" lon="6.73248">
        <ele>1782.5404640861</ele>
        <time>2021-07-10T07:51:54Z</time>
      </trkpt>
      <trkpt lat="44.12353" lon="6.73248">
        <ele>1783.5404839794</ele>
        <time>2021-07-10T07:51:55Z</time>
      </trkpt>
      <trkpt lat="44.12352" lon="6.73249">
        <ele>1783.5405204969</ele>
        <time>2021-07-10T07:51:56Z</time>
      </trkpt>
      <trkpt lat="44.12352" lon="6.73249">
        <ele>1784.5405458392</ele>
        <time>2021-07-10T07:51:57Z</time>
      </trkpt>
      <trkpt lat="44.12351" lon="6.73248">
        <ele>1783.5405925585</ele>
        <time>2021-07-10T07:51:58Z</time>
      </trkpt>
      <trkpt lat="44.1235" lon="6.73248">
        <ele>1784.5406244186</ele>
        <time>2021-07-10T07:51:59Z</time>
      </trkpt>
      <trkpt lat="44.12349" lon="6.73248">
        <ele>1784.5406429412</ele>
        <time>2021-07-10T07:52:00Z</time>
      </trkpt>
      <trkpt lat="44.12348" lon="6.73248">
        <ele>1784.5406920662</ele>
        <time>2021-07-10T07:52:01Z</time>
      </trkpt>
      <trkpt lat="44.12346" lon="6.73248">
        <ele>1785.5407730176</ele>
        <time>2021-07-10T07:52:03Z</time>
      </trkpt>
      <trkpt lat="44.12346" lon="6.73247">
        <ele>1785.5408088666</ele>
        <time>2021-07-10T07:52:04Z</time>
      </trkpt>
      <trkpt lat="44.12345" lon="6.73247">
        <ele>1786.540832221</ele>
        <time>2021-07-10T07:52:06Z</time>
      </trkpt>
      <trkpt lat="44.12344" lon="6.73247">
        <ele>1786.5408695572</ele>
        <time>2021-07-10T07:52:07Z</time>
      </trkpt>
      <trkpt lat="44.12343" lon="6.73247">
        <ele>1785.5409172853</ele>
        <time>2021-07-10T07:52:08Z</time>
      </trkpt>
      <trkpt lat="44.12342" lon="6.73247">
        <ele>1785.5409425035</ele>
        <time>2021-07-10T07:52:09Z</time>
      </trkpt>
      <trkpt lat="44.12341" lon="6.73248">
        <ele>1785.5409679342</ele>
        <time>2021-07-10T07:52:10Z</time>
      </trkpt>
      <trkpt lat="44.1234" lon="6.73248">
        <ele>1785.5410074023</ele>
        <time>2021-07-10T07:52:11Z</time>
      </trkpt>
      <trkpt lat="44.12339" lon="6.73247">
        <ele>1786.541041129</ele>
        <time>2021-07-10T07:52:12Z</time>
      </trkpt>
      <trkpt lat="44.12339" lon="6.73247">
        <ele>1785.5410660081</ele>
        <time>2021-07-10T07:52:13Z</time>
      </trkpt>
      <trkpt lat="44.12338" lon="6.73248">
        <ele>1786.5410726517</ele>
        <time>2021-07-10T07:52:14Z</time>
      </trkpt>
      <trkpt lat="44.12337" lon="6.73247">
        <ele>1786.5411161892</ele>
        <time>2021-07-10T07:52:15Z</time>
      </trkpt>
      <trkpt lat="44.12336" lon="6.73247">
        <ele>1786.5411598986</ele>
        <time>2021-07-10T07:52:16Z</time>
      </trkpt>
      <trkpt lat="44.12336" lon="6.73246">
        <ele>1786.5412041665</ele>
        <time>2021-07-10T07:52:17Z</time>
      </trkpt>
      <trkpt lat="44.12334" lon="6.73245">
        <ele>1786.541256623</ele>
        <time>2021-07-10T07:52:18Z</time>
      </trkpt>
      <trkpt lat="44.12333" lon="6.73244">
        <ele>1786.5413054829</ele>
        <time>2021-07-10T07:52:19Z</time>
      </trkpt>
      <trkpt lat="44.12333" lon="6.73244">
        <ele>1786.5413460549</ele>
        <time>2021-07-10T07:52:20Z</time>
      </trkpt>
      <trkpt lat="44.12332" lon="6.73243">
        <ele>1786.5413987402</ele>
        <time>2021-07-10T07:52:21Z</time>
      </trkpt>
      <trkpt lat="44.12331" lon="6.73242">
        <ele>1787.5414581456</ele>
        <time>2021-07-10T07:52:22Z</time>
      </trkpt>
      <trkpt lat="44.12331" lon="6.7324">
        <ele>1786.5415012595</ele>
        <time>2021-07-10T07:52:23Z</time>
      </trkpt>
      <trkpt lat="44.12331" lon="6.73239">
        <ele>1786.5415196723</ele>
        <time>2021-07-10T07:52:24Z</time>
      </trkpt>
      <trkpt lat="44.1233" lon="6.73238">
        <ele>1786.5415434721</ele>
        <time>2021-07-10T07:52:25Z</time>
      </trkpt>
      <trkpt lat="44.1233" lon="6.73237">
        <ele>1786.5415803189</ele>
        <time>2021-07-10T07:52:26Z</time>
      </trkpt>
      <trkpt lat="44.12329" lon="6.73237">
        <ele>1786.5416161149</ele>
        <time>2021-07-10T07:52:27Z</time>
      </trkpt>
      <trkpt lat="44.12328" lon="6.73236">
        <ele>1786.541660708</ele>
        <time>2021-07-10T07:52:28Z</time>
      </trkpt>
      <trkpt lat="44.12328" lon="6.73236">
        <ele>1786.5416848655</ele>
        <time>2021-07-10T07:52:30Z</time>
      </trkpt>
      <trkpt lat="44.12327" lon="6.73237">
        <ele>1786.541708976</ele>
        <time>2021-07-10T07:52:31Z</time>
      </trkpt>
      <trkpt lat="44.12326" lon="6.73236">
        <ele>1786.541743209</ele>
        <time>2021-07-10T07:52:32Z</time>
      </trkpt>
      <trkpt lat="44.12325" lon="6.73235">
        <ele>1787.5417905755</ele>
        <time>2021-07-10T07:52:33Z</time>
      </trkpt>
      <trkpt lat="44.12324" lon="6.73234">
        <ele>1788.5418486112</ele>
        <time>2021-07-10T07:52:34Z</time>
      </trkpt>
      <trkpt lat="44.12324" lon="6.73233">
        <ele>1788.5418748254</ele>
        <time>2021-07-10T07:52:36Z</time>
      </trkpt>
      <trkpt lat="44.12323" lon="6.73233">
        <ele>1788.5419116586</ele>
        <time>2021-07-10T07:52:37Z</time>
      </trkpt>
      <trkpt lat="44.12322" lon="6.73232">
        <ele>1788.5419731323</ele>
        <time>2021-07-10T07:52:38Z</time>
      </trkpt>
      <trkpt lat="44.12321" lon="6.73232">
        <ele>1788.5420093409</ele>
        <time>2021-07-10T07:52:39Z</time>
      </trkpt>
      <trkpt lat="44.12321" lon="6.73232">
        <ele>1788.5420298055</ele>
        <time>2021-07-10T07:52:40Z</time>
      </trkpt>
      <trkpt lat="44.1232" lon="6.73231">
        <ele>1788.542071564</ele>
        <time>2021-07-10T07:52:42Z</time>
      </trkpt>
      <trkpt lat="44.12319" lon="6.73231">
        <ele>1788.5421162574</ele>
        <time>2021-07-10T07:52:43Z</time>
      </trkpt>
      <trkpt lat="44.12318" lon="6.7323">
        <ele>1788.5421589715</ele>
        <time>2021-07-10T07:52:44Z</time>
      </trkpt>
      <trkpt lat="44.12317" lon="6.73229">
        <ele>1789.5422120396</ele>
        <time>2021-07-10T07:52:45Z</time>
      </trkpt>
      <trkpt lat="44.12316" lon="6.73228">
        <ele>1789.5422689887</ele>
        <time>2021-07-10T07:52:46Z</time>
      </trkpt>
      <trkpt lat="44.12315" lon="6.73228">
        <ele>1788.5423223211</ele>
        <time>2021-07-10T07:52:47Z</time>
      </trkpt>
      <trkpt lat="44.12314" lon="6.73228">
        <ele>1788.5423699856</ele>
        <time>2021-07-10T07:52:48Z</time>
      </trkpt>
      <trkpt lat="44.12313" lon="6.73227">
        <ele>1789.5424163694</ele>
        <time>2021-07-10T07:52:49Z</time>
      </trkpt>
      <trkpt lat="44.12312" lon="6.73226">
        <ele>1788.5424776494</ele>
        <time>2021-07-10T07:52:51Z</time>
      </trkpt>
      <trkpt lat="44.12311" lon="6.73225">
        <ele>1789.5425243348</ele>
        <time>2021-07-10T07:52:52Z</time>
      </trkpt>
      <trkpt lat="44.12311" lon="6.73225">
        <ele>1790.5425273968</ele>
        <time>2021-07-10T07:52:56Z</time>
      </trkpt>
      <trkpt lat="44.1231" lon="6.73224">
        <ele>1789.5425679175</ele>
        <time>2021-07-10T07:52:57Z</time>
      </trkpt>
      <trkpt lat="44.1231" lon="6.73225">
        <ele>1789.5425815995</ele>
        <time>2021-07-10T07:52:58Z</time>
      </trkpt>
      <trkpt lat="44.12309" lon="6.73225">
        <ele>1788.5425983534</ele>
        <time>2021-07-10T07:52:59Z</time>
      </trkpt>
      <trkpt lat="44.12308" lon="6.73225">
        <ele>1788.5426426941</ele>
        <time>2021-07-10T07:53:00Z</time>
      </trkpt>
      <trkpt lat="44.12306" lon="6.73224">
        <ele>1788.5427317905</ele>
        <time>2021-07-10T07:53:02Z</time>
      </trkpt>
      <trkpt lat="44.12305" lon="6.73225">
        <ele>1788.5427390729</ele>
        <time>2021-07-10T07:53:05Z</time>
      </trkpt>
      <trkpt lat="44.12304" lon="6.73224">
        <ele>1787.5428106337</ele>
        <time>2021-07-10T07:53:06Z</time>
      </trkpt>
      <trkpt lat="44.12302" lon="6.73223">
        <ele>1787.5428802955</ele>
        <time>2021-07-10T07:53:08Z</time>
      </trkpt>
      <trkpt lat="44.12302" lon="6.73223">
        <ele>1787.5428951853</ele>
        <time>2021-07-10T07:53:10Z</time>
      </trkpt>
      <trkpt lat="44.12301" lon="6.73223">
        <ele>1787.5429277082</ele>
        <time>2021-07-10T07:53:12Z</time>
      </trkpt>
      <trkpt lat="44.123" lon="6.73222">
        <ele>1787.5429933204</ele>
        <time>2021-07-10T07:53:13Z</time>
      </trkpt>
      <trkpt lat="44.12299" lon="6.73221">
        <ele>1788.5430458137</ele>
        <time>2021-07-10T07:53:15Z</time>
      </trkpt>
      <trkpt lat="44.12298" lon="6.73221">
        <ele>1788.5431022904</ele>
        <time>2021-07-10T07:53:17Z</time>
      </trkpt>
      <trkpt lat="44.12297" lon="6.73221">
        <ele>1788.5431181633</ele>
        <time>2021-07-10T07:53:19Z</time>
      </trkpt>
      <trkpt lat="44.12296" lon="6.7322">
        <ele>1789.54317966</ele>
        <time>2021-07-10T07:53:20Z</time>
      </trkpt>
      <trkpt lat="44.12295" lon="6.7322">
        <ele>1789.543205635</ele>
        <time>2021-07-10T07:53:21Z</time>
      </trkpt>
      <trkpt lat="44.12295" lon="6.7322">
        <ele>1789.5432381969</ele>
        <time>2021-07-10T07:53:22Z</time>
      </trkpt>
      <trkpt lat="44.12294" lon="6.73219">
        <ele>1789.5432581008</ele>
        <time>2021-07-10T07:53:23Z</time>
      </trkpt>
      <trkpt lat="44.12294" lon="6.73219">
        <ele>1790.5432846435</ele>
        <time>2021-07-10T07:53:24Z</time>
      </trkpt>
      <trkpt lat="44.12293" lon="6.73218">
        <ele>1789.5433296391</ele>
        <time>2021-07-10T07:53:25Z</time>
      </trkpt>
      <trkpt lat="44.12292" lon="6.73217">
        <ele>1789.5433741941</ele>
        <time>2021-07-10T07:53:26Z</time>
      </trkpt>
      <trkpt lat="44.12291" lon="6.73217">
        <ele>1790.5434070434</ele>
        <time>2021-07-10T07:53:27Z</time>
      </trkpt>
      <trkpt lat="44.12291" lon="6.73218">
        <ele>1790.5434254512</ele>
        <time>2021-07-10T07:53:28Z</time>
      </trkpt>
      <trkpt lat="44.1229" lon="6.73217">
        <ele>1791.5434651764</ele>
        <time>2021-07-10T07:53:31Z</time>
      </trkpt>
      <trkpt lat="44.12289" lon="6.73217">
        <ele>1790.5435077501</ele>
        <time>2021-07-10T07:53:32Z</time>
      </trkpt>
      <trkpt lat="44.12289" lon="6.73216">
        <ele>1791.5435332787</ele>
        <time>2021-07-10T07:53:33Z</time>
      </trkpt>
      <trkpt lat="44.12288" lon="6.73215">
        <ele>1791.5435792885</ele>
        <time>2021-07-10T07:53:35Z</time>
      </trkpt>
      <trkpt lat="44.12287" lon="6.73214">
        <ele>1791.5436479893</ele>
        <time>2021-07-10T07:53:36Z</time>
      </trkpt>
      <trkpt lat="44.12286" lon="6.73214">
        <ele>1791.5436794313</ele>
        <time>2021-07-10T07:53:37Z</time>
      </trkpt>
      <trkpt lat="44.12285" lon="6.73215">
        <ele>1792.5436836937</ele>
        <time>2021-07-10T07:53:38Z</time>
      </trkpt>
      <trkpt lat="44.12285" lon="6.73215">
        <ele>1792.5436791202</ele>
        <time>2021-07-10T07:53:39Z</time>
      </trkpt>
      <trkpt lat="44.12285" lon="6.73216">
        <ele>1792.5436911833</ele>
        <time>2021-07-10T07:53:40Z</time>
      </trkpt>
      <trkpt lat="44.12284" lon="6.73216">
        <ele>1792.5437120389</ele>
        <time>2021-07-10T07:53:41Z</time>
      </trkpt>
      <trkpt lat="44.12283" lon="6.73216">
        <ele>1792.5437370482</ele>
        <time>2021-07-10T07:53:42Z</time>
      </trkpt>
      <trkpt lat="44.12282" lon="6.73216">
        <ele>1792.5437663532</ele>
        <time>2021-07-10T07:53:43Z</time>
      </trkpt>
      <trkpt lat="44.12281" lon="6.73216">
        <ele>1792.5438031129</ele>
        <time>2021-07-10T07:53:44Z</time>
      </trkpt>
      <trkpt lat="44.1228" lon="6.73216">
        <ele>1792.5438420429</ele>
        <time>2021-07-10T07:53:45Z</time>
      </trkpt>
      <trkpt lat="44.1228" lon="6.73216">
        <ele>1792.5438655959</ele>
        <time>2021-07-10T07:53:46Z</time>
      </trkpt>
      <trkpt lat="44.12279" lon="6.73217">
        <ele>1792.5438803841</ele>
        <time>2021-07-10T07:53:47Z</time>
      </trkpt>
      <trkpt lat="44.12278" lon="6.73219">
        <ele>1792.5438666635</ele>
        <time>2021-07-10T07:53:48Z</time>
      </trkpt>
      <trkpt lat="44.12278" lon="6.73219">
        <ele>1792.5438856312</ele>
        <time>2021-07-10T07:53:49Z</time>
      </trkpt>
      <trkpt lat="44.12277" lon="6.73219">
        <ele>1791.5439046493</ele>
        <time>2021-07-10T07:53:50Z</time>
      </trkpt>
      <trkpt lat="44.12276" lon="6.73219">
        <ele>1791.5439328854</ele>
        <time>2021-07-10T07:53:52Z</time>
      </trkpt>
      <trkpt lat="44.12276" lon="6.73219">
        <ele>1791.5439633494</ele>
        <time>2021-07-10T07:53:53Z</time>
      </trkpt>
      <trkpt lat="44.12275" lon="6.73219">
        <ele>1792.5440068067</ele>
        <time>2021-07-10T07:53:54Z</time>
      </trkpt>
      <trkpt lat="44.12274" lon="6.73218">
        <ele>1793.5440418064</ele>
        <time>2021-07-10T07:53:56Z</time>
      </trkpt>
      <trkpt lat="44.12272" lon="6.73218">
        <ele>1792.5441155191</ele>
        <time>2021-07-10T07:53:57Z</time>
      </trkpt>
      <trkpt lat="44.12271" lon="6.73218">
        <ele>1793.5441498812</ele>
        <time>2021-07-10T07:53:59Z</time>
      </trkpt>
      <trkpt lat="44.1227" lon="6.73218">
        <ele>1793.5441966622</ele>
        <time>2021-07-10T07:54:02Z</time>
      </trkpt>
      <trkpt lat="44.12269" lon="6.73217">
        <ele>1793.5442571497</ele>
        <time>2021-07-10T07:54:03Z</time>
      </trkpt>
      <trkpt lat="44.12268" lon="6.73216">
        <ele>1793.5443053311</ele>
        <time>2021-07-10T07:54:04Z</time>
      </trkpt>
      <trkpt lat="44.12267" lon="6.73216">
        <ele>1793.5443260947</ele>
        <time>2021-07-10T07:54:05Z</time>
      </trkpt>
      <trkpt lat="44.12267" lon="6.73216">
        <ele>1793.5443380819</ele>
        <time>2021-07-10T07:54:07Z</time>
      </trkpt>
      <trkpt lat="44.12265" lon="6.73217">
        <ele>1794.5443857283</ele>
        <time>2021-07-10T07:54:08Z</time>
      </trkpt>
      <trkpt lat="44.12265" lon="6.73216">
        <ele>1794.5444218043</ele>
        <time>2021-07-10T07:54:09Z</time>
      </trkpt>
      <trkpt lat="44.12264" lon="6.73216">
        <ele>1794.5444565985</ele>
        <time>2021-07-10T07:54:10Z</time>
      </trkpt>
      <trkpt lat="44.12263" lon="6.73215">
        <ele>1793.544490272</ele>
        <time>2021-07-10T07:54:11Z</time>
      </trkpt>
      <trkpt lat="44.12263" lon="6.73215">
        <ele>1793.5445149003</ele>
        <time>2021-07-10T07:54:12Z</time>
      </trkpt>
      <trkpt lat="44.12262" lon="6.73216">
        <ele>1793.5445059952</ele>
        <time>2021-07-10T07:54:13Z</time>
      </trkpt>
      <trkpt lat="44.12262" lon="6.73217">
        <ele>1794.5445194516</ele>
        <time>2021-07-10T07:54:14Z</time>
      </trkpt>
      <trkpt lat="44.12261" lon="6.73217">
        <ele>1794.5445271986</ele>
        <time>2021-07-10T07:54:15Z</time>
      </trkpt>
      <trkpt lat="44.1226" lon="6.73217">
        <ele>1793.5445830925</ele>
        <time>2021-07-10T07:54:17Z</time>
      </trkpt>
      <trkpt lat="44.12259" lon="6.73217">
        <ele>1793.544623071</ele>
        <time>2021-07-10T07:54:18Z</time>
      </trkpt>
      <trkpt lat="44.12258" lon="6.73217">
        <ele>1794.5446445279</ele>
        <time>2021-07-10T07:54:19Z</time>
      </trkpt>
      <trkpt lat="44.12258" lon="6.73217">
        <ele>1794.5446643704</ele>
        <time>2021-07-10T07:54:20Z</time>
      </trkpt>
      <trkpt lat="44.12257" lon="6.73217">
        <ele>1793.5446983638</ele>
        <time>2021-07-10T07:54:23Z</time>
      </trkpt>
      <trkpt lat="44.12256" lon="6.73215">
        <ele>1795.5447523755</ele>
        <time>2021-07-10T07:54:25Z</time>
      </trkpt>
      <trkpt lat="44.12256" lon="6.73214">
        <ele>1795.5447789547</ele>
        <time>2021-07-10T07:54:26Z</time>
      </trkpt>
      <trkpt lat="44.12255" lon="6.73214">
        <ele>1795.544806275</ele>
        <time>2021-07-10T07:54:27Z</time>
      </trkpt>
      <trkpt lat="44.12254" lon="6.73215">
        <ele>1795.5448641803</ele>
        <time>2021-07-10T07:54:29Z</time>
      </trkpt>
      <trkpt lat="44.12252" lon="6.73214">
        <ele>1795.5449338234</ele>
        <time>2021-07-10T07:54:31Z</time>
      </trkpt>
      <trkpt lat="44.12251" lon="6.73214">
        <ele>1795.5449801838</ele>
        <time>2021-07-10T07:54:32Z</time>
      </trkpt>
      <trkpt lat="44.1225" lon="6.73213">
        <ele>1794.545026076</ele>
        <time>2021-07-10T07:54:33Z</time>
      </trkpt>
      <trkpt lat="44.12249" lon="6.73214">
        <ele>1793.5450288025</ele>
        <time>2021-07-10T07:54:34Z</time>
      </trkpt>
      <trkpt lat="44.12249" lon="6.73214">
        <ele>1793.5450432036</ele>
        <time>2021-07-10T07:54:35Z</time>
      </trkpt>
      <trkpt lat="44.12248" lon="6.73214">
        <ele>1794.5450774633</ele>
        <time>2021-07-10T07:54:37Z</time>
      </trkpt>
      <trkpt lat="44.12248" lon="6.73213">
        <ele>1794.5451102512</ele>
        <time>2021-07-10T07:54:39Z</time>
      </trkpt>
      <trkpt lat="44.12247" lon="6.73213">
        <ele>1795.5451407683</ele>
        <time>2021-07-10T07:54:43Z</time>
      </trkpt>
      <trkpt lat="44.12246" lon="6.73213">
        <ele>1795.5451934286</ele>
        <time>2021-07-10T07:54:44Z</time>
      </trkpt>
      <trkpt lat="44.12246" lon="6.73212">
        <ele>1796.5452094898</ele>
        <time>2021-07-10T07:54:47Z</time>
      </trkpt>
      <trkpt lat="44.12246" lon="6.73211">
        <ele>1796.5452245115</ele>
        <time>2021-07-10T07:54:48Z</time>
      </trkpt>
      <trkpt lat="44.12246" lon="6.73211">
        <ele>1796.5452302229</ele>
        <time>2021-07-10T07:54:49Z</time>
      </trkpt>
      <trkpt lat="44.12246" lon="6.7321">
        <ele>1796.5452384384</ele>
        <time>2021-07-10T07:54:50Z</time>
      </trkpt>
      <trkpt lat="44.12246" lon="6.73208">
        <ele>1796.5452468288</ele>
        <time>2021-07-10T07:54:51Z</time>
      </trkpt>
      <trkpt lat="44.12247" lon="6.73208">
        <ele>1796.5452527222</ele>
        <time>2021-07-10T07:54:52Z</time>
      </trkpt>
      <trkpt lat="44.12247" lon="6.73204">
        <ele>1797.5453358974</ele>
        <time>2021-07-10T07:54:54Z</time>
      </trkpt>
      <trkpt lat="44.12247" lon="6.73203">
        <ele>1796.5453319647</ele>
        <time>2021-07-10T07:54:55Z</time>
      </trkpt>
      <trkpt lat="44.12248" lon="6.73203">
        <ele>1795.545313779</ele>
        <time>2021-07-10T07:54:56Z</time>
      </trkpt>
      <trkpt lat="44.12248" lon="6.73203">
        <ele>1795.5453015407</ele>
        <time>2021-07-10T07:54:57Z</time>
      </trkpt>
      <trkpt lat="44.12248" lon="6.73202">
        <ele>1795.5453104823</ele>
        <time>2021-07-10T07:54:58Z</time>
      </trkpt>
      <trkpt lat="44.12249" lon="6.732">
        <ele>1795.5453190645</ele>
        <time>2021-07-10T07:54:59Z</time>
      </trkpt>
      <trkpt lat="44.12249" lon="6.73199">
        <ele>1795.5453447829</ele>
        <time>2021-07-10T07:55:01Z</time>
      </trkpt>
      <trkpt lat="44.12249" lon="6.73198">
        <ele>1795.5453527251</ele>
        <time>2021-07-10T07:55:02Z</time>
      </trkpt>
      <trkpt lat="44.12249" lon="6.73197">
        <ele>1795.5453671229</ele>
        <time>2021-07-10T07:55:03Z</time>
      </trkpt>
      <trkpt lat="44.1225" lon="6.73196">
        <ele>1795.5453727165</ele>
        <time>2021-07-10T07:55:04Z</time>
      </trkpt>
      <trkpt lat="44.12249" lon="6.73195">
        <ele>1796.5454068215</ele>
        <time>2021-07-10T07:55:05Z</time>
      </trkpt>
      <trkpt lat="44.1225" lon="6.73193">
        <ele>1797.5454293754</ele>
        <time>2021-07-10T07:55:06Z</time>
      </trkpt>
      <trkpt lat="44.1225" lon="6.73192">
        <ele>1797.5454384898</ele>
        <time>2021-07-10T07:55:07Z</time>
      </trkpt>
      <trkpt lat="44.12251" lon="6.73191">
        <ele>1797.5454334861</ele>
        <time>2021-07-10T07:55:08Z</time>
      </trkpt>
      <trkpt lat="44.12251" lon="6.7319">
        <ele>1797.5454342983</ele>
        <time>2021-07-10T07:55:09Z</time>
      </trkpt>
      <trkpt lat="44.12252" lon="6.73189">
        <ele>1797.5454461991</ele>
        <time>2021-07-10T07:55:10Z</time>
      </trkpt>
      <trkpt lat="44.12252" lon="6.73188">
        <ele>1797.5454507951</ele>
        <time>2021-07-10T07:55:11Z</time>
      </trkpt>
      <trkpt lat="44.12253" lon="6.73185">
        <ele>1796.5454576854</ele>
        <time>2021-07-10T07:55:13Z</time>
      </trkpt>
      <trkpt lat="44.12254" lon="6.73185">
        <ele>1796.5454319613</ele>
        <time>2021-07-10T07:55:14Z</time>
      </trkpt>
      <trkpt lat="44.12254" lon="6.73185">
        <ele>1796.5454353274</ele>
        <time>2021-07-10T07:55:15Z</time>
      </trkpt>
      <trkpt lat="44.12254" lon="6.73184">
        <ele>1796.5454289575</ele>
        <time>2021-07-10T07:55:17Z</time>
      </trkpt>
      <trkpt lat="44.12255" lon="6.73183">
        <ele>1796.5454204969</ele>
        <time>2021-07-10T07:55:18Z</time>
      </trkpt>
      <trkpt lat="44.12256" lon="6.73183">
        <ele>1796.5454119702</ele>
        <time>2021-07-10T07:55:19Z</time>
      </trkpt>
      <trkpt lat="44.12256" lon="6.73182">
        <ele>1796.5454213616</ele>
        <time>2021-07-10T07:55:20Z</time>
      </trkpt>
      <trkpt lat="44.12256" lon="6.7318">
        <ele>1796.5454322565</ele>
        <time>2021-07-10T07:55:22Z</time>
      </trkpt>
      <trkpt lat="44.12257" lon="6.73179">
        <ele>1796.5454568484</ele>
        <time>2021-07-10T07:55:23Z</time>
      </trkpt>
      <trkpt lat="44.12256" lon="6.73177">
        <ele>1796.5454895861</ele>
        <time>2021-07-10T07:55:25Z</time>
      </trkpt>
      <trkpt lat="44.12257" lon="6.73176">
        <ele>1796.5455108587</ele>
        <time>2021-07-10T07:55:26Z</time>
      </trkpt>
      <trkpt lat="44.12257" lon="6.73175">
        <ele>1798.5455125383</ele>
        <time>2021-07-10T07:55:31Z</time>
      </trkpt>
      <trkpt lat="44.12258" lon="6.73174">
        <ele>1798.5454876615</ele>
        <time>2021-07-10T07:55:32Z</time>
      </trkpt>
      <trkpt lat="44.1226" lon="6.73173">
        <ele>1799.5454656808</ele>
        <time>2021-07-10T07:55:33Z</time>
      </trkpt>
      <trkpt lat="44.1226" lon="6.73172">
        <ele>1800.5454770848</ele>
        <time>2021-07-10T07:55:34Z</time>
      </trkpt>
      <trkpt lat="44.1226" lon="6.7317">
        <ele>1800.5454834481</ele>
        <time>2021-07-10T07:55:37Z</time>
      </trkpt>
      <trkpt lat="44.12262" lon="6.7317">
        <ele>1801.5454436612</ele>
        <time>2021-07-10T07:55:38Z</time>
      </trkpt>
      <trkpt lat="44.12262" lon="6.73169">
        <ele>1801.5454350285</ele>
        <time>2021-07-10T07:55:39Z</time>
      </trkpt>
      <trkpt lat="44.12262" lon="6.73169">
        <ele>1802.5454439906</ele>
        <time>2021-07-10T07:55:40Z</time>
      </trkpt>
      <trkpt lat="44.12262" lon="6.73168">
        <ele>1802.545460115</ele>
        <time>2021-07-10T07:55:41Z</time>
      </trkpt>
      <trkpt lat="44.12262" lon="6.73167">
        <ele>1802.5454962238</ele>
        <time>2021-07-10T07:55:43Z</time>
      </trkpt>
      <trkpt lat="44.12262" lon="6.73166">
        <ele>1802.5455086118</ele>
        <time>2021-07-10T07:55:46Z</time>
      </trkpt>
      <trkpt lat="44.12262" lon="6.73165">
        <ele>1802.5455169874</ele>
        <time>2021-07-10T07:55:47Z</time>
      </trkpt>
      <trkpt lat="44.12263" lon="6.73164">
        <ele>1803.5455133226</ele>
        <time>2021-07-10T07:55:48Z</time>
      </trkpt>
      <trkpt lat="44.12263" lon="6.73163">
        <ele>1802.5455282697</ele>
        <time>2021-07-10T07:55:49Z</time>
      </trkpt>
      <trkpt lat="44.12263" lon="6.73162">
        <ele>1802.5455561541</ele>
        <time>2021-07-10T07:55:51Z</time>
      </trkpt>
      <trkpt lat="44.12263" lon="6.73161">
        <ele>1804.5455607865</ele>
        <time>2021-07-10T07:55:53Z</time>
      </trkpt>
      <trkpt lat="44.12264" lon="6.73161">
        <ele>1804.5455463442</ele>
        <time>2021-07-10T07:55:54Z</time>
      </trkpt>
      <trkpt lat="44.12264" lon="6.7316">
        <ele>1804.5455583319</ele>
        <time>2021-07-10T07:55:56Z</time>
      </trkpt>
      <trkpt lat="44.12264" lon="6.73159">
        <ele>1805.5455646476</ele>
        <time>2021-07-10T07:55:58Z</time>
      </trkpt>
      <trkpt lat="44.12264" lon="6.73158">
        <ele>1804.545566455</ele>
        <time>2021-07-10T07:55:59Z</time>
      </trkpt>
      <trkpt lat="44.12265" lon="6.73157">
        <ele>1804.5455795247</ele>
        <time>2021-07-10T07:56:00Z</time>
      </trkpt>
      <trkpt lat="44.12265" lon="6.73157">
        <ele>1804.5455812811</ele>
        <time>2021-07-10T07:56:01Z</time>
      </trkpt>
      <trkpt lat="44.12265" lon="6.73156">
        <ele>1803.5456012112</ele>
        <time>2021-07-10T07:56:02Z</time>
      </trkpt>
      <trkpt lat="44.12266" lon="6.73155">
        <ele>1803.5455935429</ele>
        <time>2021-07-10T07:56:03Z</time>
      </trkpt>
      <trkpt lat="44.12266" lon="6.73154">
        <ele>1804.5455835802</ele>
        <time>2021-07-10T07:56:04Z</time>
      </trkpt>
      <trkpt lat="44.12267" lon="6.73153">
        <ele>1805.5455915031</ele>
        <time>2021-07-10T07:56:05Z</time>
      </trkpt>
      <trkpt lat="44.12267" lon="6.73152">
        <ele>1805.545592821</ele>
        <time>2021-07-10T07:56:06Z</time>
      </trkpt>
      <trkpt lat="44.12268" lon="6.73151">
        <ele>1806.5455886971</ele>
        <time>2021-07-10T07:56:07Z</time>
      </trkpt>
      <trkpt lat="44.12268" lon="6.7315">
        <ele>1805.5455941925</ele>
        <time>2021-07-10T07:56:08Z</time>
      </trkpt>
      <trkpt lat="44.12268" lon="6.73149">
        <ele>1805.5456071334</ele>
        <time>2021-07-10T07:56:09Z</time>
      </trkpt>
      <trkpt lat="44.12269" lon="6.73148">
        <ele>1804.5456143813</ele>
        <time>2021-07-10T07:56:10Z</time>
      </trkpt>
      <trkpt lat="44.12269" lon="6.73148">
        <ele>1804.545593384</ele>
        <time>2021-07-10T07:56:11Z</time>
      </trkpt>
      <trkpt lat="44.12269" lon="6.73148">
        <ele>1804.545593384</ele>
        <time>2021-07-10T07:56:13Z</time>
      </trkpt>
      <trkpt lat="44.12271" lon="6.73146">
        <ele>1804.5455700847</ele>
        <time>2021-07-10T07:56:14Z</time>
      </trkpt>
      <trkpt lat="44.12271" lon="6.73145">
        <ele>1805.545577873</ele>
        <time>2021-07-10T07:56:16Z</time>
      </trkpt>
      <trkpt lat="44.12272" lon="6.73143">
        <ele>1805.5455850307</ele>
        <time>2021-07-10T07:56:17Z</time>
      </trkpt>
      <trkpt lat="44.12272" lon="6.73143">
        <ele>1805.5455850307</ele>
        <time>2021-07-10T07:56:19Z</time>
      </trkpt>
      <trkpt lat="44.12273" lon="6.73141">
        <ele>1805.5455929698</ele>
        <time>2021-07-10T07:56:20Z</time>
      </trkpt>
      <trkpt lat="44.12273" lon="6.7314">
        <ele>1806.5455860918</ele>
        <time>2021-07-10T07:56:22Z</time>
      </trkpt>
      <trkpt lat="44.12273" lon="6.73139">
        <ele>1806.5456235531</ele>
        <time>2021-07-10T07:56:23Z</time>
      </trkpt>
      <trkpt lat="44.12273" lon="6.73139">
        <ele>1806.5456235531</ele>
        <time>2021-07-10T07:56:25Z</time>
      </trkpt>
      <trkpt lat="44.12275" lon="6.73136">
        <ele>1807.5456149965</ele>
        <time>2021-07-10T07:56:27Z</time>
      </trkpt>
      <trkpt lat="44.12275" lon="6.73136">
        <ele>1808.5455879796</ele>
        <time>2021-07-10T07:56:28Z</time>
      </trkpt>
      <trkpt lat="44.12276" lon="6.73136">
        <ele>1809.5455662314</ele>
        <time>2021-07-10T07:56:35Z</time>
      </trkpt>
      <trkpt lat="44.12277" lon="6.73134">
        <ele>1810.5455783824</ele>
        <time>2021-07-10T07:56:36Z</time>
      </trkpt>
      <trkpt lat="44.12278" lon="6.73132">
        <ele>1809.5455858567</ele>
        <time>2021-07-10T07:56:37Z</time>
      </trkpt>
      <trkpt lat="44.12278" lon="6.73131">
        <ele>1809.5455979798</ele>
        <time>2021-07-10T07:56:38Z</time>
      </trkpt>
      <trkpt lat="44.12279" lon="6.7313">
        <ele>1810.5455901014</ele>
        <time>2021-07-10T07:56:42Z</time>
      </trkpt>
      <trkpt lat="44.1228" lon="6.7313">
        <ele>1812.5455466964</ele>
        <time>2021-07-10T07:56:43Z</time>
      </trkpt>
      <trkpt lat="44.12281" lon="6.73129">
        <ele>1813.5455289787</ele>
        <time>2021-07-10T07:56:45Z</time>
      </trkpt>
      <trkpt lat="44.12282" lon="6.73128">
        <ele>1813.5455195525</ele>
        <time>2021-07-10T07:56:46Z</time>
      </trkpt>
      <trkpt lat="44.12282" lon="6.73128">
        <ele>1813.5455195525</ele>
        <time>2021-07-10T07:56:48Z</time>
      </trkpt>
      <trkpt lat="44.12281" lon="6.73126">
        <ele>1814.545580482</ele>
        <time>2021-07-10T07:56:49Z</time>
      </trkpt>
      <trkpt lat="44.12282" lon="6.73125">
        <ele>1813.5455840621</ele>
        <time>2021-07-10T07:56:52Z</time>
      </trkpt>
      <trkpt lat="44.12283" lon="6.73123">
        <ele>1813.5455604973</ele>
        <time>2021-07-10T07:56:53Z</time>
      </trkpt>
      <trkpt lat="44.12284" lon="6.73123">
        <ele>1814.5455456314</ele>
        <time>2021-07-10T07:56:54Z</time>
      </trkpt>
      <trkpt lat="44.12284" lon="6.73122">
        <ele>1814.5455317451</ele>
        <time>2021-07-10T07:56:56Z</time>
      </trkpt>
      <trkpt lat="44.12285" lon="6.73122">
        <ele>1813.5455243233</ele>
        <time>2021-07-10T07:57:01Z</time>
      </trkpt>
      <trkpt lat="44.12287" lon="6.73119">
        <ele>1816.5454985184</ele>
        <time>2021-07-10T07:57:02Z</time>
      </trkpt>
      <trkpt lat="44.12288" lon="6.73118">
        <ele>1817.545483953</ele>
        <time>2021-07-10T07:57:03Z</time>
      </trkpt>
      <trkpt lat="44.12288" lon="6.73117">
        <ele>1817.545488043</ele>
        <time>2021-07-10T07:57:04Z</time>
      </trkpt>
      <trkpt lat="44.12289" lon="6.73116">
        <ele>1818.5454870173</ele>
        <time>2021-07-10T07:57:06Z</time>
      </trkpt>
      <trkpt lat="44.1229" lon="6.73114">
        <ele>1818.5454994224</ele>
        <time>2021-07-10T07:57:07Z</time>
      </trkpt>
      <trkpt lat="44.1229" lon="6.73113">
        <ele>1818.5455098721</ele>
        <time>2021-07-10T07:57:08Z</time>
      </trkpt>
      <trkpt lat="44.12291" lon="6.73113">
        <ele>1819.5454892961</ele>
        <time>2021-07-10T07:57:11Z</time>
      </trkpt>
      <trkpt lat="44.12292" lon="6.73112">
        <ele>1819.545460462</ele>
        <time>2021-07-10T07:57:12Z</time>
      </trkpt>
      <trkpt lat="44.12293" lon="6.73111">
        <ele>1819.5454379071</ele>
        <time>2021-07-10T07:57:13Z</time>
      </trkpt>
      <trkpt lat="44.12293" lon="6.73111">
        <ele>1820.5454244212</ele>
        <time>2021-07-10T07:57:17Z</time>
      </trkpt>
      <trkpt lat="44.12294" lon="6.73111">
        <ele>1821.5454002661</ele>
        <time>2021-07-10T07:57:18Z</time>
      </trkpt>
      <trkpt lat="44.12295" lon="6.7311">
        <ele>1822.5453892781</ele>
        <time>2021-07-10T07:57:21Z</time>
      </trkpt>
      <trkpt lat="44.12294" lon="6.73109">
        <ele>1822.5454220969</ele>
        <time>2021-07-10T07:57:23Z</time>
      </trkpt>
      <trkpt lat="44.12295" lon="6.73108">
        <ele>1823.5454237927</ele>
        <time>2021-07-10T07:57:24Z</time>
      </trkpt>
      <trkpt lat="44.12295" lon="6.73107">
        <ele>1822.5454263901</ele>
        <time>2021-07-10T07:57:25Z</time>
      </trkpt>
      <trkpt lat="44.12296" lon="6.73107">
        <ele>1823.5454172811</ele>
        <time>2021-07-10T07:57:29Z</time>
      </trkpt>
      <trkpt lat="44.12296" lon="6.73105">
        <ele>1825.5454595704</ele>
        <time>2021-07-10T07:57:30Z</time>
      </trkpt>
      <trkpt lat="44.12296" lon="6.73104">
        <ele>1825.5454730283</ele>
        <time>2021-07-10T07:57:32Z</time>
      </trkpt>
      <trkpt lat="44.12296" lon="6.73103">
        <ele>1824.5454935499</ele>
        <time>2021-07-10T07:57:33Z</time>
      </trkpt>
      <trkpt lat="44.12296" lon="6.73102">
        <ele>1824.5454952429</ele>
        <time>2021-07-10T07:57:34Z</time>
      </trkpt>
      <trkpt lat="44.12296" lon="6.73102">
        <ele>1824.5454937136</ele>
        <time>2021-07-10T07:57:35Z</time>
      </trkpt>
      <trkpt lat="44.12297" lon="6.73101">
        <ele>1824.5454837199</ele>
        <time>2021-07-10T07:57:36Z</time>
      </trkpt>
      <trkpt lat="44.12297" lon="6.73101">
        <ele>1825.5454721024</ele>
        <time>2021-07-10T07:57:39Z</time>
      </trkpt>
      <trkpt lat="44.12299" lon="6.731">
        <ele>1825.5454321177</ele>
        <time>2021-07-10T07:57:41Z</time>
      </trkpt>
      <trkpt lat="44.123" lon="6.73099">
        <ele>1825.5454262893</ele>
        <time>2021-07-10T07:57:42Z</time>
      </trkpt>
      <trkpt lat="44.123" lon="6.73098">
        <ele>1825.5454270127</ele>
        <time>2021-07-10T07:57:43Z</time>
      </trkpt>
      <trkpt lat="44.123" lon="6.73097">
        <ele>1826.5454365628</ele>
        <time>2021-07-10T07:57:44Z</time>
      </trkpt>
      <trkpt lat="44.123" lon="6.73096">
        <ele>1827.5454696698</ele>
        <time>2021-07-10T07:57:46Z</time>
      </trkpt>
      <trkpt lat="44.12299" lon="6.73095">
        <ele>1828.5455177506</ele>
        <time>2021-07-10T07:57:48Z</time>
      </trkpt>
      <trkpt lat="44.12299" lon="6.73094">
        <ele>1827.5455257386</ele>
        <time>2021-07-10T07:58:03Z</time>
      </trkpt>
      <trkpt lat="44.12298" lon="6.73091">
        <ele>1828.5456390342</ele>
        <time>2021-07-10T07:58:04Z</time>
      </trkpt>
      <trkpt lat="44.12298" lon="6.73091">
        <ele>1829.545661808</ele>
        <time>2021-07-10T07:58:05Z</time>
      </trkpt>
      <trkpt lat="44.12298" lon="6.7309">
        <ele>1830.5456673783</ele>
        <time>2021-07-10T07:58:06Z</time>
      </trkpt>
      <trkpt lat="44.12298" lon="6.73089">
        <ele>1829.5456814615</ele>
        <time>2021-07-10T07:58:07Z</time>
      </trkpt>
      <trkpt lat="44.12299" lon="6.73088">
        <ele>1829.5456740825</ele>
        <time>2021-07-10T07:58:08Z</time>
      </trkpt>
      <trkpt lat="44.12299" lon="6.73088">
        <ele>1829.5456821949</ele>
        <time>2021-07-10T07:58:12Z</time>
      </trkpt>
      <trkpt lat="44.123" lon="6.73085">
        <ele>1830.5457055897</ele>
        <time>2021-07-10T07:58:13Z</time>
      </trkpt>
      <trkpt lat="44.123" lon="6.73085">
        <ele>1830.5456918055</ele>
        <time>2021-07-10T07:58:14Z</time>
      </trkpt>
      <trkpt lat="44.12299" lon="6.73084">
        <ele>1831.5457515255</ele>
        <time>2021-07-10T07:58:16Z</time>
      </trkpt>
      <trkpt lat="44.12299" lon="6.73082">
        <ele>1831.5457936326</ele>
        <time>2021-07-10T07:58:17Z</time>
      </trkpt>
      <trkpt lat="44.12299" lon="6.73082">
        <ele>1831.5457936326</ele>
        <time>2021-07-10T07:58:19Z</time>
      </trkpt>
      <trkpt lat="44.12298" lon="6.7308">
        <ele>1832.5458617074</ele>
        <time>2021-07-10T07:58:20Z</time>
      </trkpt>
      <trkpt lat="44.12298" lon="6.73079">
        <ele>1833.5458857281</ele>
        <time>2021-07-10T07:58:22Z</time>
      </trkpt>
      <trkpt lat="44.12298" lon="6.73078">
        <ele>1833.5458999565</ele>
        <time>2021-07-10T07:58:27Z</time>
      </trkpt>
      <trkpt lat="44.12298" lon="6.73076">
        <ele>1833.5459494771</ele>
        <time>2021-07-10T07:58:28Z</time>
      </trkpt>
      <trkpt lat="44.12298" lon="6.73074">
        <ele>1833.5459806852</ele>
        <time>2021-07-10T07:58:30Z</time>
      </trkpt>
      <trkpt lat="44.12298" lon="6.73072">
        <ele>1834.546032535</ele>
        <time>2021-07-10T07:58:31Z</time>
      </trkpt>
      <trkpt lat="44.12298" lon="6.7307">
        <ele>1835.5460604484</ele>
        <time>2021-07-10T07:58:32Z</time>
      </trkpt>
      <trkpt lat="44.12298" lon="6.73068">
        <ele>1835.5460976501</ele>
        <time>2021-07-10T07:58:33Z</time>
      </trkpt>
      <trkpt lat="44.12298" lon="6.73066">
        <ele>1834.5461384586</ele>
        <time>2021-07-10T07:58:34Z</time>
      </trkpt>
      <trkpt lat="44.12297" lon="6.73065">
        <ele>1835.5461789834</ele>
        <time>2021-07-10T07:58:35Z</time>
      </trkpt>
      <trkpt lat="44.12297" lon="6.73064">
        <ele>1834.5462063315</ele>
        <time>2021-07-10T07:58:36Z</time>
      </trkpt>
      <trkpt lat="44.12297" lon="6.73062">
        <ele>1834.5462491616</ele>
        <time>2021-07-10T07:58:37Z</time>
      </trkpt>
      <trkpt lat="44.12296" lon="6.73061">
        <ele>1834.5462917036</ele>
        <time>2021-07-10T07:58:38Z</time>
      </trkpt>
      <trkpt lat="44.12296" lon="6.73061">
        <ele>1835.5462998872</ele>
        <time>2021-07-10T07:58:39Z</time>
      </trkpt>
      <trkpt lat="44.12296" lon="6.7306">
        <ele>1835.5463230668</ele>
        <time>2021-07-10T07:58:41Z</time>
      </trkpt>
      <trkpt lat="44.12296" lon="6.73058">
        <ele>1836.5463523469</ele>
        <time>2021-07-10T07:58:42Z</time>
      </trkpt>
      <trkpt lat="44.12296" lon="6.73058">
        <ele>1836.5463800427</ele>
        <time>2021-07-10T07:58:43Z</time>
      </trkpt>
      <trkpt lat="44.12296" lon="6.73058">
        <ele>1837.5463849588</ele>
        <time>2021-07-10T07:58:48Z</time>
      </trkpt>
      <trkpt lat="44.12296" lon="6.73056">
        <ele>1837.5464308939</ele>
        <time>2021-07-10T07:58:49Z</time>
      </trkpt>
      <trkpt lat="44.12295" lon="6.73055">
        <ele>1838.5464622351</ele>
        <time>2021-07-10T07:58:51Z</time>
      </trkpt>
      <trkpt lat="44.12294" lon="6.73055">
        <ele>1838.5465254217</ele>
        <time>2021-07-10T07:58:53Z</time>
      </trkpt>
      <trkpt lat="44.12293" lon="6.73054">
        <ele>1839.5465520604</ele>
        <time>2021-07-10T07:58:54Z</time>
      </trkpt>
      <trkpt lat="44.12292" lon="6.73053">
        <ele>1839.5465961041</ele>
        <time>2021-07-10T07:58:55Z</time>
      </trkpt>
      <trkpt lat="44.12292" lon="6.73052">
        <ele>1839.5466545089</ele>
        <time>2021-07-10T07:58:57Z</time>
      </trkpt>
      <trkpt lat="44.12291" lon="6.73049">
        <ele>1839.5467238255</ele>
        <time>2021-07-10T07:58:59Z</time>
      </trkpt>
      <trkpt lat="44.12291" lon="6.73048">
        <ele>1839.5467448425</ele>
        <time>2021-07-10T07:59:00Z</time>
      </trkpt>
      <trkpt lat="44.12291" lon="6.73047">
        <ele>1839.5467615738</ele>
        <time>2021-07-10T07:59:01Z</time>
      </trkpt>
      <trkpt lat="44.12291" lon="6.73046">
        <ele>1840.5467860419</ele>
        <time>2021-07-10T07:59:02Z</time>
      </trkpt>
      <trkpt lat="44.1229" lon="6.73045">
        <ele>1841.5468325658</ele>
        <time>2021-07-10T07:59:03Z</time>
      </trkpt>
      <trkpt lat="44.1229" lon="6.73044">
        <ele>1841.5468696102</ele>
        <time>2021-07-10T07:59:04Z</time>
      </trkpt>
      <trkpt lat="44.12289" lon="6.73043">
        <ele>1840.5469188801</ele>
        <time>2021-07-10T07:59:05Z</time>
      </trkpt>
      <trkpt lat="44.12288" lon="6.73043">
        <ele>1840.5469514717</ele>
        <time>2021-07-10T07:59:06Z</time>
      </trkpt>
      <trkpt lat="44.12288" lon="6.73042">
        <ele>1840.5469857099</ele>
        <time>2021-07-10T07:59:07Z</time>
      </trkpt>
      <trkpt lat="44.12288" lon="6.7304">
        <ele>1840.5470255797</ele>
        <time>2021-07-10T07:59:08Z</time>
      </trkpt>
      <trkpt lat="44.12287" lon="6.73039">
        <ele>1840.547061648</ele>
        <time>2021-07-10T07:59:09Z</time>
      </trkpt>
      <trkpt lat="44.12287" lon="6.73039">
        <ele>1840.5470778482</ele>
        <time>2021-07-10T07:59:10Z</time>
      </trkpt>
      <trkpt lat="44.12286" lon="6.73039">
        <ele>1840.5471067266</ele>
        <time>2021-07-10T07:59:11Z</time>
      </trkpt>
      <trkpt lat="44.12285" lon="6.73038">
        <ele>1841.5471518866</ele>
        <time>2021-07-10T07:59:13Z</time>
      </trkpt>
      <trkpt lat="44.12284" lon="6.73038">
        <ele>1840.5472053451</ele>
        <time>2021-07-10T07:59:14Z</time>
      </trkpt>
      <trkpt lat="44.12284" lon="6.73036">
        <ele>1840.5472521766</ele>
        <time>2021-07-10T07:59:15Z</time>
      </trkpt>
      <trkpt lat="44.12283" lon="6.73036">
        <ele>1841.5472718468</ele>
        <time>2021-07-10T07:59:17Z</time>
      </trkpt>
      <trkpt lat="44.12282" lon="6.73035">
        <ele>1842.5473347704</ele>
        <time>2021-07-10T07:59:18Z</time>
      </trkpt>
      <trkpt lat="44.12281" lon="6.73035">
        <ele>1842.547378143</ele>
        <time>2021-07-10T07:59:19Z</time>
      </trkpt>
      <trkpt lat="44.1228" lon="6.73034">
        <ele>1843.5474162256</ele>
        <time>2021-07-10T07:59:20Z</time>
      </trkpt>
      <trkpt lat="44.1228" lon="6.73033">
        <ele>1842.5474482283</ele>
        <time>2021-07-10T07:59:21Z</time>
      </trkpt>
      <trkpt lat="44.1228" lon="6.73032">
        <ele>1843.5474787301</ele>
        <time>2021-07-10T07:59:24Z</time>
      </trkpt>
      <trkpt lat="44.12279" lon="6.73031">
        <ele>1842.5475306452</ele>
        <time>2021-07-10T07:59:26Z</time>
      </trkpt>
      <trkpt lat="44.12278" lon="6.7303">
        <ele>1842.5475727494</ele>
        <time>2021-07-10T07:59:27Z</time>
      </trkpt>
      <trkpt lat="44.12277" lon="6.7303">
        <ele>1843.5476159374</ele>
        <time>2021-07-10T07:59:28Z</time>
      </trkpt>
      <trkpt lat="44.12277" lon="6.7303">
        <ele>1843.5476286391</ele>
        <time>2021-07-10T07:59:29Z</time>
      </trkpt>
      <trkpt lat="44.12276" lon="6.7303">
        <ele>1844.5476632996</ele>
        <time>2021-07-10T07:59:30Z</time>
      </trkpt>
      <trkpt lat="44.12276" lon="6.73029">
        <ele>1844.5476918817</ele>
        <time>2021-07-10T07:59:31Z</time>
      </trkpt>
      <trkpt lat="44.12275" lon="6.73028">
        <ele>1844.5477384073</ele>
        <time>2021-07-10T07:59:33Z</time>
      </trkpt>
      <trkpt lat="44.12274" lon="6.73027">
        <ele>1844.5477687834</ele>
        <time>2021-07-10T07:59:35Z</time>
      </trkpt>
      <trkpt lat="44.12274" lon="6.73027">
        <ele>1844.5477892165</ele>
        <time>2021-07-10T07:59:38Z</time>
      </trkpt>
      <trkpt lat="44.12272" lon="6.73026">
        <ele>1845.5478720027</ele>
        <time>2021-07-10T07:59:40Z</time>
      </trkpt>
      <trkpt lat="44.12272" lon="6.73026">
        <ele>1845.5478982473</ele>
        <time>2021-07-10T07:59:41Z</time>
      </trkpt>
      <trkpt lat="44.12271" lon="6.73026">
        <ele>1845.5479088721</ele>
        <time>2021-07-10T07:59:42Z</time>
      </trkpt>
      <trkpt lat="44.12271" lon="6.73026">
        <ele>1845.5479321905</ele>
        <time>2021-07-10T07:59:43Z</time>
      </trkpt>
      <trkpt lat="44.12269" lon="6.73026">
        <ele>1846.5479888041</ele>
        <time>2021-07-10T07:59:44Z</time>
      </trkpt>
      <trkpt lat="44.12269" lon="6.73025">
        <ele>1845.5480139889</ele>
        <time>2021-07-10T07:59:45Z</time>
      </trkpt>
      <trkpt lat="44.12268" lon="6.73024">
        <ele>1845.5480524404</ele>
        <time>2021-07-10T07:59:46Z</time>
      </trkpt>
      <trkpt lat="44.12268" lon="6.73023">
        <ele>1844.5480843093</ele>
        <time>2021-07-10T07:59:48Z</time>
      </trkpt>
      <trkpt lat="44.12268" lon="6.73023">
        <ele>1846.5481070574</ele>
        <time>2021-07-10T07:59:54Z</time>
      </trkpt>
      <trkpt lat="44.12267" lon="6.73021">
        <ele>1847.5481678053</ele>
        <time>2021-07-10T07:59:55Z</time>
      </trkpt>
      <trkpt lat="44.12266" lon="6.7302">
        <ele>1848.5482396508</ele>
        <time>2021-07-10T07:59:56Z</time>
      </trkpt>
      <trkpt lat="44.12265" lon="6.73018">
        <ele>1848.5483136849</ele>
        <time>2021-07-10T07:59:57Z</time>
      </trkpt>
      <trkpt lat="44.12264" lon="6.73017">
        <ele>1849.5483500758</ele>
        <time>2021-07-10T07:59:58Z</time>
      </trkpt>
      <trkpt lat="44.12263" lon="6.73017">
        <ele>1849.5483776171</ele>
        <time>2021-07-10T07:59:59Z</time>
      </trkpt>
      <trkpt lat="44.12263" lon="6.73017">
        <ele>1850.5484004266</ele>
        <time>2021-07-10T08:00:00Z</time>
      </trkpt>
      <trkpt lat="44.12262" lon="6.73017">
        <ele>1850.5484236862</ele>
        <time>2021-07-10T08:00:01Z</time>
      </trkpt>
      <trkpt lat="44.12261" lon="6.73017">
        <ele>1851.5484531218</ele>
        <time>2021-07-10T08:00:03Z</time>
      </trkpt>
      <trkpt lat="44.12261" lon="6.73016">
        <ele>1851.5484990779</ele>
        <time>2021-07-10T08:00:04Z</time>
      </trkpt>
      <trkpt lat="44.1226" lon="6.73015">
        <ele>1852.5485197798</ele>
        <time>2021-07-10T08:00:05Z</time>
      </trkpt>
      <trkpt lat="44.1226" lon="6.73015">
        <ele>1852.5485398051</ele>
        <time>2021-07-10T08:00:06Z</time>
      </trkpt>
      <trkpt lat="44.12259" lon="6.73015">
        <ele>1852.548563102</ele>
        <time>2021-07-10T08:00:07Z</time>
      </trkpt>
      <trkpt lat="44.12258" lon="6.73015">
        <ele>1852.5486020169</ele>
        <time>2021-07-10T08:00:08Z</time>
      </trkpt>
      <trkpt lat="44.12258" lon="6.73015">
        <ele>1853.5486335329</ele>
        <time>2021-07-10T08:00:09Z</time>
      </trkpt>
      <trkpt lat="44.12257" lon="6.73014">
        <ele>1853.5486588015</ele>
        <time>2021-07-10T08:00:10Z</time>
      </trkpt>
      <trkpt lat="44.12257" lon="6.73014">
        <ele>1853.548687072</ele>
        <time>2021-07-10T08:00:11Z</time>
      </trkpt>
      <trkpt lat="44.12256" lon="6.73014">
        <ele>1853.5487120444</ele>
        <time>2021-07-10T08:00:12Z</time>
      </trkpt>
      <trkpt lat="44.12255" lon="6.73014">
        <ele>1853.5487378167</ele>
        <time>2021-07-10T08:00:13Z</time>
      </trkpt>
      <trkpt lat="44.12255" lon="6.73014">
        <ele>1854.5487611112</ele>
        <time>2021-07-10T08:00:14Z</time>
      </trkpt>
      <trkpt lat="44.12254" lon="6.73013">
        <ele>1854.5487894637</ele>
        <time>2021-07-10T08:00:15Z</time>
      </trkpt>
      <trkpt lat="44.12254" lon="6.73014">
        <ele>1854.548806168</ele>
        <time>2021-07-10T08:00:16Z</time>
      </trkpt>
      <trkpt lat="44.12253" lon="6.73013">
        <ele>1853.5488443876</ele>
        <time>2021-07-10T08:00:17Z</time>
      </trkpt>
      <trkpt lat="44.12252" lon="6.73012">
        <ele>1853.5488870222</ele>
        <time>2021-07-10T08:00:18Z</time>
      </trkpt>
      <trkpt lat="44.12251" lon="6.73012">
        <ele>1853.5489230128</ele>
        <time>2021-07-10T08:00:19Z</time>
      </trkpt>
      <trkpt lat="44.12251" lon="6.73011">
        <ele>1854.5489581677</ele>
        <time>2021-07-10T08:00:20Z</time>
      </trkpt>
      <trkpt lat="44.1225" lon="6.73011">
        <ele>1854.548997192</ele>
        <time>2021-07-10T08:00:21Z</time>
      </trkpt>
      <trkpt lat="44.12249" lon="6.7301">
        <ele>1854.5490327555</ele>
        <time>2021-07-10T08:00:22Z</time>
      </trkpt>
      <trkpt lat="44.12248" lon="6.7301">
        <ele>1854.5490629829</ele>
        <time>2021-07-10T08:00:23Z</time>
      </trkpt>
      <trkpt lat="44.12248" lon="6.73011">
        <ele>1854.5490766105</ele>
        <time>2021-07-10T08:00:24Z</time>
      </trkpt>
      <trkpt lat="44.12247" lon="6.7301">
        <ele>1854.549110043</ele>
        <time>2021-07-10T08:00:25Z</time>
      </trkpt>
      <trkpt lat="44.12246" lon="6.7301">
        <ele>1855.5491286185</ele>
        <time>2021-07-10T08:00:26Z</time>
      </trkpt>
      <trkpt lat="44.12246" lon="6.7301">
        <ele>1855.5491577104</ele>
        <time>2021-07-10T08:00:27Z</time>
      </trkpt>
      <trkpt lat="44.12245" lon="6.7301">
        <ele>1855.5491843025</ele>
        <time>2021-07-10T08:00:28Z</time>
      </trkpt>
      <trkpt lat="44.12245" lon="6.7301">
        <ele>1855.5492090875</ele>
        <time>2021-07-10T08:00:29Z</time>
      </trkpt>
      <trkpt lat="44.12244" lon="6.73009">
        <ele>1855.5492442325</ele>
        <time>2021-07-10T08:00:30Z</time>
      </trkpt>
      <trkpt lat="44.12244" lon="6.73009">
        <ele>1854.5492634091</ele>
        <time>2021-07-10T08:00:31Z</time>
      </trkpt>
      <trkpt lat="44.12243" lon="6.73008">
        <ele>1855.5492897396</ele>
        <time>2021-07-10T08:00:32Z</time>
      </trkpt>
      <trkpt lat="44.12243" lon="6.73008">
        <ele>1855.5493191252</ele>
        <time>2021-07-10T08:00:33Z</time>
      </trkpt>
      <trkpt lat="44.12242" lon="6.73007">
        <ele>1855.5493557141</ele>
        <time>2021-07-10T08:00:34Z</time>
      </trkpt>
      <trkpt lat="44.12242" lon="6.73007">
        <ele>1856.5493765947</ele>
        <time>2021-07-10T08:00:37Z</time>
      </trkpt>
      <trkpt lat="44.12241" lon="6.73007">
        <ele>1859.5493941205</ele>
        <time>2021-07-10T08:00:38Z</time>
      </trkpt>
      <trkpt lat="44.1224" lon="6.73007">
        <ele>1859.5494248548</ele>
        <time>2021-07-10T08:00:39Z</time>
      </trkpt>
      <trkpt lat="44.12239" lon="6.73007">
        <ele>1860.5494640291</ele>
        <time>2021-07-10T08:00:40Z</time>
      </trkpt>
      <trkpt lat="44.12239" lon="6.73006">
        <ele>1860.5495042325</ele>
        <time>2021-07-10T08:00:41Z</time>
      </trkpt>
      <trkpt lat="44.12238" lon="6.73005">
        <ele>1859.5495474477</ele>
        <time>2021-07-10T08:00:42Z</time>
      </trkpt>
      <trkpt lat="44.12237" lon="6.73005">
        <ele>1861.5495968244</ele>
        <time>2021-07-10T08:00:44Z</time>
      </trkpt>
      <trkpt lat="44.12236" lon="6.73005">
        <ele>1861.5496270853</ele>
        <time>2021-07-10T08:00:45Z</time>
      </trkpt>
      <trkpt lat="44.12235" lon="6.73005">
        <ele>1860.549655969</ele>
        <time>2021-07-10T08:00:46Z</time>
      </trkpt>
      <trkpt lat="44.12234" lon="6.73006">
        <ele>1861.5496894752</ele>
        <time>2021-07-10T08:00:47Z</time>
      </trkpt>
      <trkpt lat="44.12233" lon="6.73006">
        <ele>1862.5497086284</ele>
        <time>2021-07-10T08:00:48Z</time>
      </trkpt>
      <trkpt lat="44.12232" lon="6.73005">
        <ele>1863.5497684236</ele>
        <time>2021-07-10T08:00:50Z</time>
      </trkpt>
      <trkpt lat="44.12231" lon="6.73005">
        <ele>1863.5498098794</ele>
        <time>2021-07-10T08:00:51Z</time>
      </trkpt>
      <trkpt lat="44.1223" lon="6.73005">
        <ele>1863.5498309488</ele>
        <time>2021-07-10T08:00:52Z</time>
      </trkpt>
      <trkpt lat="44.12229" lon="6.73006">
        <ele>1863.5498489698</ele>
        <time>2021-07-10T08:00:53Z</time>
      </trkpt>
      <trkpt lat="44.12229" lon="6.73006">
        <ele>1863.5498649314</ele>
        <time>2021-07-10T08:00:54Z</time>
      </trkpt>
      <trkpt lat="44.12228" lon="6.73007">
        <ele>1864.5498769282</ele>
        <time>2021-07-10T08:00:55Z</time>
      </trkpt>
      <trkpt lat="44.12227" lon="6.73008">
        <ele>1864.5498904161</ele>
        <time>2021-07-10T08:00:56Z</time>
      </trkpt>
      <trkpt lat="44.12227" lon="6.73008">
        <ele>1864.5499003171</ele>
        <time>2021-07-10T08:00:57Z</time>
      </trkpt>
      <trkpt lat="44.12225" lon="6.73008">
        <ele>1865.5499659805</ele>
        <time>2021-07-10T08:00:59Z</time>
      </trkpt>
      <trkpt lat="44.12224" lon="6.73008">
        <ele>1865.549991263</ele>
        <time>2021-07-10T08:01:00Z</time>
      </trkpt>
      <trkpt lat="44.12223" lon="6.73009">
        <ele>1865.5500231901</ele>
        <time>2021-07-10T08:01:01Z</time>
      </trkpt>
      <trkpt lat="44.12222" lon="6.73009">
        <ele>1865.5500648759</ele>
        <time>2021-07-10T08:01:02Z</time>
      </trkpt>
      <trkpt lat="44.12221" lon="6.73009">
        <ele>1865.5500861012</ele>
        <time>2021-07-10T08:01:03Z</time>
      </trkpt>
      <trkpt lat="44.12221" lon="6.73009">
        <ele>1865.5501184804</ele>
        <time>2021-07-10T08:01:05Z</time>
      </trkpt>
      <trkpt lat="44.1222" lon="6.73009">
        <ele>1865.5501423186</ele>
        <time>2021-07-10T08:01:06Z</time>
      </trkpt>
      <trkpt lat="44.12219" lon="6.73009">
        <ele>1864.5501729545</ele>
        <time>2021-07-10T08:01:07Z</time>
      </trkpt>
      <trkpt lat="44.12218" lon="6.73009">
        <ele>1864.550206259</ele>
        <time>2021-07-10T08:01:08Z</time>
      </trkpt>
      <trkpt lat="44.12218" lon="6.7301">
        <ele>1865.5502063755</ele>
        <time>2021-07-10T08:01:09Z</time>
      </trkpt>
      <trkpt lat="44.12217" lon="6.7301">
        <ele>1864.5502394594</ele>
        <time>2021-07-10T08:01:11Z</time>
      </trkpt>
      <trkpt lat="44.12216" lon="6.7301">
        <ele>1865.55027379</ele>
        <time>2021-07-10T08:01:12Z</time>
      </trkpt>
      <trkpt lat="44.12214" lon="6.7301">
        <ele>1865.5503110606</ele>
        <time>2021-07-10T08:01:14Z</time>
      </trkpt>
      <trkpt lat="44.12213" lon="6.7301">
        <ele>1866.5503539764</ele>
        <time>2021-07-10T08:01:15Z</time>
      </trkpt>
      <trkpt lat="44.12213" lon="6.73009">
        <ele>1865.550385457</ele>
        <time>2021-07-10T08:01:16Z</time>
      </trkpt>
      <trkpt lat="44.12213" lon="6.73009">
        <ele>1865.5504021984</ele>
        <time>2021-07-10T08:01:17Z</time>
      </trkpt>
      <trkpt lat="44.12212" lon="6.73009">
        <ele>1865.5504284634</ele>
        <time>2021-07-10T08:01:18Z</time>
      </trkpt>
      <trkpt lat="44.12211" lon="6.7301">
        <ele>1865.5504605047</ele>
        <time>2021-07-10T08:01:19Z</time>
      </trkpt>
      <trkpt lat="44.1221" lon="6.7301">
        <ele>1866.5504961432</ele>
        <time>2021-07-10T08:01:20Z</time>
      </trkpt>
      <trkpt lat="44.12209" lon="6.7301">
        <ele>1867.5505219417</ele>
        <time>2021-07-10T08:01:21Z</time>
      </trkpt>
      <trkpt lat="44.12208" lon="6.7301">
        <ele>1867.5505501494</ele>
        <time>2021-07-10T08:01:22Z</time>
      </trkpt>
      <trkpt lat="44.12206" lon="6.7301">
        <ele>1867.5506104639</ele>
        <time>2021-07-10T08:01:24Z</time>
      </trkpt>
      <trkpt lat="44.12205" lon="6.7301">
        <ele>1867.5506482208</ele>
        <time>2021-07-10T08:01:26Z</time>
      </trkpt>
      <trkpt lat="44.12205" lon="6.7301">
        <ele>1867.5506680956</ele>
        <time>2021-07-10T08:01:27Z</time>
      </trkpt>
      <trkpt lat="44.12204" lon="6.73011">
        <ele>1868.5506931888</ele>
        <time>2021-07-10T08:01:28Z</time>
      </trkpt>
      <trkpt lat="44.12203" lon="6.73011">
        <ele>1868.550731287</ele>
        <time>2021-07-10T08:01:29Z</time>
      </trkpt>
      <trkpt lat="44.12202" lon="6.73011">
        <ele>1868.5507646296</ele>
        <time>2021-07-10T08:01:30Z</time>
      </trkpt>
      <trkpt lat="44.12201" lon="6.73011">
        <ele>1867.5507925433</ele>
        <time>2021-07-10T08:01:31Z</time>
      </trkpt>
      <trkpt lat="44.122" lon="6.73011">
        <ele>1867.5508109347</ele>
        <time>2021-07-10T08:01:32Z</time>
      </trkpt>
      <trkpt lat="44.122" lon="6.73011">
        <ele>1868.5508444314</ele>
        <time>2021-07-10T08:01:33Z</time>
      </trkpt>
      <trkpt lat="44.12199" lon="6.73011">
        <ele>1868.5508519527</ele>
        <time>2021-07-10T08:01:34Z</time>
      </trkpt>
      <trkpt lat="44.12199" lon="6.73013">
        <ele>1868.5508376284</ele>
        <time>2021-07-10T08:01:35Z</time>
      </trkpt>
      <trkpt lat="44.12198" lon="6.73013">
        <ele>1868.5508585859</ele>
        <time>2021-07-10T08:01:36Z</time>
      </trkpt>
      <trkpt lat="44.12197" lon="6.73013">
        <ele>1868.5509013092</ele>
        <time>2021-07-10T08:01:37Z</time>
      </trkpt>
      <trkpt lat="44.12196" lon="6.73013">
        <ele>1868.5509238982</ele>
        <time>2021-07-10T08:01:38Z</time>
      </trkpt>
      <trkpt lat="44.12195" lon="6.73013">
        <ele>1868.5509566399</ele>
        <time>2021-07-10T08:01:39Z</time>
      </trkpt>
      <trkpt lat="44.12195" lon="6.73013">
        <ele>1868.5509759146</ele>
        <time>2021-07-10T08:01:40Z</time>
      </trkpt>
      <trkpt lat="44.12194" lon="6.73013">
        <ele>1869.550996473</ele>
        <time>2021-07-10T08:01:41Z</time>
      </trkpt>
      <trkpt lat="44.12193" lon="6.73013">
        <ele>1870.5510264656</ele>
        <time>2021-07-10T08:01:42Z</time>
      </trkpt>
      <trkpt lat="44.12193" lon="6.73014">
        <ele>1870.5510336639</ele>
        <time>2021-07-10T08:01:43Z</time>
      </trkpt>
      <trkpt lat="44.12192" lon="6.73013">
        <ele>1870.5510879278</ele>
        <time>2021-07-10T08:01:45Z</time>
      </trkpt>
      <trkpt lat="44.12191" lon="6.73013">
        <ele>1870.551106493</ele>
        <time>2021-07-10T08:01:46Z</time>
      </trkpt>
      <trkpt lat="44.1219" lon="6.73013">
        <ele>1870.5511513987</ele>
        <time>2021-07-10T08:01:47Z</time>
      </trkpt>
      <trkpt lat="44.12189" lon="6.73013">
        <ele>1869.5511811751</ele>
        <time>2021-07-10T08:01:48Z</time>
      </trkpt>
      <trkpt lat="44.12188" lon="6.73012">
        <ele>1869.5512357448</ele>
        <time>2021-07-10T08:01:49Z</time>
      </trkpt>
      <trkpt lat="44.12188" lon="6.73012">
        <ele>1868.5512729648</ele>
        <time>2021-07-10T08:01:50Z</time>
      </trkpt>
      <trkpt lat="44.12187" lon="6.73012">
        <ele>1868.5512875375</ele>
        <time>2021-07-10T08:01:51Z</time>
      </trkpt>
      <trkpt lat="44.12186" lon="6.73012">
        <ele>1869.5513037749</ele>
        <time>2021-07-10T08:01:52Z</time>
      </trkpt>
      <trkpt lat="44.12186" lon="6.73013">
        <ele>1869.5513262939</ele>
        <time>2021-07-10T08:01:53Z</time>
      </trkpt>
      <trkpt lat="44.12185" lon="6.73013">
        <ele>1870.5513427052</ele>
        <time>2021-07-10T08:01:54Z</time>
      </trkpt>
      <trkpt lat="44.12184" lon="6.73012">
        <ele>1870.5513733323</ele>
        <time>2021-07-10T08:01:55Z</time>
      </trkpt>
      <trkpt lat="44.12184" lon="6.73013">
        <ele>1871.5514059916</ele>
        <time>2021-07-10T08:01:56Z</time>
      </trkpt>
      <trkpt lat="44.12183" lon="6.73013">
        <ele>1871.5514214772</ele>
        <time>2021-07-10T08:01:57Z</time>
      </trkpt>
      <trkpt lat="44.12182" lon="6.73013">
        <ele>1871.5514672804</ele>
        <time>2021-07-10T08:01:58Z</time>
      </trkpt>
      <trkpt lat="44.1218" lon="6.73012">
        <ele>1871.5515364714</ele>
        <time>2021-07-10T08:02:00Z</time>
      </trkpt>
      <trkpt lat="44.12179" lon="6.73012">
        <ele>1871.5515671156</ele>
        <time>2021-07-10T08:02:01Z</time>
      </trkpt>
      <trkpt lat="44.12179" lon="6.73012">
        <ele>1871.5515740701</ele>
        <time>2021-07-10T08:02:02Z</time>
      </trkpt>
      <trkpt lat="44.12179" lon="6.73012">
        <ele>1872.5515967805</ele>
        <time>2021-07-10T08:02:03Z</time>
      </trkpt>
      <trkpt lat="44.12177" lon="6.73013">
        <ele>1872.5516430005</ele>
        <time>2021-07-10T08:02:05Z</time>
      </trkpt>
      <trkpt lat="44.12176" lon="6.73013">
        <ele>1873.5516772208</ele>
        <time>2021-07-10T08:02:06Z</time>
      </trkpt>
      <trkpt lat="44.12175" lon="6.73014">
        <ele>1873.5516881665</ele>
        <time>2021-07-10T08:02:07Z</time>
      </trkpt>
      <trkpt lat="44.12175" lon="6.73014">
        <ele>1874.5517044505</ele>
        <time>2021-07-10T08:02:08Z</time>
      </trkpt>
      <trkpt lat="44.12174" lon="6.73013">
        <ele>1874.5517338381</ele>
        <time>2021-07-10T08:02:09Z</time>
      </trkpt>
      <trkpt lat="44.12174" lon="6.73013">
        <ele>1874.551758146</ele>
        <time>2021-07-10T08:02:11Z</time>
      </trkpt>
      <trkpt lat="44.12173" lon="6.73013">
        <ele>1874.5517803673</ele>
        <time>2021-07-10T08:02:12Z</time>
      </trkpt>
      <trkpt lat="44.12173" lon="6.73013">
        <ele>1875.5518057032</ele>
        <time>2021-07-10T08:02:13Z</time>
      </trkpt>
      <trkpt lat="44.12172" lon="6.73013">
        <ele>1875.5518304759</ele>
        <time>2021-07-10T08:02:14Z</time>
      </trkpt>
      <trkpt lat="44.12171" lon="6.73012">
        <ele>1875.5518663626</ele>
        <time>2021-07-10T08:02:15Z</time>
      </trkpt>
      <trkpt lat="44.1217" lon="6.73013">
        <ele>1875.5518873042</ele>
        <time>2021-07-10T08:02:16Z</time>
      </trkpt>
      <trkpt lat="44.12169" lon="6.73013">
        <ele>1875.5519185466</ele>
        <time>2021-07-10T08:02:17Z</time>
      </trkpt>
      <trkpt lat="44.12169" lon="6.73013">
        <ele>1875.5519388727</ele>
        <time>2021-07-10T08:02:18Z</time>
      </trkpt>
      <trkpt lat="44.12168" lon="6.73014">
        <ele>1875.5519445344</ele>
        <time>2021-07-10T08:02:19Z</time>
      </trkpt>
      <trkpt lat="44.12168" lon="6.73014">
        <ele>1875.5519554669</ele>
        <time>2021-07-10T08:02:22Z</time>
      </trkpt>
      <trkpt lat="44.12166" lon="6.73014">
        <ele>1877.5520160082</ele>
        <time>2021-07-10T08:02:23Z</time>
      </trkpt>
      <trkpt lat="44.12166" lon="6.73013">
        <ele>1879.5520316885</ele>
        <time>2021-07-10T08:02:28Z</time>
      </trkpt>
      <trkpt lat="44.12165" lon="6.73012">
        <ele>1880.5521021586</ele>
        <time>2021-07-10T08:02:29Z</time>
      </trkpt>
      <trkpt lat="44.12164" lon="6.73011">
        <ele>1880.5521628276</ele>
        <time>2021-07-10T08:02:31Z</time>
      </trkpt>
      <trkpt lat="44.12163" lon="6.73012">
        <ele>1880.5521820978</ele>
        <time>2021-07-10T08:02:32Z</time>
      </trkpt>
      <trkpt lat="44.12162" lon="6.73012">
        <ele>1880.5522012103</ele>
        <time>2021-07-10T08:02:33Z</time>
      </trkpt>
      <trkpt lat="44.12162" lon="6.73012">
        <ele>1881.5522218963</ele>
        <time>2021-07-10T08:02:34Z</time>
      </trkpt>
      <trkpt lat="44.1216" lon="6.73013">
        <ele>1882.5522447958</ele>
        <time>2021-07-10T08:02:36Z</time>
      </trkpt>
      <trkpt lat="44.1216" lon="6.73014">
        <ele>1882.552258132</ele>
        <time>2021-07-10T08:02:37Z</time>
      </trkpt>
      <trkpt lat="44.12159" lon="6.73013">
        <ele>1882.5523066064</ele>
        <time>2021-07-10T08:02:39Z</time>
      </trkpt>
      <trkpt lat="44.12158" lon="6.73012">
        <ele>1882.5523684095</ele>
        <time>2021-07-10T08:02:41Z</time>
      </trkpt>
      <trkpt lat="44.12157" lon="6.73012">
        <ele>1881.5523911395</ele>
        <time>2021-07-10T08:02:42Z</time>
      </trkpt>
      <trkpt lat="44.12156" lon="6.73012">
        <ele>1880.5524154594</ele>
        <time>2021-07-10T08:02:43Z</time>
      </trkpt>
      <trkpt lat="44.12156" lon="6.73012">
        <ele>1880.5524375369</ele>
        <time>2021-07-10T08:02:44Z</time>
      </trkpt>
      <trkpt lat="44.12155" lon="6.73013">
        <ele>1880.5524312979</ele>
        <time>2021-07-10T08:02:45Z</time>
      </trkpt>
      <trkpt lat="44.12155" lon="6.73014">
        <ele>1881.5524456822</ele>
        <time>2021-07-10T08:02:46Z</time>
      </trkpt>
      <trkpt lat="44.12154" lon="6.73014">
        <ele>1881.5524760035</ele>
        <time>2021-07-10T08:02:47Z</time>
      </trkpt>
      <trkpt lat="44.12153" lon="6.73014">
        <ele>1881.5524852941</ele>
        <time>2021-07-10T08:02:48Z</time>
      </trkpt>
      <trkpt lat="44.12152" lon="6.73015">
        <ele>1881.5525050346</ele>
        <time>2021-07-10T08:02:49Z</time>
      </trkpt>
      <trkpt lat="44.12152" lon="6.73015">
        <ele>1882.552529975</ele>
        <time>2021-07-10T08:02:51Z</time>
      </trkpt>
      <trkpt lat="44.12151" lon="6.73016">
        <ele>1882.5525398295</ele>
        <time>2021-07-10T08:02:52Z</time>
      </trkpt>
      <trkpt lat="44.1215" lon="6.73016">
        <ele>1882.5525665878</ele>
        <time>2021-07-10T08:03:00Z</time>
      </trkpt>
      <trkpt lat="44.12149" lon="6.73015">
        <ele>1881.5526031577</ele>
        <time>2021-07-10T08:03:01Z</time>
      </trkpt>
      <trkpt lat="44.12149" lon="6.73016">
        <ele>1881.5526070142</ele>
        <time>2021-07-10T08:03:02Z</time>
      </trkpt>
      <trkpt lat="44.12148" lon="6.73016">
        <ele>1881.5526222329</ele>
        <time>2021-07-10T08:03:03Z</time>
      </trkpt>
      <trkpt lat="44.12148" lon="6.73017">
        <ele>1881.5526217007</ele>
        <time>2021-07-10T08:03:04Z</time>
      </trkpt>
      <trkpt lat="44.12147" lon="6.73017">
        <ele>1881.5526552611</ele>
        <time>2021-07-10T08:03:06Z</time>
      </trkpt>
      <trkpt lat="44.12147" lon="6.73017">
        <ele>1880.5526784809</ele>
        <time>2021-07-10T08:03:07Z</time>
      </trkpt>
      <trkpt lat="44.12146" lon="6.73017">
        <ele>1880.5526991796</ele>
        <time>2021-07-10T08:03:08Z</time>
      </trkpt>
      <trkpt lat="44.12145" lon="6.73017">
        <ele>1881.5527281287</ele>
        <time>2021-07-10T08:03:10Z</time>
      </trkpt>
      <trkpt lat="44.12144" lon="6.73018">
        <ele>1882.5527492925</ele>
        <time>2021-07-10T08:03:12Z</time>
      </trkpt>
      <trkpt lat="44.12144" lon="6.73017">
        <ele>1883.5527631013</ele>
        <time>2021-07-10T08:03:19Z</time>
      </trkpt>
      <trkpt lat="44.12144" lon="6.73017">
        <ele>1883.5527953658</ele>
        <time>2021-07-10T08:03:22Z</time>
      </trkpt>
      <trkpt lat="44.12143" lon="6.73016">
        <ele>1883.5528157447</ele>
        <time>2021-07-10T08:03:23Z</time>
      </trkpt>
      <trkpt lat="44.12142" lon="6.73016">
        <ele>1883.5528527174</ele>
        <time>2021-07-10T08:03:24Z</time>
      </trkpt>
      <trkpt lat="44.12141" lon="6.73016">
        <ele>1883.5528803167</ele>
        <time>2021-07-10T08:03:25Z</time>
      </trkpt>
      <trkpt lat="44.12142" lon="6.73017">
        <ele>1882.5528650617</ele>
        <time>2021-07-10T08:03:27Z</time>
      </trkpt>
      <trkpt lat="44.12141" lon="6.73018">
        <ele>1882.5528670492</ele>
        <time>2021-07-10T08:03:28Z</time>
      </trkpt>
      <trkpt lat="44.12141" lon="6.73018">
        <ele>1883.5528802551</ele>
        <time>2021-07-10T08:03:34Z</time>
      </trkpt>
      <trkpt lat="44.12139" lon="6.73018">
        <ele>1883.5529410318</ele>
        <time>2021-07-10T08:03:36Z</time>
      </trkpt>
      <trkpt lat="44.12138" lon="6.73019">
        <ele>1883.5529544196</ele>
        <time>2021-07-10T08:03:38Z</time>
      </trkpt>
      <trkpt lat="44.12138" lon="6.73019">
        <ele>1884.5529652469</ele>
        <time>2021-07-10T08:03:41Z</time>
      </trkpt>
      <trkpt lat="44.12137" lon="6.73018">
        <ele>1884.5530314182</ele>
        <time>2021-07-10T08:03:42Z</time>
      </trkpt>
      <trkpt lat="44.12136" lon="6.73018">
        <ele>1884.553050602</ele>
        <time>2021-07-10T08:03:43Z</time>
      </trkpt>
      <trkpt lat="44.12136" lon="6.73018">
        <ele>1884.5530691938</ele>
        <time>2021-07-10T08:03:44Z</time>
      </trkpt>
      <trkpt lat="44.12135" lon="6.73017">
        <ele>1884.5531046384</ele>
        <time>2021-07-10T08:03:46Z</time>
      </trkpt>
      <trkpt lat="44.12134" lon="6.73018">
        <ele>1885.5531196868</ele>
        <time>2021-07-10T08:03:48Z</time>
      </trkpt>
      <trkpt lat="44.12134" lon="6.73018">
        <ele>1885.553140874</ele>
        <time>2021-07-10T08:04:08Z</time>
      </trkpt>
      <trkpt lat="44.12131" lon="6.7302">
        <ele>1887.5531761048</ele>
        <time>2021-07-10T08:04:09Z</time>
      </trkpt>
      <trkpt lat="44.12131" lon="6.73021">
        <ele>1887.5531961479</ele>
        <time>2021-07-10T08:04:10Z</time>
      </trkpt>
      <trkpt lat="44.1213" lon="6.73021">
        <ele>1887.5532217359</ele>
        <time>2021-07-10T08:04:11Z</time>
      </trkpt>
      <trkpt lat="44.1213" lon="6.73022">
        <ele>1887.5532102293</ele>
        <time>2021-07-10T08:04:15Z</time>
      </trkpt>
      <trkpt lat="44.12129" lon="6.73023">
        <ele>1887.5532177555</ele>
        <time>2021-07-10T08:04:16Z</time>
      </trkpt>
      <trkpt lat="44.12128" lon="6.73024">
        <ele>1887.5532464628</ele>
        <time>2021-07-10T08:04:17Z</time>
      </trkpt>
      <trkpt lat="44.12127" lon="6.73024">
        <ele>1887.5532693203</ele>
        <time>2021-07-10T08:04:18Z</time>
      </trkpt>
      <trkpt lat="44.12126" lon="6.73024">
        <ele>1888.5532849996</ele>
        <time>2021-07-10T08:04:19Z</time>
      </trkpt>
      <trkpt lat="44.12126" lon="6.73025">
        <ele>1888.5532836226</ele>
        <time>2021-07-10T08:04:20Z</time>
      </trkpt>
      <trkpt lat="44.12125" lon="6.73026">
        <ele>1888.5532972435</ele>
        <time>2021-07-10T08:04:21Z</time>
      </trkpt>
      <trkpt lat="44.12125" lon="6.73027">
        <ele>1887.5532922142</ele>
        <time>2021-07-10T08:04:23Z</time>
      </trkpt>
      <trkpt lat="44.12124" lon="6.73028">
        <ele>1887.5532831941</ele>
        <time>2021-07-10T08:04:24Z</time>
      </trkpt>
      <trkpt lat="44.12124" lon="6.73029">
        <ele>1887.5532706715</ele>
        <time>2021-07-10T08:04:25Z</time>
      </trkpt>
      <trkpt lat="44.12123" lon="6.7303">
        <ele>1888.5532924905</ele>
        <time>2021-07-10T08:04:26Z</time>
      </trkpt>
      <trkpt lat="44.12122" lon="6.73031">
        <ele>1888.5532974963</ele>
        <time>2021-07-10T08:04:27Z</time>
      </trkpt>
      <trkpt lat="44.12121" lon="6.73032">
        <ele>1889.5533325538</ele>
        <time>2021-07-10T08:04:29Z</time>
      </trkpt>
      <trkpt lat="44.1212" lon="6.73032">
        <ele>1890.5533523874</ele>
        <time>2021-07-10T08:04:30Z</time>
      </trkpt>
      <trkpt lat="44.12119" lon="6.73032">
        <ele>1890.5533775632</ele>
        <time>2021-07-10T08:04:31Z</time>
      </trkpt>
      <trkpt lat="44.12119" lon="6.73032">
        <ele>1890.5534103116</ele>
        <time>2021-07-10T08:04:32Z</time>
      </trkpt>
      <trkpt lat="44.12118" lon="6.73032">
        <ele>1890.5534480002</ele>
        <time>2021-07-10T08:04:33Z</time>
      </trkpt>
      <trkpt lat="44.12117" lon="6.73033">
        <ele>1890.5534498616</ele>
        <time>2021-07-10T08:04:34Z</time>
      </trkpt>
      <trkpt lat="44.12117" lon="6.73034">
        <ele>1890.5534299619</ele>
        <time>2021-07-10T08:04:35Z</time>
      </trkpt>
      <trkpt lat="44.12117" lon="6.73035">
        <ele>1890.5534205975</ele>
        <time>2021-07-10T08:04:38Z</time>
      </trkpt>
      <trkpt lat="44.12117" lon="6.73035">
        <ele>1891.5533988894</ele>
        <time>2021-07-10T08:04:40Z</time>
      </trkpt>
      <trkpt lat="44.12118" lon="6.73034">
        <ele>1891.5534117031</ele>
        <time>2021-07-10T08:04:41Z</time>
      </trkpt>
      <trkpt lat="44.12118" lon="6.73033">
        <ele>1890.5534118817</ele>
        <time>2021-07-10T08:04:56Z</time>
      </trkpt>
      <trkpt lat="44.12117" lon="6.73035">
        <ele>1890.5534217866</ele>
        <time>2021-07-10T08:04:57Z</time>
      </trkpt>
      <trkpt lat="44.12115" lon="6.73037">
        <ele>1890.5534493321</ele>
        <time>2021-07-10T08:04:59Z</time>
      </trkpt>
      <trkpt lat="44.12115" lon="6.73037">
        <ele>1890.5534621051</ele>
        <time>2021-07-10T08:05:00Z</time>
      </trkpt>
      <trkpt lat="44.12115" lon="6.73037">
        <ele>1891.5534600623</ele>
        <time>2021-07-10T08:05:07Z</time>
      </trkpt>
      <trkpt lat="44.12116" lon="6.73037">
        <ele>1891.5534389297</ele>
        <time>2021-07-10T08:05:09Z</time>
      </trkpt>
      <trkpt lat="44.12117" lon="6.73036">
        <ele>1891.5533975497</ele>
        <time>2021-07-10T08:05:11Z</time>
      </trkpt>
      <trkpt lat="44.12117" lon="6.73036">
        <ele>1891.5533954533</ele>
        <time>2021-07-10T08:05:24Z</time>
      </trkpt>
      <trkpt lat="44.12115" lon="6.73039">
        <ele>1891.5534343042</ele>
        <time>2021-07-10T08:05:26Z</time>
      </trkpt>
      <trkpt lat="44.12114" lon="6.73038">
        <ele>1890.5534703458</ele>
        <time>2021-07-10T08:06:16Z</time>
      </trkpt>
      <trkpt lat="44.12114" lon="6.73039">
        <ele>1889.5534574342</ele>
        <time>2021-07-10T08:06:55Z</time>
      </trkpt>
      <trkpt lat="44.12115" lon="6.73039">
        <ele>1889.5534331806</ele>
        <time>2021-07-10T08:06:56Z</time>
      </trkpt>
      <trkpt lat="44.12114" lon="6.73038">
        <ele>1889.5534658424</ele>
        <time>2021-07-10T08:07:17Z</time>
      </trkpt>
      <trkpt lat="44.12114" lon="6.73037">
        <ele>1887.5534864404</ele>
        <time>2021-07-10T08:08:17Z</time>
      </trkpt>
      <trkpt lat="44.12114" lon="6.73037">
        <ele>1886.5535062877</ele>
        <time>2021-07-10T08:09:10Z</time>
      </trkpt>
      <trkpt lat="44.12114" lon="6.73039">
        <ele>1886.5534476219</ele>
        <time>2021-07-10T08:09:12Z</time>
      </trkpt>
      <trkpt lat="44.12114" lon="6.73038">
        <ele>1886.5534740518</ele>
        <time>2021-07-10T08:10:17Z</time>
      </trkpt>
      <trkpt lat="44.12114" lon="6.73037">
        <ele>1885.553503286</ele>
        <time>2021-07-10T08:10:19Z</time>
      </trkpt>
      <trkpt lat="44.12114" lon="6.73037">
        <ele>1885.5534977435</ele>
        <time>2021-07-10T08:10:29Z</time>
      </trkpt>
      <trkpt lat="44.12115" lon="6.73039">
        <ele>1885.5534388242</ele>
        <time>2021-07-10T08:10:30Z</time>
      </trkpt>
      <trkpt lat="44.12115" lon="6.73038">
        <ele>1887.5534300345</ele>
        <time>2021-07-10T08:11:10Z</time>
      </trkpt>
      <trkpt lat="44.12115" lon="6.73037">
        <ele>1888.5534594179</ele>
        <time>2021-07-10T08:11:12Z</time>
      </trkpt>
      <trkpt lat="44.12114" lon="6.73036">
        <ele>1888.5534851567</ele>
        <time>2021-07-10T08:11:22Z</time>
      </trkpt>
      <trkpt lat="44.12114" lon="6.73035">
        <ele>1889.5535461241</ele>
        <time>2021-07-10T08:11:24Z</time>
      </trkpt>
      <trkpt lat="44.12114" lon="6.73035">
        <ele>1889.553546409</ele>
        <time>2021-07-10T08:11:52Z</time>
      </trkpt>
      <trkpt lat="44.12114" lon="6.73033">
        <ele>1887.5535597351</ele>
        <time>2021-07-10T08:11:54Z</time>
      </trkpt>
      <trkpt lat="44.12114" lon="6.73033">
        <ele>1887.5535600119</ele>
        <time>2021-07-10T08:12:20Z</time>
      </trkpt>
      <trkpt lat="44.12114" lon="6.73035">
        <ele>1886.5535414685</ele>
        <time>2021-07-10T08:12:22Z</time>
      </trkpt>
      <trkpt lat="44.12113" lon="6.73035">
        <ele>1885.5535471225</ele>
        <time>2021-07-10T08:12:41Z</time>
      </trkpt>
      <trkpt lat="44.12113" lon="6.73034">
        <ele>1885.553586728</ele>
        <time>2021-07-10T08:12:43Z</time>
      </trkpt>
      <trkpt lat="44.12113" lon="6.73034">
        <ele>1885.553585266</ele>
        <time>2021-07-10T08:12:52Z</time>
      </trkpt>
      <trkpt lat="44.12113" lon="6.73037">
        <ele>1887.5535151697</ele>
        <time>2021-07-10T08:12:54Z</time>
      </trkpt>
      <trkpt lat="44.12114" lon="6.73038">
        <ele>1888.5534890058</ele>
        <time>2021-07-10T08:12:55Z</time>
      </trkpt>
      <trkpt lat="44.12113" lon="6.73037">
        <ele>1888.5535162787</ele>
        <time>2021-07-10T08:13:11Z</time>
      </trkpt>
      <trkpt lat="44.12112" lon="6.73035">
        <ele>1887.5536101985</ele>
        <time>2021-07-10T08:13:13Z</time>
      </trkpt>
      <trkpt lat="44.12112" lon="6.73035">
        <ele>1887.5536063101</ele>
        <time>2021-07-10T08:13:14Z</time>
      </trkpt>
      <trkpt lat="44.12113" lon="6.73036">
        <ele>1886.55356625</ele>
        <time>2021-07-10T08:13:15Z</time>
      </trkpt>
      <trkpt lat="44.12112" lon="6.73037">
        <ele>1887.5535614417</ele>
        <time>2021-07-10T08:13:26Z</time>
      </trkpt>
      <trkpt lat="44.12112" lon="6.73037">
        <ele>1887.5535686366</ele>
        <time>2021-07-10T08:13:27Z</time>
      </trkpt>
      <trkpt lat="44.12112" lon="6.73037">
        <ele>1887.5535668439</ele>
        <time>2021-07-10T08:13:40Z</time>
      </trkpt>
      <trkpt lat="44.12111" lon="6.73039">
        <ele>1888.5535575679</ele>
        <time>2021-07-10T08:13:41Z</time>
      </trkpt>
      <trkpt lat="44.12111" lon="6.73038">
        <ele>1887.5535916507</ele>
        <time>2021-07-10T08:13:55Z</time>
      </trkpt>
      <trkpt lat="44.1211" lon="6.73039">
        <ele>1886.5535872963</ele>
        <time>2021-07-10T08:13:56Z</time>
      </trkpt>
      <trkpt lat="44.1211" lon="6.7304">
        <ele>1887.5535916109</ele>
        <time>2021-07-10T08:13:58Z</time>
      </trkpt>
      <trkpt lat="44.1211" lon="6.73041">
        <ele>1888.5535673724</ele>
        <time>2021-07-10T08:14:07Z</time>
      </trkpt>
      <trkpt lat="44.1211" lon="6.73041">
        <ele>1888.553573498</ele>
        <time>2021-07-10T08:14:08Z</time>
      </trkpt>
      <trkpt lat="44.12108" lon="6.73042">
        <ele>1888.5536030192</ele>
        <time>2021-07-10T08:14:09Z</time>
      </trkpt>
      <trkpt lat="44.12107" lon="6.73042">
        <ele>1889.5536355833</ele>
        <time>2021-07-10T08:14:10Z</time>
      </trkpt>
      <trkpt lat="44.12107" lon="6.73042">
        <ele>1891.5536618526</ele>
        <time>2021-07-10T08:14:14Z</time>
      </trkpt>
      <trkpt lat="44.12106" lon="6.73042">
        <ele>1891.5536855262</ele>
        <time>2021-07-10T08:14:15Z</time>
      </trkpt>
      <trkpt lat="44.12106" lon="6.73041">
        <ele>1891.553712525</ele>
        <time>2021-07-10T08:14:16Z</time>
      </trkpt>
      <trkpt lat="44.12104" lon="6.7304">
        <ele>1892.5537885295</ele>
        <time>2021-07-10T08:14:18Z</time>
      </trkpt>
      <trkpt lat="44.12102" lon="6.73041">
        <ele>1892.5538414096</ele>
        <time>2021-07-10T08:14:20Z</time>
      </trkpt>
      <trkpt lat="44.12102" lon="6.73041">
        <ele>1892.5538594395</ele>
        <time>2021-07-10T08:14:21Z</time>
      </trkpt>
      <trkpt lat="44.12101" lon="6.73042">
        <ele>1893.553869856</ele>
        <time>2021-07-10T08:14:22Z</time>
      </trkpt>
      <trkpt lat="44.12101" lon="6.73042">
        <ele>1893.5538874686</ele>
        <time>2021-07-10T08:14:24Z</time>
      </trkpt>
      <trkpt lat="44.12099" lon="6.73042">
        <ele>1893.5539358345</ele>
        <time>2021-07-10T08:14:25Z</time>
      </trkpt>
      <trkpt lat="44.12098" lon="6.73042">
        <ele>1893.553999918</ele>
        <time>2021-07-10T08:14:27Z</time>
      </trkpt>
      <trkpt lat="44.12097" lon="6.73042">
        <ele>1893.5540325195</ele>
        <time>2021-07-10T08:14:29Z</time>
      </trkpt>
      <trkpt lat="44.12095" lon="6.73042">
        <ele>1893.5540745159</ele>
        <time>2021-07-10T08:14:30Z</time>
      </trkpt>
      <trkpt lat="44.12095" lon="6.73043">
        <ele>1893.5541019497</ele>
        <time>2021-07-10T08:14:31Z</time>
      </trkpt>
      <trkpt lat="44.12093" lon="6.73043">
        <ele>1894.5541444734</ele>
        <time>2021-07-10T08:14:33Z</time>
      </trkpt>
      <trkpt lat="44.12092" lon="6.73043">
        <ele>1894.5541766353</ele>
        <time>2021-07-10T08:14:34Z</time>
      </trkpt>
      <trkpt lat="44.12092" lon="6.73043">
        <ele>1894.5541888418</ele>
        <time>2021-07-10T08:14:35Z</time>
      </trkpt>
      <trkpt lat="44.12091" lon="6.73043">
        <ele>1894.5542115783</ele>
        <time>2021-07-10T08:14:37Z</time>
      </trkpt>
      <trkpt lat="44.1209" lon="6.73043">
        <ele>1895.5542458501</ele>
        <time>2021-07-10T08:14:39Z</time>
      </trkpt>
      <trkpt lat="44.12089" lon="6.73044">
        <ele>1895.5542717863</ele>
        <time>2021-07-10T08:14:40Z</time>
      </trkpt>
      <trkpt lat="44.12088" lon="6.73043">
        <ele>1895.5543347205</ele>
        <time>2021-07-10T08:14:42Z</time>
      </trkpt>
      <trkpt lat="44.12087" lon="6.73043">
        <ele>1895.5543664795</ele>
        <time>2021-07-10T08:14:44Z</time>
      </trkpt>
      <trkpt lat="44.12087" lon="6.73043">
        <ele>1895.5543770822</ele>
        <time>2021-07-10T08:14:52Z</time>
      </trkpt>
      <trkpt lat="44.12085" lon="6.73044">
        <ele>1897.5544343766</ele>
        <time>2021-07-10T08:14:53Z</time>
      </trkpt>
      <trkpt lat="44.12084" lon="6.73045">
        <ele>1896.5544492864</ele>
        <time>2021-07-10T08:14:54Z</time>
      </trkpt>
      <trkpt lat="44.12083" lon="6.73046">
        <ele>1896.5544613719</ele>
        <time>2021-07-10T08:14:55Z</time>
      </trkpt>
      <trkpt lat="44.12083" lon="6.73046">
        <ele>1896.5544641786</ele>
        <time>2021-07-10T08:15:00Z</time>
      </trkpt>
      <trkpt lat="44.12081" lon="6.73048">
        <ele>1897.5545105951</ele>
        <time>2021-07-10T08:15:01Z</time>
      </trkpt>
      <trkpt lat="44.1208" lon="6.73047">
        <ele>1899.554559473</ele>
        <time>2021-07-10T08:15:03Z</time>
      </trkpt>
      <trkpt lat="44.12079" lon="6.73047">
        <ele>1899.554587749</ele>
        <time>2021-07-10T08:15:06Z</time>
      </trkpt>
      <trkpt lat="44.12077" lon="6.73046">
        <ele>1898.5546735687</ele>
        <time>2021-07-10T08:15:07Z</time>
      </trkpt>
      <trkpt lat="44.12077" lon="6.73044">
        <ele>1898.5547455027</ele>
        <time>2021-07-10T08:15:09Z</time>
      </trkpt>
      <trkpt lat="44.12076" lon="6.73043">
        <ele>1898.5547630467</ele>
        <time>2021-07-10T08:15:11Z</time>
      </trkpt>
      <trkpt lat="44.12075" lon="6.73042">
        <ele>1898.5548087256</ele>
        <time>2021-07-10T08:15:12Z</time>
      </trkpt>
      <trkpt lat="44.12075" lon="6.73042">
        <ele>1898.5548364452</ele>
        <time>2021-07-10T08:15:13Z</time>
      </trkpt>
      <trkpt lat="44.12074" lon="6.73041">
        <ele>1897.5548878492</ele>
        <time>2021-07-10T08:15:14Z</time>
      </trkpt>
      <trkpt lat="44.12073" lon="6.73041">
        <ele>1898.5549087516</ele>
        <time>2021-07-10T08:15:15Z</time>
      </trkpt>
      <trkpt lat="44.12073" lon="6.73041">
        <ele>1898.554934487</ele>
        <time>2021-07-10T08:15:16Z</time>
      </trkpt>
      <trkpt lat="44.12072" lon="6.73041">
        <ele>1898.5549602758</ele>
        <time>2021-07-10T08:15:17Z</time>
      </trkpt>
      <trkpt lat="44.12072" lon="6.7304">
        <ele>1898.5549901705</ele>
        <time>2021-07-10T08:15:18Z</time>
      </trkpt>
      <trkpt lat="44.12071" lon="6.7304">
        <ele>1899.5550229117</ele>
        <time>2021-07-10T08:15:21Z</time>
      </trkpt>
      <trkpt lat="44.12069" lon="6.7304">
        <ele>1900.5551102293</ele>
        <time>2021-07-10T08:15:22Z</time>
      </trkpt>
      <trkpt lat="44.12067" lon="6.7304">
        <ele>1900.5551751977</ele>
        <time>2021-07-10T08:15:24Z</time>
      </trkpt>
      <trkpt lat="44.12066" lon="6.7304">
        <ele>1900.555216873</ele>
        <time>2021-07-10T08:15:25Z</time>
      </trkpt>
      <trkpt lat="44.12065" lon="6.73039">
        <ele>1901.555244283</ele>
        <time>2021-07-10T08:15:26Z</time>
      </trkpt>
      <trkpt lat="44.12064" lon="6.73039">
        <ele>1901.5552811894</ele>
        <time>2021-07-10T08:15:30Z</time>
      </trkpt>
      <trkpt lat="44.12063" lon="6.73039">
        <ele>1901.5553302436</ele>
        <time>2021-07-10T08:15:31Z</time>
      </trkpt>
      <trkpt lat="44.12061" lon="6.73041">
        <ele>1900.555364041</ele>
        <time>2021-07-10T08:15:33Z</time>
      </trkpt>
      <trkpt lat="44.1206" lon="6.73042">
        <ele>1901.5553764564</ele>
        <time>2021-07-10T08:15:34Z</time>
      </trkpt>
      <trkpt lat="44.12059" lon="6.73042">
        <ele>1901.5553969033</ele>
        <time>2021-07-10T08:15:35Z</time>
      </trkpt>
      <trkpt lat="44.12058" lon="6.73043">
        <ele>1903.5554267839</ele>
        <time>2021-07-10T08:15:36Z</time>
      </trkpt>
      <trkpt lat="44.12058" lon="6.73043">
        <ele>1904.5554575034</ele>
        <time>2021-07-10T08:15:38Z</time>
      </trkpt>
      <trkpt lat="44.12057" lon="6.73043">
        <ele>1903.555468298</ele>
        <time>2021-07-10T08:15:39Z</time>
      </trkpt>
      <trkpt lat="44.12057" lon="6.73043">
        <ele>1904.5554859631</ele>
        <time>2021-07-10T08:15:41Z</time>
      </trkpt>
      <trkpt lat="44.12055" lon="6.73041">
        <ele>1903.5555754212</ele>
        <time>2021-07-10T08:15:42Z</time>
      </trkpt>
      <trkpt lat="44.12054" lon="6.7304">
        <ele>1903.5556351487</ele>
        <time>2021-07-10T08:15:44Z</time>
      </trkpt>
      <trkpt lat="44.12053" lon="6.7304">
        <ele>1903.5556705883</ele>
        <time>2021-07-10T08:15:45Z</time>
      </trkpt>
      <trkpt lat="44.12053" lon="6.73039">
        <ele>1904.5556992566</ele>
        <time>2021-07-10T08:15:46Z</time>
      </trkpt>
      <trkpt lat="44.12052" lon="6.7304">
        <ele>1904.5557120266</ele>
        <time>2021-07-10T08:15:47Z</time>
      </trkpt>
      <trkpt lat="44.12052" lon="6.7304">
        <ele>1904.5557243738</ele>
        <time>2021-07-10T08:15:52Z</time>
      </trkpt>
      <trkpt lat="44.1205" lon="6.73039">
        <ele>1904.5558144352</ele>
        <time>2021-07-10T08:15:54Z</time>
      </trkpt>
      <trkpt lat="44.12049" lon="6.7304">
        <ele>1904.5558209651</ele>
        <time>2021-07-10T08:15:55Z</time>
      </trkpt>
      <trkpt lat="44.12048" lon="6.73041">
        <ele>1905.5558378308</ele>
        <time>2021-07-10T08:15:56Z</time>
      </trkpt>
      <trkpt lat="44.12048" lon="6.73041">
        <ele>1905.555851488</ele>
        <time>2021-07-10T08:16:05Z</time>
      </trkpt>
      <trkpt lat="44.12045" lon="6.73041">
        <ele>1907.5559434226</ele>
        <time>2021-07-10T08:16:06Z</time>
      </trkpt>
      <trkpt lat="44.12045" lon="6.73041">
        <ele>1907.5559703482</ele>
        <time>2021-07-10T08:16:07Z</time>
      </trkpt>
      <trkpt lat="44.12044" lon="6.73041">
        <ele>1907.5559973159</ele>
        <time>2021-07-10T08:16:08Z</time>
      </trkpt>
      <trkpt lat="44.12044" lon="6.73042">
        <ele>1907.555992899</ele>
        <time>2021-07-10T08:16:09Z</time>
      </trkpt>
      <trkpt lat="44.12043" lon="6.73043">
        <ele>1908.5560132402</ele>
        <time>2021-07-10T08:16:10Z</time>
      </trkpt>
      <trkpt lat="44.12042" lon="6.73043">
        <ele>1908.556047516</ele>
        <time>2021-07-10T08:16:12Z</time>
      </trkpt>
      <trkpt lat="44.12041" lon="6.73043">
        <ele>1908.556086263</ele>
        <time>2021-07-10T08:16:13Z</time>
      </trkpt>
      <trkpt lat="44.12039" lon="6.73043">
        <ele>1908.5561200545</ele>
        <time>2021-07-10T08:16:14Z</time>
      </trkpt>
      <trkpt lat="44.12038" lon="6.73043">
        <ele>1908.5561647116</ele>
        <time>2021-07-10T08:16:15Z</time>
      </trkpt>
      <trkpt lat="44.12037" lon="6.73043">
        <ele>1908.5562134283</ele>
        <time>2021-07-10T08:16:16Z</time>
      </trkpt>
      <trkpt lat="44.12035" lon="6.73044">
        <ele>1909.5562545044</ele>
        <time>2021-07-10T08:16:18Z</time>
      </trkpt>
      <trkpt lat="44.12035" lon="6.73044">
        <ele>1908.5562699768</ele>
        <time>2021-07-10T08:16:19Z</time>
      </trkpt>
      <trkpt lat="44.12034" lon="6.73044">
        <ele>1909.5562926094</ele>
        <time>2021-07-10T08:16:20Z</time>
      </trkpt>
      <trkpt lat="44.12033" lon="6.73044">
        <ele>1908.5563306904</ele>
        <time>2021-07-10T08:16:21Z</time>
      </trkpt>
      <trkpt lat="44.12033" lon="6.73044">
        <ele>1908.5563650549</ele>
        <time>2021-07-10T08:16:22Z</time>
      </trkpt>
      <trkpt lat="44.12032" lon="6.73045">
        <ele>1908.5563598727</ele>
        <time>2021-07-10T08:16:23Z</time>
      </trkpt>
      <trkpt lat="44.12032" lon="6.73045">
        <ele>1908.5563689639</ele>
        <time>2021-07-10T08:16:24Z</time>
      </trkpt>
      <trkpt lat="44.12031" lon="6.73045">
        <ele>1908.5563961769</ele>
        <time>2021-07-10T08:16:25Z</time>
      </trkpt>
      <trkpt lat="44.1203" lon="6.73045">
        <ele>1907.5564512837</ele>
        <time>2021-07-10T08:16:27Z</time>
      </trkpt>
      <trkpt lat="44.12029" lon="6.73045">
        <ele>1907.5564784989</ele>
        <time>2021-07-10T08:16:28Z</time>
      </trkpt>
      <trkpt lat="44.12028" lon="6.73045">
        <ele>1907.5564925322</ele>
        <time>2021-07-10T08:16:29Z</time>
      </trkpt>
      <trkpt lat="44.12028" lon="6.73045">
        <ele>1908.5565095778</ele>
        <time>2021-07-10T08:16:30Z</time>
      </trkpt>
      <trkpt lat="44.12027" lon="6.73044">
        <ele>1908.5565463726</ele>
        <time>2021-07-10T08:16:33Z</time>
      </trkpt>
      <trkpt lat="44.12026" lon="6.73044">
        <ele>1908.5565984916</ele>
        <time>2021-07-10T08:16:34Z</time>
      </trkpt>
      <trkpt lat="44.12026" lon="6.73043">
        <ele>1908.5566229886</ele>
        <time>2021-07-10T08:16:35Z</time>
      </trkpt>
      <trkpt lat="44.12025" lon="6.73043">
        <ele>1908.5566565741</ele>
        <time>2021-07-10T08:16:36Z</time>
      </trkpt>
      <trkpt lat="44.12025" lon="6.73042">
        <ele>1908.5566955073</ele>
        <time>2021-07-10T08:16:37Z</time>
      </trkpt>
      <trkpt lat="44.12024" lon="6.73041">
        <ele>1908.5567230851</ele>
        <time>2021-07-10T08:16:38Z</time>
      </trkpt>
      <trkpt lat="44.12024" lon="6.7304">
        <ele>1908.55674773</ele>
        <time>2021-07-10T08:16:39Z</time>
      </trkpt>
      <trkpt lat="44.12024" lon="6.73039">
        <ele>1908.5567596877</ele>
        <time>2021-07-10T08:16:40Z</time>
      </trkpt>
      <trkpt lat="44.12025" lon="6.73037">
        <ele>1908.5567881404</ele>
        <time>2021-07-10T08:16:42Z</time>
      </trkpt>
      <trkpt lat="44.12025" lon="6.73035">
        <ele>1908.5568103577</ele>
        <time>2021-07-10T08:16:43Z</time>
      </trkpt>
      <trkpt lat="44.12025" lon="6.73034">
        <ele>1908.5568307541</ele>
        <time>2021-07-10T08:16:44Z</time>
      </trkpt>
      <trkpt lat="44.12025" lon="6.73033">
        <ele>1907.5568555347</ele>
        <time>2021-07-10T08:16:45Z</time>
      </trkpt>
      <trkpt lat="44.12025" lon="6.73032">
        <ele>1907.5568730155</ele>
        <time>2021-07-10T08:16:46Z</time>
      </trkpt>
      <trkpt lat="44.12024" lon="6.7303">
        <ele>1907.5569272634</ele>
        <time>2021-07-10T08:16:48Z</time>
      </trkpt>
      <trkpt lat="44.12024" lon="6.73029">
        <ele>1906.5569591391</ele>
        <time>2021-07-10T08:16:49Z</time>
      </trkpt>
      <trkpt lat="44.12024" lon="6.73028">
        <ele>1906.5569958183</ele>
        <time>2021-07-10T08:16:50Z</time>
      </trkpt>
      <trkpt lat="44.12024" lon="6.73027">
        <ele>1906.5570219241</ele>
        <time>2021-07-10T08:16:51Z</time>
      </trkpt>
      <trkpt lat="44.12023" lon="6.73024">
        <ele>1905.5570815107</ele>
        <time>2021-07-10T08:16:53Z</time>
      </trkpt>
      <trkpt lat="44.12023" lon="6.73022">
        <ele>1905.5571069362</ele>
        <time>2021-07-10T08:16:54Z</time>
      </trkpt>
      <trkpt lat="44.12024" lon="6.73022">
        <ele>1905.5571173147</ele>
        <time>2021-07-10T08:16:55Z</time>
      </trkpt>
      <trkpt lat="44.12024" lon="6.7302">
        <ele>1905.5571439855</ele>
        <time>2021-07-10T08:16:56Z</time>
      </trkpt>
      <trkpt lat="44.12023" lon="6.73019">
        <ele>1905.5571852275</ele>
        <time>2021-07-10T08:16:57Z</time>
      </trkpt>
      <trkpt lat="44.12023" lon="6.73018">
        <ele>1904.5572323672</ele>
        <time>2021-07-10T08:16:58Z</time>
      </trkpt>
      <trkpt lat="44.12022" lon="6.73016">
        <ele>1904.5572916681</ele>
        <time>2021-07-10T08:16:59Z</time>
      </trkpt>
      <trkpt lat="44.12022" lon="6.73014">
        <ele>1903.5573390343</ele>
        <time>2021-07-10T08:17:00Z</time>
      </trkpt>
      <trkpt lat="44.12021" lon="6.73013">
        <ele>1903.5573789712</ele>
        <time>2021-07-10T08:17:01Z</time>
      </trkpt>
      <trkpt lat="44.12021" lon="6.73011">
        <ele>1903.5574235586</ele>
        <time>2021-07-10T08:17:02Z</time>
      </trkpt>
      <trkpt lat="44.1202" lon="6.7301">
        <ele>1903.5574629322</ele>
        <time>2021-07-10T08:17:03Z</time>
      </trkpt>
      <trkpt lat="44.12019" lon="6.7301">
        <ele>1903.5575011967</ele>
        <time>2021-07-10T08:17:04Z</time>
      </trkpt>
      <trkpt lat="44.12018" lon="6.73009">
        <ele>1903.5575530389</ele>
        <time>2021-07-10T08:17:05Z</time>
      </trkpt>
      <trkpt lat="44.12017" lon="6.73008">
        <ele>1903.557612274</ele>
        <time>2021-07-10T08:17:06Z</time>
      </trkpt>
      <trkpt lat="44.12017" lon="6.73006">
        <ele>1904.5576623057</ele>
        <time>2021-07-10T08:17:07Z</time>
      </trkpt>
      <trkpt lat="44.12016" lon="6.73005">
        <ele>1904.5577216947</ele>
        <time>2021-07-10T08:17:08Z</time>
      </trkpt>
      <trkpt lat="44.12015" lon="6.73004">
        <ele>1904.5577608442</ele>
        <time>2021-07-10T08:17:09Z</time>
      </trkpt>
      <trkpt lat="44.12014" lon="6.73004">
        <ele>1904.5578016164</ele>
        <time>2021-07-10T08:17:10Z</time>
      </trkpt>
      <trkpt lat="44.12014" lon="6.73004">
        <ele>1904.557835295</ele>
        <time>2021-07-10T08:17:11Z</time>
      </trkpt>
      <trkpt lat="44.12013" lon="6.73003">
        <ele>1904.557871969</ele>
        <time>2021-07-10T08:17:12Z</time>
      </trkpt>
      <trkpt lat="44.12011" lon="6.73003">
        <ele>1905.5579266926</ele>
        <time>2021-07-10T08:17:13Z</time>
      </trkpt>
      <trkpt lat="44.1201" lon="6.73002">
        <ele>1905.5579880349</ele>
        <time>2021-07-10T08:17:14Z</time>
      </trkpt>
      <trkpt lat="44.12009" lon="6.73001">
        <ele>1905.5580404988</ele>
        <time>2021-07-10T08:17:15Z</time>
      </trkpt>
      <trkpt lat="44.12009" lon="6.73001">
        <ele>1906.5580751067</ele>
        <time>2021-07-10T08:17:16Z</time>
      </trkpt>
      <trkpt lat="44.12008" lon="6.73">
        <ele>1906.5581229322</ele>
        <time>2021-07-10T08:17:17Z</time>
      </trkpt>
      <trkpt lat="44.12008" lon="6.72999">
        <ele>1906.5581410681</ele>
        <time>2021-07-10T08:17:18Z</time>
      </trkpt>
      <trkpt lat="44.12006" lon="6.72996">
        <ele>1906.5582401401</ele>
        <time>2021-07-10T08:17:20Z</time>
      </trkpt>
      <trkpt lat="44.12006" lon="6.72996">
        <ele>1905.5582670287</ele>
        <time>2021-07-10T08:17:21Z</time>
      </trkpt>
      <trkpt lat="44.12005" lon="6.72995">
        <ele>1905.5583049774</ele>
        <time>2021-07-10T08:17:22Z</time>
      </trkpt>
      <trkpt lat="44.12005" lon="6.72994">
        <ele>1905.5583354487</ele>
        <time>2021-07-10T08:17:23Z</time>
      </trkpt>
      <trkpt lat="44.12004" lon="6.72993">
        <ele>1905.5583878992</ele>
        <time>2021-07-10T08:17:24Z</time>
      </trkpt>
      <trkpt lat="44.12003" lon="6.72991">
        <ele>1905.5584412219</ele>
        <time>2021-07-10T08:17:25Z</time>
      </trkpt>
      <trkpt lat="44.12003" lon="6.7299">
        <ele>1905.5584937138</ele>
        <time>2021-07-10T08:17:26Z</time>
      </trkpt>
      <trkpt lat="44.12002" lon="6.72989">
        <ele>1905.5585285498</ele>
        <time>2021-07-10T08:17:27Z</time>
      </trkpt>
      <trkpt lat="44.12002" lon="6.72988">
        <ele>1904.5585538184</ele>
        <time>2021-07-10T08:17:28Z</time>
      </trkpt>
      <trkpt lat="44.12002" lon="6.72987">
        <ele>1904.5585982024</ele>
        <time>2021-07-10T08:17:29Z</time>
      </trkpt>
      <trkpt lat="44.12001" lon="6.72986">
        <ele>1904.5586233752</ele>
        <time>2021-07-10T08:17:30Z</time>
      </trkpt>
      <trkpt lat="44.12001" lon="6.72985">
        <ele>1903.5586597085</ele>
        <time>2021-07-10T08:17:31Z</time>
      </trkpt>
      <trkpt lat="44.12" lon="6.72984">
        <ele>1904.5586995086</ele>
        <time>2021-07-10T08:17:32Z</time>
      </trkpt>
      <trkpt lat="44.12" lon="6.72983">
        <ele>1904.5587156746</ele>
        <time>2021-07-10T08:17:33Z</time>
      </trkpt>
      <trkpt lat="44.12" lon="6.72982">
        <ele>1905.5587396443</ele>
        <time>2021-07-10T08:17:34Z</time>
      </trkpt>
      <trkpt lat="44.12" lon="6.72982">
        <ele>1905.5587450781</ele>
        <time>2021-07-10T08:17:35Z</time>
      </trkpt>
      <trkpt lat="44.12001" lon="6.7298">
        <ele>1906.5587561445</ele>
        <time>2021-07-10T08:17:36Z</time>
      </trkpt>
      <trkpt lat="44.12" lon="6.72979">
        <ele>1905.5587831822</ele>
        <time>2021-07-10T08:17:37Z</time>
      </trkpt>
      <trkpt lat="44.12" lon="6.72978">
        <ele>1905.5588271821</ele>
        <time>2021-07-10T08:17:38Z</time>
      </trkpt>
      <trkpt lat="44.11999" lon="6.72977">
        <ele>1905.558866239</ele>
        <time>2021-07-10T08:17:40Z</time>
      </trkpt>
      <trkpt lat="44.11999" lon="6.72976">
        <ele>1905.558911748</ele>
        <time>2021-07-10T08:17:41Z</time>
      </trkpt>
      <trkpt lat="44.11999" lon="6.72974">
        <ele>1906.5589364025</ele>
        <time>2021-07-10T08:17:43Z</time>
      </trkpt>
      <trkpt lat="44.11998" lon="6.72975">
        <ele>1906.5589532458</ele>
        <time>2021-07-10T08:17:44Z</time>
      </trkpt>
      <trkpt lat="44.11998" lon="6.72973">
        <ele>1906.558986978</ele>
        <time>2021-07-10T08:17:45Z</time>
      </trkpt>
      <trkpt lat="44.11998" lon="6.72972">
        <ele>1905.5590206256</ele>
        <time>2021-07-10T08:17:46Z</time>
      </trkpt>
      <trkpt lat="44.11997" lon="6.72971">
        <ele>1905.5590548513</ele>
        <time>2021-07-10T08:17:47Z</time>
      </trkpt>
      <trkpt lat="44.11996" lon="6.7297">
        <ele>1906.5591187101</ele>
        <time>2021-07-10T08:17:49Z</time>
      </trkpt>
      <trkpt lat="44.11995" lon="6.7297">
        <ele>1906.5591386756</ele>
        <time>2021-07-10T08:17:50Z</time>
      </trkpt>
      <trkpt lat="44.11995" lon="6.7297">
        <ele>1906.5591823089</ele>
        <time>2021-07-10T08:17:51Z</time>
      </trkpt>
      <trkpt lat="44.11994" lon="6.72968">
        <ele>1905.5592491888</ele>
        <time>2021-07-10T08:17:53Z</time>
      </trkpt>
      <trkpt lat="44.11993" lon="6.72967">
        <ele>1905.5592832097</ele>
        <time>2021-07-10T08:17:54Z</time>
      </trkpt>
      <trkpt lat="44.11992" lon="6.72966">
        <ele>1905.5593243618</ele>
        <time>2021-07-10T08:17:55Z</time>
      </trkpt>
      <trkpt lat="44.11992" lon="6.72966">
        <ele>1905.5593612245</ele>
        <time>2021-07-10T08:17:56Z</time>
      </trkpt>
      <trkpt lat="44.11991" lon="6.72965">
        <ele>1904.5594078038</ele>
        <time>2021-07-10T08:17:57Z</time>
      </trkpt>
      <trkpt lat="44.1199" lon="6.72964">
        <ele>1905.5594668183</ele>
        <time>2021-07-10T08:17:59Z</time>
      </trkpt>
      <trkpt lat="44.11989" lon="6.72964">
        <ele>1904.5594811225</ele>
        <time>2021-07-10T08:18:00Z</time>
      </trkpt>
      <trkpt lat="44.11989" lon="6.72964">
        <ele>1905.5595041636</ele>
        <time>2021-07-10T08:18:01Z</time>
      </trkpt>
      <trkpt lat="44.11988" lon="6.72963">
        <ele>1905.559560116</ele>
        <time>2021-07-10T08:18:03Z</time>
      </trkpt>
      <trkpt lat="44.11987" lon="6.72961">
        <ele>1905.5596034117</ele>
        <time>2021-07-10T08:18:04Z</time>
      </trkpt>
      <trkpt lat="44.11987" lon="6.7296">
        <ele>1905.5596601364</ele>
        <time>2021-07-10T08:18:05Z</time>
      </trkpt>
      <trkpt lat="44.11986" lon="6.72959">
        <ele>1904.5596997144</ele>
        <time>2021-07-10T08:18:06Z</time>
      </trkpt>
      <trkpt lat="44.11985" lon="6.72959">
        <ele>1904.5597268573</ele>
        <time>2021-07-10T08:18:07Z</time>
      </trkpt>
      <trkpt lat="44.11984" lon="6.72958">
        <ele>1904.5597775008</ele>
        <time>2021-07-10T08:18:09Z</time>
      </trkpt>
      <trkpt lat="44.11984" lon="6.72957">
        <ele>1904.5598091531</ele>
        <time>2021-07-10T08:18:10Z</time>
      </trkpt>
      <trkpt lat="44.11983" lon="6.72957">
        <ele>1904.5598363126</ele>
        <time>2021-07-10T08:18:11Z</time>
      </trkpt>
      <trkpt lat="44.11983" lon="6.72957">
        <ele>1905.5598746093</ele>
        <time>2021-07-10T08:18:12Z</time>
      </trkpt>
      <trkpt lat="44.11982" lon="6.72956">
        <ele>1904.5599183544</ele>
        <time>2021-07-10T08:18:13Z</time>
      </trkpt>
      <trkpt lat="44.11981" lon="6.72954">
        <ele>1904.5599912769</ele>
        <time>2021-07-10T08:18:15Z</time>
      </trkpt>
      <trkpt lat="44.1198" lon="6.72953">
        <ele>1903.560028151</ele>
        <time>2021-07-10T08:18:16Z</time>
      </trkpt>
      <trkpt lat="44.1198" lon="6.72952">
        <ele>1903.5600502254</ele>
        <time>2021-07-10T08:18:17Z</time>
      </trkpt>
      <trkpt lat="44.1198" lon="6.72951">
        <ele>1903.560080598</ele>
        <time>2021-07-10T08:18:18Z</time>
      </trkpt>
      <trkpt lat="44.11979" lon="6.7295">
        <ele>1903.5601185524</ele>
        <time>2021-07-10T08:18:19Z</time>
      </trkpt>
      <trkpt lat="44.11979" lon="6.72949">
        <ele>1903.5601656199</ele>
        <time>2021-07-10T08:18:20Z</time>
      </trkpt>
      <trkpt lat="44.11978" lon="6.72948">
        <ele>1903.5602011882</ele>
        <time>2021-07-10T08:18:21Z</time>
      </trkpt>
      <trkpt lat="44.11977" lon="6.72946">
        <ele>1902.5602745186</ele>
        <time>2021-07-10T08:18:23Z</time>
      </trkpt>
      <trkpt lat="44.11977" lon="6.72946">
        <ele>1901.5603045538</ele>
        <time>2021-07-10T08:18:24Z</time>
      </trkpt>
      <trkpt lat="44.11976" lon="6.72944">
        <ele>1901.5603473051</ele>
        <time>2021-07-10T08:18:25Z</time>
      </trkpt>
      <trkpt lat="44.11976" lon="6.72942">
        <ele>1901.5603848781</ele>
        <time>2021-07-10T08:18:26Z</time>
      </trkpt>
      <trkpt lat="44.11976" lon="6.72942">
        <ele>1902.5603968988</ele>
        <time>2021-07-10T08:18:30Z</time>
      </trkpt>
      <trkpt lat="44.11976" lon="6.72941">
        <ele>1902.5603977014</ele>
        <time>2021-07-10T08:18:31Z</time>
      </trkpt>
      <trkpt lat="44.11976" lon="6.7294">
        <ele>1902.5604297995</ele>
        <time>2021-07-10T08:18:43Z</time>
      </trkpt>
      <trkpt lat="44.11976" lon="6.72939">
        <ele>1902.5604609281</ele>
        <time>2021-07-10T08:18:45Z</time>
      </trkpt>
      <trkpt lat="44.11975" lon="6.72938">
        <ele>1902.5605060413</ele>
        <time>2021-07-10T08:18:46Z</time>
      </trkpt>
      <trkpt lat="44.11974" lon="6.72938">
        <ele>1901.5605394157</ele>
        <time>2021-07-10T08:18:47Z</time>
      </trkpt>
      <trkpt lat="44.11974" lon="6.72937">
        <ele>1901.5605697605</ele>
        <time>2021-07-10T08:18:48Z</time>
      </trkpt>
      <trkpt lat="44.11973" lon="6.72937">
        <ele>1901.5605931524</ele>
        <time>2021-07-10T08:18:49Z</time>
      </trkpt>
      <trkpt lat="44.11973" lon="6.72936">
        <ele>1901.560633363</ele>
        <time>2021-07-10T08:18:50Z</time>
      </trkpt>
      <trkpt lat="44.11972" lon="6.72936">
        <ele>1901.5606513237</ele>
        <time>2021-07-10T08:18:57Z</time>
      </trkpt>
      <trkpt lat="44.1197" lon="6.72938">
        <ele>1902.5606708249</ele>
        <time>2021-07-10T08:18:59Z</time>
      </trkpt>
      <trkpt lat="44.11969" lon="6.72939">
        <ele>1903.5607100467</ele>
        <time>2021-07-10T08:19:00Z</time>
      </trkpt>
      <trkpt lat="44.11969" lon="6.72939">
        <ele>1903.5607255546</ele>
        <time>2021-07-10T08:19:01Z</time>
      </trkpt>
      <trkpt lat="44.11967" lon="6.72939">
        <ele>1904.5607878654</ele>
        <time>2021-07-10T08:19:03Z</time>
      </trkpt>
      <trkpt lat="44.11966" lon="6.7294">
        <ele>1904.5608186504</ele>
        <time>2021-07-10T08:19:04Z</time>
      </trkpt>
      <trkpt lat="44.11965" lon="6.7294">
        <ele>1905.5608564574</ele>
        <time>2021-07-10T08:19:05Z</time>
      </trkpt>
      <trkpt lat="44.11964" lon="6.7294">
        <ele>1906.5608885135</ele>
        <time>2021-07-10T08:19:06Z</time>
      </trkpt>
      <trkpt lat="44.11963" lon="6.7294">
        <ele>1906.5609166715</ele>
        <time>2021-07-10T08:19:07Z</time>
      </trkpt>
      <trkpt lat="44.11962" lon="6.72939">
        <ele>1907.5609702158</ele>
        <time>2021-07-10T08:19:09Z</time>
      </trkpt>
      <trkpt lat="44.11961" lon="6.72939">
        <ele>1907.5609979539</ele>
        <time>2021-07-10T08:19:11Z</time>
      </trkpt>
      <trkpt lat="44.1196" lon="6.72938">
        <ele>1908.5610352761</ele>
        <time>2021-07-10T08:19:12Z</time>
      </trkpt>
      <trkpt lat="44.1196" lon="6.72938">
        <ele>1908.5610720211</ele>
        <time>2021-07-10T08:19:13Z</time>
      </trkpt>
      <trkpt lat="44.11958" lon="6.72937">
        <ele>1908.5611310874</ele>
        <time>2021-07-10T08:19:15Z</time>
      </trkpt>
      <trkpt lat="44.11958" lon="6.72938">
        <ele>1909.561138718</ele>
        <time>2021-07-10T08:19:16Z</time>
      </trkpt>
      <trkpt lat="44.11957" lon="6.72939">
        <ele>1909.5611469613</ele>
        <time>2021-07-10T08:19:17Z</time>
      </trkpt>
      <trkpt lat="44.11957" lon="6.72939">
        <ele>1910.5611594694</ele>
        <time>2021-07-10T08:19:24Z</time>
      </trkpt>
      <trkpt lat="44.11956" lon="6.72939">
        <ele>1909.5611942628</ele>
        <time>2021-07-10T08:19:25Z</time>
      </trkpt>
      <trkpt lat="44.11955" lon="6.7294">
        <ele>1909.5612044556</ele>
        <time>2021-07-10T08:19:26Z</time>
      </trkpt>
      <trkpt lat="44.11955" lon="6.7294">
        <ele>1909.561213065</ele>
        <time>2021-07-10T08:19:27Z</time>
      </trkpt>
      <trkpt lat="44.11954" lon="6.7294">
        <ele>1910.5612251437</ele>
        <time>2021-07-10T08:19:30Z</time>
      </trkpt>
      <trkpt lat="44.11954" lon="6.72941">
        <ele>1912.5612153458</ele>
        <time>2021-07-10T08:19:31Z</time>
      </trkpt>
      <trkpt lat="44.11953" lon="6.72942">
        <ele>1912.5612288206</ele>
        <time>2021-07-10T08:19:33Z</time>
      </trkpt>
      <trkpt lat="44.11953" lon="6.72943">
        <ele>1911.5612316441</ele>
        <time>2021-07-10T08:19:34Z</time>
      </trkpt>
      <trkpt lat="44.11952" lon="6.72943">
        <ele>1910.5612414935</ele>
        <time>2021-07-10T08:19:36Z</time>
      </trkpt>
      <trkpt lat="44.11952" lon="6.72945">
        <ele>1911.561243925</ele>
        <time>2021-07-10T08:19:38Z</time>
      </trkpt>
      <trkpt lat="44.11951" lon="6.72946">
        <ele>1911.5612345577</ele>
        <time>2021-07-10T08:19:39Z</time>
      </trkpt>
      <trkpt lat="44.1195" lon="6.72946">
        <ele>1911.5612772352</ele>
        <time>2021-07-10T08:19:40Z</time>
      </trkpt>
      <trkpt lat="44.11949" lon="6.72945">
        <ele>1910.5613209633</ele>
        <time>2021-07-10T08:19:41Z</time>
      </trkpt>
      <trkpt lat="44.11949" lon="6.72946">
        <ele>1910.5613266766</ele>
        <time>2021-07-10T08:19:43Z</time>
      </trkpt>
      <trkpt lat="44.11948" lon="6.72946">
        <ele>1910.5613329611</ele>
        <time>2021-07-10T08:19:44Z</time>
      </trkpt>
      <trkpt lat="44.11947" lon="6.72946">
        <ele>1910.5613593509</ele>
        <time>2021-07-10T08:19:45Z</time>
      </trkpt>
      <trkpt lat="44.11947" lon="6.72946">
        <ele>1910.561388115</ele>
        <time>2021-07-10T08:19:46Z</time>
      </trkpt>
      <trkpt lat="44.11947" lon="6.72946">
        <ele>1910.5614080687</ele>
        <time>2021-07-10T08:19:49Z</time>
      </trkpt>
      <trkpt lat="44.11945" lon="6.72945">
        <ele>1909.5614686277</ele>
        <time>2021-07-10T08:19:50Z</time>
      </trkpt>
      <trkpt lat="44.11944" lon="6.72945">
        <ele>1910.5614942986</ele>
        <time>2021-07-10T08:19:51Z</time>
      </trkpt>
      <trkpt lat="44.11944" lon="6.72945">
        <ele>1910.5615326661</ele>
        <time>2021-07-10T08:19:52Z</time>
      </trkpt>
      <trkpt lat="44.11943" lon="6.72944">
        <ele>1910.5615568127</ele>
        <time>2021-07-10T08:19:53Z</time>
      </trkpt>
      <trkpt lat="44.11942" lon="6.72945">
        <ele>1909.5615797635</ele>
        <time>2021-07-10T08:19:54Z</time>
      </trkpt>
      <trkpt lat="44.11942" lon="6.72945">
        <ele>1909.5615797635</ele>
        <time>2021-07-10T08:19:56Z</time>
      </trkpt>
      <trkpt lat="44.11941" lon="6.72945">
        <ele>1909.5616446191</ele>
        <time>2021-07-10T08:19:57Z</time>
      </trkpt>
      <trkpt lat="44.1194" lon="6.72945">
        <ele>1910.5616688687</ele>
        <time>2021-07-10T08:19:58Z</time>
      </trkpt>
      <trkpt lat="44.11939" lon="6.72945">
        <ele>1910.5616997374</ele>
        <time>2021-07-10T08:20:00Z</time>
      </trkpt>
      <trkpt lat="44.11939" lon="6.72946">
        <ele>1910.5617020292</ele>
        <time>2021-07-10T08:20:02Z</time>
      </trkpt>
      <trkpt lat="44.11938" lon="6.72946">
        <ele>1909.5617165796</ele>
        <time>2021-07-10T08:20:03Z</time>
      </trkpt>
      <trkpt lat="44.11937" lon="6.72947">
        <ele>1909.5617293469</ele>
        <time>2021-07-10T08:20:04Z</time>
      </trkpt>
      <trkpt lat="44.11937" lon="6.72946">
        <ele>1910.56176091</ele>
        <time>2021-07-10T08:20:05Z</time>
      </trkpt>
      <trkpt lat="44.11936" lon="6.72947">
        <ele>1911.5617895094</ele>
        <time>2021-07-10T08:20:06Z</time>
      </trkpt>
      <trkpt lat="44.11935" lon="6.72947">
        <ele>1911.5617932239</ele>
        <time>2021-07-10T08:20:07Z</time>
      </trkpt>
      <trkpt lat="44.11935" lon="6.72947">
        <ele>1911.5618184474</ele>
        <time>2021-07-10T08:20:09Z</time>
      </trkpt>
      <trkpt lat="44.11933" lon="6.72948">
        <ele>1912.5618557384</ele>
        <time>2021-07-10T08:20:10Z</time>
      </trkpt>
      <trkpt lat="44.11932" lon="6.72948">
        <ele>1912.5618917148</ele>
        <time>2021-07-10T08:20:14Z</time>
      </trkpt>
      <trkpt lat="44.11932" lon="6.72948">
        <ele>1912.561900689</ele>
        <time>2021-07-10T08:20:15Z</time>
      </trkpt>
      <trkpt lat="44.11931" lon="6.72948">
        <ele>1912.5619329352</ele>
        <time>2021-07-10T08:20:16Z</time>
      </trkpt>
      <trkpt lat="44.1193" lon="6.72948">
        <ele>1912.5619689791</ele>
        <time>2021-07-10T08:20:17Z</time>
      </trkpt>
      <trkpt lat="44.1193" lon="6.72948">
        <ele>1912.5619908856</ele>
        <time>2021-07-10T08:20:18Z</time>
      </trkpt>
      <trkpt lat="44.11929" lon="6.72948">
        <ele>1912.5620189522</ele>
        <time>2021-07-10T08:20:19Z</time>
      </trkpt>
      <trkpt lat="44.11928" lon="6.72948">
        <ele>1913.5620488059</ele>
        <time>2021-07-10T08:20:20Z</time>
      </trkpt>
      <trkpt lat="44.11927" lon="6.72948">
        <ele>1913.5620827502</ele>
        <time>2021-07-10T08:20:21Z</time>
      </trkpt>
      <trkpt lat="44.11926" lon="6.72949">
        <ele>1913.5620895501</ele>
        <time>2021-07-10T08:20:22Z</time>
      </trkpt>
      <trkpt lat="44.11925" lon="6.72949">
        <ele>1914.5621180422</ele>
        <time>2021-07-10T08:20:23Z</time>
      </trkpt>
      <trkpt lat="44.11925" lon="6.72949">
        <ele>1914.5621502648</ele>
        <time>2021-07-10T08:20:25Z</time>
      </trkpt>
      <trkpt lat="44.11924" lon="6.72949">
        <ele>1915.5621662843</ele>
        <time>2021-07-10T08:20:26Z</time>
      </trkpt>
      <trkpt lat="44.11923" lon="6.7295">
        <ele>1915.5621794473</ele>
        <time>2021-07-10T08:20:27Z</time>
      </trkpt>
      <trkpt lat="44.11922" lon="6.72951">
        <ele>1915.5622013354</ele>
        <time>2021-07-10T08:20:28Z</time>
      </trkpt>
      <trkpt lat="44.11922" lon="6.72952">
        <ele>1915.5622033972</ele>
        <time>2021-07-10T08:20:29Z</time>
      </trkpt>
      <trkpt lat="44.11921" lon="6.72953">
        <ele>1915.5622163546</ele>
        <time>2021-07-10T08:20:30Z</time>
      </trkpt>
      <trkpt lat="44.1192" lon="6.72954">
        <ele>1915.5622354306</ele>
        <time>2021-07-10T08:20:31Z</time>
      </trkpt>
      <trkpt lat="44.11919" lon="6.72955">
        <ele>1915.5622624956</ele>
        <time>2021-07-10T08:20:33Z</time>
      </trkpt>
      <trkpt lat="44.11918" lon="6.72955">
        <ele>1915.5622934992</ele>
        <time>2021-07-10T08:20:35Z</time>
      </trkpt>
      <trkpt lat="44.11917" lon="6.72954">
        <ele>1915.5623170547</ele>
        <time>2021-07-10T08:20:36Z</time>
      </trkpt>
      <trkpt lat="44.11916" lon="6.72954">
        <ele>1915.5623816162</ele>
        <time>2021-07-10T08:20:38Z</time>
      </trkpt>
      <trkpt lat="44.11914" lon="6.72954">
        <ele>1916.5624378402</ele>
        <time>2021-07-10T08:20:40Z</time>
      </trkpt>
      <trkpt lat="44.11913" lon="6.72955">
        <ele>1916.5624536666</ele>
        <time>2021-07-10T08:20:41Z</time>
      </trkpt>
      <trkpt lat="44.11912" lon="6.72956">
        <ele>1916.5624755139</ele>
        <time>2021-07-10T08:20:42Z</time>
      </trkpt>
      <trkpt lat="44.11911" lon="6.72957">
        <ele>1917.5624967939</ele>
        <time>2021-07-10T08:20:43Z</time>
      </trkpt>
      <trkpt lat="44.1191" lon="6.72958">
        <ele>1918.5625223599</ele>
        <time>2021-07-10T08:20:45Z</time>
      </trkpt>
      <trkpt lat="44.11909" lon="6.72959">
        <ele>1919.5625391578</ele>
        <time>2021-07-10T08:20:46Z</time>
      </trkpt>
      <trkpt lat="44.11909" lon="6.72959">
        <ele>1918.5625411101</ele>
        <time>2021-07-10T08:20:47Z</time>
      </trkpt>
      <trkpt lat="44.11908" lon="6.7296">
        <ele>1918.5625509308</ele>
        <time>2021-07-10T08:20:50Z</time>
      </trkpt>
      <trkpt lat="44.11906" lon="6.72962">
        <ele>1920.562571523</ele>
        <time>2021-07-10T08:20:51Z</time>
      </trkpt>
      <trkpt lat="44.11906" lon="6.72962">
        <ele>1920.5625921265</ele>
        <time>2021-07-10T08:20:52Z</time>
      </trkpt>
      <trkpt lat="44.11904" lon="6.72963">
        <ele>1920.5626611885</ele>
        <time>2021-07-10T08:20:54Z</time>
      </trkpt>
      <trkpt lat="44.11903" lon="6.72963">
        <ele>1922.5626793449</ele>
        <time>2021-07-10T08:20:55Z</time>
      </trkpt>
      <trkpt lat="44.11902" lon="6.72964">
        <ele>1922.5627028043</ele>
        <time>2021-07-10T08:20:56Z</time>
      </trkpt>
      <trkpt lat="44.11901" lon="6.72964">
        <ele>1922.5627298828</ele>
        <time>2021-07-10T08:20:57Z</time>
      </trkpt>
      <trkpt lat="44.119" lon="6.72961">
        <ele>1922.5628151373</ele>
        <time>2021-07-10T08:20:59Z</time>
      </trkpt>
      <trkpt lat="44.11899" lon="6.72961">
        <ele>1922.5628633598</ele>
        <time>2021-07-10T08:21:00Z</time>
      </trkpt>
      <trkpt lat="44.11898" lon="6.72961">
        <ele>1922.5628965627</ele>
        <time>2021-07-10T08:21:01Z</time>
      </trkpt>
      <trkpt lat="44.11897" lon="6.72961">
        <ele>1923.5629366129</ele>
        <time>2021-07-10T08:21:02Z</time>
      </trkpt>
      <trkpt lat="44.11896" lon="6.72961">
        <ele>1923.5629621298</ele>
        <time>2021-07-10T08:21:03Z</time>
      </trkpt>
      <trkpt lat="44.11895" lon="6.72962">
        <ele>1923.562972889</ele>
        <time>2021-07-10T08:21:04Z</time>
      </trkpt>
      <trkpt lat="44.11894" lon="6.72962">
        <ele>1922.5630051333</ele>
        <time>2021-07-10T08:21:05Z</time>
      </trkpt>
      <trkpt lat="44.11893" lon="6.72963">
        <ele>1922.5630469365</ele>
        <time>2021-07-10T08:21:06Z</time>
      </trkpt>
      <trkpt lat="44.11892" lon="6.72963">
        <ele>1923.5630734806</ele>
        <time>2021-07-10T08:21:07Z</time>
      </trkpt>
      <trkpt lat="44.11891" lon="6.72963">
        <ele>1923.5630987335</ele>
        <time>2021-07-10T08:21:08Z</time>
      </trkpt>
      <trkpt lat="44.1189" lon="6.72964">
        <ele>1924.5631300696</ele>
        <time>2021-07-10T08:21:09Z</time>
      </trkpt>
      <trkpt lat="44.11889" lon="6.72964">
        <ele>1924.5631595972</ele>
        <time>2021-07-10T08:21:10Z</time>
      </trkpt>
      <trkpt lat="44.11888" lon="6.72964">
        <ele>1924.5632118131</ele>
        <time>2021-07-10T08:21:11Z</time>
      </trkpt>
      <trkpt lat="44.11887" lon="6.72963">
        <ele>1924.5632623377</ele>
        <time>2021-07-10T08:21:12Z</time>
      </trkpt>
      <trkpt lat="44.11886" lon="6.72964">
        <ele>1923.5632903905</ele>
        <time>2021-07-10T08:21:13Z</time>
      </trkpt>
      <trkpt lat="44.11885" lon="6.72964">
        <ele>1924.5633241106</ele>
        <time>2021-07-10T08:21:14Z</time>
      </trkpt>
      <trkpt lat="44.11884" lon="6.72965">
        <ele>1924.5633339371</ele>
        <time>2021-07-10T08:21:15Z</time>
      </trkpt>
      <trkpt lat="44.11883" lon="6.72966">
        <ele>1924.563352006</ele>
        <time>2021-07-10T08:21:16Z</time>
      </trkpt>
      <trkpt lat="44.11882" lon="6.72968">
        <ele>1924.5633739874</ele>
        <time>2021-07-10T08:21:18Z</time>
      </trkpt>
      <trkpt lat="44.1188" lon="6.72968">
        <ele>1923.5634054053</ele>
        <time>2021-07-10T08:21:19Z</time>
      </trkpt>
      <trkpt lat="44.1188" lon="6.72968">
        <ele>1923.5634282046</ele>
        <time>2021-07-10T08:21:20Z</time>
      </trkpt>
      <trkpt lat="44.11879" lon="6.72968">
        <ele>1923.5634455289</ele>
        <time>2021-07-10T08:21:21Z</time>
      </trkpt>
      <trkpt lat="44.11879" lon="6.72968">
        <ele>1924.5634818534</ele>
        <time>2021-07-10T08:21:22Z</time>
      </trkpt>
      <trkpt lat="44.11877" lon="6.72968">
        <ele>1924.5635420029</ele>
        <time>2021-07-10T08:21:24Z</time>
      </trkpt>
      <trkpt lat="44.11876" lon="6.72968">
        <ele>1924.5635634503</ele>
        <time>2021-07-10T08:21:25Z</time>
      </trkpt>
      <trkpt lat="44.11874" lon="6.72969">
        <ele>1924.56361884</ele>
        <time>2021-07-10T08:21:26Z</time>
      </trkpt>
      <trkpt lat="44.11873" lon="6.72969">
        <ele>1925.5636525594</ele>
        <time>2021-07-10T08:21:27Z</time>
      </trkpt>
      <trkpt lat="44.11872" lon="6.7297">
        <ele>1925.5636708212</ele>
        <time>2021-07-10T08:21:28Z</time>
      </trkpt>
      <trkpt lat="44.11872" lon="6.7297">
        <ele>1926.5636844638</ele>
        <time>2021-07-10T08:21:29Z</time>
      </trkpt>
      <trkpt lat="44.11871" lon="6.72971">
        <ele>1926.563718231</ele>
        <time>2021-07-10T08:21:30Z</time>
      </trkpt>
      <trkpt lat="44.1187" lon="6.72971">
        <ele>1927.5637459201</ele>
        <time>2021-07-10T08:21:31Z</time>
      </trkpt>
      <trkpt lat="44.11869" lon="6.72971">
        <ele>1928.5637918617</ele>
        <time>2021-07-10T08:21:33Z</time>
      </trkpt>
      <trkpt lat="44.11868" lon="6.72971">
        <ele>1927.5638257742</ele>
        <time>2021-07-10T08:21:36Z</time>
      </trkpt>
      <trkpt lat="44.11866" lon="6.72972">
        <ele>1928.5638550532</ele>
        <time>2021-07-10T08:21:37Z</time>
      </trkpt>
      <trkpt lat="44.11865" lon="6.72972">
        <ele>1929.5638859854</ele>
        <time>2021-07-10T08:21:39Z</time>
      </trkpt>
      <trkpt lat="44.11865" lon="6.72972">
        <ele>1929.5639145098</ele>
        <time>2021-07-10T08:21:40Z</time>
      </trkpt>
      <trkpt lat="44.11863" lon="6.72972">
        <ele>1929.5639644651</ele>
        <time>2021-07-10T08:21:41Z</time>
      </trkpt>
      <trkpt lat="44.11862" lon="6.72972">
        <ele>1929.5639997975</ele>
        <time>2021-07-10T08:21:42Z</time>
      </trkpt>
      <trkpt lat="44.11862" lon="6.72971">
        <ele>1929.5640369983</ele>
        <time>2021-07-10T08:21:43Z</time>
      </trkpt>
      <trkpt lat="44.11861" lon="6.72972">
        <ele>1928.5640563243</ele>
        <time>2021-07-10T08:21:44Z</time>
      </trkpt>
      <trkpt lat="44.1186" lon="6.72972">
        <ele>1928.5640932131</ele>
        <time>2021-07-10T08:21:45Z</time>
      </trkpt>
      <trkpt lat="44.11859" lon="6.72972">
        <ele>1928.5641251052</ele>
        <time>2021-07-10T08:21:46Z</time>
      </trkpt>
      <trkpt lat="44.11859" lon="6.72972">
        <ele>1929.5641402558</ele>
        <time>2021-07-10T08:21:47Z</time>
      </trkpt>
      <trkpt lat="44.11858" lon="6.72973">
        <ele>1928.5641410718</ele>
        <time>2021-07-10T08:21:49Z</time>
      </trkpt>
      <trkpt lat="44.11858" lon="6.72972">
        <ele>1929.5641734921</ele>
        <time>2021-07-10T08:21:51Z</time>
      </trkpt>
      <trkpt lat="44.11857" lon="6.72973">
        <ele>1928.5641802293</ele>
        <time>2021-07-10T08:21:52Z</time>
      </trkpt>
      <trkpt lat="44.11856" lon="6.72975">
        <ele>1928.5641830294</ele>
        <time>2021-07-10T08:21:54Z</time>
      </trkpt>
      <trkpt lat="44.11855" lon="6.72975">
        <ele>1929.5641980451</ele>
        <time>2021-07-10T08:21:57Z</time>
      </trkpt>
      <trkpt lat="44.11854" lon="6.72975">
        <ele>1930.5642278148</ele>
        <time>2021-07-10T08:21:58Z</time>
      </trkpt>
      <trkpt lat="44.11854" lon="6.72975">
        <ele>1930.564244578</ele>
        <time>2021-07-10T08:21:59Z</time>
      </trkpt>
      <trkpt lat="44.11853" lon="6.72975">
        <ele>1930.5642609135</ele>
        <time>2021-07-10T08:22:00Z</time>
      </trkpt>
      <trkpt lat="44.11853" lon="6.72976">
        <ele>1929.5642779726</ele>
        <time>2021-07-10T08:22:01Z</time>
      </trkpt>
      <trkpt lat="44.11852" lon="6.72976">
        <ele>1929.5642870871</ele>
        <time>2021-07-10T08:22:03Z</time>
      </trkpt>
      <trkpt lat="44.11851" lon="6.72976">
        <ele>1929.5643471701</ele>
        <time>2021-07-10T08:22:05Z</time>
      </trkpt>
      <trkpt lat="44.1185" lon="6.72976">
        <ele>1929.5643803052</ele>
        <time>2021-07-10T08:22:06Z</time>
      </trkpt>
      <trkpt lat="44.11849" lon="6.72975">
        <ele>1929.5644215102</ele>
        <time>2021-07-10T08:22:07Z</time>
      </trkpt>
      <trkpt lat="44.11848" lon="6.72975">
        <ele>1928.5644675353</ele>
        <time>2021-07-10T08:22:09Z</time>
      </trkpt>
      <trkpt lat="44.11847" lon="6.72976">
        <ele>1928.5645041148</ele>
        <time>2021-07-10T08:22:10Z</time>
      </trkpt>
      <trkpt lat="44.11846" lon="6.72976">
        <ele>1928.5645261897</ele>
        <time>2021-07-10T08:22:11Z</time>
      </trkpt>
      <trkpt lat="44.11845" lon="6.72976">
        <ele>1928.564540548</ele>
        <time>2021-07-10T08:22:12Z</time>
      </trkpt>
      <trkpt lat="44.11844" lon="6.72977">
        <ele>1929.5645943546</ele>
        <time>2021-07-10T08:22:14Z</time>
      </trkpt>
      <trkpt lat="44.11843" lon="6.72978">
        <ele>1928.564615969</ele>
        <time>2021-07-10T08:22:15Z</time>
      </trkpt>
      <trkpt lat="44.11842" lon="6.72978">
        <ele>1929.5646455829</ele>
        <time>2021-07-10T08:22:16Z</time>
      </trkpt>
      <trkpt lat="44.1184" lon="6.7298">
        <ele>1929.5646876723</ele>
        <time>2021-07-10T08:22:18Z</time>
      </trkpt>
      <trkpt lat="44.11838" lon="6.72981">
        <ele>1928.5647366594</ele>
        <time>2021-07-10T08:22:20Z</time>
      </trkpt>
      <trkpt lat="44.11837" lon="6.72981">
        <ele>1928.5647576222</ele>
        <time>2021-07-10T08:22:21Z</time>
      </trkpt>
      <trkpt lat="44.11836" lon="6.72982">
        <ele>1929.5647717217</ele>
        <time>2021-07-10T08:22:22Z</time>
      </trkpt>
      <trkpt lat="44.11836" lon="6.72982">
        <ele>1928.5647973275</ele>
        <time>2021-07-10T08:22:23Z</time>
      </trkpt>
      <trkpt lat="44.11835" lon="6.72983">
        <ele>1928.5648027406</ele>
        <time>2021-07-10T08:22:24Z</time>
      </trkpt>
      <trkpt lat="44.11834" lon="6.72983">
        <ele>1928.5648133603</ele>
        <time>2021-07-10T08:22:26Z</time>
      </trkpt>
      <trkpt lat="44.11834" lon="6.72984">
        <ele>1928.5648223914</ele>
        <time>2021-07-10T08:22:27Z</time>
      </trkpt>
      <trkpt lat="44.11833" lon="6.72984">
        <ele>1927.5648353127</ele>
        <time>2021-07-10T08:22:28Z</time>
      </trkpt>
      <trkpt lat="44.11833" lon="6.72985">
        <ele>1928.5648530294</ele>
        <time>2021-07-10T08:22:29Z</time>
      </trkpt>
      <trkpt lat="44.11832" lon="6.72985">
        <ele>1928.5648706852</ele>
        <time>2021-07-10T08:22:30Z</time>
      </trkpt>
      <trkpt lat="44.11831" lon="6.72985">
        <ele>1928.5649057441</ele>
        <time>2021-07-10T08:22:32Z</time>
      </trkpt>
      <trkpt lat="44.11831" lon="6.72984">
        <ele>1928.5649335996</ele>
        <time>2021-07-10T08:22:35Z</time>
      </trkpt>
      <trkpt lat="44.1183" lon="6.72983">
        <ele>1930.5649824147</ele>
        <time>2021-07-10T08:22:36Z</time>
      </trkpt>
      <trkpt lat="44.11829" lon="6.72984">
        <ele>1931.5649976454</ele>
        <time>2021-07-10T08:22:38Z</time>
      </trkpt>
      <trkpt lat="44.11828" lon="6.72985">
        <ele>1931.5650159655</ele>
        <time>2021-07-10T08:22:39Z</time>
      </trkpt>
      <trkpt lat="44.11828" lon="6.72985">
        <ele>1931.5650274125</ele>
        <time>2021-07-10T08:22:40Z</time>
      </trkpt>
      <trkpt lat="44.11826" lon="6.72987">
        <ele>1932.5650495292</ele>
        <time>2021-07-10T08:22:42Z</time>
      </trkpt>
      <trkpt lat="44.11825" lon="6.72987">
        <ele>1933.565073714</ele>
        <time>2021-07-10T08:22:43Z</time>
      </trkpt>
      <trkpt lat="44.11825" lon="6.72987">
        <ele>1933.5651004038</ele>
        <time>2021-07-10T08:22:44Z</time>
      </trkpt>
      <trkpt lat="44.11824" lon="6.72987">
        <ele>1933.5651319535</ele>
        <time>2021-07-10T08:22:45Z</time>
      </trkpt>
      <trkpt lat="44.11823" lon="6.72987">
        <ele>1933.565164494</ele>
        <time>2021-07-10T08:22:46Z</time>
      </trkpt>
      <trkpt lat="44.11822" lon="6.72988">
        <ele>1933.5651763099</ele>
        <time>2021-07-10T08:22:47Z</time>
      </trkpt>
      <trkpt lat="44.11821" lon="6.72989">
        <ele>1934.5651930118</ele>
        <time>2021-07-10T08:22:48Z</time>
      </trkpt>
      <trkpt lat="44.11821" lon="6.72989">
        <ele>1934.5652172495</ele>
        <time>2021-07-10T08:22:49Z</time>
      </trkpt>
      <trkpt lat="44.11819" lon="6.7299">
        <ele>1934.5652430196</ele>
        <time>2021-07-10T08:22:50Z</time>
      </trkpt>
      <trkpt lat="44.11818" lon="6.72991">
        <ele>1935.5652663391</ele>
        <time>2021-07-10T08:22:51Z</time>
      </trkpt>
      <trkpt lat="44.11817" lon="6.72991">
        <ele>1935.5652901251</ele>
        <time>2021-07-10T08:22:52Z</time>
      </trkpt>
      <trkpt lat="44.11815" lon="6.72992">
        <ele>1935.5653464766</ele>
        <time>2021-07-10T08:22:54Z</time>
      </trkpt>
      <trkpt lat="44.11814" lon="6.72993">
        <ele>1934.5653928843</ele>
        <time>2021-07-10T08:22:55Z</time>
      </trkpt>
      <trkpt lat="44.11813" lon="6.72993">
        <ele>1933.5654193703</ele>
        <time>2021-07-10T08:22:56Z</time>
      </trkpt>
      <trkpt lat="44.11812" lon="6.72994">
        <ele>1933.565427708</ele>
        <time>2021-07-10T08:22:57Z</time>
      </trkpt>
      <trkpt lat="44.11812" lon="6.72994">
        <ele>1934.5654351871</ele>
        <time>2021-07-10T08:22:58Z</time>
      </trkpt>
      <trkpt lat="44.11811" lon="6.72995">
        <ele>1934.5654460964</ele>
        <time>2021-07-10T08:22:59Z</time>
      </trkpt>
      <trkpt lat="44.1181" lon="6.72996">
        <ele>1933.5654577926</ele>
        <time>2021-07-10T08:23:00Z</time>
      </trkpt>
      <trkpt lat="44.11809" lon="6.72997">
        <ele>1933.5654732326</ele>
        <time>2021-07-10T08:23:01Z</time>
      </trkpt>
      <trkpt lat="44.11808" lon="6.72998">
        <ele>1932.5654890389</ele>
        <time>2021-07-10T08:23:03Z</time>
      </trkpt>
      <trkpt lat="44.11807" lon="6.72999">
        <ele>1932.5655199757</ele>
        <time>2021-07-10T08:23:04Z</time>
      </trkpt>
      <trkpt lat="44.11807" lon="6.72999">
        <ele>1932.565538017</ele>
        <time>2021-07-10T08:23:05Z</time>
      </trkpt>
      <trkpt lat="44.11806" lon="6.73">
        <ele>1933.5655487964</ele>
        <time>2021-07-10T08:23:06Z</time>
      </trkpt>
      <trkpt lat="44.11806" lon="6.73">
        <ele>1933.5655570672</ele>
        <time>2021-07-10T08:23:07Z</time>
      </trkpt>
      <trkpt lat="44.11804" lon="6.73001">
        <ele>1933.5655871067</ele>
        <time>2021-07-10T08:23:09Z</time>
      </trkpt>
      <trkpt lat="44.11803" lon="6.73001">
        <ele>1934.5656217111</ele>
        <time>2021-07-10T08:23:10Z</time>
      </trkpt>
      <trkpt lat="44.11802" lon="6.73001">
        <ele>1934.5656705537</ele>
        <time>2021-07-10T08:23:11Z</time>
      </trkpt>
      <trkpt lat="44.11801" lon="6.73">
        <ele>1934.5657073817</ele>
        <time>2021-07-10T08:23:12Z</time>
      </trkpt>
      <trkpt lat="44.118" lon="6.73001">
        <ele>1934.5657540142</ele>
        <time>2021-07-10T08:23:14Z</time>
      </trkpt>
      <trkpt lat="44.11799" lon="6.73001">
        <ele>1935.5657837891</ele>
        <time>2021-07-10T08:23:15Z</time>
      </trkpt>
      <trkpt lat="44.11798" lon="6.73001">
        <ele>1935.5658120112</ele>
        <time>2021-07-10T08:23:16Z</time>
      </trkpt>
      <trkpt lat="44.11798" lon="6.73001">
        <ele>1934.5658293303</ele>
        <time>2021-07-10T08:23:18Z</time>
      </trkpt>
      <trkpt lat="44.11797" lon="6.73001">
        <ele>1933.5658542454</ele>
        <time>2021-07-10T08:23:19Z</time>
      </trkpt>
      <trkpt lat="44.11796" lon="6.73001">
        <ele>1932.56588559</ele>
        <time>2021-07-10T08:23:20Z</time>
      </trkpt>
      <trkpt lat="44.11795" lon="6.73002">
        <ele>1932.5659011124</ele>
        <time>2021-07-10T08:23:21Z</time>
      </trkpt>
      <trkpt lat="44.11795" lon="6.73003">
        <ele>1931.5658887939</ele>
        <time>2021-07-10T08:23:22Z</time>
      </trkpt>
      <trkpt lat="44.11795" lon="6.73004">
        <ele>1931.5658826114</ele>
        <time>2021-07-10T08:23:23Z</time>
      </trkpt>
      <trkpt lat="44.11794" lon="6.73004">
        <ele>1931.5658934536</ele>
        <time>2021-07-10T08:23:24Z</time>
      </trkpt>
      <trkpt lat="44.11794" lon="6.73005">
        <ele>1931.5659083163</ele>
        <time>2021-07-10T08:23:25Z</time>
      </trkpt>
      <trkpt lat="44.11793" lon="6.73005">
        <ele>1931.5659275386</ele>
        <time>2021-07-10T08:23:26Z</time>
      </trkpt>
      <trkpt lat="44.11792" lon="6.73006">
        <ele>1931.5659688255</ele>
        <time>2021-07-10T08:23:27Z</time>
      </trkpt>
      <trkpt lat="44.11791" lon="6.73006">
        <ele>1930.5659917914</ele>
        <time>2021-07-10T08:23:29Z</time>
      </trkpt>
      <trkpt lat="44.1179" lon="6.73007">
        <ele>1930.5660092633</ele>
        <time>2021-07-10T08:23:30Z</time>
      </trkpt>
      <trkpt lat="44.11789" lon="6.73007">
        <ele>1930.5660308626</ele>
        <time>2021-07-10T08:23:31Z</time>
      </trkpt>
      <trkpt lat="44.11787" lon="6.73008">
        <ele>1930.5660727747</ele>
        <time>2021-07-10T08:23:33Z</time>
      </trkpt>
      <trkpt lat="44.11785" lon="6.73009">
        <ele>1930.566128613</ele>
        <time>2021-07-10T08:23:35Z</time>
      </trkpt>
      <trkpt lat="44.11784" lon="6.7301">
        <ele>1930.5661540376</ele>
        <time>2021-07-10T08:23:36Z</time>
      </trkpt>
      <trkpt lat="44.11783" lon="6.73012">
        <ele>1930.5661442159</ele>
        <time>2021-07-10T08:23:38Z</time>
      </trkpt>
      <trkpt lat="44.11783" lon="6.73012">
        <ele>1930.5661633597</ele>
        <time>2021-07-10T08:23:39Z</time>
      </trkpt>
      <trkpt lat="44.11782" lon="6.73013">
        <ele>1930.5661756775</ele>
        <time>2021-07-10T08:23:40Z</time>
      </trkpt>
      <trkpt lat="44.11781" lon="6.73013">
        <ele>1930.5662073485</ele>
        <time>2021-07-10T08:23:41Z</time>
      </trkpt>
      <trkpt lat="44.11781" lon="6.73013">
        <ele>1930.5662265274</ele>
        <time>2021-07-10T08:23:42Z</time>
      </trkpt>
      <trkpt lat="44.1178" lon="6.73012">
        <ele>1930.5662501078</ele>
        <time>2021-07-10T08:23:45Z</time>
      </trkpt>
      <trkpt lat="44.11779" lon="6.73013">
        <ele>1930.5663050767</ele>
        <time>2021-07-10T08:23:46Z</time>
      </trkpt>
      <trkpt lat="44.11778" lon="6.73014">
        <ele>1930.5663051226</ele>
        <time>2021-07-10T08:23:48Z</time>
      </trkpt>
      <trkpt lat="44.11777" lon="6.73015">
        <ele>1930.566323611</ele>
        <time>2021-07-10T08:23:49Z</time>
      </trkpt>
      <trkpt lat="44.11776" lon="6.73015">
        <ele>1931.5663540089</ele>
        <time>2021-07-10T08:23:50Z</time>
      </trkpt>
      <trkpt lat="44.11775" lon="6.73016">
        <ele>1932.5663792794</ele>
        <time>2021-07-10T08:23:51Z</time>
      </trkpt>
      <trkpt lat="44.11774" lon="6.73016">
        <ele>1932.566419666</ele>
        <time>2021-07-10T08:23:53Z</time>
      </trkpt>
      <trkpt lat="44.11773" lon="6.73018">
        <ele>1932.5664287084</ele>
        <time>2021-07-10T08:23:55Z</time>
      </trkpt>
      <trkpt lat="44.11773" lon="6.73018">
        <ele>1932.5664287084</ele>
        <time>2021-07-10T08:23:57Z</time>
      </trkpt>
      <trkpt lat="44.11771" lon="6.7302">
        <ele>1933.5664419836</ele>
        <time>2021-07-10T08:23:59Z</time>
      </trkpt>
      <trkpt lat="44.11771" lon="6.73021">
        <ele>1934.5664434999</ele>
        <time>2021-07-10T08:24:00Z</time>
      </trkpt>
      <trkpt lat="44.1177" lon="6.73022">
        <ele>1934.5664456501</ele>
        <time>2021-07-10T08:24:01Z</time>
      </trkpt>
      <trkpt lat="44.1177" lon="6.73022">
        <ele>1934.5664456501</ele>
        <time>2021-07-10T08:24:02Z</time>
      </trkpt>
      <trkpt lat="44.11769" lon="6.73025">
        <ele>1934.5664393378</ele>
        <time>2021-07-10T08:24:04Z</time>
      </trkpt>
      <trkpt lat="44.11768" lon="6.73026">
        <ele>1934.5664448958</ele>
        <time>2021-07-10T08:24:05Z</time>
      </trkpt>
      <trkpt lat="44.11768" lon="6.73026">
        <ele>1934.5664573307</ele>
        <time>2021-07-10T08:24:06Z</time>
      </trkpt>
      <trkpt lat="44.11767" lon="6.73027">
        <ele>1934.5664831845</ele>
        <time>2021-07-10T08:24:08Z</time>
      </trkpt>
      <trkpt lat="44.11766" lon="6.73028">
        <ele>1935.5664835527</ele>
        <time>2021-07-10T08:24:10Z</time>
      </trkpt>
      <trkpt lat="44.11766" lon="6.73029">
        <ele>1935.5664733164</ele>
        <time>2021-07-10T08:24:11Z</time>
      </trkpt>
      <trkpt lat="44.11765" lon="6.7303">
        <ele>1936.5664862068</ele>
        <time>2021-07-10T08:24:12Z</time>
      </trkpt>
      <trkpt lat="44.11763" lon="6.73031">
        <ele>1935.5665287744</ele>
        <time>2021-07-10T08:24:14Z</time>
      </trkpt>
      <trkpt lat="44.11763" lon="6.73032">
        <ele>1935.5665430027</ele>
        <time>2021-07-10T08:24:15Z</time>
      </trkpt>
      <trkpt lat="44.11762" lon="6.73032">
        <ele>1935.566551515</ele>
        <time>2021-07-10T08:24:17Z</time>
      </trkpt>
      <trkpt lat="44.11761" lon="6.73033">
        <ele>1935.5665805507</ele>
        <time>2021-07-10T08:24:19Z</time>
      </trkpt>
      <trkpt lat="44.1176" lon="6.73033">
        <ele>1936.5665876626</ele>
        <time>2021-07-10T08:24:28Z</time>
      </trkpt>
      <trkpt lat="44.11759" lon="6.73037">
        <ele>1936.5665751683</ele>
        <time>2021-07-10T08:24:30Z</time>
      </trkpt>
      <trkpt lat="44.11759" lon="6.73038">
        <ele>1936.5665570645</ele>
        <time>2021-07-10T08:24:31Z</time>
      </trkpt>
      <trkpt lat="44.11758" lon="6.7304">
        <ele>1936.5665453813</ele>
        <time>2021-07-10T08:24:33Z</time>
      </trkpt>
      <trkpt lat="44.11757" lon="6.73042">
        <ele>1936.5665475823</ele>
        <time>2021-07-10T08:24:35Z</time>
      </trkpt>
      <trkpt lat="44.11757" lon="6.73043">
        <ele>1937.5665460554</ele>
        <time>2021-07-10T08:24:36Z</time>
      </trkpt>
      <trkpt lat="44.11757" lon="6.73043">
        <ele>1937.566548083</ele>
        <time>2021-07-10T08:24:37Z</time>
      </trkpt>
      <trkpt lat="44.11756" lon="6.73045">
        <ele>1938.5665294946</ele>
        <time>2021-07-10T08:24:39Z</time>
      </trkpt>
      <trkpt lat="44.11756" lon="6.73044">
        <ele>1938.5665497938</ele>
        <time>2021-07-10T08:24:40Z</time>
      </trkpt>
      <trkpt lat="44.11755" lon="6.73045">
        <ele>1938.5665695354</ele>
        <time>2021-07-10T08:24:41Z</time>
      </trkpt>
      <trkpt lat="44.11754" lon="6.73046">
        <ele>1939.5665698647</ele>
        <time>2021-07-10T08:24:43Z</time>
      </trkpt>
      <trkpt lat="44.11755" lon="6.73047">
        <ele>1939.5665557546</ele>
        <time>2021-07-10T08:24:44Z</time>
      </trkpt>
      <trkpt lat="44.11755" lon="6.73048">
        <ele>1939.5665389118</ele>
        <time>2021-07-10T08:24:45Z</time>
      </trkpt>
      <trkpt lat="44.11755" lon="6.73049">
        <ele>1939.5665225945</ele>
        <time>2021-07-10T08:24:47Z</time>
      </trkpt>
      <trkpt lat="44.11753" lon="6.7305">
        <ele>1940.5665437392</ele>
        <time>2021-07-10T08:24:49Z</time>
      </trkpt>
      <trkpt lat="44.11753" lon="6.7305">
        <ele>1940.5665651525</ele>
        <time>2021-07-10T08:24:50Z</time>
      </trkpt>
      <trkpt lat="44.11752" lon="6.7305">
        <ele>1940.5665781041</ele>
        <time>2021-07-10T08:24:51Z</time>
      </trkpt>
      <trkpt lat="44.11752" lon="6.73051">
        <ele>1941.5665889566</ele>
        <time>2021-07-10T08:24:54Z</time>
      </trkpt>
      <trkpt lat="44.1175" lon="6.73052">
        <ele>1940.5666175936</ele>
        <time>2021-07-10T08:24:55Z</time>
      </trkpt>
      <trkpt lat="44.11749" lon="6.73052">
        <ele>1940.5666520312</ele>
        <time>2021-07-10T08:24:56Z</time>
      </trkpt>
      <trkpt lat="44.11749" lon="6.73052">
        <ele>1940.5666731605</ele>
        <time>2021-07-10T08:24:57Z</time>
      </trkpt>
      <trkpt lat="44.11748" lon="6.73053">
        <ele>1939.5666880565</ele>
        <time>2021-07-10T08:24:58Z</time>
      </trkpt>
      <trkpt lat="44.11747" lon="6.73053">
        <ele>1939.5666956045</ele>
        <time>2021-07-10T08:24:59Z</time>
      </trkpt>
      <trkpt lat="44.11747" lon="6.73054">
        <ele>1940.5666979647</ele>
        <time>2021-07-10T08:25:00Z</time>
      </trkpt>
      <trkpt lat="44.11747" lon="6.73056">
        <ele>1941.5666756552</ele>
        <time>2021-07-10T08:25:01Z</time>
      </trkpt>
      <trkpt lat="44.11746" lon="6.73057">
        <ele>1941.5666715641</ele>
        <time>2021-07-10T08:25:02Z</time>
      </trkpt>
      <trkpt lat="44.11746" lon="6.73058">
        <ele>1942.5666591695</ele>
        <time>2021-07-10T08:25:03Z</time>
      </trkpt>
      <trkpt lat="44.11745" lon="6.7306">
        <ele>1943.5666564242</ele>
        <time>2021-07-10T08:25:04Z</time>
      </trkpt>
      <trkpt lat="44.11745" lon="6.73061">
        <ele>1943.5666560207</ele>
        <time>2021-07-10T08:25:05Z</time>
      </trkpt>
      <trkpt lat="44.11744" lon="6.73061">
        <ele>1946.5666775921</ele>
        <time>2021-07-10T08:25:07Z</time>
      </trkpt>
      <trkpt lat="44.11743" lon="6.73062">
        <ele>1947.5666857176</ele>
        <time>2021-07-10T08:25:09Z</time>
      </trkpt>
      <trkpt lat="44.11743" lon="6.73063">
        <ele>1948.5666915074</ele>
        <time>2021-07-10T08:25:11Z</time>
      </trkpt>
      <trkpt lat="44.11742" lon="6.73063">
        <ele>1949.5666942787</ele>
        <time>2021-07-10T08:25:12Z</time>
      </trkpt>
      <trkpt lat="44.11742" lon="6.73064">
        <ele>1949.5667045247</ele>
        <time>2021-07-10T08:25:13Z</time>
      </trkpt>
      <trkpt lat="44.11741" lon="6.73064">
        <ele>1949.5667166134</ele>
        <time>2021-07-10T08:25:14Z</time>
      </trkpt>
      <trkpt lat="44.11741" lon="6.73065">
        <ele>1949.5667250396</ele>
        <time>2021-07-10T08:25:15Z</time>
      </trkpt>
      <trkpt lat="44.1174" lon="6.73065">
        <ele>1949.5667404476</ele>
        <time>2021-07-10T08:25:17Z</time>
      </trkpt>
      <trkpt lat="44.11739" lon="6.73065">
        <ele>1949.5667667877</ele>
        <time>2021-07-10T08:25:18Z</time>
      </trkpt>
      <trkpt lat="44.11739" lon="6.73066">
        <ele>1950.5667841597</ele>
        <time>2021-07-10T08:25:19Z</time>
      </trkpt>
      <trkpt lat="44.11738" lon="6.73066">
        <ele>1951.5667950582</ele>
        <time>2021-07-10T08:25:20Z</time>
      </trkpt>
      <trkpt lat="44.11738" lon="6.73066">
        <ele>1951.5667975253</ele>
        <time>2021-07-10T08:25:21Z</time>
      </trkpt>
      <trkpt lat="44.11738" lon="6.73067">
        <ele>1951.5668030507</ele>
        <time>2021-07-10T08:25:23Z</time>
      </trkpt>
      <trkpt lat="44.11737" lon="6.73068">
        <ele>1953.5668039138</ele>
        <time>2021-07-10T08:25:24Z</time>
      </trkpt>
      <trkpt lat="44.11736" lon="6.73069">
        <ele>1953.5668173854</ele>
        <time>2021-07-10T08:25:25Z</time>
      </trkpt>
      <trkpt lat="44.11736" lon="6.7307">
        <ele>1954.5668239624</ele>
        <time>2021-07-10T08:25:26Z</time>
      </trkpt>
      <trkpt lat="44.11735" lon="6.7307">
        <ele>1955.5668206319</ele>
        <time>2021-07-10T08:25:27Z</time>
      </trkpt>
      <trkpt lat="44.11734" lon="6.73071">
        <ele>1956.5668467064</ele>
        <time>2021-07-10T08:25:29Z</time>
      </trkpt>
      <trkpt lat="44.11733" lon="6.73071">
        <ele>1956.5668749932</ele>
        <time>2021-07-10T08:25:31Z</time>
      </trkpt>
      <trkpt lat="44.11733" lon="6.73071">
        <ele>1957.5668821663</ele>
        <time>2021-07-10T08:25:33Z</time>
      </trkpt>
      <trkpt lat="44.11732" lon="6.73072">
        <ele>1957.5669238554</ele>
        <time>2021-07-10T08:25:34Z</time>
      </trkpt>
      <trkpt lat="44.11731" lon="6.73072">
        <ele>1958.5669400342</ele>
        <time>2021-07-10T08:25:35Z</time>
      </trkpt>
      <trkpt lat="44.11731" lon="6.73072">
        <ele>1958.5669570711</ele>
        <time>2021-07-10T08:25:36Z</time>
      </trkpt>
      <trkpt lat="44.1173" lon="6.73072">
        <ele>1958.5669867473</ele>
        <time>2021-07-10T08:25:37Z</time>
      </trkpt>
      <trkpt lat="44.11728" lon="6.73073">
        <ele>1958.5670411469</ele>
        <time>2021-07-10T08:25:39Z</time>
      </trkpt>
      <trkpt lat="44.11728" lon="6.73073">
        <ele>1958.5670511827</ele>
        <time>2021-07-10T08:25:40Z</time>
      </trkpt>
      <trkpt lat="44.11727" lon="6.73073">
        <ele>1958.5670724335</ele>
        <time>2021-07-10T08:25:41Z</time>
      </trkpt>
      <trkpt lat="44.11727" lon="6.73073">
        <ele>1959.5671039709</ele>
        <time>2021-07-10T08:25:42Z</time>
      </trkpt>
      <trkpt lat="44.11726" lon="6.73072">
        <ele>1959.5671212868</ele>
        <time>2021-07-10T08:25:43Z</time>
      </trkpt>
      <trkpt lat="44.11725" lon="6.73072">
        <ele>1959.5671664471</ele>
        <time>2021-07-10T08:25:45Z</time>
      </trkpt>
      <trkpt lat="44.11725" lon="6.73071">
        <ele>1960.5671920346</ele>
        <time>2021-07-10T08:25:47Z</time>
      </trkpt>
      <trkpt lat="44.11724" lon="6.73071">
        <ele>1960.5672076903</ele>
        <time>2021-07-10T08:25:48Z</time>
      </trkpt>
      <trkpt lat="44.11724" lon="6.73071">
        <ele>1960.567239173</ele>
        <time>2021-07-10T08:25:49Z</time>
      </trkpt>
      <trkpt lat="44.11723" lon="6.7307">
        <ele>1960.5672753768</ele>
        <time>2021-07-10T08:25:50Z</time>
      </trkpt>
      <trkpt lat="44.11722" lon="6.73071">
        <ele>1960.5672969381</ele>
        <time>2021-07-10T08:25:51Z</time>
      </trkpt>
      <trkpt lat="44.11721" lon="6.73071">
        <ele>1960.567326137</ele>
        <time>2021-07-10T08:25:52Z</time>
      </trkpt>
      <trkpt lat="44.1172" lon="6.73071">
        <ele>1961.567360262</ele>
        <time>2021-07-10T08:25:53Z</time>
      </trkpt>
      <trkpt lat="44.11719" lon="6.73072">
        <ele>1960.5673997877</ele>
        <time>2021-07-10T08:25:54Z</time>
      </trkpt>
      <trkpt lat="44.11718" lon="6.73072">
        <ele>1960.5674373653</ele>
        <time>2021-07-10T08:25:55Z</time>
      </trkpt>
      <trkpt lat="44.11717" lon="6.73073">
        <ele>1960.5674672459</ele>
        <time>2021-07-10T08:25:56Z</time>
      </trkpt>
      <trkpt lat="44.11716" lon="6.73073">
        <ele>1960.5674905257</ele>
        <time>2021-07-10T08:25:57Z</time>
      </trkpt>
      <trkpt lat="44.11715" lon="6.73072">
        <ele>1959.5675349276</ele>
        <time>2021-07-10T08:25:58Z</time>
      </trkpt>
      <trkpt lat="44.11714" lon="6.73072">
        <ele>1959.5675883555</ele>
        <time>2021-07-10T08:26:00Z</time>
      </trkpt>
      <trkpt lat="44.11713" lon="6.73071">
        <ele>1959.5676227578</ele>
        <time>2021-07-10T08:26:02Z</time>
      </trkpt>
      <trkpt lat="44.11712" lon="6.73071">
        <ele>1959.5676549744</ele>
        <time>2021-07-10T08:26:04Z</time>
      </trkpt>
      <trkpt lat="44.11712" lon="6.73071">
        <ele>1960.567679772</ele>
        <time>2021-07-10T08:26:05Z</time>
      </trkpt>
      <trkpt lat="44.11711" lon="6.73071">
        <ele>1960.5676956971</ele>
        <time>2021-07-10T08:26:06Z</time>
      </trkpt>
      <trkpt lat="44.11711" lon="6.73072">
        <ele>1960.5677077848</ele>
        <time>2021-07-10T08:26:07Z</time>
      </trkpt>
      <trkpt lat="44.1171" lon="6.73072">
        <ele>1961.5677276743</ele>
        <time>2021-07-10T08:26:08Z</time>
      </trkpt>
      <trkpt lat="44.11709" lon="6.73073">
        <ele>1961.5677449821</ele>
        <time>2021-07-10T08:26:09Z</time>
      </trkpt>
      <trkpt lat="44.11709" lon="6.73072">
        <ele>1961.5677719253</ele>
        <time>2021-07-10T08:26:12Z</time>
      </trkpt>
      <trkpt lat="44.11708" lon="6.73072">
        <ele>1961.5678011981</ele>
        <time>2021-07-10T08:26:13Z</time>
      </trkpt>
      <trkpt lat="44.11707" lon="6.73073">
        <ele>1961.5678151095</ele>
        <time>2021-07-10T08:26:14Z</time>
      </trkpt>
      <trkpt lat="44.11707" lon="6.73073">
        <ele>1961.5678292362</ele>
        <time>2021-07-10T08:26:15Z</time>
      </trkpt>
      <trkpt lat="44.11706" lon="6.73074">
        <ele>1961.5678424874</ele>
        <time>2021-07-10T08:26:16Z</time>
      </trkpt>
      <trkpt lat="44.11706" lon="6.73073">
        <ele>1960.5678805015</ele>
        <time>2021-07-10T08:26:19Z</time>
      </trkpt>
      <trkpt lat="44.11706" lon="6.73072">
        <ele>1960.567865408</ele>
        <time>2021-07-10T08:26:47Z</time>
      </trkpt>
      <trkpt lat="44.11705" lon="6.73071">
        <ele>1960.5679257803</ele>
        <time>2021-07-10T08:26:49Z</time>
      </trkpt>
      <trkpt lat="44.11705" lon="6.73072">
        <ele>1959.5679013211</ele>
        <time>2021-07-10T08:26:53Z</time>
      </trkpt>
      <trkpt lat="44.11707" lon="6.7307">
        <ele>1960.5678724784</ele>
        <time>2021-07-10T08:26:55Z</time>
      </trkpt>
      <trkpt lat="44.11707" lon="6.7307">
        <ele>1960.5678558173</ele>
        <time>2021-07-10T08:26:56Z</time>
      </trkpt>
      <trkpt lat="44.11708" lon="6.7307">
        <ele>1961.567829611</ele>
        <time>2021-07-10T08:27:05Z</time>
      </trkpt>
      <trkpt lat="44.11709" lon="6.73069">
        <ele>1961.5678375702</ele>
        <time>2021-07-10T08:27:06Z</time>
      </trkpt>
      <trkpt lat="44.1171" lon="6.73069">
        <ele>1961.567784158</ele>
        <time>2021-07-10T08:27:08Z</time>
      </trkpt>
      <trkpt lat="44.11711" lon="6.73069">
        <ele>1960.567764973</ele>
        <time>2021-07-10T08:27:11Z</time>
      </trkpt>
      <trkpt lat="44.11711" lon="6.73069">
        <ele>1959.567755942</ele>
        <time>2021-07-10T08:27:15Z</time>
      </trkpt>
      <trkpt lat="44.11711" lon="6.73067">
        <ele>1961.5677863938</ele>
        <time>2021-07-10T08:27:16Z</time>
      </trkpt>
      <trkpt lat="44.11711" lon="6.73067">
        <ele>1961.5677631684</ele>
        <time>2021-07-10T08:27:17Z</time>
      </trkpt>
      <trkpt lat="44.11713" lon="6.73066">
        <ele>1961.5677330772</ele>
        <time>2021-07-10T08:27:19Z</time>
      </trkpt>
      <trkpt lat="44.11712" lon="6.73066">
        <ele>1960.5677636268</ele>
        <time>2021-07-10T08:27:27Z</time>
      </trkpt>
      <trkpt lat="44.11711" lon="6.73066">
        <ele>1958.5677933402</ele>
        <time>2021-07-10T08:27:37Z</time>
      </trkpt>
      <trkpt lat="44.1171" lon="6.73066">
        <ele>1957.567840303</ele>
        <time>2021-07-10T08:27:38Z</time>
      </trkpt>
      <trkpt lat="44.11709" lon="6.73067">
        <ele>1957.5678608129</ele>
        <time>2021-07-10T08:27:40Z</time>
      </trkpt>
      <trkpt lat="44.11709" lon="6.73066">
        <ele>1956.5678747453</ele>
        <time>2021-07-10T08:27:41Z</time>
      </trkpt>
      <trkpt lat="44.11708" lon="6.73067">
        <ele>1957.5678685952</ele>
        <time>2021-07-10T08:27:43Z</time>
      </trkpt>
      <trkpt lat="44.11709" lon="6.73069">
        <ele>1957.567824853</ele>
        <time>2021-07-10T08:27:45Z</time>
      </trkpt>
      <trkpt lat="44.11708" lon="6.7307">
        <ele>1957.5678225939</ele>
        <time>2021-07-10T08:27:46Z</time>
      </trkpt>
      <trkpt lat="44.11708" lon="6.7307">
        <ele>1959.5678341645</ele>
        <time>2021-07-10T08:27:49Z</time>
      </trkpt>
      <trkpt lat="44.11708" lon="6.73069">
        <ele>1958.5678652014</ele>
        <time>2021-07-10T08:27:50Z</time>
      </trkpt>
      <trkpt lat="44.11707" lon="6.73069">
        <ele>1959.5678856025</ele>
        <time>2021-07-10T08:27:51Z</time>
      </trkpt>
      <trkpt lat="44.11708" lon="6.73067">
        <ele>1959.5679114638</ele>
        <time>2021-07-10T08:27:52Z</time>
      </trkpt>
      <trkpt lat="44.11708" lon="6.73066">
        <ele>1959.5679184073</ele>
        <time>2021-07-10T08:27:53Z</time>
      </trkpt>
      <trkpt lat="44.11708" lon="6.73065">
        <ele>1958.5679317819</ele>
        <time>2021-07-10T08:27:54Z</time>
      </trkpt>
      <trkpt lat="44.11708" lon="6.73064">
        <ele>1958.5679610281</ele>
        <time>2021-07-10T08:27:55Z</time>
      </trkpt>
      <trkpt lat="44.11707" lon="6.73063">
        <ele>1959.567992133</ele>
        <time>2021-07-10T08:27:57Z</time>
      </trkpt>
      <trkpt lat="44.11705" lon="6.73063">
        <ele>1959.5680721027</ele>
        <time>2021-07-10T08:27:59Z</time>
      </trkpt>
      <trkpt lat="44.11704" lon="6.73063">
        <ele>1959.5681006403</ele>
        <time>2021-07-10T08:28:00Z</time>
      </trkpt>
      <trkpt lat="44.11704" lon="6.73062">
        <ele>1959.5681386289</ele>
        <time>2021-07-10T08:28:01Z</time>
      </trkpt>
      <trkpt lat="44.11703" lon="6.73061">
        <ele>1959.5681850032</ele>
        <time>2021-07-10T08:28:02Z</time>
      </trkpt>
      <trkpt lat="44.11703" lon="6.7306">
        <ele>1959.5682281904</ele>
        <time>2021-07-10T08:28:03Z</time>
      </trkpt>
      <trkpt lat="44.11702" lon="6.73058">
        <ele>1959.5682709117</ele>
        <time>2021-07-10T08:28:04Z</time>
      </trkpt>
      <trkpt lat="44.11702" lon="6.73057">
        <ele>1959.5683056668</ele>
        <time>2021-07-10T08:28:05Z</time>
      </trkpt>
      <trkpt lat="44.11702" lon="6.73056">
        <ele>1959.5683327904</ele>
        <time>2021-07-10T08:28:06Z</time>
      </trkpt>
      <trkpt lat="44.11701" lon="6.73055">
        <ele>1959.5683609919</ele>
        <time>2021-07-10T08:28:07Z</time>
      </trkpt>
      <trkpt lat="44.11701" lon="6.73053">
        <ele>1959.5684278209</ele>
        <time>2021-07-10T08:28:09Z</time>
      </trkpt>
      <trkpt lat="44.117" lon="6.73052">
        <ele>1958.5684614743</ele>
        <time>2021-07-10T08:28:10Z</time>
      </trkpt>
      <trkpt lat="44.11699" lon="6.73052">
        <ele>1959.5684967214</ele>
        <time>2021-07-10T08:28:11Z</time>
      </trkpt>
      <trkpt lat="44.11699" lon="6.73051">
        <ele>1958.5685350981</ele>
        <time>2021-07-10T08:28:12Z</time>
      </trkpt>
      <trkpt lat="44.11697" lon="6.7305">
        <ele>1959.5686133879</ele>
        <time>2021-07-10T08:28:14Z</time>
      </trkpt>
      <trkpt lat="44.11697" lon="6.73048">
        <ele>1959.5686472026</ele>
        <time>2021-07-10T08:28:15Z</time>
      </trkpt>
      <trkpt lat="44.11697" lon="6.73047">
        <ele>1958.5686894628</ele>
        <time>2021-07-10T08:28:16Z</time>
      </trkpt>
      <trkpt lat="44.11696" lon="6.73045">
        <ele>1958.5687625329</ele>
        <time>2021-07-10T08:28:18Z</time>
      </trkpt>
      <trkpt lat="44.11695" lon="6.73044">
        <ele>1957.5687906122</ele>
        <time>2021-07-10T08:28:21Z</time>
      </trkpt>
      <trkpt lat="44.11695" lon="6.73043">
        <ele>1957.5688301805</ele>
        <time>2021-07-10T08:28:22Z</time>
      </trkpt>
      <trkpt lat="44.11694" lon="6.73042">
        <ele>1957.5688776873</ele>
        <time>2021-07-10T08:28:23Z</time>
      </trkpt>
      <trkpt lat="44.11693" lon="6.7304">
        <ele>1957.5689287055</ele>
        <time>2021-07-10T08:28:24Z</time>
      </trkpt>
      <trkpt lat="44.11693" lon="6.7304">
        <ele>1957.5689671072</ele>
        <time>2021-07-10T08:28:25Z</time>
      </trkpt>
      <trkpt lat="44.11692" lon="6.73039">
        <ele>1957.5690057837</ele>
        <time>2021-07-10T08:28:26Z</time>
      </trkpt>
      <trkpt lat="44.11692" lon="6.73038">
        <ele>1957.5690399702</ele>
        <time>2021-07-10T08:28:27Z</time>
      </trkpt>
      <trkpt lat="44.11691" lon="6.73035">
        <ele>1957.5691131513</ele>
        <time>2021-07-10T08:28:29Z</time>
      </trkpt>
      <trkpt lat="44.11691" lon="6.73034">
        <ele>1956.5691573315</ele>
        <time>2021-07-10T08:28:30Z</time>
      </trkpt>
      <trkpt lat="44.1169" lon="6.73033">
        <ele>1956.5691874503</ele>
        <time>2021-07-10T08:28:31Z</time>
      </trkpt>
      <trkpt lat="44.1169" lon="6.7303">
        <ele>1956.5692466886</ele>
        <time>2021-07-10T08:28:33Z</time>
      </trkpt>
      <trkpt lat="44.11689" lon="6.73028">
        <ele>1955.5693173296</ele>
        <time>2021-07-10T08:28:35Z</time>
      </trkpt>
      <trkpt lat="44.11689" lon="6.73026">
        <ele>1955.5693531944</ele>
        <time>2021-07-10T08:28:36Z</time>
      </trkpt>
      <trkpt lat="44.11689" lon="6.73025">
        <ele>1954.5693889823</ele>
        <time>2021-07-10T08:28:37Z</time>
      </trkpt>
      <trkpt lat="44.11688" lon="6.73023">
        <ele>1954.5694665666</ele>
        <time>2021-07-10T08:28:39Z</time>
      </trkpt>
      <trkpt lat="44.11687" lon="6.73022">
        <ele>1954.5695215724</ele>
        <time>2021-07-10T08:28:40Z</time>
      </trkpt>
      <trkpt lat="44.11686" lon="6.73021">
        <ele>1954.5695735359</ele>
        <time>2021-07-10T08:28:41Z</time>
      </trkpt>
      <trkpt lat="44.11685" lon="6.7302">
        <ele>1954.5696136061</ele>
        <time>2021-07-10T08:28:42Z</time>
      </trkpt>
      <trkpt lat="44.11685" lon="6.73018">
        <ele>1953.5696589587</ele>
        <time>2021-07-10T08:28:44Z</time>
      </trkpt>
      <trkpt lat="44.11684" lon="6.73018">
        <ele>1953.5697003788</ele>
        <time>2021-07-10T08:28:45Z</time>
      </trkpt>
      <trkpt lat="44.11684" lon="6.73017">
        <ele>1953.5697289892</ele>
        <time>2021-07-10T08:28:46Z</time>
      </trkpt>
      <trkpt lat="44.11684" lon="6.73016">
        <ele>1954.5697447631</ele>
        <time>2021-07-10T08:28:47Z</time>
      </trkpt>
      <trkpt lat="44.11683" lon="6.73015">
        <ele>1954.5698020012</ele>
        <time>2021-07-10T08:28:49Z</time>
      </trkpt>
      <trkpt lat="44.11682" lon="6.73013">
        <ele>1954.5698426415</ele>
        <time>2021-07-10T08:28:50Z</time>
      </trkpt>
      <trkpt lat="44.11682" lon="6.73012">
        <ele>1955.5698870753</ele>
        <time>2021-07-10T08:28:51Z</time>
      </trkpt>
      <trkpt lat="44.11681" lon="6.73011">
        <ele>1954.5699294971</ele>
        <time>2021-07-10T08:28:52Z</time>
      </trkpt>
      <trkpt lat="44.11681" lon="6.7301">
        <ele>1954.5699671291</ele>
        <time>2021-07-10T08:28:54Z</time>
      </trkpt>
      <trkpt lat="44.1168" lon="6.73009">
        <ele>1954.5700041353</ele>
        <time>2021-07-10T08:28:55Z</time>
      </trkpt>
      <trkpt lat="44.1168" lon="6.73007">
        <ele>1954.5700381678</ele>
        <time>2021-07-10T08:28:56Z</time>
      </trkpt>
      <trkpt lat="44.1168" lon="6.73004">
        <ele>1953.5701015245</ele>
        <time>2021-07-10T08:28:58Z</time>
      </trkpt>
      <trkpt lat="44.1168" lon="6.73001">
        <ele>1953.5701624773</ele>
        <time>2021-07-10T08:29:00Z</time>
      </trkpt>
      <trkpt lat="44.11679" lon="6.73">
        <ele>1953.5701929447</ele>
        <time>2021-07-10T08:29:01Z</time>
      </trkpt>
      <trkpt lat="44.11679" lon="6.72999">
        <ele>1952.5702245627</ele>
        <time>2021-07-10T08:29:02Z</time>
      </trkpt>
      <trkpt lat="44.11678" lon="6.72998">
        <ele>1952.5702765092</ele>
        <time>2021-07-10T08:29:03Z</time>
      </trkpt>
      <trkpt lat="44.11677" lon="6.72997">
        <ele>1951.5703329753</ele>
        <time>2021-07-10T08:29:04Z</time>
      </trkpt>
      <trkpt lat="44.11677" lon="6.72995">
        <ele>1951.5703859057</ele>
        <time>2021-07-10T08:29:05Z</time>
      </trkpt>
      <trkpt lat="44.11676" lon="6.72994">
        <ele>1951.5704303047</ele>
        <time>2021-07-10T08:29:06Z</time>
      </trkpt>
      <trkpt lat="44.11675" lon="6.72992">
        <ele>1951.5705214156</ele>
        <time>2021-07-10T08:29:08Z</time>
      </trkpt>
      <trkpt lat="44.11673" lon="6.72993">
        <ele>1951.5705552318</ele>
        <time>2021-07-10T08:29:09Z</time>
      </trkpt>
      <trkpt lat="44.11673" lon="6.72992">
        <ele>1950.5705778911</ele>
        <time>2021-07-10T08:29:10Z</time>
      </trkpt>
      <trkpt lat="44.11673" lon="6.72991">
        <ele>1951.5706002133</ele>
        <time>2021-07-10T08:29:11Z</time>
      </trkpt>
      <trkpt lat="44.11673" lon="6.72991">
        <ele>1951.5706157818</ele>
        <time>2021-07-10T08:29:13Z</time>
      </trkpt>
      <trkpt lat="44.11672" lon="6.72989">
        <ele>1951.5706805613</ele>
        <time>2021-07-10T08:29:15Z</time>
      </trkpt>
      <trkpt lat="44.11671" lon="6.72988">
        <ele>1952.5707288059</ele>
        <time>2021-07-10T08:29:16Z</time>
      </trkpt>
      <trkpt lat="44.1167" lon="6.72988">
        <ele>1952.5707734869</ele>
        <time>2021-07-10T08:29:17Z</time>
      </trkpt>
      <trkpt lat="44.11667" lon="6.72986">
        <ele>1953.5709123668</ele>
        <time>2021-07-10T08:29:19Z</time>
      </trkpt>
      <trkpt lat="44.11666" lon="6.72984">
        <ele>1953.5709956365</ele>
        <time>2021-07-10T08:29:20Z</time>
      </trkpt>
      <trkpt lat="44.11665" lon="6.72983">
        <ele>1954.5710610857</ele>
        <time>2021-07-10T08:29:21Z</time>
      </trkpt>
      <trkpt lat="44.11664" lon="6.72981">
        <ele>1954.5711278368</ele>
        <time>2021-07-10T08:29:23Z</time>
      </trkpt>
      <trkpt lat="44.11664" lon="6.7298">
        <ele>1955.5711482839</ele>
        <time>2021-07-10T08:29:27Z</time>
      </trkpt>
      <trkpt lat="44.11663" lon="6.72978">
        <ele>1957.5711963189</ele>
        <time>2021-07-10T08:29:29Z</time>
      </trkpt>
      <trkpt lat="44.11664" lon="6.72977">
        <ele>1957.571211651</ele>
        <time>2021-07-10T08:29:30Z</time>
      </trkpt>
      <trkpt lat="44.11663" lon="6.72976">
        <ele>1957.5712487435</ele>
        <time>2021-07-10T08:29:31Z</time>
      </trkpt>
      <trkpt lat="44.11662" lon="6.72973">
        <ele>1957.571352335</ele>
        <time>2021-07-10T08:29:33Z</time>
      </trkpt>
      <trkpt lat="44.11661" lon="6.72971">
        <ele>1957.571403051</ele>
        <time>2021-07-10T08:29:34Z</time>
      </trkpt>
      <trkpt lat="44.11661" lon="6.7297">
        <ele>1957.5714264935</ele>
        <time>2021-07-10T08:29:35Z</time>
      </trkpt>
      <trkpt lat="44.11661" lon="6.7297">
        <ele>1957.5714555487</ele>
        <time>2021-07-10T08:29:36Z</time>
      </trkpt>
      <trkpt lat="44.1166" lon="6.72968">
        <ele>1957.5714919692</ele>
        <time>2021-07-10T08:29:37Z</time>
      </trkpt>
      <trkpt lat="44.1166" lon="6.72967">
        <ele>1956.5715342927</ele>
        <time>2021-07-10T08:29:38Z</time>
      </trkpt>
      <trkpt lat="44.11659" lon="6.72966">
        <ele>1956.5715919023</ele>
        <time>2021-07-10T08:29:40Z</time>
      </trkpt>
      <trkpt lat="44.11659" lon="6.72965">
        <ele>1956.5716156883</ele>
        <time>2021-07-10T08:29:41Z</time>
      </trkpt>
      <trkpt lat="44.11658" lon="6.72964">
        <ele>1956.5716558337</ele>
        <time>2021-07-10T08:29:42Z</time>
      </trkpt>
      <trkpt lat="44.11656" lon="6.72963">
        <ele>1956.57174223</ele>
        <time>2021-07-10T08:29:44Z</time>
      </trkpt>
      <trkpt lat="44.11655" lon="6.72963">
        <ele>1956.5717871195</ele>
        <time>2021-07-10T08:29:45Z</time>
      </trkpt>
      <trkpt lat="44.11655" lon="6.72963">
        <ele>1956.5718099663</ele>
        <time>2021-07-10T08:29:46Z</time>
      </trkpt>
      <trkpt lat="44.11653" lon="6.72961">
        <ele>1956.571894768</ele>
        <time>2021-07-10T08:29:48Z</time>
      </trkpt>
      <trkpt lat="44.11652" lon="6.72959">
        <ele>1956.5719837539</ele>
        <time>2021-07-10T08:29:50Z</time>
      </trkpt>
      <trkpt lat="44.11651" lon="6.72958">
        <ele>1955.5720353688</ele>
        <time>2021-07-10T08:29:51Z</time>
      </trkpt>
      <trkpt lat="44.1165" lon="6.72957">
        <ele>1955.5720649012</ele>
        <time>2021-07-10T08:29:52Z</time>
      </trkpt>
      <trkpt lat="44.1165" lon="6.72955">
        <ele>1956.5721298741</ele>
        <time>2021-07-10T08:29:54Z</time>
      </trkpt>
      <trkpt lat="44.11649" lon="6.72955">
        <ele>1956.5721751905</ele>
        <time>2021-07-10T08:29:55Z</time>
      </trkpt>
      <trkpt lat="44.11648" lon="6.72954">
        <ele>1957.5722078239</ele>
        <time>2021-07-10T08:29:56Z</time>
      </trkpt>
      <trkpt lat="44.11648" lon="6.72953">
        <ele>1956.5722418366</ele>
        <time>2021-07-10T08:29:58Z</time>
      </trkpt>
      <trkpt lat="44.11647" lon="6.72953">
        <ele>1956.57227804</ele>
        <time>2021-07-10T08:29:59Z</time>
      </trkpt>
      <trkpt lat="44.11646" lon="6.72953">
        <ele>1956.5723289212</ele>
        <time>2021-07-10T08:30:00Z</time>
      </trkpt>
      <trkpt lat="44.11645" lon="6.72953">
        <ele>1957.5723683014</ele>
        <time>2021-07-10T08:30:01Z</time>
      </trkpt>
      <trkpt lat="44.11644" lon="6.72952">
        <ele>1958.5724146086</ele>
        <time>2021-07-10T08:30:02Z</time>
      </trkpt>
      <trkpt lat="44.11643" lon="6.72952">
        <ele>1958.5724465184</ele>
        <time>2021-07-10T08:30:03Z</time>
      </trkpt>
      <trkpt lat="44.11642" lon="6.72952">
        <ele>1958.5724722783</ele>
        <time>2021-07-10T08:30:04Z</time>
      </trkpt>
      <trkpt lat="44.11642" lon="6.7295">
        <ele>1958.5725259953</ele>
        <time>2021-07-10T08:30:05Z</time>
      </trkpt>
      <trkpt lat="44.11641" lon="6.72949">
        <ele>1957.5725628976</ele>
        <time>2021-07-10T08:30:06Z</time>
      </trkpt>
      <trkpt lat="44.11641" lon="6.72948">
        <ele>1957.5725895931</ele>
        <time>2021-07-10T08:30:07Z</time>
      </trkpt>
      <trkpt lat="44.1164" lon="6.72946">
        <ele>1957.5726378729</ele>
        <time>2021-07-10T08:30:09Z</time>
      </trkpt>
      <trkpt lat="44.1164" lon="6.72945">
        <ele>1957.5726732071</ele>
        <time>2021-07-10T08:30:10Z</time>
      </trkpt>
      <trkpt lat="44.1164" lon="6.72945">
        <ele>1957.5726978992</ele>
        <time>2021-07-10T08:30:11Z</time>
      </trkpt>
      <trkpt lat="44.11639" lon="6.72944">
        <ele>1957.5727249028</ele>
        <time>2021-07-10T08:30:12Z</time>
      </trkpt>
      <trkpt lat="44.11639" lon="6.72943">
        <ele>1957.5727616203</ele>
        <time>2021-07-10T08:30:13Z</time>
      </trkpt>
      <trkpt lat="44.11638" lon="6.72942">
        <ele>1957.5728040415</ele>
        <time>2021-07-10T08:30:14Z</time>
      </trkpt>
      <trkpt lat="44.11638" lon="6.72941">
        <ele>1957.5728449359</ele>
        <time>2021-07-10T08:30:15Z</time>
      </trkpt>
      <trkpt lat="44.11637" lon="6.7294">
        <ele>1957.5728832149</ele>
        <time>2021-07-10T08:30:16Z</time>
      </trkpt>
      <trkpt lat="44.11636" lon="6.72939">
        <ele>1959.5729373184</ele>
        <time>2021-07-10T08:30:18Z</time>
      </trkpt>
      <trkpt lat="44.11635" lon="6.72939">
        <ele>1958.5729734925</ele>
        <time>2021-07-10T08:30:19Z</time>
      </trkpt>
      <trkpt lat="44.11634" lon="6.72939">
        <ele>1958.5730096399</ele>
        <time>2021-07-10T08:30:20Z</time>
      </trkpt>
      <trkpt lat="44.11633" lon="6.72938">
        <ele>1959.5730475317</ele>
        <time>2021-07-10T08:30:21Z</time>
      </trkpt>
      <trkpt lat="44.11633" lon="6.72938">
        <ele>1960.5730810956</ele>
        <time>2021-07-10T08:30:22Z</time>
      </trkpt>
      <trkpt lat="44.11632" lon="6.72938">
        <ele>1960.5730910405</ele>
        <time>2021-07-10T08:30:23Z</time>
      </trkpt>
      <trkpt lat="44.11632" lon="6.72938">
        <ele>1960.5731134902</ele>
        <time>2021-07-10T08:30:24Z</time>
      </trkpt>
      <trkpt lat="44.11631" lon="6.72937">
        <ele>1961.5731428185</ele>
        <time>2021-07-10T08:30:25Z</time>
      </trkpt>
      <trkpt lat="44.1163" lon="6.72937">
        <ele>1961.5731798796</ele>
        <time>2021-07-10T08:30:26Z</time>
      </trkpt>
      <trkpt lat="44.1163" lon="6.72936">
        <ele>1960.5732144982</ele>
        <time>2021-07-10T08:30:27Z</time>
      </trkpt>
      <trkpt lat="44.11629" lon="6.72935">
        <ele>1960.5732593764</ele>
        <time>2021-07-10T08:30:28Z</time>
      </trkpt>
      <trkpt lat="44.11628" lon="6.72933">
        <ele>1960.5733192467</ele>
        <time>2021-07-10T08:30:29Z</time>
      </trkpt>
      <trkpt lat="44.11627" lon="6.72932">
        <ele>1959.5733928287</ele>
        <time>2021-07-10T08:30:30Z</time>
      </trkpt>
      <trkpt lat="44.11626" lon="6.72931">
        <ele>1959.5734474713</ele>
        <time>2021-07-10T08:30:31Z</time>
      </trkpt>
      <trkpt lat="44.11625" lon="6.7293">
        <ele>1959.5734890933</ele>
        <time>2021-07-10T08:30:32Z</time>
      </trkpt>
      <trkpt lat="44.11624" lon="6.72928">
        <ele>1958.5735719894</ele>
        <time>2021-07-10T08:30:34Z</time>
      </trkpt>
      <trkpt lat="44.11624" lon="6.72927">
        <ele>1958.5736123476</ele>
        <time>2021-07-10T08:30:35Z</time>
      </trkpt>
      <trkpt lat="44.11623" lon="6.72927">
        <ele>1959.5736290691</ele>
        <time>2021-07-10T08:30:36Z</time>
      </trkpt>
      <trkpt lat="44.11622" lon="6.72925">
        <ele>1958.5737242645</ele>
        <time>2021-07-10T08:30:38Z</time>
      </trkpt>
      <trkpt lat="44.11621" lon="6.72923">
        <ele>1957.573768431</ele>
        <time>2021-07-10T08:30:39Z</time>
      </trkpt>
      <trkpt lat="44.11621" lon="6.72922">
        <ele>1957.5738207843</ele>
        <time>2021-07-10T08:30:40Z</time>
      </trkpt>
      <trkpt lat="44.1162" lon="6.72921">
        <ele>1957.5738514351</ele>
        <time>2021-07-10T08:30:41Z</time>
      </trkpt>
      <trkpt lat="44.11619" lon="6.7292">
        <ele>1956.573902547</ele>
        <time>2021-07-10T08:30:42Z</time>
      </trkpt>
      <trkpt lat="44.11619" lon="6.72919">
        <ele>1956.5739465527</ele>
        <time>2021-07-10T08:30:43Z</time>
      </trkpt>
      <trkpt lat="44.11618" lon="6.72917">
        <ele>1956.5740150881</ele>
        <time>2021-07-10T08:30:45Z</time>
      </trkpt>
      <trkpt lat="44.11617" lon="6.72916">
        <ele>1957.5740377348</ele>
        <time>2021-07-10T08:30:46Z</time>
      </trkpt>
      <trkpt lat="44.11617" lon="6.72916">
        <ele>1956.5740639943</ele>
        <time>2021-07-10T08:30:47Z</time>
      </trkpt>
      <trkpt lat="44.11616" lon="6.72915">
        <ele>1955.5741066557</ele>
        <time>2021-07-10T08:30:48Z</time>
      </trkpt>
      <trkpt lat="44.11616" lon="6.72914">
        <ele>1954.5741521189</ele>
        <time>2021-07-10T08:30:49Z</time>
      </trkpt>
      <trkpt lat="44.11615" lon="6.72912">
        <ele>1954.5742098343</ele>
        <time>2021-07-10T08:30:50Z</time>
      </trkpt>
      <trkpt lat="44.11615" lon="6.72912">
        <ele>1953.5742232581</ele>
        <time>2021-07-10T08:30:51Z</time>
      </trkpt>
      <trkpt lat="44.11614" lon="6.72911">
        <ele>1952.57427715</ele>
        <time>2021-07-10T08:30:52Z</time>
      </trkpt>
      <trkpt lat="44.11612" lon="6.72908">
        <ele>1953.5743882661</ele>
        <time>2021-07-10T08:30:54Z</time>
      </trkpt>
      <trkpt lat="44.11611" lon="6.72907">
        <ele>1952.574431101</ele>
        <time>2021-07-10T08:30:55Z</time>
      </trkpt>
      <trkpt lat="44.1161" lon="6.72906">
        <ele>1952.5744765973</ele>
        <time>2021-07-10T08:30:56Z</time>
      </trkpt>
      <trkpt lat="44.1161" lon="6.72906">
        <ele>1952.5745007524</ele>
        <time>2021-07-10T08:30:57Z</time>
      </trkpt>
      <trkpt lat="44.11609" lon="6.72905">
        <ele>1952.574541021</ele>
        <time>2021-07-10T08:30:58Z</time>
      </trkpt>
      <trkpt lat="44.11609" lon="6.72904">
        <ele>1952.5745802993</ele>
        <time>2021-07-10T08:31:00Z</time>
      </trkpt>
      <trkpt lat="44.11608" lon="6.72905">
        <ele>1953.5745949768</ele>
        <time>2021-07-10T08:31:01Z</time>
      </trkpt>
      <trkpt lat="44.11608" lon="6.72905">
        <ele>1953.574591732</ele>
        <time>2021-07-10T08:31:02Z</time>
      </trkpt>
      <trkpt lat="44.11608" lon="6.72907">
        <ele>1952.5745553958</ele>
        <time>2021-07-10T08:31:03Z</time>
      </trkpt>
      <trkpt lat="44.11607" lon="6.72908">
        <ele>1951.5745671749</ele>
        <time>2021-07-10T08:31:05Z</time>
      </trkpt>
      <trkpt lat="44.11608" lon="6.72908">
        <ele>1950.5745283229</ele>
        <time>2021-07-10T08:31:07Z</time>
      </trkpt>
      <trkpt lat="44.11609" lon="6.72909">
        <ele>1950.5745054077</ele>
        <time>2021-07-10T08:31:08Z</time>
      </trkpt>
      <trkpt lat="44.11609" lon="6.72909">
        <ele>1949.5744648327</ele>
        <time>2021-07-10T08:31:10Z</time>
      </trkpt>
      <trkpt lat="44.11609" lon="6.72909">
        <ele>1949.5744648327</ele>
        <time>2021-07-10T08:31:18Z</time>
      </trkpt>
      <trkpt lat="44.1161" lon="6.72908">
        <ele>1951.5744683416</ele>
        <time>2021-07-10T08:31:19Z</time>
      </trkpt>
      <trkpt lat="44.11609" lon="6.72907">
        <ele>1952.5745069773</ele>
        <time>2021-07-10T08:31:26Z</time>
      </trkpt>
      <trkpt lat="44.11609" lon="6.72907">
        <ele>1952.5745385306</ele>
        <time>2021-07-10T08:31:27Z</time>
      </trkpt>
      <trkpt lat="44.11608" lon="6.72906">
        <ele>1951.5745768415</ele>
        <time>2021-07-10T08:31:32Z</time>
      </trkpt>
      <trkpt lat="44.11607" lon="6.72905">
        <ele>1953.5746195717</ele>
        <time>2021-07-10T08:31:33Z</time>
      </trkpt>
      <trkpt lat="44.11606" lon="6.72904">
        <ele>1952.5746754058</ele>
        <time>2021-07-10T08:31:34Z</time>
      </trkpt>
      <trkpt lat="44.11606" lon="6.72902">
        <ele>1952.5747307259</ele>
        <time>2021-07-10T08:31:35Z</time>
      </trkpt>
      <trkpt lat="44.11605" lon="6.72901">
        <ele>1952.5747677146</ele>
        <time>2021-07-10T08:31:36Z</time>
      </trkpt>
      <trkpt lat="44.11605" lon="6.729">
        <ele>1952.5748147947</ele>
        <time>2021-07-10T08:31:37Z</time>
      </trkpt>
      <trkpt lat="44.11603" lon="6.72896">
        <ele>1950.5749331272</ele>
        <time>2021-07-10T08:31:39Z</time>
      </trkpt>
      <trkpt lat="44.11602" lon="6.72895">
        <ele>1950.5749840258</ele>
        <time>2021-07-10T08:31:40Z</time>
      </trkpt>
      <trkpt lat="44.11601" lon="6.72893">
        <ele>1949.5750534364</ele>
        <time>2021-07-10T08:31:41Z</time>
      </trkpt>
      <trkpt lat="44.11601" lon="6.72892">
        <ele>1948.5750996524</ele>
        <time>2021-07-10T08:31:42Z</time>
      </trkpt>
      <trkpt lat="44.116" lon="6.7289">
        <ele>1948.5751609916</ele>
        <time>2021-07-10T08:31:44Z</time>
      </trkpt>
      <trkpt lat="44.116" lon="6.72888">
        <ele>1948.5752041823</ele>
        <time>2021-07-10T08:31:45Z</time>
      </trkpt>
      <trkpt lat="44.11599" lon="6.72888">
        <ele>1948.5752277726</ele>
        <time>2021-07-10T08:31:46Z</time>
      </trkpt>
      <trkpt lat="44.11599" lon="6.72887">
        <ele>1948.5752538386</ele>
        <time>2021-07-10T08:31:47Z</time>
      </trkpt>
      <trkpt lat="44.11598" lon="6.72887">
        <ele>1949.5753136707</ele>
        <time>2021-07-10T08:31:48Z</time>
      </trkpt>
      <trkpt lat="44.11597" lon="6.72886">
        <ele>1949.5753607219</ele>
        <time>2021-07-10T08:31:49Z</time>
      </trkpt>
      <trkpt lat="44.11596" lon="6.72886">
        <ele>1949.5754039435</ele>
        <time>2021-07-10T08:31:50Z</time>
      </trkpt>
      <trkpt lat="44.11595" lon="6.72886">
        <ele>1949.5754223528</ele>
        <time>2021-07-10T08:31:51Z</time>
      </trkpt>
      <trkpt lat="44.11594" lon="6.72886">
        <ele>1949.5754811791</ele>
        <time>2021-07-10T08:31:53Z</time>
      </trkpt>
      <trkpt lat="44.11591" lon="6.72886">
        <ele>1951.5755565205</ele>
        <time>2021-07-10T08:31:55Z</time>
      </trkpt>
      <trkpt lat="44.1159" lon="6.72886">
        <ele>1951.5756076008</ele>
        <time>2021-07-10T08:31:56Z</time>
      </trkpt>
      <trkpt lat="44.11589" lon="6.72887">
        <ele>1951.5756212553</ele>
        <time>2021-07-10T08:31:57Z</time>
      </trkpt>
      <trkpt lat="44.11589" lon="6.72886">
        <ele>1951.5756547036</ele>
        <time>2021-07-10T08:31:58Z</time>
      </trkpt>
      <trkpt lat="44.11587" lon="6.72886">
        <ele>1952.5757146232</ele>
        <time>2021-07-10T08:32:00Z</time>
      </trkpt>
      <trkpt lat="44.11586" lon="6.72885">
        <ele>1953.5757566737</ele>
        <time>2021-07-10T08:32:01Z</time>
      </trkpt>
      <trkpt lat="44.11586" lon="6.72884">
        <ele>1953.5757988508</ele>
        <time>2021-07-10T08:32:02Z</time>
      </trkpt>
      <trkpt lat="44.11585" lon="6.72884">
        <ele>1953.5758395974</ele>
        <time>2021-07-10T08:32:03Z</time>
      </trkpt>
      <trkpt lat="44.11584" lon="6.72884">
        <ele>1954.5758702232</ele>
        <time>2021-07-10T08:32:04Z</time>
      </trkpt>
      <trkpt lat="44.11583" lon="6.72883">
        <ele>1954.5759144366</ele>
        <time>2021-07-10T08:32:05Z</time>
      </trkpt>
      <trkpt lat="44.11582" lon="6.72881">
        <ele>1953.5759678543</ele>
        <time>2021-07-10T08:32:06Z</time>
      </trkpt>
      <trkpt lat="44.11582" lon="6.72881">
        <ele>1954.5760066304</ele>
        <time>2021-07-10T08:32:07Z</time>
      </trkpt>
      <trkpt lat="44.1158" lon="6.72879">
        <ele>1954.5761065994</ele>
        <time>2021-07-10T08:32:09Z</time>
      </trkpt>
      <trkpt lat="44.11579" lon="6.72878">
        <ele>1954.5761481862</ele>
        <time>2021-07-10T08:32:10Z</time>
      </trkpt>
      <trkpt lat="44.11578" lon="6.72878">
        <ele>1953.5761883029</ele>
        <time>2021-07-10T08:32:11Z</time>
      </trkpt>
      <trkpt lat="44.11577" lon="6.72878">
        <ele>1953.5762354419</ele>
        <time>2021-07-10T08:32:12Z</time>
      </trkpt>
      <trkpt lat="44.11576" lon="6.72877">
        <ele>1953.5762890801</ele>
        <time>2021-07-10T08:32:13Z</time>
      </trkpt>
      <trkpt lat="44.11574" lon="6.72876">
        <ele>1953.5763830378</ele>
        <time>2021-07-10T08:32:15Z</time>
      </trkpt>
      <trkpt lat="44.11573" lon="6.72876">
        <ele>1953.5764087932</ele>
        <time>2021-07-10T08:32:16Z</time>
      </trkpt>
      <trkpt lat="44.11573" lon="6.72875">
        <ele>1954.5764252563</ele>
        <time>2021-07-10T08:32:17Z</time>
      </trkpt>
      <trkpt lat="44.11572" lon="6.72875">
        <ele>1953.5764520573</ele>
        <time>2021-07-10T08:32:18Z</time>
      </trkpt>
      <trkpt lat="44.11572" lon="6.72875">
        <ele>1954.5764647218</ele>
        <time>2021-07-10T08:32:20Z</time>
      </trkpt>
      <trkpt lat="44.11571" lon="6.72875">
        <ele>1953.5764979275</ele>
        <time>2021-07-10T08:32:23Z</time>
      </trkpt>
      <trkpt lat="44.11569" lon="6.72874">
        <ele>1953.5765916112</ele>
        <time>2021-07-10T08:32:24Z</time>
      </trkpt>
      <trkpt lat="44.11569" lon="6.72874">
        <ele>1952.5766098315</ele>
        <time>2021-07-10T08:32:27Z</time>
      </trkpt>
      <trkpt lat="44.11568" lon="6.72875">
        <ele>1953.576623709</ele>
        <time>2021-07-10T08:32:29Z</time>
      </trkpt>
      <trkpt lat="44.11567" lon="6.72876">
        <ele>1954.5766392155</ele>
        <time>2021-07-10T08:32:30Z</time>
      </trkpt>
      <trkpt lat="44.11568" lon="6.72876">
        <ele>1956.5766106114</ele>
        <time>2021-07-10T08:32:35Z</time>
      </trkpt>
      <trkpt lat="44.11567" lon="6.72874">
        <ele>1954.5766521902</ele>
        <time>2021-07-10T08:32:36Z</time>
      </trkpt>
      <trkpt lat="44.11566" lon="6.72874">
        <ele>1954.5766826963</ele>
        <time>2021-07-10T08:32:39Z</time>
      </trkpt>
      <trkpt lat="44.11566" lon="6.72875">
        <ele>1954.5766908618</ele>
        <time>2021-07-10T08:32:40Z</time>
      </trkpt>
      <trkpt lat="44.11565" lon="6.72876">
        <ele>1953.5766946699</ele>
        <time>2021-07-10T08:32:41Z</time>
      </trkpt>
      <trkpt lat="44.11565" lon="6.72876">
        <ele>1954.5767234244</ele>
        <time>2021-07-10T08:32:42Z</time>
      </trkpt>
      <trkpt lat="44.11564" lon="6.72876">
        <ele>1953.5767448283</ele>
        <time>2021-07-10T08:32:43Z</time>
      </trkpt>
      <trkpt lat="44.11563" lon="6.72876">
        <ele>1954.5767704485</ele>
        <time>2021-07-10T08:32:44Z</time>
      </trkpt>
      <trkpt lat="44.11563" lon="6.72876">
        <ele>1954.576800559</ele>
        <time>2021-07-10T08:32:45Z</time>
      </trkpt>
      <trkpt lat="44.11562" lon="6.72875">
        <ele>1954.5768187595</ele>
        <time>2021-07-10T08:32:46Z</time>
      </trkpt>
      <trkpt lat="44.11561" lon="6.72874">
        <ele>1954.5768850907</ele>
        <time>2021-07-10T08:32:48Z</time>
      </trkpt>
      <trkpt lat="44.1156" lon="6.72874">
        <ele>1954.5769161152</ele>
        <time>2021-07-10T08:32:50Z</time>
      </trkpt>
      <trkpt lat="44.11559" lon="6.72873">
        <ele>1954.5769540742</ele>
        <time>2021-07-10T08:32:52Z</time>
      </trkpt>
      <trkpt lat="44.11558" lon="6.72873">
        <ele>1956.5769969108</ele>
        <time>2021-07-10T08:32:53Z</time>
      </trkpt>
      <trkpt lat="44.11557" lon="6.72873">
        <ele>1956.5770318726</ele>
        <time>2021-07-10T08:32:54Z</time>
      </trkpt>
      <trkpt lat="44.11557" lon="6.72873">
        <ele>1956.5770614341</ele>
        <time>2021-07-10T08:32:55Z</time>
      </trkpt>
      <trkpt lat="44.11556" lon="6.72874">
        <ele>1957.5770649569</ele>
        <time>2021-07-10T08:32:58Z</time>
      </trkpt>
      <trkpt lat="44.11555" lon="6.72874">
        <ele>1957.5770993513</ele>
        <time>2021-07-10T08:32:59Z</time>
      </trkpt>
      <trkpt lat="44.11555" lon="6.72874">
        <ele>1957.5771252111</ele>
        <time>2021-07-10T08:33:00Z</time>
      </trkpt>
      <trkpt lat="44.11554" lon="6.72874">
        <ele>1957.5771338467</ele>
        <time>2021-07-10T08:33:01Z</time>
      </trkpt>
      <trkpt lat="44.11554" lon="6.72874">
        <ele>1957.5771525251</ele>
        <time>2021-07-10T08:33:02Z</time>
      </trkpt>
      <trkpt lat="44.11553" lon="6.72875">
        <ele>1958.5771417686</ele>
        <time>2021-07-10T08:33:04Z</time>
      </trkpt>
      <trkpt lat="44.11553" lon="6.72875">
        <ele>1958.5771738627</ele>
        <time>2021-07-10T08:33:06Z</time>
      </trkpt>
      <trkpt lat="44.11552" lon="6.72876">
        <ele>1958.5771796115</ele>
        <time>2021-07-10T08:33:10Z</time>
      </trkpt>
      <trkpt lat="44.11551" lon="6.72876">
        <ele>1959.577210826</ele>
        <time>2021-07-10T08:33:11Z</time>
      </trkpt>
      <trkpt lat="44.11551" lon="6.72877">
        <ele>1958.5771944522</ele>
        <time>2021-07-10T08:33:14Z</time>
      </trkpt>
      <trkpt lat="44.11551" lon="6.72877">
        <ele>1958.5772032258</ele>
        <time>2021-07-10T08:33:15Z</time>
      </trkpt>
      <trkpt lat="44.1155" lon="6.72878">
        <ele>1958.5772021243</ele>
        <time>2021-07-10T08:33:16Z</time>
      </trkpt>
      <trkpt lat="44.11549" lon="6.72879">
        <ele>1958.5772320485</ele>
        <time>2021-07-10T08:33:18Z</time>
      </trkpt>
      <trkpt lat="44.11549" lon="6.7288">
        <ele>1957.5772308313</ele>
        <time>2021-07-10T08:33:20Z</time>
      </trkpt>
      <trkpt lat="44.11548" lon="6.72881">
        <ele>1958.5772345493</ele>
        <time>2021-07-10T08:33:21Z</time>
      </trkpt>
      <trkpt lat="44.11548" lon="6.72881">
        <ele>1957.5772495678</ele>
        <time>2021-07-10T08:33:23Z</time>
      </trkpt>
      <trkpt lat="44.11547" lon="6.72882">
        <ele>1957.5772659582</ele>
        <time>2021-07-10T08:33:25Z</time>
      </trkpt>
      <trkpt lat="44.11547" lon="6.72883">
        <ele>1957.5772512119</ele>
        <time>2021-07-10T08:33:26Z</time>
      </trkpt>
      <trkpt lat="44.11546" lon="6.72884">
        <ele>1957.5772615015</ele>
        <time>2021-07-10T08:33:27Z</time>
      </trkpt>
      <trkpt lat="44.11546" lon="6.72884">
        <ele>1958.5772578595</ele>
        <time>2021-07-10T08:33:30Z</time>
      </trkpt>
      <trkpt lat="44.11545" lon="6.72885">
        <ele>1958.5772690716</ele>
        <time>2021-07-10T08:33:31Z</time>
      </trkpt>
      <trkpt lat="44.11544" lon="6.72884">
        <ele>1959.5773269098</ele>
        <time>2021-07-10T08:33:33Z</time>
      </trkpt>
      <trkpt lat="44.11543" lon="6.72885">
        <ele>1959.5773459133</ele>
        <time>2021-07-10T08:33:35Z</time>
      </trkpt>
      <trkpt lat="44.11542" lon="6.72886">
        <ele>1958.5773560885</ele>
        <time>2021-07-10T08:33:36Z</time>
      </trkpt>
      <trkpt lat="44.11541" lon="6.72887">
        <ele>1958.5773710843</ele>
        <time>2021-07-10T08:33:37Z</time>
      </trkpt>
      <trkpt lat="44.1154" lon="6.72889">
        <ele>1956.5773775139</ele>
        <time>2021-07-10T08:33:39Z</time>
      </trkpt>
      <trkpt lat="44.11541" lon="6.72889">
        <ele>1955.5773400837</ele>
        <time>2021-07-10T08:33:41Z</time>
      </trkpt>
      <trkpt lat="44.1154" lon="6.72892">
        <ele>1956.577321171</ele>
        <time>2021-07-10T08:33:43Z</time>
      </trkpt>
      <trkpt lat="44.11541" lon="6.72894">
        <ele>1956.5772666813</ele>
        <time>2021-07-10T08:33:45Z</time>
      </trkpt>
      <trkpt lat="44.11541" lon="6.72895">
        <ele>1956.5772550031</ele>
        <time>2021-07-10T08:33:46Z</time>
      </trkpt>
      <trkpt lat="44.11541" lon="6.72895">
        <ele>1956.5772397208</ele>
        <time>2021-07-10T08:33:47Z</time>
      </trkpt>
      <trkpt lat="44.11542" lon="6.72896">
        <ele>1956.5771830737</ele>
        <time>2021-07-10T08:33:49Z</time>
      </trkpt>
      <trkpt lat="44.11542" lon="6.72897">
        <ele>1955.5771711402</ele>
        <time>2021-07-10T08:33:50Z</time>
      </trkpt>
      <trkpt lat="44.11542" lon="6.72898">
        <ele>1955.5771405784</ele>
        <time>2021-07-10T08:33:51Z</time>
      </trkpt>
      <trkpt lat="44.11542" lon="6.72899">
        <ele>1956.577125549</ele>
        <time>2021-07-10T08:33:53Z</time>
      </trkpt>
      <trkpt lat="44.11541" lon="6.729">
        <ele>1957.5771324598</ele>
        <time>2021-07-10T08:33:54Z</time>
      </trkpt>
      <trkpt lat="44.11541" lon="6.72901">
        <ele>1958.5771349487</ele>
        <time>2021-07-10T08:33:55Z</time>
      </trkpt>
      <trkpt lat="44.1154" lon="6.72901">
        <ele>1959.5771607327</ele>
        <time>2021-07-10T08:33:56Z</time>
      </trkpt>
      <trkpt lat="44.11539" lon="6.72901">
        <ele>1959.5771866267</ele>
        <time>2021-07-10T08:33:57Z</time>
      </trkpt>
      <trkpt lat="44.11538" lon="6.72902">
        <ele>1960.5772189915</ele>
        <time>2021-07-10T08:33:59Z</time>
      </trkpt>
      <trkpt lat="44.11537" lon="6.72901">
        <ele>1961.5772567316</ele>
        <time>2021-07-10T08:34:00Z</time>
      </trkpt>
      <trkpt lat="44.11537" lon="6.72901">
        <ele>1961.5772864095</ele>
        <time>2021-07-10T08:34:01Z</time>
      </trkpt>
      <trkpt lat="44.11535" lon="6.72899">
        <ele>1960.5773874116</ele>
        <time>2021-07-10T08:34:03Z</time>
      </trkpt>
      <trkpt lat="44.11534" lon="6.72898">
        <ele>1960.5774341864</ele>
        <time>2021-07-10T08:34:04Z</time>
      </trkpt>
      <trkpt lat="44.11533" lon="6.72898">
        <ele>1960.5774585239</ele>
        <time>2021-07-10T08:34:05Z</time>
      </trkpt>
      <trkpt lat="44.11532" lon="6.72898">
        <ele>1960.5774970949</ele>
        <time>2021-07-10T08:34:06Z</time>
      </trkpt>
      <trkpt lat="44.11531" lon="6.72899">
        <ele>1961.5775094161</ele>
        <time>2021-07-10T08:34:07Z</time>
      </trkpt>
      <trkpt lat="44.11531" lon="6.729">
        <ele>1962.5775165642</ele>
        <time>2021-07-10T08:34:08Z</time>
      </trkpt>
      <trkpt lat="44.11531" lon="6.729">
        <ele>1963.5775192545</ele>
        <time>2021-07-10T08:34:09Z</time>
      </trkpt>
      <trkpt lat="44.11529" lon="6.72901">
        <ele>1964.5775775188</ele>
        <time>2021-07-10T08:34:11Z</time>
      </trkpt>
      <trkpt lat="44.11528" lon="6.72901">
        <ele>1965.5776069747</ele>
        <time>2021-07-10T08:34:12Z</time>
      </trkpt>
      <trkpt lat="44.11527" lon="6.72901">
        <ele>1965.5776345813</ele>
        <time>2021-07-10T08:34:13Z</time>
      </trkpt>
      <trkpt lat="44.11525" lon="6.72902">
        <ele>1966.5776891629</ele>
        <time>2021-07-10T08:34:15Z</time>
      </trkpt>
      <trkpt lat="44.11524" lon="6.72902">
        <ele>1966.5777166403</ele>
        <time>2021-07-10T08:34:16Z</time>
      </trkpt>
      <trkpt lat="44.11523" lon="6.72902">
        <ele>1966.5777522484</ele>
        <time>2021-07-10T08:34:17Z</time>
      </trkpt>
      <trkpt lat="44.11522" lon="6.72903">
        <ele>1965.5777838425</ele>
        <time>2021-07-10T08:34:18Z</time>
      </trkpt>
      <trkpt lat="44.11521" lon="6.72904">
        <ele>1966.5778138556</ele>
        <time>2021-07-10T08:34:19Z</time>
      </trkpt>
      <trkpt lat="44.1152" lon="6.72904">
        <ele>1966.5778431838</ele>
        <time>2021-07-10T08:34:20Z</time>
      </trkpt>
      <trkpt lat="44.11519" lon="6.72904">
        <ele>1966.5778747557</ele>
        <time>2021-07-10T08:34:21Z</time>
      </trkpt>
      <trkpt lat="44.11517" lon="6.72906">
        <ele>1966.5779229676</ele>
        <time>2021-07-10T08:34:23Z</time>
      </trkpt>
      <trkpt lat="44.11514" lon="6.72906">
        <ele>1966.5779972557</ele>
        <time>2021-07-10T08:34:25Z</time>
      </trkpt>
      <trkpt lat="44.11513" lon="6.72906">
        <ele>1967.5780444153</ele>
        <time>2021-07-10T08:34:26Z</time>
      </trkpt>
      <trkpt lat="44.11512" lon="6.72906">
        <ele>1967.5780737375</ele>
        <time>2021-07-10T08:34:27Z</time>
      </trkpt>
      <trkpt lat="44.11511" lon="6.72907">
        <ele>1968.5780857805</ele>
        <time>2021-07-10T08:34:28Z</time>
      </trkpt>
      <trkpt lat="44.1151" lon="6.72908">
        <ele>1968.5781484285</ele>
        <time>2021-07-10T08:34:30Z</time>
      </trkpt>
      <trkpt lat="44.11509" lon="6.72908">
        <ele>1968.5781662094</ele>
        <time>2021-07-10T08:34:31Z</time>
      </trkpt>
      <trkpt lat="44.11508" lon="6.72909">
        <ele>1968.5781752185</ele>
        <time>2021-07-10T08:34:32Z</time>
      </trkpt>
      <trkpt lat="44.11507" lon="6.7291">
        <ele>1968.5781823055</ele>
        <time>2021-07-10T08:34:34Z</time>
      </trkpt>
      <trkpt lat="44.11506" lon="6.72911">
        <ele>1968.5782057491</ele>
        <time>2021-07-10T08:34:35Z</time>
      </trkpt>
      <trkpt lat="44.11505" lon="6.72911">
        <ele>1968.5782447645</ele>
        <time>2021-07-10T08:34:36Z</time>
      </trkpt>
      <trkpt lat="44.11504" lon="6.72912">
        <ele>1967.5782890981</ele>
        <time>2021-07-10T08:34:38Z</time>
      </trkpt>
      <trkpt lat="44.11503" lon="6.72912">
        <ele>1967.5783065749</ele>
        <time>2021-07-10T08:34:39Z</time>
      </trkpt>
      <trkpt lat="44.11501" lon="6.72911">
        <ele>1966.5784240697</ele>
        <time>2021-07-10T08:34:41Z</time>
      </trkpt>
      <trkpt lat="44.115" lon="6.72911">
        <ele>1967.5784574292</ele>
        <time>2021-07-10T08:34:42Z</time>
      </trkpt>
      <trkpt lat="44.11499" lon="6.72911">
        <ele>1967.5784775268</ele>
        <time>2021-07-10T08:34:43Z</time>
      </trkpt>
      <trkpt lat="44.11498" lon="6.72911">
        <ele>1968.5785108811</ele>
        <time>2021-07-10T08:34:46Z</time>
      </trkpt>
      <trkpt lat="44.11498" lon="6.72911">
        <ele>1969.5785256146</ele>
        <time>2021-07-10T08:34:47Z</time>
      </trkpt>
      <trkpt lat="44.11497" lon="6.72911">
        <ele>1969.578558508</ele>
        <time>2021-07-10T08:34:48Z</time>
      </trkpt>
      <trkpt lat="44.11496" lon="6.72911">
        <ele>1968.5785952354</ele>
        <time>2021-07-10T08:34:49Z</time>
      </trkpt>
      <trkpt lat="44.11495" lon="6.7291">
        <ele>1968.578645977</ele>
        <time>2021-07-10T08:34:50Z</time>
      </trkpt>
      <trkpt lat="44.11494" lon="6.7291">
        <ele>1968.5786762347</ele>
        <time>2021-07-10T08:34:51Z</time>
      </trkpt>
      <trkpt lat="44.11492" lon="6.7291">
        <ele>1968.5787433753</ele>
        <time>2021-07-10T08:34:53Z</time>
      </trkpt>
      <trkpt lat="44.11491" lon="6.72909">
        <ele>1968.5787837975</ele>
        <time>2021-07-10T08:34:54Z</time>
      </trkpt>
      <trkpt lat="44.11491" lon="6.72909">
        <ele>1968.5788151397</ele>
        <time>2021-07-10T08:34:55Z</time>
      </trkpt>
      <trkpt lat="44.1149" lon="6.7291">
        <ele>1968.5788378617</ele>
        <time>2021-07-10T08:34:56Z</time>
      </trkpt>
      <trkpt lat="44.11489" lon="6.72911">
        <ele>1968.578858536</ele>
        <time>2021-07-10T08:34:57Z</time>
      </trkpt>
      <trkpt lat="44.11488" lon="6.72912">
        <ele>1969.5788572651</ele>
        <time>2021-07-10T08:34:58Z</time>
      </trkpt>
      <trkpt lat="44.11487" lon="6.72912">
        <ele>1970.5789058131</ele>
        <time>2021-07-10T08:35:00Z</time>
      </trkpt>
      <trkpt lat="44.11486" lon="6.72912">
        <ele>1970.5789335838</ele>
        <time>2021-07-10T08:35:01Z</time>
      </trkpt>
      <trkpt lat="44.11485" lon="6.72913">
        <ele>1970.5789669049</ele>
        <time>2021-07-10T08:35:02Z</time>
      </trkpt>
      <trkpt lat="44.11483" lon="6.72913">
        <ele>1970.579028955</ele>
        <time>2021-07-10T08:35:03Z</time>
      </trkpt>
      <trkpt lat="44.11481" lon="6.72913">
        <ele>1970.5790901352</ele>
        <time>2021-07-10T08:35:04Z</time>
      </trkpt>
      <trkpt lat="44.1148" lon="6.72912">
        <ele>1970.5791280876</ele>
        <time>2021-07-10T08:35:05Z</time>
      </trkpt>
      <trkpt lat="44.11479" lon="6.72913">
        <ele>1970.5791658707</ele>
        <time>2021-07-10T08:35:06Z</time>
      </trkpt>
      <trkpt lat="44.11478" lon="6.72913">
        <ele>1970.5791990484</ele>
        <time>2021-07-10T08:35:07Z</time>
      </trkpt>
      <trkpt lat="44.11477" lon="6.72913">
        <ele>1970.5792601944</ele>
        <time>2021-07-10T08:35:09Z</time>
      </trkpt>
      <trkpt lat="44.11475" lon="6.72913">
        <ele>1971.5793129144</ele>
        <time>2021-07-10T08:35:10Z</time>
      </trkpt>
      <trkpt lat="44.11474" lon="6.72912">
        <ele>1972.5793547094</ele>
        <time>2021-07-10T08:35:11Z</time>
      </trkpt>
      <trkpt lat="44.11472" lon="6.72912">
        <ele>1972.5794244621</ele>
        <time>2021-07-10T08:35:13Z</time>
      </trkpt>
      <trkpt lat="44.11471" lon="6.72913">
        <ele>1973.5794616239</ele>
        <time>2021-07-10T08:35:15Z</time>
      </trkpt>
      <trkpt lat="44.1147" lon="6.72914">
        <ele>1973.5794941886</ele>
        <time>2021-07-10T08:35:16Z</time>
      </trkpt>
      <trkpt lat="44.11469" lon="6.72914">
        <ele>1972.5795164667</ele>
        <time>2021-07-10T08:35:17Z</time>
      </trkpt>
      <trkpt lat="44.11469" lon="6.72914">
        <ele>1972.5795433523</ele>
        <time>2021-07-10T08:35:18Z</time>
      </trkpt>
      <trkpt lat="44.11468" lon="6.72913">
        <ele>1972.579580553</ele>
        <time>2021-07-10T08:35:19Z</time>
      </trkpt>
      <trkpt lat="44.11467" lon="6.72913">
        <ele>1973.579612206</ele>
        <time>2021-07-10T08:35:20Z</time>
      </trkpt>
      <trkpt lat="44.11466" lon="6.72913">
        <ele>1973.5796369382</ele>
        <time>2021-07-10T08:35:21Z</time>
      </trkpt>
      <trkpt lat="44.11466" lon="6.72912">
        <ele>1973.5796592232</ele>
        <time>2021-07-10T08:35:22Z</time>
      </trkpt>
      <trkpt lat="44.11465" lon="6.72912">
        <ele>1972.5796904197</ele>
        <time>2021-07-10T08:35:24Z</time>
      </trkpt>
      <trkpt lat="44.11465" lon="6.72912">
        <ele>1972.5797016296</ele>
        <time>2021-07-10T08:35:25Z</time>
      </trkpt>
      <trkpt lat="44.11464" lon="6.72912">
        <ele>1971.5797274427</ele>
        <time>2021-07-10T08:35:26Z</time>
      </trkpt>
      <trkpt lat="44.11464" lon="6.72912">
        <ele>1970.5797469506</ele>
        <time>2021-07-10T08:35:27Z</time>
      </trkpt>
      <trkpt lat="44.11463" lon="6.72912">
        <ele>1969.579794431</ele>
        <time>2021-07-10T08:35:28Z</time>
      </trkpt>
      <trkpt lat="44.11461" lon="6.72911">
        <ele>1968.5798781661</ele>
        <time>2021-07-10T08:35:30Z</time>
      </trkpt>
      <trkpt lat="44.1146" lon="6.72911">
        <ele>1966.5798999873</ele>
        <time>2021-07-10T08:35:34Z</time>
      </trkpt>
      <trkpt lat="44.11459" lon="6.72911">
        <ele>1965.579934245</ele>
        <time>2021-07-10T08:35:35Z</time>
      </trkpt>
      <trkpt lat="44.11459" lon="6.7291">
        <ele>1965.5799671237</ele>
        <time>2021-07-10T08:35:36Z</time>
      </trkpt>
      <trkpt lat="44.11458" lon="6.72911">
        <ele>1965.5800050683</ele>
        <time>2021-07-10T08:35:37Z</time>
      </trkpt>
      <trkpt lat="44.11456" lon="6.72911">
        <ele>1966.580050695</ele>
        <time>2021-07-10T08:35:38Z</time>
      </trkpt>
      <trkpt lat="44.11455" lon="6.72911">
        <ele>1966.5800874127</ele>
        <time>2021-07-10T08:35:39Z</time>
      </trkpt>
      <trkpt lat="44.11454" lon="6.72911">
        <ele>1966.5801345769</ele>
        <time>2021-07-10T08:35:40Z</time>
      </trkpt>
      <trkpt lat="44.11453" lon="6.72912">
        <ele>1967.5801596225</ele>
        <time>2021-07-10T08:35:41Z</time>
      </trkpt>
      <trkpt lat="44.11452" lon="6.72913">
        <ele>1967.5801875897</ele>
        <time>2021-07-10T08:35:42Z</time>
      </trkpt>
      <trkpt lat="44.1145" lon="6.72912">
        <ele>1967.58025534</ele>
        <time>2021-07-10T08:35:43Z</time>
      </trkpt>
      <trkpt lat="44.11449" lon="6.72911">
        <ele>1966.5803077221</ele>
        <time>2021-07-10T08:35:44Z</time>
      </trkpt>
      <trkpt lat="44.11447" lon="6.72911">
        <ele>1966.5803676317</ele>
        <time>2021-07-10T08:35:45Z</time>
      </trkpt>
      <trkpt lat="44.11446" lon="6.7291">
        <ele>1967.5804224671</ele>
        <time>2021-07-10T08:35:46Z</time>
      </trkpt>
      <trkpt lat="44.11445" lon="6.7291">
        <ele>1967.5804683987</ele>
        <time>2021-07-10T08:35:47Z</time>
      </trkpt>
      <trkpt lat="44.11444" lon="6.7291">
        <ele>1968.5805183238</ele>
        <time>2021-07-10T08:35:48Z</time>
      </trkpt>
      <trkpt lat="44.11443" lon="6.7291">
        <ele>1968.5805677834</ele>
        <time>2021-07-10T08:35:49Z</time>
      </trkpt>
      <trkpt lat="44.11442" lon="6.72909">
        <ele>1968.5806112528</ele>
        <time>2021-07-10T08:35:50Z</time>
      </trkpt>
      <trkpt lat="44.11441" lon="6.72909">
        <ele>1968.5806539477</ele>
        <time>2021-07-10T08:35:51Z</time>
      </trkpt>
      <trkpt lat="44.1144" lon="6.72908">
        <ele>1968.5807109156</ele>
        <time>2021-07-10T08:35:53Z</time>
      </trkpt>
      <trkpt lat="44.11439" lon="6.72908">
        <ele>1967.5807494665</ele>
        <time>2021-07-10T08:35:54Z</time>
      </trkpt>
      <trkpt lat="44.11438" lon="6.72908">
        <ele>1968.580781724</ele>
        <time>2021-07-10T08:35:55Z</time>
      </trkpt>
      <trkpt lat="44.11436" lon="6.72908">
        <ele>1969.5808290461</ele>
        <time>2021-07-10T08:35:56Z</time>
      </trkpt>
      <trkpt lat="44.11435" lon="6.72908">
        <ele>1970.5808695983</ele>
        <time>2021-07-10T08:35:57Z</time>
      </trkpt>
      <trkpt lat="44.11433" lon="6.72908">
        <ele>1969.5809335114</ele>
        <time>2021-07-10T08:35:59Z</time>
      </trkpt>
      <trkpt lat="44.11433" lon="6.72908">
        <ele>1969.5809600645</ele>
        <time>2021-07-10T08:36:00Z</time>
      </trkpt>
      <trkpt lat="44.11432" lon="6.72907">
        <ele>1969.5809959953</ele>
        <time>2021-07-10T08:36:01Z</time>
      </trkpt>
      <trkpt lat="44.11432" lon="6.72907">
        <ele>1968.5810158089</ele>
        <time>2021-07-10T08:36:02Z</time>
      </trkpt>
      <trkpt lat="44.11431" lon="6.72907">
        <ele>1967.5810537331</ele>
        <time>2021-07-10T08:36:05Z</time>
      </trkpt>
      <trkpt lat="44.1143" lon="6.72907">
        <ele>1967.5810838322</ele>
        <time>2021-07-10T08:36:06Z</time>
      </trkpt>
      <trkpt lat="44.11429" lon="6.72907">
        <ele>1966.5811127052</ele>
        <time>2021-07-10T08:36:07Z</time>
      </trkpt>
      <trkpt lat="44.11428" lon="6.72907">
        <ele>1964.5811459126</ele>
        <time>2021-07-10T08:36:09Z</time>
      </trkpt>
      <trkpt lat="44.11427" lon="6.72908">
        <ele>1963.5811626753</ele>
        <time>2021-07-10T08:36:10Z</time>
      </trkpt>
      <trkpt lat="44.11426" lon="6.72908">
        <ele>1963.5812009157</ele>
        <time>2021-07-10T08:36:11Z</time>
      </trkpt>
      <trkpt lat="44.11425" lon="6.72908">
        <ele>1964.5812348819</ele>
        <time>2021-07-10T08:36:12Z</time>
      </trkpt>
      <trkpt lat="44.11424" lon="6.72908">
        <ele>1964.5812723703</ele>
        <time>2021-07-10T08:36:13Z</time>
      </trkpt>
      <trkpt lat="44.11423" lon="6.72907">
        <ele>1964.5813199565</ele>
        <time>2021-07-10T08:36:15Z</time>
      </trkpt>
      <trkpt lat="44.11423" lon="6.72907">
        <ele>1963.5813454376</ele>
        <time>2021-07-10T08:36:17Z</time>
      </trkpt>
      <trkpt lat="44.11422" lon="6.72907">
        <ele>1963.5813629472</ele>
        <time>2021-07-10T08:36:18Z</time>
      </trkpt>
      <trkpt lat="44.11421" lon="6.72907">
        <ele>1962.5814025931</ele>
        <time>2021-07-10T08:36:19Z</time>
      </trkpt>
      <trkpt lat="44.1142" lon="6.72908">
        <ele>1961.5814328748</ele>
        <time>2021-07-10T08:36:20Z</time>
      </trkpt>
      <trkpt lat="44.11419" lon="6.72908">
        <ele>1960.5814611607</ele>
        <time>2021-07-10T08:36:21Z</time>
      </trkpt>
      <trkpt lat="44.11418" lon="6.72909">
        <ele>1959.5814876016</ele>
        <time>2021-07-10T08:36:22Z</time>
      </trkpt>
      <trkpt lat="44.11416" lon="6.72909">
        <ele>1960.5815397101</ele>
        <time>2021-07-10T08:36:24Z</time>
      </trkpt>
      <trkpt lat="44.11416" lon="6.72908">
        <ele>1960.5815705488</ele>
        <time>2021-07-10T08:36:25Z</time>
      </trkpt>
      <trkpt lat="44.11415" lon="6.72908">
        <ele>1960.5815918796</ele>
        <time>2021-07-10T08:36:26Z</time>
      </trkpt>
      <trkpt lat="44.11414" lon="6.72908">
        <ele>1959.5816477848</ele>
        <time>2021-07-10T08:36:28Z</time>
      </trkpt>
      <trkpt lat="44.11412" lon="6.72909">
        <ele>1960.5816973105</ele>
        <time>2021-07-10T08:36:30Z</time>
      </trkpt>
      <trkpt lat="44.11411" lon="6.7291">
        <ele>1959.5817242416</ele>
        <time>2021-07-10T08:36:31Z</time>
      </trkpt>
      <trkpt lat="44.1141" lon="6.7291">
        <ele>1959.5817539006</ele>
        <time>2021-07-10T08:36:32Z</time>
      </trkpt>
      <trkpt lat="44.11409" lon="6.72909">
        <ele>1959.5818016188</ele>
        <time>2021-07-10T08:36:33Z</time>
      </trkpt>
      <trkpt lat="44.11408" lon="6.72909">
        <ele>1959.5818349424</ele>
        <time>2021-07-10T08:36:34Z</time>
      </trkpt>
      <trkpt lat="44.11408" lon="6.72909">
        <ele>1958.5818661307</ele>
        <time>2021-07-10T08:36:35Z</time>
      </trkpt>
      <trkpt lat="44.11407" lon="6.72909">
        <ele>1958.5819028314</ele>
        <time>2021-07-10T08:36:36Z</time>
      </trkpt>
      <trkpt lat="44.11406" lon="6.72909">
        <ele>1958.5819249461</ele>
        <time>2021-07-10T08:36:37Z</time>
      </trkpt>
      <trkpt lat="44.11404" lon="6.72909">
        <ele>1958.5819827237</ele>
        <time>2021-07-10T08:36:39Z</time>
      </trkpt>
      <trkpt lat="44.11404" lon="6.72909">
        <ele>1959.582014501</ele>
        <time>2021-07-10T08:36:40Z</time>
      </trkpt>
      <trkpt lat="44.11403" lon="6.72908">
        <ele>1960.5820540934</ele>
        <time>2021-07-10T08:36:41Z</time>
      </trkpt>
      <trkpt lat="44.11402" lon="6.72908">
        <ele>1961.5820832661</ele>
        <time>2021-07-10T08:36:42Z</time>
      </trkpt>
      <trkpt lat="44.11402" lon="6.72908">
        <ele>1962.5821006451</ele>
        <time>2021-07-10T08:36:43Z</time>
      </trkpt>
      <trkpt lat="44.114" lon="6.72909">
        <ele>1961.5821341612</ele>
        <time>2021-07-10T08:36:44Z</time>
      </trkpt>
      <trkpt lat="44.114" lon="6.72909">
        <ele>1961.5821629141</ele>
        <time>2021-07-10T08:36:45Z</time>
      </trkpt>
      <trkpt lat="44.11399" lon="6.7291">
        <ele>1960.5821705203</ele>
        <time>2021-07-10T08:36:46Z</time>
      </trkpt>
      <trkpt lat="44.11398" lon="6.7291">
        <ele>1960.5821901641</ele>
        <time>2021-07-10T08:36:47Z</time>
      </trkpt>
      <trkpt lat="44.11398" lon="6.7291">
        <ele>1960.5822084648</ele>
        <time>2021-07-10T08:36:48Z</time>
      </trkpt>
      <trkpt lat="44.11395" lon="6.7291">
        <ele>1961.5823198905</ele>
        <time>2021-07-10T08:36:48Z</time>
      </trkpt>
      <trkpt lat="44.11394" lon="6.7291">
        <ele>1961.5823430879</ele>
        <time>2021-07-10T08:36:50Z</time>
      </trkpt>
      <trkpt lat="44.11393" lon="6.7291">
        <ele>1960.5823691992</ele>
        <time>2021-07-10T08:36:51Z</time>
      </trkpt>
      <trkpt lat="44.11392" lon="6.7291">
        <ele>1960.5824032971</ele>
        <time>2021-07-10T08:36:52Z</time>
      </trkpt>
      <trkpt lat="44.11392" lon="6.72911">
        <ele>1960.582419937</ele>
        <time>2021-07-10T08:36:53Z</time>
      </trkpt>
      <trkpt lat="44.11391" lon="6.72912">
        <ele>1960.5824201914</ele>
        <time>2021-07-10T08:36:54Z</time>
      </trkpt>
      <trkpt lat="44.1139" lon="6.72912">
        <ele>1960.5824310168</ele>
        <time>2021-07-10T08:36:57Z</time>
      </trkpt>
      <trkpt lat="44.1139" lon="6.72912">
        <ele>1959.5824623742</ele>
        <time>2021-07-10T08:36:58Z</time>
      </trkpt>
      <trkpt lat="44.11389" lon="6.72913">
        <ele>1959.5824899319</ele>
        <time>2021-07-10T08:36:59Z</time>
      </trkpt>
      <trkpt lat="44.11388" lon="6.72913">
        <ele>1959.582521462</ele>
        <time>2021-07-10T08:37:00Z</time>
      </trkpt>
      <trkpt lat="44.11387" lon="6.72914">
        <ele>1959.5825407182</ele>
        <time>2021-07-10T08:37:01Z</time>
      </trkpt>
      <trkpt lat="44.11386" lon="6.72914">
        <ele>1959.5825588962</ele>
        <time>2021-07-10T08:37:02Z</time>
      </trkpt>
      <trkpt lat="44.11385" lon="6.72915">
        <ele>1960.5825771127</ele>
        <time>2021-07-10T08:37:03Z</time>
      </trkpt>
      <trkpt lat="44.11384" lon="6.72915">
        <ele>1960.5826061969</ele>
        <time>2021-07-10T08:37:04Z</time>
      </trkpt>
      <trkpt lat="44.11383" lon="6.72915">
        <ele>1960.5826499416</ele>
        <time>2021-07-10T08:37:05Z</time>
      </trkpt>
      <trkpt lat="44.11382" lon="6.72914">
        <ele>1960.5826921486</ele>
        <time>2021-07-10T08:37:06Z</time>
      </trkpt>
      <trkpt lat="44.11381" lon="6.72914">
        <ele>1960.5827253447</ele>
        <time>2021-07-10T08:37:07Z</time>
      </trkpt>
      <trkpt lat="44.1138" lon="6.72915">
        <ele>1961.5827582451</ele>
        <time>2021-07-10T08:37:08Z</time>
      </trkpt>
      <trkpt lat="44.1138" lon="6.72915">
        <ele>1962.5827733604</ele>
        <time>2021-07-10T08:37:09Z</time>
      </trkpt>
      <trkpt lat="44.11379" lon="6.72915">
        <ele>1962.5828080301</ele>
        <time>2021-07-10T08:37:10Z</time>
      </trkpt>
      <trkpt lat="44.11379" lon="6.72915">
        <ele>1963.5828197417</ele>
        <time>2021-07-10T08:37:11Z</time>
      </trkpt>
      <trkpt lat="44.11378" lon="6.72916">
        <ele>1962.5828249253</ele>
        <time>2021-07-10T08:37:12Z</time>
      </trkpt>
      <trkpt lat="44.11377" lon="6.72916">
        <ele>1962.5828381812</ele>
        <time>2021-07-10T08:37:13Z</time>
      </trkpt>
      <trkpt lat="44.11377" lon="6.72916">
        <ele>1962.5828670843</ele>
        <time>2021-07-10T08:37:14Z</time>
      </trkpt>
      <trkpt lat="44.11376" lon="6.72917">
        <ele>1963.5828901937</ele>
        <time>2021-07-10T08:37:15Z</time>
      </trkpt>
      <trkpt lat="44.11375" lon="6.72917">
        <ele>1963.5829178372</ele>
        <time>2021-07-10T08:37:16Z</time>
      </trkpt>
      <trkpt lat="44.11374" lon="6.72916">
        <ele>1963.5829595457</ele>
        <time>2021-07-10T08:37:17Z</time>
      </trkpt>
      <trkpt lat="44.11374" lon="6.72916">
        <ele>1963.5829659972</ele>
        <time>2021-07-10T08:37:20Z</time>
      </trkpt>
      <trkpt lat="44.11373" lon="6.72917">
        <ele>1962.5829971892</ele>
        <time>2021-07-10T08:37:21Z</time>
      </trkpt>
      <trkpt lat="44.11372" lon="6.72918">
        <ele>1962.5829963793</ele>
        <time>2021-07-10T08:37:23Z</time>
      </trkpt>
      <trkpt lat="44.11373" lon="6.72919">
        <ele>1962.5829569124</ele>
        <time>2021-07-10T08:37:24Z</time>
      </trkpt>
      <trkpt lat="44.11373" lon="6.72921">
        <ele>1961.5829208742</ele>
        <time>2021-07-10T08:37:25Z</time>
      </trkpt>
      <trkpt lat="44.11374" lon="6.72923">
        <ele>1960.5828614917</ele>
        <time>2021-07-10T08:37:26Z</time>
      </trkpt>
      <trkpt lat="44.11374" lon="6.72924">
        <ele>1960.5828355507</ele>
        <time>2021-07-10T08:37:27Z</time>
      </trkpt>
      <trkpt lat="44.11373" lon="6.72925">
        <ele>1960.5828445796</ele>
        <time>2021-07-10T08:37:29Z</time>
      </trkpt>
      <trkpt lat="44.11373" lon="6.72926">
        <ele>1961.5828331837</ele>
        <time>2021-07-10T08:37:30Z</time>
      </trkpt>
      <trkpt lat="44.11373" lon="6.72926">
        <ele>1961.5828295486</ele>
        <time>2021-07-10T08:37:32Z</time>
      </trkpt>
      <trkpt lat="44.11372" lon="6.72928">
        <ele>1961.582813794</ele>
        <time>2021-07-10T08:37:34Z</time>
      </trkpt>
      <trkpt lat="44.11372" lon="6.7293">
        <ele>1960.5827848756</ele>
        <time>2021-07-10T08:37:36Z</time>
      </trkpt>
      <trkpt lat="44.11372" lon="6.7293">
        <ele>1960.5827886518</ele>
        <time>2021-07-10T08:37:37Z</time>
      </trkpt>
      <trkpt lat="44.11372" lon="6.72931">
        <ele>1960.5827738586</ele>
        <time>2021-07-10T08:37:38Z</time>
      </trkpt>
      <trkpt lat="44.11371" lon="6.72932">
        <ele>1960.5827741284</ele>
        <time>2021-07-10T08:37:40Z</time>
      </trkpt>
      <trkpt lat="44.11372" lon="6.72933">
        <ele>1961.5827499567</ele>
        <time>2021-07-10T08:37:44Z</time>
      </trkpt>
      <trkpt lat="44.11371" lon="6.72935">
        <ele>1961.5827323036</ele>
        <time>2021-07-10T08:37:46Z</time>
      </trkpt>
      <trkpt lat="44.11371" lon="6.72935">
        <ele>1959.5827326994</ele>
        <time>2021-07-10T08:37:52Z</time>
      </trkpt>
      <trkpt lat="44.1137" lon="6.72936">
        <ele>1959.5827451524</ele>
        <time>2021-07-10T08:37:53Z</time>
      </trkpt>
      <trkpt lat="44.11369" lon="6.72937">
        <ele>1960.5827629577</ele>
        <time>2021-07-10T08:37:54Z</time>
      </trkpt>
      <trkpt lat="44.11368" lon="6.72937">
        <ele>1961.5827911404</ele>
        <time>2021-07-10T08:37:55Z</time>
      </trkpt>
      <trkpt lat="44.11367" lon="6.72938">
        <ele>1961.5828091152</ele>
        <time>2021-07-10T08:37:56Z</time>
      </trkpt>
      <trkpt lat="44.11366" lon="6.72938">
        <ele>1962.5828507322</ele>
        <time>2021-07-10T08:37:57Z</time>
      </trkpt>
      <trkpt lat="44.11366" lon="6.72938">
        <ele>1962.58288038</ele>
        <time>2021-07-10T08:37:58Z</time>
      </trkpt>
      <trkpt lat="44.11365" lon="6.72938">
        <ele>1961.5829122183</ele>
        <time>2021-07-10T08:37:59Z</time>
      </trkpt>
      <trkpt lat="44.11364" lon="6.72938">
        <ele>1962.5829283849</ele>
        <time>2021-07-10T08:38:00Z</time>
      </trkpt>
      <trkpt lat="44.11363" lon="6.72938">
        <ele>1963.5829764144</ele>
        <time>2021-07-10T08:38:02Z</time>
      </trkpt>
      <trkpt lat="44.11362" lon="6.72938">
        <ele>1963.5830099738</ele>
        <time>2021-07-10T08:38:03Z</time>
      </trkpt>
      <trkpt lat="44.11361" lon="6.72938">
        <ele>1965.5830544923</ele>
        <time>2021-07-10T08:38:05Z</time>
      </trkpt>
      <trkpt lat="44.1136" lon="6.72939">
        <ele>1965.5830581324</ele>
        <time>2021-07-10T08:38:09Z</time>
      </trkpt>
      <trkpt lat="44.11358" lon="6.7294">
        <ele>1965.583105099</ele>
        <time>2021-07-10T08:38:11Z</time>
      </trkpt>
      <trkpt lat="44.11358" lon="6.72941">
        <ele>1966.5831158609</ele>
        <time>2021-07-10T08:38:12Z</time>
      </trkpt>
      <trkpt lat="44.11356" lon="6.72942">
        <ele>1966.583145499</ele>
        <time>2021-07-10T08:38:13Z</time>
      </trkpt>
      <trkpt lat="44.11356" lon="6.72942">
        <ele>1967.5831475972</ele>
        <time>2021-07-10T08:38:14Z</time>
      </trkpt>
      <trkpt lat="44.11356" lon="6.72943">
        <ele>1967.5831472516</ele>
        <time>2021-07-10T08:38:15Z</time>
      </trkpt>
      <trkpt lat="44.11355" lon="6.72944">
        <ele>1967.5831538828</ele>
        <time>2021-07-10T08:38:16Z</time>
      </trkpt>
      <trkpt lat="44.11355" lon="6.72944">
        <ele>1968.5831750841</ele>
        <time>2021-07-10T08:38:17Z</time>
      </trkpt>
      <trkpt lat="44.11354" lon="6.72944">
        <ele>1968.5831912665</ele>
        <time>2021-07-10T08:38:18Z</time>
      </trkpt>
      <trkpt lat="44.11353" lon="6.72944">
        <ele>1968.5832443891</ele>
        <time>2021-07-10T08:38:20Z</time>
      </trkpt>
      <trkpt lat="44.11352" lon="6.72945">
        <ele>1968.5832628424</ele>
        <time>2021-07-10T08:38:21Z</time>
      </trkpt>
      <trkpt lat="44.11351" lon="6.72945">
        <ele>1968.5832826687</ele>
        <time>2021-07-10T08:38:22Z</time>
      </trkpt>
      <trkpt lat="44.11351" lon="6.72945">
        <ele>1969.5832814647</ele>
        <time>2021-07-10T08:38:23Z</time>
      </trkpt>
      <trkpt lat="44.1135" lon="6.72946">
        <ele>1970.5833003279</ele>
        <time>2021-07-10T08:38:24Z</time>
      </trkpt>
      <trkpt lat="44.11349" lon="6.72947">
        <ele>1971.5833215551</ele>
        <time>2021-07-10T08:38:25Z</time>
      </trkpt>
      <trkpt lat="44.11349" lon="6.72947">
        <ele>1971.5833342828</ele>
        <time>2021-07-10T08:38:26Z</time>
      </trkpt>
      <trkpt lat="44.11348" lon="6.72948">
        <ele>1972.5833434573</ele>
        <time>2021-07-10T08:38:27Z</time>
      </trkpt>
      <trkpt lat="44.11347" lon="6.72948">
        <ele>1972.5833559065</ele>
        <time>2021-07-10T08:38:28Z</time>
      </trkpt>
      <trkpt lat="44.11347" lon="6.72949">
        <ele>1972.5833663464</ele>
        <time>2021-07-10T08:38:29Z</time>
      </trkpt>
      <trkpt lat="44.11347" lon="6.7295">
        <ele>1972.5833626521</ele>
        <time>2021-07-10T08:38:30Z</time>
      </trkpt>
      <trkpt lat="44.11346" lon="6.72951">
        <ele>1972.5833556298</ele>
        <time>2021-07-10T08:38:31Z</time>
      </trkpt>
      <trkpt lat="44.11346" lon="6.72952">
        <ele>1971.5833536787</ele>
        <time>2021-07-10T08:38:32Z</time>
      </trkpt>
      <trkpt lat="44.11345" lon="6.72952">
        <ele>1972.5833614737</ele>
        <time>2021-07-10T08:38:33Z</time>
      </trkpt>
      <trkpt lat="44.11344" lon="6.72953">
        <ele>1972.583382152</ele>
        <time>2021-07-10T08:38:35Z</time>
      </trkpt>
      <trkpt lat="44.11344" lon="6.72954">
        <ele>1972.5833909909</ele>
        <time>2021-07-10T08:38:36Z</time>
      </trkpt>
      <trkpt lat="44.11344" lon="6.72954">
        <ele>1973.5833874416</ele>
        <time>2021-07-10T08:38:37Z</time>
      </trkpt>
      <trkpt lat="44.11343" lon="6.72955">
        <ele>1973.5833726121</ele>
        <time>2021-07-10T08:38:38Z</time>
      </trkpt>
      <trkpt lat="44.11343" lon="6.72956">
        <ele>1973.583371056</ele>
        <time>2021-07-10T08:38:39Z</time>
      </trkpt>
      <trkpt lat="44.11342" lon="6.72957">
        <ele>1972.5833928638</ele>
        <time>2021-07-10T08:38:41Z</time>
      </trkpt>
      <trkpt lat="44.11341" lon="6.72958">
        <ele>1972.5834249479</ele>
        <time>2021-07-10T08:38:42Z</time>
      </trkpt>
      <trkpt lat="44.1134" lon="6.72957">
        <ele>1972.5834649337</ele>
        <time>2021-07-10T08:38:43Z</time>
      </trkpt>
      <trkpt lat="44.11339" lon="6.72958">
        <ele>1972.5834911561</ele>
        <time>2021-07-10T08:38:44Z</time>
      </trkpt>
      <trkpt lat="44.11338" lon="6.72958">
        <ele>1972.5835281343</ele>
        <time>2021-07-10T08:38:45Z</time>
      </trkpt>
      <trkpt lat="44.11337" lon="6.72958">
        <ele>1972.5835379959</ele>
        <time>2021-07-10T08:38:47Z</time>
      </trkpt>
      <trkpt lat="44.11337" lon="6.72959">
        <ele>1972.5835492081</ele>
        <time>2021-07-10T08:38:48Z</time>
      </trkpt>
      <trkpt lat="44.11337" lon="6.72959">
        <ele>1973.5835651712</ele>
        <time>2021-07-10T08:38:49Z</time>
      </trkpt>
      <trkpt lat="44.11336" lon="6.7296">
        <ele>1974.5835751148</ele>
        <time>2021-07-10T08:38:50Z</time>
      </trkpt>
      <trkpt lat="44.11335" lon="6.7296">
        <ele>1973.5835998317</ele>
        <time>2021-07-10T08:38:51Z</time>
      </trkpt>
      <trkpt lat="44.11334" lon="6.72961">
        <ele>1974.5836180694</ele>
        <time>2021-07-10T08:38:52Z</time>
      </trkpt>
      <trkpt lat="44.11334" lon="6.7296">
        <ele>1974.5836495549</ele>
        <time>2021-07-10T08:38:57Z</time>
      </trkpt>
      <trkpt lat="44.11332" lon="6.72961">
        <ele>1976.5836738741</ele>
        <time>2021-07-10T08:38:58Z</time>
      </trkpt>
      <trkpt lat="44.11331" lon="6.72963">
        <ele>1976.5836910833</ele>
        <time>2021-07-10T08:39:00Z</time>
      </trkpt>
      <trkpt lat="44.1133" lon="6.72964">
        <ele>1976.5837234837</ele>
        <time>2021-07-10T08:39:02Z</time>
      </trkpt>
      <trkpt lat="44.11329" lon="6.72963">
        <ele>1979.583759097</ele>
        <time>2021-07-10T08:39:08Z</time>
      </trkpt>
      <trkpt lat="44.11329" lon="6.72963">
        <ele>1979.5837777613</ele>
        <time>2021-07-10T08:39:09Z</time>
      </trkpt>
      <trkpt lat="44.11327" lon="6.72964">
        <ele>1979.5838146929</ele>
        <time>2021-07-10T08:39:11Z</time>
      </trkpt>
      <trkpt lat="44.11326" lon="6.72964">
        <ele>1979.583839114</ele>
        <time>2021-07-10T08:39:14Z</time>
      </trkpt>
      <trkpt lat="44.11326" lon="6.72964">
        <ele>1979.583862345</ele>
        <time>2021-07-10T08:39:15Z</time>
      </trkpt>
      <trkpt lat="44.11325" lon="6.72963">
        <ele>1978.5839089313</ele>
        <time>2021-07-10T08:39:16Z</time>
      </trkpt>
      <trkpt lat="44.11324" lon="6.72963">
        <ele>1979.5839288241</ele>
        <time>2021-07-10T08:39:18Z</time>
      </trkpt>
      <trkpt lat="44.11324" lon="6.72964">
        <ele>1978.58393754</ele>
        <time>2021-07-10T08:39:19Z</time>
      </trkpt>
      <trkpt lat="44.11324" lon="6.72965">
        <ele>1978.5839333015</ele>
        <time>2021-07-10T08:39:23Z</time>
      </trkpt>
      <trkpt lat="44.11323" lon="6.72965">
        <ele>1979.5839326593</ele>
        <time>2021-07-10T08:39:26Z</time>
      </trkpt>
      <trkpt lat="44.11322" lon="6.72965">
        <ele>1980.5840017478</ele>
        <time>2021-07-10T08:39:27Z</time>
      </trkpt>
      <trkpt lat="44.11321" lon="6.72965">
        <ele>1980.5840088201</ele>
        <time>2021-07-10T08:39:28Z</time>
      </trkpt>
      <trkpt lat="44.11321" lon="6.72967">
        <ele>1980.583995761</ele>
        <time>2021-07-10T08:39:29Z</time>
      </trkpt>
      <trkpt lat="44.1132" lon="6.72967">
        <ele>1982.5840098912</ele>
        <time>2021-07-10T08:39:30Z</time>
      </trkpt>
      <trkpt lat="44.1132" lon="6.72968">
        <ele>1982.5840161678</ele>
        <time>2021-07-10T08:39:31Z</time>
      </trkpt>
      <trkpt lat="44.11319" lon="6.72969">
        <ele>1982.584038646</ele>
        <time>2021-07-10T08:39:32Z</time>
      </trkpt>
      <trkpt lat="44.11318" lon="6.7297">
        <ele>1983.584052175</ele>
        <time>2021-07-10T08:39:34Z</time>
      </trkpt>
      <trkpt lat="44.11317" lon="6.72971">
        <ele>1984.5840634418</ele>
        <time>2021-07-10T08:39:35Z</time>
      </trkpt>
      <trkpt lat="44.11317" lon="6.72972">
        <ele>1984.584053187</ele>
        <time>2021-07-10T08:39:36Z</time>
      </trkpt>
      <trkpt lat="44.11317" lon="6.72973">
        <ele>1984.5840441536</ele>
        <time>2021-07-10T08:39:37Z</time>
      </trkpt>
      <trkpt lat="44.11317" lon="6.72974">
        <ele>1983.5840110269</ele>
        <time>2021-07-10T08:39:39Z</time>
      </trkpt>
      <trkpt lat="44.11316" lon="6.72975">
        <ele>1983.5840318194</ele>
        <time>2021-07-10T08:39:40Z</time>
      </trkpt>
      <trkpt lat="44.11315" lon="6.72975">
        <ele>1983.5840475794</ele>
        <time>2021-07-10T08:39:41Z</time>
      </trkpt>
      <trkpt lat="44.11315" lon="6.72975">
        <ele>1983.5840800603</ele>
        <time>2021-07-10T08:39:42Z</time>
      </trkpt>
      <trkpt lat="44.11314" lon="6.72975">
        <ele>1984.5841036266</ele>
        <time>2021-07-10T08:39:43Z</time>
      </trkpt>
      <trkpt lat="44.11312" lon="6.72976">
        <ele>1984.58414179</ele>
        <time>2021-07-10T08:39:45Z</time>
      </trkpt>
      <trkpt lat="44.11312" lon="6.72976">
        <ele>1983.584139431</ele>
        <time>2021-07-10T08:39:46Z</time>
      </trkpt>
      <trkpt lat="44.11312" lon="6.72977">
        <ele>1984.5841335517</ele>
        <time>2021-07-10T08:39:47Z</time>
      </trkpt>
      <trkpt lat="44.11312" lon="6.72978">
        <ele>1984.5841297973</ele>
        <time>2021-07-10T08:39:51Z</time>
      </trkpt>
      <trkpt lat="44.11311" lon="6.72979">
        <ele>1983.5841564737</ele>
        <time>2021-07-10T08:39:52Z</time>
      </trkpt>
      <trkpt lat="44.1131" lon="6.72979">
        <ele>1983.5841743594</ele>
        <time>2021-07-10T08:39:53Z</time>
      </trkpt>
      <trkpt lat="44.1131" lon="6.7298">
        <ele>1983.5841770537</ele>
        <time>2021-07-10T08:39:54Z</time>
      </trkpt>
      <trkpt lat="44.11309" lon="6.7298">
        <ele>1984.5841713201</ele>
        <time>2021-07-10T08:39:55Z</time>
      </trkpt>
      <trkpt lat="44.11309" lon="6.72981">
        <ele>1983.5841798659</ele>
        <time>2021-07-10T08:39:56Z</time>
      </trkpt>
      <trkpt lat="44.11308" lon="6.72981">
        <ele>1983.5841999228</ele>
        <time>2021-07-10T08:39:57Z</time>
      </trkpt>
      <trkpt lat="44.11307" lon="6.72982">
        <ele>1983.5842163026</ele>
        <time>2021-07-10T08:39:58Z</time>
      </trkpt>
      <trkpt lat="44.11307" lon="6.72982">
        <ele>1983.5842217802</ele>
        <time>2021-07-10T08:39:59Z</time>
      </trkpt>
      <trkpt lat="44.11307" lon="6.72983">
        <ele>1982.584233196</ele>
        <time>2021-07-10T08:40:01Z</time>
      </trkpt>
      <trkpt lat="44.11306" lon="6.72984">
        <ele>1981.5842197331</ele>
        <time>2021-07-10T08:40:02Z</time>
      </trkpt>
      <trkpt lat="44.11306" lon="6.72984">
        <ele>1981.5842359261</ele>
        <time>2021-07-10T08:40:03Z</time>
      </trkpt>
      <trkpt lat="44.11304" lon="6.72986">
        <ele>1982.5842588078</ele>
        <time>2021-07-10T08:40:05Z</time>
      </trkpt>
      <trkpt lat="44.11304" lon="6.72986">
        <ele>1981.5842841028</ele>
        <time>2021-07-10T08:40:07Z</time>
      </trkpt>
      <trkpt lat="44.11303" lon="6.72986">
        <ele>1982.584300829</ele>
        <time>2021-07-10T08:40:08Z</time>
      </trkpt>
      <trkpt lat="44.11303" lon="6.72986">
        <ele>1982.584300829</ele>
        <time>2021-07-10T08:40:09Z</time>
      </trkpt>
      <trkpt lat="44.11302" lon="6.72987">
        <ele>1982.5843287633</ele>
        <time>2021-07-10T08:40:10Z</time>
      </trkpt>
      <trkpt lat="44.11301" lon="6.72987">
        <ele>1983.5843410382</ele>
        <time>2021-07-10T08:40:11Z</time>
      </trkpt>
      <trkpt lat="44.11301" lon="6.72988">
        <ele>1984.5843600804</ele>
        <time>2021-07-10T08:40:12Z</time>
      </trkpt>
      <trkpt lat="44.113" lon="6.72988">
        <ele>1985.5843640948</ele>
        <time>2021-07-10T08:40:17Z</time>
      </trkpt>
      <trkpt lat="44.11299" lon="6.72989">
        <ele>1986.5844092976</ele>
        <time>2021-07-10T08:40:18Z</time>
      </trkpt>
      <trkpt lat="44.11297" lon="6.7299">
        <ele>1986.5844440345</ele>
        <time>2021-07-10T08:40:19Z</time>
      </trkpt>
      <trkpt lat="44.11296" lon="6.7299">
        <ele>1986.5844777473</ele>
        <time>2021-07-10T08:40:20Z</time>
      </trkpt>
      <trkpt lat="44.11296" lon="6.7299">
        <ele>1986.5845124194</ele>
        <time>2021-07-10T08:40:21Z</time>
      </trkpt>
      <trkpt lat="44.11294" lon="6.7299">
        <ele>1986.5845488624</ele>
        <time>2021-07-10T08:40:22Z</time>
      </trkpt>
      <trkpt lat="44.11294" lon="6.7299">
        <ele>1986.5845766352</ele>
        <time>2021-07-10T08:40:23Z</time>
      </trkpt>
      <trkpt lat="44.11293" lon="6.7299">
        <ele>1986.584609939</ele>
        <time>2021-07-10T08:40:24Z</time>
      </trkpt>
      <trkpt lat="44.11292" lon="6.7299">
        <ele>1986.584631505</ele>
        <time>2021-07-10T08:40:25Z</time>
      </trkpt>
      <trkpt lat="44.11292" lon="6.7299">
        <ele>1986.5846367639</ele>
        <time>2021-07-10T08:40:26Z</time>
      </trkpt>
      <trkpt lat="44.11292" lon="6.72991">
        <ele>1986.5846339074</ele>
        <time>2021-07-10T08:40:28Z</time>
      </trkpt>
      <trkpt lat="44.11291" lon="6.72992">
        <ele>1986.5846513168</ele>
        <time>2021-07-10T08:40:29Z</time>
      </trkpt>
      <trkpt lat="44.1129" lon="6.72992">
        <ele>1986.5846860971</ele>
        <time>2021-07-10T08:40:30Z</time>
      </trkpt>
      <trkpt lat="44.11289" lon="6.72992">
        <ele>1985.5847086011</ele>
        <time>2021-07-10T08:40:32Z</time>
      </trkpt>
      <trkpt lat="44.11288" lon="6.72994">
        <ele>1985.5846936535</ele>
        <time>2021-07-10T08:40:34Z</time>
      </trkpt>
      <trkpt lat="44.11288" lon="6.72994">
        <ele>1984.5847120859</ele>
        <time>2021-07-10T08:40:39Z</time>
      </trkpt>
      <trkpt lat="44.11288" lon="6.72995">
        <ele>1983.5846950025</ele>
        <time>2021-07-10T08:40:41Z</time>
      </trkpt>
      <trkpt lat="44.11287" lon="6.72996">
        <ele>1983.5847058272</ele>
        <time>2021-07-10T08:40:45Z</time>
      </trkpt>
      <trkpt lat="44.11287" lon="6.72997">
        <ele>1983.5847137537</ele>
        <time>2021-07-10T08:40:47Z</time>
      </trkpt>
      <trkpt lat="44.11286" lon="6.72997">
        <ele>1983.5847167598</ele>
        <time>2021-07-10T08:40:48Z</time>
      </trkpt>
      <trkpt lat="44.11286" lon="6.72998">
        <ele>1983.5847111422</ele>
        <time>2021-07-10T08:40:49Z</time>
      </trkpt>
      <trkpt lat="44.11286" lon="6.72999">
        <ele>1982.5846992565</ele>
        <time>2021-07-10T08:40:55Z</time>
      </trkpt>
      <trkpt lat="44.11285" lon="6.73">
        <ele>1981.5847062096</ele>
        <time>2021-07-10T08:40:56Z</time>
      </trkpt>
      <trkpt lat="44.11285" lon="6.73">
        <ele>1980.5847061289</ele>
        <time>2021-07-10T08:40:59Z</time>
      </trkpt>
      <trkpt lat="44.11285" lon="6.73001">
        <ele>1979.5846857332</ele>
        <time>2021-07-10T08:41:01Z</time>
      </trkpt>
      <trkpt lat="44.11285" lon="6.73002">
        <ele>1979.5846723446</ele>
        <time>2021-07-10T08:41:02Z</time>
      </trkpt>
      <trkpt lat="44.11285" lon="6.73003">
        <ele>1978.5846753561</ele>
        <time>2021-07-10T08:41:03Z</time>
      </trkpt>
      <trkpt lat="44.11283" lon="6.73004">
        <ele>1978.584707278</ele>
        <time>2021-07-10T08:41:05Z</time>
      </trkpt>
      <trkpt lat="44.11283" lon="6.73004">
        <ele>1978.5847379477</ele>
        <time>2021-07-10T08:41:06Z</time>
      </trkpt>
      <trkpt lat="44.11282" lon="6.73004">
        <ele>1978.5847592403</ele>
        <time>2021-07-10T08:41:07Z</time>
      </trkpt>
      <trkpt lat="44.11282" lon="6.73005">
        <ele>1978.5847553857</ele>
        <time>2021-07-10T08:41:10Z</time>
      </trkpt>
      <trkpt lat="44.1128" lon="6.73006">
        <ele>1978.5847799701</ele>
        <time>2021-07-10T08:41:11Z</time>
      </trkpt>
      <trkpt lat="44.1128" lon="6.73006">
        <ele>1977.5848037163</ele>
        <time>2021-07-10T08:41:12Z</time>
      </trkpt>
      <trkpt lat="44.11279" lon="6.73006">
        <ele>1977.5848145199</ele>
        <time>2021-07-10T08:41:14Z</time>
      </trkpt>
      <trkpt lat="44.11279" lon="6.73007">
        <ele>1977.5848256147</ele>
        <time>2021-07-10T08:41:15Z</time>
      </trkpt>
      <trkpt lat="44.11278" lon="6.73007">
        <ele>1977.5848363199</ele>
        <time>2021-07-10T08:41:16Z</time>
      </trkpt>
      <trkpt lat="44.11278" lon="6.73008">
        <ele>1978.5848416957</ele>
        <time>2021-07-10T08:41:17Z</time>
      </trkpt>
      <trkpt lat="44.11277" lon="6.73008">
        <ele>1978.5848517185</ele>
        <time>2021-07-10T08:41:19Z</time>
      </trkpt>
      <trkpt lat="44.11277" lon="6.7301">
        <ele>1978.5848491976</ele>
        <time>2021-07-10T08:41:20Z</time>
      </trkpt>
      <trkpt lat="44.11276" lon="6.7301">
        <ele>1979.5848472153</ele>
        <time>2021-07-10T08:41:23Z</time>
      </trkpt>
      <trkpt lat="44.11275" lon="6.73011">
        <ele>1980.5848756425</ele>
        <time>2021-07-10T08:41:25Z</time>
      </trkpt>
      <trkpt lat="44.11275" lon="6.73011">
        <ele>1980.5848841478</ele>
        <time>2021-07-10T08:41:26Z</time>
      </trkpt>
      <trkpt lat="44.11274" lon="6.73012">
        <ele>1980.5848920283</ele>
        <time>2021-07-10T08:41:28Z</time>
      </trkpt>
      <trkpt lat="44.11272" lon="6.73014">
        <ele>1980.5849405325</ele>
        <time>2021-07-10T08:41:29Z</time>
      </trkpt>
      <trkpt lat="44.1127" lon="6.73016">
        <ele>1981.5849814134</ele>
        <time>2021-07-10T08:41:31Z</time>
      </trkpt>
      <trkpt lat="44.11269" lon="6.73017">
        <ele>1981.5849972721</ele>
        <time>2021-07-10T08:41:32Z</time>
      </trkpt>
      <trkpt lat="44.11269" lon="6.73017">
        <ele>1982.5849784516</ele>
        <time>2021-07-10T08:41:33Z</time>
      </trkpt>
      <trkpt lat="44.11269" lon="6.7302">
        <ele>1982.584950271</ele>
        <time>2021-07-10T08:41:35Z</time>
      </trkpt>
      <trkpt lat="44.11269" lon="6.7302">
        <ele>1982.5849450915</ele>
        <time>2021-07-10T08:41:37Z</time>
      </trkpt>
      <trkpt lat="44.11269" lon="6.73021">
        <ele>1982.5849434757</ele>
        <time>2021-07-10T08:41:39Z</time>
      </trkpt>
      <trkpt lat="44.11268" lon="6.73021">
        <ele>1982.5849355311</ele>
        <time>2021-07-10T08:41:40Z</time>
      </trkpt>
      <trkpt lat="44.1127" lon="6.73023">
        <ele>1982.5848565138</ele>
        <time>2021-07-10T08:41:42Z</time>
      </trkpt>
      <trkpt lat="44.1127" lon="6.73024">
        <ele>1982.584823751</ele>
        <time>2021-07-10T08:41:43Z</time>
      </trkpt>
      <trkpt lat="44.1127" lon="6.73025">
        <ele>1983.5848004601</ele>
        <time>2021-07-10T08:41:48Z</time>
      </trkpt>
      <trkpt lat="44.11269" lon="6.73026">
        <ele>1984.5848245729</ele>
        <time>2021-07-10T08:41:50Z</time>
      </trkpt>
      <trkpt lat="44.11269" lon="6.73027">
        <ele>1985.5848267007</ele>
        <time>2021-07-10T08:41:57Z</time>
      </trkpt>
      <trkpt lat="44.11268" lon="6.73028">
        <ele>1985.5848460553</ele>
        <time>2021-07-10T08:41:58Z</time>
      </trkpt>
      <trkpt lat="44.11267" lon="6.73028">
        <ele>1986.5848660191</ele>
        <time>2021-07-10T08:41:59Z</time>
      </trkpt>
      <trkpt lat="44.11266" lon="6.73028">
        <ele>1986.5849045202</ele>
        <time>2021-07-10T08:42:00Z</time>
      </trkpt>
      <trkpt lat="44.11265" lon="6.73028">
        <ele>1987.584932674</ele>
        <time>2021-07-10T08:42:01Z</time>
      </trkpt>
      <trkpt lat="44.11264" lon="6.73029">
        <ele>1987.5849628421</ele>
        <time>2021-07-10T08:42:02Z</time>
      </trkpt>
      <trkpt lat="44.11264" lon="6.73029">
        <ele>1986.5849802646</ele>
        <time>2021-07-10T08:42:03Z</time>
      </trkpt>
      <trkpt lat="44.11263" lon="6.73029">
        <ele>1986.5849990944</ele>
        <time>2021-07-10T08:42:04Z</time>
      </trkpt>
      <trkpt lat="44.11263" lon="6.7303">
        <ele>1986.5849839423</ele>
        <time>2021-07-10T08:42:05Z</time>
      </trkpt>
      <trkpt lat="44.11263" lon="6.73031">
        <ele>1987.5849547446</ele>
        <time>2021-07-10T08:42:06Z</time>
      </trkpt>
      <trkpt lat="44.11263" lon="6.73032">
        <ele>1987.5849392797</ele>
        <time>2021-07-10T08:42:07Z</time>
      </trkpt>
      <trkpt lat="44.11263" lon="6.73033">
        <ele>1987.5849184174</ele>
        <time>2021-07-10T08:42:08Z</time>
      </trkpt>
      <trkpt lat="44.11263" lon="6.73034">
        <ele>1986.5849109905</ele>
        <time>2021-07-10T08:42:09Z</time>
      </trkpt>
      <trkpt lat="44.11264" lon="6.73035">
        <ele>1987.5848727779</ele>
        <time>2021-07-10T08:42:10Z</time>
      </trkpt>
      <trkpt lat="44.11264" lon="6.73036">
        <ele>1988.5848338151</ele>
        <time>2021-07-10T08:42:11Z</time>
      </trkpt>
      <trkpt lat="44.11264" lon="6.73036">
        <ele>1988.5848338151</ele>
        <time>2021-07-10T08:42:13Z</time>
      </trkpt>
      <trkpt lat="44.11265" lon="6.73039">
        <ele>1988.584740575</ele>
        <time>2021-07-10T08:42:15Z</time>
      </trkpt>
      <trkpt lat="44.11265" lon="6.7304">
        <ele>1988.5847238329</ele>
        <time>2021-07-10T08:42:17Z</time>
      </trkpt>
      <trkpt lat="44.11266" lon="6.7304">
        <ele>1989.5846888271</ele>
        <time>2021-07-10T08:42:20Z</time>
      </trkpt>
      <trkpt lat="44.11267" lon="6.73043">
        <ele>1990.5846074162</ele>
        <time>2021-07-10T08:42:21Z</time>
      </trkpt>
      <trkpt lat="44.11267" lon="6.73044">
        <ele>1989.5845719874</ele>
        <time>2021-07-10T08:42:22Z</time>
      </trkpt>
      <trkpt lat="44.11268" lon="6.73046">
        <ele>1989.5845314612</ele>
        <time>2021-07-10T08:42:23Z</time>
      </trkpt>
      <trkpt lat="44.11268" lon="6.73048">
        <ele>1988.5844774943</ele>
        <time>2021-07-10T08:42:25Z</time>
      </trkpt>
      <trkpt lat="44.11268" lon="6.73048">
        <ele>1988.5844637599</ele>
        <time>2021-07-10T08:42:26Z</time>
      </trkpt>
      <trkpt lat="44.11268" lon="6.73049">
        <ele>1987.5844413669</ele>
        <time>2021-07-10T08:42:27Z</time>
      </trkpt>
      <trkpt lat="44.11268" lon="6.7305">
        <ele>1987.5844303667</ele>
        <time>2021-07-10T08:42:28Z</time>
      </trkpt>
      <trkpt lat="44.11268" lon="6.73051">
        <ele>1988.5844306232</ele>
        <time>2021-07-10T08:42:29Z</time>
      </trkpt>
      <trkpt lat="44.11267" lon="6.73052">
        <ele>1988.5844242102</ele>
        <time>2021-07-10T08:42:30Z</time>
      </trkpt>
      <trkpt lat="44.11267" lon="6.73053">
        <ele>1989.5844157139</ele>
        <time>2021-07-10T08:42:31Z</time>
      </trkpt>
      <trkpt lat="44.11267" lon="6.73055">
        <ele>1989.5844025951</ele>
        <time>2021-07-10T08:42:33Z</time>
      </trkpt>
      <trkpt lat="44.11266" lon="6.73057">
        <ele>1988.5843671008</ele>
        <time>2021-07-10T08:42:35Z</time>
      </trkpt>
      <trkpt lat="44.11266" lon="6.73058">
        <ele>1988.5843625331</ele>
        <time>2021-07-10T08:42:36Z</time>
      </trkpt>
      <trkpt lat="44.11265" lon="6.73059">
        <ele>1988.5843901416</ele>
        <time>2021-07-10T08:42:37Z</time>
      </trkpt>
      <trkpt lat="44.11265" lon="6.7306">
        <ele>1989.5843737703</ele>
        <time>2021-07-10T08:42:38Z</time>
      </trkpt>
      <trkpt lat="44.11264" lon="6.7306">
        <ele>1989.5843848437</ele>
        <time>2021-07-10T08:42:39Z</time>
      </trkpt>
      <trkpt lat="44.11264" lon="6.73063">
        <ele>1990.5843766182</ele>
        <time>2021-07-10T08:42:41Z</time>
      </trkpt>
      <trkpt lat="44.11263" lon="6.73063">
        <ele>1990.5843689684</ele>
        <time>2021-07-10T08:42:42Z</time>
      </trkpt>
      <trkpt lat="44.11263" lon="6.73064">
        <ele>1990.5843622251</ele>
        <time>2021-07-10T08:42:45Z</time>
      </trkpt>
      <trkpt lat="44.11262" lon="6.73066">
        <ele>1991.5843847927</ele>
        <time>2021-07-10T08:42:47Z</time>
      </trkpt>
      <trkpt lat="44.11261" lon="6.73066">
        <ele>1992.5843942148</ele>
        <time>2021-07-10T08:42:55Z</time>
      </trkpt>
      <trkpt lat="44.11262" lon="6.73068">
        <ele>1993.5843141515</ele>
        <time>2021-07-10T08:42:57Z</time>
      </trkpt>
      <trkpt lat="44.11262" lon="6.7307">
        <ele>1993.5842894211</ele>
        <time>2021-07-10T08:42:58Z</time>
      </trkpt>
      <trkpt lat="44.11262" lon="6.73071">
        <ele>1993.5842643083</ele>
        <time>2021-07-10T08:42:59Z</time>
      </trkpt>
      <trkpt lat="44.11262" lon="6.73072">
        <ele>1993.5842405656</ele>
        <time>2021-07-10T08:43:00Z</time>
      </trkpt>
      <trkpt lat="44.11262" lon="6.73074">
        <ele>1993.5842108585</ele>
        <time>2021-07-10T08:43:02Z</time>
      </trkpt>
      <trkpt lat="44.11262" lon="6.73075">
        <ele>1993.5842123102</ele>
        <time>2021-07-10T08:43:03Z</time>
      </trkpt>
      <trkpt lat="44.11262" lon="6.73075">
        <ele>1993.5841992181</ele>
        <time>2021-07-10T08:43:04Z</time>
      </trkpt>
      <trkpt lat="44.11263" lon="6.73077">
        <ele>1992.5841328712</ele>
        <time>2021-07-10T08:43:06Z</time>
      </trkpt>
      <trkpt lat="44.11263" lon="6.73079">
        <ele>1993.584117964</ele>
        <time>2021-07-10T08:43:07Z</time>
      </trkpt>
      <trkpt lat="44.11263" lon="6.73081">
        <ele>1993.5840909759</ele>
        <time>2021-07-10T08:43:08Z</time>
      </trkpt>
      <trkpt lat="44.11262" lon="6.73083">
        <ele>1993.5840599123</ele>
        <time>2021-07-10T08:43:10Z</time>
      </trkpt>
      <trkpt lat="44.11262" lon="6.73085">
        <ele>1994.5840438956</ele>
        <time>2021-07-10T08:43:12Z</time>
      </trkpt>
      <trkpt lat="44.11261" lon="6.73085">
        <ele>1994.5840600662</ele>
        <time>2021-07-10T08:43:13Z</time>
      </trkpt>
      <trkpt lat="44.1126" lon="6.73086">
        <ele>1993.5840652817</ele>
        <time>2021-07-10T08:43:14Z</time>
      </trkpt>
      <trkpt lat="44.1126" lon="6.73088">
        <ele>1993.5840569781</ele>
        <time>2021-07-10T08:43:15Z</time>
      </trkpt>
      <trkpt lat="44.1126" lon="6.73089">
        <ele>1993.5840345657</ele>
        <time>2021-07-10T08:43:17Z</time>
      </trkpt>
      <trkpt lat="44.1126" lon="6.7309">
        <ele>1993.584032375</ele>
        <time>2021-07-10T08:43:18Z</time>
      </trkpt>
      <trkpt lat="44.11259" lon="6.7309">
        <ele>1992.584050693</ele>
        <time>2021-07-10T08:43:19Z</time>
      </trkpt>
      <trkpt lat="44.11258" lon="6.7309">
        <ele>1992.5841002118</ele>
        <time>2021-07-10T08:43:20Z</time>
      </trkpt>
      <trkpt lat="44.11257" lon="6.7309">
        <ele>1993.5841385595</ele>
        <time>2021-07-10T08:43:22Z</time>
      </trkpt>
      <trkpt lat="44.11256" lon="6.7309">
        <ele>1995.5841519563</ele>
        <time>2021-07-10T08:43:25Z</time>
      </trkpt>
      <trkpt lat="44.11255" lon="6.7309">
        <ele>1995.5841866732</ele>
        <time>2021-07-10T08:43:26Z</time>
      </trkpt>
      <trkpt lat="44.11255" lon="6.7309">
        <ele>1995.5842063874</ele>
        <time>2021-07-10T08:43:28Z</time>
      </trkpt>
      <trkpt lat="44.11254" lon="6.73091">
        <ele>1996.584226873</ele>
        <time>2021-07-10T08:43:29Z</time>
      </trkpt>
      <trkpt lat="44.11253" lon="6.73093">
        <ele>1996.5842282192</ele>
        <time>2021-07-10T08:43:30Z</time>
      </trkpt>
      <trkpt lat="44.11252" lon="6.73094">
        <ele>1995.5842402996</ele>
        <time>2021-07-10T08:43:35Z</time>
      </trkpt>
      <trkpt lat="44.11251" lon="6.73094">
        <ele>1996.5842735851</ele>
        <time>2021-07-10T08:43:36Z</time>
      </trkpt>
      <trkpt lat="44.11251" lon="6.73095">
        <ele>1996.5842795416</ele>
        <time>2021-07-10T08:43:37Z</time>
      </trkpt>
      <trkpt lat="44.1125" lon="6.73096">
        <ele>1996.5842650379</ele>
        <time>2021-07-10T08:43:38Z</time>
      </trkpt>
      <trkpt lat="44.1125" lon="6.73097">
        <ele>1997.5842406955</ele>
        <time>2021-07-10T08:43:39Z</time>
      </trkpt>
      <trkpt lat="44.1125" lon="6.73098">
        <ele>1997.584236884</ele>
        <time>2021-07-10T08:43:40Z</time>
      </trkpt>
      <trkpt lat="44.11248" lon="6.73099">
        <ele>1997.5842765547</ele>
        <time>2021-07-10T08:43:42Z</time>
      </trkpt>
      <trkpt lat="44.11248" lon="6.731">
        <ele>1997.5842880596</ele>
        <time>2021-07-10T08:43:43Z</time>
      </trkpt>
      <trkpt lat="44.11248" lon="6.731">
        <ele>1997.5842849568</ele>
        <time>2021-07-10T08:43:44Z</time>
      </trkpt>
      <trkpt lat="44.11247" lon="6.73101">
        <ele>1997.5842931861</ele>
        <time>2021-07-10T08:43:45Z</time>
      </trkpt>
      <trkpt lat="44.11246" lon="6.73102">
        <ele>1997.5843074628</ele>
        <time>2021-07-10T08:43:46Z</time>
      </trkpt>
      <trkpt lat="44.11246" lon="6.73103">
        <ele>1997.5843045667</ele>
        <time>2021-07-10T08:43:47Z</time>
      </trkpt>
      <trkpt lat="44.11245" lon="6.73104">
        <ele>1997.5843229993</ele>
        <time>2021-07-10T08:43:48Z</time>
      </trkpt>
      <trkpt lat="44.11244" lon="6.73103">
        <ele>1998.5843483321</ele>
        <time>2021-07-10T08:43:49Z</time>
      </trkpt>
      <trkpt lat="44.11244" lon="6.73104">
        <ele>1998.5843561172</ele>
        <time>2021-07-10T08:43:52Z</time>
      </trkpt>
      <trkpt lat="44.11243" lon="6.73106">
        <ele>1997.5843579995</ele>
        <time>2021-07-10T08:43:53Z</time>
      </trkpt>
      <trkpt lat="44.11242" lon="6.73107">
        <ele>1998.5843683693</ele>
        <time>2021-07-10T08:43:54Z</time>
      </trkpt>
      <trkpt lat="44.11242" lon="6.73108">
        <ele>1998.5843735066</ele>
        <time>2021-07-10T08:43:55Z</time>
      </trkpt>
      <trkpt lat="44.11241" lon="6.73108">
        <ele>1998.5843916691</ele>
        <time>2021-07-10T08:43:58Z</time>
      </trkpt>
      <trkpt lat="44.1124" lon="6.73109">
        <ele>1999.5844237654</ele>
        <time>2021-07-10T08:43:59Z</time>
      </trkpt>
      <trkpt lat="44.11239" lon="6.7311">
        <ele>1999.5844182788</ele>
        <time>2021-07-10T08:44:00Z</time>
      </trkpt>
      <trkpt lat="44.11239" lon="6.73112">
        <ele>1999.5843834559</ele>
        <time>2021-07-10T08:44:02Z</time>
      </trkpt>
      <trkpt lat="44.11239" lon="6.73112">
        <ele>1998.5843875745</ele>
        <time>2021-07-10T08:44:07Z</time>
      </trkpt>
      <trkpt lat="44.11238" lon="6.73113">
        <ele>1998.584420498</ele>
        <time>2021-07-10T08:44:08Z</time>
      </trkpt>
      <trkpt lat="44.11236" lon="6.73114">
        <ele>1999.5844621075</ele>
        <time>2021-07-10T08:44:10Z</time>
      </trkpt>
      <trkpt lat="44.11235" lon="6.73114">
        <ele>1999.5844944488</ele>
        <time>2021-07-10T08:44:13Z</time>
      </trkpt>
      <trkpt lat="44.11234" lon="6.73115">
        <ele>2000.5845271252</ele>
        <time>2021-07-10T08:44:14Z</time>
      </trkpt>
      <trkpt lat="44.11234" lon="6.73115">
        <ele>2000.5845358239</ele>
        <time>2021-07-10T08:44:15Z</time>
      </trkpt>
      <trkpt lat="44.11233" lon="6.73116">
        <ele>2001.5845456075</ele>
        <time>2021-07-10T08:44:16Z</time>
      </trkpt>
      <trkpt lat="44.11232" lon="6.73117">
        <ele>2002.584551066</ele>
        <time>2021-07-10T08:44:17Z</time>
      </trkpt>
      <trkpt lat="44.11232" lon="6.73117">
        <ele>2002.584551066</ele>
        <time>2021-07-10T08:44:22Z</time>
      </trkpt>
      <trkpt lat="44.11231" lon="6.73119">
        <ele>2003.5845578743</ele>
        <time>2021-07-10T08:44:23Z</time>
      </trkpt>
      <trkpt lat="44.11231" lon="6.73119">
        <ele>2003.5845700544</ele>
        <time>2021-07-10T08:44:24Z</time>
      </trkpt>
      <trkpt lat="44.1123" lon="6.73121">
        <ele>2004.584577171</ele>
        <time>2021-07-10T08:44:26Z</time>
      </trkpt>
      <trkpt lat="44.1123" lon="6.73121">
        <ele>2004.584577171</ele>
        <time>2021-07-10T08:44:27Z</time>
      </trkpt>
      <trkpt lat="44.11229" lon="6.73121">
        <ele>2005.5845891189</ele>
        <time>2021-07-10T08:44:28Z</time>
      </trkpt>
      <trkpt lat="44.11229" lon="6.73121">
        <ele>2005.5846037017</ele>
        <time>2021-07-10T08:44:30Z</time>
      </trkpt>
      <trkpt lat="44.11228" lon="6.73122">
        <ele>2006.58460903</ele>
        <time>2021-07-10T08:44:32Z</time>
      </trkpt>
      <trkpt lat="44.11228" lon="6.73122">
        <ele>2006.58460903</ele>
        <time>2021-07-10T08:44:34Z</time>
      </trkpt>
      <trkpt lat="44.11227" lon="6.73126">
        <ele>2005.5845966923</ele>
        <time>2021-07-10T08:44:36Z</time>
      </trkpt>
      <trkpt lat="44.11226" lon="6.73127">
        <ele>2005.5845946745</ele>
        <time>2021-07-10T08:44:37Z</time>
      </trkpt>
      <trkpt lat="44.11226" lon="6.73128">
        <ele>2005.5845810147</ele>
        <time>2021-07-10T08:44:39Z</time>
      </trkpt>
      <trkpt lat="44.11226" lon="6.73128">
        <ele>2005.5845727522</ele>
        <time>2021-07-10T08:44:40Z</time>
      </trkpt>
      <trkpt lat="44.11225" lon="6.73129">
        <ele>2004.5845845914</ele>
        <time>2021-07-10T08:44:42Z</time>
      </trkpt>
      <trkpt lat="44.11225" lon="6.73131">
        <ele>2004.5845636519</ele>
        <time>2021-07-10T08:44:43Z</time>
      </trkpt>
      <trkpt lat="44.11224" lon="6.73131">
        <ele>2004.5845846142</ele>
        <time>2021-07-10T08:44:44Z</time>
      </trkpt>
      <trkpt lat="44.11224" lon="6.73132">
        <ele>2003.5845981421</ele>
        <time>2021-07-10T08:44:46Z</time>
      </trkpt>
      <trkpt lat="44.11223" lon="6.73133">
        <ele>2003.5845932736</ele>
        <time>2021-07-10T08:44:47Z</time>
      </trkpt>
      <trkpt lat="44.11223" lon="6.73134">
        <ele>2003.5845900528</ele>
        <time>2021-07-10T08:44:52Z</time>
      </trkpt>
      <trkpt lat="44.11222" lon="6.73135">
        <ele>2003.5846071226</ele>
        <time>2021-07-10T08:44:53Z</time>
      </trkpt>
      <trkpt lat="44.11222" lon="6.73136">
        <ele>2003.5845992438</ele>
        <time>2021-07-10T08:44:54Z</time>
      </trkpt>
      <trkpt lat="44.11221" lon="6.73139">
        <ele>2003.5845674022</ele>
        <time>2021-07-10T08:44:56Z</time>
      </trkpt>
      <trkpt lat="44.1122" lon="6.7314">
        <ele>2003.584576625</ele>
        <time>2021-07-10T08:45:01Z</time>
      </trkpt>
      <trkpt lat="44.1122" lon="6.73141">
        <ele>2003.5845864565</ele>
        <time>2021-07-10T08:45:02Z</time>
      </trkpt>
      <trkpt lat="44.11219" lon="6.73142">
        <ele>2003.5845912396</ele>
        <time>2021-07-10T08:45:03Z</time>
      </trkpt>
      <trkpt lat="44.11219" lon="6.73142">
        <ele>2003.5846045249</ele>
        <time>2021-07-10T08:45:04Z</time>
      </trkpt>
      <trkpt lat="44.11218" lon="6.73143">
        <ele>2003.5846005832</ele>
        <time>2021-07-10T08:45:05Z</time>
      </trkpt>
      <trkpt lat="44.11218" lon="6.73144">
        <ele>2003.5845865977</ele>
        <time>2021-07-10T08:45:06Z</time>
      </trkpt>
      <trkpt lat="44.11218" lon="6.73144">
        <ele>2002.5845918891</ele>
        <time>2021-07-10T08:45:14Z</time>
      </trkpt>
      <trkpt lat="44.11218" lon="6.73143">
        <ele>2002.5846301275</ele>
        <time>2021-07-10T08:45:16Z</time>
      </trkpt>
      <trkpt lat="44.11217" lon="6.73143">
        <ele>2002.5846365248</ele>
        <time>2021-07-10T08:45:18Z</time>
      </trkpt>
      <trkpt lat="44.11217" lon="6.73145">
        <ele>2001.5846104273</ele>
        <time>2021-07-10T08:45:19Z</time>
      </trkpt>
      <trkpt lat="44.11217" lon="6.73147">
        <ele>2000.5845783159</ele>
        <time>2021-07-10T08:45:20Z</time>
      </trkpt>
      <trkpt lat="44.11217" lon="6.73148">
        <ele>2000.5845658483</ele>
        <time>2021-07-10T08:45:21Z</time>
      </trkpt>
      <trkpt lat="44.11216" lon="6.73149">
        <ele>1999.5845644177</ele>
        <time>2021-07-10T08:45:22Z</time>
      </trkpt>
      <trkpt lat="44.11217" lon="6.7315">
        <ele>1999.5845356367</ele>
        <time>2021-07-10T08:45:23Z</time>
      </trkpt>
      <trkpt lat="44.11218" lon="6.73151">
        <ele>1998.5844882562</ele>
        <time>2021-07-10T08:45:24Z</time>
      </trkpt>
      <trkpt lat="44.11218" lon="6.73152">
        <ele>1999.5844478596</ele>
        <time>2021-07-10T08:45:25Z</time>
      </trkpt>
      <trkpt lat="44.11219" lon="6.73152">
        <ele>1999.584413492</ele>
        <time>2021-07-10T08:45:26Z</time>
      </trkpt>
      <trkpt lat="44.11219" lon="6.73154">
        <ele>2000.584386077</ele>
        <time>2021-07-10T08:45:27Z</time>
      </trkpt>
      <trkpt lat="44.11219" lon="6.73155">
        <ele>2000.5843575828</ele>
        <time>2021-07-10T08:45:28Z</time>
      </trkpt>
      <trkpt lat="44.11219" lon="6.73156">
        <ele>2000.5843394459</ele>
        <time>2021-07-10T08:45:29Z</time>
      </trkpt>
      <trkpt lat="44.1122" lon="6.73157">
        <ele>2000.5842988513</ele>
        <time>2021-07-10T08:45:30Z</time>
      </trkpt>
      <trkpt lat="44.1122" lon="6.73157">
        <ele>2000.5842988513</ele>
        <time>2021-07-10T08:45:32Z</time>
      </trkpt>
      <trkpt lat="44.11219" lon="6.73159">
        <ele>2000.5842966616</ele>
        <time>2021-07-10T08:45:33Z</time>
      </trkpt>
      <trkpt lat="44.11219" lon="6.73159">
        <ele>2000.5842838189</ele>
        <time>2021-07-10T08:45:34Z</time>
      </trkpt>
      <trkpt lat="44.11218" lon="6.7316">
        <ele>2000.584292743</ele>
        <time>2021-07-10T08:45:35Z</time>
      </trkpt>
      <trkpt lat="44.11217" lon="6.73161">
        <ele>2000.5843175094</ele>
        <time>2021-07-10T08:45:36Z</time>
      </trkpt>
      <trkpt lat="44.11217" lon="6.73161">
        <ele>2000.5843405245</ele>
        <time>2021-07-10T08:45:37Z</time>
      </trkpt>
      <trkpt lat="44.11216" lon="6.73161">
        <ele>2000.5843573966</ele>
        <time>2021-07-10T08:45:38Z</time>
      </trkpt>
      <trkpt lat="44.11215" lon="6.73162">
        <ele>2001.5843624347</ele>
        <time>2021-07-10T08:45:40Z</time>
      </trkpt>
      <trkpt lat="44.11215" lon="6.73163">
        <ele>2001.5843740135</ele>
        <time>2021-07-10T08:45:41Z</time>
      </trkpt>
      <trkpt lat="44.11214" lon="6.73163">
        <ele>2001.5843992516</ele>
        <time>2021-07-10T08:45:45Z</time>
      </trkpt>
      <trkpt lat="44.11213" lon="6.73162">
        <ele>2001.5844488863</ele>
        <time>2021-07-10T08:45:46Z</time>
      </trkpt>
      <trkpt lat="44.11212" lon="6.73162">
        <ele>2002.5844798672</ele>
        <time>2021-07-10T08:45:47Z</time>
      </trkpt>
      <trkpt lat="44.11212" lon="6.73162">
        <ele>2002.5845051764</ele>
        <time>2021-07-10T08:45:49Z</time>
      </trkpt>
      <trkpt lat="44.11211" lon="6.73163">
        <ele>2001.5845159709</ele>
        <time>2021-07-10T08:45:52Z</time>
      </trkpt>
      <trkpt lat="44.1121" lon="6.73165">
        <ele>2001.5845272869</ele>
        <time>2021-07-10T08:45:53Z</time>
      </trkpt>
      <trkpt lat="44.11209" lon="6.73165">
        <ele>2000.5845437966</ele>
        <time>2021-07-10T08:45:54Z</time>
      </trkpt>
      <trkpt lat="44.11208" lon="6.73166">
        <ele>2000.5845539447</ele>
        <time>2021-07-10T08:45:55Z</time>
      </trkpt>
      <trkpt lat="44.11207" lon="6.73167">
        <ele>2000.5845705295</ele>
        <time>2021-07-10T08:45:56Z</time>
      </trkpt>
      <trkpt lat="44.11207" lon="6.73168">
        <ele>2000.5845911835</ele>
        <time>2021-07-10T08:45:57Z</time>
      </trkpt>
      <trkpt lat="44.11206" lon="6.73168">
        <ele>2000.584606366</ele>
        <time>2021-07-10T08:45:58Z</time>
      </trkpt>
      <trkpt lat="44.11206" lon="6.73169">
        <ele>2000.5845885127</ele>
        <time>2021-07-10T08:46:00Z</time>
      </trkpt>
      <trkpt lat="44.11206" lon="6.7317">
        <ele>2000.5845660785</ele>
        <time>2021-07-10T08:46:02Z</time>
      </trkpt>
      <trkpt lat="44.11205" lon="6.7317">
        <ele>1999.5846046701</ele>
        <time>2021-07-10T08:46:04Z</time>
      </trkpt>
      <trkpt lat="44.11203" lon="6.7317">
        <ele>2000.5846748235</ele>
        <time>2021-07-10T08:46:05Z</time>
      </trkpt>
      <trkpt lat="44.11203" lon="6.7317">
        <ele>2001.5847060158</ele>
        <time>2021-07-10T08:46:07Z</time>
      </trkpt>
      <trkpt lat="44.11201" lon="6.7317">
        <ele>2001.5847552447</ele>
        <time>2021-07-10T08:46:09Z</time>
      </trkpt>
      <trkpt lat="44.11202" lon="6.7317">
        <ele>2002.5847229056</ele>
        <time>2021-07-10T08:46:11Z</time>
      </trkpt>
      <trkpt lat="44.11202" lon="6.73172">
        <ele>2003.5846749503</ele>
        <time>2021-07-10T08:46:13Z</time>
      </trkpt>
      <trkpt lat="44.11203" lon="6.73172">
        <ele>2002.5846483214</ele>
        <time>2021-07-10T08:46:14Z</time>
      </trkpt>
      <trkpt lat="44.11204" lon="6.73172">
        <ele>2003.5846214454</ele>
        <time>2021-07-10T08:46:15Z</time>
      </trkpt>
      <trkpt lat="44.11204" lon="6.73172">
        <ele>2003.5846039316</ele>
        <time>2021-07-10T08:46:16Z</time>
      </trkpt>
      <trkpt lat="44.11205" lon="6.73172">
        <ele>2003.5845623316</ele>
        <time>2021-07-10T08:46:17Z</time>
      </trkpt>
      <trkpt lat="44.11205" lon="6.73173">
        <ele>2003.584537976</ele>
        <time>2021-07-10T08:46:19Z</time>
      </trkpt>
      <trkpt lat="44.11207" lon="6.73174">
        <ele>2004.5844561213</ele>
        <time>2021-07-10T08:46:20Z</time>
      </trkpt>
      <trkpt lat="44.11207" lon="6.73176">
        <ele>2005.5844305911</ele>
        <time>2021-07-10T08:46:21Z</time>
      </trkpt>
      <trkpt lat="44.11207" lon="6.73176">
        <ele>2006.5844207801</ele>
        <time>2021-07-10T08:46:23Z</time>
      </trkpt>
      <trkpt lat="44.11207" lon="6.73177">
        <ele>2006.5844092694</ele>
        <time>2021-07-10T08:46:24Z</time>
      </trkpt>
      <trkpt lat="44.11207" lon="6.73178">
        <ele>2007.5843782877</ele>
        <time>2021-07-10T08:46:27Z</time>
      </trkpt>
      <trkpt lat="44.11208" lon="6.73179">
        <ele>2008.584351896</ele>
        <time>2021-07-10T08:46:29Z</time>
      </trkpt>
      <trkpt lat="44.11208" lon="6.73181">
        <ele>2008.5842977283</ele>
        <time>2021-07-10T08:46:30Z</time>
      </trkpt>
      <trkpt lat="44.11208" lon="6.73182">
        <ele>2008.5842848389</ele>
        <time>2021-07-10T08:46:32Z</time>
      </trkpt>
      <trkpt lat="44.11208" lon="6.73184">
        <ele>2010.584258395</ele>
        <time>2021-07-10T08:46:34Z</time>
      </trkpt>
      <trkpt lat="44.11208" lon="6.73185">
        <ele>2011.5842216394</ele>
        <time>2021-07-10T08:46:35Z</time>
      </trkpt>
      <trkpt lat="44.11208" lon="6.73186">
        <ele>2012.5842049283</ele>
        <time>2021-07-10T08:46:36Z</time>
      </trkpt>
      <trkpt lat="44.11208" lon="6.73187">
        <ele>2012.584178106</ele>
        <time>2021-07-10T08:46:39Z</time>
      </trkpt>
      <trkpt lat="44.11207" lon="6.73189">
        <ele>2013.5841735395</ele>
        <time>2021-07-10T08:46:41Z</time>
      </trkpt>
      <trkpt lat="44.11208" lon="6.7319">
        <ele>2012.5841499831</ele>
        <time>2021-07-10T08:46:41Z</time>
      </trkpt>
      <trkpt lat="44.11208" lon="6.73191">
        <ele>2012.584107246</ele>
        <time>2021-07-10T08:46:43Z</time>
      </trkpt>
      <trkpt lat="44.11209" lon="6.73192">
        <ele>2011.5840451351</ele>
        <time>2021-07-10T08:46:44Z</time>
      </trkpt>
      <trkpt lat="44.1121" lon="6.73194">
        <ele>2011.5839910451</ele>
        <time>2021-07-10T08:46:45Z</time>
      </trkpt>
      <trkpt lat="44.11211" lon="6.73195">
        <ele>2011.5839418822</ele>
        <time>2021-07-10T08:46:47Z</time>
      </trkpt>
      <trkpt lat="44.11212" lon="6.73197">
        <ele>2011.5838561631</ele>
        <time>2021-07-10T08:46:49Z</time>
      </trkpt>
      <trkpt lat="44.11213" lon="6.73198">
        <ele>2011.5838244558</ele>
        <time>2021-07-10T08:46:50Z</time>
      </trkpt>
      <trkpt lat="44.11212" lon="6.73199">
        <ele>2011.583820614</ele>
        <time>2021-07-10T08:46:53Z</time>
      </trkpt>
      <trkpt lat="44.11212" lon="6.73201">
        <ele>2011.5837865165</ele>
        <time>2021-07-10T08:46:54Z</time>
      </trkpt>
      <trkpt lat="44.11212" lon="6.73202">
        <ele>2011.583782796</ele>
        <time>2021-07-10T08:46:55Z</time>
      </trkpt>
      <trkpt lat="44.11212" lon="6.73203">
        <ele>2011.5837591107</ele>
        <time>2021-07-10T08:46:57Z</time>
      </trkpt>
      <trkpt lat="44.11214" lon="6.73205">
        <ele>2011.5836564936</ele>
        <time>2021-07-10T08:46:58Z</time>
      </trkpt>
      <trkpt lat="44.11214" lon="6.73206">
        <ele>2011.5836273633</ele>
        <time>2021-07-10T08:47:01Z</time>
      </trkpt>
      <trkpt lat="44.11214" lon="6.73207">
        <ele>2011.583595404</ele>
        <time>2021-07-10T08:47:02Z</time>
      </trkpt>
      <trkpt lat="44.11215" lon="6.73208">
        <ele>2012.5835625922</ele>
        <time>2021-07-10T08:47:03Z</time>
      </trkpt>
      <trkpt lat="44.11216" lon="6.73209">
        <ele>2012.5835005421</ele>
        <time>2021-07-10T08:47:04Z</time>
      </trkpt>
      <trkpt lat="44.11217" lon="6.7321">
        <ele>2012.5834356511</ele>
        <time>2021-07-10T08:47:05Z</time>
      </trkpt>
      <trkpt lat="44.11218" lon="6.73211">
        <ele>2012.5834053288</ele>
        <time>2021-07-10T08:47:06Z</time>
      </trkpt>
      <trkpt lat="44.11218" lon="6.73211">
        <ele>2011.5833815217</ele>
        <time>2021-07-10T08:47:07Z</time>
      </trkpt>
      <trkpt lat="44.11219" lon="6.73212">
        <ele>2010.583343944</ele>
        <time>2021-07-10T08:47:08Z</time>
      </trkpt>
      <trkpt lat="44.1122" lon="6.73213">
        <ele>2010.5833038796</ele>
        <time>2021-07-10T08:47:09Z</time>
      </trkpt>
      <trkpt lat="44.11221" lon="6.73213">
        <ele>2010.5832543448</ele>
        <time>2021-07-10T08:47:10Z</time>
      </trkpt>
      <trkpt lat="44.11221" lon="6.73215">
        <ele>2010.5832273309</ele>
        <time>2021-07-10T08:47:11Z</time>
      </trkpt>
      <trkpt lat="44.11222" lon="6.73216">
        <ele>2011.5831681965</ele>
        <time>2021-07-10T08:47:12Z</time>
      </trkpt>
      <trkpt lat="44.11223" lon="6.73216">
        <ele>2011.5831258981</ele>
        <time>2021-07-10T08:47:13Z</time>
      </trkpt>
      <trkpt lat="44.11223" lon="6.73217">
        <ele>2011.5830828304</ele>
        <time>2021-07-10T08:47:14Z</time>
      </trkpt>
      <trkpt lat="44.11224" lon="6.73218">
        <ele>2011.5830503822</ele>
        <time>2021-07-10T08:47:15Z</time>
      </trkpt>
      <trkpt lat="44.11224" lon="6.73219">
        <ele>2012.5830220173</ele>
        <time>2021-07-10T08:47:18Z</time>
      </trkpt>
      <trkpt lat="44.11225" lon="6.7322">
        <ele>2013.5829855876</ele>
        <time>2021-07-10T08:47:19Z</time>
      </trkpt>
      <trkpt lat="44.11225" lon="6.7322">
        <ele>2015.5829750095</ele>
        <time>2021-07-10T08:47:26Z</time>
      </trkpt>
      <trkpt lat="44.11224" lon="6.73221">
        <ele>2016.5829862396</ele>
        <time>2021-07-10T08:47:27Z</time>
      </trkpt>
      <trkpt lat="44.11224" lon="6.73222">
        <ele>2016.5829599285</ele>
        <time>2021-07-10T08:47:28Z</time>
      </trkpt>
      <trkpt lat="44.11224" lon="6.73223">
        <ele>2016.582937889</ele>
        <time>2021-07-10T08:47:29Z</time>
      </trkpt>
      <trkpt lat="44.11225" lon="6.73223">
        <ele>2017.5829169338</ele>
        <time>2021-07-10T08:47:32Z</time>
      </trkpt>
      <trkpt lat="44.11226" lon="6.73224">
        <ele>2017.5828772649</ele>
        <time>2021-07-10T08:47:33Z</time>
      </trkpt>
      <trkpt lat="44.11226" lon="6.73225">
        <ele>2017.5828496216</ele>
        <time>2021-07-10T08:47:34Z</time>
      </trkpt>
      <trkpt lat="44.11227" lon="6.73225">
        <ele>2017.582826583</ele>
        <time>2021-07-10T08:47:35Z</time>
      </trkpt>
      <trkpt lat="44.11227" lon="6.73225">
        <ele>2017.5827858829</ele>
        <time>2021-07-10T08:47:36Z</time>
      </trkpt>
      <trkpt lat="44.11227" lon="6.73225">
        <ele>2017.5827858829</ele>
        <time>2021-07-10T08:47:39Z</time>
      </trkpt>
      <trkpt lat="44.11227" lon="6.73228">
        <ele>2017.5827330378</ele>
        <time>2021-07-10T08:47:40Z</time>
      </trkpt>
      <trkpt lat="44.11227" lon="6.7323">
        <ele>2017.5827160753</ele>
        <time>2021-07-10T08:47:41Z</time>
      </trkpt>
      <trkpt lat="44.11227" lon="6.73231">
        <ele>2017.5826971141</ele>
        <time>2021-07-10T08:47:42Z</time>
      </trkpt>
      <trkpt lat="44.11227" lon="6.73231">
        <ele>2017.5827002769</ele>
        <time>2021-07-10T08:47:43Z</time>
      </trkpt>
      <trkpt lat="44.11226" lon="6.73232">
        <ele>2018.5827006123</ele>
        <time>2021-07-10T08:47:44Z</time>
      </trkpt>
      <trkpt lat="44.11226" lon="6.73232">
        <ele>2018.5827176501</ele>
        <time>2021-07-10T08:47:50Z</time>
      </trkpt>
      <trkpt lat="44.11226" lon="6.73232">
        <ele>2018.582744556</ele>
        <time>2021-07-10T08:47:51Z</time>
      </trkpt>
      <trkpt lat="44.11225" lon="6.73231">
        <ele>2017.5827719192</ele>
        <time>2021-07-10T08:48:14Z</time>
      </trkpt>
      <trkpt lat="44.11224" lon="6.73232">
        <ele>2019.582777273</ele>
        <time>2021-07-10T08:48:18Z</time>
      </trkpt>
      <trkpt lat="44.11224" lon="6.73232">
        <ele>2019.5827937164</ele>
        <time>2021-07-10T08:48:21Z</time>
      </trkpt>
      <trkpt lat="44.11223" lon="6.73233">
        <ele>2019.5827989831</ele>
        <time>2021-07-10T08:48:24Z</time>
      </trkpt>
      <trkpt lat="44.11223" lon="6.73234">
        <ele>2019.5827736938</ele>
        <time>2021-07-10T08:48:25Z</time>
      </trkpt>
      <trkpt lat="44.11223" lon="6.73235">
        <ele>2019.5827661707</ele>
        <time>2021-07-10T08:48:28Z</time>
      </trkpt>
      <trkpt lat="44.11222" lon="6.73236">
        <ele>2021.582775329</ele>
        <time>2021-07-10T08:48:29Z</time>
      </trkpt>
      <trkpt lat="44.11222" lon="6.73237">
        <ele>2022.5827729564</ele>
        <time>2021-07-10T08:48:30Z</time>
      </trkpt>
      <trkpt lat="44.11222" lon="6.73238">
        <ele>2022.5827725587</ele>
        <time>2021-07-10T08:48:32Z</time>
      </trkpt>
      <trkpt lat="44.1122" lon="6.73238">
        <ele>2023.5828084214</ele>
        <time>2021-07-10T08:48:34Z</time>
      </trkpt>
      <trkpt lat="44.11219" lon="6.73239">
        <ele>2023.582850843</ele>
        <time>2021-07-10T08:48:35Z</time>
      </trkpt>
      <trkpt lat="44.11218" lon="6.73239">
        <ele>2023.5828939762</ele>
        <time>2021-07-10T08:48:36Z</time>
      </trkpt>
      <trkpt lat="44.11217" lon="6.7324">
        <ele>2023.5829039463</ele>
        <time>2021-07-10T08:48:38Z</time>
      </trkpt>
      <trkpt lat="44.11216" lon="6.73241">
        <ele>2024.5829326731</ele>
        <time>2021-07-10T08:48:39Z</time>
      </trkpt>
      <trkpt lat="44.11215" lon="6.73241">
        <ele>2025.5829522984</ele>
        <time>2021-07-10T08:48:45Z</time>
      </trkpt>
      <trkpt lat="44.11213" lon="6.73242">
        <ele>2025.5830174534</ele>
        <time>2021-07-10T08:48:47Z</time>
      </trkpt>
      <trkpt lat="44.11213" lon="6.73242">
        <ele>2025.5830261044</ele>
        <time>2021-07-10T08:48:48Z</time>
      </trkpt>
      <trkpt lat="44.11212" lon="6.73242">
        <ele>2025.5830539271</ele>
        <time>2021-07-10T08:48:49Z</time>
      </trkpt>
      <trkpt lat="44.11213" lon="6.73242">
        <ele>2026.5830142654</ele>
        <time>2021-07-10T08:48:50Z</time>
      </trkpt>
      <trkpt lat="44.11214" lon="6.73242">
        <ele>2026.5830037989</ele>
        <time>2021-07-10T08:49:00Z</time>
      </trkpt>
      <trkpt lat="44.11214" lon="6.73243">
        <ele>2027.5829678348</ele>
        <time>2021-07-10T08:49:05Z</time>
      </trkpt>
      <trkpt lat="44.11213" lon="6.73242">
        <ele>2027.5830076978</ele>
        <time>2021-07-10T08:49:06Z</time>
      </trkpt>
      <trkpt lat="44.11212" lon="6.73242">
        <ele>2027.5830570416</ele>
        <time>2021-07-10T08:49:07Z</time>
      </trkpt>
      <trkpt lat="44.11212" lon="6.73241">
        <ele>2027.5830929831</ele>
        <time>2021-07-10T08:49:08Z</time>
      </trkpt>
      <trkpt lat="44.11211" lon="6.73241">
        <ele>2027.5831192589</ele>
        <time>2021-07-10T08:49:09Z</time>
      </trkpt>
      <trkpt lat="44.11211" lon="6.7324">
        <ele>2028.5831404112</ele>
        <time>2021-07-10T08:49:10Z</time>
      </trkpt>
      <trkpt lat="44.1121" lon="6.7324">
        <ele>2027.5831618013</ele>
        <time>2021-07-10T08:49:11Z</time>
      </trkpt>
      <trkpt lat="44.1121" lon="6.73239">
        <ele>2026.5831728901</ele>
        <time>2021-07-10T08:49:13Z</time>
      </trkpt>
      <trkpt lat="44.11211" lon="6.73239">
        <ele>2026.5831411307</ele>
        <time>2021-07-10T08:49:14Z</time>
      </trkpt>
      <trkpt lat="44.11211" lon="6.73239">
        <ele>2026.5831393837</ele>
        <time>2021-07-10T08:49:18Z</time>
      </trkpt>
      <trkpt lat="44.11212" lon="6.7324">
        <ele>2025.5830859419</ele>
        <time>2021-07-10T08:49:20Z</time>
      </trkpt>
      <trkpt lat="44.11212" lon="6.73241">
        <ele>2025.5830788507</ele>
        <time>2021-07-10T08:49:25Z</time>
      </trkpt>
      <trkpt lat="44.11212" lon="6.73242">
        <ele>2024.5830702736</ele>
        <time>2021-07-10T08:49:26Z</time>
      </trkpt>
      <trkpt lat="44.11212" lon="6.73242">
        <ele>2024.5830702736</ele>
        <time>2021-07-10T08:49:29Z</time>
      </trkpt>
      <trkpt lat="44.11211" lon="6.73244">
        <ele>2023.5830737015</ele>
        <time>2021-07-10T08:49:30Z</time>
      </trkpt>
      <trkpt lat="44.1121" lon="6.73244">
        <ele>2023.5830822715</ele>
        <time>2021-07-10T08:49:32Z</time>
      </trkpt>
      <trkpt lat="44.11209" lon="6.73245">
        <ele>2023.5831031392</ele>
        <time>2021-07-10T08:49:37Z</time>
      </trkpt>
      <trkpt lat="44.11208" lon="6.73245">
        <ele>2025.5831608551</ele>
        <time>2021-07-10T08:49:39Z</time>
      </trkpt>
      <trkpt lat="44.11207" lon="6.73246">
        <ele>2025.5831667736</ele>
        <time>2021-07-10T08:49:40Z</time>
      </trkpt>
      <trkpt lat="44.11206" lon="6.73246">
        <ele>2026.5831922434</ele>
        <time>2021-07-10T08:49:42Z</time>
      </trkpt>
      <trkpt lat="44.11206" lon="6.73247">
        <ele>2026.5831961076</ele>
        <time>2021-07-10T08:49:44Z</time>
      </trkpt>
      <trkpt lat="44.11205" lon="6.73247">
        <ele>2027.5832117258</ele>
        <time>2021-07-10T08:49:45Z</time>
      </trkpt>
      <trkpt lat="44.11204" lon="6.73247">
        <ele>2027.5832418241</ele>
        <time>2021-07-10T08:49:46Z</time>
      </trkpt>
      <trkpt lat="44.11203" lon="6.73248">
        <ele>2026.5832697448</ele>
        <time>2021-07-10T08:49:47Z</time>
      </trkpt>
      <trkpt lat="44.11202" lon="6.73248">
        <ele>2026.5833062774</ele>
        <time>2021-07-10T08:49:49Z</time>
      </trkpt>
      <trkpt lat="44.11201" lon="6.73249">
        <ele>2027.5833601708</ele>
        <time>2021-07-10T08:49:50Z</time>
      </trkpt>
      <trkpt lat="44.112" lon="6.73249">
        <ele>2027.5833695416</ele>
        <time>2021-07-10T08:49:53Z</time>
      </trkpt>
      <trkpt lat="44.112" lon="6.73248">
        <ele>2027.5834036458</ele>
        <time>2021-07-10T08:49:54Z</time>
      </trkpt>
      <trkpt lat="44.11199" lon="6.73248">
        <ele>2027.5834252539</ele>
        <time>2021-07-10T08:49:55Z</time>
      </trkpt>
      <trkpt lat="44.11199" lon="6.73248">
        <ele>2028.5834362722</ele>
        <time>2021-07-10T08:49:56Z</time>
      </trkpt>
      <trkpt lat="44.11198" lon="6.73248">
        <ele>2027.5834701744</ele>
        <time>2021-07-10T08:49:58Z</time>
      </trkpt>
      <trkpt lat="44.11197" lon="6.73249">
        <ele>2028.5835058182</ele>
        <time>2021-07-10T08:49:59Z</time>
      </trkpt>
      <trkpt lat="44.11196" lon="6.73249">
        <ele>2028.5835232152</ele>
        <time>2021-07-10T08:50:00Z</time>
      </trkpt>
      <trkpt lat="44.11196" lon="6.73248">
        <ele>2028.583559397</ele>
        <time>2021-07-10T08:50:01Z</time>
      </trkpt>
      <trkpt lat="44.11196" lon="6.73247">
        <ele>2028.5835737642</ele>
        <time>2021-07-10T08:50:03Z</time>
      </trkpt>
      <trkpt lat="44.11194" lon="6.73245">
        <ele>2028.5836570614</ele>
        <time>2021-07-10T08:50:04Z</time>
      </trkpt>
      <trkpt lat="44.11194" lon="6.73245">
        <ele>2028.5836954419</ele>
        <time>2021-07-10T08:50:05Z</time>
      </trkpt>
      <trkpt lat="44.11194" lon="6.73244">
        <ele>2028.583695536</ele>
        <time>2021-07-10T08:50:07Z</time>
      </trkpt>
      <trkpt lat="44.11193" lon="6.73245">
        <ele>2027.5837207039</ele>
        <time>2021-07-10T08:50:09Z</time>
      </trkpt>
      <trkpt lat="44.11193" lon="6.73245">
        <ele>2027.5837207039</ele>
        <time>2021-07-10T08:50:10Z</time>
      </trkpt>
      <trkpt lat="44.11192" lon="6.73244">
        <ele>2029.583767112</ele>
        <time>2021-07-10T08:50:11Z</time>
      </trkpt>
      <trkpt lat="44.11192" lon="6.73243">
        <ele>2030.5837662758</ele>
        <time>2021-07-10T08:50:13Z</time>
      </trkpt>
      <trkpt lat="44.11193" lon="6.73243">
        <ele>2029.5837609437</ele>
        <time>2021-07-10T08:50:14Z</time>
      </trkpt>
      <trkpt lat="44.11193" lon="6.73241">
        <ele>2030.5837895606</ele>
        <time>2021-07-10T08:50:17Z</time>
      </trkpt>
      <trkpt lat="44.11192" lon="6.73241">
        <ele>2031.5838207612</ele>
        <time>2021-07-10T08:50:19Z</time>
      </trkpt>
      <trkpt lat="44.11192" lon="6.7324">
        <ele>2030.5838546148</ele>
        <time>2021-07-10T08:50:20Z</time>
      </trkpt>
      <trkpt lat="44.11191" lon="6.7324">
        <ele>2029.5838599293</ele>
        <time>2021-07-10T08:50:25Z</time>
      </trkpt>
      <trkpt lat="44.11191" lon="6.7324">
        <ele>2028.5838831842</ele>
        <time>2021-07-10T08:50:27Z</time>
      </trkpt>
      <trkpt lat="44.1119" lon="6.73239">
        <ele>2028.5839225543</ele>
        <time>2021-07-10T08:50:29Z</time>
      </trkpt>
      <trkpt lat="44.1119" lon="6.73238">
        <ele>2028.5839395292</ele>
        <time>2021-07-10T08:50:31Z</time>
      </trkpt>
      <trkpt lat="44.11189" lon="6.73238">
        <ele>2028.583979444</ele>
        <time>2021-07-10T08:50:34Z</time>
      </trkpt>
      <trkpt lat="44.11188" lon="6.73239">
        <ele>2029.5840164224</ele>
        <time>2021-07-10T08:50:35Z</time>
      </trkpt>
      <trkpt lat="44.11187" lon="6.73239">
        <ele>2030.5840510442</ele>
        <time>2021-07-10T08:50:40Z</time>
      </trkpt>
      <trkpt lat="44.11186" lon="6.73239">
        <ele>2032.5840694611</ele>
        <time>2021-07-10T08:50:43Z</time>
      </trkpt>
      <trkpt lat="44.11186" lon="6.73239">
        <ele>2032.5840832963</ele>
        <time>2021-07-10T08:50:47Z</time>
      </trkpt>
      <trkpt lat="44.11183" lon="6.73238">
        <ele>2034.5841902635</ele>
        <time>2021-07-10T08:50:49Z</time>
      </trkpt>
      <trkpt lat="44.11182" lon="6.73237">
        <ele>2035.5842497007</ele>
        <time>2021-07-10T08:50:50Z</time>
      </trkpt>
      <trkpt lat="44.11183" lon="6.73236">
        <ele>2035.584253403</ele>
        <time>2021-07-10T08:50:51Z</time>
      </trkpt>
      <trkpt lat="44.11183" lon="6.73236">
        <ele>2036.5842584028</ele>
        <time>2021-07-10T08:50:53Z</time>
      </trkpt>
      <trkpt lat="44.11182" lon="6.73234">
        <ele>2038.584299357</ele>
        <time>2021-07-10T08:50:54Z</time>
      </trkpt>
      <trkpt lat="44.11182" lon="6.73234">
        <ele>2037.5843238803</ele>
        <time>2021-07-10T08:50:57Z</time>
      </trkpt>
      <trkpt lat="44.11181" lon="6.73232">
        <ele>2038.5843918073</ele>
        <time>2021-07-10T08:50:59Z</time>
      </trkpt>
      <trkpt lat="44.11179" lon="6.73233">
        <ele>2040.58443535</ele>
        <time>2021-07-10T08:51:00Z</time>
      </trkpt>
      <trkpt lat="44.11179" lon="6.73233">
        <ele>2040.58443535</ele>
        <time>2021-07-10T08:51:07Z</time>
      </trkpt>
      <trkpt lat="44.11178" lon="6.73233">
        <ele>2040.5844983881</ele>
        <time>2021-07-10T08:51:08Z</time>
      </trkpt>
      <trkpt lat="44.11177" lon="6.73233">
        <ele>2041.5845127707</ele>
        <time>2021-07-10T08:51:15Z</time>
      </trkpt>
      <trkpt lat="44.11177" lon="6.73233">
        <ele>2041.5845414592</ele>
        <time>2021-07-10T08:51:16Z</time>
      </trkpt>
      <trkpt lat="44.11176" lon="6.73233">
        <ele>2041.5845659808</ele>
        <time>2021-07-10T08:51:17Z</time>
      </trkpt>
      <trkpt lat="44.11175" lon="6.73233">
        <ele>2041.5845877778</ele>
        <time>2021-07-10T08:51:22Z</time>
      </trkpt>
      <trkpt lat="44.11173" lon="6.73233">
        <ele>2041.5846664714</ele>
        <time>2021-07-10T08:51:24Z</time>
      </trkpt>
      <trkpt lat="44.11172" lon="6.73234">
        <ele>2042.5846955542</ele>
        <time>2021-07-10T08:51:25Z</time>
      </trkpt>
      <trkpt lat="44.11171" lon="6.73233">
        <ele>2044.5847327236</ele>
        <time>2021-07-10T08:51:27Z</time>
      </trkpt>
      <trkpt lat="44.11171" lon="6.73234">
        <ele>2044.5847437666</ele>
        <time>2021-07-10T08:51:28Z</time>
      </trkpt>
      <trkpt lat="44.11171" lon="6.73235">
        <ele>2043.5847312004</ele>
        <time>2021-07-10T08:51:29Z</time>
      </trkpt>
      <trkpt lat="44.1117" lon="6.73236">
        <ele>2043.5847284323</ele>
        <time>2021-07-10T08:51:31Z</time>
      </trkpt>
      <trkpt lat="44.11169" lon="6.73235">
        <ele>2043.5847800154</ele>
        <time>2021-07-10T08:51:32Z</time>
      </trkpt>
      <trkpt lat="44.11169" lon="6.73234">
        <ele>2045.5847932077</ele>
        <time>2021-07-10T08:51:35Z</time>
      </trkpt>
      <trkpt lat="44.11169" lon="6.73234">
        <ele>2045.5847895283</ele>
        <time>2021-07-10T08:51:44Z</time>
      </trkpt>
      <trkpt lat="44.11167" lon="6.73231">
        <ele>2044.584955185</ele>
        <time>2021-07-10T08:51:45Z</time>
      </trkpt>
      <trkpt lat="44.11166" lon="6.73231">
        <ele>2045.5849605433</ele>
        <time>2021-07-10T08:51:46Z</time>
      </trkpt>
      <trkpt lat="44.11166" lon="6.73231">
        <ele>2045.5849779974</ele>
        <time>2021-07-10T08:51:48Z</time>
      </trkpt>
      <trkpt lat="44.11165" lon="6.73231">
        <ele>2046.5850135543</ele>
        <time>2021-07-10T08:51:50Z</time>
      </trkpt>
      <trkpt lat="44.11163" lon="6.7323">
        <ele>2048.5850790955</ele>
        <time>2021-07-10T08:51:51Z</time>
      </trkpt>
      <trkpt lat="44.11163" lon="6.7323">
        <ele>2050.5851092649</ele>
        <time>2021-07-10T08:51:52Z</time>
      </trkpt>
      <trkpt lat="44.11162" lon="6.7323">
        <ele>2050.5851304127</ele>
        <time>2021-07-10T08:51:53Z</time>
      </trkpt>
      <trkpt lat="44.11162" lon="6.73229">
        <ele>2050.585165862</ele>
        <time>2021-07-10T08:51:55Z</time>
      </trkpt>
      <trkpt lat="44.11162" lon="6.73228">
        <ele>2050.5851695539</ele>
        <time>2021-07-10T08:51:56Z</time>
      </trkpt>
      <trkpt lat="44.11162" lon="6.73228">
        <ele>2051.5851849535</ele>
        <time>2021-07-10T08:51:58Z</time>
      </trkpt>
      <trkpt lat="44.11161" lon="6.73226">
        <ele>2052.5852496441</ele>
        <time>2021-07-10T08:51:59Z</time>
      </trkpt>
      <trkpt lat="44.1116" lon="6.73226">
        <ele>2052.5852754066</ele>
        <time>2021-07-10T08:52:00Z</time>
      </trkpt>
      <trkpt lat="44.11159" lon="6.73226">
        <ele>2052.5853084304</ele>
        <time>2021-07-10T08:52:08Z</time>
      </trkpt>
      <trkpt lat="44.1116" lon="6.73227">
        <ele>2053.585263207</ele>
        <time>2021-07-10T08:52:10Z</time>
      </trkpt>
      <trkpt lat="44.11158" lon="6.73228">
        <ele>2053.5853101483</ele>
        <time>2021-07-10T08:52:11Z</time>
      </trkpt>
      <trkpt lat="44.11157" lon="6.73227">
        <ele>2053.5853754138</ele>
        <time>2021-07-10T08:52:12Z</time>
      </trkpt>
      <trkpt lat="44.11156" lon="6.73228">
        <ele>2054.5853841837</ele>
        <time>2021-07-10T08:52:13Z</time>
      </trkpt>
      <trkpt lat="44.11156" lon="6.73229">
        <ele>2053.5853679759</ele>
        <time>2021-07-10T08:52:14Z</time>
      </trkpt>
      <trkpt lat="44.11156" lon="6.7323">
        <ele>2053.5853570457</ele>
        <time>2021-07-10T08:52:15Z</time>
      </trkpt>
      <trkpt lat="44.11156" lon="6.7323">
        <ele>2053.5853524592</ele>
        <time>2021-07-10T08:52:16Z</time>
      </trkpt>
      <trkpt lat="44.11155" lon="6.7323">
        <ele>2054.5853824103</ele>
        <time>2021-07-10T08:52:18Z</time>
      </trkpt>
      <trkpt lat="44.11154" lon="6.7323">
        <ele>2054.5854243536</ele>
        <time>2021-07-10T08:52:19Z</time>
      </trkpt>
      <trkpt lat="44.11154" lon="6.73229">
        <ele>2054.5854546356</ele>
        <time>2021-07-10T08:52:22Z</time>
      </trkpt>
      <trkpt lat="44.11154" lon="6.73228">
        <ele>2054.5854805498</ele>
        <time>2021-07-10T08:52:24Z</time>
      </trkpt>
      <trkpt lat="44.11152" lon="6.73228">
        <ele>2055.5855600368</ele>
        <time>2021-07-10T08:52:25Z</time>
      </trkpt>
      <trkpt lat="44.11151" lon="6.73229">
        <ele>2055.5855739099</ele>
        <time>2021-07-10T08:52:34Z</time>
      </trkpt>
      <trkpt lat="44.1115" lon="6.73229">
        <ele>2056.5856014293</ele>
        <time>2021-07-10T08:52:35Z</time>
      </trkpt>
      <trkpt lat="44.1115" lon="6.73229">
        <ele>2056.5856164635</ele>
        <time>2021-07-10T08:52:37Z</time>
      </trkpt>
      <trkpt lat="44.11149" lon="6.73229">
        <ele>2057.5856500889</ele>
        <time>2021-07-10T08:52:41Z</time>
      </trkpt>
      <trkpt lat="44.11148" lon="6.73228">
        <ele>2058.5856701623</ele>
        <time>2021-07-10T08:52:43Z</time>
      </trkpt>
      <trkpt lat="44.11147" lon="6.73228">
        <ele>2058.5857130896</ele>
        <time>2021-07-10T08:52:44Z</time>
      </trkpt>
      <trkpt lat="44.11147" lon="6.73229">
        <ele>2058.5857318621</ele>
        <time>2021-07-10T08:52:45Z</time>
      </trkpt>
      <trkpt lat="44.11146" lon="6.73229">
        <ele>2059.5857477709</ele>
        <time>2021-07-10T08:52:47Z</time>
      </trkpt>
      <trkpt lat="44.11145" lon="6.73229">
        <ele>2061.5857822666</ele>
        <time>2021-07-10T08:52:51Z</time>
      </trkpt>
      <trkpt lat="44.11145" lon="6.73228">
        <ele>2062.5858099601</ele>
        <time>2021-07-10T08:52:55Z</time>
      </trkpt>
      <trkpt lat="44.11144" lon="6.73228">
        <ele>2062.5858473033</ele>
        <time>2021-07-10T08:52:56Z</time>
      </trkpt>
      <trkpt lat="44.11143" lon="6.73228">
        <ele>2063.5858775364</ele>
        <time>2021-07-10T08:52:59Z</time>
      </trkpt>
      <trkpt lat="44.11143" lon="6.73227">
        <ele>2063.5858889847</ele>
        <time>2021-07-10T08:53:00Z</time>
      </trkpt>
      <trkpt lat="44.11143" lon="6.73226">
        <ele>2063.5859212748</ele>
        <time>2021-07-10T08:53:01Z</time>
      </trkpt>
      <trkpt lat="44.11142" lon="6.73225">
        <ele>2064.5859451224</ele>
        <time>2021-07-10T08:53:12Z</time>
      </trkpt>
      <trkpt lat="44.11142" lon="6.73226">
        <ele>2064.5859569042</ele>
        <time>2021-07-10T08:53:14Z</time>
      </trkpt>
      <trkpt lat="44.11141" lon="6.73227">
        <ele>2065.5859694067</ele>
        <time>2021-07-10T08:53:15Z</time>
      </trkpt>
      <trkpt lat="44.11141" lon="6.73227">
        <ele>2067.5859767922</ele>
        <time>2021-07-10T08:53:20Z</time>
      </trkpt>
      <trkpt lat="44.11139" lon="6.73227">
        <ele>2068.5860474901</ele>
        <time>2021-07-10T08:53:21Z</time>
      </trkpt>
      <trkpt lat="44.11139" lon="6.73226">
        <ele>2068.5860597427</ele>
        <time>2021-07-10T08:53:22Z</time>
      </trkpt>
      <trkpt lat="44.11138" lon="6.73225">
        <ele>2069.5860941991</ele>
        <time>2021-07-10T08:53:24Z</time>
      </trkpt>
      <trkpt lat="44.11138" lon="6.73224">
        <ele>2068.5861285809</ele>
        <time>2021-07-10T08:53:24Z</time>
      </trkpt>
      <trkpt lat="44.11138" lon="6.73224">
        <ele>2067.5861581149</ele>
        <time>2021-07-10T08:53:25Z</time>
      </trkpt>
      <trkpt lat="44.11137" lon="6.73224">
        <ele>2069.5861799229</ele>
        <time>2021-07-10T08:53:26Z</time>
      </trkpt>
      <trkpt lat="44.11136" lon="6.73224">
        <ele>2069.5861897549</ele>
        <time>2021-07-10T08:53:28Z</time>
      </trkpt>
      <trkpt lat="44.11136" lon="6.73224">
        <ele>2069.5861897549</ele>
        <time>2021-07-10T08:53:30Z</time>
      </trkpt>
      <trkpt lat="44.11135" lon="6.73225">
        <ele>2071.5862315449</ele>
        <time>2021-07-10T08:53:31Z</time>
      </trkpt>
      <trkpt lat="44.11135" lon="6.73226">
        <ele>2070.5862280509</ele>
        <time>2021-07-10T08:53:34Z</time>
      </trkpt>
      <trkpt lat="44.11133" lon="6.73226">
        <ele>2070.5862978626</ele>
        <time>2021-07-10T08:53:35Z</time>
      </trkpt>
      <trkpt lat="44.11132" lon="6.73226">
        <ele>2070.5863326322</ele>
        <time>2021-07-10T08:53:36Z</time>
      </trkpt>
      <trkpt lat="44.11131" lon="6.73225">
        <ele>2069.5863720879</ele>
        <time>2021-07-10T08:53:38Z</time>
      </trkpt>
      <trkpt lat="44.11131" lon="6.73224">
        <ele>2070.5863890532</ele>
        <time>2021-07-10T08:53:40Z</time>
      </trkpt>
      <trkpt lat="44.11131" lon="6.73222">
        <ele>2070.5864113313</ele>
        <time>2021-07-10T08:53:41Z</time>
      </trkpt>
      <trkpt lat="44.11131" lon="6.73221">
        <ele>2071.5864366343</ele>
        <time>2021-07-10T08:53:42Z</time>
      </trkpt>
      <trkpt lat="44.11131" lon="6.7322">
        <ele>2071.5864404171</ele>
        <time>2021-07-10T08:53:44Z</time>
      </trkpt>
      <trkpt lat="44.11131" lon="6.73219">
        <ele>2071.5864689302</ele>
        <time>2021-07-10T08:53:45Z</time>
      </trkpt>
      <trkpt lat="44.11131" lon="6.73219">
        <ele>2071.5864689302</ele>
        <time>2021-07-10T08:53:48Z</time>
      </trkpt>
      <trkpt lat="44.11132" lon="6.73216">
        <ele>2071.586497254</ele>
        <time>2021-07-10T08:53:49Z</time>
      </trkpt>
      <trkpt lat="44.11131" lon="6.73215">
        <ele>2071.5865335865</ele>
        <time>2021-07-10T08:53:50Z</time>
      </trkpt>
      <trkpt lat="44.11131" lon="6.73215">
        <ele>2071.586561047</ele>
        <time>2021-07-10T08:53:51Z</time>
      </trkpt>
      <trkpt lat="44.11131" lon="6.73213">
        <ele>2072.5865880165</ele>
        <time>2021-07-10T08:53:52Z</time>
      </trkpt>
      <trkpt lat="44.11131" lon="6.73213">
        <ele>2072.5865974426</ele>
        <time>2021-07-10T08:53:54Z</time>
      </trkpt>
      <trkpt lat="44.11131" lon="6.73212">
        <ele>2073.5866109731</ele>
        <time>2021-07-10T08:53:59Z</time>
      </trkpt>
      <trkpt lat="44.1113" lon="6.73211">
        <ele>2072.5866658881</ele>
        <time>2021-07-10T08:54:00Z</time>
      </trkpt>
      <trkpt lat="44.1113" lon="6.7321">
        <ele>2072.5866777424</ele>
        <time>2021-07-10T08:54:03Z</time>
      </trkpt>
      <trkpt lat="44.11131" lon="6.73209">
        <ele>2073.5866671645</ele>
        <time>2021-07-10T08:54:05Z</time>
      </trkpt>
      <trkpt lat="44.11131" lon="6.73207">
        <ele>2074.5866695955</ele>
        <time>2021-07-10T08:54:06Z</time>
      </trkpt>
      <trkpt lat="44.11132" lon="6.73207">
        <ele>2074.5866665172</ele>
        <time>2021-07-10T08:54:07Z</time>
      </trkpt>
      <trkpt lat="44.11132" lon="6.73206">
        <ele>2074.5866660222</ele>
        <time>2021-07-10T08:54:09Z</time>
      </trkpt>
      <trkpt lat="44.11133" lon="6.73204">
        <ele>2075.5866824813</ele>
        <time>2021-07-10T08:54:10Z</time>
      </trkpt>
      <trkpt lat="44.11133" lon="6.73203">
        <ele>2075.5866930188</ele>
        <time>2021-07-10T08:54:11Z</time>
      </trkpt>
      <trkpt lat="44.11133" lon="6.73203">
        <ele>2075.586693324</ele>
        <time>2021-07-10T08:54:12Z</time>
      </trkpt>
      <trkpt lat="44.11134" lon="6.73202">
        <ele>2075.586694452</ele>
        <time>2021-07-10T08:54:13Z</time>
      </trkpt>
      <trkpt lat="44.11134" lon="6.73201">
        <ele>2075.5866951955</ele>
        <time>2021-07-10T08:54:19Z</time>
      </trkpt>
      <trkpt lat="44.11135" lon="6.73199">
        <ele>2075.5866921844</ele>
        <time>2021-07-10T08:54:20Z</time>
      </trkpt>
      <trkpt lat="44.11135" lon="6.73198">
        <ele>2075.586722766</ele>
        <time>2021-07-10T08:54:25Z</time>
      </trkpt>
      <trkpt lat="44.11135" lon="6.73197">
        <ele>2076.586728434</ele>
        <time>2021-07-10T08:54:27Z</time>
      </trkpt>
      <trkpt lat="44.11135" lon="6.73197">
        <ele>2077.5867445302</ele>
        <time>2021-07-10T08:54:29Z</time>
      </trkpt>
      <trkpt lat="44.11134" lon="6.73196">
        <ele>2078.586787224</ele>
        <time>2021-07-10T08:54:30Z</time>
      </trkpt>
      <trkpt lat="44.11132" lon="6.73197">
        <ele>2078.5868267265</ele>
        <time>2021-07-10T08:54:31Z</time>
      </trkpt>
      <trkpt lat="44.11132" lon="6.73196">
        <ele>2078.5868528948</ele>
        <time>2021-07-10T08:54:33Z</time>
      </trkpt>
      <trkpt lat="44.11131" lon="6.73195">
        <ele>2079.5868942706</ele>
        <time>2021-07-10T08:54:35Z</time>
      </trkpt>
      <trkpt lat="44.11131" lon="6.73194">
        <ele>2080.5869171299</ele>
        <time>2021-07-10T08:54:43Z</time>
      </trkpt>
      <trkpt lat="44.11132" lon="6.73193">
        <ele>2080.5868920626</ele>
        <time>2021-07-10T08:54:45Z</time>
      </trkpt>
      <trkpt lat="44.11133" lon="6.73192">
        <ele>2080.5869016426</ele>
        <time>2021-07-10T08:54:53Z</time>
      </trkpt>
      <trkpt lat="44.1113" lon="6.7319">
        <ele>2080.5870252267</ele>
        <time>2021-07-10T08:54:54Z</time>
      </trkpt>
      <trkpt lat="44.11129" lon="6.73189">
        <ele>2081.5870666007</ele>
        <time>2021-07-10T08:54:55Z</time>
      </trkpt>
      <trkpt lat="44.11129" lon="6.73189">
        <ele>2080.5870915532</ele>
        <time>2021-07-10T08:54:56Z</time>
      </trkpt>
      <trkpt lat="44.11129" lon="6.73188">
        <ele>2081.587105029</ele>
        <time>2021-07-10T08:54:57Z</time>
      </trkpt>
      <trkpt lat="44.11129" lon="6.73187">
        <ele>2080.5871381451</ele>
        <time>2021-07-10T08:55:00Z</time>
      </trkpt>
      <trkpt lat="44.11129" lon="6.73186">
        <ele>2081.5871478892</ele>
        <time>2021-07-10T08:55:02Z</time>
      </trkpt>
      <trkpt lat="44.11129" lon="6.73185">
        <ele>2080.5871558742</ele>
        <time>2021-07-10T08:55:03Z</time>
      </trkpt>
      <trkpt lat="44.11129" lon="6.73184">
        <ele>2080.5871595934</ele>
        <time>2021-07-10T08:55:05Z</time>
      </trkpt>
      <trkpt lat="44.1113" lon="6.73184">
        <ele>2080.5871600614</ele>
        <time>2021-07-10T08:55:06Z</time>
      </trkpt>
      <trkpt lat="44.11129" lon="6.73183">
        <ele>2081.5871955815</ele>
        <time>2021-07-10T08:55:07Z</time>
      </trkpt>
      <trkpt lat="44.11129" lon="6.73182">
        <ele>2082.5872231976</ele>
        <time>2021-07-10T08:55:09Z</time>
      </trkpt>
      <trkpt lat="44.11128" lon="6.73182">
        <ele>2083.5872380079</ele>
        <time>2021-07-10T08:55:10Z</time>
      </trkpt>
      <trkpt lat="44.11127" lon="6.73181">
        <ele>2083.5872861101</ele>
        <time>2021-07-10T08:55:11Z</time>
      </trkpt>
      <trkpt lat="44.11128" lon="6.73181">
        <ele>2083.5872911906</ele>
        <time>2021-07-10T08:55:12Z</time>
      </trkpt>
      <trkpt lat="44.11128" lon="6.73181">
        <ele>2084.587272438</ele>
        <time>2021-07-10T08:55:18Z</time>
      </trkpt>
      <trkpt lat="44.11126" lon="6.7318">
        <ele>2085.5873526253</ele>
        <time>2021-07-10T08:55:20Z</time>
      </trkpt>
      <trkpt lat="44.11127" lon="6.73179">
        <ele>2085.5873500767</ele>
        <time>2021-07-10T08:55:20Z</time>
      </trkpt>
      <trkpt lat="44.11127" lon="6.73178">
        <ele>2085.5873723656</ele>
        <time>2021-07-10T08:55:21Z</time>
      </trkpt>
      <trkpt lat="44.11127" lon="6.73178">
        <ele>2085.5873604678</ele>
        <time>2021-07-10T08:55:24Z</time>
      </trkpt>
      <trkpt lat="44.11127" lon="6.73177">
        <ele>2086.5873797165</ele>
        <time>2021-07-10T08:55:28Z</time>
      </trkpt>
      <trkpt lat="44.11126" lon="6.73177">
        <ele>2087.5874072572</ele>
        <time>2021-07-10T08:55:30Z</time>
      </trkpt>
      <trkpt lat="44.11125" lon="6.73175">
        <ele>2086.5874743827</ele>
        <time>2021-07-10T08:55:31Z</time>
      </trkpt>
      <trkpt lat="44.11126" lon="6.73175">
        <ele>2087.5874389715</ele>
        <time>2021-07-10T08:55:32Z</time>
      </trkpt>
      <trkpt lat="44.11127" lon="6.73175">
        <ele>2087.5874291885</ele>
        <time>2021-07-10T08:55:34Z</time>
      </trkpt>
      <trkpt lat="44.11126" lon="6.73174">
        <ele>2090.5874676931</ele>
        <time>2021-07-10T08:55:40Z</time>
      </trkpt>
      <trkpt lat="44.11126" lon="6.73173">
        <ele>2090.5874933783</ele>
        <time>2021-07-10T08:55:41Z</time>
      </trkpt>
      <trkpt lat="44.11125" lon="6.73173">
        <ele>2090.5875139467</ele>
        <time>2021-07-10T08:55:43Z</time>
      </trkpt>
      <trkpt lat="44.11125" lon="6.73172">
        <ele>2091.5875406086</ele>
        <time>2021-07-10T08:55:47Z</time>
      </trkpt>
      <trkpt lat="44.11124" lon="6.73171">
        <ele>2091.5876131903</ele>
        <time>2021-07-10T08:55:49Z</time>
      </trkpt>
      <trkpt lat="44.11123" lon="6.73169">
        <ele>2091.5876764782</ele>
        <time>2021-07-10T08:55:50Z</time>
      </trkpt>
      <trkpt lat="44.11123" lon="6.73168">
        <ele>2090.5877022275</ele>
        <time>2021-07-10T08:55:51Z</time>
      </trkpt>
      <trkpt lat="44.11123" lon="6.73168">
        <ele>2090.5877022275</ele>
        <time>2021-07-10T08:55:53Z</time>
      </trkpt>
      <trkpt lat="44.11122" lon="6.73166">
        <ele>2090.5877522619</ele>
        <time>2021-07-10T08:55:55Z</time>
      </trkpt>
      <trkpt lat="44.11122" lon="6.73165">
        <ele>2092.5877901619</ele>
        <time>2021-07-10T08:55:56Z</time>
      </trkpt>
      <trkpt lat="44.11122" lon="6.73164">
        <ele>2092.5878094899</ele>
        <time>2021-07-10T08:55:57Z</time>
      </trkpt>
      <trkpt lat="44.11121" lon="6.73163">
        <ele>2092.5878392727</ele>
        <time>2021-07-10T08:56:00Z</time>
      </trkpt>
      <trkpt lat="44.1112" lon="6.73164">
        <ele>2095.5878743359</ele>
        <time>2021-07-10T08:56:01Z</time>
      </trkpt>
      <trkpt lat="44.1112" lon="6.73164">
        <ele>2096.5878783483</ele>
        <time>2021-07-10T08:56:03Z</time>
      </trkpt>
      <trkpt lat="44.11119" lon="6.73164">
        <ele>2096.5879254061</ele>
        <time>2021-07-10T08:56:05Z</time>
      </trkpt>
      <trkpt lat="44.11119" lon="6.73164">
        <ele>2096.5879254061</ele>
        <time>2021-07-10T08:56:11Z</time>
      </trkpt>
      <trkpt lat="44.11118" lon="6.73163">
        <ele>2097.5879640131</ele>
        <time>2021-07-10T08:56:12Z</time>
      </trkpt>
      <trkpt lat="44.11117" lon="6.73164">
        <ele>2097.5879732408</ele>
        <time>2021-07-10T08:56:20Z</time>
      </trkpt>
      <trkpt lat="44.11115" lon="6.73165">
        <ele>2097.5880206966</ele>
        <time>2021-07-10T08:56:22Z</time>
      </trkpt>
      <trkpt lat="44.11114" lon="6.73165">
        <ele>2098.5880713951</ele>
        <time>2021-07-10T08:56:23Z</time>
      </trkpt>
      <trkpt lat="44.11114" lon="6.73164">
        <ele>2099.5880927627</ele>
        <time>2021-07-10T08:56:27Z</time>
      </trkpt>
      <trkpt lat="44.11114" lon="6.73164">
        <ele>2099.5881103175</ele>
        <time>2021-07-10T08:56:28Z</time>
      </trkpt>
      <trkpt lat="44.11114" lon="6.73163">
        <ele>2099.5881122865</ele>
        <time>2021-07-10T08:56:30Z</time>
      </trkpt>
      <trkpt lat="44.11114" lon="6.73162">
        <ele>2099.5881345741</ele>
        <time>2021-07-10T08:56:34Z</time>
      </trkpt>
      <trkpt lat="44.11112" lon="6.73161">
        <ele>2099.5882136008</ele>
        <time>2021-07-10T08:56:35Z</time>
      </trkpt>
      <trkpt lat="44.11112" lon="6.73161">
        <ele>2099.5882364693</ele>
        <time>2021-07-10T08:56:36Z</time>
      </trkpt>
      <trkpt lat="44.11111" lon="6.73161">
        <ele>2100.5882619414</ele>
        <time>2021-07-10T08:56:38Z</time>
      </trkpt>
      <trkpt lat="44.1111" lon="6.73161">
        <ele>2099.5883091039</ele>
        <time>2021-07-10T08:56:40Z</time>
      </trkpt>
      <trkpt lat="44.11108" lon="6.73159">
        <ele>2100.5883853315</ele>
        <time>2021-07-10T08:56:41Z</time>
      </trkpt>
      <trkpt lat="44.11108" lon="6.73158">
        <ele>2099.5884207874</ele>
        <time>2021-07-10T08:56:42Z</time>
      </trkpt>
      <trkpt lat="44.11107" lon="6.73159">
        <ele>2100.5884461819</ele>
        <time>2021-07-10T08:56:44Z</time>
      </trkpt>
      <trkpt lat="44.11107" lon="6.73157">
        <ele>2100.5884621426</ele>
        <time>2021-07-10T08:56:58Z</time>
      </trkpt>
      <trkpt lat="44.11106" lon="6.73156">
        <ele>2102.5885173762</ele>
        <time>2021-07-10T08:57:00Z</time>
      </trkpt>
      <trkpt lat="44.11105" lon="6.73155">
        <ele>2103.5885693575</ele>
        <time>2021-07-10T08:57:01Z</time>
      </trkpt>
      <trkpt lat="44.11105" lon="6.73155">
        <ele>2103.5885813734</ele>
        <time>2021-07-10T08:57:02Z</time>
      </trkpt>
      <trkpt lat="44.11105" lon="6.73154">
        <ele>2102.588615487</ele>
        <time>2021-07-10T08:57:04Z</time>
      </trkpt>
      <trkpt lat="44.11104" lon="6.73153">
        <ele>2102.5886334083</ele>
        <time>2021-07-10T08:57:06Z</time>
      </trkpt>
      <trkpt lat="44.11103" lon="6.73153">
        <ele>2102.5886930671</ele>
        <time>2021-07-10T08:57:08Z</time>
      </trkpt>
      <trkpt lat="44.11102" lon="6.73153">
        <ele>2102.5887437064</ele>
        <time>2021-07-10T08:57:10Z</time>
      </trkpt>
      <trkpt lat="44.11101" lon="6.73153">
        <ele>2103.5887797882</ele>
        <time>2021-07-10T08:57:11Z</time>
      </trkpt>
      <trkpt lat="44.111" lon="6.73153">
        <ele>2103.5888046693</ele>
        <time>2021-07-10T08:57:12Z</time>
      </trkpt>
      <trkpt lat="44.11099" lon="6.73153">
        <ele>2103.5888325942</ele>
        <time>2021-07-10T08:57:13Z</time>
      </trkpt>
      <trkpt lat="44.11099" lon="6.73153">
        <ele>2103.5888479196</ele>
        <time>2021-07-10T08:57:15Z</time>
      </trkpt>
      <trkpt lat="44.11098" lon="6.73153">
        <ele>2103.5888849624</ele>
        <time>2021-07-10T08:57:19Z</time>
      </trkpt>
      <trkpt lat="44.11096" lon="6.73152">
        <ele>2104.5889740738</ele>
        <time>2021-07-10T08:57:20Z</time>
      </trkpt>
      <trkpt lat="44.11095" lon="6.73152">
        <ele>2105.588997025</ele>
        <time>2021-07-10T08:57:21Z</time>
      </trkpt>
      <trkpt lat="44.11095" lon="6.73152">
        <ele>2105.5890277247</ele>
        <time>2021-07-10T08:57:23Z</time>
      </trkpt>
      <trkpt lat="44.11094" lon="6.73151">
        <ele>2107.5890514591</ele>
        <time>2021-07-10T08:57:26Z</time>
      </trkpt>
      <trkpt lat="44.11094" lon="6.7315">
        <ele>2108.5890689883</ele>
        <time>2021-07-10T08:57:27Z</time>
      </trkpt>
      <trkpt lat="44.11094" lon="6.73151">
        <ele>2108.5890461537</ele>
        <time>2021-07-10T08:57:30Z</time>
      </trkpt>
      <trkpt lat="44.11094" lon="6.73152">
        <ele>2107.5890307709</ele>
        <time>2021-07-10T08:57:31Z</time>
      </trkpt>
      <trkpt lat="44.11094" lon="6.73153">
        <ele>2108.5890159181</ele>
        <time>2021-07-10T08:57:33Z</time>
      </trkpt>
      <trkpt lat="44.11095" lon="6.73154">
        <ele>2108.5889781713</ele>
        <time>2021-07-10T08:57:35Z</time>
      </trkpt>
      <trkpt lat="44.11094" lon="6.73155">
        <ele>2108.5889840328</ele>
        <time>2021-07-10T08:57:36Z</time>
      </trkpt>
      <trkpt lat="44.11095" lon="6.73155">
        <ele>2110.5889666366</ele>
        <time>2021-07-10T08:57:45Z</time>
      </trkpt>
      <trkpt lat="44.11093" lon="6.73154">
        <ele>2111.5890727679</ele>
        <time>2021-07-10T08:57:47Z</time>
      </trkpt>
      <trkpt lat="44.11091" lon="6.73153">
        <ele>2111.5891474277</ele>
        <time>2021-07-10T08:57:49Z</time>
      </trkpt>
      <trkpt lat="44.11091" lon="6.73152">
        <ele>2111.5891580162</ele>
        <time>2021-07-10T08:57:51Z</time>
      </trkpt>
      <trkpt lat="44.1109" lon="6.7315">
        <ele>2111.5892375873</ele>
        <time>2021-07-10T08:57:52Z</time>
      </trkpt>
      <trkpt lat="44.11089" lon="6.7315">
        <ele>2112.5892699194</ele>
        <time>2021-07-10T08:57:53Z</time>
      </trkpt>
      <trkpt lat="44.11088" lon="6.7315">
        <ele>2112.5892959631</ele>
        <time>2021-07-10T08:57:54Z</time>
      </trkpt>
      <trkpt lat="44.11088" lon="6.73149">
        <ele>2113.5893224494</ele>
        <time>2021-07-10T08:57:56Z</time>
      </trkpt>
      <trkpt lat="44.11088" lon="6.73149">
        <ele>2113.5893427497</ele>
        <time>2021-07-10T08:58:00Z</time>
      </trkpt>
      <trkpt lat="44.11087" lon="6.73147">
        <ele>2115.5893968245</ele>
        <time>2021-07-10T08:58:01Z</time>
      </trkpt>
      <trkpt lat="44.11087" lon="6.73147">
        <ele>2115.5894103968</ele>
        <time>2021-07-10T08:58:02Z</time>
      </trkpt>
      <trkpt lat="44.11085" lon="6.73146">
        <ele>2115.5894620144</ele>
        <time>2021-07-10T08:58:03Z</time>
      </trkpt>
      <trkpt lat="44.11085" lon="6.73146">
        <ele>2115.589495642</ele>
        <time>2021-07-10T08:58:04Z</time>
      </trkpt>
      <trkpt lat="44.11084" lon="6.73146">
        <ele>2115.5895184181</ele>
        <time>2021-07-10T08:58:05Z</time>
      </trkpt>
      <trkpt lat="44.11084" lon="6.73145">
        <ele>2115.5895430168</ele>
        <time>2021-07-10T08:58:09Z</time>
      </trkpt>
      <trkpt lat="44.11082" lon="6.73144">
        <ele>2117.5896356686</ele>
        <time>2021-07-10T08:58:10Z</time>
      </trkpt>
      <trkpt lat="44.11081" lon="6.73143">
        <ele>2117.5896683113</ele>
        <time>2021-07-10T08:58:15Z</time>
      </trkpt>
      <trkpt lat="44.1108" lon="6.73142">
        <ele>2117.5897351603</ele>
        <time>2021-07-10T08:58:16Z</time>
      </trkpt>
      <trkpt lat="44.1108" lon="6.73141">
        <ele>2117.5897588111</ele>
        <time>2021-07-10T08:58:18Z</time>
      </trkpt>
      <trkpt lat="44.11079" lon="6.7314">
        <ele>2117.5898032218</ele>
        <time>2021-07-10T08:58:20Z</time>
      </trkpt>
      <trkpt lat="44.11079" lon="6.73139">
        <ele>2117.589850784</ele>
        <time>2021-07-10T08:58:21Z</time>
      </trkpt>
      <trkpt lat="44.11078" lon="6.7314">
        <ele>2118.5898580753</ele>
        <time>2021-07-10T08:58:28Z</time>
      </trkpt>
      <trkpt lat="44.11077" lon="6.73138">
        <ele>2118.5899014249</ele>
        <time>2021-07-10T08:58:30Z</time>
      </trkpt>
      <trkpt lat="44.11077" lon="6.73137">
        <ele>2119.5899268649</ele>
        <time>2021-07-10T08:58:31Z</time>
      </trkpt>
      <trkpt lat="44.11078" lon="6.73137">
        <ele>2120.5899262913</ele>
        <time>2021-07-10T08:58:36Z</time>
      </trkpt>
      <trkpt lat="44.11076" lon="6.73135">
        <ele>2121.5900230696</ele>
        <time>2021-07-10T08:58:37Z</time>
      </trkpt>
      <trkpt lat="44.11076" lon="6.73134">
        <ele>2121.5900370715</ele>
        <time>2021-07-10T08:58:38Z</time>
      </trkpt>
      <trkpt lat="44.11075" lon="6.73134">
        <ele>2121.5900611956</ele>
        <time>2021-07-10T08:58:39Z</time>
      </trkpt>
      <trkpt lat="44.11075" lon="6.73133">
        <ele>2122.5900802465</ele>
        <time>2021-07-10T08:58:41Z</time>
      </trkpt>
      <trkpt lat="44.11075" lon="6.73132">
        <ele>2122.5900908552</ele>
        <time>2021-07-10T08:58:43Z</time>
      </trkpt>
      <trkpt lat="44.11076" lon="6.7313">
        <ele>2122.5900842449</ele>
        <time>2021-07-10T08:58:44Z</time>
      </trkpt>
      <trkpt lat="44.11077" lon="6.7313">
        <ele>2123.5900746898</ele>
        <time>2021-07-10T08:58:45Z</time>
      </trkpt>
      <trkpt lat="44.11077" lon="6.73129">
        <ele>2123.5900843874</ele>
        <time>2021-07-10T08:58:46Z</time>
      </trkpt>
      <trkpt lat="44.11077" lon="6.73129">
        <ele>2123.5900787743</ele>
        <time>2021-07-10T08:58:47Z</time>
      </trkpt>
      <trkpt lat="44.11077" lon="6.73128">
        <ele>2123.5900912694</ele>
        <time>2021-07-10T08:58:48Z</time>
      </trkpt>
      <trkpt lat="44.11078" lon="6.73127">
        <ele>2123.590095236</ele>
        <time>2021-07-10T08:58:50Z</time>
      </trkpt>
      <trkpt lat="44.11078" lon="6.73126">
        <ele>2122.5901239695</ele>
        <time>2021-07-10T08:58:52Z</time>
      </trkpt>
      <trkpt lat="44.11077" lon="6.73125">
        <ele>2122.5901459423</ele>
        <time>2021-07-10T08:58:53Z</time>
      </trkpt>
      <trkpt lat="44.11077" lon="6.73125">
        <ele>2121.590165069</ele>
        <time>2021-07-10T08:58:59Z</time>
      </trkpt>
      <trkpt lat="44.11075" lon="6.73123">
        <ele>2123.5902570461</ele>
        <time>2021-07-10T08:59:00Z</time>
      </trkpt>
      <trkpt lat="44.11075" lon="6.73123">
        <ele>2123.5902864258</ele>
        <time>2021-07-10T08:59:01Z</time>
      </trkpt>
      <trkpt lat="44.11074" lon="6.73123">
        <ele>2123.5903045095</ele>
        <time>2021-07-10T08:59:03Z</time>
      </trkpt>
      <trkpt lat="44.11073" lon="6.73122">
        <ele>2124.5903304643</ele>
        <time>2021-07-10T08:59:07Z</time>
      </trkpt>
      <trkpt lat="44.11072" lon="6.73121">
        <ele>2125.5903913581</ele>
        <time>2021-07-10T08:59:09Z</time>
      </trkpt>
      <trkpt lat="44.11072" lon="6.7312">
        <ele>2125.5904399698</ele>
        <time>2021-07-10T08:59:10Z</time>
      </trkpt>
      <trkpt lat="44.11073" lon="6.73118">
        <ele>2126.5904335524</ele>
        <time>2021-07-10T08:59:11Z</time>
      </trkpt>
      <trkpt lat="44.11073" lon="6.73118">
        <ele>2127.5904422729</ele>
        <time>2021-07-10T08:59:12Z</time>
      </trkpt>
      <trkpt lat="44.11072" lon="6.73117">
        <ele>2127.5904753926</ele>
        <time>2021-07-10T08:59:13Z</time>
      </trkpt>
      <trkpt lat="44.11071" lon="6.73116">
        <ele>2127.5905160978</ele>
        <time>2021-07-10T08:59:14Z</time>
      </trkpt>
      <trkpt lat="44.11071" lon="6.73115">
        <ele>2127.5905370594</ele>
        <time>2021-07-10T08:59:18Z</time>
      </trkpt>
      <trkpt lat="44.11072" lon="6.73114">
        <ele>2127.5905354313</ele>
        <time>2021-07-10T08:59:18Z</time>
      </trkpt>
      <trkpt lat="44.11072" lon="6.73113">
        <ele>2127.5905612178</ele>
        <time>2021-07-10T08:59:21Z</time>
      </trkpt>
      <trkpt lat="44.11072" lon="6.73112">
        <ele>2127.5905761191</ele>
        <time>2021-07-10T08:59:22Z</time>
      </trkpt>
      <trkpt lat="44.11072" lon="6.73111">
        <ele>2127.5905640018</ele>
        <time>2021-07-10T08:59:24Z</time>
      </trkpt>
      <trkpt lat="44.11072" lon="6.73111">
        <ele>2127.5905640018</ele>
        <time>2021-07-10T08:59:30Z</time>
      </trkpt>
      <trkpt lat="44.11072" lon="6.73111">
        <ele>2128.5906030989</ele>
        <time>2021-07-10T08:59:31Z</time>
      </trkpt>
      <trkpt lat="44.11071" lon="6.73111">
        <ele>2129.590619589</ele>
        <time>2021-07-10T08:59:33Z</time>
      </trkpt>
      <trkpt lat="44.11071" lon="6.7311">
        <ele>2131.5906336546</ele>
        <time>2021-07-10T08:59:40Z</time>
      </trkpt>
      <trkpt lat="44.11071" lon="6.73109">
        <ele>2132.5906579699</ele>
        <time>2021-07-10T08:59:45Z</time>
      </trkpt>
      <trkpt lat="44.11071" lon="6.73109">
        <ele>2132.5906711254</ele>
        <time>2021-07-10T08:59:46Z</time>
      </trkpt>
      <trkpt lat="44.11071" lon="6.73108">
        <ele>2132.5906900154</ele>
        <time>2021-07-10T08:59:47Z</time>
      </trkpt>
      <trkpt lat="44.11071" lon="6.73107">
        <ele>2132.5907026664</ele>
        <time>2021-07-10T08:59:50Z</time>
      </trkpt>
      <trkpt lat="44.1107" lon="6.73106">
        <ele>2134.59074218</ele>
        <time>2021-07-10T08:59:51Z</time>
      </trkpt>
      <trkpt lat="44.1107" lon="6.73106">
        <ele>2134.590769952</ele>
        <time>2021-07-10T08:59:52Z</time>
      </trkpt>
      <trkpt lat="44.11069" lon="6.73106">
        <ele>2134.5907873309</ele>
        <time>2021-07-10T08:59:55Z</time>
      </trkpt>
      <trkpt lat="44.11068" lon="6.73106">
        <ele>2134.590827721</ele>
        <time>2021-07-10T08:59:56Z</time>
      </trkpt>
      <trkpt lat="44.11067" lon="6.73106">
        <ele>2134.5908547573</ele>
        <time>2021-07-10T08:59:58Z</time>
      </trkpt>
      <trkpt lat="44.11066" lon="6.73105">
        <ele>2134.5909053938</ele>
        <time>2021-07-10T09:00:00Z</time>
      </trkpt>
      <trkpt lat="44.11065" lon="6.73105">
        <ele>2134.5909430872</ele>
        <time>2021-07-10T09:00:01Z</time>
      </trkpt>
      <trkpt lat="44.11066" lon="6.73104">
        <ele>2134.5909428735</ele>
        <time>2021-07-10T09:00:02Z</time>
      </trkpt>
      <trkpt lat="44.11066" lon="6.73103">
        <ele>2135.590944248</ele>
        <time>2021-07-10T09:00:04Z</time>
      </trkpt>
      <trkpt lat="44.11067" lon="6.73101">
        <ele>2134.5909599743</ele>
        <time>2021-07-10T09:00:05Z</time>
      </trkpt>
      <trkpt lat="44.11067" lon="6.731">
        <ele>2135.5909805025</ele>
        <time>2021-07-10T09:00:06Z</time>
      </trkpt>
      <trkpt lat="44.11066" lon="6.73099">
        <ele>2135.5910058196</ele>
        <time>2021-07-10T09:00:08Z</time>
      </trkpt>
      <trkpt lat="44.11066" lon="6.73099">
        <ele>2137.5910407326</ele>
        <time>2021-07-10T09:00:12Z</time>
      </trkpt>
      <trkpt lat="44.11065" lon="6.73098">
        <ele>2137.5910693192</ele>
        <time>2021-07-10T09:00:15Z</time>
      </trkpt>
      <trkpt lat="44.11065" lon="6.73099">
        <ele>2139.591053479</ele>
        <time>2021-07-10T09:00:22Z</time>
      </trkpt>
      <trkpt lat="44.11065" lon="6.731">
        <ele>2139.5910407779</ele>
        <time>2021-07-10T09:00:26Z</time>
      </trkpt>
      <trkpt lat="44.11064" lon="6.73101">
        <ele>2140.591053342</ele>
        <time>2021-07-10T09:00:30Z</time>
      </trkpt>
      <trkpt lat="44.11064" lon="6.73101">
        <ele>2140.5910798824</ele>
        <time>2021-07-10T09:00:33Z</time>
      </trkpt>
      <trkpt lat="44.11063" lon="6.73101">
        <ele>2140.5911126453</ele>
        <time>2021-07-10T09:00:33Z</time>
      </trkpt>
      <trkpt lat="44.11062" lon="6.731">
        <ele>2140.5911321718</ele>
        <time>2021-07-10T09:00:35Z</time>
      </trkpt>
      <trkpt lat="44.11062" lon="6.73099">
        <ele>2140.591154567</ele>
        <time>2021-07-10T09:00:36Z</time>
      </trkpt>
      <trkpt lat="44.11062" lon="6.73098">
        <ele>2141.5911678389</ele>
        <time>2021-07-10T09:00:39Z</time>
      </trkpt>
      <trkpt lat="44.11062" lon="6.73097">
        <ele>2140.5912098777</ele>
        <time>2021-07-10T09:00:40Z</time>
      </trkpt>
      <trkpt lat="44.11061" lon="6.73096">
        <ele>2139.5912492084</ele>
        <time>2021-07-10T09:00:43Z</time>
      </trkpt>
      <trkpt lat="44.1106" lon="6.73096">
        <ele>2140.5913036836</ele>
        <time>2021-07-10T09:00:45Z</time>
      </trkpt>
      <trkpt lat="44.1106" lon="6.73096">
        <ele>2140.5912900703</ele>
        <time>2021-07-10T09:00:49Z</time>
      </trkpt>
      <trkpt lat="44.1106" lon="6.73094">
        <ele>2141.5913311671</ele>
        <time>2021-07-10T09:00:50Z</time>
      </trkpt>
      <trkpt lat="44.1106" lon="6.73093">
        <ele>2143.5913599147</ele>
        <time>2021-07-10T09:00:59Z</time>
      </trkpt>
      <trkpt lat="44.1106" lon="6.73092">
        <ele>2142.5913581081</ele>
        <time>2021-07-10T09:00:59Z</time>
      </trkpt>
      <trkpt lat="44.1106" lon="6.73092">
        <ele>2143.5913852318</ele>
        <time>2021-07-10T09:01:01Z</time>
      </trkpt>
      <trkpt lat="44.11059" lon="6.73091">
        <ele>2145.5914224303</ele>
        <time>2021-07-10T09:01:06Z</time>
      </trkpt>
      <trkpt lat="44.11059" lon="6.7309">
        <ele>2145.591429445</ele>
        <time>2021-07-10T09:01:09Z</time>
      </trkpt>
      <trkpt lat="44.11059" lon="6.7309">
        <ele>2146.5914511669</ele>
        <time>2021-07-10T09:01:15Z</time>
      </trkpt>
      <trkpt lat="44.11057" lon="6.73088">
        <ele>2148.5915553889</ele>
        <time>2021-07-10T09:01:16Z</time>
      </trkpt>
      <trkpt lat="44.11057" lon="6.73087">
        <ele>2147.5915666126</ele>
        <time>2021-07-10T09:01:17Z</time>
      </trkpt>
      <trkpt lat="44.11057" lon="6.73086">
        <ele>2147.5915830067</ele>
        <time>2021-07-10T09:01:22Z</time>
      </trkpt>
      <trkpt lat="44.11057" lon="6.73085">
        <ele>2147.5915882553</ele>
        <time>2021-07-10T09:01:23Z</time>
      </trkpt>
      <trkpt lat="44.11058" lon="6.73085">
        <ele>2147.5915860449</ele>
        <time>2021-07-10T09:01:24Z</time>
      </trkpt>
      <trkpt lat="44.11057" lon="6.73084">
        <ele>2147.59160263</ele>
        <time>2021-07-10T09:01:25Z</time>
      </trkpt>
      <trkpt lat="44.11057" lon="6.73084">
        <ele>2147.5916291147</ele>
        <time>2021-07-10T09:01:28Z</time>
      </trkpt>
      <trkpt lat="44.11056" lon="6.73083">
        <ele>2147.5916914286</ele>
        <time>2021-07-10T09:01:29Z</time>
      </trkpt>
      <trkpt lat="44.11055" lon="6.73082">
        <ele>2147.5917341459</ele>
        <time>2021-07-10T09:01:30Z</time>
      </trkpt>
      <trkpt lat="44.11055" lon="6.73081">
        <ele>2147.5917552292</ele>
        <time>2021-07-10T09:01:31Z</time>
      </trkpt>
      <trkpt lat="44.11055" lon="6.73081">
        <ele>2147.5917720616</ele>
        <time>2021-07-10T09:01:32Z</time>
      </trkpt>
      <trkpt lat="44.11055" lon="6.7308">
        <ele>2147.5917789744</ele>
        <time>2021-07-10T09:01:35Z</time>
      </trkpt>
      <trkpt lat="44.11054" lon="6.73079">
        <ele>2147.591817082</ele>
        <time>2021-07-10T09:01:36Z</time>
      </trkpt>
      <trkpt lat="44.11054" lon="6.73078">
        <ele>2147.5918362775</ele>
        <time>2021-07-10T09:01:38Z</time>
      </trkpt>
      <trkpt lat="44.11054" lon="6.73076">
        <ele>2148.591868906</ele>
        <time>2021-07-10T09:01:39Z</time>
      </trkpt>
      <trkpt lat="44.11054" lon="6.73076">
        <ele>2148.5918822371</ele>
        <time>2021-07-10T09:01:41Z</time>
      </trkpt>
      <trkpt lat="44.11053" lon="6.73075">
        <ele>2147.5919132635</ele>
        <time>2021-07-10T09:01:43Z</time>
      </trkpt>
      <trkpt lat="44.11053" lon="6.73075">
        <ele>2148.5919293852</ele>
        <time>2021-07-10T09:01:45Z</time>
      </trkpt>
      <trkpt lat="44.11052" lon="6.73075">
        <ele>2148.5919860739</ele>
        <time>2021-07-10T09:01:46Z</time>
      </trkpt>
      <trkpt lat="44.11052" lon="6.73074">
        <ele>2149.5920004245</ele>
        <time>2021-07-10T09:01:47Z</time>
      </trkpt>
      <trkpt lat="44.11051" lon="6.73073">
        <ele>2149.5920306443</ele>
        <time>2021-07-10T09:01:49Z</time>
      </trkpt>
      <trkpt lat="44.11052" lon="6.73072">
        <ele>2150.5920275439</ele>
        <time>2021-07-10T09:01:50Z</time>
      </trkpt>
      <trkpt lat="44.11053" lon="6.73071">
        <ele>2150.5920067857</ele>
        <time>2021-07-10T09:01:53Z</time>
      </trkpt>
      <trkpt lat="44.11053" lon="6.73071">
        <ele>2152.5919828708</ele>
        <time>2021-07-10T09:02:24Z</time>
      </trkpt>
      <trkpt lat="44.11053" lon="6.73072">
        <ele>2155.591982879</ele>
        <time>2021-07-10T09:03:25Z</time>
      </trkpt>
      <trkpt lat="44.11054" lon="6.73071">
        <ele>2154.591953033</ele>
        <time>2021-07-10T09:03:26Z</time>
      </trkpt>
      <trkpt lat="44.11055" lon="6.73071">
        <ele>2154.5919216986</ele>
        <time>2021-07-10T09:03:27Z</time>
      </trkpt>
      <trkpt lat="44.11055" lon="6.7307">
        <ele>2155.5919496351</ele>
        <time>2021-07-10T09:03:29Z</time>
      </trkpt>
      <trkpt lat="44.11055" lon="6.7307">
        <ele>2155.5919615726</ele>
        <time>2021-07-10T09:04:03Z</time>
      </trkpt>
      <trkpt lat="44.11054" lon="6.73067">
        <ele>2157.5920334713</ele>
        <time>2021-07-10T09:04:04Z</time>
      </trkpt>
      <trkpt lat="44.11053" lon="6.73067">
        <ele>2157.5920496159</ele>
        <time>2021-07-10T09:04:05Z</time>
      </trkpt>
      <trkpt lat="44.11053" lon="6.73066">
        <ele>2157.5920773481</ele>
        <time>2021-07-10T09:04:06Z</time>
      </trkpt>
      <trkpt lat="44.11053" lon="6.73065">
        <ele>2157.5920963414</ele>
        <time>2021-07-10T09:04:07Z</time>
      </trkpt>
      <trkpt lat="44.11053" lon="6.73065">
        <ele>2157.5920963414</ele>
        <time>2021-07-10T09:04:10Z</time>
      </trkpt>
      <trkpt lat="44.11054" lon="6.73063">
        <ele>2157.5921133266</ele>
        <time>2021-07-10T09:04:11Z</time>
      </trkpt>
      <trkpt lat="44.11053" lon="6.73063">
        <ele>2157.5921499163</ele>
        <time>2021-07-10T09:04:13Z</time>
      </trkpt>
      <trkpt lat="44.11053" lon="6.73062">
        <ele>2158.5921426055</ele>
        <time>2021-07-10T09:04:15Z</time>
      </trkpt>
      <trkpt lat="44.11054" lon="6.73061">
        <ele>2158.592144942</ele>
        <time>2021-07-10T09:04:18Z</time>
      </trkpt>
      <trkpt lat="44.11054" lon="6.7306">
        <ele>2158.5921322036</ele>
        <time>2021-07-10T09:04:19Z</time>
      </trkpt>
      <trkpt lat="44.11054" lon="6.7306">
        <ele>2159.5921441338</ele>
        <time>2021-07-10T09:04:21Z</time>
      </trkpt>
      <trkpt lat="44.11054" lon="6.73059">
        <ele>2159.5921665243</ele>
        <time>2021-07-10T09:04:22Z</time>
      </trkpt>
      <trkpt lat="44.11054" lon="6.73058">
        <ele>2159.5921950747</ele>
        <time>2021-07-10T09:04:23Z</time>
      </trkpt>
      <trkpt lat="44.11053" lon="6.73059">
        <ele>2160.5922050962</ele>
        <time>2021-07-10T09:04:24Z</time>
      </trkpt>
      <trkpt lat="44.11053" lon="6.73059">
        <ele>2161.5922115812</ele>
        <time>2021-07-10T09:04:25Z</time>
      </trkpt>
      <trkpt lat="44.11052" lon="6.73059">
        <ele>2162.5922359976</ele>
        <time>2021-07-10T09:04:27Z</time>
      </trkpt>
      <trkpt lat="44.11051" lon="6.73059">
        <ele>2162.5922715303</ele>
        <time>2021-07-10T09:04:30Z</time>
      </trkpt>
      <trkpt lat="44.11051" lon="6.73058">
        <ele>2163.592293567</ele>
        <time>2021-07-10T09:04:33Z</time>
      </trkpt>
      <trkpt lat="44.11051" lon="6.73056">
        <ele>2163.5923190718</ele>
        <time>2021-07-10T09:04:34Z</time>
      </trkpt>
      <trkpt lat="44.11051" lon="6.73055">
        <ele>2163.5923460496</ele>
        <time>2021-07-10T09:04:36Z</time>
      </trkpt>
      <trkpt lat="44.11051" lon="6.73055">
        <ele>2162.5923731893</ele>
        <time>2021-07-10T09:04:39Z</time>
      </trkpt>
      <trkpt lat="44.1105" lon="6.73052">
        <ele>2162.5924297314</ele>
        <time>2021-07-10T09:04:40Z</time>
      </trkpt>
      <trkpt lat="44.1105" lon="6.73052">
        <ele>2162.5924664157</ele>
        <time>2021-07-10T09:04:41Z</time>
      </trkpt>
      <trkpt lat="44.1105" lon="6.73051">
        <ele>2164.5924699778</ele>
        <time>2021-07-10T09:04:47Z</time>
      </trkpt>
      <trkpt lat="44.1105" lon="6.73052">
        <ele>2166.5924534533</ele>
        <time>2021-07-10T09:04:48Z</time>
      </trkpt>
      <trkpt lat="44.11049" lon="6.73053">
        <ele>2166.5924565673</ele>
        <time>2021-07-10T09:04:49Z</time>
      </trkpt>
      <trkpt lat="44.11048" lon="6.73053">
        <ele>2167.5924754376</ele>
        <time>2021-07-10T09:04:53Z</time>
      </trkpt>
      <trkpt lat="44.11048" lon="6.73053">
        <ele>2167.5924995872</ele>
        <time>2021-07-10T09:04:54Z</time>
      </trkpt>
      <trkpt lat="44.11048" lon="6.73052">
        <ele>2167.5925123352</ele>
        <time>2021-07-10T09:04:57Z</time>
      </trkpt>
      <trkpt lat="44.11049" lon="6.73049">
        <ele>2167.5925402065</ele>
        <time>2021-07-10T09:04:58Z</time>
      </trkpt>
      <trkpt lat="44.11049" lon="6.73048">
        <ele>2167.5925458675</ele>
        <time>2021-07-10T09:05:00Z</time>
      </trkpt>
      <trkpt lat="44.11049" lon="6.73047">
        <ele>2166.5925636064</ele>
        <time>2021-07-10T09:05:01Z</time>
      </trkpt>
      <trkpt lat="44.11049" lon="6.73047">
        <ele>2166.5925636064</ele>
        <time>2021-07-10T09:05:04Z</time>
      </trkpt>
      <trkpt lat="44.11049" lon="6.73045">
        <ele>2167.5925989053</ele>
        <time>2021-07-10T09:05:04Z</time>
      </trkpt>
      <trkpt lat="44.11049" lon="6.73045">
        <ele>2167.5926177791</ele>
        <time>2021-07-10T09:05:10Z</time>
      </trkpt>
      <trkpt lat="44.11048" lon="6.73044">
        <ele>2168.5926605943</ele>
        <time>2021-07-10T09:05:10Z</time>
      </trkpt>
      <trkpt lat="44.11047" lon="6.73044">
        <ele>2168.5926974392</ele>
        <time>2021-07-10T09:05:13Z</time>
      </trkpt>
      <trkpt lat="44.11046" lon="6.73043">
        <ele>2168.5927677708</ele>
        <time>2021-07-10T09:05:15Z</time>
      </trkpt>
      <trkpt lat="44.11046" lon="6.73041">
        <ele>2169.5927801617</ele>
        <time>2021-07-10T09:05:16Z</time>
      </trkpt>
      <trkpt lat="44.11047" lon="6.73041">
        <ele>2170.5927719133</ele>
        <time>2021-07-10T09:05:18Z</time>
      </trkpt>
      <trkpt lat="44.11047" lon="6.73039">
        <ele>2170.592788307</ele>
        <time>2021-07-10T09:05:20Z</time>
      </trkpt>
      <trkpt lat="44.11047" lon="6.73038">
        <ele>2169.5927865606</ele>
        <time>2021-07-10T09:05:23Z</time>
      </trkpt>
      <trkpt lat="44.11046" lon="6.73036">
        <ele>2170.5928541969</ele>
        <time>2021-07-10T09:05:24Z</time>
      </trkpt>
      <trkpt lat="44.11046" lon="6.73035">
        <ele>2170.5928819195</ele>
        <time>2021-07-10T09:05:26Z</time>
      </trkpt>
      <trkpt lat="44.11046" lon="6.73034">
        <ele>2170.5928904927</ele>
        <time>2021-07-10T09:05:27Z</time>
      </trkpt>
      <trkpt lat="44.11046" lon="6.73034">
        <ele>2170.5929132092</ele>
        <time>2021-07-10T09:05:28Z</time>
      </trkpt>
      <trkpt lat="44.11046" lon="6.73033">
        <ele>2170.5929188035</ele>
        <time>2021-07-10T09:05:34Z</time>
      </trkpt>
      <trkpt lat="44.11046" lon="6.73032">
        <ele>2170.5929534019</ele>
        <time>2021-07-10T09:05:35Z</time>
      </trkpt>
      <trkpt lat="44.11046" lon="6.73031">
        <ele>2170.5929769551</ele>
        <time>2021-07-10T09:05:36Z</time>
      </trkpt>
      <trkpt lat="44.11045" lon="6.7303">
        <ele>2170.5930058088</ele>
        <time>2021-07-10T09:05:38Z</time>
      </trkpt>
      <trkpt lat="44.11045" lon="6.73028">
        <ele>2171.5930466722</ele>
        <time>2021-07-10T09:05:40Z</time>
      </trkpt>
      <trkpt lat="44.11045" lon="6.73027">
        <ele>2171.5930802192</ele>
        <time>2021-07-10T09:05:40Z</time>
      </trkpt>
      <trkpt lat="44.11045" lon="6.73026">
        <ele>2171.5930780481</ele>
        <time>2021-07-10T09:05:41Z</time>
      </trkpt>
      <trkpt lat="44.11046" lon="6.73025">
        <ele>2171.5930900462</ele>
        <time>2021-07-10T09:05:42Z</time>
      </trkpt>
      <trkpt lat="44.11046" lon="6.73023">
        <ele>2171.5930841604</ele>
        <time>2021-07-10T09:05:44Z</time>
      </trkpt>
      <trkpt lat="44.11047" lon="6.73021">
        <ele>2171.5930979604</ele>
        <time>2021-07-10T09:05:45Z</time>
      </trkpt>
      <trkpt lat="44.11048" lon="6.7302">
        <ele>2170.5930970549</ele>
        <time>2021-07-10T09:05:46Z</time>
      </trkpt>
      <trkpt lat="44.11048" lon="6.73019">
        <ele>2170.5931066538</ele>
        <time>2021-07-10T09:05:47Z</time>
      </trkpt>
      <trkpt lat="44.11048" lon="6.73018">
        <ele>2170.5931173273</ele>
        <time>2021-07-10T09:05:48Z</time>
      </trkpt>
      <trkpt lat="44.11048" lon="6.73018">
        <ele>2171.5931131469</ele>
        <time>2021-07-10T09:05:49Z</time>
      </trkpt>
      <trkpt lat="44.11049" lon="6.73017">
        <ele>2171.5931000714</ele>
        <time>2021-07-10T09:05:50Z</time>
      </trkpt>
      <trkpt lat="44.1105" lon="6.73017">
        <ele>2171.593073908</ele>
        <time>2021-07-10T09:05:51Z</time>
      </trkpt>
      <trkpt lat="44.11051" lon="6.73017">
        <ele>2171.5930410022</ele>
        <time>2021-07-10T09:05:53Z</time>
      </trkpt>
      <trkpt lat="44.11052" lon="6.73016">
        <ele>2172.5930110344</ele>
        <time>2021-07-10T09:05:54Z</time>
      </trkpt>
      <trkpt lat="44.11053" lon="6.73016">
        <ele>2173.5929817954</ele>
        <time>2021-07-10T09:05:55Z</time>
      </trkpt>
      <trkpt lat="44.11053" lon="6.73015">
        <ele>2172.592993408</ele>
        <time>2021-07-10T09:05:59Z</time>
      </trkpt>
      <trkpt lat="44.11052" lon="6.73014">
        <ele>2172.5930358753</ele>
        <time>2021-07-10T09:06:00Z</time>
      </trkpt>
      <trkpt lat="44.11051" lon="6.73014">
        <ele>2172.593059259</ele>
        <time>2021-07-10T09:06:01Z</time>
      </trkpt>
      <trkpt lat="44.11051" lon="6.73014">
        <ele>2172.5930833884</ele>
        <time>2021-07-10T09:06:04Z</time>
      </trkpt>
      <trkpt lat="44.11049" lon="6.73014">
        <ele>2173.593132685</ele>
        <time>2021-07-10T09:06:05Z</time>
      </trkpt>
      <trkpt lat="44.11049" lon="6.73014">
        <ele>2173.593153266</ele>
        <time>2021-07-10T09:06:06Z</time>
      </trkpt>
      <trkpt lat="44.11048" lon="6.73014">
        <ele>2173.5931780766</ele>
        <time>2021-07-10T09:06:07Z</time>
      </trkpt>
      <trkpt lat="44.11049" lon="6.73013">
        <ele>2174.5931789786</ele>
        <time>2021-07-10T09:06:49Z</time>
      </trkpt>
      <trkpt lat="44.11047" lon="6.73011">
        <ele>2174.5932924633</ele>
        <time>2021-07-10T09:06:50Z</time>
      </trkpt>
      <trkpt lat="44.11046" lon="6.7301">
        <ele>2174.5933264228</ele>
        <time>2021-07-10T09:06:53Z</time>
      </trkpt>
      <trkpt lat="44.11046" lon="6.7301">
        <ele>2174.5933381006</ele>
        <time>2021-07-10T09:06:56Z</time>
      </trkpt>
      <trkpt lat="44.11046" lon="6.73009">
        <ele>2175.5933445105</ele>
        <time>2021-07-10T09:06:58Z</time>
      </trkpt>
      <trkpt lat="44.11047" lon="6.73008">
        <ele>2177.5933209439</ele>
        <time>2021-07-10T09:07:00Z</time>
      </trkpt>
      <trkpt lat="44.11048" lon="6.73007">
        <ele>2177.5933131022</ele>
        <time>2021-07-10T09:07:01Z</time>
      </trkpt>
      <trkpt lat="44.11048" lon="6.73006">
        <ele>2177.5933121676</ele>
        <time>2021-07-10T09:07:06Z</time>
      </trkpt>
      <trkpt lat="44.11049" lon="6.73004">
        <ele>2178.5933335812</ele>
        <time>2021-07-10T09:07:07Z</time>
      </trkpt>
      <trkpt lat="44.11049" lon="6.73004">
        <ele>2178.5933428881</ele>
        <time>2021-07-10T09:07:09Z</time>
      </trkpt>
      <trkpt lat="44.1105" lon="6.73002">
        <ele>2179.5933311058</ele>
        <time>2021-07-10T09:07:10Z</time>
      </trkpt>
      <trkpt lat="44.1105" lon="6.73002">
        <ele>2179.5933311058</ele>
        <time>2021-07-10T09:07:13Z</time>
      </trkpt>
      <trkpt lat="44.1105" lon="6.73001">
        <ele>2180.5933372304</ele>
        <time>2021-07-10T09:07:14Z</time>
      </trkpt>
      <trkpt lat="44.1105" lon="6.73">
        <ele>2180.5933557342</ele>
        <time>2021-07-10T09:07:15Z</time>
      </trkpt>
      <trkpt lat="44.11051" lon="6.72998">
        <ele>2181.5933535277</ele>
        <time>2021-07-10T09:07:16Z</time>
      </trkpt>
      <trkpt lat="44.11051" lon="6.72997">
        <ele>2182.5933742884</ele>
        <time>2021-07-10T09:07:17Z</time>
      </trkpt>
      <trkpt lat="44.11052" lon="6.72996">
        <ele>2182.5933729312</ele>
        <time>2021-07-10T09:07:19Z</time>
      </trkpt>
      <trkpt lat="44.11053" lon="6.72994">
        <ele>2182.5933522272</ele>
        <time>2021-07-10T09:07:20Z</time>
      </trkpt>
      <trkpt lat="44.11054" lon="6.72993">
        <ele>2182.5933353476</ele>
        <time>2021-07-10T09:07:21Z</time>
      </trkpt>
      <trkpt lat="44.11055" lon="6.72992">
        <ele>2182.5933258125</ele>
        <time>2021-07-10T09:07:23Z</time>
      </trkpt>
      <trkpt lat="44.11056" lon="6.72991">
        <ele>2183.5933217431</ele>
        <time>2021-07-10T09:07:25Z</time>
      </trkpt>
      <trkpt lat="44.11056" lon="6.7299">
        <ele>2182.593323177</ele>
        <time>2021-07-10T09:07:28Z</time>
      </trkpt>
      <trkpt lat="44.11055" lon="6.72988">
        <ele>2182.5933949721</ele>
        <time>2021-07-10T09:07:29Z</time>
      </trkpt>
      <trkpt lat="44.11055" lon="6.72987">
        <ele>2182.593420743</ele>
        <time>2021-07-10T09:07:31Z</time>
      </trkpt>
      <trkpt lat="44.11055" lon="6.72987">
        <ele>2183.5934122255</ele>
        <time>2021-07-10T09:07:37Z</time>
      </trkpt>
      <trkpt lat="44.11056" lon="6.72984">
        <ele>2184.5934358583</ele>
        <time>2021-07-10T09:07:38Z</time>
      </trkpt>
      <trkpt lat="44.11055" lon="6.72984">
        <ele>2184.5934559365</ele>
        <time>2021-07-10T09:07:43Z</time>
      </trkpt>
      <trkpt lat="44.11056" lon="6.72982">
        <ele>2184.5934777647</ele>
        <time>2021-07-10T09:07:45Z</time>
      </trkpt>
      <trkpt lat="44.11056" lon="6.72981">
        <ele>2183.5934754045</ele>
        <time>2021-07-10T09:07:45Z</time>
      </trkpt>
      <trkpt lat="44.11057" lon="6.7298">
        <ele>2183.5934703159</ele>
        <time>2021-07-10T09:07:46Z</time>
      </trkpt>
      <trkpt lat="44.11057" lon="6.7298">
        <ele>2183.5934531163</ele>
        <time>2021-07-10T09:07:47Z</time>
      </trkpt>
      <trkpt lat="44.11058" lon="6.72979">
        <ele>2183.593440211</ele>
        <time>2021-07-10T09:07:49Z</time>
      </trkpt>
      <trkpt lat="44.11059" lon="6.72979">
        <ele>2183.5934146514</ele>
        <time>2021-07-10T09:07:50Z</time>
      </trkpt>
      <trkpt lat="44.11058" lon="6.72978">
        <ele>2184.5934338272</ele>
        <time>2021-07-10T09:07:52Z</time>
      </trkpt>
      <trkpt lat="44.11058" lon="6.72978">
        <ele>2183.5934534514</ele>
        <time>2021-07-10T09:07:55Z</time>
      </trkpt>
      <trkpt lat="44.11059" lon="6.72977">
        <ele>2184.5934337596</ele>
        <time>2021-07-10T09:07:56Z</time>
      </trkpt>
      <trkpt lat="44.1106" lon="6.72976">
        <ele>2184.5934150341</ele>
        <time>2021-07-10T09:07:58Z</time>
      </trkpt>
      <trkpt lat="44.1106" lon="6.72976">
        <ele>2184.5934074938</ele>
        <time>2021-07-10T09:08:01Z</time>
      </trkpt>
      <trkpt lat="44.11061" lon="6.72975">
        <ele>2183.5933946711</ele>
        <time>2021-07-10T09:08:02Z</time>
      </trkpt>
      <trkpt lat="44.11061" lon="6.72974">
        <ele>2183.5934121125</ele>
        <time>2021-07-10T09:08:04Z</time>
      </trkpt>
      <trkpt lat="44.11061" lon="6.72974">
        <ele>2184.5934288123</ele>
        <time>2021-07-10T09:08:05Z</time>
      </trkpt>
      <trkpt lat="44.11061" lon="6.72973">
        <ele>2185.593419689</ele>
        <time>2021-07-10T09:08:08Z</time>
      </trkpt>
      <trkpt lat="44.11062" lon="6.72973">
        <ele>2185.5934029495</ele>
        <time>2021-07-10T09:08:10Z</time>
      </trkpt>
      <trkpt lat="44.11063" lon="6.72972">
        <ele>2185.5933869306</ele>
        <time>2021-07-10T09:08:11Z</time>
      </trkpt>
      <trkpt lat="44.11063" lon="6.72972">
        <ele>2185.5933844043</ele>
        <time>2021-07-10T09:08:15Z</time>
      </trkpt>
      <trkpt lat="44.11064" lon="6.72971">
        <ele>2185.5933501438</ele>
        <time>2021-07-10T09:08:16Z</time>
      </trkpt>
      <trkpt lat="44.11065" lon="6.72971">
        <ele>2185.5933413672</ele>
        <time>2021-07-10T09:08:23Z</time>
      </trkpt>
      <trkpt lat="44.11066" lon="6.7297">
        <ele>2186.5933234403</ele>
        <time>2021-07-10T09:08:25Z</time>
      </trkpt>
      <trkpt lat="44.11067" lon="6.72969">
        <ele>2187.5932844834</ele>
        <time>2021-07-10T09:08:26Z</time>
      </trkpt>
      <trkpt lat="44.11067" lon="6.72969">
        <ele>2187.5932751526</ele>
        <time>2021-07-10T09:08:31Z</time>
      </trkpt>
      <trkpt lat="44.11068" lon="6.72968">
        <ele>2186.5932481031</ele>
        <time>2021-07-10T09:08:32Z</time>
      </trkpt>
      <trkpt lat="44.11069" lon="6.72967">
        <ele>2186.5932469004</ele>
        <time>2021-07-10T09:08:33Z</time>
      </trkpt>
      <trkpt lat="44.11069" lon="6.72966">
        <ele>2187.5932461132</ele>
        <time>2021-07-10T09:08:37Z</time>
      </trkpt>
      <trkpt lat="44.11068" lon="6.72964">
        <ele>2186.5933145478</ele>
        <time>2021-07-10T09:08:38Z</time>
      </trkpt>
      <trkpt lat="44.11068" lon="6.72964">
        <ele>2187.5933314946</ele>
        <time>2021-07-10T09:08:39Z</time>
      </trkpt>
      <trkpt lat="44.11068" lon="6.72963">
        <ele>2188.5933545781</ele>
        <time>2021-07-10T09:08:40Z</time>
      </trkpt>
      <trkpt lat="44.11067" lon="6.72963">
        <ele>2187.5933758871</ele>
        <time>2021-07-10T09:08:47Z</time>
      </trkpt>
      <trkpt lat="44.11066" lon="6.72961">
        <ele>2188.5934684859</ele>
        <time>2021-07-10T09:08:48Z</time>
      </trkpt>
      <trkpt lat="44.11067" lon="6.72961">
        <ele>2189.593430111</ele>
        <time>2021-07-10T09:08:49Z</time>
      </trkpt>
      <trkpt lat="44.11067" lon="6.72961">
        <ele>2190.5934172074</ele>
        <time>2021-07-10T09:08:50Z</time>
      </trkpt>
      <trkpt lat="44.11067" lon="6.7296">
        <ele>2190.5934424093</ele>
        <time>2021-07-10T09:08:54Z</time>
      </trkpt>
      <trkpt lat="44.11067" lon="6.72959">
        <ele>2190.5934616728</ele>
        <time>2021-07-10T09:08:55Z</time>
      </trkpt>
      <trkpt lat="44.11066" lon="6.72958">
        <ele>2190.5935036482</ele>
        <time>2021-07-10T09:08:56Z</time>
      </trkpt>
      <trkpt lat="44.11066" lon="6.72958">
        <ele>2190.5935036482</ele>
        <time>2021-07-10T09:08:57Z</time>
      </trkpt>
      <trkpt lat="44.11066" lon="6.72957">
        <ele>2190.5935416489</ele>
        <time>2021-07-10T09:08:58Z</time>
      </trkpt>
      <trkpt lat="44.11066" lon="6.72957">
        <ele>2191.5935313389</ele>
        <time>2021-07-10T09:08:59Z</time>
      </trkpt>
      <trkpt lat="44.11068" lon="6.72957">
        <ele>2193.5934761153</ele>
        <time>2021-07-10T09:09:01Z</time>
      </trkpt>
      <trkpt lat="44.11068" lon="6.72957">
        <ele>2193.5934468398</ele>
        <time>2021-07-10T09:09:03Z</time>
      </trkpt>
      <trkpt lat="44.11069" lon="6.72958">
        <ele>2194.5934301537</ele>
        <time>2021-07-10T09:09:05Z</time>
      </trkpt>
      <trkpt lat="44.11069" lon="6.72957">
        <ele>2195.5934060178</ele>
        <time>2021-07-10T09:09:06Z</time>
      </trkpt>
      <trkpt lat="44.1107" lon="6.72958">
        <ele>2196.5933786601</ele>
        <time>2021-07-10T09:09:09Z</time>
      </trkpt>
      <trkpt lat="44.11071" lon="6.72956">
        <ele>2196.5933708575</ele>
        <time>2021-07-10T09:09:10Z</time>
      </trkpt>
      <trkpt lat="44.11071" lon="6.72955">
        <ele>2196.5933702561</ele>
        <time>2021-07-10T09:09:18Z</time>
      </trkpt>
      <trkpt lat="44.11071" lon="6.72953">
        <ele>2194.5934192809</ele>
        <time>2021-07-10T09:09:19Z</time>
      </trkpt>
      <trkpt lat="44.11071" lon="6.72952">
        <ele>2194.593438555</ele>
        <time>2021-07-10T09:09:21Z</time>
      </trkpt>
      <trkpt lat="44.11071" lon="6.72952">
        <ele>2194.593422297</ele>
        <time>2021-07-10T09:09:24Z</time>
      </trkpt>
      <trkpt lat="44.11071" lon="6.7295">
        <ele>2193.5934827573</ele>
        <time>2021-07-10T09:09:25Z</time>
      </trkpt>
      <trkpt lat="44.1107" lon="6.7295">
        <ele>2195.5935205316</ele>
        <time>2021-07-10T09:09:30Z</time>
      </trkpt>
      <trkpt lat="44.1107" lon="6.72948">
        <ele>2195.5935374948</ele>
        <time>2021-07-10T09:09:31Z</time>
      </trkpt>
      <trkpt lat="44.1107" lon="6.72947">
        <ele>2195.5935556855</ele>
        <time>2021-07-10T09:09:33Z</time>
      </trkpt>
      <trkpt lat="44.1107" lon="6.72947">
        <ele>2195.5935623934</ele>
        <time>2021-07-10T09:09:36Z</time>
      </trkpt>
      <trkpt lat="44.11069" lon="6.72945">
        <ele>2195.5936408666</ele>
        <time>2021-07-10T09:09:37Z</time>
      </trkpt>
      <trkpt lat="44.11069" lon="6.72945">
        <ele>2194.5936627758</ele>
        <time>2021-07-10T09:09:39Z</time>
      </trkpt>
      <trkpt lat="44.11068" lon="6.72943">
        <ele>2195.5936983809</ele>
        <time>2021-07-10T09:09:40Z</time>
      </trkpt>
      <trkpt lat="44.11068" lon="6.72943">
        <ele>2195.5936983809</ele>
        <time>2021-07-10T09:09:42Z</time>
      </trkpt>
      <trkpt lat="44.11069" lon="6.72941">
        <ele>2196.5937079102</ele>
        <time>2021-07-10T09:09:43Z</time>
      </trkpt>
      <trkpt lat="44.11069" lon="6.72941">
        <ele>2196.5937165069</ele>
        <time>2021-07-10T09:09:44Z</time>
      </trkpt>
      <trkpt lat="44.11069" lon="6.7294">
        <ele>2197.5937152828</ele>
        <time>2021-07-10T09:09:45Z</time>
      </trkpt>
      <trkpt lat="44.1107" lon="6.72939">
        <ele>2197.5937040504</ele>
        <time>2021-07-10T09:09:46Z</time>
      </trkpt>
      <trkpt lat="44.11071" lon="6.72938">
        <ele>2197.5936911113</ele>
        <time>2021-07-10T09:09:47Z</time>
      </trkpt>
      <trkpt lat="44.11072" lon="6.72937">
        <ele>2198.5936760977</ele>
        <time>2021-07-10T09:09:48Z</time>
      </trkpt>
      <trkpt lat="44.11072" lon="6.72937">
        <ele>2198.5936760977</ele>
        <time>2021-07-10T09:09:56Z</time>
      </trkpt>
      <trkpt lat="44.11072" lon="6.72935">
        <ele>2198.5936845441</ele>
        <time>2021-07-10T09:09:57Z</time>
      </trkpt>
      <trkpt lat="44.11073" lon="6.72934">
        <ele>2198.5936947853</ele>
        <time>2021-07-10T09:09:59Z</time>
      </trkpt>
      <trkpt lat="44.11072" lon="6.72934">
        <ele>2199.5937215285</ele>
        <time>2021-07-10T09:10:00Z</time>
      </trkpt>
      <trkpt lat="44.11072" lon="6.72933">
        <ele>2199.5937558222</ele>
        <time>2021-07-10T09:10:01Z</time>
      </trkpt>
      <trkpt lat="44.11071" lon="6.72931">
        <ele>2199.5937950354</ele>
        <time>2021-07-10T09:10:02Z</time>
      </trkpt>
      <trkpt lat="44.11072" lon="6.72931">
        <ele>2200.5937840617</ele>
        <time>2021-07-10T09:10:03Z</time>
      </trkpt>
      <trkpt lat="44.11072" lon="6.7293">
        <ele>2200.5938001613</ele>
        <time>2021-07-10T09:10:07Z</time>
      </trkpt>
      <trkpt lat="44.11071" lon="6.7293">
        <ele>2200.5938331291</ele>
        <time>2021-07-10T09:10:10Z</time>
      </trkpt>
      <trkpt lat="44.11071" lon="6.72929">
        <ele>2201.593859709</ele>
        <time>2021-07-10T09:10:12Z</time>
      </trkpt>
      <trkpt lat="44.1107" lon="6.72928">
        <ele>2200.5938868667</ele>
        <time>2021-07-10T09:10:13Z</time>
      </trkpt>
      <trkpt lat="44.11071" lon="6.72927">
        <ele>2201.5938868419</ele>
        <time>2021-07-10T09:10:14Z</time>
      </trkpt>
      <trkpt lat="44.11071" lon="6.72927">
        <ele>2200.5938763648</ele>
        <time>2021-07-10T09:10:20Z</time>
      </trkpt>
      <trkpt lat="44.11071" lon="6.72925">
        <ele>2201.5939171075</ele>
        <time>2021-07-10T09:10:21Z</time>
      </trkpt>
      <trkpt lat="44.11071" lon="6.72924">
        <ele>2201.5939353404</ele>
        <time>2021-07-10T09:10:23Z</time>
      </trkpt>
      <trkpt lat="44.1107" lon="6.72923">
        <ele>2202.5939738084</ele>
        <time>2021-07-10T09:10:24Z</time>
      </trkpt>
      <trkpt lat="44.11071" lon="6.72923">
        <ele>2202.5939763235</ele>
        <time>2021-07-10T09:10:27Z</time>
      </trkpt>
      <trkpt lat="44.11071" lon="6.72921">
        <ele>2202.5939873881</ele>
        <time>2021-07-10T09:10:28Z</time>
      </trkpt>
      <trkpt lat="44.11071" lon="6.72921">
        <ele>2203.5939989197</ele>
        <time>2021-07-10T09:10:29Z</time>
      </trkpt>
      <trkpt lat="44.11071" lon="6.7292">
        <ele>2203.5940028708</ele>
        <time>2021-07-10T09:10:30Z</time>
      </trkpt>
      <trkpt lat="44.11072" lon="6.72919">
        <ele>2202.5940071559</ele>
        <time>2021-07-10T09:10:33Z</time>
      </trkpt>
      <trkpt lat="44.11072" lon="6.72917">
        <ele>2204.5940282495</ele>
        <time>2021-07-10T09:10:34Z</time>
      </trkpt>
      <trkpt lat="44.11072" lon="6.72916">
        <ele>2203.5940374435</ele>
        <time>2021-07-10T09:10:35Z</time>
      </trkpt>
      <trkpt lat="44.11072" lon="6.72915">
        <ele>2204.5940691412</ele>
        <time>2021-07-10T09:10:36Z</time>
      </trkpt>
      <trkpt lat="44.11072" lon="6.72914">
        <ele>2204.5940654842</ele>
        <time>2021-07-10T09:10:39Z</time>
      </trkpt>
      <trkpt lat="44.11072" lon="6.72912">
        <ele>2205.5940885397</ele>
        <time>2021-07-10T09:10:40Z</time>
      </trkpt>
      <trkpt lat="44.11072" lon="6.72911">
        <ele>2205.5941164471</ele>
        <time>2021-07-10T09:10:42Z</time>
      </trkpt>
      <trkpt lat="44.11072" lon="6.7291">
        <ele>2206.5941379883</ele>
        <time>2021-07-10T09:10:45Z</time>
      </trkpt>
      <trkpt lat="44.11072" lon="6.72908">
        <ele>2206.5941596728</ele>
        <time>2021-07-10T09:10:46Z</time>
      </trkpt>
      <trkpt lat="44.11072" lon="6.72908">
        <ele>2206.5941879319</ele>
        <time>2021-07-10T09:10:47Z</time>
      </trkpt>
      <trkpt lat="44.11071" lon="6.72907">
        <ele>2206.5942268244</ele>
        <time>2021-07-10T09:10:48Z</time>
      </trkpt>
      <trkpt lat="44.11071" lon="6.72906">
        <ele>2207.5942471454</ele>
        <time>2021-07-10T09:10:51Z</time>
      </trkpt>
      <trkpt lat="44.1107" lon="6.72904">
        <ele>2207.5943257982</ele>
        <time>2021-07-10T09:10:52Z</time>
      </trkpt>
      <trkpt lat="44.1107" lon="6.72904">
        <ele>2207.5943274106</ele>
        <time>2021-07-10T09:10:53Z</time>
      </trkpt>
      <trkpt lat="44.1107" lon="6.72903">
        <ele>2207.5943388475</ele>
        <time>2021-07-10T09:10:54Z</time>
      </trkpt>
      <trkpt lat="44.11071" lon="6.72902">
        <ele>2208.5943317585</ele>
        <time>2021-07-10T09:10:55Z</time>
      </trkpt>
      <trkpt lat="44.11071" lon="6.72901">
        <ele>2208.5943429818</ele>
        <time>2021-07-10T09:10:56Z</time>
      </trkpt>
      <trkpt lat="44.11071" lon="6.729">
        <ele>2208.5943437841</ele>
        <time>2021-07-10T09:10:57Z</time>
      </trkpt>
      <trkpt lat="44.11071" lon="6.72899">
        <ele>2208.5943591903</ele>
        <time>2021-07-10T09:10:58Z</time>
      </trkpt>
      <trkpt lat="44.11072" lon="6.72899">
        <ele>2208.5943524388</ele>
        <time>2021-07-10T09:10:59Z</time>
      </trkpt>
      <trkpt lat="44.11073" lon="6.72897">
        <ele>2208.5943313007</ele>
        <time>2021-07-10T09:11:00Z</time>
      </trkpt>
      <trkpt lat="44.11073" lon="6.72896">
        <ele>2208.5943411199</ele>
        <time>2021-07-10T09:11:01Z</time>
      </trkpt>
      <trkpt lat="44.11074" lon="6.72895">
        <ele>2208.5943463632</ele>
        <time>2021-07-10T09:11:02Z</time>
      </trkpt>
      <trkpt lat="44.11075" lon="6.72893">
        <ele>2208.5943491593</ele>
        <time>2021-07-10T09:11:03Z</time>
      </trkpt>
      <trkpt lat="44.11075" lon="6.72892">
        <ele>2208.5943558897</ele>
        <time>2021-07-10T09:11:04Z</time>
      </trkpt>
      <trkpt lat="44.11075" lon="6.72891">
        <ele>2208.594361279</ele>
        <time>2021-07-10T09:11:05Z</time>
      </trkpt>
      <trkpt lat="44.11076" lon="6.7289">
        <ele>2208.5943538117</ele>
        <time>2021-07-10T09:11:06Z</time>
      </trkpt>
      <trkpt lat="44.11076" lon="6.72889">
        <ele>2209.5943570652</ele>
        <time>2021-07-10T09:11:07Z</time>
      </trkpt>
      <trkpt lat="44.11077" lon="6.72888">
        <ele>2208.5943556065</ele>
        <time>2021-07-10T09:11:08Z</time>
      </trkpt>
      <trkpt lat="44.11077" lon="6.72887">
        <ele>2208.5943804144</ele>
        <time>2021-07-10T09:11:09Z</time>
      </trkpt>
      <trkpt lat="44.11077" lon="6.72886">
        <ele>2208.5943693293</ele>
        <time>2021-07-10T09:11:10Z</time>
      </trkpt>
      <trkpt lat="44.11078" lon="6.72886">
        <ele>2209.5943546883</ele>
        <time>2021-07-10T09:11:11Z</time>
      </trkpt>
      <trkpt lat="44.11078" lon="6.72885">
        <ele>2209.5943544263</ele>
        <time>2021-07-10T09:11:12Z</time>
      </trkpt>
      <trkpt lat="44.11079" lon="6.72884">
        <ele>2208.5943472402</ele>
        <time>2021-07-10T09:11:13Z</time>
      </trkpt>
      <trkpt lat="44.1108" lon="6.72883">
        <ele>2208.5943452493</ele>
        <time>2021-07-10T09:11:14Z</time>
      </trkpt>
      <trkpt lat="44.11081" lon="6.72883">
        <ele>2208.5943126069</ele>
        <time>2021-07-10T09:11:15Z</time>
      </trkpt>
      <trkpt lat="44.11081" lon="6.72882">
        <ele>2208.594294864</ele>
        <time>2021-07-10T09:11:16Z</time>
      </trkpt>
      <trkpt lat="44.11082" lon="6.72882">
        <ele>2207.5942910747</ele>
        <time>2021-07-10T09:11:17Z</time>
      </trkpt>
      <trkpt lat="44.11083" lon="6.72881">
        <ele>2208.5942680162</ele>
        <time>2021-07-10T09:11:18Z</time>
      </trkpt>
      <trkpt lat="44.11083" lon="6.7288">
        <ele>2207.5942789332</ele>
        <time>2021-07-10T09:11:19Z</time>
      </trkpt>
      <trkpt lat="44.11083" lon="6.72879">
        <ele>2207.5942891842</ele>
        <time>2021-07-10T09:11:20Z</time>
      </trkpt>
      <trkpt lat="44.11083" lon="6.72878">
        <ele>2207.594310367</ele>
        <time>2021-07-10T09:11:21Z</time>
      </trkpt>
      <trkpt lat="44.11084" lon="6.72877">
        <ele>2208.5943099244</ele>
        <time>2021-07-10T09:11:22Z</time>
      </trkpt>
      <trkpt lat="44.11083" lon="6.72876">
        <ele>2208.5943351338</ele>
        <time>2021-07-10T09:11:24Z</time>
      </trkpt>
      <trkpt lat="44.11083" lon="6.72874">
        <ele>2209.5943825399</ele>
        <time>2021-07-10T09:11:25Z</time>
      </trkpt>
      <trkpt lat="44.11083" lon="6.72873">
        <ele>2209.5943900854</ele>
        <time>2021-07-10T09:11:26Z</time>
      </trkpt>
      <trkpt lat="44.11084" lon="6.72872">
        <ele>2210.5943953645</ele>
        <time>2021-07-10T09:11:30Z</time>
      </trkpt>
      <trkpt lat="44.11083" lon="6.7287">
        <ele>2212.5944407022</ele>
        <time>2021-07-10T09:11:31Z</time>
      </trkpt>
      <trkpt lat="44.11083" lon="6.72869">
        <ele>2212.5944639271</ele>
        <time>2021-07-10T09:11:32Z</time>
      </trkpt>
      <trkpt lat="44.11084" lon="6.72869">
        <ele>2212.5944563619</ele>
        <time>2021-07-10T09:11:33Z</time>
      </trkpt>
      <trkpt lat="44.11083" lon="6.72868">
        <ele>2211.5944757294</ele>
        <time>2021-07-10T09:11:38Z</time>
      </trkpt>
      <trkpt lat="44.11083" lon="6.72866">
        <ele>2212.5945270861</ele>
        <time>2021-07-10T09:11:39Z</time>
      </trkpt>
      <trkpt lat="44.11083" lon="6.72866">
        <ele>2212.5945325887</ele>
        <time>2021-07-10T09:11:41Z</time>
      </trkpt>
      <trkpt lat="44.11083" lon="6.72865">
        <ele>2213.5945508907</ele>
        <time>2021-07-10T09:11:46Z</time>
      </trkpt>
      <trkpt lat="44.11084" lon="6.72862">
        <ele>2213.5945647495</ele>
        <time>2021-07-10T09:11:47Z</time>
      </trkpt>
      <trkpt lat="44.11084" lon="6.72861">
        <ele>2213.5945800878</ele>
        <time>2021-07-10T09:11:48Z</time>
      </trkpt>
      <trkpt lat="44.11084" lon="6.7286">
        <ele>2214.5945960204</ele>
        <time>2021-07-10T09:11:52Z</time>
      </trkpt>
      <trkpt lat="44.11085" lon="6.72859">
        <ele>2216.5945948049</ele>
        <time>2021-07-10T09:11:53Z</time>
      </trkpt>
      <trkpt lat="44.11085" lon="6.72858">
        <ele>2216.5946102981</ele>
        <time>2021-07-10T09:11:54Z</time>
      </trkpt>
      <trkpt lat="44.11085" lon="6.72857">
        <ele>2216.5946181975</ele>
        <time>2021-07-10T09:11:55Z</time>
      </trkpt>
      <trkpt lat="44.11085" lon="6.72856">
        <ele>2217.5946088603</ele>
        <time>2021-07-10T09:11:56Z</time>
      </trkpt>
      <trkpt lat="44.11086" lon="6.72856">
        <ele>2217.5945918243</ele>
        <time>2021-07-10T09:11:57Z</time>
      </trkpt>
      <trkpt lat="44.11087" lon="6.72855">
        <ele>2218.5945818167</ele>
        <time>2021-07-10T09:11:58Z</time>
      </trkpt>
      <trkpt lat="44.11087" lon="6.72855">
        <ele>2218.5945748178</ele>
        <time>2021-07-10T09:11:59Z</time>
      </trkpt>
      <trkpt lat="44.11087" lon="6.72854">
        <ele>2218.5945823036</ele>
        <time>2021-07-10T09:12:00Z</time>
      </trkpt>
      <trkpt lat="44.11088" lon="6.72853">
        <ele>2218.5945806287</ele>
        <time>2021-07-10T09:12:01Z</time>
      </trkpt>
      <trkpt lat="44.11088" lon="6.72852">
        <ele>2218.5945856594</ele>
        <time>2021-07-10T09:12:02Z</time>
      </trkpt>
      <trkpt lat="44.11088" lon="6.72851">
        <ele>2218.5946001913</ele>
        <time>2021-07-10T09:12:03Z</time>
      </trkpt>
      <trkpt lat="44.11088" lon="6.7285">
        <ele>2218.5946118749</ele>
        <time>2021-07-10T09:12:06Z</time>
      </trkpt>
      <trkpt lat="44.11089" lon="6.72849">
        <ele>2219.5946111038</ele>
        <time>2021-07-10T09:12:07Z</time>
      </trkpt>
      <trkpt lat="44.11089" lon="6.72848">
        <ele>2219.5946206218</ele>
        <time>2021-07-10T09:12:08Z</time>
      </trkpt>
      <trkpt lat="44.11089" lon="6.72847">
        <ele>2220.5946339658</ele>
        <time>2021-07-10T09:12:12Z</time>
      </trkpt>
      <trkpt lat="44.11089" lon="6.72845">
        <ele>2219.5946582265</ele>
        <time>2021-07-10T09:12:13Z</time>
      </trkpt>
      <trkpt lat="44.11089" lon="6.72845">
        <ele>2220.5946767749</ele>
        <time>2021-07-10T09:12:14Z</time>
      </trkpt>
      <trkpt lat="44.1109" lon="6.72844">
        <ele>2220.5946764715</ele>
        <time>2021-07-10T09:12:15Z</time>
      </trkpt>
      <trkpt lat="44.1109" lon="6.72843">
        <ele>2221.5946744855</ele>
        <time>2021-07-10T09:12:18Z</time>
      </trkpt>
      <trkpt lat="44.1109" lon="6.72841">
        <ele>2221.5947035053</ele>
        <time>2021-07-10T09:12:19Z</time>
      </trkpt>
      <trkpt lat="44.1109" lon="6.7284">
        <ele>2222.5947323444</ele>
        <time>2021-07-10T09:12:21Z</time>
      </trkpt>
      <trkpt lat="44.11089" lon="6.7284">
        <ele>2222.5947464659</ele>
        <time>2021-07-10T09:12:27Z</time>
      </trkpt>
      <trkpt lat="44.11088" lon="6.72839">
        <ele>2223.5948250122</ele>
        <time>2021-07-10T09:12:28Z</time>
      </trkpt>
      <trkpt lat="44.11087" lon="6.72838">
        <ele>2224.5948550057</ele>
        <time>2021-07-10T09:12:32Z</time>
      </trkpt>
      <trkpt lat="44.11087" lon="6.72837">
        <ele>2224.5948772364</ele>
        <time>2021-07-10T09:12:35Z</time>
      </trkpt>
      <trkpt lat="44.11088" lon="6.72835">
        <ele>2224.5948968154</ele>
        <time>2021-07-10T09:12:36Z</time>
      </trkpt>
      <trkpt lat="44.11088" lon="6.72834">
        <ele>2224.594912156</ele>
        <time>2021-07-10T09:12:41Z</time>
      </trkpt>
      <trkpt lat="44.11087" lon="6.72833">
        <ele>2226.5949544265</ele>
        <time>2021-07-10T09:12:42Z</time>
      </trkpt>
      <trkpt lat="44.11087" lon="6.72833">
        <ele>2226.5949786893</ele>
        <time>2021-07-10T09:12:43Z</time>
      </trkpt>
      <trkpt lat="44.11086" lon="6.72833">
        <ele>2227.5950125079</ele>
        <time>2021-07-10T09:12:44Z</time>
      </trkpt>
      <trkpt lat="44.11085" lon="6.72833">
        <ele>2227.5950323542</ele>
        <time>2021-07-10T09:12:47Z</time>
      </trkpt>
      <trkpt lat="44.11084" lon="6.72833">
        <ele>2230.5950603463</ele>
        <time>2021-07-10T09:12:53Z</time>
      </trkpt>
      <trkpt lat="44.11084" lon="6.72832">
        <ele>2230.5950865365</ele>
        <time>2021-07-10T09:12:54Z</time>
      </trkpt>
      <trkpt lat="44.11084" lon="6.72832">
        <ele>2230.5950930458</ele>
        <time>2021-07-10T09:13:02Z</time>
      </trkpt>
      <trkpt lat="44.11084" lon="6.7283">
        <ele>2232.5951130242</ele>
        <time>2021-07-10T09:13:03Z</time>
      </trkpt>
      <trkpt lat="44.11084" lon="6.72829">
        <ele>2232.5951373938</ele>
        <time>2021-07-10T09:13:04Z</time>
      </trkpt>
      <trkpt lat="44.11084" lon="6.72828">
        <ele>2233.5951408001</ele>
        <time>2021-07-10T09:13:05Z</time>
      </trkpt>
      <trkpt lat="44.11085" lon="6.72828">
        <ele>2233.5951380254</ele>
        <time>2021-07-10T09:13:09Z</time>
      </trkpt>
      <trkpt lat="44.11085" lon="6.72826">
        <ele>2232.5951722459</ele>
        <time>2021-07-10T09:13:10Z</time>
      </trkpt>
      <trkpt lat="44.11085" lon="6.72825">
        <ele>2233.5951744514</ele>
        <time>2021-07-10T09:13:12Z</time>
      </trkpt>
      <trkpt lat="44.11085" lon="6.72824">
        <ele>2232.5951834326</ele>
        <time>2021-07-10T09:13:15Z</time>
      </trkpt>
      <trkpt lat="44.11084" lon="6.72823">
        <ele>2233.5952461035</ele>
        <time>2021-07-10T09:13:16Z</time>
      </trkpt>
      <trkpt lat="44.11084" lon="6.72822">
        <ele>2233.5952668271</ele>
        <time>2021-07-10T09:13:17Z</time>
      </trkpt>
      <trkpt lat="44.11084" lon="6.72821">
        <ele>2233.595283843</ele>
        <time>2021-07-10T09:13:18Z</time>
      </trkpt>
      <trkpt lat="44.11085" lon="6.7282">
        <ele>2233.5952749596</ele>
        <time>2021-07-10T09:13:19Z</time>
      </trkpt>
      <trkpt lat="44.11085" lon="6.72819">
        <ele>2233.5952799748</ele>
        <time>2021-07-10T09:13:22Z</time>
      </trkpt>
      <trkpt lat="44.11084" lon="6.72818">
        <ele>2233.5953646837</ele>
        <time>2021-07-10T09:13:23Z</time>
      </trkpt>
      <trkpt lat="44.11083" lon="6.72817">
        <ele>2234.5953819473</ele>
        <time>2021-07-10T09:13:24Z</time>
      </trkpt>
      <trkpt lat="44.11083" lon="6.72816">
        <ele>2234.5953972789</ele>
        <time>2021-07-10T09:13:25Z</time>
      </trkpt>
      <trkpt lat="44.11084" lon="6.72816">
        <ele>2234.5953916935</ele>
        <time>2021-07-10T09:13:38Z</time>
      </trkpt>
      <trkpt lat="44.11083" lon="6.72817">
        <ele>2237.5953966746</ele>
        <time>2021-07-10T09:13:39Z</time>
      </trkpt>
      <trkpt lat="44.11083" lon="6.72818">
        <ele>2237.595391385</ele>
        <time>2021-07-10T09:13:40Z</time>
      </trkpt>
      <trkpt lat="44.11082" lon="6.72818">
        <ele>2237.5953933571</ele>
        <time>2021-07-10T09:13:41Z</time>
      </trkpt>
      <trkpt lat="44.11082" lon="6.72819">
        <ele>2237.5954001346</ele>
        <time>2021-07-10T09:13:42Z</time>
      </trkpt>
      <trkpt lat="44.11082" lon="6.72819">
        <ele>2237.595416637</ele>
        <time>2021-07-10T09:13:45Z</time>
      </trkpt>
      <trkpt lat="44.11081" lon="6.72818">
        <ele>2237.5954455143</ele>
        <time>2021-07-10T09:13:54Z</time>
      </trkpt>
      <trkpt lat="44.1108" lon="6.72816">
        <ele>2235.595524147</ele>
        <time>2021-07-10T09:13:55Z</time>
      </trkpt>
      <trkpt lat="44.11079" lon="6.72817">
        <ele>2236.5955493047</ele>
        <time>2021-07-10T09:13:59Z</time>
      </trkpt>
      <trkpt lat="44.11079" lon="6.72816">
        <ele>2236.5955744704</ele>
        <time>2021-07-10T09:14:02Z</time>
      </trkpt>
      <trkpt lat="44.11078" lon="6.72815">
        <ele>2236.5956029819</ele>
        <time>2021-07-10T09:14:05Z</time>
      </trkpt>
      <trkpt lat="44.11078" lon="6.72813">
        <ele>2236.59563322</ele>
        <time>2021-07-10T09:14:06Z</time>
      </trkpt>
      <trkpt lat="44.11079" lon="6.72812">
        <ele>2236.595617575</ele>
        <time>2021-07-10T09:14:07Z</time>
      </trkpt>
      <trkpt lat="44.1108" lon="6.72811">
        <ele>2237.5956141659</ele>
        <time>2021-07-10T09:14:08Z</time>
      </trkpt>
      <trkpt lat="44.11079" lon="6.7281">
        <ele>2237.5956469514</ele>
        <time>2021-07-10T09:14:09Z</time>
      </trkpt>
      <trkpt lat="44.11079" lon="6.72809">
        <ele>2237.5956746096</ele>
        <time>2021-07-10T09:14:10Z</time>
      </trkpt>
      <trkpt lat="44.11079" lon="6.72808">
        <ele>2236.595696805</ele>
        <time>2021-07-10T09:14:11Z</time>
      </trkpt>
      <trkpt lat="44.11079" lon="6.72806">
        <ele>2236.5957230865</ele>
        <time>2021-07-10T09:14:12Z</time>
      </trkpt>
      <trkpt lat="44.11079" lon="6.72805">
        <ele>2236.595744798</ele>
        <time>2021-07-10T09:14:13Z</time>
      </trkpt>
      <trkpt lat="44.1108" lon="6.72804">
        <ele>2236.5957415289</ele>
        <time>2021-07-10T09:14:14Z</time>
      </trkpt>
      <trkpt lat="44.1108" lon="6.72803">
        <ele>2236.5957610243</ele>
        <time>2021-07-10T09:14:15Z</time>
      </trkpt>
      <trkpt lat="44.1108" lon="6.72802">
        <ele>2236.5957761286</ele>
        <time>2021-07-10T09:14:16Z</time>
      </trkpt>
      <trkpt lat="44.1108" lon="6.72802">
        <ele>2236.5957886791</ele>
        <time>2021-07-10T09:14:19Z</time>
      </trkpt>
      <trkpt lat="44.11079" lon="6.728">
        <ele>2237.5958305887</ele>
        <time>2021-07-10T09:14:20Z</time>
      </trkpt>
      <trkpt lat="44.11079" lon="6.728">
        <ele>2237.5958394325</ele>
        <time>2021-07-10T09:14:21Z</time>
      </trkpt>
      <trkpt lat="44.11079" lon="6.72799">
        <ele>2238.5958415627</ele>
        <time>2021-07-10T09:14:22Z</time>
      </trkpt>
      <trkpt lat="44.11079" lon="6.72798">
        <ele>2238.5958666724</ele>
        <time>2021-07-10T09:14:23Z</time>
      </trkpt>
      <trkpt lat="44.11079" lon="6.72798">
        <ele>2238.595894679</ele>
        <time>2021-07-10T09:14:24Z</time>
      </trkpt>
      <trkpt lat="44.11077" lon="6.72797">
        <ele>2238.5959445707</ele>
        <time>2021-07-10T09:14:25Z</time>
      </trkpt>
      <trkpt lat="44.11077" lon="6.72797">
        <ele>2238.5959703087</ele>
        <time>2021-07-10T09:14:26Z</time>
      </trkpt>
      <trkpt lat="44.11076" lon="6.72798">
        <ele>2239.5959908426</ele>
        <time>2021-07-10T09:14:27Z</time>
      </trkpt>
      <trkpt lat="44.11075" lon="6.72799">
        <ele>2239.5960061595</ele>
        <time>2021-07-10T09:14:28Z</time>
      </trkpt>
      <trkpt lat="44.11075" lon="6.72799">
        <ele>2240.5960274702</ele>
        <time>2021-07-10T09:14:31Z</time>
      </trkpt>
      <trkpt lat="44.11074" lon="6.72798">
        <ele>2241.5960687297</ele>
        <time>2021-07-10T09:14:32Z</time>
      </trkpt>
      <trkpt lat="44.11074" lon="6.72797">
        <ele>2242.5960621051</ele>
        <time>2021-07-10T09:14:33Z</time>
      </trkpt>
      <trkpt lat="44.11075" lon="6.72796">
        <ele>2241.5960695372</ele>
        <time>2021-07-10T09:14:37Z</time>
      </trkpt>
      <trkpt lat="44.11075" lon="6.72794">
        <ele>2241.5960825657</ele>
        <time>2021-07-10T09:14:38Z</time>
      </trkpt>
      <trkpt lat="44.11076" lon="6.72793">
        <ele>2241.5960833832</ele>
        <time>2021-07-10T09:14:39Z</time>
      </trkpt>
      <trkpt lat="44.11076" lon="6.72793">
        <ele>2242.5960732508</ele>
        <time>2021-07-10T09:14:40Z</time>
      </trkpt>
      <trkpt lat="44.11077" lon="6.72793">
        <ele>2242.5960533262</ele>
        <time>2021-07-10T09:14:44Z</time>
      </trkpt>
      <trkpt lat="44.11075" lon="6.72793">
        <ele>2242.5961117292</ele>
        <time>2021-07-10T09:14:45Z</time>
      </trkpt>
      <trkpt lat="44.11075" lon="6.72793">
        <ele>2242.5961147605</ele>
        <time>2021-07-10T09:14:46Z</time>
      </trkpt>
      <trkpt lat="44.11075" lon="6.72792">
        <ele>2242.5961413423</ele>
        <time>2021-07-10T09:14:50Z</time>
      </trkpt>
      <trkpt lat="44.11075" lon="6.72791">
        <ele>2242.5961428898</ele>
        <time>2021-07-10T09:14:53Z</time>
      </trkpt>
      <trkpt lat="44.11076" lon="6.7279">
        <ele>2243.5961347792</ele>
        <time>2021-07-10T09:14:54Z</time>
      </trkpt>
      <trkpt lat="44.11076" lon="6.72789">
        <ele>2243.5961478462</ele>
        <time>2021-07-10T09:14:55Z</time>
      </trkpt>
      <trkpt lat="44.11076" lon="6.72788">
        <ele>2243.5961680012</ele>
        <time>2021-07-10T09:14:56Z</time>
      </trkpt>
      <trkpt lat="44.11076" lon="6.72788">
        <ele>2244.5961783142</ele>
        <time>2021-07-10T09:15:01Z</time>
      </trkpt>
      <trkpt lat="44.11075" lon="6.72788">
        <ele>2244.5961801959</ele>
        <time>2021-07-10T09:15:10Z</time>
      </trkpt>
      <trkpt lat="44.11074" lon="6.72789">
        <ele>2246.5962057197</ele>
        <time>2021-07-10T09:15:11Z</time>
      </trkpt>
      <trkpt lat="44.11074" lon="6.7279">
        <ele>2247.5962159022</ele>
        <time>2021-07-10T09:15:13Z</time>
      </trkpt>
      <trkpt lat="44.11073" lon="6.72789">
        <ele>2247.5962429631</ele>
        <time>2021-07-10T09:15:14Z</time>
      </trkpt>
      <trkpt lat="44.11073" lon="6.72789">
        <ele>2247.5962745322</ele>
        <time>2021-07-10T09:15:16Z</time>
      </trkpt>
      <trkpt lat="44.11072" lon="6.72788">
        <ele>2247.596302661</ele>
        <time>2021-07-10T09:15:19Z</time>
      </trkpt>
      <trkpt lat="44.11071" lon="6.72786">
        <ele>2246.5963714318</ele>
        <time>2021-07-10T09:15:20Z</time>
      </trkpt>
      <trkpt lat="44.11071" lon="6.72785">
        <ele>2247.5963969898</ele>
        <time>2021-07-10T09:15:21Z</time>
      </trkpt>
      <trkpt lat="44.11071" lon="6.72784">
        <ele>2247.5964138082</ele>
        <time>2021-07-10T09:15:25Z</time>
      </trkpt>
      <trkpt lat="44.11072" lon="6.72782">
        <ele>2248.596412336</ele>
        <time>2021-07-10T09:15:26Z</time>
      </trkpt>
      <trkpt lat="44.11072" lon="6.72781">
        <ele>2248.5964148652</ele>
        <time>2021-07-10T09:15:28Z</time>
      </trkpt>
      <trkpt lat="44.11073" lon="6.7278">
        <ele>2248.5964198101</ele>
        <time>2021-07-10T09:15:35Z</time>
      </trkpt>
      <trkpt lat="44.11072" lon="6.72777">
        <ele>2248.5964786777</ele>
        <time>2021-07-10T09:15:36Z</time>
      </trkpt>
      <trkpt lat="44.11072" lon="6.72777">
        <ele>2248.5965035774</ele>
        <time>2021-07-10T09:15:37Z</time>
      </trkpt>
      <trkpt lat="44.11072" lon="6.72776">
        <ele>2249.5965182352</ele>
        <time>2021-07-10T09:15:41Z</time>
      </trkpt>
      <trkpt lat="44.11072" lon="6.72774">
        <ele>2249.5965473093</ele>
        <time>2021-07-10T09:15:42Z</time>
      </trkpt>
      <trkpt lat="44.11072" lon="6.72773">
        <ele>2249.5965686233</ele>
        <time>2021-07-10T09:15:43Z</time>
      </trkpt>
      <trkpt lat="44.11072" lon="6.72772">
        <ele>2249.5965873495</ele>
        <time>2021-07-10T09:15:44Z</time>
      </trkpt>
      <trkpt lat="44.11072" lon="6.72772">
        <ele>2250.5966008943</ele>
        <time>2021-07-10T09:15:46Z</time>
      </trkpt>
      <trkpt lat="44.11072" lon="6.72771">
        <ele>2250.5966270672</ele>
        <time>2021-07-10T09:15:46Z</time>
      </trkpt>
      <trkpt lat="44.11072" lon="6.7277">
        <ele>2250.5966441592</ele>
        <time>2021-07-10T09:15:48Z</time>
      </trkpt>
      <trkpt lat="44.11072" lon="6.72769">
        <ele>2251.5966334847</ele>
        <time>2021-07-10T09:15:49Z</time>
      </trkpt>
      <trkpt lat="44.11072" lon="6.72769">
        <ele>2251.5966334847</ele>
        <time>2021-07-10T09:15:51Z</time>
      </trkpt>
      <trkpt lat="44.11073" lon="6.72768">
        <ele>2251.5966205772</ele>
        <time>2021-07-10T09:15:52Z</time>
      </trkpt>
      <trkpt lat="44.11074" lon="6.72767">
        <ele>2252.5965975064</ele>
        <time>2021-07-10T09:15:54Z</time>
      </trkpt>
      <trkpt lat="44.11075" lon="6.72767">
        <ele>2252.5965964438</ele>
        <time>2021-07-10T09:15:54Z</time>
      </trkpt>
      <trkpt lat="44.11075" lon="6.72766">
        <ele>2252.5966090556</ele>
        <time>2021-07-10T09:15:56Z</time>
      </trkpt>
      <trkpt lat="44.11075" lon="6.72765">
        <ele>2252.596594937</ele>
        <time>2021-07-10T09:15:56Z</time>
      </trkpt>
      <trkpt lat="44.11076" lon="6.72764">
        <ele>2252.5966043941</ele>
        <time>2021-07-10T09:15:59Z</time>
      </trkpt>
      <trkpt lat="44.11076" lon="6.72762">
        <ele>2252.5966034583</ele>
        <time>2021-07-10T09:16:01Z</time>
      </trkpt>
      <trkpt lat="44.11078" lon="6.72761">
        <ele>2253.5965730331</ele>
        <time>2021-07-10T09:16:02Z</time>
      </trkpt>
      <trkpt lat="44.11078" lon="6.7276">
        <ele>2253.5965913509</ele>
        <time>2021-07-10T09:16:03Z</time>
      </trkpt>
      <trkpt lat="44.11078" lon="6.7276">
        <ele>2253.5966031427</ele>
        <time>2021-07-10T09:16:05Z</time>
      </trkpt>
      <trkpt lat="44.11078" lon="6.72758">
        <ele>2253.5966400317</ele>
        <time>2021-07-10T09:16:06Z</time>
      </trkpt>
      <trkpt lat="44.11078" lon="6.72759">
        <ele>2255.5966288735</ele>
        <time>2021-07-10T09:16:11Z</time>
      </trkpt>
      <trkpt lat="44.11078" lon="6.72757">
        <ele>2253.5966292956</ele>
        <time>2021-07-10T09:16:12Z</time>
      </trkpt>
      <trkpt lat="44.11078" lon="6.72757">
        <ele>2254.5966338848</ele>
        <time>2021-07-10T09:16:15Z</time>
      </trkpt>
      <trkpt lat="44.11079" lon="6.72756">
        <ele>2254.5966371412</ele>
        <time>2021-07-10T09:16:19Z</time>
      </trkpt>
      <trkpt lat="44.11079" lon="6.72754">
        <ele>2254.5966739081</ele>
        <time>2021-07-10T09:16:20Z</time>
      </trkpt>
      <trkpt lat="44.11079" lon="6.72753">
        <ele>2254.5966892314</ele>
        <time>2021-07-10T09:16:21Z</time>
      </trkpt>
      <trkpt lat="44.11079" lon="6.72752">
        <ele>2254.5966889894</ele>
        <time>2021-07-10T09:16:22Z</time>
      </trkpt>
      <trkpt lat="44.11079" lon="6.72751">
        <ele>2255.5967045135</ele>
        <time>2021-07-10T09:16:25Z</time>
      </trkpt>
      <trkpt lat="44.11079" lon="6.7275">
        <ele>2255.5967277978</ele>
        <time>2021-07-10T09:16:27Z</time>
      </trkpt>
      <trkpt lat="44.11078" lon="6.7275">
        <ele>2256.5967544042</ele>
        <time>2021-07-10T09:16:31Z</time>
      </trkpt>
      <trkpt lat="44.11078" lon="6.72748">
        <ele>2256.5968014998</ele>
        <time>2021-07-10T09:16:32Z</time>
      </trkpt>
      <trkpt lat="44.11078" lon="6.72748">
        <ele>2257.5967865292</ele>
        <time>2021-07-10T09:16:36Z</time>
      </trkpt>
      <trkpt lat="44.11079" lon="6.72748">
        <ele>2257.5967687362</ele>
        <time>2021-07-10T09:16:37Z</time>
      </trkpt>
      <trkpt lat="44.11079" lon="6.72747">
        <ele>2257.5967760704</ele>
        <time>2021-07-10T09:16:40Z</time>
      </trkpt>
      <trkpt lat="44.1108" lon="6.72746">
        <ele>2258.5967451602</ele>
        <time>2021-07-10T09:16:41Z</time>
      </trkpt>
      <trkpt lat="44.1108" lon="6.72746">
        <ele>2258.5967635954</ele>
        <time>2021-07-10T09:16:42Z</time>
      </trkpt>
      <trkpt lat="44.11079" lon="6.72746">
        <ele>2258.59679805</ele>
        <time>2021-07-10T09:16:43Z</time>
      </trkpt>
      <trkpt lat="44.11078" lon="6.72746">
        <ele>2259.5968156178</ele>
        <time>2021-07-10T09:16:44Z</time>
      </trkpt>
      <trkpt lat="44.11078" lon="6.72746">
        <ele>2259.5968373716</ele>
        <time>2021-07-10T09:16:47Z</time>
      </trkpt>
      <trkpt lat="44.11078" lon="6.72744">
        <ele>2260.5968731108</ele>
        <time>2021-07-10T09:16:49Z</time>
      </trkpt>
      <trkpt lat="44.11079" lon="6.72743">
        <ele>2261.5968578772</ele>
        <time>2021-07-10T09:16:51Z</time>
      </trkpt>
      <trkpt lat="44.11079" lon="6.72742">
        <ele>2261.5968578533</ele>
        <time>2021-07-10T09:16:56Z</time>
      </trkpt>
      <trkpt lat="44.1108" lon="6.72742">
        <ele>2262.596822857</ele>
        <time>2021-07-10T09:16:57Z</time>
      </trkpt>
      <trkpt lat="44.11081" lon="6.72741">
        <ele>2262.5968213099</ele>
        <time>2021-07-10T09:16:58Z</time>
      </trkpt>
      <trkpt lat="44.11081" lon="6.7274">
        <ele>2262.5968233703</ele>
        <time>2021-07-10T09:17:00Z</time>
      </trkpt>
      <trkpt lat="44.11081" lon="6.72739">
        <ele>2262.5968485742</ele>
        <time>2021-07-10T09:17:01Z</time>
      </trkpt>
      <trkpt lat="44.11081" lon="6.72738">
        <ele>2262.5968501006</ele>
        <time>2021-07-10T09:17:04Z</time>
      </trkpt>
      <trkpt lat="44.11082" lon="6.72737">
        <ele>2263.5968457043</ele>
        <time>2021-07-10T09:17:05Z</time>
      </trkpt>
      <trkpt lat="44.11082" lon="6.72736">
        <ele>2263.5968588821</ele>
        <time>2021-07-10T09:17:10Z</time>
      </trkpt>
      <trkpt lat="44.11082" lon="6.72735">
        <ele>2263.5968757488</ele>
        <time>2021-07-10T09:17:11Z</time>
      </trkpt>
      <trkpt lat="44.11082" lon="6.72734">
        <ele>2263.5969063889</ele>
        <time>2021-07-10T09:17:12Z</time>
      </trkpt>
      <trkpt lat="44.11082" lon="6.72733">
        <ele>2263.5969364299</ele>
        <time>2021-07-10T09:17:13Z</time>
      </trkpt>
      <trkpt lat="44.11081" lon="6.72732">
        <ele>2263.5969528309</ele>
        <time>2021-07-10T09:17:15Z</time>
      </trkpt>
      <trkpt lat="44.11082" lon="6.72731">
        <ele>2263.5969597166</ele>
        <time>2021-07-10T09:17:16Z</time>
      </trkpt>
      <trkpt lat="44.11083" lon="6.72731">
        <ele>2264.5969272539</ele>
        <time>2021-07-10T09:17:19Z</time>
      </trkpt>
      <trkpt lat="44.11083" lon="6.72732">
        <ele>2266.5968979874</ele>
        <time>2021-07-10T09:17:20Z</time>
      </trkpt>
      <trkpt lat="44.11083" lon="6.72731">
        <ele>2266.5969037172</ele>
        <time>2021-07-10T09:17:21Z</time>
      </trkpt>
      <trkpt lat="44.11084" lon="6.7273">
        <ele>2266.596915702</ele>
        <time>2021-07-10T09:17:30Z</time>
      </trkpt>
      <trkpt lat="44.11085" lon="6.72728">
        <ele>2268.5968952688</ele>
        <time>2021-07-10T09:17:31Z</time>
      </trkpt>
      <trkpt lat="44.11086" lon="6.72728">
        <ele>2269.5968707683</ele>
        <time>2021-07-10T09:17:33Z</time>
      </trkpt>
      <trkpt lat="44.11086" lon="6.72728">
        <ele>2270.5968499559</ele>
        <time>2021-07-10T09:17:35Z</time>
      </trkpt>
      <trkpt lat="44.11085" lon="6.72727">
        <ele>2269.5969024476</ele>
        <time>2021-07-10T09:17:36Z</time>
      </trkpt>
      <trkpt lat="44.11084" lon="6.72726">
        <ele>2269.5969563555</ele>
        <time>2021-07-10T09:17:37Z</time>
      </trkpt>
      <trkpt lat="44.11084" lon="6.72726">
        <ele>2269.5969721095</ele>
        <time>2021-07-10T09:17:40Z</time>
      </trkpt>
      <trkpt lat="44.11083" lon="6.72723">
        <ele>2271.5970729391</ele>
        <time>2021-07-10T09:17:41Z</time>
      </trkpt>
      <trkpt lat="44.11082" lon="6.72722">
        <ele>2271.5971196449</ele>
        <time>2021-07-10T09:17:42Z</time>
      </trkpt>
      <trkpt lat="44.11082" lon="6.72721">
        <ele>2270.5971485564</ele>
        <time>2021-07-10T09:17:43Z</time>
      </trkpt>
      <trkpt lat="44.11082" lon="6.72721">
        <ele>2271.5971421069</ele>
        <time>2021-07-10T09:17:46Z</time>
      </trkpt>
      <trkpt lat="44.11082" lon="6.72722">
        <ele>2271.5971235699</ele>
        <time>2021-07-10T09:17:47Z</time>
      </trkpt>
      <trkpt lat="44.11081" lon="6.72723">
        <ele>2272.5971298571</ele>
        <time>2021-07-10T09:17:51Z</time>
      </trkpt>
      <trkpt lat="44.11081" lon="6.72723">
        <ele>2272.597143066</ele>
        <time>2021-07-10T09:17:52Z</time>
      </trkpt>
      <trkpt lat="44.1108" lon="6.72723">
        <ele>2273.5971692923</ele>
        <time>2021-07-10T09:17:53Z</time>
      </trkpt>
      <trkpt lat="44.1108" lon="6.72723">
        <ele>2273.5971836981</ele>
        <time>2021-07-10T09:17:54Z</time>
      </trkpt>
      <trkpt lat="44.11079" lon="6.72723">
        <ele>2275.597209034</ele>
        <time>2021-07-10T09:17:57Z</time>
      </trkpt>
      <trkpt lat="44.11078" lon="6.72721">
        <ele>2274.5972543623</ele>
        <time>2021-07-10T09:17:58Z</time>
      </trkpt>
      <trkpt lat="44.11078" lon="6.72721">
        <ele>2274.597278995</ele>
        <time>2021-07-10T09:17:59Z</time>
      </trkpt>
      <trkpt lat="44.11078" lon="6.72721">
        <ele>2274.5972961019</ele>
        <time>2021-07-10T09:18:00Z</time>
      </trkpt>
      <trkpt lat="44.11077" lon="6.7272">
        <ele>2274.5973231459</ele>
        <time>2021-07-10T09:18:01Z</time>
      </trkpt>
      <trkpt lat="44.11077" lon="6.72719">
        <ele>2274.5973532657</ele>
        <time>2021-07-10T09:18:02Z</time>
      </trkpt>
      <trkpt lat="44.11076" lon="6.72719">
        <ele>2274.5973733489</ele>
        <time>2021-07-10T09:18:08Z</time>
      </trkpt>
      <trkpt lat="44.11076" lon="6.72717">
        <ele>2275.597419111</ele>
        <time>2021-07-10T09:18:09Z</time>
      </trkpt>
      <trkpt lat="44.11076" lon="6.72717">
        <ele>2276.597422588</ele>
        <time>2021-07-10T09:18:18Z</time>
      </trkpt>
      <trkpt lat="44.11076" lon="6.7272">
        <ele>2278.5973769629</ele>
        <time>2021-07-10T09:18:19Z</time>
      </trkpt>
      <trkpt lat="44.11076" lon="6.72719">
        <ele>2278.5973836091</ele>
        <time>2021-07-10T09:18:28Z</time>
      </trkpt>
      <trkpt lat="44.11075" lon="6.72718">
        <ele>2278.5974307551</ele>
        <time>2021-07-10T09:18:29Z</time>
      </trkpt>
      <trkpt lat="44.11075" lon="6.72716">
        <ele>2278.5974591736</ele>
        <time>2021-07-10T09:18:30Z</time>
      </trkpt>
      <trkpt lat="44.11075" lon="6.72716">
        <ele>2278.5974786568</ele>
        <time>2021-07-10T09:18:33Z</time>
      </trkpt>
      <trkpt lat="44.11075" lon="6.72713">
        <ele>2277.597514652</ele>
        <time>2021-07-10T09:18:34Z</time>
      </trkpt>
      <trkpt lat="44.11075" lon="6.72712">
        <ele>2277.5975412014</ele>
        <time>2021-07-10T09:18:35Z</time>
      </trkpt>
      <trkpt lat="44.11075" lon="6.72711">
        <ele>2277.5975643607</ele>
        <time>2021-07-10T09:18:36Z</time>
      </trkpt>
      <trkpt lat="44.11075" lon="6.7271">
        <ele>2278.5975821727</ele>
        <time>2021-07-10T09:18:40Z</time>
      </trkpt>
      <trkpt lat="44.11075" lon="6.7271">
        <ele>2277.5975913359</ele>
        <time>2021-07-10T09:18:48Z</time>
      </trkpt>
      <trkpt lat="44.11074" lon="6.72709">
        <ele>2279.5976241211</ele>
        <time>2021-07-10T09:18:49Z</time>
      </trkpt>
      <trkpt lat="44.11074" lon="6.72709">
        <ele>2278.5976446576</ele>
        <time>2021-07-10T09:18:50Z</time>
      </trkpt>
      <trkpt lat="44.11073" lon="6.72709">
        <ele>2279.597670839</ele>
        <time>2021-07-10T09:18:51Z</time>
      </trkpt>
      <trkpt lat="44.11073" lon="6.72708">
        <ele>2279.5976891583</ele>
        <time>2021-07-10T09:18:53Z</time>
      </trkpt>
      <trkpt lat="44.11072" lon="6.72709">
        <ele>2279.5977146935</ele>
        <time>2021-07-10T09:18:54Z</time>
      </trkpt>
      <trkpt lat="44.11071" lon="6.72708">
        <ele>2279.5977451605</ele>
        <time>2021-07-10T09:18:55Z</time>
      </trkpt>
      <trkpt lat="44.11071" lon="6.72708">
        <ele>2280.5977687583</ele>
        <time>2021-07-10T09:18:57Z</time>
      </trkpt>
      <trkpt lat="44.1107" lon="6.72708">
        <ele>2281.5977799918</ele>
        <time>2021-07-10T09:18:59Z</time>
      </trkpt>
      <trkpt lat="44.1107" lon="6.72709">
        <ele>2282.5977739277</ele>
        <time>2021-07-10T09:19:00Z</time>
      </trkpt>
      <trkpt lat="44.1107" lon="6.7271">
        <ele>2282.5977561424</ele>
        <time>2021-07-10T09:19:01Z</time>
      </trkpt>
      <trkpt lat="44.1107" lon="6.72711">
        <ele>2282.5977540879</ele>
        <time>2021-07-10T09:19:02Z</time>
      </trkpt>
      <trkpt lat="44.1107" lon="6.72711">
        <ele>2282.5977428577</ele>
        <time>2021-07-10T09:19:05Z</time>
      </trkpt>
      <trkpt lat="44.1107" lon="6.72712">
        <ele>2283.5977270913</ele>
        <time>2021-07-10T09:19:06Z</time>
      </trkpt>
      <trkpt lat="44.1107" lon="6.72713">
        <ele>2283.5977186382</ele>
        <time>2021-07-10T09:19:07Z</time>
      </trkpt>
      <trkpt lat="44.1107" lon="6.72714">
        <ele>2284.5977061426</ele>
        <time>2021-07-10T09:19:08Z</time>
      </trkpt>
      <trkpt lat="44.1107" lon="6.72714">
        <ele>2285.5977008753</ele>
        <time>2021-07-10T09:19:13Z</time>
      </trkpt>
      <trkpt lat="44.11069" lon="6.72715">
        <ele>2286.5977084761</ele>
        <time>2021-07-10T09:19:15Z</time>
      </trkpt>
      <trkpt lat="44.11069" lon="6.72715">
        <ele>2286.5977239763</ele>
        <time>2021-07-10T09:19:16Z</time>
      </trkpt>
      <trkpt lat="44.11068" lon="6.72715">
        <ele>2286.5977449254</ele>
        <time>2021-07-10T09:19:17Z</time>
      </trkpt>
      <trkpt lat="44.11068" lon="6.72715">
        <ele>2286.5977637745</ele>
        <time>2021-07-10T09:19:18Z</time>
      </trkpt>
      <trkpt lat="44.11067" lon="6.72714">
        <ele>2285.5978142704</ele>
        <time>2021-07-10T09:19:19Z</time>
      </trkpt>
      <trkpt lat="44.11067" lon="6.72714">
        <ele>2285.5978142704</ele>
        <time>2021-07-10T09:19:21Z</time>
      </trkpt>
      <trkpt lat="44.11065" lon="6.7271">
        <ele>2284.597935874</ele>
        <time>2021-07-10T09:19:22Z</time>
      </trkpt>
      <trkpt lat="44.11065" lon="6.7271">
        <ele>2283.5979628724</ele>
        <time>2021-07-10T09:19:24Z</time>
      </trkpt>
      <trkpt lat="44.11065" lon="6.72709">
        <ele>2284.5979669378</ele>
        <time>2021-07-10T09:19:26Z</time>
      </trkpt>
      <trkpt lat="44.11065" lon="6.72708">
        <ele>2284.5979689396</ele>
        <time>2021-07-10T09:19:27Z</time>
      </trkpt>
      <trkpt lat="44.11065" lon="6.72708">
        <ele>2285.5979715875</ele>
        <time>2021-07-10T09:19:28Z</time>
      </trkpt>
      <trkpt lat="44.11064" lon="6.72708">
        <ele>2286.5980103305</ele>
        <time>2021-07-10T09:19:29Z</time>
      </trkpt>
      <trkpt lat="44.11064" lon="6.72707">
        <ele>2286.5980348428</ele>
        <time>2021-07-10T09:19:31Z</time>
      </trkpt>
      <trkpt lat="44.11063" lon="6.72706">
        <ele>2286.5980633209</ele>
        <time>2021-07-10T09:19:37Z</time>
      </trkpt>
      <trkpt lat="44.11062" lon="6.72707">
        <ele>2285.5981032087</ele>
        <time>2021-07-10T09:19:39Z</time>
      </trkpt>
      <trkpt lat="44.11062" lon="6.72707">
        <ele>2285.5981214334</ele>
        <time>2021-07-10T09:19:44Z</time>
      </trkpt>
      <trkpt lat="44.11061" lon="6.72706">
        <ele>2285.598151833</ele>
        <time>2021-07-10T09:19:44Z</time>
      </trkpt>
      <trkpt lat="44.11061" lon="6.72705">
        <ele>2287.5981873071</ele>
        <time>2021-07-10T09:19:50Z</time>
      </trkpt>
      <trkpt lat="44.1106" lon="6.72705">
        <ele>2287.5982136025</ele>
        <time>2021-07-10T09:19:51Z</time>
      </trkpt>
      <trkpt lat="44.1106" lon="6.72705">
        <ele>2288.5982390151</ele>
        <time>2021-07-10T09:19:53Z</time>
      </trkpt>
      <trkpt lat="44.11059" lon="6.72704">
        <ele>2288.5982686978</ele>
        <time>2021-07-10T09:19:56Z</time>
      </trkpt>
      <trkpt lat="44.11058" lon="6.72703">
        <ele>2288.5983131865</ele>
        <time>2021-07-10T09:19:57Z</time>
      </trkpt>
      <trkpt lat="44.11058" lon="6.72702">
        <ele>2288.5983393013</ele>
        <time>2021-07-10T09:19:58Z</time>
      </trkpt>
      <trkpt lat="44.11058" lon="6.72701">
        <ele>2288.598364669</ele>
        <time>2021-07-10T09:20:00Z</time>
      </trkpt>
      <trkpt lat="44.11058" lon="6.727">
        <ele>2289.5983830388</ele>
        <time>2021-07-10T09:20:02Z</time>
      </trkpt>
      <trkpt lat="44.11058" lon="6.727">
        <ele>2289.5983750446</ele>
        <time>2021-07-10T09:20:04Z</time>
      </trkpt>
      <trkpt lat="44.11058" lon="6.72699">
        <ele>2289.5983935665</ele>
        <time>2021-07-10T09:20:06Z</time>
      </trkpt>
      <trkpt lat="44.11057" lon="6.72696">
        <ele>2289.5984764672</ele>
        <time>2021-07-10T09:20:07Z</time>
      </trkpt>
      <trkpt lat="44.11057" lon="6.72695">
        <ele>2290.5985049106</ele>
        <time>2021-07-10T09:20:08Z</time>
      </trkpt>
      <trkpt lat="44.11057" lon="6.72694">
        <ele>2290.598533798</ele>
        <time>2021-07-10T09:20:10Z</time>
      </trkpt>
      <trkpt lat="44.11057" lon="6.72692">
        <ele>2289.5985579804</ele>
        <time>2021-07-10T09:20:11Z</time>
      </trkpt>
      <trkpt lat="44.11057" lon="6.72691">
        <ele>2288.5985779191</ele>
        <time>2021-07-10T09:20:14Z</time>
      </trkpt>
      <trkpt lat="44.11056" lon="6.7269">
        <ele>2289.598618143</ele>
        <time>2021-07-10T09:20:16Z</time>
      </trkpt>
      <trkpt lat="44.11056" lon="6.72689">
        <ele>2289.5986282271</ele>
        <time>2021-07-10T09:20:16Z</time>
      </trkpt>
      <trkpt lat="44.11056" lon="6.72688">
        <ele>2289.5986560266</ele>
        <time>2021-07-10T09:20:17Z</time>
      </trkpt>
      <trkpt lat="44.11056" lon="6.72687">
        <ele>2289.5986859148</ele>
        <time>2021-07-10T09:20:18Z</time>
      </trkpt>
      <trkpt lat="44.11056" lon="6.72687">
        <ele>2289.5987026503</ele>
        <time>2021-07-10T09:20:21Z</time>
      </trkpt>
      <trkpt lat="44.11055" lon="6.72685">
        <ele>2291.5987471855</ele>
        <time>2021-07-10T09:20:22Z</time>
      </trkpt>
      <trkpt lat="44.11055" lon="6.72684">
        <ele>2290.5987842384</ele>
        <time>2021-07-10T09:20:23Z</time>
      </trkpt>
      <trkpt lat="44.11054" lon="6.72683">
        <ele>2290.5988158065</ele>
        <time>2021-07-10T09:20:25Z</time>
      </trkpt>
      <trkpt lat="44.11054" lon="6.72682">
        <ele>2290.5988344605</ele>
        <time>2021-07-10T09:20:27Z</time>
      </trkpt>
      <trkpt lat="44.11053" lon="6.7268">
        <ele>2291.5988929634</ele>
        <time>2021-07-10T09:20:29Z</time>
      </trkpt>
      <trkpt lat="44.11053" lon="6.72679">
        <ele>2291.598921374</ele>
        <time>2021-07-10T09:20:31Z</time>
      </trkpt>
      <trkpt lat="44.11053" lon="6.72678">
        <ele>2291.5989570263</ele>
        <time>2021-07-10T09:20:32Z</time>
      </trkpt>
      <trkpt lat="44.11052" lon="6.72678">
        <ele>2292.5989791256</ele>
        <time>2021-07-10T09:20:33Z</time>
      </trkpt>
      <trkpt lat="44.11051" lon="6.72678">
        <ele>2292.5990059244</ele>
        <time>2021-07-10T09:20:35Z</time>
      </trkpt>
      <trkpt lat="44.11051" lon="6.72678">
        <ele>2293.5990261548</ele>
        <time>2021-07-10T09:20:36Z</time>
      </trkpt>
      <trkpt lat="44.1105" lon="6.72677">
        <ele>2293.5990592147</ele>
        <time>2021-07-10T09:20:37Z</time>
      </trkpt>
      <trkpt lat="44.1105" lon="6.72676">
        <ele>2294.5990928506</ele>
        <time>2021-07-10T09:20:39Z</time>
      </trkpt>
      <trkpt lat="44.1105" lon="6.72675">
        <ele>2294.5991273538</ele>
        <time>2021-07-10T09:20:41Z</time>
      </trkpt>
      <trkpt lat="44.1105" lon="6.72675">
        <ele>2294.5991273538</ele>
        <time>2021-07-10T09:20:42Z</time>
      </trkpt>
      <trkpt lat="44.11049" lon="6.72673">
        <ele>2295.5991612771</ele>
        <time>2021-07-10T09:20:43Z</time>
      </trkpt>
      <trkpt lat="44.11049" lon="6.72672">
        <ele>2296.5991790552</ele>
        <time>2021-07-10T09:20:45Z</time>
      </trkpt>
      <trkpt lat="44.11049" lon="6.72671">
        <ele>2296.5992126903</ele>
        <time>2021-07-10T09:20:46Z</time>
      </trkpt>
      <trkpt lat="44.11049" lon="6.72671">
        <ele>2296.5992126903</ele>
        <time>2021-07-10T09:20:48Z</time>
      </trkpt>
      <trkpt lat="44.11048" lon="6.72669">
        <ele>2297.5992785565</ele>
        <time>2021-07-10T09:20:49Z</time>
      </trkpt>
      <trkpt lat="44.11048" lon="6.72668">
        <ele>2296.5993069145</ele>
        <time>2021-07-10T09:20:50Z</time>
      </trkpt>
      <trkpt lat="44.11047" lon="6.72668">
        <ele>2297.5993276294</ele>
        <time>2021-07-10T09:20:51Z</time>
      </trkpt>
      <trkpt lat="44.11048" lon="6.72667">
        <ele>2297.5993356821</ele>
        <time>2021-07-10T09:20:52Z</time>
      </trkpt>
      <trkpt lat="44.11048" lon="6.72667">
        <ele>2297.5993106976</ele>
        <time>2021-07-10T09:20:53Z</time>
      </trkpt>
      <trkpt lat="44.11049" lon="6.72666">
        <ele>2298.5992999162</ele>
        <time>2021-07-10T09:20:54Z</time>
      </trkpt>
      <trkpt lat="44.11049" lon="6.72665">
        <ele>2297.5993080769</ele>
        <time>2021-07-10T09:20:55Z</time>
      </trkpt>
      <trkpt lat="44.11049" lon="6.72665">
        <ele>2297.5993331231</ele>
        <time>2021-07-10T09:20:56Z</time>
      </trkpt>
      <trkpt lat="44.11049" lon="6.72664">
        <ele>2297.599355053</ele>
        <time>2021-07-10T09:20:57Z</time>
      </trkpt>
      <trkpt lat="44.11048" lon="6.72663">
        <ele>2298.5993901733</ele>
        <time>2021-07-10T09:21:00Z</time>
      </trkpt>
      <trkpt lat="44.11048" lon="6.7266">
        <ele>2298.5994549614</ele>
        <time>2021-07-10T09:21:01Z</time>
      </trkpt>
      <trkpt lat="44.11048" lon="6.7266">
        <ele>2299.5994652417</ele>
        <time>2021-07-10T09:21:02Z</time>
      </trkpt>
      <trkpt lat="44.11047" lon="6.72659">
        <ele>2299.5995021802</ele>
        <time>2021-07-10T09:21:03Z</time>
      </trkpt>
      <trkpt lat="44.11047" lon="6.72657">
        <ele>2299.5995244408</ele>
        <time>2021-07-10T09:21:05Z</time>
      </trkpt>
      <trkpt lat="44.11046" lon="6.72656">
        <ele>2299.5995673363</ele>
        <time>2021-07-10T09:21:06Z</time>
      </trkpt>
      <trkpt lat="44.11046" lon="6.72656">
        <ele>2299.5995673363</ele>
        <time>2021-07-10T09:21:10Z</time>
      </trkpt>
      <trkpt lat="44.11046" lon="6.72654">
        <ele>2300.5996226302</ele>
        <time>2021-07-10T09:21:11Z</time>
      </trkpt>
      <trkpt lat="44.11046" lon="6.72653">
        <ele>2301.5996502791</ele>
        <time>2021-07-10T09:21:12Z</time>
      </trkpt>
      <trkpt lat="44.11045" lon="6.72652">
        <ele>2301.5996781818</ele>
        <time>2021-07-10T09:21:16Z</time>
      </trkpt>
      <trkpt lat="44.11045" lon="6.72651">
        <ele>2301.599724727</ele>
        <time>2021-07-10T09:21:17Z</time>
      </trkpt>
      <trkpt lat="44.11045" lon="6.7265">
        <ele>2301.5997501054</ele>
        <time>2021-07-10T09:21:18Z</time>
      </trkpt>
      <trkpt lat="44.11044" lon="6.72649">
        <ele>2301.5997785144</ele>
        <time>2021-07-10T09:21:20Z</time>
      </trkpt>
      <trkpt lat="44.11044" lon="6.72648">
        <ele>2302.5998047663</ele>
        <time>2021-07-10T09:21:21Z</time>
      </trkpt>
      <trkpt lat="44.11044" lon="6.72648">
        <ele>2302.5998209016</ele>
        <time>2021-07-10T09:21:34Z</time>
      </trkpt>
      <trkpt lat="44.11043" lon="6.72645">
        <ele>2303.5998908925</ele>
        <time>2021-07-10T09:21:36Z</time>
      </trkpt>
      <trkpt lat="44.11042" lon="6.72643">
        <ele>2304.5999619855</ele>
        <time>2021-07-10T09:21:37Z</time>
      </trkpt>
      <trkpt lat="44.11042" lon="6.72643">
        <ele>2304.5999651816</ele>
        <time>2021-07-10T09:21:45Z</time>
      </trkpt>
      <trkpt lat="44.11042" lon="6.7264">
        <ele>2304.6000183308</ele>
        <time>2021-07-10T09:21:46Z</time>
      </trkpt>
      <trkpt lat="44.11041" lon="6.72639">
        <ele>2304.6000599642</ele>
        <time>2021-07-10T09:21:47Z</time>
      </trkpt>
      <trkpt lat="44.11041" lon="6.72638">
        <ele>2304.6000856129</ele>
        <time>2021-07-10T09:21:49Z</time>
      </trkpt>
      <trkpt lat="44.11041" lon="6.72637">
        <ele>2304.6001169842</ele>
        <time>2021-07-10T09:21:51Z</time>
      </trkpt>
      <trkpt lat="44.1104" lon="6.72635">
        <ele>2305.6001601422</ele>
        <time>2021-07-10T09:21:52Z</time>
      </trkpt>
      <trkpt lat="44.1104" lon="6.72634">
        <ele>2306.6001912137</ele>
        <time>2021-07-10T09:21:55Z</time>
      </trkpt>
      <trkpt lat="44.1104" lon="6.72634">
        <ele>2306.6002154111</ele>
        <time>2021-07-10T09:22:03Z</time>
      </trkpt>
      <trkpt lat="44.1104" lon="6.72633">
        <ele>2310.6002157432</ele>
        <time>2021-07-10T09:22:54Z</time>
      </trkpt>
      <trkpt lat="44.11038" lon="6.72634">
        <ele>2309.6002693124</ele>
        <time>2021-07-10T09:22:55Z</time>
      </trkpt>
      <trkpt lat="44.11038" lon="6.72633">
        <ele>2310.6002614077</ele>
        <time>2021-07-10T09:23:09Z</time>
      </trkpt>
      <trkpt lat="44.11039" lon="6.72633">
        <ele>2309.6002621047</ele>
        <time>2021-07-10T09:23:10Z</time>
      </trkpt>
      <trkpt lat="44.11039" lon="6.72632">
        <ele>2310.600260468</ele>
        <time>2021-07-10T09:28:19Z</time>
      </trkpt>
      <trkpt lat="44.11041" lon="6.72631">
        <ele>2309.6002081674</ele>
        <time>2021-07-10T09:28:21Z</time>
      </trkpt>
      <trkpt lat="44.11042" lon="6.72631">
        <ele>2309.6001915932</ele>
        <time>2021-07-10T09:28:57Z</time>
      </trkpt>
      <trkpt lat="44.11043" lon="6.7263">
        <ele>2308.6001563289</ele>
        <time>2021-07-10T09:28:57Z</time>
      </trkpt>
      <trkpt lat="44.11043" lon="6.72629">
        <ele>2308.6001553991</ele>
        <time>2021-07-10T09:29:02Z</time>
      </trkpt>
      <trkpt lat="44.11045" lon="6.72628">
        <ele>2307.6001160656</ele>
        <time>2021-07-10T09:29:03Z</time>
      </trkpt>
      <trkpt lat="44.11045" lon="6.72628">
        <ele>2307.6001101842</ele>
        <time>2021-07-10T09:30:21Z</time>
      </trkpt>
      <trkpt lat="44.11045" lon="6.72627">
        <ele>2306.6001578967</ele>
        <time>2021-07-10T09:30:22Z</time>
      </trkpt>
      <trkpt lat="44.11044" lon="6.72627">
        <ele>2306.6001622751</ele>
        <time>2021-07-10T09:30:32Z</time>
      </trkpt>
      <trkpt lat="44.11044" lon="6.72626">
        <ele>2305.6002070331</ele>
        <time>2021-07-10T09:30:33Z</time>
      </trkpt>
      <trkpt lat="44.11043" lon="6.72626">
        <ele>2305.6002163566</ele>
        <time>2021-07-10T09:30:34Z</time>
      </trkpt>
      <trkpt lat="44.11043" lon="6.72625">
        <ele>2305.6002498169</ele>
        <time>2021-07-10T09:30:37Z</time>
      </trkpt>
      <trkpt lat="44.11042" lon="6.72625">
        <ele>2304.6002939323</ele>
        <time>2021-07-10T09:30:38Z</time>
      </trkpt>
      <trkpt lat="44.11041" lon="6.72625">
        <ele>2302.6003204891</ele>
        <time>2021-07-10T09:30:52Z</time>
      </trkpt>
      <trkpt lat="44.1104" lon="6.72625">
        <ele>2300.600345518</ele>
        <time>2021-07-10T09:31:17Z</time>
      </trkpt>
      <trkpt lat="44.11041" lon="6.72626">
        <ele>2302.6003096833</ele>
        <time>2021-07-10T09:31:18Z</time>
      </trkpt>
      <trkpt lat="44.11041" lon="6.72627">
        <ele>2302.6002860237</ele>
        <time>2021-07-10T09:32:11Z</time>
      </trkpt>
      <trkpt lat="44.11042" lon="6.7263">
        <ele>2304.6002101703</ele>
        <time>2021-07-10T09:32:12Z</time>
      </trkpt>
      <trkpt lat="44.11042" lon="6.7263">
        <ele>2303.6001957766</ele>
        <time>2021-07-10T09:32:41Z</time>
      </trkpt>
      <trkpt lat="44.11042" lon="6.7263">
        <ele>2307.6001726711</ele>
        <time>2021-07-10T09:33:23Z</time>
      </trkpt>
      <trkpt lat="44.11044" lon="6.7263">
        <ele>2306.6001335586</ele>
        <time>2021-07-10T09:33:25Z</time>
      </trkpt>
      <trkpt lat="44.11045" lon="6.7263">
        <ele>2306.600085173</ele>
        <time>2021-07-10T09:33:27Z</time>
      </trkpt>
      <trkpt lat="44.11045" lon="6.7263">
        <ele>2306.6000875679</ele>
        <time>2021-07-10T09:33:28Z</time>
      </trkpt>
      <trkpt lat="44.11044" lon="6.7263">
        <ele>2305.6001081551</ele>
        <time>2021-07-10T09:33:51Z</time>
      </trkpt>
      <trkpt lat="44.11044" lon="6.72629">
        <ele>2305.6001438233</ele>
        <time>2021-07-10T09:33:56Z</time>
      </trkpt>
      <trkpt lat="44.11044" lon="6.72629">
        <ele>2305.6001446533</ele>
        <time>2021-07-10T09:33:56Z</time>
      </trkpt>
      <trkpt lat="44.11045" lon="6.72627">
        <ele>2305.6001479547</ele>
        <time>2021-07-10T09:33:57Z</time>
      </trkpt>
      <trkpt lat="44.11045" lon="6.72626">
        <ele>2305.6001705167</ele>
        <time>2021-07-10T09:33:58Z</time>
      </trkpt>
      <trkpt lat="44.11045" lon="6.72624">
        <ele>2306.6001676411</ele>
        <time>2021-07-10T09:33:59Z</time>
      </trkpt>
      <trkpt lat="44.11045" lon="6.72622">
        <ele>2306.6002037314</ele>
        <time>2021-07-10T09:34:01Z</time>
      </trkpt>
      <trkpt lat="44.11047" lon="6.7262">
        <ele>2305.6002000079</ele>
        <time>2021-07-10T09:34:03Z</time>
      </trkpt>
      <trkpt lat="44.11047" lon="6.72619">
        <ele>2305.6001897681</ele>
        <time>2021-07-10T09:34:04Z</time>
      </trkpt>
      <trkpt lat="44.11048" lon="6.72619">
        <ele>2304.6001907038</ele>
        <time>2021-07-10T09:34:05Z</time>
      </trkpt>
      <trkpt lat="44.11046" lon="6.72618">
        <ele>2304.600241852</ele>
        <time>2021-07-10T09:34:07Z</time>
      </trkpt>
      <trkpt lat="44.11046" lon="6.72617">
        <ele>2304.6002685311</ele>
        <time>2021-07-10T09:34:07Z</time>
      </trkpt>
      <trkpt lat="44.11046" lon="6.72617">
        <ele>2304.6002658654</ele>
        <time>2021-07-10T09:34:08Z</time>
      </trkpt>
      <trkpt lat="44.11047" lon="6.72616">
        <ele>2304.600280416</ele>
        <time>2021-07-10T09:34:10Z</time>
      </trkpt>
      <trkpt lat="44.11047" lon="6.72616">
        <ele>2304.6002552152</ele>
        <time>2021-07-10T09:34:21Z</time>
      </trkpt>
      <trkpt lat="44.11046" lon="6.72615">
        <ele>2304.6002925313</ele>
        <time>2021-07-10T09:34:22Z</time>
      </trkpt>
      <trkpt lat="44.11046" lon="6.72615">
        <ele>2304.6003100251</ele>
        <time>2021-07-10T09:34:23Z</time>
      </trkpt>
      <trkpt lat="44.11046" lon="6.72614">
        <ele>2304.6003466391</ele>
        <time>2021-07-10T09:34:25Z</time>
      </trkpt>
      <trkpt lat="44.11044" lon="6.72613">
        <ele>2305.6004103911</ele>
        <time>2021-07-10T09:34:27Z</time>
      </trkpt>
      <trkpt lat="44.11044" lon="6.72612">
        <ele>2305.6004257676</ele>
        <time>2021-07-10T09:34:28Z</time>
      </trkpt>
      <trkpt lat="44.11045" lon="6.72611">
        <ele>2306.6004197726</ele>
        <time>2021-07-10T09:34:29Z</time>
      </trkpt>
      <trkpt lat="44.11045" lon="6.72611">
        <ele>2306.6004113534</ele>
        <time>2021-07-10T09:34:31Z</time>
      </trkpt>
      <trkpt lat="44.11045" lon="6.7261">
        <ele>2306.6004286358</ele>
        <time>2021-07-10T09:34:32Z</time>
      </trkpt>
      <trkpt lat="44.11045" lon="6.72609">
        <ele>2306.6004413402</ele>
        <time>2021-07-10T09:34:33Z</time>
      </trkpt>
      <trkpt lat="44.11045" lon="6.72608">
        <ele>2305.6004622277</ele>
        <time>2021-07-10T09:34:35Z</time>
      </trkpt>
      <trkpt lat="44.11045" lon="6.72607">
        <ele>2305.6004696436</ele>
        <time>2021-07-10T09:34:36Z</time>
      </trkpt>
      <trkpt lat="44.11046" lon="6.72606">
        <ele>2306.600465422</ele>
        <time>2021-07-10T09:34:38Z</time>
      </trkpt>
      <trkpt lat="44.11046" lon="6.72605">
        <ele>2305.6004693152</ele>
        <time>2021-07-10T09:34:41Z</time>
      </trkpt>
      <trkpt lat="44.11047" lon="6.72605">
        <ele>2305.600459481</ele>
        <time>2021-07-10T09:34:43Z</time>
      </trkpt>
      <trkpt lat="44.11047" lon="6.72604">
        <ele>2304.6004681354</ele>
        <time>2021-07-10T09:34:45Z</time>
      </trkpt>
      <trkpt lat="44.11048" lon="6.72605">
        <ele>2305.6003948925</ele>
        <time>2021-07-10T09:34:47Z</time>
      </trkpt>
      <trkpt lat="44.11049" lon="6.72606">
        <ele>2306.6003616688</ele>
        <time>2021-07-10T09:35:01Z</time>
      </trkpt>
      <trkpt lat="44.1105" lon="6.72604">
        <ele>2306.6003778135</ele>
        <time>2021-07-10T09:35:02Z</time>
      </trkpt>
      <trkpt lat="44.11049" lon="6.72603">
        <ele>2306.6003927403</ele>
        <time>2021-07-10T09:35:03Z</time>
      </trkpt>
      <trkpt lat="44.11049" lon="6.72602">
        <ele>2306.6004235296</ele>
        <time>2021-07-10T09:35:05Z</time>
      </trkpt>
      <trkpt lat="44.11049" lon="6.72601">
        <ele>2306.6004621003</ele>
        <time>2021-07-10T09:35:07Z</time>
      </trkpt>
      <trkpt lat="44.11048" lon="6.726">
        <ele>2306.6005012118</ele>
        <time>2021-07-10T09:35:08Z</time>
      </trkpt>
      <trkpt lat="44.11048" lon="6.726">
        <ele>2306.6005012118</ele>
        <time>2021-07-10T09:35:11Z</time>
      </trkpt>
      <trkpt lat="44.11048" lon="6.72598">
        <ele>2308.6005499082</ele>
        <time>2021-07-10T09:35:12Z</time>
      </trkpt>
      <trkpt lat="44.11047" lon="6.72597">
        <ele>2308.6005848975</ele>
        <time>2021-07-10T09:35:14Z</time>
      </trkpt>
      <trkpt lat="44.11048" lon="6.72597">
        <ele>2309.6005796785</ele>
        <time>2021-07-10T09:35:15Z</time>
      </trkpt>
      <trkpt lat="44.11048" lon="6.72596">
        <ele>2309.6005654764</ele>
        <time>2021-07-10T09:35:16Z</time>
      </trkpt>
      <trkpt lat="44.11048" lon="6.72595">
        <ele>2309.6005977038</ele>
        <time>2021-07-10T09:35:20Z</time>
      </trkpt>
      <trkpt lat="44.11048" lon="6.72595">
        <ele>2309.600617169</ele>
        <time>2021-07-10T09:35:21Z</time>
      </trkpt>
      <trkpt lat="44.11047" lon="6.72594">
        <ele>2310.6006421791</ele>
        <time>2021-07-10T09:35:22Z</time>
      </trkpt>
      <trkpt lat="44.11047" lon="6.72594">
        <ele>2310.600656226</ele>
        <time>2021-07-10T09:35:29Z</time>
      </trkpt>
      <trkpt lat="44.11047" lon="6.72592">
        <ele>2312.6006936191</ele>
        <time>2021-07-10T09:35:30Z</time>
      </trkpt>
      <trkpt lat="44.11047" lon="6.72591">
        <ele>2312.60070915</ele>
        <time>2021-07-10T09:35:35Z</time>
      </trkpt>
      <trkpt lat="44.11047" lon="6.7259">
        <ele>2314.6007336889</ele>
        <time>2021-07-10T09:35:36Z</time>
      </trkpt>
      <trkpt lat="44.11047" lon="6.72589">
        <ele>2314.6007306479</ele>
        <time>2021-07-10T09:35:37Z</time>
      </trkpt>
      <trkpt lat="44.11047" lon="6.72589">
        <ele>2313.6007373135</ele>
        <time>2021-07-10T09:35:38Z</time>
      </trkpt>
      <trkpt lat="44.11048" lon="6.72588">
        <ele>2314.6007278654</ele>
        <time>2021-07-10T09:35:41Z</time>
      </trkpt>
      <trkpt lat="44.11048" lon="6.72586">
        <ele>2313.6007426717</ele>
        <time>2021-07-10T09:35:42Z</time>
      </trkpt>
      <trkpt lat="44.11048" lon="6.72585">
        <ele>2314.6007755171</ele>
        <time>2021-07-10T09:35:44Z</time>
      </trkpt>
      <trkpt lat="44.11047" lon="6.72585">
        <ele>2314.6008034391</ele>
        <time>2021-07-10T09:35:45Z</time>
      </trkpt>
      <trkpt lat="44.11046" lon="6.72585">
        <ele>2316.600829573</ele>
        <time>2021-07-10T09:35:53Z</time>
      </trkpt>
      <trkpt lat="44.11046" lon="6.72584">
        <ele>2315.6008498425</ele>
        <time>2021-07-10T09:35:56Z</time>
      </trkpt>
      <trkpt lat="44.11046" lon="6.72584">
        <ele>2315.6008620955</ele>
        <time>2021-07-10T09:35:57Z</time>
      </trkpt>
      <trkpt lat="44.11046" lon="6.72583">
        <ele>2316.600891121</ele>
        <time>2021-07-10T09:35:58Z</time>
      </trkpt>
      <trkpt lat="44.11046" lon="6.72582">
        <ele>2316.6009066686</ele>
        <time>2021-07-10T09:35:59Z</time>
      </trkpt>
      <trkpt lat="44.11047" lon="6.72581">
        <ele>2316.6008962745</ele>
        <time>2021-07-10T09:36:00Z</time>
      </trkpt>
      <trkpt lat="44.11046" lon="6.7258">
        <ele>2316.6009214308</ele>
        <time>2021-07-10T09:36:03Z</time>
      </trkpt>
      <trkpt lat="44.11046" lon="6.72578">
        <ele>2315.6009750578</ele>
        <time>2021-07-10T09:36:04Z</time>
      </trkpt>
      <trkpt lat="44.11046" lon="6.72577">
        <ele>2316.6010015024</ele>
        <time>2021-07-10T09:36:23Z</time>
      </trkpt>
      <trkpt lat="44.11045" lon="6.72576">
        <ele>2316.6010249347</ele>
        <time>2021-07-10T09:36:24Z</time>
      </trkpt>
      <trkpt lat="44.11046" lon="6.72575">
        <ele>2316.6010291533</ele>
        <time>2021-07-10T09:36:25Z</time>
      </trkpt>
      <trkpt lat="44.11046" lon="6.72574">
        <ele>2315.6010193515</ele>
        <time>2021-07-10T09:36:26Z</time>
      </trkpt>
      <trkpt lat="44.11047" lon="6.72574">
        <ele>2316.6009976313</ele>
        <time>2021-07-10T09:36:27Z</time>
      </trkpt>
      <trkpt lat="44.11048" lon="6.72574">
        <ele>2316.6009906526</ele>
        <time>2021-07-10T09:36:30Z</time>
      </trkpt>
      <trkpt lat="44.11049" lon="6.72572">
        <ele>2317.6009595492</ele>
        <time>2021-07-10T09:36:32Z</time>
      </trkpt>
      <trkpt lat="44.11051" lon="6.7257">
        <ele>2317.6009205506</ele>
        <time>2021-07-10T09:36:33Z</time>
      </trkpt>
      <trkpt lat="44.11051" lon="6.7257">
        <ele>2319.6009178846</ele>
        <time>2021-07-10T09:36:36Z</time>
      </trkpt>
      <trkpt lat="44.11052" lon="6.72568">
        <ele>2319.6009323359</ele>
        <time>2021-07-10T09:36:37Z</time>
      </trkpt>
      <trkpt lat="44.11052" lon="6.72567">
        <ele>2319.600930638</ele>
        <time>2021-07-10T09:36:38Z</time>
      </trkpt>
      <trkpt lat="44.11053" lon="6.72566">
        <ele>2319.6009386722</ele>
        <time>2021-07-10T09:36:40Z</time>
      </trkpt>
      <trkpt lat="44.11054" lon="6.72564">
        <ele>2320.6009319672</ele>
        <time>2021-07-10T09:36:42Z</time>
      </trkpt>
      <trkpt lat="44.11056" lon="6.72562">
        <ele>2320.6009042291</ele>
        <time>2021-07-10T09:36:43Z</time>
      </trkpt>
      <trkpt lat="44.11056" lon="6.72561">
        <ele>2320.6008936007</ele>
        <time>2021-07-10T09:36:44Z</time>
      </trkpt>
      <trkpt lat="44.11057" lon="6.72561">
        <ele>2320.6008825641</ele>
        <time>2021-07-10T09:36:45Z</time>
      </trkpt>
      <trkpt lat="44.11057" lon="6.72561">
        <ele>2320.6008699179</ele>
        <time>2021-07-10T09:36:47Z</time>
      </trkpt>
      <trkpt lat="44.11058" lon="6.72559">
        <ele>2321.6008664659</ele>
        <time>2021-07-10T09:36:48Z</time>
      </trkpt>
      <trkpt lat="44.11058" lon="6.72559">
        <ele>2321.6008599285</ele>
        <time>2021-07-10T09:36:49Z</time>
      </trkpt>
      <trkpt lat="44.11059" lon="6.72558">
        <ele>2321.6008656772</ele>
        <time>2021-07-10T09:36:50Z</time>
      </trkpt>
      <trkpt lat="44.11059" lon="6.72558">
        <ele>2321.6008449807</ele>
        <time>2021-07-10T09:36:52Z</time>
      </trkpt>
      <trkpt lat="44.1106" lon="6.72558">
        <ele>2322.6008234822</ele>
        <time>2021-07-10T09:36:53Z</time>
      </trkpt>
      <trkpt lat="44.11061" lon="6.72557">
        <ele>2323.6008129624</ele>
        <time>2021-07-10T09:36:54Z</time>
      </trkpt>
      <trkpt lat="44.11062" lon="6.72556">
        <ele>2323.6007850385</ele>
        <time>2021-07-10T09:36:56Z</time>
      </trkpt>
      <trkpt lat="44.11063" lon="6.72554">
        <ele>2323.600777734</ele>
        <time>2021-07-10T09:36:57Z</time>
      </trkpt>
      <trkpt lat="44.11064" lon="6.72553">
        <ele>2323.600778183</ele>
        <time>2021-07-10T09:36:58Z</time>
      </trkpt>
      <trkpt lat="44.11064" lon="6.72552">
        <ele>2323.6007655203</ele>
        <time>2021-07-10T09:36:59Z</time>
      </trkpt>
      <trkpt lat="44.11065" lon="6.72551">
        <ele>2323.6007616018</ele>
        <time>2021-07-10T09:37:01Z</time>
      </trkpt>
      <trkpt lat="44.11066" lon="6.72548">
        <ele>2323.6007544112</ele>
        <time>2021-07-10T09:37:02Z</time>
      </trkpt>
      <trkpt lat="44.11067" lon="6.72547">
        <ele>2323.6007557546</ele>
        <time>2021-07-10T09:37:03Z</time>
      </trkpt>
      <trkpt lat="44.11067" lon="6.72546">
        <ele>2322.6007606394</ele>
        <time>2021-07-10T09:37:05Z</time>
      </trkpt>
      <trkpt lat="44.11068" lon="6.72544">
        <ele>2321.6007614373</ele>
        <time>2021-07-10T09:37:07Z</time>
      </trkpt>
      <trkpt lat="44.1107" lon="6.72542">
        <ele>2321.6007591952</ele>
        <time>2021-07-10T09:37:08Z</time>
      </trkpt>
      <trkpt lat="44.1107" lon="6.72542">
        <ele>2321.6007498048</ele>
        <time>2021-07-10T09:37:09Z</time>
      </trkpt>
      <trkpt lat="44.11071" lon="6.72542">
        <ele>2321.6007119162</ele>
        <time>2021-07-10T09:37:11Z</time>
      </trkpt>
      <trkpt lat="44.11071" lon="6.72543">
        <ele>2321.6006781393</ele>
        <time>2021-07-10T09:37:13Z</time>
      </trkpt>
      <trkpt lat="44.11072" lon="6.72541">
        <ele>2321.6006642832</ele>
        <time>2021-07-10T09:37:15Z</time>
      </trkpt>
      <trkpt lat="44.11073" lon="6.7254">
        <ele>2321.6006636658</ele>
        <time>2021-07-10T09:37:16Z</time>
      </trkpt>
      <trkpt lat="44.11073" lon="6.72539">
        <ele>2320.6006771084</ele>
        <time>2021-07-10T09:37:17Z</time>
      </trkpt>
      <trkpt lat="44.11074" lon="6.72538">
        <ele>2320.6006760361</ele>
        <time>2021-07-10T09:37:18Z</time>
      </trkpt>
      <trkpt lat="44.11074" lon="6.72538">
        <ele>2320.6006573371</ele>
        <time>2021-07-10T09:37:20Z</time>
      </trkpt>
      <trkpt lat="44.11074" lon="6.72535">
        <ele>2321.6007089224</ele>
        <time>2021-07-10T09:37:22Z</time>
      </trkpt>
      <trkpt lat="44.11074" lon="6.72532">
        <ele>2321.6007614729</ele>
        <time>2021-07-10T09:37:23Z</time>
      </trkpt>
      <trkpt lat="44.11074" lon="6.72531">
        <ele>2321.6007756098</ele>
        <time>2021-07-10T09:37:24Z</time>
      </trkpt>
      <trkpt lat="44.11075" lon="6.7253">
        <ele>2321.6007805243</ele>
        <time>2021-07-10T09:37:25Z</time>
      </trkpt>
      <trkpt lat="44.11076" lon="6.72529">
        <ele>2321.600769345</ele>
        <time>2021-07-10T09:37:27Z</time>
      </trkpt>
      <trkpt lat="44.11077" lon="6.72526">
        <ele>2321.6007616</ele>
        <time>2021-07-10T09:37:28Z</time>
      </trkpt>
      <trkpt lat="44.11078" lon="6.72525">
        <ele>2320.6007691977</ele>
        <time>2021-07-10T09:37:29Z</time>
      </trkpt>
      <trkpt lat="44.11079" lon="6.72524">
        <ele>2320.6007588691</ele>
        <time>2021-07-10T09:37:31Z</time>
      </trkpt>
      <trkpt lat="44.1108" lon="6.72521">
        <ele>2319.6007613397</ele>
        <time>2021-07-10T09:37:32Z</time>
      </trkpt>
      <trkpt lat="44.1108" lon="6.72521">
        <ele>2320.6007410952</ele>
        <time>2021-07-10T09:37:33Z</time>
      </trkpt>
      <trkpt lat="44.11082" lon="6.7252">
        <ele>2320.6007049052</ele>
        <time>2021-07-10T09:37:34Z</time>
      </trkpt>
      <trkpt lat="44.11082" lon="6.7252">
        <ele>2321.6006852168</ele>
        <time>2021-07-10T09:37:36Z</time>
      </trkpt>
      <trkpt lat="44.11083" lon="6.72518">
        <ele>2322.6006716504</ele>
        <time>2021-07-10T09:37:37Z</time>
      </trkpt>
      <trkpt lat="44.11084" lon="6.72518">
        <ele>2322.600683025</ele>
        <time>2021-07-10T09:37:38Z</time>
      </trkpt>
      <trkpt lat="44.11084" lon="6.72517">
        <ele>2322.6006619272</ele>
        <time>2021-07-10T09:37:39Z</time>
      </trkpt>
      <trkpt lat="44.11084" lon="6.72518">
        <ele>2323.6006581676</ele>
        <time>2021-07-10T09:37:44Z</time>
      </trkpt>
      <trkpt lat="44.11084" lon="6.72519">
        <ele>2324.6006463485</ele>
        <time>2021-07-10T09:37:45Z</time>
      </trkpt>
      <trkpt lat="44.11084" lon="6.72518">
        <ele>2324.600637636</ele>
        <time>2021-07-10T09:37:59Z</time>
      </trkpt>
      <trkpt lat="44.11085" lon="6.72517">
        <ele>2324.60064051</ele>
        <time>2021-07-10T09:38:02Z</time>
      </trkpt>
      <trkpt lat="44.11085" lon="6.72517">
        <ele>2324.600642115</ele>
        <time>2021-07-10T09:38:05Z</time>
      </trkpt>
      <trkpt lat="44.11085" lon="6.72516">
        <ele>2324.600645402</ele>
        <time>2021-07-10T09:38:06Z</time>
      </trkpt>
      <trkpt lat="44.11085" lon="6.72515">
        <ele>2324.600658759</ele>
        <time>2021-07-10T09:38:07Z</time>
      </trkpt>
      <trkpt lat="44.11085" lon="6.72514">
        <ele>2324.6006863475</ele>
        <time>2021-07-10T09:38:08Z</time>
      </trkpt>
      <trkpt lat="44.11085" lon="6.72513">
        <ele>2324.6006949678</ele>
        <time>2021-07-10T09:38:09Z</time>
      </trkpt>
      <trkpt lat="44.11086" lon="6.72512">
        <ele>2324.6006955002</ele>
        <time>2021-07-10T09:38:10Z</time>
      </trkpt>
      <trkpt lat="44.11086" lon="6.72512">
        <ele>2324.6006863583</ele>
        <time>2021-07-10T09:38:26Z</time>
      </trkpt>
      <trkpt lat="44.11087" lon="6.72514">
        <ele>2327.600626306</ele>
        <time>2021-07-10T09:38:27Z</time>
      </trkpt>
      <trkpt lat="44.11087" lon="6.72515">
        <ele>2327.6005959809</ele>
        <time>2021-07-10T09:38:32Z</time>
      </trkpt>
      <trkpt lat="44.11085" lon="6.72515">
        <ele>2328.60067024</ele>
        <time>2021-07-10T09:38:33Z</time>
      </trkpt>
      <trkpt lat="44.11085" lon="6.72514">
        <ele>2328.6007031094</ele>
        <time>2021-07-10T09:38:34Z</time>
      </trkpt>
      <trkpt lat="44.11084" lon="6.72513">
        <ele>2328.6007494059</ele>
        <time>2021-07-10T09:38:36Z</time>
      </trkpt>
      <trkpt lat="44.11085" lon="6.72511">
        <ele>2327.6007555791</ele>
        <time>2021-07-10T09:38:37Z</time>
      </trkpt>
      <trkpt lat="44.11085" lon="6.7251">
        <ele>2327.600750024</ele>
        <time>2021-07-10T09:38:38Z</time>
      </trkpt>
      <trkpt lat="44.11086" lon="6.72511">
        <ele>2328.6007223549</ele>
        <time>2021-07-10T09:38:40Z</time>
      </trkpt>
      <trkpt lat="44.11087" lon="6.72511">
        <ele>2329.6006737277</ele>
        <time>2021-07-10T09:38:42Z</time>
      </trkpt>
      <trkpt lat="44.11087" lon="6.72511">
        <ele>2330.6006871144</ele>
        <time>2021-07-10T09:38:46Z</time>
      </trkpt>
      <trkpt lat="44.11086" lon="6.7251">
        <ele>2331.6007392547</ele>
        <time>2021-07-10T09:38:47Z</time>
      </trkpt>
      <trkpt lat="44.11085" lon="6.7251">
        <ele>2330.6007685284</ele>
        <time>2021-07-10T09:38:50Z</time>
      </trkpt>
      <trkpt lat="44.11085" lon="6.72509">
        <ele>2330.600791195</ele>
        <time>2021-07-10T09:38:53Z</time>
      </trkpt>
      <trkpt lat="44.11084" lon="6.72508">
        <ele>2330.6008412595</ele>
        <time>2021-07-10T09:38:54Z</time>
      </trkpt>
      <trkpt lat="44.11083" lon="6.72508">
        <ele>2330.6008691077</ele>
        <time>2021-07-10T09:38:56Z</time>
      </trkpt>
      <trkpt lat="44.11083" lon="6.72505">
        <ele>2329.6009268554</ele>
        <time>2021-07-10T09:38:57Z</time>
      </trkpt>
      <trkpt lat="44.11083" lon="6.72505">
        <ele>2329.6009268554</ele>
        <time>2021-07-10T09:39:00Z</time>
      </trkpt>
      <trkpt lat="44.11082" lon="6.72502">
        <ele>2328.6010160477</ele>
        <time>2021-07-10T09:39:01Z</time>
      </trkpt>
      <trkpt lat="44.1108" lon="6.72502">
        <ele>2328.6010740099</ele>
        <time>2021-07-10T09:39:02Z</time>
      </trkpt>
      <trkpt lat="44.1108" lon="6.72501">
        <ele>2328.6011050301</ele>
        <time>2021-07-10T09:39:03Z</time>
      </trkpt>
      <trkpt lat="44.1108" lon="6.725">
        <ele>2328.6011301466</ele>
        <time>2021-07-10T09:39:07Z</time>
      </trkpt>
      <trkpt lat="44.1108" lon="6.72499">
        <ele>2327.6011530863</ele>
        <time>2021-07-10T09:39:08Z</time>
      </trkpt>
      <trkpt lat="44.11079" lon="6.72498">
        <ele>2327.6011818455</ele>
        <time>2021-07-10T09:39:09Z</time>
      </trkpt>
      <trkpt lat="44.1108" lon="6.72497">
        <ele>2325.6011905792</ele>
        <time>2021-07-10T09:39:10Z</time>
      </trkpt>
      <trkpt lat="44.11079" lon="6.72495">
        <ele>2324.601223877</ele>
        <time>2021-07-10T09:39:11Z</time>
      </trkpt>
      <trkpt lat="44.11079" lon="6.72494">
        <ele>2323.6012645645</ele>
        <time>2021-07-10T09:39:12Z</time>
      </trkpt>
      <trkpt lat="44.1108" lon="6.72492">
        <ele>2322.601276453</ele>
        <time>2021-07-10T09:39:13Z</time>
      </trkpt>
      <trkpt lat="44.11081" lon="6.72491">
        <ele>2321.6012582683</ele>
        <time>2021-07-10T09:39:14Z</time>
      </trkpt>
      <trkpt lat="44.11081" lon="6.7249">
        <ele>2321.6012643641</ele>
        <time>2021-07-10T09:39:15Z</time>
      </trkpt>
      <trkpt lat="44.11082" lon="6.72489">
        <ele>2321.6012635414</ele>
        <time>2021-07-10T09:39:17Z</time>
      </trkpt>
      <trkpt lat="44.11083" lon="6.72487">
        <ele>2320.6012521624</ele>
        <time>2021-07-10T09:39:18Z</time>
      </trkpt>
      <trkpt lat="44.11083" lon="6.72486">
        <ele>2320.6012686414</ele>
        <time>2021-07-10T09:39:19Z</time>
      </trkpt>
      <trkpt lat="44.11083" lon="6.72485">
        <ele>2320.6012731884</ele>
        <time>2021-07-10T09:39:21Z</time>
      </trkpt>
      <trkpt lat="44.11084" lon="6.72484">
        <ele>2320.601275764</ele>
        <time>2021-07-10T09:39:22Z</time>
      </trkpt>
      <trkpt lat="44.11085" lon="6.72482">
        <ele>2320.6012583165</ele>
        <time>2021-07-10T09:39:23Z</time>
      </trkpt>
      <trkpt lat="44.11086" lon="6.72481">
        <ele>2320.6012432505</ele>
        <time>2021-07-10T09:39:25Z</time>
      </trkpt>
      <trkpt lat="44.11087" lon="6.72478">
        <ele>2319.6012609875</ele>
        <time>2021-07-10T09:39:27Z</time>
      </trkpt>
      <trkpt lat="44.11087" lon="6.72476">
        <ele>2318.601289393</ele>
        <time>2021-07-10T09:39:28Z</time>
      </trkpt>
      <trkpt lat="44.11087" lon="6.72476">
        <ele>2319.6012834443</ele>
        <time>2021-07-10T09:39:29Z</time>
      </trkpt>
      <trkpt lat="44.11087" lon="6.72475">
        <ele>2319.6012989023</ele>
        <time>2021-07-10T09:39:35Z</time>
      </trkpt>
      <trkpt lat="44.11088" lon="6.72472">
        <ele>2318.6013053496</ele>
        <time>2021-07-10T09:39:37Z</time>
      </trkpt>
      <trkpt lat="44.1109" lon="6.72471">
        <ele>2317.6012749741</ele>
        <time>2021-07-10T09:39:38Z</time>
      </trkpt>
      <trkpt lat="44.1109" lon="6.72471">
        <ele>2318.6012803794</ele>
        <time>2021-07-10T09:39:41Z</time>
      </trkpt>
      <trkpt lat="44.1109" lon="6.7247">
        <ele>2317.6012858834</ele>
        <time>2021-07-10T09:39:47Z</time>
      </trkpt>
      <trkpt lat="44.1109" lon="6.72468">
        <ele>2317.6013528657</ele>
        <time>2021-07-10T09:39:48Z</time>
      </trkpt>
      <trkpt lat="44.1109" lon="6.72467">
        <ele>2318.6013527248</ele>
        <time>2021-07-10T09:39:50Z</time>
      </trkpt>
      <trkpt lat="44.1109" lon="6.72466">
        <ele>2317.6013524397</ele>
        <time>2021-07-10T09:39:53Z</time>
      </trkpt>
      <trkpt lat="44.11093" lon="6.72464">
        <ele>2315.6012944551</ele>
        <time>2021-07-10T09:39:54Z</time>
      </trkpt>
      <trkpt lat="44.11093" lon="6.72464">
        <ele>2316.6012848068</ele>
        <time>2021-07-10T09:39:55Z</time>
      </trkpt>
      <trkpt lat="44.11094" lon="6.72463">
        <ele>2315.6012709369</ele>
        <time>2021-07-10T09:39:56Z</time>
      </trkpt>
      <trkpt lat="44.11095" lon="6.72462">
        <ele>2316.6012607904</ele>
        <time>2021-07-10T09:39:57Z</time>
      </trkpt>
      <trkpt lat="44.11096" lon="6.7246">
        <ele>2315.6012441906</ele>
        <time>2021-07-10T09:39:58Z</time>
      </trkpt>
      <trkpt lat="44.11096" lon="6.7246">
        <ele>2315.6012442406</ele>
        <time>2021-07-10T09:39:59Z</time>
      </trkpt>
      <trkpt lat="44.11097" lon="6.72459">
        <ele>2314.6012526033</ele>
        <time>2021-07-10T09:40:00Z</time>
      </trkpt>
      <trkpt lat="44.11097" lon="6.72458">
        <ele>2312.6012523194</ele>
        <time>2021-07-10T09:40:44Z</time>
      </trkpt>
      <trkpt lat="44.11098" lon="6.72456">
        <ele>2312.6012410604</ele>
        <time>2021-07-10T09:40:45Z</time>
      </trkpt>
      <trkpt lat="44.111" lon="6.72456">
        <ele>2312.6012000909</ele>
        <time>2021-07-10T09:40:46Z</time>
      </trkpt>
      <trkpt lat="44.11101" lon="6.72455">
        <ele>2311.6011799058</ele>
        <time>2021-07-10T09:40:47Z</time>
      </trkpt>
      <trkpt lat="44.11102" lon="6.72453">
        <ele>2311.6011821043</ele>
        <time>2021-07-10T09:40:48Z</time>
      </trkpt>
      <trkpt lat="44.11102" lon="6.72451">
        <ele>2310.6011775626</ele>
        <time>2021-07-10T09:40:50Z</time>
      </trkpt>
      <trkpt lat="44.11104" lon="6.7245">
        <ele>2310.6011513113</ele>
        <time>2021-07-10T09:40:52Z</time>
      </trkpt>
      <trkpt lat="44.11105" lon="6.72449">
        <ele>2310.6011431736</ele>
        <time>2021-07-10T09:40:52Z</time>
      </trkpt>
      <trkpt lat="44.11105" lon="6.72448">
        <ele>2311.6011308387</ele>
        <time>2021-07-10T09:40:54Z</time>
      </trkpt>
      <trkpt lat="44.11106" lon="6.72449">
        <ele>2311.6011070178</ele>
        <time>2021-07-10T09:40:56Z</time>
      </trkpt>
      <trkpt lat="44.11107" lon="6.72448">
        <ele>2311.6010766702</ele>
        <time>2021-07-10T09:40:56Z</time>
      </trkpt>
      <trkpt lat="44.11107" lon="6.72448">
        <ele>2310.6010692068</ele>
        <time>2021-07-10T09:40:57Z</time>
      </trkpt>
      <trkpt lat="44.11108" lon="6.72447">
        <ele>2310.6010524631</ele>
        <time>2021-07-10T09:40:58Z</time>
      </trkpt>
      <trkpt lat="44.11108" lon="6.72447">
        <ele>2310.6010443927</ele>
        <time>2021-07-10T09:41:09Z</time>
      </trkpt>
      <trkpt lat="44.11109" lon="6.72446">
        <ele>2312.6010349301</ele>
        <time>2021-07-10T09:41:10Z</time>
      </trkpt>
      <trkpt lat="44.1111" lon="6.72446">
        <ele>2312.6010030502</ele>
        <time>2021-07-10T09:41:11Z</time>
      </trkpt>
      <trkpt lat="44.11111" lon="6.72446">
        <ele>2312.6009809892</ele>
        <time>2021-07-10T09:41:12Z</time>
      </trkpt>
      <trkpt lat="44.11111" lon="6.72446">
        <ele>2312.6009608312</ele>
        <time>2021-07-10T09:41:13Z</time>
      </trkpt>
      <trkpt lat="44.11112" lon="6.72445">
        <ele>2312.6009578714</ele>
        <time>2021-07-10T09:41:15Z</time>
      </trkpt>
      <trkpt lat="44.11114" lon="6.72444">
        <ele>2313.6008943903</ele>
        <time>2021-07-10T09:41:16Z</time>
      </trkpt>
      <trkpt lat="44.11115" lon="6.72443">
        <ele>2312.6008745005</ele>
        <time>2021-07-10T09:41:17Z</time>
      </trkpt>
      <trkpt lat="44.11116" lon="6.72442">
        <ele>2313.6008530108</ele>
        <time>2021-07-10T09:41:18Z</time>
      </trkpt>
      <trkpt lat="44.11117" lon="6.72441">
        <ele>2313.6008358873</ele>
        <time>2021-07-10T09:41:19Z</time>
      </trkpt>
      <trkpt lat="44.11117" lon="6.72441">
        <ele>2313.6008322988</ele>
        <time>2021-07-10T09:41:20Z</time>
      </trkpt>
      <trkpt lat="44.11118" lon="6.72439">
        <ele>2313.6008334214</ele>
        <time>2021-07-10T09:41:21Z</time>
      </trkpt>
      <trkpt lat="44.11119" lon="6.72439">
        <ele>2313.6008178193</ele>
        <time>2021-07-10T09:41:23Z</time>
      </trkpt>
      <trkpt lat="44.1112" lon="6.72438">
        <ele>2313.6008042959</ele>
        <time>2021-07-10T09:41:25Z</time>
      </trkpt>
      <trkpt lat="44.11121" lon="6.72436">
        <ele>2312.6007922296</ele>
        <time>2021-07-10T09:41:27Z</time>
      </trkpt>
      <trkpt lat="44.11123" lon="6.72432">
        <ele>2311.6007906953</ele>
        <time>2021-07-10T09:41:28Z</time>
      </trkpt>
      <trkpt lat="44.11123" lon="6.72431">
        <ele>2311.6007884371</ele>
        <time>2021-07-10T09:41:29Z</time>
      </trkpt>
      <trkpt lat="44.11123" lon="6.7243">
        <ele>2312.600802383</ele>
        <time>2021-07-10T09:41:31Z</time>
      </trkpt>
      <trkpt lat="44.11125" lon="6.72428">
        <ele>2312.6007894477</ele>
        <time>2021-07-10T09:41:32Z</time>
      </trkpt>
      <trkpt lat="44.11125" lon="6.72428">
        <ele>2312.6007698838</ele>
        <time>2021-07-10T09:41:33Z</time>
      </trkpt>
      <trkpt lat="44.11126" lon="6.72427">
        <ele>2312.6007576196</ele>
        <time>2021-07-10T09:41:34Z</time>
      </trkpt>
      <trkpt lat="44.11126" lon="6.72427">
        <ele>2312.6007605196</ele>
        <time>2021-07-10T09:41:36Z</time>
      </trkpt>
      <trkpt lat="44.11127" lon="6.72425">
        <ele>2313.6007638919</ele>
        <time>2021-07-10T09:41:37Z</time>
      </trkpt>
      <trkpt lat="44.11127" lon="6.72424">
        <ele>2313.6007731143</ele>
        <time>2021-07-10T09:41:38Z</time>
      </trkpt>
      <trkpt lat="44.11128" lon="6.72423">
        <ele>2313.6007616514</ele>
        <time>2021-07-10T09:41:40Z</time>
      </trkpt>
      <trkpt lat="44.1113" lon="6.72421">
        <ele>2311.6007557984</ele>
        <time>2021-07-10T09:41:42Z</time>
      </trkpt>
      <trkpt lat="44.11131" lon="6.72419">
        <ele>2312.6007474324</ele>
        <time>2021-07-10T09:41:43Z</time>
      </trkpt>
      <trkpt lat="44.11131" lon="6.72417">
        <ele>2312.6007617</ele>
        <time>2021-07-10T09:41:44Z</time>
      </trkpt>
      <trkpt lat="44.11131" lon="6.72416">
        <ele>2312.6007587312</ele>
        <time>2021-07-10T09:41:45Z</time>
      </trkpt>
      <trkpt lat="44.11132" lon="6.72416">
        <ele>2312.6007439048</ele>
        <time>2021-07-10T09:41:47Z</time>
      </trkpt>
      <trkpt lat="44.11134" lon="6.72414">
        <ele>2313.6007191229</ele>
        <time>2021-07-10T09:41:48Z</time>
      </trkpt>
      <trkpt lat="44.11134" lon="6.72414">
        <ele>2313.6007076423</ele>
        <time>2021-07-10T09:41:49Z</time>
      </trkpt>
      <trkpt lat="44.11135" lon="6.72413">
        <ele>2312.600703018</ele>
        <time>2021-07-10T09:41:51Z</time>
      </trkpt>
      <trkpt lat="44.11136" lon="6.72412">
        <ele>2314.6006868013</ele>
        <time>2021-07-10T09:41:52Z</time>
      </trkpt>
      <trkpt lat="44.11136" lon="6.72411">
        <ele>2313.6006721681</ele>
        <time>2021-07-10T09:41:53Z</time>
      </trkpt>
      <trkpt lat="44.11137" lon="6.72411">
        <ele>2313.6006405848</ele>
        <time>2021-07-10T09:41:55Z</time>
      </trkpt>
      <trkpt lat="44.11139" lon="6.72409">
        <ele>2313.6006354013</ele>
        <time>2021-07-10T09:41:57Z</time>
      </trkpt>
      <trkpt lat="44.1114" lon="6.72408">
        <ele>2313.6006043261</ele>
        <time>2021-07-10T09:41:58Z</time>
      </trkpt>
      <trkpt lat="44.11141" lon="6.72407">
        <ele>2313.6005845442</ele>
        <time>2021-07-10T09:41:59Z</time>
      </trkpt>
      <trkpt lat="44.11142" lon="6.72406">
        <ele>2313.6005600909</ele>
        <time>2021-07-10T09:42:01Z</time>
      </trkpt>
      <trkpt lat="44.11144" lon="6.72404">
        <ele>2312.6005344325</ele>
        <time>2021-07-10T09:42:02Z</time>
      </trkpt>
      <trkpt lat="44.11144" lon="6.72403">
        <ele>2312.6005253248</ele>
        <time>2021-07-10T09:42:03Z</time>
      </trkpt>
      <trkpt lat="44.11145" lon="6.72403">
        <ele>2313.6005120609</ele>
        <time>2021-07-10T09:42:05Z</time>
      </trkpt>
      <trkpt lat="44.11146" lon="6.72402">
        <ele>2312.6004908163</ele>
        <time>2021-07-10T09:42:05Z</time>
      </trkpt>
      <trkpt lat="44.11147" lon="6.72401">
        <ele>2313.6004855939</ele>
        <time>2021-07-10T09:42:06Z</time>
      </trkpt>
      <trkpt lat="44.11147" lon="6.724">
        <ele>2313.6004826581</ele>
        <time>2021-07-10T09:42:07Z</time>
      </trkpt>
      <trkpt lat="44.11148" lon="6.72399">
        <ele>2313.6004762965</ele>
        <time>2021-07-10T09:42:08Z</time>
      </trkpt>
      <trkpt lat="44.11148" lon="6.72398">
        <ele>2313.6004792356</ele>
        <time>2021-07-10T09:42:10Z</time>
      </trkpt>
      <trkpt lat="44.1115" lon="6.72397">
        <ele>2313.6004341881</ele>
        <time>2021-07-10T09:42:11Z</time>
      </trkpt>
      <trkpt lat="44.11151" lon="6.72396">
        <ele>2314.6004171796</ele>
        <time>2021-07-10T09:42:12Z</time>
      </trkpt>
      <trkpt lat="44.11152" lon="6.72395">
        <ele>2314.6004059939</ele>
        <time>2021-07-10T09:42:13Z</time>
      </trkpt>
      <trkpt lat="44.11152" lon="6.72395">
        <ele>2314.600396785</ele>
        <time>2021-07-10T09:42:15Z</time>
      </trkpt>
      <trkpt lat="44.11154" lon="6.72393">
        <ele>2313.6003811907</ele>
        <time>2021-07-10T09:42:17Z</time>
      </trkpt>
      <trkpt lat="44.11155" lon="6.72391">
        <ele>2313.6003678749</ele>
        <time>2021-07-10T09:42:18Z</time>
      </trkpt>
      <trkpt lat="44.11155" lon="6.7239">
        <ele>2313.6003673818</ele>
        <time>2021-07-10T09:42:19Z</time>
      </trkpt>
      <trkpt lat="44.11156" lon="6.72389">
        <ele>2313.6003692543</ele>
        <time>2021-07-10T09:42:21Z</time>
      </trkpt>
      <trkpt lat="44.11157" lon="6.72388">
        <ele>2314.6003600341</ele>
        <time>2021-07-10T09:42:22Z</time>
      </trkpt>
      <trkpt lat="44.11157" lon="6.72388">
        <ele>2314.6003551889</ele>
        <time>2021-07-10T09:42:23Z</time>
      </trkpt>
      <trkpt lat="44.11158" lon="6.72387">
        <ele>2315.6003359438</ele>
        <time>2021-07-10T09:42:24Z</time>
      </trkpt>
      <trkpt lat="44.11159" lon="6.72386">
        <ele>2315.6003238873</ele>
        <time>2021-07-10T09:42:26Z</time>
      </trkpt>
      <trkpt lat="44.11159" lon="6.72385">
        <ele>2314.600307335</ele>
        <time>2021-07-10T09:42:26Z</time>
      </trkpt>
      <trkpt lat="44.11161" lon="6.72385">
        <ele>2315.6002847748</ele>
        <time>2021-07-10T09:42:27Z</time>
      </trkpt>
      <trkpt lat="44.11161" lon="6.72384">
        <ele>2315.6002703435</ele>
        <time>2021-07-10T09:42:28Z</time>
      </trkpt>
      <trkpt lat="44.11162" lon="6.72383">
        <ele>2316.6002578506</ele>
        <time>2021-07-10T09:42:30Z</time>
      </trkpt>
      <trkpt lat="44.11163" lon="6.72382">
        <ele>2316.600221624</ele>
        <time>2021-07-10T09:42:32Z</time>
      </trkpt>
      <trkpt lat="44.11165" lon="6.72381">
        <ele>2316.6001832847</ele>
        <time>2021-07-10T09:42:33Z</time>
      </trkpt>
      <trkpt lat="44.11166" lon="6.7238">
        <ele>2316.6001652546</ele>
        <time>2021-07-10T09:42:34Z</time>
      </trkpt>
      <trkpt lat="44.11167" lon="6.72379">
        <ele>2316.6001532292</ele>
        <time>2021-07-10T09:42:35Z</time>
      </trkpt>
      <trkpt lat="44.11167" lon="6.72379">
        <ele>2316.6001409127</ele>
        <time>2021-07-10T09:42:36Z</time>
      </trkpt>
      <trkpt lat="44.11168" lon="6.72378">
        <ele>2317.6001432915</ele>
        <time>2021-07-10T09:42:37Z</time>
      </trkpt>
      <trkpt lat="44.11168" lon="6.72377">
        <ele>2316.6001358976</ele>
        <time>2021-07-10T09:42:38Z</time>
      </trkpt>
      <trkpt lat="44.11169" lon="6.72376">
        <ele>2316.6001481542</ele>
        <time>2021-07-10T09:42:39Z</time>
      </trkpt>
      <trkpt lat="44.11169" lon="6.72374">
        <ele>2316.6001665551</ele>
        <time>2021-07-10T09:42:41Z</time>
      </trkpt>
      <trkpt lat="44.11169" lon="6.72373">
        <ele>2315.6001770257</ele>
        <time>2021-07-10T09:42:42Z</time>
      </trkpt>
      <trkpt lat="44.11169" lon="6.72372">
        <ele>2316.6001963504</ele>
        <time>2021-07-10T09:42:43Z</time>
      </trkpt>
      <trkpt lat="44.1117" lon="6.72371">
        <ele>2315.6002023175</ele>
        <time>2021-07-10T09:42:45Z</time>
      </trkpt>
      <trkpt lat="44.1117" lon="6.72369">
        <ele>2314.6002003406</ele>
        <time>2021-07-10T09:42:47Z</time>
      </trkpt>
      <trkpt lat="44.11171" lon="6.72368">
        <ele>2313.6001976148</ele>
        <time>2021-07-10T09:42:48Z</time>
      </trkpt>
      <trkpt lat="44.11171" lon="6.72367">
        <ele>2313.6002155872</ele>
        <time>2021-07-10T09:42:49Z</time>
      </trkpt>
      <trkpt lat="44.11172" lon="6.72366">
        <ele>2313.6002274099</ele>
        <time>2021-07-10T09:42:51Z</time>
      </trkpt>
      <trkpt lat="44.11172" lon="6.72364">
        <ele>2312.6002248354</ele>
        <time>2021-07-10T09:42:52Z</time>
      </trkpt>
      <trkpt lat="44.11173" lon="6.72364">
        <ele>2313.6002156834</ele>
        <time>2021-07-10T09:42:53Z</time>
      </trkpt>
      <trkpt lat="44.11174" lon="6.72364">
        <ele>2314.6001856917</ele>
        <time>2021-07-10T09:42:54Z</time>
      </trkpt>
      <trkpt lat="44.11175" lon="6.72364">
        <ele>2315.6001506021</ele>
        <time>2021-07-10T09:42:56Z</time>
      </trkpt>
      <trkpt lat="44.11176" lon="6.72362">
        <ele>2315.6001292911</ele>
        <time>2021-07-10T09:42:58Z</time>
      </trkpt>
      <trkpt lat="44.11177" lon="6.72362">
        <ele>2315.6000885058</ele>
        <time>2021-07-10T09:42:58Z</time>
      </trkpt>
      <trkpt lat="44.11179" lon="6.72362">
        <ele>2316.6000307751</ele>
        <time>2021-07-10T09:42:59Z</time>
      </trkpt>
      <trkpt lat="44.1118" lon="6.72362">
        <ele>2316.5999958354</ele>
        <time>2021-07-10T09:43:01Z</time>
      </trkpt>
      <trkpt lat="44.11181" lon="6.72361">
        <ele>2317.5999520512</ele>
        <time>2021-07-10T09:43:02Z</time>
      </trkpt>
      <trkpt lat="44.11182" lon="6.72361">
        <ele>2317.5999373577</ele>
        <time>2021-07-10T09:43:03Z</time>
      </trkpt>
      <trkpt lat="44.11182" lon="6.7236">
        <ele>2317.5999378098</ele>
        <time>2021-07-10T09:43:05Z</time>
      </trkpt>
      <trkpt lat="44.11184" lon="6.7236">
        <ele>2316.5998986775</ele>
        <time>2021-07-10T09:43:07Z</time>
      </trkpt>
      <trkpt lat="44.11185" lon="6.72359">
        <ele>2316.5998598482</ele>
        <time>2021-07-10T09:43:08Z</time>
      </trkpt>
      <trkpt lat="44.11185" lon="6.72359">
        <ele>2316.5998531061</ele>
        <time>2021-07-10T09:43:09Z</time>
      </trkpt>
      <trkpt lat="44.11186" lon="6.72359">
        <ele>2316.5998162242</ele>
        <time>2021-07-10T09:43:11Z</time>
      </trkpt>
      <trkpt lat="44.11188" lon="6.7236">
        <ele>2316.599737793</ele>
        <time>2021-07-10T09:43:12Z</time>
      </trkpt>
      <trkpt lat="44.11188" lon="6.7236">
        <ele>2317.5997554905</ele>
        <time>2021-07-10T09:43:15Z</time>
      </trkpt>
      <trkpt lat="44.11187" lon="6.72361">
        <ele>2316.5997625276</ele>
        <time>2021-07-10T09:43:21Z</time>
      </trkpt>
      <trkpt lat="44.11188" lon="6.72359">
        <ele>2317.5997646495</ele>
        <time>2021-07-10T09:43:22Z</time>
      </trkpt>
      <trkpt lat="44.11189" lon="6.72357">
        <ele>2318.5997690188</ele>
        <time>2021-07-10T09:43:23Z</time>
      </trkpt>
      <trkpt lat="44.11189" lon="6.72356">
        <ele>2318.5997676876</ele>
        <time>2021-07-10T09:43:25Z</time>
      </trkpt>
      <trkpt lat="44.1119" lon="6.72354">
        <ele>2320.5997692234</ele>
        <time>2021-07-10T09:43:27Z</time>
      </trkpt>
      <trkpt lat="44.11191" lon="6.72353">
        <ele>2321.5997782567</ele>
        <time>2021-07-10T09:43:28Z</time>
      </trkpt>
      <trkpt lat="44.11191" lon="6.72351">
        <ele>2321.599778882</ele>
        <time>2021-07-10T09:43:30Z</time>
      </trkpt>
      <trkpt lat="44.11193" lon="6.72351">
        <ele>2320.5997465295</ele>
        <time>2021-07-10T09:43:32Z</time>
      </trkpt>
      <trkpt lat="44.11193" lon="6.72349">
        <ele>2320.5997593268</ele>
        <time>2021-07-10T09:43:33Z</time>
      </trkpt>
      <trkpt lat="44.11193" lon="6.72347">
        <ele>2320.5997723995</ele>
        <time>2021-07-10T09:43:34Z</time>
      </trkpt>
      <trkpt lat="44.11193" lon="6.72347">
        <ele>2319.5997875504</ele>
        <time>2021-07-10T09:43:36Z</time>
      </trkpt>
      <trkpt lat="44.11194" lon="6.72346">
        <ele>2319.5997962845</ele>
        <time>2021-07-10T09:43:37Z</time>
      </trkpt>
      <trkpt lat="44.11193" lon="6.72344">
        <ele>2319.5998246429</ele>
        <time>2021-07-10T09:43:39Z</time>
      </trkpt>
      <trkpt lat="44.11194" lon="6.72343">
        <ele>2319.5998401298</ele>
        <time>2021-07-10T09:43:41Z</time>
      </trkpt>
      <trkpt lat="44.11194" lon="6.7234">
        <ele>2319.5998847314</ele>
        <time>2021-07-10T09:43:42Z</time>
      </trkpt>
      <trkpt lat="44.11194" lon="6.7234">
        <ele>2319.5998907408</ele>
        <time>2021-07-10T09:43:43Z</time>
      </trkpt>
      <trkpt lat="44.11194" lon="6.72338">
        <ele>2318.5999008244</ele>
        <time>2021-07-10T09:43:45Z</time>
      </trkpt>
      <trkpt lat="44.11195" lon="6.72337">
        <ele>2318.5998934046</ele>
        <time>2021-07-10T09:43:47Z</time>
      </trkpt>
      <trkpt lat="44.11195" lon="6.72333">
        <ele>2318.59996918</ele>
        <time>2021-07-10T09:43:48Z</time>
      </trkpt>
      <trkpt lat="44.11195" lon="6.72332">
        <ele>2318.5999693775</ele>
        <time>2021-07-10T09:43:49Z</time>
      </trkpt>
      <trkpt lat="44.11196" lon="6.72331">
        <ele>2317.5999860653</ele>
        <time>2021-07-10T09:43:51Z</time>
      </trkpt>
      <trkpt lat="44.11196" lon="6.72328">
        <ele>2316.6000264736</ele>
        <time>2021-07-10T09:43:52Z</time>
      </trkpt>
      <trkpt lat="44.11196" lon="6.72328">
        <ele>2317.6000270952</ele>
        <time>2021-07-10T09:43:53Z</time>
      </trkpt>
      <trkpt lat="44.11196" lon="6.72327">
        <ele>2317.6000353682</ele>
        <time>2021-07-10T09:43:55Z</time>
      </trkpt>
      <trkpt lat="44.11197" lon="6.72326">
        <ele>2317.6000201733</ele>
        <time>2021-07-10T09:43:57Z</time>
      </trkpt>
      <trkpt lat="44.11198" lon="6.72323">
        <ele>2317.6000514381</ele>
        <time>2021-07-10T09:43:58Z</time>
      </trkpt>
      <trkpt lat="44.11199" lon="6.72322">
        <ele>2317.6000467382</ele>
        <time>2021-07-10T09:43:59Z</time>
      </trkpt>
      <trkpt lat="44.112" lon="6.7232">
        <ele>2317.6000387562</ele>
        <time>2021-07-10T09:44:01Z</time>
      </trkpt>
      <trkpt lat="44.11201" lon="6.72317">
        <ele>2317.6000519775</ele>
        <time>2021-07-10T09:44:02Z</time>
      </trkpt>
      <trkpt lat="44.11201" lon="6.72316">
        <ele>2317.6000547656</ele>
        <time>2021-07-10T09:44:03Z</time>
      </trkpt>
      <trkpt lat="44.11202" lon="6.72314">
        <ele>2317.6000571118</ele>
        <time>2021-07-10T09:44:05Z</time>
      </trkpt>
      <trkpt lat="44.11203" lon="6.72314">
        <ele>2317.6000437057</ele>
        <time>2021-07-10T09:44:07Z</time>
      </trkpt>
      <trkpt lat="44.11204" lon="6.72311">
        <ele>2317.6000316312</ele>
        <time>2021-07-10T09:44:08Z</time>
      </trkpt>
      <trkpt lat="44.11206" lon="6.72309">
        <ele>2317.6000178699</ele>
        <time>2021-07-10T09:44:09Z</time>
      </trkpt>
      <trkpt lat="44.11206" lon="6.72308">
        <ele>2318.6000176791</ele>
        <time>2021-07-10T09:44:11Z</time>
      </trkpt>
      <trkpt lat="44.11207" lon="6.72306">
        <ele>2319.6000121216</ele>
        <time>2021-07-10T09:44:12Z</time>
      </trkpt>
      <trkpt lat="44.11207" lon="6.72305">
        <ele>2319.6000382381</ele>
        <time>2021-07-10T09:44:13Z</time>
      </trkpt>
      <trkpt lat="44.11208" lon="6.72304">
        <ele>2319.6000384917</ele>
        <time>2021-07-10T09:44:15Z</time>
      </trkpt>
      <trkpt lat="44.11209" lon="6.72302">
        <ele>2318.6000472135</ele>
        <time>2021-07-10T09:44:17Z</time>
      </trkpt>
      <trkpt lat="44.1121" lon="6.72299">
        <ele>2319.6000445465</ele>
        <time>2021-07-10T09:44:18Z</time>
      </trkpt>
      <trkpt lat="44.11211" lon="6.72297">
        <ele>2319.6000340441</ele>
        <time>2021-07-10T09:44:19Z</time>
      </trkpt>
      <trkpt lat="44.11212" lon="6.72297">
        <ele>2319.6000242523</ele>
        <time>2021-07-10T09:44:21Z</time>
      </trkpt>
      <trkpt lat="44.11213" lon="6.72295">
        <ele>2319.5999994569</ele>
        <time>2021-07-10T09:44:22Z</time>
      </trkpt>
      <trkpt lat="44.11214" lon="6.72294">
        <ele>2319.5999990973</ele>
        <time>2021-07-10T09:44:23Z</time>
      </trkpt>
      <trkpt lat="44.11214" lon="6.72293">
        <ele>2319.599992763</ele>
        <time>2021-07-10T09:44:25Z</time>
      </trkpt>
      <trkpt lat="44.11215" lon="6.72291">
        <ele>2319.6000114435</ele>
        <time>2021-07-10T09:44:26Z</time>
      </trkpt>
      <trkpt lat="44.11216" lon="6.72289">
        <ele>2318.6000072654</ele>
        <time>2021-07-10T09:44:27Z</time>
      </trkpt>
      <trkpt lat="44.11217" lon="6.72289">
        <ele>2318.5999947697</ele>
        <time>2021-07-10T09:44:28Z</time>
      </trkpt>
      <trkpt lat="44.11217" lon="6.72287">
        <ele>2319.6000129997</ele>
        <time>2021-07-10T09:44:30Z</time>
      </trkpt>
      <trkpt lat="44.11217" lon="6.72287">
        <ele>2319.6000105171</ele>
        <time>2021-07-10T09:44:30Z</time>
      </trkpt>
      <trkpt lat="44.11218" lon="6.72285">
        <ele>2319.6000036894</ele>
        <time>2021-07-10T09:44:32Z</time>
      </trkpt>
      <trkpt lat="44.11219" lon="6.72284">
        <ele>2318.6000027524</ele>
        <time>2021-07-10T09:44:33Z</time>
      </trkpt>
      <trkpt lat="44.11219" lon="6.72283">
        <ele>2319.6000067953</ele>
        <time>2021-07-10T09:44:34Z</time>
      </trkpt>
      <trkpt lat="44.1122" lon="6.72282">
        <ele>2319.6000081405</ele>
        <time>2021-07-10T09:44:36Z</time>
      </trkpt>
      <trkpt lat="44.11221" lon="6.7228">
        <ele>2318.5999842002</ele>
        <time>2021-07-10T09:44:37Z</time>
      </trkpt>
      <trkpt lat="44.11223" lon="6.72279">
        <ele>2318.5999598621</ele>
        <time>2021-07-10T09:44:38Z</time>
      </trkpt>
      <trkpt lat="44.11224" lon="6.72278">
        <ele>2319.5999355029</ele>
        <time>2021-07-10T09:44:40Z</time>
      </trkpt>
      <trkpt lat="44.11226" lon="6.72276">
        <ele>2320.5999034857</ele>
        <time>2021-07-10T09:44:42Z</time>
      </trkpt>
      <trkpt lat="44.11227" lon="6.72273">
        <ele>2320.5999145939</ele>
        <time>2021-07-10T09:44:43Z</time>
      </trkpt>
      <trkpt lat="44.11227" lon="6.72273">
        <ele>2320.5999185909</ele>
        <time>2021-07-10T09:44:44Z</time>
      </trkpt>
      <trkpt lat="44.11227" lon="6.72272">
        <ele>2319.5999102775</ele>
        <time>2021-07-10T09:44:46Z</time>
      </trkpt>
      <trkpt lat="44.11229" lon="6.72269">
        <ele>2320.5999181841</ele>
        <time>2021-07-10T09:44:47Z</time>
      </trkpt>
      <trkpt lat="44.11229" lon="6.72268">
        <ele>2321.5999187204</ele>
        <time>2021-07-10T09:44:48Z</time>
      </trkpt>
      <trkpt lat="44.1123" lon="6.72267">
        <ele>2321.5999033796</ele>
        <time>2021-07-10T09:44:50Z</time>
      </trkpt>
      <trkpt lat="44.11231" lon="6.72266">
        <ele>2321.5998873278</ele>
        <time>2021-07-10T09:44:52Z</time>
      </trkpt>
      <trkpt lat="44.11232" lon="6.72263">
        <ele>2321.5999149934</ele>
        <time>2021-07-10T09:44:53Z</time>
      </trkpt>
      <trkpt lat="44.11232" lon="6.72261">
        <ele>2322.5999473873</ele>
        <time>2021-07-10T09:44:54Z</time>
      </trkpt>
      <trkpt lat="44.11232" lon="6.7226">
        <ele>2322.5999641075</ele>
        <time>2021-07-10T09:44:56Z</time>
      </trkpt>
      <trkpt lat="44.11233" lon="6.72257">
        <ele>2321.5999737923</ele>
        <time>2021-07-10T09:44:57Z</time>
      </trkpt>
      <trkpt lat="44.11234" lon="6.72255">
        <ele>2321.5999746206</ele>
        <time>2021-07-10T09:44:58Z</time>
      </trkpt>
      <trkpt lat="44.11235" lon="6.72254">
        <ele>2321.599959356</ele>
        <time>2021-07-10T09:45:00Z</time>
      </trkpt>
      <trkpt lat="44.11236" lon="6.72251">
        <ele>2321.5999732169</ele>
        <time>2021-07-10T09:45:02Z</time>
      </trkpt>
      <trkpt lat="44.11238" lon="6.72249">
        <ele>2321.5999524943</ele>
        <time>2021-07-10T09:45:03Z</time>
      </trkpt>
      <trkpt lat="44.11238" lon="6.72248">
        <ele>2321.5999639925</ele>
        <time>2021-07-10T09:45:04Z</time>
      </trkpt>
      <trkpt lat="44.11238" lon="6.72247">
        <ele>2321.5999838346</ele>
        <time>2021-07-10T09:45:06Z</time>
      </trkpt>
      <trkpt lat="44.11238" lon="6.72245">
        <ele>2322.6000250103</ele>
        <time>2021-07-10T09:45:07Z</time>
      </trkpt>
      <trkpt lat="44.11239" lon="6.72244">
        <ele>2321.6000104046</ele>
        <time>2021-07-10T09:45:08Z</time>
      </trkpt>
      <trkpt lat="44.1124" lon="6.72242">
        <ele>2321.5999915874</ele>
        <time>2021-07-10T09:45:10Z</time>
      </trkpt>
      <trkpt lat="44.11242" lon="6.72239">
        <ele>2321.5999702055</ele>
        <time>2021-07-10T09:45:12Z</time>
      </trkpt>
      <trkpt lat="44.11244" lon="6.72238">
        <ele>2321.5999414187</ele>
        <time>2021-07-10T09:45:13Z</time>
      </trkpt>
      <trkpt lat="44.11245" lon="6.72237">
        <ele>2322.5999162564</ele>
        <time>2021-07-10T09:45:14Z</time>
      </trkpt>
      <trkpt lat="44.11246" lon="6.72236">
        <ele>2321.5998827857</ele>
        <time>2021-07-10T09:45:16Z</time>
      </trkpt>
      <trkpt lat="44.11248" lon="6.72233">
        <ele>2321.5998730632</ele>
        <time>2021-07-10T09:45:17Z</time>
      </trkpt>
      <trkpt lat="44.11249" lon="6.72233">
        <ele>2321.599847254</ele>
        <time>2021-07-10T09:45:18Z</time>
      </trkpt>
      <trkpt lat="44.1125" lon="6.72231">
        <ele>2321.5998479626</ele>
        <time>2021-07-10T09:45:19Z</time>
      </trkpt>
      <trkpt lat="44.1125" lon="6.7223">
        <ele>2321.5998509969</ele>
        <time>2021-07-10T09:45:20Z</time>
      </trkpt>
      <trkpt lat="44.11251" lon="6.7223">
        <ele>2321.5998242088</ele>
        <time>2021-07-10T09:45:21Z</time>
      </trkpt>
      <trkpt lat="44.11251" lon="6.7223">
        <ele>2320.5998224116</ele>
        <time>2021-07-10T09:45:22Z</time>
      </trkpt>
      <trkpt lat="44.11253" lon="6.72229">
        <ele>2320.5997823995</ele>
        <time>2021-07-10T09:45:23Z</time>
      </trkpt>
      <trkpt lat="44.11253" lon="6.72228">
        <ele>2320.5997688333</ele>
        <time>2021-07-10T09:45:24Z</time>
      </trkpt>
      <trkpt lat="44.11254" lon="6.72227">
        <ele>2320.5997648791</ele>
        <time>2021-07-10T09:45:26Z</time>
      </trkpt>
      <trkpt lat="44.11255" lon="6.72225">
        <ele>2320.5997709989</ele>
        <time>2021-07-10T09:45:27Z</time>
      </trkpt>
      <trkpt lat="44.11256" lon="6.72224">
        <ele>2320.5997550131</ele>
        <time>2021-07-10T09:45:28Z</time>
      </trkpt>
      <trkpt lat="44.11257" lon="6.72222">
        <ele>2320.5997618769</ele>
        <time>2021-07-10T09:45:30Z</time>
      </trkpt>
      <trkpt lat="44.11257" lon="6.72221">
        <ele>2320.5997570732</ele>
        <time>2021-07-10T09:45:32Z</time>
      </trkpt>
      <trkpt lat="44.11258" lon="6.72221">
        <ele>2323.5997452536</ele>
        <time>2021-07-10T09:45:33Z</time>
      </trkpt>
      <trkpt lat="44.11259" lon="6.7222">
        <ele>2323.5997358565</ele>
        <time>2021-07-10T09:45:34Z</time>
      </trkpt>
      <trkpt lat="44.11259" lon="6.7222">
        <ele>2323.5997033929</ele>
        <time>2021-07-10T09:45:36Z</time>
      </trkpt>
      <trkpt lat="44.11261" lon="6.72219">
        <ele>2322.5996816504</ele>
        <time>2021-07-10T09:45:37Z</time>
      </trkpt>
      <trkpt lat="44.11261" lon="6.72217">
        <ele>2322.5997076478</ele>
        <time>2021-07-10T09:45:38Z</time>
      </trkpt>
      <trkpt lat="44.11261" lon="6.72217">
        <ele>2322.5997099359</ele>
        <time>2021-07-10T09:45:40Z</time>
      </trkpt>
      <trkpt lat="44.11261" lon="6.72214">
        <ele>2322.5997413401</ele>
        <time>2021-07-10T09:45:42Z</time>
      </trkpt>
      <trkpt lat="44.11263" lon="6.72212">
        <ele>2321.5997363416</ele>
        <time>2021-07-10T09:45:43Z</time>
      </trkpt>
      <trkpt lat="44.11263" lon="6.72211">
        <ele>2321.5997469068</ele>
        <time>2021-07-10T09:45:44Z</time>
      </trkpt>
      <trkpt lat="44.11263" lon="6.72209">
        <ele>2321.5997567113</ele>
        <time>2021-07-10T09:45:46Z</time>
      </trkpt>
      <trkpt lat="44.11265" lon="6.72208">
        <ele>2322.5997234373</ele>
        <time>2021-07-10T09:45:47Z</time>
      </trkpt>
      <trkpt lat="44.11266" lon="6.72207">
        <ele>2322.5997055142</ele>
        <time>2021-07-10T09:45:48Z</time>
      </trkpt>
      <trkpt lat="44.11267" lon="6.72206">
        <ele>2322.599699513</ele>
        <time>2021-07-10T09:45:49Z</time>
      </trkpt>
      <trkpt lat="44.11267" lon="6.72206">
        <ele>2322.5996804185</ele>
        <time>2021-07-10T09:45:50Z</time>
      </trkpt>
      <trkpt lat="44.11268" lon="6.72206">
        <ele>2321.5996525427</ele>
        <time>2021-07-10T09:45:51Z</time>
      </trkpt>
      <trkpt lat="44.11269" lon="6.72206">
        <ele>2320.5996355877</ele>
        <time>2021-07-10T09:45:52Z</time>
      </trkpt>
      <trkpt lat="44.1127" lon="6.72204">
        <ele>2321.5996315595</ele>
        <time>2021-07-10T09:45:53Z</time>
      </trkpt>
      <trkpt lat="44.11271" lon="6.72202">
        <ele>2321.5996100516</ele>
        <time>2021-07-10T09:45:54Z</time>
      </trkpt>
      <trkpt lat="44.11272" lon="6.72201">
        <ele>2321.5995906177</ele>
        <time>2021-07-10T09:45:55Z</time>
      </trkpt>
      <trkpt lat="44.11273" lon="6.722">
        <ele>2321.5995991586</ele>
        <time>2021-07-10T09:45:57Z</time>
      </trkpt>
      <trkpt lat="44.11274" lon="6.72197">
        <ele>2320.5996141633</ele>
        <time>2021-07-10T09:45:58Z</time>
      </trkpt>
      <trkpt lat="44.11275" lon="6.72196">
        <ele>2320.5995885985</ele>
        <time>2021-07-10T09:45:59Z</time>
      </trkpt>
      <trkpt lat="44.11275" lon="6.72195">
        <ele>2319.5995845439</ele>
        <time>2021-07-10T09:46:00Z</time>
      </trkpt>
      <trkpt lat="44.11276" lon="6.72195">
        <ele>2319.5995763505</ele>
        <time>2021-07-10T09:46:01Z</time>
      </trkpt>
      <trkpt lat="44.11277" lon="6.72194">
        <ele>2320.5995737082</ele>
        <time>2021-07-10T09:46:02Z</time>
      </trkpt>
      <trkpt lat="44.11277" lon="6.72193">
        <ele>2321.5995644793</ele>
        <time>2021-07-10T09:46:03Z</time>
      </trkpt>
      <trkpt lat="44.11277" lon="6.72192">
        <ele>2322.5995872022</ele>
        <time>2021-07-10T09:46:05Z</time>
      </trkpt>
      <trkpt lat="44.11278" lon="6.72192">
        <ele>2321.5995439217</ele>
        <time>2021-07-10T09:46:07Z</time>
      </trkpt>
      <trkpt lat="44.11279" lon="6.72191">
        <ele>2321.5995480939</ele>
        <time>2021-07-10T09:46:08Z</time>
      </trkpt>
      <trkpt lat="44.11279" lon="6.7219">
        <ele>2321.5995362603</ele>
        <time>2021-07-10T09:46:09Z</time>
      </trkpt>
      <trkpt lat="44.1128" lon="6.72189">
        <ele>2321.59953101</ele>
        <time>2021-07-10T09:46:11Z</time>
      </trkpt>
      <trkpt lat="44.11281" lon="6.72188">
        <ele>2321.5995234657</ele>
        <time>2021-07-10T09:46:12Z</time>
      </trkpt>
      <trkpt lat="44.11281" lon="6.72188">
        <ele>2320.5995029662</ele>
        <time>2021-07-10T09:46:15Z</time>
      </trkpt>
      <trkpt lat="44.11282" lon="6.72188">
        <ele>2320.5994844187</ele>
        <time>2021-07-10T09:46:17Z</time>
      </trkpt>
      <trkpt lat="44.11283" lon="6.72187">
        <ele>2320.599478018</ele>
        <time>2021-07-10T09:46:18Z</time>
      </trkpt>
      <trkpt lat="44.11283" lon="6.72185">
        <ele>2320.5994807706</ele>
        <time>2021-07-10T09:46:19Z</time>
      </trkpt>
      <trkpt lat="44.11283" lon="6.72184">
        <ele>2321.5994993832</ele>
        <time>2021-07-10T09:46:20Z</time>
      </trkpt>
      <trkpt lat="44.11283" lon="6.72183">
        <ele>2321.5995312477</ele>
        <time>2021-07-10T09:46:21Z</time>
      </trkpt>
      <trkpt lat="44.11283" lon="6.72181">
        <ele>2322.599572728</ele>
        <time>2021-07-10T09:46:22Z</time>
      </trkpt>
      <trkpt lat="44.11283" lon="6.7218">
        <ele>2322.5995848473</ele>
        <time>2021-07-10T09:46:23Z</time>
      </trkpt>
      <trkpt lat="44.11283" lon="6.72179">
        <ele>2323.5995959057</ele>
        <time>2021-07-10T09:46:24Z</time>
      </trkpt>
      <trkpt lat="44.11284" lon="6.72177">
        <ele>2323.5996057548</ele>
        <time>2021-07-10T09:46:26Z</time>
      </trkpt>
      <trkpt lat="44.11284" lon="6.72176">
        <ele>2323.5996270117</ele>
        <time>2021-07-10T09:46:26Z</time>
      </trkpt>
      <trkpt lat="44.11284" lon="6.72175">
        <ele>2324.5996351735</ele>
        <time>2021-07-10T09:46:27Z</time>
      </trkpt>
      <trkpt lat="44.11285" lon="6.72174">
        <ele>2324.5996168419</ele>
        <time>2021-07-10T09:46:28Z</time>
      </trkpt>
      <trkpt lat="44.11285" lon="6.72173">
        <ele>2325.59963824</ele>
        <time>2021-07-10T09:46:29Z</time>
      </trkpt>
      <trkpt lat="44.11285" lon="6.72172">
        <ele>2324.5996460094</ele>
        <time>2021-07-10T09:46:30Z</time>
      </trkpt>
      <trkpt lat="44.11285" lon="6.72171">
        <ele>2324.5996734984</ele>
        <time>2021-07-10T09:46:31Z</time>
      </trkpt>
      <trkpt lat="44.11285" lon="6.7217">
        <ele>2325.5997019138</ele>
        <time>2021-07-10T09:46:32Z</time>
      </trkpt>
      <trkpt lat="44.11285" lon="6.72169">
        <ele>2325.5997073887</ele>
        <time>2021-07-10T09:46:33Z</time>
      </trkpt>
      <trkpt lat="44.11286" lon="6.72168">
        <ele>2325.5997081966</ele>
        <time>2021-07-10T09:46:34Z</time>
      </trkpt>
      <trkpt lat="44.11286" lon="6.72167">
        <ele>2326.5997097512</ele>
        <time>2021-07-10T09:46:35Z</time>
      </trkpt>
      <trkpt lat="44.11287" lon="6.72167">
        <ele>2326.5996830595</ele>
        <time>2021-07-10T09:46:37Z</time>
      </trkpt>
      <trkpt lat="44.11288" lon="6.72166">
        <ele>2327.5996492686</ele>
        <time>2021-07-10T09:46:38Z</time>
      </trkpt>
      <trkpt lat="44.11289" lon="6.72166">
        <ele>2327.5996352838</ele>
        <time>2021-07-10T09:46:39Z</time>
      </trkpt>
      <trkpt lat="44.11289" lon="6.72165">
        <ele>2328.5996496583</ele>
        <time>2021-07-10T09:46:41Z</time>
      </trkpt>
      <trkpt lat="44.1129" lon="6.72164">
        <ele>2328.5996423647</ele>
        <time>2021-07-10T09:46:42Z</time>
      </trkpt>
      <trkpt lat="44.1129" lon="6.72163">
        <ele>2328.5996425118</ele>
        <time>2021-07-10T09:46:43Z</time>
      </trkpt>
      <trkpt lat="44.11291" lon="6.72162">
        <ele>2328.599622097</ele>
        <time>2021-07-10T09:46:45Z</time>
      </trkpt>
      <trkpt lat="44.11293" lon="6.72161">
        <ele>2328.5995895326</ele>
        <time>2021-07-10T09:46:47Z</time>
      </trkpt>
      <trkpt lat="44.11294" lon="6.7216">
        <ele>2328.5995484031</ele>
        <time>2021-07-10T09:46:48Z</time>
      </trkpt>
      <trkpt lat="44.11295" lon="6.72159">
        <ele>2327.5995488338</ele>
        <time>2021-07-10T09:46:49Z</time>
      </trkpt>
      <trkpt lat="44.11295" lon="6.72158">
        <ele>2328.5995457227</ele>
        <time>2021-07-10T09:46:51Z</time>
      </trkpt>
      <trkpt lat="44.11296" lon="6.72158">
        <ele>2327.5995230302</ele>
        <time>2021-07-10T09:46:52Z</time>
      </trkpt>
      <trkpt lat="44.11296" lon="6.72159">
        <ele>2325.5995042301</ele>
        <time>2021-07-10T09:46:59Z</time>
      </trkpt>
      <trkpt lat="44.11296" lon="6.72159">
        <ele>2326.5994954463</ele>
        <time>2021-07-10T09:47:08Z</time>
      </trkpt>
      <trkpt lat="44.11298" lon="6.72159">
        <ele>2328.599450759</ele>
        <time>2021-07-10T09:47:09Z</time>
      </trkpt>
      <trkpt lat="44.11298" lon="6.72159">
        <ele>2328.5994402296</ele>
        <time>2021-07-10T09:47:11Z</time>
      </trkpt>
      <trkpt lat="44.11298" lon="6.72157">
        <ele>2330.599491402</ele>
        <time>2021-07-10T09:47:12Z</time>
      </trkpt>
      <trkpt lat="44.11298" lon="6.72156">
        <ele>2330.5995046777</ele>
        <time>2021-07-10T09:47:13Z</time>
      </trkpt>
      <trkpt lat="44.11297" lon="6.72155">
        <ele>2330.5995301812</ele>
        <time>2021-07-10T09:47:15Z</time>
      </trkpt>
      <trkpt lat="44.11298" lon="6.72155">
        <ele>2327.5995013773</ele>
        <time>2021-07-10T09:47:16Z</time>
      </trkpt>
      <trkpt lat="44.11298" lon="6.72154">
        <ele>2326.5995201661</ele>
        <time>2021-07-10T09:47:22Z</time>
      </trkpt>
      <trkpt lat="44.11298" lon="6.72152">
        <ele>2325.5995562932</ele>
        <time>2021-07-10T09:47:22Z</time>
      </trkpt>
      <trkpt lat="44.11298" lon="6.72151">
        <ele>2325.5995701088</ele>
        <time>2021-07-10T09:47:23Z</time>
      </trkpt>
      <trkpt lat="44.11299" lon="6.7215">
        <ele>2324.5995752945</ele>
        <time>2021-07-10T09:47:24Z</time>
      </trkpt>
      <trkpt lat="44.113" lon="6.72148">
        <ele>2325.5995687968</ele>
        <time>2021-07-10T09:47:25Z</time>
      </trkpt>
      <trkpt lat="44.113" lon="6.72147">
        <ele>2325.5995793354</ele>
        <time>2021-07-10T09:47:26Z</time>
      </trkpt>
      <trkpt lat="44.11301" lon="6.72145">
        <ele>2326.5995951197</ele>
        <time>2021-07-10T09:47:27Z</time>
      </trkpt>
      <trkpt lat="44.11302" lon="6.72144">
        <ele>2326.5995784384</ele>
        <time>2021-07-10T09:47:28Z</time>
      </trkpt>
      <trkpt lat="44.11302" lon="6.72143">
        <ele>2327.599580489</ele>
        <time>2021-07-10T09:47:29Z</time>
      </trkpt>
      <trkpt lat="44.11303" lon="6.72142">
        <ele>2327.5995685345</ele>
        <time>2021-07-10T09:47:30Z</time>
      </trkpt>
      <trkpt lat="44.11304" lon="6.72141">
        <ele>2327.5995633903</ele>
        <time>2021-07-10T09:47:31Z</time>
      </trkpt>
      <trkpt lat="44.11305" lon="6.7214">
        <ele>2326.599547508</ele>
        <time>2021-07-10T09:47:32Z</time>
      </trkpt>
      <trkpt lat="44.11305" lon="6.72139">
        <ele>2326.5995432532</ele>
        <time>2021-07-10T09:47:33Z</time>
      </trkpt>
      <trkpt lat="44.11306" lon="6.72137">
        <ele>2326.5995417629</ele>
        <time>2021-07-10T09:47:34Z</time>
      </trkpt>
      <trkpt lat="44.11307" lon="6.72135">
        <ele>2327.5995607591</ele>
        <time>2021-07-10T09:47:35Z</time>
      </trkpt>
      <trkpt lat="44.11307" lon="6.72134">
        <ele>2327.5995719954</ele>
        <time>2021-07-10T09:47:37Z</time>
      </trkpt>
      <trkpt lat="44.11307" lon="6.72133">
        <ele>2328.5995869013</ele>
        <time>2021-07-10T09:47:38Z</time>
      </trkpt>
      <trkpt lat="44.11307" lon="6.72135">
        <ele>2327.599570325</ele>
        <time>2021-07-10T09:47:39Z</time>
      </trkpt>
      <trkpt lat="44.11307" lon="6.72135">
        <ele>2327.5995677247</ele>
        <time>2021-07-10T09:47:47Z</time>
      </trkpt>
      <trkpt lat="44.11307" lon="6.72133">
        <ele>2327.5995936122</ele>
        <time>2021-07-10T09:47:48Z</time>
      </trkpt>
      <trkpt lat="44.11308" lon="6.72132">
        <ele>2327.5995836406</ele>
        <time>2021-07-10T09:47:49Z</time>
      </trkpt>
      <trkpt lat="44.11308" lon="6.72131">
        <ele>2326.5995675403</ele>
        <time>2021-07-10T09:47:51Z</time>
      </trkpt>
      <trkpt lat="44.11309" lon="6.72129">
        <ele>2325.5995910144</ele>
        <time>2021-07-10T09:47:52Z</time>
      </trkpt>
      <trkpt lat="44.11309" lon="6.72129">
        <ele>2325.5995931075</ele>
        <time>2021-07-10T09:47:55Z</time>
      </trkpt>
      <trkpt lat="44.11309" lon="6.72127">
        <ele>2325.5996228508</ele>
        <time>2021-07-10T09:47:57Z</time>
      </trkpt>
      <trkpt lat="44.1131" lon="6.72124">
        <ele>2326.5996282519</ele>
        <time>2021-07-10T09:47:58Z</time>
      </trkpt>
      <trkpt lat="44.11311" lon="6.72123">
        <ele>2325.599645234</ele>
        <time>2021-07-10T09:47:59Z</time>
      </trkpt>
      <trkpt lat="44.11311" lon="6.72121">
        <ele>2326.5996693556</ele>
        <time>2021-07-10T09:48:01Z</time>
      </trkpt>
      <trkpt lat="44.1131" lon="6.72119">
        <ele>2326.5997309945</ele>
        <time>2021-07-10T09:48:02Z</time>
      </trkpt>
      <trkpt lat="44.1131" lon="6.72118">
        <ele>2326.5997536323</ele>
        <time>2021-07-10T09:48:03Z</time>
      </trkpt>
      <trkpt lat="44.1131" lon="6.72117">
        <ele>2326.5997723934</ele>
        <time>2021-07-10T09:48:05Z</time>
      </trkpt>
      <trkpt lat="44.1131" lon="6.72116">
        <ele>2327.5997973699</ele>
        <time>2021-07-10T09:48:06Z</time>
      </trkpt>
      <trkpt lat="44.1131" lon="6.72115">
        <ele>2327.5998065156</ele>
        <time>2021-07-10T09:48:07Z</time>
      </trkpt>
      <trkpt lat="44.1131" lon="6.72114">
        <ele>2326.5998356769</ele>
        <time>2021-07-10T09:48:10Z</time>
      </trkpt>
      <trkpt lat="44.1131" lon="6.72112">
        <ele>2326.5998627217</ele>
        <time>2021-07-10T09:48:12Z</time>
      </trkpt>
      <trkpt lat="44.11311" lon="6.72109">
        <ele>2328.5998714735</ele>
        <time>2021-07-10T09:48:13Z</time>
      </trkpt>
      <trkpt lat="44.11312" lon="6.72109">
        <ele>2328.5998590614</ele>
        <time>2021-07-10T09:48:16Z</time>
      </trkpt>
      <trkpt lat="44.11313" lon="6.72108">
        <ele>2327.599845849</ele>
        <time>2021-07-10T09:48:17Z</time>
      </trkpt>
      <trkpt lat="44.11313" lon="6.72107">
        <ele>2327.5998323132</ele>
        <time>2021-07-10T09:48:18Z</time>
      </trkpt>
      <trkpt lat="44.11314" lon="6.72106">
        <ele>2327.5998325562</ele>
        <time>2021-07-10T09:48:19Z</time>
      </trkpt>
      <trkpt lat="44.11315" lon="6.72105">
        <ele>2327.5998312826</ele>
        <time>2021-07-10T09:48:21Z</time>
      </trkpt>
      <trkpt lat="44.11316" lon="6.72102">
        <ele>2327.5998221529</ele>
        <time>2021-07-10T09:48:22Z</time>
      </trkpt>
      <trkpt lat="44.11317" lon="6.721">
        <ele>2327.5998156464</ele>
        <time>2021-07-10T09:48:23Z</time>
      </trkpt>
      <trkpt lat="44.11318" lon="6.72099">
        <ele>2327.5998196574</ele>
        <time>2021-07-10T09:48:24Z</time>
      </trkpt>
      <trkpt lat="44.11319" lon="6.72098">
        <ele>2327.599802349</ele>
        <time>2021-07-10T09:48:26Z</time>
      </trkpt>
      <trkpt lat="44.11318" lon="6.72096">
        <ele>2328.5998621434</ele>
        <time>2021-07-10T09:48:27Z</time>
      </trkpt>
      <trkpt lat="44.11318" lon="6.72095">
        <ele>2328.5998784583</ele>
        <time>2021-07-10T09:48:28Z</time>
      </trkpt>
      <trkpt lat="44.11319" lon="6.72093">
        <ele>2328.5998965119</ele>
        <time>2021-07-10T09:48:29Z</time>
      </trkpt>
      <trkpt lat="44.11319" lon="6.72092">
        <ele>2328.5999046318</ele>
        <time>2021-07-10T09:48:31Z</time>
      </trkpt>
      <trkpt lat="44.11319" lon="6.72091">
        <ele>2327.5999280733</ele>
        <time>2021-07-10T09:48:32Z</time>
      </trkpt>
      <trkpt lat="44.1132" lon="6.7209">
        <ele>2328.5999268678</ele>
        <time>2021-07-10T09:48:33Z</time>
      </trkpt>
      <trkpt lat="44.1132" lon="6.72089">
        <ele>2328.5999247035</ele>
        <time>2021-07-10T09:48:34Z</time>
      </trkpt>
      <trkpt lat="44.11321" lon="6.72088">
        <ele>2328.5999223451</ele>
        <time>2021-07-10T09:48:36Z</time>
      </trkpt>
      <trkpt lat="44.11321" lon="6.72087">
        <ele>2329.5999338256</ele>
        <time>2021-07-10T09:48:37Z</time>
      </trkpt>
      <trkpt lat="44.11321" lon="6.72086">
        <ele>2328.5999307326</ele>
        <time>2021-07-10T09:48:38Z</time>
      </trkpt>
      <trkpt lat="44.11322" lon="6.72085">
        <ele>2328.59993533</ele>
        <time>2021-07-10T09:48:40Z</time>
      </trkpt>
      <trkpt lat="44.11323" lon="6.72084">
        <ele>2328.5999273216</ele>
        <time>2021-07-10T09:48:40Z</time>
      </trkpt>
      <trkpt lat="44.11323" lon="6.72083">
        <ele>2328.5999198433</ele>
        <time>2021-07-10T09:48:42Z</time>
      </trkpt>
      <trkpt lat="44.11325" lon="6.72082">
        <ele>2328.5998902513</ele>
        <time>2021-07-10T09:48:43Z</time>
      </trkpt>
      <trkpt lat="44.11325" lon="6.72081">
        <ele>2329.5999032073</ele>
        <time>2021-07-10T09:48:44Z</time>
      </trkpt>
      <trkpt lat="44.11326" lon="6.7208">
        <ele>2329.5998947738</ele>
        <time>2021-07-10T09:48:45Z</time>
      </trkpt>
      <trkpt lat="44.11326" lon="6.72079">
        <ele>2329.599892454</ele>
        <time>2021-07-10T09:48:46Z</time>
      </trkpt>
      <trkpt lat="44.11327" lon="6.72077">
        <ele>2330.5998893821</ele>
        <time>2021-07-10T09:48:47Z</time>
      </trkpt>
      <trkpt lat="44.11328" lon="6.72077">
        <ele>2330.5998825281</ele>
        <time>2021-07-10T09:48:48Z</time>
      </trkpt>
      <trkpt lat="44.11328" lon="6.72076">
        <ele>2329.5998834193</ele>
        <time>2021-07-10T09:48:49Z</time>
      </trkpt>
      <trkpt lat="44.11329" lon="6.72075">
        <ele>2329.5998725822</ele>
        <time>2021-07-10T09:48:50Z</time>
      </trkpt>
      <trkpt lat="44.11329" lon="6.72075">
        <ele>2329.5998659138</ele>
        <time>2021-07-10T09:48:52Z</time>
      </trkpt>
      <trkpt lat="44.11329" lon="6.72073">
        <ele>2329.5998926826</ele>
        <time>2021-07-10T09:48:53Z</time>
      </trkpt>
      <trkpt lat="44.11329" lon="6.72071">
        <ele>2328.5999125342</ele>
        <time>2021-07-10T09:48:54Z</time>
      </trkpt>
      <trkpt lat="44.1133" lon="6.72071">
        <ele>2328.5998945578</ele>
        <time>2021-07-10T09:48:56Z</time>
      </trkpt>
      <trkpt lat="44.11331" lon="6.72068">
        <ele>2328.5999101244</ele>
        <time>2021-07-10T09:48:57Z</time>
      </trkpt>
      <trkpt lat="44.11331" lon="6.72067">
        <ele>2328.5999331065</ele>
        <time>2021-07-10T09:48:58Z</time>
      </trkpt>
      <trkpt lat="44.11332" lon="6.72065">
        <ele>2328.5999261256</ele>
        <time>2021-07-10T09:49:00Z</time>
      </trkpt>
      <trkpt lat="44.11333" lon="6.72065">
        <ele>2328.5999112463</ele>
        <time>2021-07-10T09:49:02Z</time>
      </trkpt>
      <trkpt lat="44.11333" lon="6.72067">
        <ele>2328.5998636002</ele>
        <time>2021-07-10T09:49:03Z</time>
      </trkpt>
      <trkpt lat="44.11333" lon="6.72067">
        <ele>2328.5998656517</ele>
        <time>2021-07-10T09:49:07Z</time>
      </trkpt>
      <trkpt lat="44.11333" lon="6.72064">
        <ele>2330.5999213122</ele>
        <time>2021-07-10T09:49:08Z</time>
      </trkpt>
      <trkpt lat="44.11333" lon="6.72063">
        <ele>2330.5999275431</ele>
        <time>2021-07-10T09:49:09Z</time>
      </trkpt>
      <trkpt lat="44.11333" lon="6.72061">
        <ele>2331.5999583814</ele>
        <time>2021-07-10T09:49:11Z</time>
      </trkpt>
      <trkpt lat="44.11334" lon="6.7206">
        <ele>2331.5999561457</ele>
        <time>2021-07-10T09:49:13Z</time>
      </trkpt>
      <trkpt lat="44.11334" lon="6.72059">
        <ele>2331.5999807933</ele>
        <time>2021-07-10T09:49:15Z</time>
      </trkpt>
      <trkpt lat="44.11335" lon="6.72055">
        <ele>2331.6000123032</ele>
        <time>2021-07-10T09:49:17Z</time>
      </trkpt>
      <trkpt lat="44.11336" lon="6.72053">
        <ele>2329.6000249613</ele>
        <time>2021-07-10T09:49:18Z</time>
      </trkpt>
      <trkpt lat="44.11336" lon="6.72052">
        <ele>2329.6000420209</ele>
        <time>2021-07-10T09:49:19Z</time>
      </trkpt>
      <trkpt lat="44.11336" lon="6.72051">
        <ele>2329.6000622962</ele>
        <time>2021-07-10T09:49:21Z</time>
      </trkpt>
      <trkpt lat="44.11337" lon="6.7205">
        <ele>2329.6000517573</ele>
        <time>2021-07-10T09:49:22Z</time>
      </trkpt>
      <trkpt lat="44.11337" lon="6.72049">
        <ele>2329.6000690183</ele>
        <time>2021-07-10T09:49:23Z</time>
      </trkpt>
      <trkpt lat="44.11337" lon="6.72048">
        <ele>2330.600074051</ele>
        <time>2021-07-10T09:49:25Z</time>
      </trkpt>
      <trkpt lat="44.11338" lon="6.72047">
        <ele>2330.6000691482</ele>
        <time>2021-07-10T09:49:27Z</time>
      </trkpt>
      <trkpt lat="44.11339" lon="6.72045">
        <ele>2330.6000503155</ele>
        <time>2021-07-10T09:49:28Z</time>
      </trkpt>
      <trkpt lat="44.11339" lon="6.72044">
        <ele>2330.6000606667</ele>
        <time>2021-07-10T09:49:29Z</time>
      </trkpt>
      <trkpt lat="44.11339" lon="6.72043">
        <ele>2330.6000697952</ele>
        <time>2021-07-10T09:49:31Z</time>
      </trkpt>
      <trkpt lat="44.11341" lon="6.72041">
        <ele>2329.6000766325</ele>
        <time>2021-07-10T09:49:32Z</time>
      </trkpt>
      <trkpt lat="44.11341" lon="6.7204">
        <ele>2329.6000770309</ele>
        <time>2021-07-10T09:49:33Z</time>
      </trkpt>
      <trkpt lat="44.11341" lon="6.72039">
        <ele>2329.6000816692</ele>
        <time>2021-07-10T09:49:35Z</time>
      </trkpt>
      <trkpt lat="44.11342" lon="6.72036">
        <ele>2328.6001214453</ele>
        <time>2021-07-10T09:49:37Z</time>
      </trkpt>
      <trkpt lat="44.11342" lon="6.72034">
        <ele>2327.6001632513</ele>
        <time>2021-07-10T09:49:38Z</time>
      </trkpt>
      <trkpt lat="44.11341" lon="6.72033">
        <ele>2327.6001919195</ele>
        <time>2021-07-10T09:49:39Z</time>
      </trkpt>
      <trkpt lat="44.11341" lon="6.72032">
        <ele>2327.6002240457</ele>
        <time>2021-07-10T09:49:41Z</time>
      </trkpt>
      <trkpt lat="44.11341" lon="6.7203">
        <ele>2326.6002407658</ele>
        <time>2021-07-10T09:49:42Z</time>
      </trkpt>
      <trkpt lat="44.11342" lon="6.72028">
        <ele>2327.6002609366</ele>
        <time>2021-07-10T09:49:43Z</time>
      </trkpt>
      <trkpt lat="44.11342" lon="6.72028">
        <ele>2327.6002654021</ele>
        <time>2021-07-10T09:49:45Z</time>
      </trkpt>
      <trkpt lat="44.11343" lon="6.72026">
        <ele>2326.6002699703</ele>
        <time>2021-07-10T09:49:46Z</time>
      </trkpt>
      <trkpt lat="44.11343" lon="6.72024">
        <ele>2326.6002802068</ele>
        <time>2021-07-10T09:49:47Z</time>
      </trkpt>
      <trkpt lat="44.11343" lon="6.72023">
        <ele>2326.6002931177</ele>
        <time>2021-07-10T09:49:48Z</time>
      </trkpt>
      <trkpt lat="44.11344" lon="6.72022">
        <ele>2326.6002914151</ele>
        <time>2021-07-10T09:49:50Z</time>
      </trkpt>
      <trkpt lat="44.11345" lon="6.7202">
        <ele>2328.6003141472</ele>
        <time>2021-07-10T09:49:52Z</time>
      </trkpt>
      <trkpt lat="44.11345" lon="6.72017">
        <ele>2327.6003487974</ele>
        <time>2021-07-10T09:49:53Z</time>
      </trkpt>
      <trkpt lat="44.11344" lon="6.72016">
        <ele>2326.6003822699</ele>
        <time>2021-07-10T09:49:55Z</time>
      </trkpt>
      <trkpt lat="44.11345" lon="6.72015">
        <ele>2326.6003926456</ele>
        <time>2021-07-10T09:49:56Z</time>
      </trkpt>
      <trkpt lat="44.11346" lon="6.72014">
        <ele>2327.6003918287</ele>
        <time>2021-07-10T09:49:58Z</time>
      </trkpt>
      <trkpt lat="44.11347" lon="6.72011">
        <ele>2326.6003875939</ele>
        <time>2021-07-10T09:50:00Z</time>
      </trkpt>
      <trkpt lat="44.11348" lon="6.72011">
        <ele>2326.6003629299</ele>
        <time>2021-07-10T09:50:00Z</time>
      </trkpt>
      <trkpt lat="44.11348" lon="6.7201">
        <ele>2327.6003679646</ele>
        <time>2021-07-10T09:50:01Z</time>
      </trkpt>
      <trkpt lat="44.11349" lon="6.72008">
        <ele>2326.6003759299</ele>
        <time>2021-07-10T09:50:02Z</time>
      </trkpt>
      <trkpt lat="44.1135" lon="6.72007">
        <ele>2327.6003676501</ele>
        <time>2021-07-10T09:50:03Z</time>
      </trkpt>
      <trkpt lat="44.1135" lon="6.72006">
        <ele>2327.6003767618</ele>
        <time>2021-07-10T09:50:04Z</time>
      </trkpt>
      <trkpt lat="44.1135" lon="6.72004">
        <ele>2327.6003853062</ele>
        <time>2021-07-10T09:50:05Z</time>
      </trkpt>
      <trkpt lat="44.11351" lon="6.72003">
        <ele>2327.6004019731</ele>
        <time>2021-07-10T09:50:06Z</time>
      </trkpt>
      <trkpt lat="44.11351" lon="6.72002">
        <ele>2327.6004137344</ele>
        <time>2021-07-10T09:50:07Z</time>
      </trkpt>
      <trkpt lat="44.11351" lon="6.72001">
        <ele>2327.6004204164</ele>
        <time>2021-07-10T09:50:08Z</time>
      </trkpt>
      <trkpt lat="44.11351" lon="6.72">
        <ele>2327.6004482995</ele>
        <time>2021-07-10T09:50:09Z</time>
      </trkpt>
      <trkpt lat="44.11351" lon="6.71999">
        <ele>2326.6004590766</ele>
        <time>2021-07-10T09:50:10Z</time>
      </trkpt>
      <trkpt lat="44.11352" lon="6.71998">
        <ele>2326.6004641547</ele>
        <time>2021-07-10T09:50:12Z</time>
      </trkpt>
      <trkpt lat="44.11352" lon="6.71995">
        <ele>2326.6005141022</ele>
        <time>2021-07-10T09:50:13Z</time>
      </trkpt>
      <trkpt lat="44.11352" lon="6.71994">
        <ele>2326.6005203438</ele>
        <time>2021-07-10T09:50:14Z</time>
      </trkpt>
      <trkpt lat="44.11353" lon="6.71993">
        <ele>2326.6005237519</ele>
        <time>2021-07-10T09:50:15Z</time>
      </trkpt>
      <trkpt lat="44.11352" lon="6.71991">
        <ele>2327.6005500186</ele>
        <time>2021-07-10T09:50:17Z</time>
      </trkpt>
      <trkpt lat="44.11352" lon="6.71988">
        <ele>2326.6006063407</ele>
        <time>2021-07-10T09:50:18Z</time>
      </trkpt>
      <trkpt lat="44.11352" lon="6.71987">
        <ele>2326.6006392659</ele>
        <time>2021-07-10T09:50:19Z</time>
      </trkpt>
      <trkpt lat="44.11352" lon="6.71985">
        <ele>2326.6006800682</ele>
        <time>2021-07-10T09:50:20Z</time>
      </trkpt>
      <trkpt lat="44.11352" lon="6.71984">
        <ele>2325.6007156909</ele>
        <time>2021-07-10T09:50:21Z</time>
      </trkpt>
      <trkpt lat="44.11352" lon="6.71983">
        <ele>2325.6007408992</ele>
        <time>2021-07-10T09:50:22Z</time>
      </trkpt>
      <trkpt lat="44.11351" lon="6.71982">
        <ele>2325.6007841867</ele>
        <time>2021-07-10T09:50:23Z</time>
      </trkpt>
      <trkpt lat="44.1135" lon="6.71981">
        <ele>2325.6008121479</ele>
        <time>2021-07-10T09:50:25Z</time>
      </trkpt>
      <trkpt lat="44.11349" lon="6.71978">
        <ele>2325.6009182574</ele>
        <time>2021-07-10T09:50:27Z</time>
      </trkpt>
      <trkpt lat="44.11348" lon="6.71977">
        <ele>2324.6009703746</ele>
        <time>2021-07-10T09:50:27Z</time>
      </trkpt>
      <trkpt lat="44.11347" lon="6.71976">
        <ele>2324.6010129928</ele>
        <time>2021-07-10T09:50:28Z</time>
      </trkpt>
      <trkpt lat="44.11346" lon="6.71975">
        <ele>2324.6010627878</ele>
        <time>2021-07-10T09:50:29Z</time>
      </trkpt>
      <trkpt lat="44.11346" lon="6.71974">
        <ele>2324.601099</ele>
        <time>2021-07-10T09:50:30Z</time>
      </trkpt>
      <trkpt lat="44.11345" lon="6.71973">
        <ele>2324.6011329716</ele>
        <time>2021-07-10T09:50:32Z</time>
      </trkpt>
      <trkpt lat="44.11345" lon="6.71972">
        <ele>2324.601162025</ele>
        <time>2021-07-10T09:50:33Z</time>
      </trkpt>
      <trkpt lat="44.11345" lon="6.71972">
        <ele>2325.6011812301</ele>
        <time>2021-07-10T09:51:14Z</time>
      </trkpt>
      <trkpt lat="44.11344" lon="6.71971">
        <ele>2325.6012115921</ele>
        <time>2021-07-10T09:51:15Z</time>
      </trkpt>
      <trkpt lat="44.11344" lon="6.7197">
        <ele>2325.6012234281</ele>
        <time>2021-07-10T09:51:17Z</time>
      </trkpt>
      <trkpt lat="44.11344" lon="6.71969">
        <ele>2325.6012699923</ele>
        <time>2021-07-10T09:51:18Z</time>
      </trkpt>
      <trkpt lat="44.11344" lon="6.71968">
        <ele>2325.6012826768</ele>
        <time>2021-07-10T09:51:19Z</time>
      </trkpt>
      <trkpt lat="44.11345" lon="6.71966">
        <ele>2325.6012767307</ele>
        <time>2021-07-10T09:51:21Z</time>
      </trkpt>
      <trkpt lat="44.11345" lon="6.71964">
        <ele>2324.6013072493</ele>
        <time>2021-07-10T09:51:23Z</time>
      </trkpt>
      <trkpt lat="44.11344" lon="6.71962">
        <ele>2323.6013644188</ele>
        <time>2021-07-10T09:51:24Z</time>
      </trkpt>
      <trkpt lat="44.11344" lon="6.71961">
        <ele>2323.6013874307</ele>
        <time>2021-07-10T09:51:25Z</time>
      </trkpt>
      <trkpt lat="44.11344" lon="6.7196">
        <ele>2323.6014282691</ele>
        <time>2021-07-10T09:51:26Z</time>
      </trkpt>
      <trkpt lat="44.11344" lon="6.71958">
        <ele>2322.6014445079</ele>
        <time>2021-07-10T09:51:27Z</time>
      </trkpt>
      <trkpt lat="44.11343" lon="6.71957">
        <ele>2322.6014981926</ele>
        <time>2021-07-10T09:51:28Z</time>
      </trkpt>
      <trkpt lat="44.11343" lon="6.71956">
        <ele>2322.6015285349</ele>
        <time>2021-07-10T09:51:29Z</time>
      </trkpt>
      <trkpt lat="44.11343" lon="6.71955">
        <ele>2322.6015477711</ele>
        <time>2021-07-10T09:51:31Z</time>
      </trkpt>
      <trkpt lat="44.11342" lon="6.71953">
        <ele>2322.60162458</ele>
        <time>2021-07-10T09:51:33Z</time>
      </trkpt>
      <trkpt lat="44.11341" lon="6.71952">
        <ele>2322.6016729006</ele>
        <time>2021-07-10T09:51:33Z</time>
      </trkpt>
      <trkpt lat="44.1134" lon="6.71951">
        <ele>2322.6017133437</ele>
        <time>2021-07-10T09:51:34Z</time>
      </trkpt>
      <trkpt lat="44.11339" lon="6.7195">
        <ele>2323.6017614782</ele>
        <time>2021-07-10T09:51:35Z</time>
      </trkpt>
      <trkpt lat="44.11338" lon="6.71949">
        <ele>2323.6018175377</ele>
        <time>2021-07-10T09:51:37Z</time>
      </trkpt>
      <trkpt lat="44.11338" lon="6.71947">
        <ele>2322.6018819134</ele>
        <time>2021-07-10T09:51:38Z</time>
      </trkpt>
      <trkpt lat="44.11337" lon="6.71947">
        <ele>2322.6019119285</ele>
        <time>2021-07-10T09:51:39Z</time>
      </trkpt>
      <trkpt lat="44.11336" lon="6.71946">
        <ele>2323.6019435867</ele>
        <time>2021-07-10T09:51:41Z</time>
      </trkpt>
      <trkpt lat="44.11336" lon="6.71945">
        <ele>2323.6019833695</ele>
        <time>2021-07-10T09:51:43Z</time>
      </trkpt>
      <trkpt lat="44.11335" lon="6.71946">
        <ele>2323.6020005137</ele>
        <time>2021-07-10T09:51:47Z</time>
      </trkpt>
      <trkpt lat="44.11333" lon="6.71946">
        <ele>2324.6020505122</ele>
        <time>2021-07-10T09:51:48Z</time>
      </trkpt>
      <trkpt lat="44.11333" lon="6.71946">
        <ele>2325.602067496</ele>
        <time>2021-07-10T09:51:49Z</time>
      </trkpt>
      <trkpt lat="44.11332" lon="6.71945">
        <ele>2325.6020928382</ele>
        <time>2021-07-10T09:51:50Z</time>
      </trkpt>
      <trkpt lat="44.11331" lon="6.71945">
        <ele>2325.6021326827</ele>
        <time>2021-07-10T09:51:51Z</time>
      </trkpt>
      <trkpt lat="44.11331" lon="6.71945">
        <ele>2325.6021595624</ele>
        <time>2021-07-10T09:51:52Z</time>
      </trkpt>
      <trkpt lat="44.1133" lon="6.71944">
        <ele>2326.6021768413</ele>
        <time>2021-07-10T09:51:54Z</time>
      </trkpt>
      <trkpt lat="44.1133" lon="6.71944">
        <ele>2327.6022001675</ele>
        <time>2021-07-10T09:51:55Z</time>
      </trkpt>
      <trkpt lat="44.11329" lon="6.71944">
        <ele>2328.6022295887</ele>
        <time>2021-07-10T09:51:57Z</time>
      </trkpt>
      <trkpt lat="44.11327" lon="6.71945">
        <ele>2327.6022714181</ele>
        <time>2021-07-10T09:51:58Z</time>
      </trkpt>
      <trkpt lat="44.11327" lon="6.71946">
        <ele>2327.6022832853</ele>
        <time>2021-07-10T09:51:59Z</time>
      </trkpt>
      <trkpt lat="44.11326" lon="6.71947">
        <ele>2328.6022926189</ele>
        <time>2021-07-10T09:52:01Z</time>
      </trkpt>
      <trkpt lat="44.11325" lon="6.71947">
        <ele>2328.6023168449</ele>
        <time>2021-07-10T09:52:01Z</time>
      </trkpt>
      <trkpt lat="44.11325" lon="6.71947">
        <ele>2329.6023383923</ele>
        <time>2021-07-10T09:52:03Z</time>
      </trkpt>
      <trkpt lat="44.11324" lon="6.71946">
        <ele>2329.6023813894</ele>
        <time>2021-07-10T09:52:03Z</time>
      </trkpt>
      <trkpt lat="44.11323" lon="6.71945">
        <ele>2329.6024320869</ele>
        <time>2021-07-10T09:52:04Z</time>
      </trkpt>
      <trkpt lat="44.11322" lon="6.71944">
        <ele>2329.6024722966</ele>
        <time>2021-07-10T09:52:05Z</time>
      </trkpt>
      <trkpt lat="44.11321" lon="6.71944">
        <ele>2329.6025101406</ele>
        <time>2021-07-10T09:52:07Z</time>
      </trkpt>
      <trkpt lat="44.1132" lon="6.71942">
        <ele>2327.6025973746</ele>
        <time>2021-07-10T09:52:08Z</time>
      </trkpt>
      <trkpt lat="44.11319" lon="6.71941">
        <ele>2327.6026418102</ele>
        <time>2021-07-10T09:52:09Z</time>
      </trkpt>
      <trkpt lat="44.11318" lon="6.7194">
        <ele>2327.6026941042</ele>
        <time>2021-07-10T09:52:10Z</time>
      </trkpt>
      <trkpt lat="44.11317" lon="6.7194">
        <ele>2328.6027158223</ele>
        <time>2021-07-10T09:52:11Z</time>
      </trkpt>
      <trkpt lat="44.11316" lon="6.71941">
        <ele>2327.6027470108</ele>
        <time>2021-07-10T09:52:13Z</time>
      </trkpt>
      <trkpt lat="44.11314" lon="6.7194">
        <ele>2328.6028282799</ele>
        <time>2021-07-10T09:52:14Z</time>
      </trkpt>
      <trkpt lat="44.11313" lon="6.7194">
        <ele>2328.6028608666</ele>
        <time>2021-07-10T09:52:15Z</time>
      </trkpt>
      <trkpt lat="44.11313" lon="6.7194">
        <ele>2329.6028775506</ele>
        <time>2021-07-10T09:52:16Z</time>
      </trkpt>
      <trkpt lat="44.11312" lon="6.7194">
        <ele>2328.602901646</ele>
        <time>2021-07-10T09:52:17Z</time>
      </trkpt>
      <trkpt lat="44.11311" lon="6.71941">
        <ele>2327.6029393562</ele>
        <time>2021-07-10T09:52:18Z</time>
      </trkpt>
      <trkpt lat="44.11309" lon="6.71941">
        <ele>2327.6029852313</ele>
        <time>2021-07-10T09:52:19Z</time>
      </trkpt>
      <trkpt lat="44.11308" lon="6.71941">
        <ele>2327.603021272</ele>
        <time>2021-07-10T09:52:21Z</time>
      </trkpt>
      <trkpt lat="44.11306" lon="6.71942">
        <ele>2328.6030678946</ele>
        <time>2021-07-10T09:52:22Z</time>
      </trkpt>
      <trkpt lat="44.11306" lon="6.71942">
        <ele>2327.603104237</ele>
        <time>2021-07-10T09:52:23Z</time>
      </trkpt>
      <trkpt lat="44.11305" lon="6.71942">
        <ele>2327.6031361545</ele>
        <time>2021-07-10T09:52:24Z</time>
      </trkpt>
      <trkpt lat="44.11304" lon="6.71942">
        <ele>2327.6031565121</ele>
        <time>2021-07-10T09:52:25Z</time>
      </trkpt>
      <trkpt lat="44.11304" lon="6.71941">
        <ele>2326.6031778198</ele>
        <time>2021-07-10T09:52:27Z</time>
      </trkpt>
      <trkpt lat="44.11302" lon="6.7194">
        <ele>2326.6032568339</ele>
        <time>2021-07-10T09:52:28Z</time>
      </trkpt>
      <trkpt lat="44.11301" lon="6.7194">
        <ele>2326.6032826607</ele>
        <time>2021-07-10T09:52:29Z</time>
      </trkpt>
      <trkpt lat="44.113" lon="6.7194">
        <ele>2327.6033347085</ele>
        <time>2021-07-10T09:52:31Z</time>
      </trkpt>
      <trkpt lat="44.11298" lon="6.7194">
        <ele>2327.6033999106</ele>
        <time>2021-07-10T09:52:32Z</time>
      </trkpt>
      <trkpt lat="44.11297" lon="6.7194">
        <ele>2327.6034330872</ele>
        <time>2021-07-10T09:52:33Z</time>
      </trkpt>
      <trkpt lat="44.11296" lon="6.7194">
        <ele>2326.6034699341</ele>
        <time>2021-07-10T09:52:35Z</time>
      </trkpt>
      <trkpt lat="44.11296" lon="6.7194">
        <ele>2326.6034836714</ele>
        <time>2021-07-10T09:52:36Z</time>
      </trkpt>
      <trkpt lat="44.11295" lon="6.7194">
        <ele>2326.6035091601</ele>
        <time>2021-07-10T09:52:38Z</time>
      </trkpt>
      <trkpt lat="44.11294" lon="6.71941">
        <ele>2326.6035304574</ele>
        <time>2021-07-10T09:52:38Z</time>
      </trkpt>
      <trkpt lat="44.11293" lon="6.71941">
        <ele>2326.603538311</ele>
        <time>2021-07-10T09:52:39Z</time>
      </trkpt>
      <trkpt lat="44.11293" lon="6.71941">
        <ele>2326.6035662003</ele>
        <time>2021-07-10T09:52:40Z</time>
      </trkpt>
      <trkpt lat="44.11292" lon="6.71942">
        <ele>2325.6035708959</ele>
        <time>2021-07-10T09:52:43Z</time>
      </trkpt>
      <trkpt lat="44.11292" lon="6.71942">
        <ele>2325.6035882013</ele>
        <time>2021-07-10T09:52:43Z</time>
      </trkpt>
      <trkpt lat="44.11291" lon="6.71942">
        <ele>2325.6036065722</ele>
        <time>2021-07-10T09:52:44Z</time>
      </trkpt>
      <trkpt lat="44.1129" lon="6.71942">
        <ele>2324.6036212784</ele>
        <time>2021-07-10T09:52:45Z</time>
      </trkpt>
      <trkpt lat="44.1129" lon="6.71943">
        <ele>2323.6036339252</ele>
        <time>2021-07-10T09:52:47Z</time>
      </trkpt>
      <trkpt lat="44.11289" lon="6.71943">
        <ele>2323.6036501682</ele>
        <time>2021-07-10T09:52:47Z</time>
      </trkpt>
      <trkpt lat="44.11288" lon="6.71943">
        <ele>2323.6036759689</ele>
        <time>2021-07-10T09:52:48Z</time>
      </trkpt>
      <trkpt lat="44.11287" lon="6.71943">
        <ele>2323.6037103501</ele>
        <time>2021-07-10T09:52:49Z</time>
      </trkpt>
      <trkpt lat="44.11287" lon="6.71944">
        <ele>2323.6037364474</ele>
        <time>2021-07-10T09:52:51Z</time>
      </trkpt>
      <trkpt lat="44.11285" lon="6.71944">
        <ele>2323.6037800775</ele>
        <time>2021-07-10T09:52:52Z</time>
      </trkpt>
      <trkpt lat="44.11284" lon="6.71944">
        <ele>2322.6038202575</ele>
        <time>2021-07-10T09:52:53Z</time>
      </trkpt>
      <trkpt lat="44.11283" lon="6.71944">
        <ele>2322.6038405805</ele>
        <time>2021-07-10T09:52:54Z</time>
      </trkpt>
      <trkpt lat="44.11283" lon="6.71944">
        <ele>2322.6038527146</ele>
        <time>2021-07-10T09:52:55Z</time>
      </trkpt>
      <trkpt lat="44.11282" lon="6.71944">
        <ele>2322.603890638</ele>
        <time>2021-07-10T09:52:57Z</time>
      </trkpt>
      <trkpt lat="44.11282" lon="6.71944">
        <ele>2322.6039004178</ele>
        <time>2021-07-10T09:52:58Z</time>
      </trkpt>
      <trkpt lat="44.11281" lon="6.71944">
        <ele>2322.603923499</ele>
        <time>2021-07-10T09:52:59Z</time>
      </trkpt>
      <trkpt lat="44.1128" lon="6.71944">
        <ele>2322.6039482692</ele>
        <time>2021-07-10T09:53:01Z</time>
      </trkpt>
      <trkpt lat="44.1128" lon="6.71944">
        <ele>2321.603978456</ele>
        <time>2021-07-10T09:53:03Z</time>
      </trkpt>
      <trkpt lat="44.11278" lon="6.71944">
        <ele>2320.6040091908</ele>
        <time>2021-07-10T09:53:04Z</time>
      </trkpt>
      <trkpt lat="44.11278" lon="6.71944">
        <ele>2320.6040306334</ele>
        <time>2021-07-10T09:53:05Z</time>
      </trkpt>
      <trkpt lat="44.11277" lon="6.71944">
        <ele>2320.6040584526</ele>
        <time>2021-07-10T09:53:07Z</time>
      </trkpt>
      <trkpt lat="44.11276" lon="6.71945">
        <ele>2319.6040787268</ele>
        <time>2021-07-10T09:53:08Z</time>
      </trkpt>
      <trkpt lat="44.11276" lon="6.71945">
        <ele>2319.6040833549</ele>
        <time>2021-07-10T09:53:09Z</time>
      </trkpt>
      <trkpt lat="44.11275" lon="6.71945">
        <ele>2319.6041224955</ele>
        <time>2021-07-10T09:53:10Z</time>
      </trkpt>
      <trkpt lat="44.11274" lon="6.71944">
        <ele>2319.6041466105</ele>
        <time>2021-07-10T09:53:11Z</time>
      </trkpt>
      <trkpt lat="44.11274" lon="6.71944">
        <ele>2319.6041793986</ele>
        <time>2021-07-10T09:53:13Z</time>
      </trkpt>
      <trkpt lat="44.11272" lon="6.71944">
        <ele>2319.6042226153</ele>
        <time>2021-07-10T09:53:14Z</time>
      </trkpt>
      <trkpt lat="44.11271" lon="6.71944">
        <ele>2319.6042485478</ele>
        <time>2021-07-10T09:53:15Z</time>
      </trkpt>
      <trkpt lat="44.11271" lon="6.71944">
        <ele>2319.6042840226</ele>
        <time>2021-07-10T09:53:17Z</time>
      </trkpt>
      <trkpt lat="44.11269" lon="6.71944">
        <ele>2318.6043339344</ele>
        <time>2021-07-10T09:53:17Z</time>
      </trkpt>
      <trkpt lat="44.11268" lon="6.71944">
        <ele>2317.6043729593</ele>
        <time>2021-07-10T09:53:18Z</time>
      </trkpt>
      <trkpt lat="44.11267" lon="6.71943">
        <ele>2317.6044133712</ele>
        <time>2021-07-10T09:53:19Z</time>
      </trkpt>
      <trkpt lat="44.11267" lon="6.71943">
        <ele>2317.604448302</ele>
        <time>2021-07-10T09:53:21Z</time>
      </trkpt>
      <trkpt lat="44.11265" lon="6.71941">
        <ele>2316.6045380866</ele>
        <time>2021-07-10T09:53:23Z</time>
      </trkpt>
      <trkpt lat="44.11264" lon="6.71939">
        <ele>2316.6046246844</ele>
        <time>2021-07-10T09:53:24Z</time>
      </trkpt>
      <trkpt lat="44.11263" lon="6.71937">
        <ele>2316.604666327</ele>
        <time>2021-07-10T09:53:25Z</time>
      </trkpt>
      <trkpt lat="44.11263" lon="6.71936">
        <ele>2316.604700518</ele>
        <time>2021-07-10T09:53:26Z</time>
      </trkpt>
      <trkpt lat="44.11262" lon="6.71936">
        <ele>2316.6047226037</ele>
        <time>2021-07-10T09:53:28Z</time>
      </trkpt>
      <trkpt lat="44.11261" lon="6.71934">
        <ele>2316.6047913583</ele>
        <time>2021-07-10T09:53:29Z</time>
      </trkpt>
      <trkpt lat="44.11261" lon="6.71933">
        <ele>2316.6048432476</ele>
        <time>2021-07-10T09:53:30Z</time>
      </trkpt>
      <trkpt lat="44.1126" lon="6.71932">
        <ele>2316.6048977335</ele>
        <time>2021-07-10T09:53:32Z</time>
      </trkpt>
      <trkpt lat="44.11258" lon="6.7193">
        <ele>2316.6049777985</ele>
        <time>2021-07-10T09:53:33Z</time>
      </trkpt>
      <trkpt lat="44.11258" lon="6.71928">
        <ele>2316.6050259473</ele>
        <time>2021-07-10T09:53:34Z</time>
      </trkpt>
      <trkpt lat="44.11257" lon="6.71927">
        <ele>2315.6050812884</ele>
        <time>2021-07-10T09:53:35Z</time>
      </trkpt>
      <trkpt lat="44.11256" lon="6.71925">
        <ele>2315.6051502117</ele>
        <time>2021-07-10T09:53:37Z</time>
      </trkpt>
      <trkpt lat="44.11254" lon="6.71922">
        <ele>2315.6052688136</ele>
        <time>2021-07-10T09:53:38Z</time>
      </trkpt>
      <trkpt lat="44.11253" lon="6.71921">
        <ele>2315.6053207842</ele>
        <time>2021-07-10T09:53:39Z</time>
      </trkpt>
      <trkpt lat="44.11252" lon="6.7192">
        <ele>2315.6053625426</ele>
        <time>2021-07-10T09:53:40Z</time>
      </trkpt>
      <trkpt lat="44.11252" lon="6.71918">
        <ele>2314.6054112165</ele>
        <time>2021-07-10T09:53:41Z</time>
      </trkpt>
      <trkpt lat="44.11251" lon="6.71918">
        <ele>2315.6054392138</ele>
        <time>2021-07-10T09:53:43Z</time>
      </trkpt>
      <trkpt lat="44.1125" lon="6.71916">
        <ele>2315.6055231745</ele>
        <time>2021-07-10T09:53:44Z</time>
      </trkpt>
      <trkpt lat="44.11249" lon="6.71914">
        <ele>2315.6055707472</ele>
        <time>2021-07-10T09:53:45Z</time>
      </trkpt>
      <trkpt lat="44.11248" lon="6.71913">
        <ele>2314.6056293845</ele>
        <time>2021-07-10T09:53:47Z</time>
      </trkpt>
      <trkpt lat="44.11248" lon="6.71912">
        <ele>2314.6056819638</ele>
        <time>2021-07-10T09:53:47Z</time>
      </trkpt>
      <trkpt lat="44.11247" lon="6.7191">
        <ele>2314.6057300952</ele>
        <time>2021-07-10T09:53:48Z</time>
      </trkpt>
      <trkpt lat="44.11246" lon="6.71909">
        <ele>2315.6057601574</ele>
        <time>2021-07-10T09:53:49Z</time>
      </trkpt>
      <trkpt lat="44.11246" lon="6.71908">
        <ele>2315.6057856057</ele>
        <time>2021-07-10T09:53:51Z</time>
      </trkpt>
      <trkpt lat="44.11245" lon="6.71905">
        <ele>2314.6058792949</ele>
        <time>2021-07-10T09:53:53Z</time>
      </trkpt>
      <trkpt lat="44.11245" lon="6.71904">
        <ele>2314.6059153953</ele>
        <time>2021-07-10T09:53:53Z</time>
      </trkpt>
      <trkpt lat="44.11244" lon="6.71903">
        <ele>2313.6059636023</ele>
        <time>2021-07-10T09:53:54Z</time>
      </trkpt>
      <trkpt lat="44.11243" lon="6.71902">
        <ele>2313.6060050643</ele>
        <time>2021-07-10T09:53:55Z</time>
      </trkpt>
      <trkpt lat="44.11242" lon="6.71901">
        <ele>2313.6060585213</ele>
        <time>2021-07-10T09:53:57Z</time>
      </trkpt>
      <trkpt lat="44.1124" lon="6.71899">
        <ele>2313.6061488568</ele>
        <time>2021-07-10T09:53:58Z</time>
      </trkpt>
      <trkpt lat="44.11239" lon="6.71898">
        <ele>2313.6062136879</ele>
        <time>2021-07-10T09:53:59Z</time>
      </trkpt>
      <trkpt lat="44.11238" lon="6.71898">
        <ele>2313.6062741939</ele>
        <time>2021-07-10T09:54:01Z</time>
      </trkpt>
      <trkpt lat="44.11235" lon="6.71898">
        <ele>2313.6063593657</ele>
        <time>2021-07-10T09:54:03Z</time>
      </trkpt>
      <trkpt lat="44.11235" lon="6.71897">
        <ele>2313.6063901297</ele>
        <time>2021-07-10T09:54:03Z</time>
      </trkpt>
      <trkpt lat="44.11234" lon="6.71897">
        <ele>2313.6064275779</ele>
        <time>2021-07-10T09:54:04Z</time>
      </trkpt>
      <trkpt lat="44.11233" lon="6.71896">
        <ele>2313.6064629144</ele>
        <time>2021-07-10T09:54:05Z</time>
      </trkpt>
      <trkpt lat="44.11232" lon="6.71896">
        <ele>2313.606507936</ele>
        <time>2021-07-10T09:54:07Z</time>
      </trkpt>
      <trkpt lat="44.1123" lon="6.71895">
        <ele>2313.6065810373</ele>
        <time>2021-07-10T09:54:08Z</time>
      </trkpt>
      <trkpt lat="44.11229" lon="6.71893">
        <ele>2312.6066453943</ele>
        <time>2021-07-10T09:54:09Z</time>
      </trkpt>
      <trkpt lat="44.11229" lon="6.71893">
        <ele>2312.6066838512</ele>
        <time>2021-07-10T09:54:11Z</time>
      </trkpt>
      <trkpt lat="44.11227" lon="6.71893">
        <ele>2312.6067273084</ele>
        <time>2021-07-10T09:54:11Z</time>
      </trkpt>
      <trkpt lat="44.11226" lon="6.71892">
        <ele>2312.6067829115</ele>
        <time>2021-07-10T09:54:13Z</time>
      </trkpt>
      <trkpt lat="44.11224" lon="6.71891">
        <ele>2312.606868646</ele>
        <time>2021-07-10T09:54:14Z</time>
      </trkpt>
      <trkpt lat="44.11223" lon="6.71892">
        <ele>2312.6068981441</ele>
        <time>2021-07-10T09:54:15Z</time>
      </trkpt>
      <trkpt lat="44.11222" lon="6.71891">
        <ele>2311.6069420346</ele>
        <time>2021-07-10T09:54:17Z</time>
      </trkpt>
      <trkpt lat="44.11221" lon="6.71889">
        <ele>2311.6070126491</ele>
        <time>2021-07-10T09:54:18Z</time>
      </trkpt>
      <trkpt lat="44.1122" lon="6.71889">
        <ele>2311.6070386226</ele>
        <time>2021-07-10T09:54:19Z</time>
      </trkpt>
      <trkpt lat="44.1122" lon="6.71888">
        <ele>2311.6070697806</ele>
        <time>2021-07-10T09:54:20Z</time>
      </trkpt>
      <trkpt lat="44.11219" lon="6.71888">
        <ele>2311.6071200731</ele>
        <time>2021-07-10T09:54:22Z</time>
      </trkpt>
      <trkpt lat="44.11217" lon="6.71887">
        <ele>2310.607199845</ele>
        <time>2021-07-10T09:54:23Z</time>
      </trkpt>
      <trkpt lat="44.11216" lon="6.71888">
        <ele>2310.6072231041</ele>
        <time>2021-07-10T09:54:24Z</time>
      </trkpt>
      <trkpt lat="44.11215" lon="6.71888">
        <ele>2310.6072466717</ele>
        <time>2021-07-10T09:54:25Z</time>
      </trkpt>
      <trkpt lat="44.11215" lon="6.71888">
        <ele>2311.6072565103</ele>
        <time>2021-07-10T09:54:27Z</time>
      </trkpt>
      <trkpt lat="44.11214" lon="6.71889">
        <ele>2310.6072594602</ele>
        <time>2021-07-10T09:54:27Z</time>
      </trkpt>
      <trkpt lat="44.11214" lon="6.71889">
        <ele>2310.6072774774</ele>
        <time>2021-07-10T09:54:28Z</time>
      </trkpt>
      <trkpt lat="44.11213" lon="6.71889">
        <ele>2310.6073021356</ele>
        <time>2021-07-10T09:54:29Z</time>
      </trkpt>
      <trkpt lat="44.11213" lon="6.71889">
        <ele>2310.6073124271</ele>
        <time>2021-07-10T09:54:33Z</time>
      </trkpt>
      <trkpt lat="44.11211" lon="6.7189">
        <ele>2310.6073414003</ele>
        <time>2021-07-10T09:54:33Z</time>
      </trkpt>
      <trkpt lat="44.11211" lon="6.71889">
        <ele>2310.6073516811</ele>
        <time>2021-07-10T09:54:41Z</time>
      </trkpt>
      <trkpt lat="44.11211" lon="6.71888">
        <ele>2310.6073905973</ele>
        <time>2021-07-10T09:54:42Z</time>
      </trkpt>
      <trkpt lat="44.1121" lon="6.71887">
        <ele>2310.6074364812</ele>
        <time>2021-07-10T09:54:43Z</time>
      </trkpt>
      <trkpt lat="44.11209" lon="6.71886">
        <ele>2311.6074782569</ele>
        <time>2021-07-10T09:54:44Z</time>
      </trkpt>
      <trkpt lat="44.11208" lon="6.71885">
        <ele>2310.6075196015</ele>
        <time>2021-07-10T09:54:45Z</time>
      </trkpt>
      <trkpt lat="44.11208" lon="6.71885">
        <ele>2310.6075485864</ele>
        <time>2021-07-10T09:54:46Z</time>
      </trkpt>
      <trkpt lat="44.11207" lon="6.71885">
        <ele>2310.6075968114</ele>
        <time>2021-07-10T09:54:47Z</time>
      </trkpt>
      <trkpt lat="44.11206" lon="6.71884">
        <ele>2310.6076267213</ele>
        <time>2021-07-10T09:54:48Z</time>
      </trkpt>
      <trkpt lat="44.11205" lon="6.71884">
        <ele>2310.607645763</ele>
        <time>2021-07-10T09:54:49Z</time>
      </trkpt>
      <trkpt lat="44.11205" lon="6.71884">
        <ele>2310.607668862</ele>
        <time>2021-07-10T09:54:50Z</time>
      </trkpt>
      <trkpt lat="44.11204" lon="6.71884">
        <ele>2309.6076839803</ele>
        <time>2021-07-10T09:54:51Z</time>
      </trkpt>
      <trkpt lat="44.11203" lon="6.71884">
        <ele>2309.6077212361</ele>
        <time>2021-07-10T09:54:52Z</time>
      </trkpt>
      <trkpt lat="44.11202" lon="6.71884">
        <ele>2309.6077670273</ele>
        <time>2021-07-10T09:54:53Z</time>
      </trkpt>
      <trkpt lat="44.11201" lon="6.71883">
        <ele>2310.6078110484</ele>
        <time>2021-07-10T09:54:54Z</time>
      </trkpt>
      <trkpt lat="44.112" lon="6.71882">
        <ele>2310.6078563568</ele>
        <time>2021-07-10T09:54:55Z</time>
      </trkpt>
      <trkpt lat="44.112" lon="6.71882">
        <ele>2311.6078816033</ele>
        <time>2021-07-10T09:54:56Z</time>
      </trkpt>
      <trkpt lat="44.112" lon="6.71881">
        <ele>2311.6079078691</ele>
        <time>2021-07-10T09:54:58Z</time>
      </trkpt>
      <trkpt lat="44.11198" lon="6.71878">
        <ele>2311.6079991028</ele>
        <time>2021-07-10T09:54:59Z</time>
      </trkpt>
      <trkpt lat="44.11198" lon="6.71878">
        <ele>2311.60802985</ele>
        <time>2021-07-10T09:55:00Z</time>
      </trkpt>
      <trkpt lat="44.11197" lon="6.71877">
        <ele>2310.6080627147</ele>
        <time>2021-07-10T09:55:01Z</time>
      </trkpt>
      <trkpt lat="44.11197" lon="6.71876">
        <ele>2310.6080985857</ele>
        <time>2021-07-10T09:55:02Z</time>
      </trkpt>
      <trkpt lat="44.11197" lon="6.71875">
        <ele>2310.6081241733</ele>
        <time>2021-07-10T09:55:03Z</time>
      </trkpt>
      <trkpt lat="44.11196" lon="6.71874">
        <ele>2310.6081545519</ele>
        <time>2021-07-10T09:55:04Z</time>
      </trkpt>
      <trkpt lat="44.11195" lon="6.71874">
        <ele>2310.608186791</ele>
        <time>2021-07-10T09:55:05Z</time>
      </trkpt>
      <trkpt lat="44.11195" lon="6.71873">
        <ele>2310.6082168992</ele>
        <time>2021-07-10T09:55:07Z</time>
      </trkpt>
      <trkpt lat="44.11194" lon="6.71871">
        <ele>2311.6082864812</ele>
        <time>2021-07-10T09:55:08Z</time>
      </trkpt>
      <trkpt lat="44.11193" lon="6.71871">
        <ele>2311.6083122499</ele>
        <time>2021-07-10T09:55:09Z</time>
      </trkpt>
      <trkpt lat="44.11193" lon="6.71871">
        <ele>2311.6083263618</ele>
        <time>2021-07-10T09:55:10Z</time>
      </trkpt>
      <trkpt lat="44.11193" lon="6.7187">
        <ele>2311.6083583977</ele>
        <time>2021-07-10T09:55:11Z</time>
      </trkpt>
      <trkpt lat="44.11192" lon="6.71869">
        <ele>2311.6083830672</ele>
        <time>2021-07-10T09:55:13Z</time>
      </trkpt>
      <trkpt lat="44.11191" lon="6.71867">
        <ele>2312.6084416301</ele>
        <time>2021-07-10T09:55:14Z</time>
      </trkpt>
      <trkpt lat="44.11191" lon="6.71866">
        <ele>2311.6084791624</ele>
        <time>2021-07-10T09:55:15Z</time>
      </trkpt>
      <trkpt lat="44.11191" lon="6.71865">
        <ele>2311.6085016376</ele>
        <time>2021-07-10T09:55:16Z</time>
      </trkpt>
      <trkpt lat="44.11191" lon="6.71865">
        <ele>2311.6085171868</ele>
        <time>2021-07-10T09:55:17Z</time>
      </trkpt>
      <trkpt lat="44.1119" lon="6.71864">
        <ele>2311.6085468968</ele>
        <time>2021-07-10T09:55:18Z</time>
      </trkpt>
      <trkpt lat="44.1119" lon="6.71863">
        <ele>2311.6085883823</ele>
        <time>2021-07-10T09:55:19Z</time>
      </trkpt>
      <trkpt lat="44.11189" lon="6.71861">
        <ele>2311.6086352918</ele>
        <time>2021-07-10T09:55:20Z</time>
      </trkpt>
      <trkpt lat="44.11188" lon="6.71861">
        <ele>2310.608671752</ele>
        <time>2021-07-10T09:55:21Z</time>
      </trkpt>
      <trkpt lat="44.11187" lon="6.7186">
        <ele>2310.6087153295</ele>
        <time>2021-07-10T09:55:22Z</time>
      </trkpt>
      <trkpt lat="44.11187" lon="6.71859">
        <ele>2311.6087566339</ele>
        <time>2021-07-10T09:55:23Z</time>
      </trkpt>
      <trkpt lat="44.11186" lon="6.71857">
        <ele>2311.608794915</ele>
        <time>2021-07-10T09:55:24Z</time>
      </trkpt>
      <trkpt lat="44.11186" lon="6.71857">
        <ele>2311.6088268024</ele>
        <time>2021-07-10T09:55:25Z</time>
      </trkpt>
      <trkpt lat="44.11185" lon="6.71856">
        <ele>2311.6088661145</ele>
        <time>2021-07-10T09:55:26Z</time>
      </trkpt>
      <trkpt lat="44.11184" lon="6.71855">
        <ele>2311.6089165726</ele>
        <time>2021-07-10T09:55:28Z</time>
      </trkpt>
      <trkpt lat="44.11183" lon="6.71853">
        <ele>2312.609000612</ele>
        <time>2021-07-10T09:55:29Z</time>
      </trkpt>
      <trkpt lat="44.11182" lon="6.71853">
        <ele>2312.6090177063</ele>
        <time>2021-07-10T09:55:30Z</time>
      </trkpt>
      <trkpt lat="44.11182" lon="6.71852">
        <ele>2313.6090353037</ele>
        <time>2021-07-10T09:55:32Z</time>
      </trkpt>
      <trkpt lat="44.11183" lon="6.71852">
        <ele>2313.6090288545</ele>
        <time>2021-07-10T09:55:33Z</time>
      </trkpt>
      <trkpt lat="44.11183" lon="6.71851">
        <ele>2314.609026652</ele>
        <time>2021-07-10T09:55:34Z</time>
      </trkpt>
      <trkpt lat="44.11183" lon="6.71851">
        <ele>2313.6090246215</ele>
        <time>2021-07-10T09:55:42Z</time>
      </trkpt>
      <trkpt lat="44.11182" lon="6.71851">
        <ele>2314.6090561023</ele>
        <time>2021-07-10T09:55:43Z</time>
      </trkpt>
      <trkpt lat="44.11181" lon="6.7185">
        <ele>2314.6090930766</ele>
        <time>2021-07-10T09:55:44Z</time>
      </trkpt>
      <trkpt lat="44.11181" lon="6.71851">
        <ele>2314.6091057791</ele>
        <time>2021-07-10T09:55:46Z</time>
      </trkpt>
      <trkpt lat="44.11182" lon="6.71851">
        <ele>2315.6090470767</ele>
        <time>2021-07-10T09:55:48Z</time>
      </trkpt>
      <trkpt lat="44.11182" lon="6.71852">
        <ele>2316.6090684577</ele>
        <time>2021-07-10T09:55:49Z</time>
      </trkpt>
      <trkpt lat="44.11181" lon="6.7185">
        <ele>2315.6091280233</ele>
        <time>2021-07-10T09:55:51Z</time>
      </trkpt>
      <trkpt lat="44.1118" lon="6.71847">
        <ele>2314.6092166098</ele>
        <time>2021-07-10T09:55:52Z</time>
      </trkpt>
      <trkpt lat="44.11179" lon="6.71846">
        <ele>2314.6092560333</ele>
        <time>2021-07-10T09:55:53Z</time>
      </trkpt>
      <trkpt lat="44.11178" lon="6.71845">
        <ele>2314.6093014503</ele>
        <time>2021-07-10T09:55:54Z</time>
      </trkpt>
      <trkpt lat="44.11178" lon="6.71845">
        <ele>2314.6093248709</ele>
        <time>2021-07-10T09:55:58Z</time>
      </trkpt>
      <trkpt lat="44.11177" lon="6.71844">
        <ele>2313.6093576155</ele>
        <time>2021-07-10T09:56:01Z</time>
      </trkpt>
      <trkpt lat="44.11176" lon="6.71841">
        <ele>2312.6094505302</ele>
        <time>2021-07-10T09:56:02Z</time>
      </trkpt>
      <trkpt lat="44.11175" lon="6.7184">
        <ele>2312.6094833414</ele>
        <time>2021-07-10T09:56:03Z</time>
      </trkpt>
      <trkpt lat="44.11175" lon="6.7184">
        <ele>2312.6095090595</ele>
        <time>2021-07-10T09:56:04Z</time>
      </trkpt>
      <trkpt lat="44.11175" lon="6.71839">
        <ele>2312.6095354386</ele>
        <time>2021-07-10T09:56:06Z</time>
      </trkpt>
      <trkpt lat="44.11173" lon="6.71837">
        <ele>2312.6096175361</ele>
        <time>2021-07-10T09:56:08Z</time>
      </trkpt>
      <trkpt lat="44.11172" lon="6.71837">
        <ele>2312.6096601912</ele>
        <time>2021-07-10T09:56:08Z</time>
      </trkpt>
      <trkpt lat="44.11172" lon="6.71836">
        <ele>2312.6096997354</ele>
        <time>2021-07-10T09:56:09Z</time>
      </trkpt>
      <trkpt lat="44.11171" lon="6.71835">
        <ele>2310.6097379294</ele>
        <time>2021-07-10T09:56:12Z</time>
      </trkpt>
      <trkpt lat="44.11169" lon="6.71834">
        <ele>2311.6098074426</ele>
        <time>2021-07-10T09:56:13Z</time>
      </trkpt>
      <trkpt lat="44.11169" lon="6.71833">
        <ele>2312.609837437</ele>
        <time>2021-07-10T09:56:14Z</time>
      </trkpt>
      <trkpt lat="44.11168" lon="6.71833">
        <ele>2311.6098645102</ele>
        <time>2021-07-10T09:56:16Z</time>
      </trkpt>
      <trkpt lat="44.11167" lon="6.71832">
        <ele>2311.6099300301</ele>
        <time>2021-07-10T09:56:17Z</time>
      </trkpt>
      <trkpt lat="44.11166" lon="6.71832">
        <ele>2311.6099611445</ele>
        <time>2021-07-10T09:56:18Z</time>
      </trkpt>
      <trkpt lat="44.11165" lon="6.71831">
        <ele>2310.6100192946</ele>
        <time>2021-07-10T09:56:19Z</time>
      </trkpt>
      <trkpt lat="44.11164" lon="6.7183">
        <ele>2310.6100689297</ele>
        <time>2021-07-10T09:56:20Z</time>
      </trkpt>
      <trkpt lat="44.11163" lon="6.7183">
        <ele>2310.6101146544</ele>
        <time>2021-07-10T09:56:21Z</time>
      </trkpt>
      <trkpt lat="44.11162" lon="6.7183">
        <ele>2310.610141851</ele>
        <time>2021-07-10T09:56:22Z</time>
      </trkpt>
      <trkpt lat="44.11161" lon="6.7183">
        <ele>2310.6101660248</ele>
        <time>2021-07-10T09:56:24Z</time>
      </trkpt>
      <trkpt lat="44.11161" lon="6.7183">
        <ele>2310.6101886698</ele>
        <time>2021-07-10T09:56:25Z</time>
      </trkpt>
      <trkpt lat="44.1116" lon="6.7183">
        <ele>2311.6102100828</ele>
        <time>2021-07-10T09:56:27Z</time>
      </trkpt>
      <trkpt lat="44.11159" lon="6.71831">
        <ele>2310.6102418571</ele>
        <time>2021-07-10T09:56:28Z</time>
      </trkpt>
      <trkpt lat="44.11158" lon="6.71831">
        <ele>2310.6102602268</ele>
        <time>2021-07-10T09:56:29Z</time>
      </trkpt>
      <trkpt lat="44.11157" lon="6.71831">
        <ele>2310.6102801256</ele>
        <time>2021-07-10T09:56:31Z</time>
      </trkpt>
      <trkpt lat="44.11156" lon="6.7183">
        <ele>2310.6103500087</ele>
        <time>2021-07-10T09:56:33Z</time>
      </trkpt>
      <trkpt lat="44.11154" lon="6.7183">
        <ele>2310.6104274206</ele>
        <time>2021-07-10T09:56:34Z</time>
      </trkpt>
      <trkpt lat="44.11153" lon="6.7183">
        <ele>2310.6104607381</ele>
        <time>2021-07-10T09:56:35Z</time>
      </trkpt>
      <trkpt lat="44.11152" lon="6.7183">
        <ele>2310.6104940656</ele>
        <time>2021-07-10T09:56:37Z</time>
      </trkpt>
      <trkpt lat="44.1115" lon="6.71831">
        <ele>2311.6105305446</ele>
        <time>2021-07-10T09:56:38Z</time>
      </trkpt>
      <trkpt lat="44.11149" lon="6.7183">
        <ele>2312.6105660326</ele>
        <time>2021-07-10T09:56:39Z</time>
      </trkpt>
      <trkpt lat="44.11149" lon="6.7183">
        <ele>2312.6105958949</ele>
        <time>2021-07-10T09:56:40Z</time>
      </trkpt>
      <trkpt lat="44.11147" lon="6.7183">
        <ele>2312.6106379351</ele>
        <time>2021-07-10T09:56:42Z</time>
      </trkpt>
      <trkpt lat="44.11145" lon="6.7183">
        <ele>2312.6107163768</ele>
        <time>2021-07-10T09:56:43Z</time>
      </trkpt>
      <trkpt lat="44.11144" lon="6.7183">
        <ele>2311.6107558812</ele>
        <time>2021-07-10T09:56:44Z</time>
      </trkpt>
      <trkpt lat="44.11143" lon="6.7183">
        <ele>2312.6107918512</ele>
        <time>2021-07-10T09:56:45Z</time>
      </trkpt>
      <trkpt lat="44.11142" lon="6.7183">
        <ele>2312.6108266506</ele>
        <time>2021-07-10T09:56:46Z</time>
      </trkpt>
      <trkpt lat="44.11141" lon="6.7183">
        <ele>2312.6108641893</ele>
        <time>2021-07-10T09:56:47Z</time>
      </trkpt>
      <trkpt lat="44.1114" lon="6.71831">
        <ele>2312.6108944607</ele>
        <time>2021-07-10T09:56:48Z</time>
      </trkpt>
      <trkpt lat="44.11139" lon="6.71831">
        <ele>2312.6109300472</ele>
        <time>2021-07-10T09:56:49Z</time>
      </trkpt>
      <trkpt lat="44.11138" lon="6.71831">
        <ele>2311.6109526172</ele>
        <time>2021-07-10T09:56:50Z</time>
      </trkpt>
      <trkpt lat="44.11137" lon="6.71831">
        <ele>2311.6109814532</ele>
        <time>2021-07-10T09:56:51Z</time>
      </trkpt>
      <trkpt lat="44.11136" lon="6.71832">
        <ele>2311.611006437</ele>
        <time>2021-07-10T09:56:52Z</time>
      </trkpt>
      <trkpt lat="44.11135" lon="6.71832">
        <ele>2311.6110292385</ele>
        <time>2021-07-10T09:56:53Z</time>
      </trkpt>
      <trkpt lat="44.11134" lon="6.71832">
        <ele>2311.6110726833</ele>
        <time>2021-07-10T09:56:54Z</time>
      </trkpt>
      <trkpt lat="44.11133" lon="6.71832">
        <ele>2311.611113821</ele>
        <time>2021-07-10T09:56:55Z</time>
      </trkpt>
      <trkpt lat="44.11132" lon="6.71833">
        <ele>2311.6111464552</ele>
        <time>2021-07-10T09:56:56Z</time>
      </trkpt>
      <trkpt lat="44.1113" lon="6.71834">
        <ele>2311.6111800644</ele>
        <time>2021-07-10T09:56:57Z</time>
      </trkpt>
      <trkpt lat="44.11129" lon="6.71834">
        <ele>2311.6112136236</ele>
        <time>2021-07-10T09:56:58Z</time>
      </trkpt>
      <trkpt lat="44.11128" lon="6.71834">
        <ele>2312.6112344066</ele>
        <time>2021-07-10T09:56:59Z</time>
      </trkpt>
      <trkpt lat="44.11127" lon="6.71835">
        <ele>2312.611267118</ele>
        <time>2021-07-10T09:57:00Z</time>
      </trkpt>
      <trkpt lat="44.11126" lon="6.71835">
        <ele>2312.6112956122</ele>
        <time>2021-07-10T09:57:01Z</time>
      </trkpt>
      <trkpt lat="44.11126" lon="6.71835">
        <ele>2312.6113183074</ele>
        <time>2021-07-10T09:57:02Z</time>
      </trkpt>
      <trkpt lat="44.11125" lon="6.71836">
        <ele>2312.6113313319</ele>
        <time>2021-07-10T09:57:03Z</time>
      </trkpt>
      <trkpt lat="44.11124" lon="6.71836">
        <ele>2312.6113498191</ele>
        <time>2021-07-10T09:57:04Z</time>
      </trkpt>
      <trkpt lat="44.11123" lon="6.71836">
        <ele>2312.6113815794</ele>
        <time>2021-07-10T09:57:05Z</time>
      </trkpt>
      <trkpt lat="44.11122" lon="6.71836">
        <ele>2312.611412334</ele>
        <time>2021-07-10T09:57:06Z</time>
      </trkpt>
      <trkpt lat="44.11121" lon="6.71837">
        <ele>2311.6114346497</ele>
        <time>2021-07-10T09:57:07Z</time>
      </trkpt>
      <trkpt lat="44.11121" lon="6.71837">
        <ele>2312.6114560604</ele>
        <time>2021-07-10T09:57:08Z</time>
      </trkpt>
      <trkpt lat="44.1112" lon="6.71837">
        <ele>2312.6114848447</ele>
        <time>2021-07-10T09:57:09Z</time>
      </trkpt>
      <trkpt lat="44.11119" lon="6.71837">
        <ele>2312.6115131272</ele>
        <time>2021-07-10T09:57:10Z</time>
      </trkpt>
      <trkpt lat="44.11118" lon="6.71838">
        <ele>2312.6115337462</ele>
        <time>2021-07-10T09:57:11Z</time>
      </trkpt>
      <trkpt lat="44.11117" lon="6.71838">
        <ele>2312.6115568267</ele>
        <time>2021-07-10T09:57:12Z</time>
      </trkpt>
      <trkpt lat="44.11117" lon="6.71838">
        <ele>2311.6115684406</ele>
        <time>2021-07-10T09:57:13Z</time>
      </trkpt>
      <trkpt lat="44.11116" lon="6.71838">
        <ele>2311.611585497</ele>
        <time>2021-07-10T09:57:14Z</time>
      </trkpt>
      <trkpt lat="44.11116" lon="6.71839">
        <ele>2311.6115997031</ele>
        <time>2021-07-10T09:57:15Z</time>
      </trkpt>
      <trkpt lat="44.11115" lon="6.71839">
        <ele>2311.6116220116</ele>
        <time>2021-07-10T09:57:16Z</time>
      </trkpt>
      <trkpt lat="44.11114" lon="6.71839">
        <ele>2311.6116512007</ele>
        <time>2021-07-10T09:57:17Z</time>
      </trkpt>
      <trkpt lat="44.11113" lon="6.71839">
        <ele>2312.6116747493</ele>
        <time>2021-07-10T09:57:18Z</time>
      </trkpt>
      <trkpt lat="44.11113" lon="6.7184">
        <ele>2312.6116845934</ele>
        <time>2021-07-10T09:57:19Z</time>
      </trkpt>
      <trkpt lat="44.11112" lon="6.7184">
        <ele>2311.611697087</ele>
        <time>2021-07-10T09:57:20Z</time>
      </trkpt>
      <trkpt lat="44.11112" lon="6.7184">
        <ele>2311.6117203592</ele>
        <time>2021-07-10T09:57:21Z</time>
      </trkpt>
      <trkpt lat="44.11111" lon="6.71841">
        <ele>2311.6117313022</ele>
        <time>2021-07-10T09:57:22Z</time>
      </trkpt>
      <trkpt lat="44.1111" lon="6.71841">
        <ele>2312.6117592236</ele>
        <time>2021-07-10T09:57:23Z</time>
      </trkpt>
      <trkpt lat="44.1111" lon="6.7184">
        <ele>2312.6117823106</ele>
        <time>2021-07-10T09:57:24Z</time>
      </trkpt>
      <trkpt lat="44.11109" lon="6.7184">
        <ele>2312.6118087299</ele>
        <time>2021-07-10T09:57:25Z</time>
      </trkpt>
      <trkpt lat="44.11108" lon="6.71841">
        <ele>2312.6118277912</ele>
        <time>2021-07-10T09:57:31Z</time>
      </trkpt>
      <trkpt lat="44.11107" lon="6.71841">
        <ele>2312.6118453864</ele>
        <time>2021-07-10T09:57:33Z</time>
      </trkpt>
      <trkpt lat="44.11107" lon="6.71842">
        <ele>2312.6118586954</ele>
        <time>2021-07-10T09:57:34Z</time>
      </trkpt>
      <trkpt lat="44.11106" lon="6.71842">
        <ele>2311.6118876867</ele>
        <time>2021-07-10T09:57:36Z</time>
      </trkpt>
      <trkpt lat="44.11105" lon="6.71842">
        <ele>2310.6119001164</ele>
        <time>2021-07-10T09:57:37Z</time>
      </trkpt>
      <trkpt lat="44.11105" lon="6.71843">
        <ele>2310.6118934056</ele>
        <time>2021-07-10T09:57:38Z</time>
      </trkpt>
      <trkpt lat="44.11105" lon="6.71844">
        <ele>2310.6118847448</ele>
        <time>2021-07-10T09:57:39Z</time>
      </trkpt>
      <trkpt lat="44.11104" lon="6.71845">
        <ele>2310.6118848302</ele>
        <time>2021-07-10T09:57:40Z</time>
      </trkpt>
      <trkpt lat="44.11104" lon="6.71847">
        <ele>2310.6118703838</ele>
        <time>2021-07-10T09:57:41Z</time>
      </trkpt>
      <trkpt lat="44.11104" lon="6.71848">
        <ele>2309.6118532128</ele>
        <time>2021-07-10T09:57:42Z</time>
      </trkpt>
      <trkpt lat="44.11103" lon="6.71848">
        <ele>2309.6118546341</ele>
        <time>2021-07-10T09:57:43Z</time>
      </trkpt>
      <trkpt lat="44.11103" lon="6.71849">
        <ele>2309.6118821005</ele>
        <time>2021-07-10T09:57:44Z</time>
      </trkpt>
      <trkpt lat="44.11102" lon="6.71849">
        <ele>2308.6119079822</ele>
        <time>2021-07-10T09:57:45Z</time>
      </trkpt>
      <trkpt lat="44.11101" lon="6.71849">
        <ele>2308.6119221745</ele>
        <time>2021-07-10T09:57:46Z</time>
      </trkpt>
      <trkpt lat="44.11101" lon="6.71849">
        <ele>2308.6119327231</ele>
        <time>2021-07-10T09:57:47Z</time>
      </trkpt>
      <trkpt lat="44.111" lon="6.7185">
        <ele>2308.61194021</ele>
        <time>2021-07-10T09:57:48Z</time>
      </trkpt>
      <trkpt lat="44.111" lon="6.7185">
        <ele>2307.6119576841</ele>
        <time>2021-07-10T09:57:49Z</time>
      </trkpt>
      <trkpt lat="44.11099" lon="6.71851">
        <ele>2307.6119659701</ele>
        <time>2021-07-10T09:57:51Z</time>
      </trkpt>
      <trkpt lat="44.11097" lon="6.71852">
        <ele>2307.6120101979</ele>
        <time>2021-07-10T09:57:52Z</time>
      </trkpt>
      <trkpt lat="44.11097" lon="6.71853">
        <ele>2307.6120168148</ele>
        <time>2021-07-10T09:57:53Z</time>
      </trkpt>
      <trkpt lat="44.11096" lon="6.71853">
        <ele>2307.6120282544</ele>
        <time>2021-07-10T09:57:54Z</time>
      </trkpt>
      <trkpt lat="44.11096" lon="6.71854">
        <ele>2308.6120315335</ele>
        <time>2021-07-10T09:57:57Z</time>
      </trkpt>
      <trkpt lat="44.11094" lon="6.71856">
        <ele>2308.6120507466</ele>
        <time>2021-07-10T09:57:58Z</time>
      </trkpt>
      <trkpt lat="44.11094" lon="6.71856">
        <ele>2308.6120526581</ele>
        <time>2021-07-10T09:57:59Z</time>
      </trkpt>
      <trkpt lat="44.11094" lon="6.71857">
        <ele>2308.6120433053</ele>
        <time>2021-07-10T09:58:01Z</time>
      </trkpt>
      <trkpt lat="44.11093" lon="6.71858">
        <ele>2308.612065917</ele>
        <time>2021-07-10T09:58:02Z</time>
      </trkpt>
      <trkpt lat="44.11092" lon="6.71857">
        <ele>2308.6120999468</ele>
        <time>2021-07-10T09:58:07Z</time>
      </trkpt>
      <trkpt lat="44.11091" lon="6.71859">
        <ele>2308.6120971433</ele>
        <time>2021-07-10T09:58:08Z</time>
      </trkpt>
      <trkpt lat="44.11091" lon="6.71859">
        <ele>2309.6120956529</ele>
        <time>2021-07-10T09:58:10Z</time>
      </trkpt>
      <trkpt lat="44.11091" lon="6.7186">
        <ele>2309.6120834583</ele>
        <time>2021-07-10T09:58:11Z</time>
      </trkpt>
      <trkpt lat="44.1109" lon="6.7186">
        <ele>2309.6121006497</ele>
        <time>2021-07-10T09:58:12Z</time>
      </trkpt>
      <trkpt lat="44.1109" lon="6.71861">
        <ele>2308.6121147872</ele>
        <time>2021-07-10T09:58:13Z</time>
      </trkpt>
      <trkpt lat="44.1109" lon="6.71862">
        <ele>2308.6120978817</ele>
        <time>2021-07-10T09:58:16Z</time>
      </trkpt>
      <trkpt lat="44.11089" lon="6.71863">
        <ele>2309.6121035494</ele>
        <time>2021-07-10T09:58:17Z</time>
      </trkpt>
      <trkpt lat="44.11088" lon="6.71864">
        <ele>2309.612122005</ele>
        <time>2021-07-10T09:58:18Z</time>
      </trkpt>
      <trkpt lat="44.11087" lon="6.71864">
        <ele>2310.6121561942</ele>
        <time>2021-07-10T09:58:19Z</time>
      </trkpt>
      <trkpt lat="44.11086" lon="6.71864">
        <ele>2310.6121965612</ele>
        <time>2021-07-10T09:58:21Z</time>
      </trkpt>
      <trkpt lat="44.11085" lon="6.71864">
        <ele>2310.6122234254</ele>
        <time>2021-07-10T09:58:21Z</time>
      </trkpt>
      <trkpt lat="44.11084" lon="6.71864">
        <ele>2310.6122462756</ele>
        <time>2021-07-10T09:58:22Z</time>
      </trkpt>
      <trkpt lat="44.11084" lon="6.71864">
        <ele>2310.612262826</ele>
        <time>2021-07-10T09:58:23Z</time>
      </trkpt>
      <trkpt lat="44.11083" lon="6.71866">
        <ele>2310.6122663468</ele>
        <time>2021-07-10T09:58:24Z</time>
      </trkpt>
      <trkpt lat="44.11083" lon="6.71866">
        <ele>2309.6122563262</ele>
        <time>2021-07-10T09:58:26Z</time>
      </trkpt>
      <trkpt lat="44.11082" lon="6.71867">
        <ele>2309.6122912801</ele>
        <time>2021-07-10T09:58:28Z</time>
      </trkpt>
      <trkpt lat="44.1108" lon="6.71868">
        <ele>2308.6123073751</ele>
        <time>2021-07-10T09:58:29Z</time>
      </trkpt>
      <trkpt lat="44.1108" lon="6.71868">
        <ele>2308.6123218219</ele>
        <time>2021-07-10T09:58:30Z</time>
      </trkpt>
      <trkpt lat="44.11079" lon="6.71869">
        <ele>2307.612337417</ele>
        <time>2021-07-10T09:58:32Z</time>
      </trkpt>
      <trkpt lat="44.11079" lon="6.7187">
        <ele>2307.6123446774</ele>
        <time>2021-07-10T09:58:32Z</time>
      </trkpt>
      <trkpt lat="44.11078" lon="6.71871">
        <ele>2307.6123538388</ele>
        <time>2021-07-10T09:58:33Z</time>
      </trkpt>
      <trkpt lat="44.11077" lon="6.71871">
        <ele>2307.6123849221</ele>
        <time>2021-07-10T09:58:34Z</time>
      </trkpt>
      <trkpt lat="44.11076" lon="6.71871">
        <ele>2307.6124028575</ele>
        <time>2021-07-10T09:58:36Z</time>
      </trkpt>
      <trkpt lat="44.11075" lon="6.71872">
        <ele>2306.6124224585</ele>
        <time>2021-07-10T09:58:38Z</time>
      </trkpt>
      <trkpt lat="44.11075" lon="6.71872">
        <ele>2306.6124258067</ele>
        <time>2021-07-10T09:58:38Z</time>
      </trkpt>
      <trkpt lat="44.11075" lon="6.71873">
        <ele>2306.6124249174</ele>
        <time>2021-07-10T09:58:39Z</time>
      </trkpt>
      <trkpt lat="44.11074" lon="6.71874">
        <ele>2305.6124344611</ele>
        <time>2021-07-10T09:58:40Z</time>
      </trkpt>
      <trkpt lat="44.11073" lon="6.71874">
        <ele>2305.6124623328</ele>
        <time>2021-07-10T09:58:42Z</time>
      </trkpt>
      <trkpt lat="44.11072" lon="6.71875">
        <ele>2305.6124861588</ele>
        <time>2021-07-10T09:58:43Z</time>
      </trkpt>
      <trkpt lat="44.11071" lon="6.71875">
        <ele>2305.6124985188</ele>
        <time>2021-07-10T09:58:44Z</time>
      </trkpt>
      <trkpt lat="44.1107" lon="6.71875">
        <ele>2305.6125295553</ele>
        <time>2021-07-10T09:58:46Z</time>
      </trkpt>
      <trkpt lat="44.11068" lon="6.71876">
        <ele>2305.6125833518</ele>
        <time>2021-07-10T09:58:48Z</time>
      </trkpt>
      <trkpt lat="44.11068" lon="6.71877">
        <ele>2305.6126079025</ele>
        <time>2021-07-10T09:58:48Z</time>
      </trkpt>
      <trkpt lat="44.11067" lon="6.71877">
        <ele>2305.6126359144</ele>
        <time>2021-07-10T09:58:49Z</time>
      </trkpt>
      <trkpt lat="44.11066" lon="6.71877">
        <ele>2305.6126643818</ele>
        <time>2021-07-10T09:58:50Z</time>
      </trkpt>
      <trkpt lat="44.11065" lon="6.71877">
        <ele>2304.6126755973</ele>
        <time>2021-07-10T09:58:52Z</time>
      </trkpt>
      <trkpt lat="44.11065" lon="6.71878">
        <ele>2304.6126877173</ele>
        <time>2021-07-10T09:58:53Z</time>
      </trkpt>
      <trkpt lat="44.11064" lon="6.71879">
        <ele>2304.6126943301</ele>
        <time>2021-07-10T09:58:54Z</time>
      </trkpt>
      <trkpt lat="44.11064" lon="6.7188">
        <ele>2303.6126938951</ele>
        <time>2021-07-10T09:58:55Z</time>
      </trkpt>
      <trkpt lat="44.11063" lon="6.7188">
        <ele>2303.6126865288</ele>
        <time>2021-07-10T09:58:56Z</time>
      </trkpt>
      <trkpt lat="44.11063" lon="6.71881">
        <ele>2302.612705367</ele>
        <time>2021-07-10T09:58:58Z</time>
      </trkpt>
      <trkpt lat="44.11061" lon="6.71882">
        <ele>2301.6127456526</ele>
        <time>2021-07-10T09:58:59Z</time>
      </trkpt>
      <trkpt lat="44.11061" lon="6.71883">
        <ele>2301.6127432945</ele>
        <time>2021-07-10T09:59:00Z</time>
      </trkpt>
      <trkpt lat="44.1106" lon="6.71883">
        <ele>2300.6127683356</ele>
        <time>2021-07-10T09:59:03Z</time>
      </trkpt>
      <trkpt lat="44.11058" lon="6.71883">
        <ele>2301.6128253825</ele>
        <time>2021-07-10T09:59:04Z</time>
      </trkpt>
      <trkpt lat="44.11058" lon="6.71883">
        <ele>2301.6128355273</ele>
        <time>2021-07-10T09:59:05Z</time>
      </trkpt>
      <trkpt lat="44.11057" lon="6.71883">
        <ele>2301.6128625518</ele>
        <time>2021-07-10T09:59:07Z</time>
      </trkpt>
      <trkpt lat="44.11056" lon="6.71884">
        <ele>2300.6129035174</ele>
        <time>2021-07-10T09:59:08Z</time>
      </trkpt>
      <trkpt lat="44.11055" lon="6.71884">
        <ele>2300.6129113383</ele>
        <time>2021-07-10T09:59:10Z</time>
      </trkpt>
      <trkpt lat="44.11054" lon="6.71885">
        <ele>2299.6129484094</ele>
        <time>2021-07-10T09:59:12Z</time>
      </trkpt>
      <trkpt lat="44.11052" lon="6.71886">
        <ele>2298.6130131136</ele>
        <time>2021-07-10T09:59:13Z</time>
      </trkpt>
      <trkpt lat="44.11051" lon="6.71886">
        <ele>2298.6130309393</ele>
        <time>2021-07-10T09:59:14Z</time>
      </trkpt>
      <trkpt lat="44.1105" lon="6.71886">
        <ele>2297.6130653985</ele>
        <time>2021-07-10T09:59:16Z</time>
      </trkpt>
      <trkpt lat="44.11048" lon="6.71886">
        <ele>2298.6131269917</ele>
        <time>2021-07-10T09:59:18Z</time>
      </trkpt>
      <trkpt lat="44.11046" lon="6.71888">
        <ele>2297.6131730089</ele>
        <time>2021-07-10T09:59:19Z</time>
      </trkpt>
      <trkpt lat="44.11045" lon="6.71888">
        <ele>2297.6131999411</ele>
        <time>2021-07-10T09:59:20Z</time>
      </trkpt>
      <trkpt lat="44.11044" lon="6.71889">
        <ele>2297.6132077031</ele>
        <time>2021-07-10T09:59:22Z</time>
      </trkpt>
      <trkpt lat="44.11042" lon="6.7189">
        <ele>2297.6132667214</ele>
        <time>2021-07-10T09:59:23Z</time>
      </trkpt>
      <trkpt lat="44.11041" lon="6.7189">
        <ele>2297.6132881208</ele>
        <time>2021-07-10T09:59:24Z</time>
      </trkpt>
      <trkpt lat="44.1104" lon="6.71891">
        <ele>2297.6133238435</ele>
        <time>2021-07-10T09:59:26Z</time>
      </trkpt>
      <trkpt lat="44.11038" lon="6.71891">
        <ele>2297.6133701765</ele>
        <time>2021-07-10T09:59:26Z</time>
      </trkpt>
      <trkpt lat="44.11037" lon="6.71892">
        <ele>2296.6133991919</ele>
        <time>2021-07-10T09:59:28Z</time>
      </trkpt>
      <trkpt lat="44.11036" lon="6.71892">
        <ele>2296.613458588</ele>
        <time>2021-07-10T09:59:29Z</time>
      </trkpt>
      <trkpt lat="44.11035" lon="6.71892">
        <ele>2297.6134944384</ele>
        <time>2021-07-10T09:59:30Z</time>
      </trkpt>
      <trkpt lat="44.11034" lon="6.71891">
        <ele>2297.6135308919</ele>
        <time>2021-07-10T09:59:32Z</time>
      </trkpt>
      <trkpt lat="44.11033" lon="6.71892">
        <ele>2296.6135667804</ele>
        <time>2021-07-10T09:59:32Z</time>
      </trkpt>
      <trkpt lat="44.11031" lon="6.71892">
        <ele>2296.6136023707</ele>
        <time>2021-07-10T09:59:33Z</time>
      </trkpt>
      <trkpt lat="44.1103" lon="6.71893">
        <ele>2296.6136343169</ele>
        <time>2021-07-10T09:59:34Z</time>
      </trkpt>
      <trkpt lat="44.11029" lon="6.71893">
        <ele>2296.6136611055</ele>
        <time>2021-07-10T09:59:36Z</time>
      </trkpt>
      <trkpt lat="44.11027" lon="6.71894">
        <ele>2294.613741081</ele>
        <time>2021-07-10T09:59:38Z</time>
      </trkpt>
      <trkpt lat="44.11024" lon="6.71893">
        <ele>2294.6138292098</ele>
        <time>2021-07-10T09:59:39Z</time>
      </trkpt>
      <trkpt lat="44.11023" lon="6.71894">
        <ele>2294.6138548751</ele>
        <time>2021-07-10T09:59:40Z</time>
      </trkpt>
      <trkpt lat="44.11022" lon="6.71894">
        <ele>2294.6138892271</ele>
        <time>2021-07-10T09:59:42Z</time>
      </trkpt>
      <trkpt lat="44.1102" lon="6.71893">
        <ele>2293.6139767767</ele>
        <time>2021-07-10T09:59:43Z</time>
      </trkpt>
      <trkpt lat="44.11019" lon="6.71893">
        <ele>2292.6140241975</ele>
        <time>2021-07-10T09:59:44Z</time>
      </trkpt>
      <trkpt lat="44.11018" lon="6.71894">
        <ele>2292.6140565775</ele>
        <time>2021-07-10T09:59:46Z</time>
      </trkpt>
      <trkpt lat="44.11015" lon="6.71894">
        <ele>2292.61414684</ele>
        <time>2021-07-10T09:59:47Z</time>
      </trkpt>
      <trkpt lat="44.11014" lon="6.71894">
        <ele>2292.6141924943</ele>
        <time>2021-07-10T09:59:48Z</time>
      </trkpt>
      <trkpt lat="44.11013" lon="6.71894">
        <ele>2292.6142161078</ele>
        <time>2021-07-10T09:59:49Z</time>
      </trkpt>
      <trkpt lat="44.11012" lon="6.71894">
        <ele>2292.6142457847</ele>
        <time>2021-07-10T09:59:50Z</time>
      </trkpt>
      <trkpt lat="44.11011" lon="6.71894">
        <ele>2291.6142858802</ele>
        <time>2021-07-10T09:59:52Z</time>
      </trkpt>
      <trkpt lat="44.11009" lon="6.71894">
        <ele>2291.6143643719</ele>
        <time>2021-07-10T09:59:53Z</time>
      </trkpt>
      <trkpt lat="44.11008" lon="6.71894">
        <ele>2291.6144015446</ele>
        <time>2021-07-10T09:59:54Z</time>
      </trkpt>
      <trkpt lat="44.11006" lon="6.71894">
        <ele>2291.6144371846</ele>
        <time>2021-07-10T09:59:56Z</time>
      </trkpt>
      <trkpt lat="44.11004" lon="6.71895">
        <ele>2291.6145011675</ele>
        <time>2021-07-10T09:59:58Z</time>
      </trkpt>
      <trkpt lat="44.11002" lon="6.71894">
        <ele>2291.6145948957</ele>
        <time>2021-07-10T09:59:59Z</time>
      </trkpt>
      <trkpt lat="44.11001" lon="6.71893">
        <ele>2290.6146369556</ele>
        <time>2021-07-10T10:00:00Z</time>
      </trkpt>
      <trkpt lat="44.11" lon="6.71893">
        <ele>2290.6146747133</ele>
        <time>2021-07-10T10:00:01Z</time>
      </trkpt>
      <trkpt lat="44.10999" lon="6.71892">
        <ele>2290.6147202597</ele>
        <time>2021-07-10T10:00:02Z</time>
      </trkpt>
      <trkpt lat="44.10998" lon="6.71891">
        <ele>2290.6147764222</ele>
        <time>2021-07-10T10:00:03Z</time>
      </trkpt>
      <trkpt lat="44.10997" lon="6.71891">
        <ele>2290.6148224063</ele>
        <time>2021-07-10T10:00:04Z</time>
      </trkpt>
      <trkpt lat="44.10996" lon="6.7189">
        <ele>2290.6148699136</ele>
        <time>2021-07-10T10:00:06Z</time>
      </trkpt>
      <trkpt lat="44.10995" lon="6.71889">
        <ele>2289.6149272471</ele>
        <time>2021-07-10T10:00:07Z</time>
      </trkpt>
      <trkpt lat="44.10995" lon="6.71888">
        <ele>2289.6149644567</ele>
        <time>2021-07-10T10:00:08Z</time>
      </trkpt>
      <trkpt lat="44.10994" lon="6.71887">
        <ele>2289.6149900512</ele>
        <time>2021-07-10T10:00:09Z</time>
      </trkpt>
      <trkpt lat="44.10994" lon="6.71886">
        <ele>2289.6150136182</ele>
        <time>2021-07-10T10:00:10Z</time>
      </trkpt>
      <trkpt lat="44.10994" lon="6.71885">
        <ele>2290.6150305486</ele>
        <time>2021-07-10T10:00:14Z</time>
      </trkpt>
      <trkpt lat="44.10993" lon="6.71885">
        <ele>2290.6150703319</ele>
        <time>2021-07-10T10:00:16Z</time>
      </trkpt>
      <trkpt lat="44.10992" lon="6.71886">
        <ele>2290.6150728854</ele>
        <time>2021-07-10T10:00:17Z</time>
      </trkpt>
      <trkpt lat="44.10992" lon="6.71887">
        <ele>2291.6150722727</ele>
        <time>2021-07-10T10:00:20Z</time>
      </trkpt>
      <trkpt lat="44.10991" lon="6.71887">
        <ele>2291.6150975123</ele>
        <time>2021-07-10T10:00:21Z</time>
      </trkpt>
      <trkpt lat="44.1099" lon="6.71887">
        <ele>2291.6151352299</ele>
        <time>2021-07-10T10:00:22Z</time>
      </trkpt>
      <trkpt lat="44.10989" lon="6.71887">
        <ele>2291.6151701652</ele>
        <time>2021-07-10T10:00:23Z</time>
      </trkpt>
      <trkpt lat="44.10989" lon="6.71887">
        <ele>2292.6151925856</ele>
        <time>2021-07-10T10:00:24Z</time>
      </trkpt>
      <trkpt lat="44.10987" lon="6.71887">
        <ele>2292.6152355973</ele>
        <time>2021-07-10T10:00:25Z</time>
      </trkpt>
      <trkpt lat="44.10986" lon="6.71887">
        <ele>2292.6152705033</ele>
        <time>2021-07-10T10:00:26Z</time>
      </trkpt>
      <trkpt lat="44.10985" lon="6.71888">
        <ele>2293.6152876283</ele>
        <time>2021-07-10T10:00:27Z</time>
      </trkpt>
      <trkpt lat="44.10985" lon="6.71888">
        <ele>2293.6153050748</ele>
        <time>2021-07-10T10:00:28Z</time>
      </trkpt>
      <trkpt lat="44.10984" lon="6.71889">
        <ele>2293.6153261885</ele>
        <time>2021-07-10T10:00:29Z</time>
      </trkpt>
      <trkpt lat="44.10983" lon="6.71888">
        <ele>2294.6153639182</ele>
        <time>2021-07-10T10:00:30Z</time>
      </trkpt>
      <trkpt lat="44.10982" lon="6.71888">
        <ele>2294.6153875481</ele>
        <time>2021-07-10T10:00:31Z</time>
      </trkpt>
      <trkpt lat="44.10981" lon="6.71889">
        <ele>2294.6154217343</ele>
        <time>2021-07-10T10:00:32Z</time>
      </trkpt>
      <trkpt lat="44.1098" lon="6.71888">
        <ele>2294.6154593162</ele>
        <time>2021-07-10T10:00:33Z</time>
      </trkpt>
      <trkpt lat="44.10979" lon="6.71888">
        <ele>2294.6154898526</ele>
        <time>2021-07-10T10:00:34Z</time>
      </trkpt>
      <trkpt lat="44.10979" lon="6.71889">
        <ele>2293.615510242</ele>
        <time>2021-07-10T10:00:35Z</time>
      </trkpt>
      <trkpt lat="44.10978" lon="6.71889">
        <ele>2293.6155384248</ele>
        <time>2021-07-10T10:00:37Z</time>
      </trkpt>
      <trkpt lat="44.10976" lon="6.71888">
        <ele>2293.615610791</ele>
        <time>2021-07-10T10:00:38Z</time>
      </trkpt>
      <trkpt lat="44.10975" lon="6.71888">
        <ele>2292.6156426386</ele>
        <time>2021-07-10T10:00:39Z</time>
      </trkpt>
      <trkpt lat="44.10974" lon="6.71889">
        <ele>2292.6156603796</ele>
        <time>2021-07-10T10:00:40Z</time>
      </trkpt>
      <trkpt lat="44.10974" lon="6.71889">
        <ele>2292.6156715102</ele>
        <time>2021-07-10T10:00:42Z</time>
      </trkpt>
      <trkpt lat="44.10972" lon="6.71889">
        <ele>2292.6157244971</ele>
        <time>2021-07-10T10:00:43Z</time>
      </trkpt>
      <trkpt lat="44.10972" lon="6.71889">
        <ele>2292.6157382882</ele>
        <time>2021-07-10T10:00:44Z</time>
      </trkpt>
      <trkpt lat="44.10971" lon="6.71889">
        <ele>2292.6157763077</ele>
        <time>2021-07-10T10:00:45Z</time>
      </trkpt>
      <trkpt lat="44.1097" lon="6.71889">
        <ele>2292.615818457</ele>
        <time>2021-07-10T10:00:46Z</time>
      </trkpt>
      <trkpt lat="44.10969" lon="6.71889">
        <ele>2292.6158412012</ele>
        <time>2021-07-10T10:00:47Z</time>
      </trkpt>
      <trkpt lat="44.10968" lon="6.71889">
        <ele>2292.6158657047</ele>
        <time>2021-07-10T10:00:48Z</time>
      </trkpt>
      <trkpt lat="44.10967" lon="6.71889">
        <ele>2291.6158968146</ele>
        <time>2021-07-10T10:00:49Z</time>
      </trkpt>
      <trkpt lat="44.10966" lon="6.71889">
        <ele>2291.6159438027</ele>
        <time>2021-07-10T10:00:50Z</time>
      </trkpt>
      <trkpt lat="44.10965" lon="6.71889">
        <ele>2291.6160014929</ele>
        <time>2021-07-10T10:00:52Z</time>
      </trkpt>
      <trkpt lat="44.10963" lon="6.71888">
        <ele>2291.6160785664</ele>
        <time>2021-07-10T10:00:53Z</time>
      </trkpt>
      <trkpt lat="44.10962" lon="6.71887">
        <ele>2291.6161174766</ele>
        <time>2021-07-10T10:00:54Z</time>
      </trkpt>
      <trkpt lat="44.10962" lon="6.71887">
        <ele>2291.6161308333</ele>
        <time>2021-07-10T10:00:56Z</time>
      </trkpt>
      <trkpt lat="44.10961" lon="6.71888">
        <ele>2291.616157095</ele>
        <time>2021-07-10T10:00:56Z</time>
      </trkpt>
      <trkpt lat="44.1096" lon="6.71887">
        <ele>2290.6162027604</ele>
        <time>2021-07-10T10:00:58Z</time>
      </trkpt>
      <trkpt lat="44.10959" lon="6.71886">
        <ele>2290.6162369776</ele>
        <time>2021-07-10T10:00:58Z</time>
      </trkpt>
      <trkpt lat="44.10959" lon="6.71886">
        <ele>2290.6162494489</ele>
        <time>2021-07-10T10:00:59Z</time>
      </trkpt>
      <trkpt lat="44.10958" lon="6.71886">
        <ele>2290.6162745498</ele>
        <time>2021-07-10T10:01:00Z</time>
      </trkpt>
      <trkpt lat="44.10957" lon="6.71886">
        <ele>2290.6163058138</ele>
        <time>2021-07-10T10:01:01Z</time>
      </trkpt>
      <trkpt lat="44.10957" lon="6.71886">
        <ele>2290.6163256212</ele>
        <time>2021-07-10T10:01:02Z</time>
      </trkpt>
      <trkpt lat="44.10956" lon="6.71886">
        <ele>2289.6163533569</ele>
        <time>2021-07-10T10:01:03Z</time>
      </trkpt>
      <trkpt lat="44.10955" lon="6.71886">
        <ele>2289.6163897612</ele>
        <time>2021-07-10T10:01:04Z</time>
      </trkpt>
      <trkpt lat="44.10955" lon="6.71885">
        <ele>2289.6164244146</ele>
        <time>2021-07-10T10:01:06Z</time>
      </trkpt>
      <trkpt lat="44.10953" lon="6.71884">
        <ele>2289.6164776871</ele>
        <time>2021-07-10T10:01:07Z</time>
      </trkpt>
      <trkpt lat="44.10953" lon="6.71885">
        <ele>2289.6164713684</ele>
        <time>2021-07-10T10:01:08Z</time>
      </trkpt>
      <trkpt lat="44.10952" lon="6.71884">
        <ele>2289.616526707</ele>
        <time>2021-07-10T10:01:09Z</time>
      </trkpt>
      <trkpt lat="44.10951" lon="6.71884">
        <ele>2288.6165783626</ele>
        <time>2021-07-10T10:01:10Z</time>
      </trkpt>
      <trkpt lat="44.1095" lon="6.71884">
        <ele>2288.6166012507</ele>
        <time>2021-07-10T10:01:12Z</time>
      </trkpt>
      <trkpt lat="44.10949" lon="6.71884">
        <ele>2287.6166461561</ele>
        <time>2021-07-10T10:01:13Z</time>
      </trkpt>
      <trkpt lat="44.10948" lon="6.71883">
        <ele>2287.6166790333</ele>
        <time>2021-07-10T10:01:14Z</time>
      </trkpt>
      <trkpt lat="44.10948" lon="6.71884">
        <ele>2287.6166881286</ele>
        <time>2021-07-10T10:01:16Z</time>
      </trkpt>
      <trkpt lat="44.10947" lon="6.71884">
        <ele>2287.6166917928</ele>
        <time>2021-07-10T10:01:18Z</time>
      </trkpt>
      <trkpt lat="44.10946" lon="6.71885">
        <ele>2288.6167114514</ele>
        <time>2021-07-10T10:01:18Z</time>
      </trkpt>
      <trkpt lat="44.10945" lon="6.71884">
        <ele>2286.6167472606</ele>
        <time>2021-07-10T10:01:20Z</time>
      </trkpt>
      <trkpt lat="44.10945" lon="6.71884">
        <ele>2286.6167742617</ele>
        <time>2021-07-10T10:01:23Z</time>
      </trkpt>
      <trkpt lat="44.10943" lon="6.71884">
        <ele>2286.6168369228</ele>
        <time>2021-07-10T10:01:24Z</time>
      </trkpt>
      <trkpt lat="44.10943" lon="6.71883">
        <ele>2286.6168708211</ele>
        <time>2021-07-10T10:01:25Z</time>
      </trkpt>
      <trkpt lat="44.10942" lon="6.71883">
        <ele>2287.6168962067</ele>
        <time>2021-07-10T10:01:26Z</time>
      </trkpt>
      <trkpt lat="44.10941" lon="6.71882">
        <ele>2287.6169475635</ele>
        <time>2021-07-10T10:01:28Z</time>
      </trkpt>
      <trkpt lat="44.10939" lon="6.71879">
        <ele>2287.6170461593</ele>
        <time>2021-07-10T10:01:29Z</time>
      </trkpt>
      <trkpt lat="44.10939" lon="6.71878">
        <ele>2287.617089291</ele>
        <time>2021-07-10T10:01:30Z</time>
      </trkpt>
      <trkpt lat="44.10938" lon="6.71877">
        <ele>2286.617142396</ele>
        <time>2021-07-10T10:01:32Z</time>
      </trkpt>
      <trkpt lat="44.10937" lon="6.71877">
        <ele>2285.6171746696</ele>
        <time>2021-07-10T10:01:32Z</time>
      </trkpt>
      <trkpt lat="44.10936" lon="6.71878">
        <ele>2285.6171868479</ele>
        <time>2021-07-10T10:01:33Z</time>
      </trkpt>
      <trkpt lat="44.10935" lon="6.71878">
        <ele>2285.617218681</ele>
        <time>2021-07-10T10:01:34Z</time>
      </trkpt>
      <trkpt lat="44.10935" lon="6.71878">
        <ele>2285.6172408356</ele>
        <time>2021-07-10T10:01:35Z</time>
      </trkpt>
      <trkpt lat="44.10934" lon="6.71878">
        <ele>2286.6172612277</ele>
        <time>2021-07-10T10:01:36Z</time>
      </trkpt>
      <trkpt lat="44.10933" lon="6.71878">
        <ele>2286.6172910098</ele>
        <time>2021-07-10T10:01:37Z</time>
      </trkpt>
      <trkpt lat="44.10932" lon="6.71878">
        <ele>2286.6173354637</ele>
        <time>2021-07-10T10:01:38Z</time>
      </trkpt>
      <trkpt lat="44.10931" lon="6.71879">
        <ele>2286.6173513168</ele>
        <time>2021-07-10T10:01:39Z</time>
      </trkpt>
      <trkpt lat="44.1093" lon="6.71879">
        <ele>2286.6173633508</ele>
        <time>2021-07-10T10:01:40Z</time>
      </trkpt>
      <trkpt lat="44.1093" lon="6.71878">
        <ele>2287.6174085191</ele>
        <time>2021-07-10T10:01:41Z</time>
      </trkpt>
      <trkpt lat="44.10929" lon="6.71878">
        <ele>2287.6174522277</ele>
        <time>2021-07-10T10:01:43Z</time>
      </trkpt>
      <trkpt lat="44.10927" lon="6.71877">
        <ele>2287.6175243881</ele>
        <time>2021-07-10T10:01:44Z</time>
      </trkpt>
      <trkpt lat="44.10926" lon="6.71876">
        <ele>2287.6175711745</ele>
        <time>2021-07-10T10:01:45Z</time>
      </trkpt>
      <trkpt lat="44.10926" lon="6.71875">
        <ele>2288.6176060646</ele>
        <time>2021-07-10T10:01:47Z</time>
      </trkpt>
      <trkpt lat="44.10925" lon="6.71875">
        <ele>2288.6176326142</ele>
        <time>2021-07-10T10:01:47Z</time>
      </trkpt>
      <trkpt lat="44.10924" lon="6.71875">
        <ele>2289.6176732361</ele>
        <time>2021-07-10T10:01:48Z</time>
      </trkpt>
      <trkpt lat="44.10923" lon="6.71874">
        <ele>2289.6177271997</ele>
        <time>2021-07-10T10:01:49Z</time>
      </trkpt>
      <trkpt lat="44.10921" lon="6.71874">
        <ele>2288.6177823429</ele>
        <time>2021-07-10T10:01:50Z</time>
      </trkpt>
      <trkpt lat="44.1092" lon="6.71874">
        <ele>2288.6178065473</ele>
        <time>2021-07-10T10:01:51Z</time>
      </trkpt>
      <trkpt lat="44.10919" lon="6.71874">
        <ele>2288.6178382445</ele>
        <time>2021-07-10T10:01:53Z</time>
      </trkpt>
      <trkpt lat="44.10917" lon="6.71875">
        <ele>2288.6179026477</ele>
        <time>2021-07-10T10:01:54Z</time>
      </trkpt>
      <trkpt lat="44.10916" lon="6.71874">
        <ele>2287.6179354931</ele>
        <time>2021-07-10T10:01:57Z</time>
      </trkpt>
      <trkpt lat="44.10915" lon="6.71874">
        <ele>2288.6180071881</ele>
        <time>2021-07-10T10:01:58Z</time>
      </trkpt>
      <trkpt lat="44.10914" lon="6.71873">
        <ele>2288.6180379726</ele>
        <time>2021-07-10T10:01:59Z</time>
      </trkpt>
      <trkpt lat="44.10913" lon="6.71873">
        <ele>2288.61808034</ele>
        <time>2021-07-10T10:02:01Z</time>
      </trkpt>
      <trkpt lat="44.10911" lon="6.71872">
        <ele>2288.6181595066</ele>
        <time>2021-07-10T10:02:03Z</time>
      </trkpt>
      <trkpt lat="44.10909" lon="6.71871">
        <ele>2287.6182539051</ele>
        <time>2021-07-10T10:02:04Z</time>
      </trkpt>
      <trkpt lat="44.10908" lon="6.7187">
        <ele>2288.6183047539</ele>
        <time>2021-07-10T10:02:05Z</time>
      </trkpt>
      <trkpt lat="44.10908" lon="6.71869">
        <ele>2288.6183298258</ele>
        <time>2021-07-10T10:02:07Z</time>
      </trkpt>
      <trkpt lat="44.10907" lon="6.71868">
        <ele>2287.6183793215</ele>
        <time>2021-07-10T10:02:08Z</time>
      </trkpt>
      <trkpt lat="44.10907" lon="6.71867">
        <ele>2287.618402175</ele>
        <time>2021-07-10T10:02:09Z</time>
      </trkpt>
      <trkpt lat="44.10906" lon="6.71866">
        <ele>2287.6184486121</ele>
        <time>2021-07-10T10:02:10Z</time>
      </trkpt>
      <trkpt lat="44.10905" lon="6.71865">
        <ele>2287.6184960699</ele>
        <time>2021-07-10T10:02:11Z</time>
      </trkpt>
      <trkpt lat="44.10904" lon="6.71865">
        <ele>2288.6185332887</ele>
        <time>2021-07-10T10:02:13Z</time>
      </trkpt>
      <trkpt lat="44.10903" lon="6.71864">
        <ele>2289.6186084536</ele>
        <time>2021-07-10T10:02:14Z</time>
      </trkpt>
      <trkpt lat="44.10902" lon="6.71863">
        <ele>2289.6186421412</ele>
        <time>2021-07-10T10:02:15Z</time>
      </trkpt>
      <trkpt lat="44.10901" lon="6.71863">
        <ele>2289.6186816935</ele>
        <time>2021-07-10T10:02:16Z</time>
      </trkpt>
      <trkpt lat="44.109" lon="6.71862">
        <ele>2289.6187198022</ele>
        <time>2021-07-10T10:02:17Z</time>
      </trkpt>
      <trkpt lat="44.109" lon="6.71862">
        <ele>2289.6187246341</ele>
        <time>2021-07-10T10:02:18Z</time>
      </trkpt>
      <trkpt lat="44.10899" lon="6.71862">
        <ele>2290.6187570171</ele>
        <time>2021-07-10T10:02:19Z</time>
      </trkpt>
      <trkpt lat="44.10898" lon="6.71861">
        <ele>2289.6188009512</ele>
        <time>2021-07-10T10:02:21Z</time>
      </trkpt>
      <trkpt lat="44.10897" lon="6.71859">
        <ele>2290.6189051876</ele>
        <time>2021-07-10T10:02:23Z</time>
      </trkpt>
      <trkpt lat="44.10896" lon="6.71858">
        <ele>2290.6189527681</ele>
        <time>2021-07-10T10:02:23Z</time>
      </trkpt>
      <trkpt lat="44.10895" lon="6.71857">
        <ele>2290.6190125093</ele>
        <time>2021-07-10T10:02:24Z</time>
      </trkpt>
      <trkpt lat="44.10894" lon="6.71856">
        <ele>2290.619063463</ele>
        <time>2021-07-10T10:02:25Z</time>
      </trkpt>
      <trkpt lat="44.10893" lon="6.71855">
        <ele>2290.6190959559</ele>
        <time>2021-07-10T10:02:27Z</time>
      </trkpt>
      <trkpt lat="44.10891" lon="6.71854">
        <ele>2290.6191847203</ele>
        <time>2021-07-10T10:02:28Z</time>
      </trkpt>
      <trkpt lat="44.1089" lon="6.71854">
        <ele>2290.6192253013</ele>
        <time>2021-07-10T10:02:29Z</time>
      </trkpt>
      <trkpt lat="44.10889" lon="6.71854">
        <ele>2289.6192459835</ele>
        <time>2021-07-10T10:02:31Z</time>
      </trkpt>
      <trkpt lat="44.10887" lon="6.71854">
        <ele>2290.6193150132</ele>
        <time>2021-07-10T10:02:33Z</time>
      </trkpt>
      <trkpt lat="44.10886" lon="6.71854">
        <ele>2290.6193568935</ele>
        <time>2021-07-10T10:02:33Z</time>
      </trkpt>
      <trkpt lat="44.10885" lon="6.71854">
        <ele>2290.6193954278</ele>
        <time>2021-07-10T10:02:34Z</time>
      </trkpt>
      <trkpt lat="44.10884" lon="6.71853">
        <ele>2290.6194504643</ele>
        <time>2021-07-10T10:02:35Z</time>
      </trkpt>
      <trkpt lat="44.10883" lon="6.71852">
        <ele>2290.6194959974</ele>
        <time>2021-07-10T10:02:37Z</time>
      </trkpt>
      <trkpt lat="44.10881" lon="6.71853">
        <ele>2288.6195552129</ele>
        <time>2021-07-10T10:02:38Z</time>
      </trkpt>
      <trkpt lat="44.1088" lon="6.71853">
        <ele>2288.6195924322</ele>
        <time>2021-07-10T10:02:39Z</time>
      </trkpt>
      <trkpt lat="44.10879" lon="6.71853">
        <ele>2288.6196174905</ele>
        <time>2021-07-10T10:02:40Z</time>
      </trkpt>
      <trkpt lat="44.10878" lon="6.71853">
        <ele>2287.6196425713</ele>
        <time>2021-07-10T10:02:41Z</time>
      </trkpt>
      <trkpt lat="44.10877" lon="6.71853">
        <ele>2287.6196802268</ele>
        <time>2021-07-10T10:02:43Z</time>
      </trkpt>
      <trkpt lat="44.10876" lon="6.71853">
        <ele>2286.6197264069</ele>
        <time>2021-07-10T10:02:44Z</time>
      </trkpt>
      <trkpt lat="44.10875" lon="6.71853">
        <ele>2286.6197457765</ele>
        <time>2021-07-10T10:02:45Z</time>
      </trkpt>
      <trkpt lat="44.10874" lon="6.71853">
        <ele>2286.6197834362</ele>
        <time>2021-07-10T10:02:47Z</time>
      </trkpt>
      <trkpt lat="44.10872" lon="6.71852">
        <ele>2286.619884438</ele>
        <time>2021-07-10T10:02:48Z</time>
      </trkpt>
      <trkpt lat="44.10871" lon="6.71851">
        <ele>2285.6199286074</ele>
        <time>2021-07-10T10:02:49Z</time>
      </trkpt>
      <trkpt lat="44.1087" lon="6.7185">
        <ele>2284.6199912444</ele>
        <time>2021-07-10T10:02:50Z</time>
      </trkpt>
      <trkpt lat="44.10869" lon="6.71849">
        <ele>2284.6200390726</ele>
        <time>2021-07-10T10:02:51Z</time>
      </trkpt>
      <trkpt lat="44.10868" lon="6.71849">
        <ele>2285.6200709409</ele>
        <time>2021-07-10T10:02:52Z</time>
      </trkpt>
      <trkpt lat="44.10868" lon="6.71848">
        <ele>2285.6200953424</ele>
        <time>2021-07-10T10:02:53Z</time>
      </trkpt>
      <trkpt lat="44.10867" lon="6.71848">
        <ele>2285.620131787</ele>
        <time>2021-07-10T10:02:54Z</time>
      </trkpt>
      <trkpt lat="44.10866" lon="6.71847">
        <ele>2286.6201929311</ele>
        <time>2021-07-10T10:02:55Z</time>
      </trkpt>
      <trkpt lat="44.10865" lon="6.71846">
        <ele>2285.6202508665</ele>
        <time>2021-07-10T10:02:56Z</time>
      </trkpt>
      <trkpt lat="44.10864" lon="6.71845">
        <ele>2286.6202796825</ele>
        <time>2021-07-10T10:02:58Z</time>
      </trkpt>
      <trkpt lat="44.10862" lon="6.71844">
        <ele>2286.6203667445</ele>
        <time>2021-07-10T10:02:59Z</time>
      </trkpt>
      <trkpt lat="44.10861" lon="6.71844">
        <ele>2285.6204000614</ele>
        <time>2021-07-10T10:03:00Z</time>
      </trkpt>
      <trkpt lat="44.10861" lon="6.71843">
        <ele>2285.6204417166</ele>
        <time>2021-07-10T10:03:02Z</time>
      </trkpt>
      <trkpt lat="44.1086" lon="6.71842">
        <ele>2285.6204810377</ele>
        <time>2021-07-10T10:03:02Z</time>
      </trkpt>
      <trkpt lat="44.1086" lon="6.71841">
        <ele>2285.6205133042</ele>
        <time>2021-07-10T10:03:03Z</time>
      </trkpt>
      <trkpt lat="44.10859" lon="6.7184">
        <ele>2285.6205558559</ele>
        <time>2021-07-10T10:03:04Z</time>
      </trkpt>
      <trkpt lat="44.10857" lon="6.71838">
        <ele>2285.6206277417</ele>
        <time>2021-07-10T10:03:05Z</time>
      </trkpt>
      <trkpt lat="44.10856" lon="6.71837">
        <ele>2285.6206927839</ele>
        <time>2021-07-10T10:03:06Z</time>
      </trkpt>
      <trkpt lat="44.10856" lon="6.71837">
        <ele>2285.6207211472</ele>
        <time>2021-07-10T10:03:07Z</time>
      </trkpt>
      <trkpt lat="44.10855" lon="6.71836">
        <ele>2285.6207410172</ele>
        <time>2021-07-10T10:03:08Z</time>
      </trkpt>
      <trkpt lat="44.10855" lon="6.71836">
        <ele>2285.6207634201</ele>
        <time>2021-07-10T10:03:09Z</time>
      </trkpt>
      <trkpt lat="44.10854" lon="6.71836">
        <ele>2285.6208090299</ele>
        <time>2021-07-10T10:03:10Z</time>
      </trkpt>
      <trkpt lat="44.10853" lon="6.71836">
        <ele>2285.6208307541</ele>
        <time>2021-07-10T10:03:12Z</time>
      </trkpt>
      <trkpt lat="44.1085" lon="6.71835">
        <ele>2284.6209325245</ele>
        <time>2021-07-10T10:03:13Z</time>
      </trkpt>
      <trkpt lat="44.10849" lon="6.71834">
        <ele>2284.6209819448</ele>
        <time>2021-07-10T10:03:14Z</time>
      </trkpt>
      <trkpt lat="44.10849" lon="6.71834">
        <ele>2284.6210104544</ele>
        <time>2021-07-10T10:03:16Z</time>
      </trkpt>
      <trkpt lat="44.10847" lon="6.71832">
        <ele>2284.6211012959</ele>
        <time>2021-07-10T10:03:18Z</time>
      </trkpt>
      <trkpt lat="44.10846" lon="6.7183">
        <ele>2284.6211727726</ele>
        <time>2021-07-10T10:03:19Z</time>
      </trkpt>
      <trkpt lat="44.10846" lon="6.71828">
        <ele>2284.6212110781</ele>
        <time>2021-07-10T10:03:20Z</time>
      </trkpt>
      <trkpt lat="44.10846" lon="6.71827">
        <ele>2284.6212443351</ele>
        <time>2021-07-10T10:03:22Z</time>
      </trkpt>
      <trkpt lat="44.10844" lon="6.71825">
        <ele>2285.6213169117</ele>
        <time>2021-07-10T10:03:23Z</time>
      </trkpt>
      <trkpt lat="44.10843" lon="6.71824">
        <ele>2284.6213662423</ele>
        <time>2021-07-10T10:03:24Z</time>
      </trkpt>
      <trkpt lat="44.10843" lon="6.71823">
        <ele>2285.6214173368</ele>
        <time>2021-07-10T10:03:25Z</time>
      </trkpt>
      <trkpt lat="44.10842" lon="6.71822">
        <ele>2284.621457738</ele>
        <time>2021-07-10T10:03:26Z</time>
      </trkpt>
      <trkpt lat="44.10842" lon="6.71821">
        <ele>2284.6214924407</ele>
        <time>2021-07-10T10:03:28Z</time>
      </trkpt>
      <trkpt lat="44.1084" lon="6.71819">
        <ele>2284.6215621691</ele>
        <time>2021-07-10T10:03:29Z</time>
      </trkpt>
      <trkpt lat="44.10841" lon="6.71818">
        <ele>2284.6215781363</ele>
        <time>2021-07-10T10:03:30Z</time>
      </trkpt>
      <trkpt lat="44.1084" lon="6.71816">
        <ele>2284.6216151223</ele>
        <time>2021-07-10T10:03:31Z</time>
      </trkpt>
      <trkpt lat="44.1084" lon="6.71816">
        <ele>2283.6216288387</ele>
        <time>2021-07-10T10:03:33Z</time>
      </trkpt>
      <trkpt lat="44.1084" lon="6.71815">
        <ele>2283.6216597441</ele>
        <time>2021-07-10T10:03:34Z</time>
      </trkpt>
      <trkpt lat="44.10839" lon="6.71814">
        <ele>2283.6216921002</ele>
        <time>2021-07-10T10:03:35Z</time>
      </trkpt>
      <trkpt lat="44.10839" lon="6.71814">
        <ele>2282.621704973</ele>
        <time>2021-07-10T10:03:37Z</time>
      </trkpt>
      <trkpt lat="44.10838" lon="6.71812">
        <ele>2282.6217707757</ele>
        <time>2021-07-10T10:03:38Z</time>
      </trkpt>
      <trkpt lat="44.10837" lon="6.71811">
        <ele>2282.6218181754</ele>
        <time>2021-07-10T10:03:39Z</time>
      </trkpt>
      <trkpt lat="44.10836" lon="6.7181">
        <ele>2282.6218725846</ele>
        <time>2021-07-10T10:03:40Z</time>
      </trkpt>
      <trkpt lat="44.10835" lon="6.71808">
        <ele>2283.6219223067</ele>
        <time>2021-07-10T10:03:42Z</time>
      </trkpt>
      <trkpt lat="44.10834" lon="6.71806">
        <ele>2283.6219941935</ele>
        <time>2021-07-10T10:03:43Z</time>
      </trkpt>
      <trkpt lat="44.10834" lon="6.71806">
        <ele>2282.6220225141</ele>
        <time>2021-07-10T10:03:44Z</time>
      </trkpt>
      <trkpt lat="44.10833" lon="6.71805">
        <ele>2282.6220750195</ele>
        <time>2021-07-10T10:03:45Z</time>
      </trkpt>
      <trkpt lat="44.10832" lon="6.71804">
        <ele>2282.6221197745</ele>
        <time>2021-07-10T10:03:46Z</time>
      </trkpt>
      <trkpt lat="44.10832" lon="6.71803">
        <ele>2282.6221547334</ele>
        <time>2021-07-10T10:03:47Z</time>
      </trkpt>
      <trkpt lat="44.10831" lon="6.71801">
        <ele>2281.62219096</ele>
        <time>2021-07-10T10:03:48Z</time>
      </trkpt>
      <trkpt lat="44.10831" lon="6.718">
        <ele>2281.62222798</ele>
        <time>2021-07-10T10:03:49Z</time>
      </trkpt>
      <trkpt lat="44.1083" lon="6.71798">
        <ele>2282.6222732603</ele>
        <time>2021-07-10T10:03:51Z</time>
      </trkpt>
      <trkpt lat="44.10829" lon="6.71796">
        <ele>2282.6223474143</ele>
        <time>2021-07-10T10:03:52Z</time>
      </trkpt>
      <trkpt lat="44.10828" lon="6.71795">
        <ele>2282.6224008828</ele>
        <time>2021-07-10T10:03:53Z</time>
      </trkpt>
      <trkpt lat="44.10828" lon="6.71793">
        <ele>2282.6224478131</ele>
        <time>2021-07-10T10:03:54Z</time>
      </trkpt>
      <trkpt lat="44.10827" lon="6.71792">
        <ele>2282.6224966254</ele>
        <time>2021-07-10T10:03:55Z</time>
      </trkpt>
      <trkpt lat="44.10826" lon="6.71791">
        <ele>2282.622531594</ele>
        <time>2021-07-10T10:03:56Z</time>
      </trkpt>
      <trkpt lat="44.10826" lon="6.7179">
        <ele>2281.6225596639</ele>
        <time>2021-07-10T10:03:57Z</time>
      </trkpt>
      <trkpt lat="44.10826" lon="6.71789">
        <ele>2281.6225963727</ele>
        <time>2021-07-10T10:03:58Z</time>
      </trkpt>
      <trkpt lat="44.10825" lon="6.71789">
        <ele>2281.6226264538</ele>
        <time>2021-07-10T10:03:59Z</time>
      </trkpt>
      <trkpt lat="44.10824" lon="6.71788">
        <ele>2281.6226534119</ele>
        <time>2021-07-10T10:04:00Z</time>
      </trkpt>
      <trkpt lat="44.10823" lon="6.71787">
        <ele>2281.6227109794</ele>
        <time>2021-07-10T10:04:02Z</time>
      </trkpt>
      <trkpt lat="44.10821" lon="6.71785">
        <ele>2282.6228109481</ele>
        <time>2021-07-10T10:04:03Z</time>
      </trkpt>
      <trkpt lat="44.10821" lon="6.71783">
        <ele>2282.6228680279</ele>
        <time>2021-07-10T10:04:04Z</time>
      </trkpt>
      <trkpt lat="44.1082" lon="6.71782">
        <ele>2282.6229088249</ele>
        <time>2021-07-10T10:04:05Z</time>
      </trkpt>
      <trkpt lat="44.10819" lon="6.71782">
        <ele>2282.622962346</ele>
        <time>2021-07-10T10:04:07Z</time>
      </trkpt>
      <trkpt lat="44.10817" lon="6.7178">
        <ele>2281.6230444296</ele>
        <time>2021-07-10T10:04:08Z</time>
      </trkpt>
      <trkpt lat="44.10817" lon="6.7178">
        <ele>2281.6230736925</ele>
        <time>2021-07-10T10:04:09Z</time>
      </trkpt>
      <trkpt lat="44.10816" lon="6.71779">
        <ele>2281.6231015284</ele>
        <time>2021-07-10T10:04:10Z</time>
      </trkpt>
      <trkpt lat="44.10815" lon="6.71778">
        <ele>2280.623163156</ele>
        <time>2021-07-10T10:04:11Z</time>
      </trkpt>
      <trkpt lat="44.10814" lon="6.71777">
        <ele>2280.6232184232</ele>
        <time>2021-07-10T10:04:12Z</time>
      </trkpt>
      <trkpt lat="44.10812" lon="6.71776">
        <ele>2280.6232758354</ele>
        <time>2021-07-10T10:04:13Z</time>
      </trkpt>
      <trkpt lat="44.10811" lon="6.71775">
        <ele>2280.6233317868</ele>
        <time>2021-07-10T10:04:14Z</time>
      </trkpt>
      <trkpt lat="44.10811" lon="6.71774">
        <ele>2279.6233604221</ele>
        <time>2021-07-10T10:04:16Z</time>
      </trkpt>
      <trkpt lat="44.10809" lon="6.71774">
        <ele>2278.6234185476</ele>
        <time>2021-07-10T10:04:17Z</time>
      </trkpt>
      <trkpt lat="44.10809" lon="6.71775">
        <ele>2279.6234359805</ele>
        <time>2021-07-10T10:04:18Z</time>
      </trkpt>
      <trkpt lat="44.10808" lon="6.71775">
        <ele>2279.6234491908</ele>
        <time>2021-07-10T10:04:19Z</time>
      </trkpt>
      <trkpt lat="44.10807" lon="6.71776">
        <ele>2279.6234670727</ele>
        <time>2021-07-10T10:04:20Z</time>
      </trkpt>
      <trkpt lat="44.10807" lon="6.71776">
        <ele>2280.6234797621</ele>
        <time>2021-07-10T10:04:22Z</time>
      </trkpt>
      <trkpt lat="44.10806" lon="6.71775">
        <ele>2280.6235196994</ele>
        <time>2021-07-10T10:04:24Z</time>
      </trkpt>
      <trkpt lat="44.10805" lon="6.71774">
        <ele>2280.6235871093</ele>
        <time>2021-07-10T10:04:25Z</time>
      </trkpt>
      <trkpt lat="44.10804" lon="6.71773">
        <ele>2280.6236303479</ele>
        <time>2021-07-10T10:04:26Z</time>
      </trkpt>
      <trkpt lat="44.10803" lon="6.71772">
        <ele>2280.6236643074</ele>
        <time>2021-07-10T10:04:28Z</time>
      </trkpt>
      <trkpt lat="44.10802" lon="6.71772">
        <ele>2280.6237245036</ele>
        <time>2021-07-10T10:04:29Z</time>
      </trkpt>
      <trkpt lat="44.10801" lon="6.71771">
        <ele>2279.623752477</ele>
        <time>2021-07-10T10:04:30Z</time>
      </trkpt>
      <trkpt lat="44.10801" lon="6.71771">
        <ele>2280.6237851255</ele>
        <time>2021-07-10T10:04:32Z</time>
      </trkpt>
      <trkpt lat="44.10799" lon="6.71771">
        <ele>2280.6238532851</ele>
        <time>2021-07-10T10:04:33Z</time>
      </trkpt>
      <trkpt lat="44.10798" lon="6.7177">
        <ele>2280.6238951494</ele>
        <time>2021-07-10T10:04:34Z</time>
      </trkpt>
      <trkpt lat="44.10796" lon="6.71771">
        <ele>2281.6239294695</ele>
        <time>2021-07-10T10:04:36Z</time>
      </trkpt>
      <trkpt lat="44.10794" lon="6.7177">
        <ele>2281.624010547</ele>
        <time>2021-07-10T10:04:37Z</time>
      </trkpt>
      <trkpt lat="44.10793" lon="6.71771">
        <ele>2281.6240358836</ele>
        <time>2021-07-10T10:04:38Z</time>
      </trkpt>
      <trkpt lat="44.10792" lon="6.7177">
        <ele>2281.6240993233</ele>
        <time>2021-07-10T10:04:39Z</time>
      </trkpt>
      <trkpt lat="44.10791" lon="6.7177">
        <ele>2280.6241474358</ele>
        <time>2021-07-10T10:04:40Z</time>
      </trkpt>
      <trkpt lat="44.1079" lon="6.71769">
        <ele>2280.6241847523</ele>
        <time>2021-07-10T10:04:41Z</time>
      </trkpt>
      <trkpt lat="44.10789" lon="6.71769">
        <ele>2280.6242168783</ele>
        <time>2021-07-10T10:04:43Z</time>
      </trkpt>
      <trkpt lat="44.10787" lon="6.7177">
        <ele>2279.6242846304</ele>
        <time>2021-07-10T10:04:44Z</time>
      </trkpt>
      <trkpt lat="44.10786" lon="6.71769">
        <ele>2279.6243184875</ele>
        <time>2021-07-10T10:04:45Z</time>
      </trkpt>
      <trkpt lat="44.10785" lon="6.7177">
        <ele>2279.6243492951</ele>
        <time>2021-07-10T10:04:47Z</time>
      </trkpt>
      <trkpt lat="44.10783" lon="6.7177">
        <ele>2280.6243969471</ele>
        <time>2021-07-10T10:04:48Z</time>
      </trkpt>
      <trkpt lat="44.10783" lon="6.7177">
        <ele>2280.624421072</ele>
        <time>2021-07-10T10:04:49Z</time>
      </trkpt>
      <trkpt lat="44.10782" lon="6.7177">
        <ele>2281.6244613333</ele>
        <time>2021-07-10T10:04:51Z</time>
      </trkpt>
      <trkpt lat="44.1078" lon="6.71769">
        <ele>2280.6245312524</ele>
        <time>2021-07-10T10:04:52Z</time>
      </trkpt>
      <trkpt lat="44.10779" lon="6.71769">
        <ele>2280.624564683</ele>
        <time>2021-07-10T10:04:53Z</time>
      </trkpt>
      <trkpt lat="44.10778" lon="6.71769">
        <ele>2280.6246075375</ele>
        <time>2021-07-10T10:04:54Z</time>
      </trkpt>
      <trkpt lat="44.10777" lon="6.71768">
        <ele>2280.6246641512</ele>
        <time>2021-07-10T10:04:55Z</time>
      </trkpt>
      <trkpt lat="44.10776" lon="6.71767">
        <ele>2280.6246944106</ele>
        <time>2021-07-10T10:04:57Z</time>
      </trkpt>
      <trkpt lat="44.10774" lon="6.71767">
        <ele>2279.6247907855</ele>
        <time>2021-07-10T10:04:58Z</time>
      </trkpt>
      <trkpt lat="44.10773" lon="6.71766">
        <ele>2279.6248289283</ele>
        <time>2021-07-10T10:04:59Z</time>
      </trkpt>
      <trkpt lat="44.10772" lon="6.71766">
        <ele>2279.6248634431</ele>
        <time>2021-07-10T10:05:01Z</time>
      </trkpt>
      <trkpt lat="44.10771" lon="6.71765">
        <ele>2277.6249118443</ele>
        <time>2021-07-10T10:05:03Z</time>
      </trkpt>
      <trkpt lat="44.10769" lon="6.71766">
        <ele>2278.6249774002</ele>
        <time>2021-07-10T10:05:04Z</time>
      </trkpt>
      <trkpt lat="44.10768" lon="6.71768">
        <ele>2278.6249703711</ele>
        <time>2021-07-10T10:05:05Z</time>
      </trkpt>
      <trkpt lat="44.10767" lon="6.71768">
        <ele>2277.6249989265</ele>
        <time>2021-07-10T10:05:07Z</time>
      </trkpt>
      <trkpt lat="44.10765" lon="6.7177">
        <ele>2277.6250536557</ele>
        <time>2021-07-10T10:05:08Z</time>
      </trkpt>
      <trkpt lat="44.10763" lon="6.71769">
        <ele>2278.6251039314</ele>
        <time>2021-07-10T10:05:09Z</time>
      </trkpt>
      <trkpt lat="44.10762" lon="6.71769">
        <ele>2277.6251496491</ele>
        <time>2021-07-10T10:05:11Z</time>
      </trkpt>
      <trkpt lat="44.10761" lon="6.71768">
        <ele>2277.625207203</ele>
        <time>2021-07-10T10:05:13Z</time>
      </trkpt>
      <trkpt lat="44.10759" lon="6.71766">
        <ele>2277.6253187109</ele>
        <time>2021-07-10T10:05:14Z</time>
      </trkpt>
      <trkpt lat="44.10758" lon="6.71765">
        <ele>2277.6253730147</ele>
        <time>2021-07-10T10:05:15Z</time>
      </trkpt>
      <trkpt lat="44.10757" lon="6.71765">
        <ele>2277.6254092196</ele>
        <time>2021-07-10T10:05:16Z</time>
      </trkpt>
      <trkpt lat="44.10755" lon="6.71765">
        <ele>2277.6254541303</ele>
        <time>2021-07-10T10:05:17Z</time>
      </trkpt>
      <trkpt lat="44.10755" lon="6.71764">
        <ele>2276.6254980737</ele>
        <time>2021-07-10T10:05:18Z</time>
      </trkpt>
      <trkpt lat="44.10753" lon="6.71763">
        <ele>2276.6255654655</ele>
        <time>2021-07-10T10:05:19Z</time>
      </trkpt>
      <trkpt lat="44.10752" lon="6.71762">
        <ele>2276.6256104767</ele>
        <time>2021-07-10T10:05:20Z</time>
      </trkpt>
      <trkpt lat="44.10751" lon="6.71762">
        <ele>2276.6256663768</ele>
        <time>2021-07-10T10:05:21Z</time>
      </trkpt>
      <trkpt lat="44.1075" lon="6.71762">
        <ele>2276.6256928929</ele>
        <time>2021-07-10T10:05:22Z</time>
      </trkpt>
      <trkpt lat="44.10749" lon="6.71761">
        <ele>2277.6257355212</ele>
        <time>2021-07-10T10:05:24Z</time>
      </trkpt>
      <trkpt lat="44.10749" lon="6.7176">
        <ele>2277.6257665941</ele>
        <time>2021-07-10T10:05:24Z</time>
      </trkpt>
      <trkpt lat="44.10748" lon="6.7176">
        <ele>2277.6258007422</ele>
        <time>2021-07-10T10:05:26Z</time>
      </trkpt>
      <trkpt lat="44.10746" lon="6.71759">
        <ele>2278.6258965563</ele>
        <time>2021-07-10T10:05:28Z</time>
      </trkpt>
      <trkpt lat="44.10744" lon="6.71759">
        <ele>2278.6259572973</ele>
        <time>2021-07-10T10:05:29Z</time>
      </trkpt>
      <trkpt lat="44.10743" lon="6.71759">
        <ele>2279.6259890354</ele>
        <time>2021-07-10T10:05:30Z</time>
      </trkpt>
      <trkpt lat="44.10742" lon="6.71759">
        <ele>2279.6260289806</ele>
        <time>2021-07-10T10:05:32Z</time>
      </trkpt>
      <trkpt lat="44.10741" lon="6.71759">
        <ele>2279.6260693927</ele>
        <time>2021-07-10T10:05:32Z</time>
      </trkpt>
      <trkpt lat="44.1074" lon="6.71759">
        <ele>2279.6260889253</ele>
        <time>2021-07-10T10:05:33Z</time>
      </trkpt>
      <trkpt lat="44.10739" lon="6.71758">
        <ele>2280.6261337042</ele>
        <time>2021-07-10T10:05:34Z</time>
      </trkpt>
      <trkpt lat="44.10739" lon="6.71758">
        <ele>2281.626167279</ele>
        <time>2021-07-10T10:05:35Z</time>
      </trkpt>
      <trkpt lat="44.10737" lon="6.71758">
        <ele>2281.6262138294</ele>
        <time>2021-07-10T10:05:37Z</time>
      </trkpt>
      <trkpt lat="44.10735" lon="6.71757">
        <ele>2281.6262903577</ele>
        <time>2021-07-10T10:05:39Z</time>
      </trkpt>
      <trkpt lat="44.10734" lon="6.71757">
        <ele>2281.6263283761</ele>
        <time>2021-07-10T10:05:39Z</time>
      </trkpt>
      <trkpt lat="44.10733" lon="6.71757">
        <ele>2281.6263645846</ele>
        <time>2021-07-10T10:05:41Z</time>
      </trkpt>
      <trkpt lat="44.10732" lon="6.71757">
        <ele>2281.6264012068</ele>
        <time>2021-07-10T10:05:41Z</time>
      </trkpt>
      <trkpt lat="44.10731" lon="6.71757">
        <ele>2282.6264401554</ele>
        <time>2021-07-10T10:05:43Z</time>
      </trkpt>
      <trkpt lat="44.10729" lon="6.71756">
        <ele>2282.6265402089</ele>
        <time>2021-07-10T10:05:44Z</time>
      </trkpt>
      <trkpt lat="44.10728" lon="6.71755">
        <ele>2282.626588759</ele>
        <time>2021-07-10T10:05:45Z</time>
      </trkpt>
      <trkpt lat="44.10727" lon="6.71755">
        <ele>2282.6266326771</ele>
        <time>2021-07-10T10:05:46Z</time>
      </trkpt>
      <trkpt lat="44.10726" lon="6.71755">
        <ele>2282.6266558856</ele>
        <time>2021-07-10T10:05:47Z</time>
      </trkpt>
      <trkpt lat="44.10725" lon="6.71755">
        <ele>2282.6266962995</ele>
        <time>2021-07-10T10:05:48Z</time>
      </trkpt>
      <trkpt lat="44.10724" lon="6.71755">
        <ele>2282.6267434114</ele>
        <time>2021-07-10T10:05:49Z</time>
      </trkpt>
      <trkpt lat="44.10722" lon="6.71754">
        <ele>2282.6267988903</ele>
        <time>2021-07-10T10:05:50Z</time>
      </trkpt>
      <trkpt lat="44.10721" lon="6.71754">
        <ele>2282.6268330373</ele>
        <time>2021-07-10T10:05:51Z</time>
      </trkpt>
      <trkpt lat="44.1072" lon="6.71754">
        <ele>2282.6268762544</ele>
        <time>2021-07-10T10:05:52Z</time>
      </trkpt>
      <trkpt lat="44.10719" lon="6.71754">
        <ele>2283.6269043061</ele>
        <time>2021-07-10T10:05:53Z</time>
      </trkpt>
      <trkpt lat="44.10718" lon="6.71755">
        <ele>2282.6269280844</ele>
        <time>2021-07-10T10:05:54Z</time>
      </trkpt>
      <trkpt lat="44.10717" lon="6.71755">
        <ele>2282.626971963</ele>
        <time>2021-07-10T10:05:55Z</time>
      </trkpt>
      <trkpt lat="44.10715" lon="6.71754">
        <ele>2282.6270370737</ele>
        <time>2021-07-10T10:05:56Z</time>
      </trkpt>
      <trkpt lat="44.10714" lon="6.71755">
        <ele>2282.6270748753</ele>
        <time>2021-07-10T10:05:58Z</time>
      </trkpt>
      <trkpt lat="44.10712" lon="6.71754">
        <ele>2281.6271531092</ele>
        <time>2021-07-10T10:05:59Z</time>
      </trkpt>
      <trkpt lat="44.10711" lon="6.71754">
        <ele>2281.6272070388</ele>
        <time>2021-07-10T10:06:00Z</time>
      </trkpt>
      <trkpt lat="44.1071" lon="6.71754">
        <ele>2281.6272266928</ele>
        <time>2021-07-10T10:06:01Z</time>
      </trkpt>
      <trkpt lat="44.10709" lon="6.71755">
        <ele>2281.6272657402</ele>
        <time>2021-07-10T10:06:02Z</time>
      </trkpt>
      <trkpt lat="44.10707" lon="6.71755">
        <ele>2280.6273059493</ele>
        <time>2021-07-10T10:06:03Z</time>
      </trkpt>
      <trkpt lat="44.10706" lon="6.71755">
        <ele>2281.6273418236</ele>
        <time>2021-07-10T10:06:04Z</time>
      </trkpt>
      <trkpt lat="44.10706" lon="6.71755">
        <ele>2280.6273556351</ele>
        <time>2021-07-10T10:06:06Z</time>
      </trkpt>
      <trkpt lat="44.10704" lon="6.71755">
        <ele>2279.6274311283</ele>
        <time>2021-07-10T10:06:07Z</time>
      </trkpt>
      <trkpt lat="44.10703" lon="6.71755">
        <ele>2279.6274559369</ele>
        <time>2021-07-10T10:06:08Z</time>
      </trkpt>
      <trkpt lat="44.10702" lon="6.71755">
        <ele>2279.627492604</ele>
        <time>2021-07-10T10:06:09Z</time>
      </trkpt>
      <trkpt lat="44.10701" lon="6.71755">
        <ele>2280.6275280764</ele>
        <time>2021-07-10T10:06:10Z</time>
      </trkpt>
      <trkpt lat="44.107" lon="6.71756">
        <ele>2280.627550929</ele>
        <time>2021-07-10T10:06:11Z</time>
      </trkpt>
      <trkpt lat="44.10699" lon="6.71756">
        <ele>2280.6275728236</ele>
        <time>2021-07-10T10:06:12Z</time>
      </trkpt>
      <trkpt lat="44.10698" lon="6.71757">
        <ele>2280.6275951721</ele>
        <time>2021-07-10T10:06:13Z</time>
      </trkpt>
      <trkpt lat="44.10697" lon="6.71758">
        <ele>2280.6276176003</ele>
        <time>2021-07-10T10:06:14Z</time>
      </trkpt>
      <trkpt lat="44.10696" lon="6.71758">
        <ele>2281.6276507872</ele>
        <time>2021-07-10T10:06:16Z</time>
      </trkpt>
      <trkpt lat="44.10694" lon="6.71757">
        <ele>2280.6277234758</ele>
        <time>2021-07-10T10:06:17Z</time>
      </trkpt>
      <trkpt lat="44.10693" lon="6.71757">
        <ele>2281.6277733643</ele>
        <time>2021-07-10T10:06:19Z</time>
      </trkpt>
      <trkpt lat="44.10692" lon="6.71758">
        <ele>2281.6277996274</ele>
        <time>2021-07-10T10:06:20Z</time>
      </trkpt>
      <trkpt lat="44.10691" lon="6.71758">
        <ele>2281.627831099</ele>
        <time>2021-07-10T10:06:22Z</time>
      </trkpt>
      <trkpt lat="44.10689" lon="6.71757">
        <ele>2281.6279132082</ele>
        <time>2021-07-10T10:06:23Z</time>
      </trkpt>
      <trkpt lat="44.10688" lon="6.71756">
        <ele>2281.6279542605</ele>
        <time>2021-07-10T10:06:24Z</time>
      </trkpt>
      <trkpt lat="44.10687" lon="6.71756">
        <ele>2281.6279923703</ele>
        <time>2021-07-10T10:06:25Z</time>
      </trkpt>
      <trkpt lat="44.10686" lon="6.71756">
        <ele>2281.6280258004</ele>
        <time>2021-07-10T10:06:26Z</time>
      </trkpt>
      <trkpt lat="44.10685" lon="6.71755">
        <ele>2282.628071303</ele>
        <time>2021-07-10T10:06:28Z</time>
      </trkpt>
      <trkpt lat="44.10683" lon="6.71753">
        <ele>2282.6281701139</ele>
        <time>2021-07-10T10:06:29Z</time>
      </trkpt>
      <trkpt lat="44.10682" lon="6.71752">
        <ele>2282.6282258522</ele>
        <time>2021-07-10T10:06:30Z</time>
      </trkpt>
      <trkpt lat="44.10681" lon="6.71751">
        <ele>2282.6282773941</ele>
        <time>2021-07-10T10:06:31Z</time>
      </trkpt>
      <trkpt lat="44.1068" lon="6.7175">
        <ele>2282.6283288909</ele>
        <time>2021-07-10T10:06:32Z</time>
      </trkpt>
      <trkpt lat="44.1068" lon="6.71749">
        <ele>2282.6283628848</ele>
        <time>2021-07-10T10:06:33Z</time>
      </trkpt>
      <trkpt lat="44.10679" lon="6.71749">
        <ele>2282.6284026166</ele>
        <time>2021-07-10T10:06:34Z</time>
      </trkpt>
      <trkpt lat="44.10678" lon="6.71748">
        <ele>2282.6284429905</ele>
        <time>2021-07-10T10:06:36Z</time>
      </trkpt>
      <trkpt lat="44.10676" lon="6.71748">
        <ele>2282.6285080399</ele>
        <time>2021-07-10T10:06:37Z</time>
      </trkpt>
      <trkpt lat="44.10675" lon="6.71748">
        <ele>2282.6285412071</ele>
        <time>2021-07-10T10:06:38Z</time>
      </trkpt>
      <trkpt lat="44.10674" lon="6.71748">
        <ele>2282.6285851115</ele>
        <time>2021-07-10T10:06:39Z</time>
      </trkpt>
      <trkpt lat="44.10673" lon="6.71747">
        <ele>2282.6286214717</ele>
        <time>2021-07-10T10:06:40Z</time>
      </trkpt>
      <trkpt lat="44.10672" lon="6.71747">
        <ele>2282.6286541882</ele>
        <time>2021-07-10T10:06:42Z</time>
      </trkpt>
      <trkpt lat="44.1067" lon="6.71747">
        <ele>2282.6287284579</ele>
        <time>2021-07-10T10:06:43Z</time>
      </trkpt>
      <trkpt lat="44.1067" lon="6.71747">
        <ele>2282.6287535721</ele>
        <time>2021-07-10T10:06:44Z</time>
      </trkpt>
      <trkpt lat="44.10669" lon="6.71747">
        <ele>2282.6287892796</ele>
        <time>2021-07-10T10:06:46Z</time>
      </trkpt>
      <trkpt lat="44.10667" lon="6.71747">
        <ele>2282.6288279944</ele>
        <time>2021-07-10T10:06:48Z</time>
      </trkpt>
      <trkpt lat="44.10666" lon="6.71748">
        <ele>2283.6288565483</ele>
        <time>2021-07-10T10:06:48Z</time>
      </trkpt>
      <trkpt lat="44.10665" lon="6.71748">
        <ele>2283.6289079336</ele>
        <time>2021-07-10T10:06:49Z</time>
      </trkpt>
      <trkpt lat="44.10664" lon="6.71748">
        <ele>2283.6289490324</ele>
        <time>2021-07-10T10:06:50Z</time>
      </trkpt>
      <trkpt lat="44.10662" lon="6.71748">
        <ele>2284.6289827957</ele>
        <time>2021-07-10T10:06:52Z</time>
      </trkpt>
      <trkpt lat="44.10661" lon="6.71747">
        <ele>2284.6290488576</ele>
        <time>2021-07-10T10:06:54Z</time>
      </trkpt>
      <trkpt lat="44.1066" lon="6.71747">
        <ele>2284.6290884305</ele>
        <time>2021-07-10T10:06:54Z</time>
      </trkpt>
      <trkpt lat="44.10659" lon="6.71748">
        <ele>2285.6291071946</ele>
        <time>2021-07-10T10:06:55Z</time>
      </trkpt>
      <trkpt lat="44.10658" lon="6.71748">
        <ele>2285.629137634</ele>
        <time>2021-07-10T10:06:56Z</time>
      </trkpt>
      <trkpt lat="44.10657" lon="6.71748">
        <ele>2285.6291652629</ele>
        <time>2021-07-10T10:06:58Z</time>
      </trkpt>
      <trkpt lat="44.10655" lon="6.71748">
        <ele>2285.6292459942</ele>
        <time>2021-07-10T10:06:59Z</time>
      </trkpt>
      <trkpt lat="44.10655" lon="6.71747">
        <ele>2285.629275281</ele>
        <time>2021-07-10T10:07:00Z</time>
      </trkpt>
      <trkpt lat="44.10654" lon="6.71747">
        <ele>2285.6293028934</ele>
        <time>2021-07-10T10:07:01Z</time>
      </trkpt>
      <trkpt lat="44.10653" lon="6.71747">
        <ele>2285.6293480512</ele>
        <time>2021-07-10T10:07:02Z</time>
      </trkpt>
      <trkpt lat="44.10651" lon="6.71746">
        <ele>2285.6293908605</ele>
        <time>2021-07-10T10:07:03Z</time>
      </trkpt>
      <trkpt lat="44.10651" lon="6.71746">
        <ele>2285.6293934942</ele>
        <time>2021-07-10T10:07:06Z</time>
      </trkpt>
      <trkpt lat="44.1065" lon="6.71746">
        <ele>2284.629449301</ele>
        <time>2021-07-10T10:07:07Z</time>
      </trkpt>
      <trkpt lat="44.1065" lon="6.71746">
        <ele>2285.6294550657</ele>
        <time>2021-07-10T10:07:09Z</time>
      </trkpt>
      <trkpt lat="44.10649" lon="6.71747">
        <ele>2285.6294622948</ele>
        <time>2021-07-10T10:07:10Z</time>
      </trkpt>
      <trkpt lat="44.10648" lon="6.71747">
        <ele>2286.6294818899</ele>
        <time>2021-07-10T10:07:12Z</time>
      </trkpt>
      <trkpt lat="44.10648" lon="6.71747">
        <ele>2286.6295056294</ele>
        <time>2021-07-10T10:07:16Z</time>
      </trkpt>
      <trkpt lat="44.10647" lon="6.71747">
        <ele>2286.6295148498</ele>
        <time>2021-07-10T10:07:18Z</time>
      </trkpt>
      <trkpt lat="44.10647" lon="6.71747">
        <ele>2286.6295586399</ele>
        <time>2021-07-10T10:07:19Z</time>
      </trkpt>
      <trkpt lat="44.10646" lon="6.71746">
        <ele>2287.6295897661</ele>
        <time>2021-07-10T10:07:22Z</time>
      </trkpt>
      <trkpt lat="44.10644" lon="6.71746">
        <ele>2287.6296622624</ele>
        <time>2021-07-10T10:07:23Z</time>
      </trkpt>
      <trkpt lat="44.10643" lon="6.71746">
        <ele>2288.6296907535</ele>
        <time>2021-07-10T10:07:26Z</time>
      </trkpt>
      <trkpt lat="44.10642" lon="6.71746">
        <ele>2289.629728331</ele>
        <time>2021-07-10T10:07:28Z</time>
      </trkpt>
      <trkpt lat="44.10642" lon="6.71745">
        <ele>2289.6297386045</ele>
        <time>2021-07-10T10:07:36Z</time>
      </trkpt>
      <trkpt lat="44.10642" lon="6.71744">
        <ele>2289.6297492864</ele>
        <time>2021-07-10T10:07:44Z</time>
      </trkpt>
      <trkpt lat="44.10641" lon="6.71744">
        <ele>2289.6298134012</ele>
        <time>2021-07-10T10:07:46Z</time>
      </trkpt>
      <trkpt lat="44.10641" lon="6.71741">
        <ele>2288.6298626153</ele>
        <time>2021-07-10T10:07:48Z</time>
      </trkpt>
      <trkpt lat="44.1064" lon="6.71739">
        <ele>2288.6299294721</ele>
        <time>2021-07-10T10:07:49Z</time>
      </trkpt>
      <trkpt lat="44.10639" lon="6.71738">
        <ele>2287.6299718669</ele>
        <time>2021-07-10T10:07:50Z</time>
      </trkpt>
      <trkpt lat="44.10639" lon="6.71738">
        <ele>2287.6299811465</ele>
        <time>2021-07-10T10:07:52Z</time>
      </trkpt>
      <trkpt lat="44.10638" lon="6.71738">
        <ele>2287.630008898</ele>
        <time>2021-07-10T10:07:54Z</time>
      </trkpt>
      <trkpt lat="44.10637" lon="6.71738">
        <ele>2286.63004452</ele>
        <time>2021-07-10T10:07:56Z</time>
      </trkpt>
      <trkpt lat="44.10636" lon="6.71737">
        <ele>2285.63008362</ele>
        <time>2021-07-10T10:07:56Z</time>
      </trkpt>
      <trkpt lat="44.10636" lon="6.71736">
        <ele>2285.6301109888</ele>
        <time>2021-07-10T10:07:58Z</time>
      </trkpt>
      <trkpt lat="44.10636" lon="6.71732">
        <ele>2284.6301695609</ele>
        <time>2021-07-10T10:07:59Z</time>
      </trkpt>
      <trkpt lat="44.10635" lon="6.71731">
        <ele>2284.630219462</ele>
        <time>2021-07-10T10:08:00Z</time>
      </trkpt>
      <trkpt lat="44.10634" lon="6.7173">
        <ele>2284.6302693403</ele>
        <time>2021-07-10T10:08:01Z</time>
      </trkpt>
      <trkpt lat="44.10633" lon="6.71729">
        <ele>2284.6303239594</ele>
        <time>2021-07-10T10:08:02Z</time>
      </trkpt>
      <trkpt lat="44.10632" lon="6.71728">
        <ele>2284.6303840902</ele>
        <time>2021-07-10T10:08:03Z</time>
      </trkpt>
      <trkpt lat="44.10631" lon="6.71727">
        <ele>2284.6304345295</ele>
        <time>2021-07-10T10:08:04Z</time>
      </trkpt>
      <trkpt lat="44.1063" lon="6.71726">
        <ele>2284.6304878968</ele>
        <time>2021-07-10T10:08:05Z</time>
      </trkpt>
      <trkpt lat="44.10629" lon="6.71725">
        <ele>2284.6305387758</ele>
        <time>2021-07-10T10:08:06Z</time>
      </trkpt>
      <trkpt lat="44.10628" lon="6.71724">
        <ele>2283.6305786953</ele>
        <time>2021-07-10T10:08:07Z</time>
      </trkpt>
      <trkpt lat="44.10627" lon="6.71724">
        <ele>2283.6306127609</ele>
        <time>2021-07-10T10:08:08Z</time>
      </trkpt>
      <trkpt lat="44.10626" lon="6.71724">
        <ele>2284.6306522668</ele>
        <time>2021-07-10T10:08:09Z</time>
      </trkpt>
      <trkpt lat="44.10625" lon="6.71724">
        <ele>2284.6306926178</ele>
        <time>2021-07-10T10:08:11Z</time>
      </trkpt>
      <trkpt lat="44.10624" lon="6.71724">
        <ele>2284.6307333598</ele>
        <time>2021-07-10T10:08:11Z</time>
      </trkpt>
      <trkpt lat="44.10623" lon="6.71723">
        <ele>2284.6307656501</ele>
        <time>2021-07-10T10:08:13Z</time>
      </trkpt>
      <trkpt lat="44.10622" lon="6.71722">
        <ele>2285.6308436</ele>
        <time>2021-07-10T10:08:14Z</time>
      </trkpt>
      <trkpt lat="44.10621" lon="6.71722">
        <ele>2285.630873423</ele>
        <time>2021-07-10T10:08:15Z</time>
      </trkpt>
      <trkpt lat="44.1062" lon="6.71721">
        <ele>2285.6309022051</ele>
        <time>2021-07-10T10:08:16Z</time>
      </trkpt>
      <trkpt lat="44.1062" lon="6.7172">
        <ele>2284.6309476065</ele>
        <time>2021-07-10T10:08:17Z</time>
      </trkpt>
      <trkpt lat="44.10619" lon="6.71719">
        <ele>2284.6309827168</ele>
        <time>2021-07-10T10:08:18Z</time>
      </trkpt>
      <trkpt lat="44.10618" lon="6.71719">
        <ele>2282.6310153595</ele>
        <time>2021-07-10T10:08:19Z</time>
      </trkpt>
      <trkpt lat="44.10618" lon="6.71717">
        <ele>2282.6310415449</ele>
        <time>2021-07-10T10:08:20Z</time>
      </trkpt>
      <trkpt lat="44.10618" lon="6.71716">
        <ele>2282.6310690499</ele>
        <time>2021-07-10T10:08:22Z</time>
      </trkpt>
      <trkpt lat="44.10618" lon="6.71715">
        <ele>2282.6310946162</ele>
        <time>2021-07-10T10:08:23Z</time>
      </trkpt>
      <trkpt lat="44.10617" lon="6.71713">
        <ele>2282.6311400888</ele>
        <time>2021-07-10T10:08:24Z</time>
      </trkpt>
      <trkpt lat="44.10617" lon="6.71712">
        <ele>2281.6311809167</ele>
        <time>2021-07-10T10:08:25Z</time>
      </trkpt>
      <trkpt lat="44.10616" lon="6.71711">
        <ele>2281.631211302</ele>
        <time>2021-07-10T10:08:26Z</time>
      </trkpt>
      <trkpt lat="44.10616" lon="6.7171">
        <ele>2281.6312553298</ele>
        <time>2021-07-10T10:08:27Z</time>
      </trkpt>
      <trkpt lat="44.10615" lon="6.71709">
        <ele>2280.6312818811</ele>
        <time>2021-07-10T10:08:28Z</time>
      </trkpt>
      <trkpt lat="44.10615" lon="6.71708">
        <ele>2280.6313053789</ele>
        <time>2021-07-10T10:08:29Z</time>
      </trkpt>
      <trkpt lat="44.10615" lon="6.71708">
        <ele>2280.6313269461</ele>
        <time>2021-07-10T10:08:31Z</time>
      </trkpt>
      <trkpt lat="44.10614" lon="6.71707">
        <ele>2280.6313619362</ele>
        <time>2021-07-10T10:08:32Z</time>
      </trkpt>
      <trkpt lat="44.10614" lon="6.71705">
        <ele>2280.631409141</ele>
        <time>2021-07-10T10:08:33Z</time>
      </trkpt>
      <trkpt lat="44.10613" lon="6.71704">
        <ele>2279.6314444857</ele>
        <time>2021-07-10T10:08:34Z</time>
      </trkpt>
      <trkpt lat="44.10613" lon="6.71703">
        <ele>2279.6314908903</ele>
        <time>2021-07-10T10:08:35Z</time>
      </trkpt>
      <trkpt lat="44.10613" lon="6.71701">
        <ele>2279.6315105024</ele>
        <time>2021-07-10T10:08:37Z</time>
      </trkpt>
      <trkpt lat="44.10612" lon="6.71699">
        <ele>2278.6315581925</ele>
        <time>2021-07-10T10:08:38Z</time>
      </trkpt>
      <trkpt lat="44.10612" lon="6.71699">
        <ele>2278.6315800552</ele>
        <time>2021-07-10T10:08:39Z</time>
      </trkpt>
      <trkpt lat="44.10612" lon="6.71698">
        <ele>2277.6316001628</ele>
        <time>2021-07-10T10:08:44Z</time>
      </trkpt>
      <trkpt lat="44.10611" lon="6.71697">
        <ele>2277.6316341608</ele>
        <time>2021-07-10T10:08:45Z</time>
      </trkpt>
      <trkpt lat="44.10611" lon="6.71697">
        <ele>2279.6316417399</ele>
        <time>2021-07-10T10:08:55Z</time>
      </trkpt>
      <trkpt lat="44.10609" lon="6.71698">
        <ele>2280.6316873437</ele>
        <time>2021-07-10T10:08:57Z</time>
      </trkpt>
      <trkpt lat="44.10608" lon="6.71698">
        <ele>2280.6317093135</ele>
        <time>2021-07-10T10:08:58Z</time>
      </trkpt>
      <trkpt lat="44.10607" lon="6.71698">
        <ele>2280.6317567552</ele>
        <time>2021-07-10T10:08:59Z</time>
      </trkpt>
      <trkpt lat="44.10606" lon="6.71698">
        <ele>2280.6317829967</ele>
        <time>2021-07-10T10:09:01Z</time>
      </trkpt>
      <trkpt lat="44.10605" lon="6.71699">
        <ele>2280.6317980206</ele>
        <time>2021-07-10T10:09:02Z</time>
      </trkpt>
      <trkpt lat="44.10605" lon="6.71699">
        <ele>2280.6318288588</ele>
        <time>2021-07-10T10:09:03Z</time>
      </trkpt>
      <trkpt lat="44.10604" lon="6.71698">
        <ele>2281.6318622097</ele>
        <time>2021-07-10T10:09:04Z</time>
      </trkpt>
      <trkpt lat="44.10603" lon="6.71698">
        <ele>2281.6319023448</ele>
        <time>2021-07-10T10:09:05Z</time>
      </trkpt>
      <trkpt lat="44.10602" lon="6.71697">
        <ele>2281.6319400143</ele>
        <time>2021-07-10T10:09:07Z</time>
      </trkpt>
      <trkpt lat="44.106" lon="6.71696">
        <ele>2281.6320155021</ele>
        <time>2021-07-10T10:09:08Z</time>
      </trkpt>
      <trkpt lat="44.10599" lon="6.71697">
        <ele>2281.6320485806</ele>
        <time>2021-07-10T10:09:10Z</time>
      </trkpt>
      <trkpt lat="44.10599" lon="6.71696">
        <ele>2281.6320838482</ele>
        <time>2021-07-10T10:09:11Z</time>
      </trkpt>
      <trkpt lat="44.10598" lon="6.71695">
        <ele>2281.632132154</ele>
        <time>2021-07-10T10:09:12Z</time>
      </trkpt>
      <trkpt lat="44.10597" lon="6.71695">
        <ele>2281.6321674084</ele>
        <time>2021-07-10T10:09:13Z</time>
      </trkpt>
      <trkpt lat="44.10596" lon="6.71694">
        <ele>2282.6322096096</ele>
        <time>2021-07-10T10:09:14Z</time>
      </trkpt>
      <trkpt lat="44.10595" lon="6.71694">
        <ele>2282.6322532747</ele>
        <time>2021-07-10T10:09:16Z</time>
      </trkpt>
      <trkpt lat="44.10592" lon="6.71695">
        <ele>2282.6323314271</ele>
        <time>2021-07-10T10:09:17Z</time>
      </trkpt>
      <trkpt lat="44.10591" lon="6.71695">
        <ele>2282.632362716</ele>
        <time>2021-07-10T10:09:18Z</time>
      </trkpt>
      <trkpt lat="44.1059" lon="6.71695">
        <ele>2283.6323931858</ele>
        <time>2021-07-10T10:09:19Z</time>
      </trkpt>
      <trkpt lat="44.10589" lon="6.71695">
        <ele>2282.6324295548</ele>
        <time>2021-07-10T10:09:20Z</time>
      </trkpt>
      <trkpt lat="44.10589" lon="6.71695">
        <ele>2283.632447223</ele>
        <time>2021-07-10T10:09:21Z</time>
      </trkpt>
      <trkpt lat="44.10588" lon="6.71695">
        <ele>2282.6324793492</ele>
        <time>2021-07-10T10:09:22Z</time>
      </trkpt>
      <trkpt lat="44.10587" lon="6.71695">
        <ele>2283.6325112925</ele>
        <time>2021-07-10T10:09:23Z</time>
      </trkpt>
      <trkpt lat="44.10587" lon="6.71695">
        <ele>2283.632520796</ele>
        <time>2021-07-10T10:09:24Z</time>
      </trkpt>
      <trkpt lat="44.10586" lon="6.71695">
        <ele>2283.6325511355</ele>
        <time>2021-07-10T10:09:25Z</time>
      </trkpt>
      <trkpt lat="44.10585" lon="6.71694">
        <ele>2283.632579292</ele>
        <time>2021-07-10T10:09:27Z</time>
      </trkpt>
      <trkpt lat="44.10583" lon="6.71694">
        <ele>2282.632662068</ele>
        <time>2021-07-10T10:09:28Z</time>
      </trkpt>
      <trkpt lat="44.10583" lon="6.71694">
        <ele>2282.6326787009</ele>
        <time>2021-07-10T10:09:29Z</time>
      </trkpt>
      <trkpt lat="44.10582" lon="6.71693">
        <ele>2282.6327172069</ele>
        <time>2021-07-10T10:09:31Z</time>
      </trkpt>
      <trkpt lat="44.10581" lon="6.71693">
        <ele>2282.6327673478</ele>
        <time>2021-07-10T10:09:32Z</time>
      </trkpt>
      <trkpt lat="44.1058" lon="6.71692">
        <ele>2283.6327938027</ele>
        <time>2021-07-10T10:09:33Z</time>
      </trkpt>
      <trkpt lat="44.10579" lon="6.71692">
        <ele>2283.6328328614</ele>
        <time>2021-07-10T10:09:34Z</time>
      </trkpt>
      <trkpt lat="44.10578" lon="6.71692">
        <ele>2283.6328673519</ele>
        <time>2021-07-10T10:09:35Z</time>
      </trkpt>
      <trkpt lat="44.10577" lon="6.71692">
        <ele>2283.632919868</ele>
        <time>2021-07-10T10:09:37Z</time>
      </trkpt>
      <trkpt lat="44.10574" lon="6.71691">
        <ele>2284.6330109183</ele>
        <time>2021-07-10T10:09:39Z</time>
      </trkpt>
      <trkpt lat="44.10572" lon="6.71691">
        <ele>2284.6330911955</ele>
        <time>2021-07-10T10:09:40Z</time>
      </trkpt>
      <trkpt lat="44.10571" lon="6.71692">
        <ele>2284.6331103099</ele>
        <time>2021-07-10T10:09:41Z</time>
      </trkpt>
      <trkpt lat="44.10571" lon="6.71691">
        <ele>2284.6331385219</ele>
        <time>2021-07-10T10:09:42Z</time>
      </trkpt>
      <trkpt lat="44.1057" lon="6.71691">
        <ele>2283.633174437</ele>
        <time>2021-07-10T10:09:43Z</time>
      </trkpt>
      <trkpt lat="44.10569" lon="6.71691">
        <ele>2283.6332176845</ele>
        <time>2021-07-10T10:09:44Z</time>
      </trkpt>
      <trkpt lat="44.10568" lon="6.71691">
        <ele>2283.6332428284</ele>
        <time>2021-07-10T10:09:46Z</time>
      </trkpt>
      <trkpt lat="44.10566" lon="6.7169">
        <ele>2283.6333191543</ele>
        <time>2021-07-10T10:09:48Z</time>
      </trkpt>
      <trkpt lat="44.10565" lon="6.7169">
        <ele>2283.6333645422</ele>
        <time>2021-07-10T10:09:48Z</time>
      </trkpt>
      <trkpt lat="44.10564" lon="6.7169">
        <ele>2283.6333755105</ele>
        <time>2021-07-10T10:09:49Z</time>
      </trkpt>
      <trkpt lat="44.10563" lon="6.7169">
        <ele>2283.6334199365</ele>
        <time>2021-07-10T10:09:50Z</time>
      </trkpt>
      <trkpt lat="44.10562" lon="6.71689">
        <ele>2283.6334763194</ele>
        <time>2021-07-10T10:09:52Z</time>
      </trkpt>
      <trkpt lat="44.1056" lon="6.71689">
        <ele>2282.6335603447</ele>
        <time>2021-07-10T10:09:53Z</time>
      </trkpt>
      <trkpt lat="44.10558" lon="6.71689">
        <ele>2281.6336026968</ele>
        <time>2021-07-10T10:09:54Z</time>
      </trkpt>
      <trkpt lat="44.10557" lon="6.71688">
        <ele>2282.63364398</ele>
        <time>2021-07-10T10:09:55Z</time>
      </trkpt>
      <trkpt lat="44.10557" lon="6.71688">
        <ele>2282.633668293</ele>
        <time>2021-07-10T10:09:56Z</time>
      </trkpt>
      <trkpt lat="44.10556" lon="6.71688">
        <ele>2281.6337008564</ele>
        <time>2021-07-10T10:09:57Z</time>
      </trkpt>
      <trkpt lat="44.10555" lon="6.71687">
        <ele>2281.6337457823</ele>
        <time>2021-07-10T10:09:58Z</time>
      </trkpt>
      <trkpt lat="44.10554" lon="6.71686">
        <ele>2281.6337956154</ele>
        <time>2021-07-10T10:09:59Z</time>
      </trkpt>
      <trkpt lat="44.10553" lon="6.71686">
        <ele>2281.6338209665</ele>
        <time>2021-07-10T10:10:00Z</time>
      </trkpt>
      <trkpt lat="44.10553" lon="6.71686">
        <ele>2280.633848027</ele>
        <time>2021-07-10T10:10:01Z</time>
      </trkpt>
      <trkpt lat="44.10552" lon="6.71686">
        <ele>2280.6338819253</ele>
        <time>2021-07-10T10:10:02Z</time>
      </trkpt>
      <trkpt lat="44.10551" lon="6.71685">
        <ele>2280.6339338426</ele>
        <time>2021-07-10T10:10:03Z</time>
      </trkpt>
      <trkpt lat="44.1055" lon="6.71685">
        <ele>2279.6339730049</ele>
        <time>2021-07-10T10:10:04Z</time>
      </trkpt>
      <trkpt lat="44.10549" lon="6.71685">
        <ele>2279.6340092819</ele>
        <time>2021-07-10T10:10:06Z</time>
      </trkpt>
      <trkpt lat="44.10546" lon="6.71683">
        <ele>2279.6341231486</ele>
        <time>2021-07-10T10:10:07Z</time>
      </trkpt>
      <trkpt lat="44.10545" lon="6.71683">
        <ele>2279.634182487</ele>
        <time>2021-07-10T10:10:08Z</time>
      </trkpt>
      <trkpt lat="44.10543" lon="6.71682">
        <ele>2279.6342375921</ele>
        <time>2021-07-10T10:10:09Z</time>
      </trkpt>
      <trkpt lat="44.10542" lon="6.71681">
        <ele>2279.6342947573</ele>
        <time>2021-07-10T10:10:10Z</time>
      </trkpt>
      <trkpt lat="44.10542" lon="6.71681">
        <ele>2278.634327692</ele>
        <time>2021-07-10T10:10:12Z</time>
      </trkpt>
      <trkpt lat="44.10539" lon="6.71679">
        <ele>2277.6344245717</ele>
        <time>2021-07-10T10:10:13Z</time>
      </trkpt>
      <trkpt lat="44.10538" lon="6.71679">
        <ele>2278.634465978</ele>
        <time>2021-07-10T10:10:14Z</time>
      </trkpt>
      <trkpt lat="44.10537" lon="6.71678">
        <ele>2278.6345355705</ele>
        <time>2021-07-10T10:10:16Z</time>
      </trkpt>
      <trkpt lat="44.10534" lon="6.71676">
        <ele>2279.6346445832</ele>
        <time>2021-07-10T10:10:18Z</time>
      </trkpt>
      <trkpt lat="44.10533" lon="6.71675">
        <ele>2279.6346967343</ele>
        <time>2021-07-10T10:10:18Z</time>
      </trkpt>
      <trkpt lat="44.10532" lon="6.71675">
        <ele>2279.6347362702</ele>
        <time>2021-07-10T10:10:19Z</time>
      </trkpt>
      <trkpt lat="44.10531" lon="6.71674">
        <ele>2279.6347908827</ele>
        <time>2021-07-10T10:10:20Z</time>
      </trkpt>
      <trkpt lat="44.1053" lon="6.71674">
        <ele>2278.6348496256</ele>
        <time>2021-07-10T10:10:21Z</time>
      </trkpt>
      <trkpt lat="44.10529" lon="6.71673">
        <ele>2278.6348925788</ele>
        <time>2021-07-10T10:10:22Z</time>
      </trkpt>
      <trkpt lat="44.10528" lon="6.71673">
        <ele>2278.6349337453</ele>
        <time>2021-07-10T10:10:23Z</time>
      </trkpt>
      <trkpt lat="44.10527" lon="6.71671">
        <ele>2278.6349963355</ele>
        <time>2021-07-10T10:10:24Z</time>
      </trkpt>
      <trkpt lat="44.10526" lon="6.7167">
        <ele>2278.6350411677</ele>
        <time>2021-07-10T10:10:25Z</time>
      </trkpt>
      <trkpt lat="44.10525" lon="6.71669">
        <ele>2278.6350849262</ele>
        <time>2021-07-10T10:10:27Z</time>
      </trkpt>
      <trkpt lat="44.10525" lon="6.71668">
        <ele>2279.6351176605</ele>
        <time>2021-07-10T10:10:27Z</time>
      </trkpt>
      <trkpt lat="44.10524" lon="6.71667">
        <ele>2278.6351489941</ele>
        <time>2021-07-10T10:10:28Z</time>
      </trkpt>
      <trkpt lat="44.10524" lon="6.71667">
        <ele>2278.6351645444</ele>
        <time>2021-07-10T10:10:29Z</time>
      </trkpt>
      <trkpt lat="44.10523" lon="6.71666">
        <ele>2278.6351989769</ele>
        <time>2021-07-10T10:10:31Z</time>
      </trkpt>
      <trkpt lat="44.10521" lon="6.71665">
        <ele>2278.6352882428</ele>
        <time>2021-07-10T10:10:33Z</time>
      </trkpt>
      <trkpt lat="44.10521" lon="6.71664">
        <ele>2278.6353302698</ele>
        <time>2021-07-10T10:10:33Z</time>
      </trkpt>
      <trkpt lat="44.1052" lon="6.71664">
        <ele>2278.6353698838</ele>
        <time>2021-07-10T10:10:34Z</time>
      </trkpt>
      <trkpt lat="44.10519" lon="6.71663">
        <ele>2278.6354038644</ele>
        <time>2021-07-10T10:10:35Z</time>
      </trkpt>
      <trkpt lat="44.10518" lon="6.71661">
        <ele>2279.6354563982</ele>
        <time>2021-07-10T10:10:37Z</time>
      </trkpt>
      <trkpt lat="44.10517" lon="6.7166">
        <ele>2278.6355120663</ele>
        <time>2021-07-10T10:10:39Z</time>
      </trkpt>
      <trkpt lat="44.10516" lon="6.71659">
        <ele>2278.6355619327</ele>
        <time>2021-07-10T10:10:39Z</time>
      </trkpt>
      <trkpt lat="44.10515" lon="6.71658">
        <ele>2277.6356214238</ele>
        <time>2021-07-10T10:10:40Z</time>
      </trkpt>
      <trkpt lat="44.10514" lon="6.71657">
        <ele>2277.6356610534</ele>
        <time>2021-07-10T10:10:41Z</time>
      </trkpt>
      <trkpt lat="44.10514" lon="6.71656">
        <ele>2277.6356881016</ele>
        <time>2021-07-10T10:10:42Z</time>
      </trkpt>
      <trkpt lat="44.10514" lon="6.71655">
        <ele>2278.6357187329</ele>
        <time>2021-07-10T10:10:57Z</time>
      </trkpt>
      <trkpt lat="44.10514" lon="6.71657">
        <ele>2280.6356698296</ele>
        <time>2021-07-10T10:10:59Z</time>
      </trkpt>
      <trkpt lat="44.10514" lon="6.71657">
        <ele>2280.6356615626</ele>
        <time>2021-07-10T10:11:19Z</time>
      </trkpt>
      <trkpt lat="44.10514" lon="6.71656">
        <ele>2283.6357057572</ele>
        <time>2021-07-10T10:11:20Z</time>
      </trkpt>
      <trkpt lat="44.10513" lon="6.71656">
        <ele>2282.6357388343</ele>
        <time>2021-07-10T10:11:21Z</time>
      </trkpt>
      <trkpt lat="44.10511" lon="6.71655">
        <ele>2281.6357973247</ele>
        <time>2021-07-10T10:11:23Z</time>
      </trkpt>
      <trkpt lat="44.1051" lon="6.71653">
        <ele>2281.6358856032</ele>
        <time>2021-07-10T10:11:24Z</time>
      </trkpt>
      <trkpt lat="44.1051" lon="6.71651">
        <ele>2282.6359266808</ele>
        <time>2021-07-10T10:11:25Z</time>
      </trkpt>
      <trkpt lat="44.10509" lon="6.7165">
        <ele>2282.6359681258</ele>
        <time>2021-07-10T10:11:26Z</time>
      </trkpt>
      <trkpt lat="44.10509" lon="6.71648">
        <ele>2283.6360058591</ele>
        <time>2021-07-10T10:11:27Z</time>
      </trkpt>
      <trkpt lat="44.10508" lon="6.71647">
        <ele>2282.6360425856</ele>
        <time>2021-07-10T10:11:28Z</time>
      </trkpt>
      <trkpt lat="44.10508" lon="6.71646">
        <ele>2282.6360667222</ele>
        <time>2021-07-10T10:11:29Z</time>
      </trkpt>
      <trkpt lat="44.10508" lon="6.71645">
        <ele>2282.6360918016</ele>
        <time>2021-07-10T10:11:30Z</time>
      </trkpt>
      <trkpt lat="44.10508" lon="6.71644">
        <ele>2282.6361267672</ele>
        <time>2021-07-10T10:11:31Z</time>
      </trkpt>
      <trkpt lat="44.10508" lon="6.71642">
        <ele>2283.6361339648</ele>
        <time>2021-07-10T10:11:32Z</time>
      </trkpt>
      <trkpt lat="44.10508" lon="6.71641">
        <ele>2283.6361601571</ele>
        <time>2021-07-10T10:11:34Z</time>
      </trkpt>
      <trkpt lat="44.10507" lon="6.71638">
        <ele>2282.6362231825</ele>
        <time>2021-07-10T10:11:35Z</time>
      </trkpt>
      <trkpt lat="44.10507" lon="6.71637">
        <ele>2282.6362647197</ele>
        <time>2021-07-10T10:11:36Z</time>
      </trkpt>
      <trkpt lat="44.10506" lon="6.71636">
        <ele>2282.6363114426</ele>
        <time>2021-07-10T10:11:37Z</time>
      </trkpt>
      <trkpt lat="44.10506" lon="6.71635">
        <ele>2282.6363304995</ele>
        <time>2021-07-10T10:11:38Z</time>
      </trkpt>
      <trkpt lat="44.10505" lon="6.71635">
        <ele>2282.6363565</ele>
        <time>2021-07-10T10:11:39Z</time>
      </trkpt>
      <trkpt lat="44.10505" lon="6.71635">
        <ele>2284.6363669338</ele>
        <time>2021-07-10T10:11:45Z</time>
      </trkpt>
      <trkpt lat="44.10504" lon="6.71634">
        <ele>2283.6364015098</ele>
        <time>2021-07-10T10:11:46Z</time>
      </trkpt>
      <trkpt lat="44.10504" lon="6.71633">
        <ele>2283.6364206911</ele>
        <time>2021-07-10T10:11:48Z</time>
      </trkpt>
      <trkpt lat="44.10504" lon="6.71631">
        <ele>2284.6364500541</ele>
        <time>2021-07-10T10:11:49Z</time>
      </trkpt>
      <trkpt lat="44.10505" lon="6.71632">
        <ele>2284.6364336531</ele>
        <time>2021-07-10T10:11:50Z</time>
      </trkpt>
      <trkpt lat="44.10504" lon="6.71633">
        <ele>2283.6364283066</ele>
        <time>2021-07-10T10:11:54Z</time>
      </trkpt>
      <trkpt lat="44.10504" lon="6.71633">
        <ele>2286.6364401795</ele>
        <time>2021-07-10T10:11:55Z</time>
      </trkpt>
      <trkpt lat="44.10502" lon="6.71632">
        <ele>2287.6365103855</ele>
        <time>2021-07-10T10:11:57Z</time>
      </trkpt>
      <trkpt lat="44.10501" lon="6.71631">
        <ele>2287.6365566489</ele>
        <time>2021-07-10T10:11:58Z</time>
      </trkpt>
      <trkpt lat="44.10501" lon="6.7163">
        <ele>2288.6365934235</ele>
        <time>2021-07-10T10:11:59Z</time>
      </trkpt>
      <trkpt lat="44.105" lon="6.71628">
        <ele>2288.6366358688</ele>
        <time>2021-07-10T10:12:00Z</time>
      </trkpt>
      <trkpt lat="44.105" lon="6.71626">
        <ele>2288.6366877526</ele>
        <time>2021-07-10T10:12:01Z</time>
      </trkpt>
      <trkpt lat="44.10499" lon="6.71625">
        <ele>2288.6367440795</ele>
        <time>2021-07-10T10:12:02Z</time>
      </trkpt>
      <trkpt lat="44.10498" lon="6.71624">
        <ele>2288.636785804</ele>
        <time>2021-07-10T10:12:03Z</time>
      </trkpt>
      <trkpt lat="44.10498" lon="6.71623">
        <ele>2288.6368072104</ele>
        <time>2021-07-10T10:12:04Z</time>
      </trkpt>
      <trkpt lat="44.10497" lon="6.71621">
        <ele>2288.6368643413</ele>
        <time>2021-07-10T10:12:05Z</time>
      </trkpt>
      <trkpt lat="44.10496" lon="6.7162">
        <ele>2288.636916108</ele>
        <time>2021-07-10T10:12:06Z</time>
      </trkpt>
      <trkpt lat="44.10495" lon="6.71618">
        <ele>2287.6369741148</ele>
        <time>2021-07-10T10:12:07Z</time>
      </trkpt>
      <trkpt lat="44.10495" lon="6.71617">
        <ele>2287.6370176975</ele>
        <time>2021-07-10T10:12:08Z</time>
      </trkpt>
      <trkpt lat="44.10494" lon="6.71615">
        <ele>2287.6370572151</ele>
        <time>2021-07-10T10:12:09Z</time>
      </trkpt>
      <trkpt lat="44.10494" lon="6.71614">
        <ele>2288.6370955966</ele>
        <time>2021-07-10T10:12:10Z</time>
      </trkpt>
      <trkpt lat="44.10494" lon="6.71612">
        <ele>2288.637137068</ele>
        <time>2021-07-10T10:12:11Z</time>
      </trkpt>
      <trkpt lat="44.10493" lon="6.7161">
        <ele>2288.63718652</ele>
        <time>2021-07-10T10:12:13Z</time>
      </trkpt>
      <trkpt lat="44.10493" lon="6.71608">
        <ele>2288.6372416853</ele>
        <time>2021-07-10T10:12:14Z</time>
      </trkpt>
      <trkpt lat="44.10493" lon="6.71606">
        <ele>2288.6372599405</ele>
        <time>2021-07-10T10:12:15Z</time>
      </trkpt>
      <trkpt lat="44.10493" lon="6.71605">
        <ele>2288.637287932</ele>
        <time>2021-07-10T10:12:16Z</time>
      </trkpt>
      <trkpt lat="44.10493" lon="6.71603">
        <ele>2288.6373215391</ele>
        <time>2021-07-10T10:12:17Z</time>
      </trkpt>
      <trkpt lat="44.10493" lon="6.71602">
        <ele>2288.6373377467</ele>
        <time>2021-07-10T10:12:19Z</time>
      </trkpt>
      <trkpt lat="44.10493" lon="6.716">
        <ele>2288.63737154</ele>
        <time>2021-07-10T10:12:20Z</time>
      </trkpt>
      <trkpt lat="44.10492" lon="6.71599">
        <ele>2287.6374143264</ele>
        <time>2021-07-10T10:12:21Z</time>
      </trkpt>
      <trkpt lat="44.10492" lon="6.71598">
        <ele>2287.6374370993</ele>
        <time>2021-07-10T10:12:22Z</time>
      </trkpt>
      <trkpt lat="44.10491" lon="6.71597">
        <ele>2287.6374774748</ele>
        <time>2021-07-10T10:12:23Z</time>
      </trkpt>
      <trkpt lat="44.10491" lon="6.71595">
        <ele>2287.6375124526</ele>
        <time>2021-07-10T10:12:24Z</time>
      </trkpt>
      <trkpt lat="44.10491" lon="6.71594">
        <ele>2286.6375260877</ele>
        <time>2021-07-10T10:12:25Z</time>
      </trkpt>
      <trkpt lat="44.10491" lon="6.71593">
        <ele>2286.6375540957</ele>
        <time>2021-07-10T10:12:27Z</time>
      </trkpt>
      <trkpt lat="44.1049" lon="6.71592">
        <ele>2286.6376115324</ele>
        <time>2021-07-10T10:12:28Z</time>
      </trkpt>
      <trkpt lat="44.10489" lon="6.71591">
        <ele>2285.6376589654</ele>
        <time>2021-07-10T10:12:29Z</time>
      </trkpt>
      <trkpt lat="44.10487" lon="6.7159">
        <ele>2284.6377196246</ele>
        <time>2021-07-10T10:12:30Z</time>
      </trkpt>
      <trkpt lat="44.10486" lon="6.71589">
        <ele>2284.6377682145</ele>
        <time>2021-07-10T10:12:31Z</time>
      </trkpt>
      <trkpt lat="44.10485" lon="6.71588">
        <ele>2283.6378366375</ele>
        <time>2021-07-10T10:12:33Z</time>
      </trkpt>
      <trkpt lat="44.10484" lon="6.71586">
        <ele>2283.6379188587</ele>
        <time>2021-07-10T10:12:34Z</time>
      </trkpt>
      <trkpt lat="44.10484" lon="6.71584">
        <ele>2283.6379458739</ele>
        <time>2021-07-10T10:12:35Z</time>
      </trkpt>
      <trkpt lat="44.10484" lon="6.71583">
        <ele>2282.6379490301</ele>
        <time>2021-07-10T10:12:37Z</time>
      </trkpt>
      <trkpt lat="44.10484" lon="6.71581">
        <ele>2282.6379931905</ele>
        <time>2021-07-10T10:12:38Z</time>
      </trkpt>
      <trkpt lat="44.10483" lon="6.7158">
        <ele>2282.6380313376</ele>
        <time>2021-07-10T10:12:39Z</time>
      </trkpt>
      <trkpt lat="44.10483" lon="6.7158">
        <ele>2282.6380596309</ele>
        <time>2021-07-10T10:12:40Z</time>
      </trkpt>
      <trkpt lat="44.10483" lon="6.71578">
        <ele>2282.6380752326</ele>
        <time>2021-07-10T10:12:41Z</time>
      </trkpt>
      <trkpt lat="44.10483" lon="6.71578">
        <ele>2283.6380740052</ele>
        <time>2021-07-10T10:12:43Z</time>
      </trkpt>
      <trkpt lat="44.10483" lon="6.71577">
        <ele>2282.6381057808</ele>
        <time>2021-07-10T10:12:44Z</time>
      </trkpt>
      <trkpt lat="44.10483" lon="6.71577">
        <ele>2283.638092945</ele>
        <time>2021-07-10T10:12:47Z</time>
      </trkpt>
      <trkpt lat="44.10482" lon="6.71575">
        <ele>2282.6381715575</ele>
        <time>2021-07-10T10:12:48Z</time>
      </trkpt>
      <trkpt lat="44.10481" lon="6.71575">
        <ele>2282.6381881547</ele>
        <time>2021-07-10T10:12:49Z</time>
      </trkpt>
      <trkpt lat="44.10481" lon="6.71574">
        <ele>2281.6382014963</ele>
        <time>2021-07-10T10:12:50Z</time>
      </trkpt>
      <trkpt lat="44.10481" lon="6.71572">
        <ele>2280.6382388373</ele>
        <time>2021-07-10T10:12:51Z</time>
      </trkpt>
      <trkpt lat="44.1048" lon="6.71572">
        <ele>2280.6382709117</ele>
        <time>2021-07-10T10:12:52Z</time>
      </trkpt>
      <trkpt lat="44.1048" lon="6.71571">
        <ele>2281.638300766</ele>
        <time>2021-07-10T10:12:53Z</time>
      </trkpt>
      <trkpt lat="44.10479" lon="6.7157">
        <ele>2281.6383435628</ele>
        <time>2021-07-10T10:12:54Z</time>
      </trkpt>
      <trkpt lat="44.10479" lon="6.71569">
        <ele>2281.6383734686</ele>
        <time>2021-07-10T10:12:55Z</time>
      </trkpt>
      <trkpt lat="44.10479" lon="6.71568">
        <ele>2281.6383758739</ele>
        <time>2021-07-10T10:12:57Z</time>
      </trkpt>
      <trkpt lat="44.10478" lon="6.71567">
        <ele>2281.638418037</ele>
        <time>2021-07-10T10:12:58Z</time>
      </trkpt>
      <trkpt lat="44.10478" lon="6.71567">
        <ele>2281.6384526616</ele>
        <time>2021-07-10T10:12:59Z</time>
      </trkpt>
      <trkpt lat="44.10478" lon="6.71566">
        <ele>2283.638441588</ele>
        <time>2021-07-10T10:13:04Z</time>
      </trkpt>
      <trkpt lat="44.10478" lon="6.71565">
        <ele>2282.6384849625</ele>
        <time>2021-07-10T10:13:06Z</time>
      </trkpt>
      <trkpt lat="44.10477" lon="6.71564">
        <ele>2283.6385086203</ele>
        <time>2021-07-10T10:13:07Z</time>
      </trkpt>
      <trkpt lat="44.10477" lon="6.71563">
        <ele>2283.6385359634</ele>
        <time>2021-07-10T10:13:08Z</time>
      </trkpt>
      <trkpt lat="44.10476" lon="6.71562">
        <ele>2283.6385712323</ele>
        <time>2021-07-10T10:13:09Z</time>
      </trkpt>
      <trkpt lat="44.10476" lon="6.71562">
        <ele>2283.6385937645</ele>
        <time>2021-07-10T10:13:10Z</time>
      </trkpt>
      <trkpt lat="44.10475" lon="6.71561">
        <ele>2283.6386373921</ele>
        <time>2021-07-10T10:13:11Z</time>
      </trkpt>
      <trkpt lat="44.10474" lon="6.71561">
        <ele>2282.638671232</ele>
        <time>2021-07-10T10:13:14Z</time>
      </trkpt>
      <trkpt lat="44.10474" lon="6.7156">
        <ele>2283.6386889548</ele>
        <time>2021-07-10T10:13:15Z</time>
      </trkpt>
      <trkpt lat="44.10474" lon="6.71559">
        <ele>2284.638711572</ele>
        <time>2021-07-10T10:13:16Z</time>
      </trkpt>
      <trkpt lat="44.10473" lon="6.71558">
        <ele>2283.6387439036</ele>
        <time>2021-07-10T10:13:17Z</time>
      </trkpt>
      <trkpt lat="44.10473" lon="6.71557">
        <ele>2283.6387879712</ele>
        <time>2021-07-10T10:13:18Z</time>
      </trkpt>
      <trkpt lat="44.10472" lon="6.71556">
        <ele>2283.6388426882</ele>
        <time>2021-07-10T10:13:19Z</time>
      </trkpt>
      <trkpt lat="44.10471" lon="6.71555">
        <ele>2283.6388727137</ele>
        <time>2021-07-10T10:13:21Z</time>
      </trkpt>
      <trkpt lat="44.10472" lon="6.71554">
        <ele>2283.638872403</ele>
        <time>2021-07-10T10:13:22Z</time>
      </trkpt>
      <trkpt lat="44.10472" lon="6.71553">
        <ele>2282.6388769448</ele>
        <time>2021-07-10T10:13:24Z</time>
      </trkpt>
      <trkpt lat="44.10471" lon="6.71551">
        <ele>2283.6389294121</ele>
        <time>2021-07-10T10:13:25Z</time>
      </trkpt>
      <trkpt lat="44.10471" lon="6.7155">
        <ele>2283.6389580544</ele>
        <time>2021-07-10T10:13:27Z</time>
      </trkpt>
      <trkpt lat="44.1047" lon="6.7155">
        <ele>2284.6389750352</ele>
        <time>2021-07-10T10:13:28Z</time>
      </trkpt>
      <trkpt lat="44.1047" lon="6.7155">
        <ele>2285.6389909432</ele>
        <time>2021-07-10T10:13:29Z</time>
      </trkpt>
      <trkpt lat="44.10469" lon="6.71549">
        <ele>2285.6390254094</ele>
        <time>2021-07-10T10:13:30Z</time>
      </trkpt>
      <trkpt lat="44.10469" lon="6.71549">
        <ele>2285.6390675392</ele>
        <time>2021-07-10T10:13:31Z</time>
      </trkpt>
      <trkpt lat="44.10468" lon="6.71548">
        <ele>2285.6390934169</ele>
        <time>2021-07-10T10:13:32Z</time>
      </trkpt>
      <trkpt lat="44.10467" lon="6.71548">
        <ele>2285.6391292484</ele>
        <time>2021-07-10T10:13:34Z</time>
      </trkpt>
      <trkpt lat="44.10466" lon="6.71545">
        <ele>2286.6392076812</ele>
        <time>2021-07-10T10:13:35Z</time>
      </trkpt>
      <trkpt lat="44.10466" lon="6.71544">
        <ele>2286.6392303985</ele>
        <time>2021-07-10T10:13:37Z</time>
      </trkpt>
      <trkpt lat="44.10465" lon="6.71542">
        <ele>2285.6393005564</ele>
        <time>2021-07-10T10:13:39Z</time>
      </trkpt>
      <trkpt lat="44.10465" lon="6.71542">
        <ele>2284.6393118524</ele>
        <time>2021-07-10T10:13:43Z</time>
      </trkpt>
      <trkpt lat="44.10464" lon="6.71539">
        <ele>2283.6394019009</ele>
        <time>2021-07-10T10:13:44Z</time>
      </trkpt>
      <trkpt lat="44.10464" lon="6.71538">
        <ele>2283.6394168546</ele>
        <time>2021-07-10T10:13:45Z</time>
      </trkpt>
      <trkpt lat="44.10464" lon="6.71537">
        <ele>2284.6394330783</ele>
        <time>2021-07-10T10:13:47Z</time>
      </trkpt>
      <trkpt lat="44.10463" lon="6.71537">
        <ele>2284.6394712544</ele>
        <time>2021-07-10T10:13:49Z</time>
      </trkpt>
      <trkpt lat="44.10461" lon="6.71536">
        <ele>2285.6395324132</ele>
        <time>2021-07-10T10:13:50Z</time>
      </trkpt>
      <trkpt lat="44.10461" lon="6.71536">
        <ele>2285.6395466973</ele>
        <time>2021-07-10T10:13:51Z</time>
      </trkpt>
      <trkpt lat="44.1046" lon="6.71535">
        <ele>2284.6395912573</ele>
        <time>2021-07-10T10:13:53Z</time>
      </trkpt>
      <trkpt lat="44.1046" lon="6.71535">
        <ele>2284.6395912573</ele>
        <time>2021-07-10T10:13:54Z</time>
      </trkpt>
      <trkpt lat="44.10458" lon="6.71534">
        <ele>2283.6396602594</ele>
        <time>2021-07-10T10:13:55Z</time>
      </trkpt>
      <trkpt lat="44.10458" lon="6.71533">
        <ele>2283.6396989094</ele>
        <time>2021-07-10T10:13:57Z</time>
      </trkpt>
      <trkpt lat="44.10457" lon="6.7153">
        <ele>2283.6397676482</ele>
        <time>2021-07-10T10:13:59Z</time>
      </trkpt>
      <trkpt lat="44.10457" lon="6.71529">
        <ele>2283.6397965007</ele>
        <time>2021-07-10T10:14:03Z</time>
      </trkpt>
      <trkpt lat="44.10456" lon="6.71529">
        <ele>2282.6398310283</ele>
        <time>2021-07-10T10:14:04Z</time>
      </trkpt>
      <trkpt lat="44.10455" lon="6.71528">
        <ele>2281.6398800669</ele>
        <time>2021-07-10T10:14:05Z</time>
      </trkpt>
      <trkpt lat="44.10455" lon="6.71526">
        <ele>2282.6399127906</ele>
        <time>2021-07-10T10:14:07Z</time>
      </trkpt>
      <trkpt lat="44.10455" lon="6.71525">
        <ele>2280.6399421607</ele>
        <time>2021-07-10T10:14:08Z</time>
      </trkpt>
      <trkpt lat="44.10455" lon="6.71524">
        <ele>2280.6399586311</ele>
        <time>2021-07-10T10:14:09Z</time>
      </trkpt>
      <trkpt lat="44.10455" lon="6.71524">
        <ele>2280.6399508542</ele>
        <time>2021-07-10T10:14:13Z</time>
      </trkpt>
      <trkpt lat="44.10453" lon="6.71521">
        <ele>2280.6400596925</ele>
        <time>2021-07-10T10:14:14Z</time>
      </trkpt>
      <trkpt lat="44.10452" lon="6.71521">
        <ele>2280.6400962437</ele>
        <time>2021-07-10T10:14:15Z</time>
      </trkpt>
      <trkpt lat="44.10453" lon="6.7152">
        <ele>2280.6400882077</ele>
        <time>2021-07-10T10:14:17Z</time>
      </trkpt>
      <trkpt lat="44.10453" lon="6.71519">
        <ele>2279.6401022097</ele>
        <time>2021-07-10T10:14:20Z</time>
      </trkpt>
      <trkpt lat="44.10452" lon="6.71519">
        <ele>2278.6401286615</ele>
        <time>2021-07-10T10:14:22Z</time>
      </trkpt>
      <trkpt lat="44.10452" lon="6.71518">
        <ele>2279.6401649902</ele>
        <time>2021-07-10T10:14:23Z</time>
      </trkpt>
      <trkpt lat="44.10451" lon="6.71517">
        <ele>2279.6401962507</ele>
        <time>2021-07-10T10:14:25Z</time>
      </trkpt>
      <trkpt lat="44.10451" lon="6.71517">
        <ele>2279.6402184165</ele>
        <time>2021-07-10T10:14:26Z</time>
      </trkpt>
      <trkpt lat="44.1045" lon="6.71516">
        <ele>2279.6402426674</ele>
        <time>2021-07-10T10:14:27Z</time>
      </trkpt>
      <trkpt lat="44.1045" lon="6.71516">
        <ele>2279.6402626434</ele>
        <time>2021-07-10T10:14:28Z</time>
      </trkpt>
      <trkpt lat="44.10449" lon="6.71517">
        <ele>2279.640274241</ele>
        <time>2021-07-10T10:14:29Z</time>
      </trkpt>
      <trkpt lat="44.10448" lon="6.71517">
        <ele>2279.6403044597</ele>
        <time>2021-07-10T10:14:30Z</time>
      </trkpt>
      <trkpt lat="44.10447" lon="6.71518">
        <ele>2276.6403102931</ele>
        <time>2021-07-10T10:14:34Z</time>
      </trkpt>
      <trkpt lat="44.10447" lon="6.71518">
        <ele>2275.6403347827</ele>
        <time>2021-07-10T10:14:36Z</time>
      </trkpt>
      <trkpt lat="44.10446" lon="6.71517">
        <ele>2275.640363842</ele>
        <time>2021-07-10T10:14:38Z</time>
      </trkpt>
      <trkpt lat="44.10446" lon="6.71517">
        <ele>2276.6403893188</ele>
        <time>2021-07-10T10:14:39Z</time>
      </trkpt>
      <trkpt lat="44.10445" lon="6.71516">
        <ele>2275.6404199427</ele>
        <time>2021-07-10T10:14:40Z</time>
      </trkpt>
      <trkpt lat="44.10445" lon="6.71515">
        <ele>2275.6404567361</ele>
        <time>2021-07-10T10:14:41Z</time>
      </trkpt>
      <trkpt lat="44.10444" lon="6.71514">
        <ele>2274.6404939126</ele>
        <time>2021-07-10T10:14:42Z</time>
      </trkpt>
      <trkpt lat="44.10444" lon="6.71512">
        <ele>2274.6405195848</ele>
        <time>2021-07-10T10:14:43Z</time>
      </trkpt>
      <trkpt lat="44.10444" lon="6.71512">
        <ele>2275.640531319</ele>
        <time>2021-07-10T10:14:45Z</time>
      </trkpt>
      <trkpt lat="44.10444" lon="6.71511">
        <ele>2276.6405502944</ele>
        <time>2021-07-10T10:14:46Z</time>
      </trkpt>
      <trkpt lat="44.10443" lon="6.7151">
        <ele>2276.6405847927</ele>
        <time>2021-07-10T10:14:47Z</time>
      </trkpt>
      <trkpt lat="44.10443" lon="6.71508">
        <ele>2276.6406178744</ele>
        <time>2021-07-10T10:14:48Z</time>
      </trkpt>
      <trkpt lat="44.10443" lon="6.71508">
        <ele>2275.6406540436</ele>
        <time>2021-07-10T10:14:49Z</time>
      </trkpt>
      <trkpt lat="44.10442" lon="6.71506">
        <ele>2275.640698634</ele>
        <time>2021-07-10T10:14:50Z</time>
      </trkpt>
      <trkpt lat="44.10441" lon="6.71505">
        <ele>2275.6407310016</ele>
        <time>2021-07-10T10:14:51Z</time>
      </trkpt>
      <trkpt lat="44.10441" lon="6.71504">
        <ele>2274.640747945</ele>
        <time>2021-07-10T10:14:52Z</time>
      </trkpt>
      <trkpt lat="44.10441" lon="6.71504">
        <ele>2274.6407707686</ele>
        <time>2021-07-10T10:14:53Z</time>
      </trkpt>
      <trkpt lat="44.10441" lon="6.71502">
        <ele>2273.6408082743</ele>
        <time>2021-07-10T10:14:54Z</time>
      </trkpt>
      <trkpt lat="44.1044" lon="6.71502">
        <ele>2273.6408293041</ele>
        <time>2021-07-10T10:14:56Z</time>
      </trkpt>
      <trkpt lat="44.1044" lon="6.71501">
        <ele>2273.6408507983</ele>
        <time>2021-07-10T10:14:57Z</time>
      </trkpt>
      <trkpt lat="44.10439" lon="6.71501">
        <ele>2272.6408727154</ele>
        <time>2021-07-10T10:14:58Z</time>
      </trkpt>
      <trkpt lat="44.10439" lon="6.71501">
        <ele>2272.6408812531</ele>
        <time>2021-07-10T10:14:59Z</time>
      </trkpt>
      <trkpt lat="44.10438" lon="6.71502">
        <ele>2271.6409017414</ele>
        <time>2021-07-10T10:15:00Z</time>
      </trkpt>
      <trkpt lat="44.10438" lon="6.71501">
        <ele>2271.6409289831</ele>
        <time>2021-07-10T10:15:01Z</time>
      </trkpt>
      <trkpt lat="44.10437" lon="6.715">
        <ele>2271.6409568255</ele>
        <time>2021-07-10T10:15:02Z</time>
      </trkpt>
      <trkpt lat="44.10437" lon="6.71499">
        <ele>2270.6409887664</ele>
        <time>2021-07-10T10:15:03Z</time>
      </trkpt>
      <trkpt lat="44.10436" lon="6.71499">
        <ele>2270.6410090628</ele>
        <time>2021-07-10T10:15:04Z</time>
      </trkpt>
      <trkpt lat="44.10435" lon="6.71499">
        <ele>2270.6410513771</ele>
        <time>2021-07-10T10:15:05Z</time>
      </trkpt>
      <trkpt lat="44.10435" lon="6.71498">
        <ele>2270.6410809741</ele>
        <time>2021-07-10T10:15:06Z</time>
      </trkpt>
      <trkpt lat="44.10434" lon="6.71498">
        <ele>2270.6411116327</ele>
        <time>2021-07-10T10:15:08Z</time>
      </trkpt>
      <trkpt lat="44.10433" lon="6.71498">
        <ele>2270.641149469</ele>
        <time>2021-07-10T10:15:09Z</time>
      </trkpt>
      <trkpt lat="44.10432" lon="6.71497">
        <ele>2269.6411993745</ele>
        <time>2021-07-10T10:15:10Z</time>
      </trkpt>
      <trkpt lat="44.10432" lon="6.71496">
        <ele>2270.6412186258</ele>
        <time>2021-07-10T10:15:11Z</time>
      </trkpt>
      <trkpt lat="44.10431" lon="6.71495">
        <ele>2270.6412397419</ele>
        <time>2021-07-10T10:15:12Z</time>
      </trkpt>
      <trkpt lat="44.10431" lon="6.71495">
        <ele>2271.6412575425</ele>
        <time>2021-07-10T10:15:13Z</time>
      </trkpt>
      <trkpt lat="44.1043" lon="6.71495">
        <ele>2271.6412848982</ele>
        <time>2021-07-10T10:15:14Z</time>
      </trkpt>
      <trkpt lat="44.1043" lon="6.71494">
        <ele>2271.6413104723</ele>
        <time>2021-07-10T10:15:16Z</time>
      </trkpt>
      <trkpt lat="44.10429" lon="6.71493">
        <ele>2271.6413541482</ele>
        <time>2021-07-10T10:15:17Z</time>
      </trkpt>
      <trkpt lat="44.10429" lon="6.71492">
        <ele>2272.6413863141</ele>
        <time>2021-07-10T10:15:18Z</time>
      </trkpt>
      <trkpt lat="44.10429" lon="6.71491">
        <ele>2272.6414022463</ele>
        <time>2021-07-10T10:15:19Z</time>
      </trkpt>
      <trkpt lat="44.10428" lon="6.7149">
        <ele>2273.6414262641</ele>
        <time>2021-07-10T10:15:23Z</time>
      </trkpt>
      <trkpt lat="44.10428" lon="6.71488">
        <ele>2274.6414845914</ele>
        <time>2021-07-10T10:15:24Z</time>
      </trkpt>
      <trkpt lat="44.10427" lon="6.71487">
        <ele>2274.6415243967</ele>
        <time>2021-07-10T10:15:25Z</time>
      </trkpt>
      <trkpt lat="44.10427" lon="6.71487">
        <ele>2275.6415393045</ele>
        <time>2021-07-10T10:15:26Z</time>
      </trkpt>
      <trkpt lat="44.10426" lon="6.71486">
        <ele>2274.6415679499</ele>
        <time>2021-07-10T10:15:27Z</time>
      </trkpt>
      <trkpt lat="44.10426" lon="6.71485">
        <ele>2275.6416075341</ele>
        <time>2021-07-10T10:15:28Z</time>
      </trkpt>
      <trkpt lat="44.10425" lon="6.71484">
        <ele>2276.6416270966</ele>
        <time>2021-07-10T10:15:29Z</time>
      </trkpt>
      <trkpt lat="44.10425" lon="6.71484">
        <ele>2275.6416525229</ele>
        <time>2021-07-10T10:15:30Z</time>
      </trkpt>
      <trkpt lat="44.10425" lon="6.71484">
        <ele>2275.6416667084</ele>
        <time>2021-07-10T10:15:31Z</time>
      </trkpt>
      <trkpt lat="44.10424" lon="6.71484">
        <ele>2275.6416875588</ele>
        <time>2021-07-10T10:15:32Z</time>
      </trkpt>
      <trkpt lat="44.10423" lon="6.71483">
        <ele>2275.6417185634</ele>
        <time>2021-07-10T10:15:34Z</time>
      </trkpt>
      <trkpt lat="44.10423" lon="6.71482">
        <ele>2274.6417513615</ele>
        <time>2021-07-10T10:15:37Z</time>
      </trkpt>
      <trkpt lat="44.10423" lon="6.71485">
        <ele>2273.6417256666</ele>
        <time>2021-07-10T10:15:38Z</time>
      </trkpt>
      <trkpt lat="44.10422" lon="6.71486">
        <ele>2274.6417285345</ele>
        <time>2021-07-10T10:15:39Z</time>
      </trkpt>
      <trkpt lat="44.10421" lon="6.71485">
        <ele>2273.6417600554</ele>
        <time>2021-07-10T10:15:47Z</time>
      </trkpt>
      <trkpt lat="44.10421" lon="6.71486">
        <ele>2271.6417548895</ele>
        <time>2021-07-10T10:15:48Z</time>
      </trkpt>
      <trkpt lat="44.1042" lon="6.71486">
        <ele>2270.6417838428</ele>
        <time>2021-07-10T10:15:49Z</time>
      </trkpt>
      <trkpt lat="44.10419" lon="6.71486">
        <ele>2270.6418123344</ele>
        <time>2021-07-10T10:15:50Z</time>
      </trkpt>
      <trkpt lat="44.10418" lon="6.71486">
        <ele>2270.6418348583</ele>
        <time>2021-07-10T10:15:51Z</time>
      </trkpt>
      <trkpt lat="44.10418" lon="6.71486">
        <ele>2270.6418569939</ele>
        <time>2021-07-10T10:15:52Z</time>
      </trkpt>
      <trkpt lat="44.10417" lon="6.71486">
        <ele>2271.6418822072</ele>
        <time>2021-07-10T10:15:53Z</time>
      </trkpt>
      <trkpt lat="44.10416" lon="6.71485">
        <ele>2271.6419385203</ele>
        <time>2021-07-10T10:15:54Z</time>
      </trkpt>
      <trkpt lat="44.10416" lon="6.71483">
        <ele>2272.6419838285</ele>
        <time>2021-07-10T10:15:55Z</time>
      </trkpt>
      <trkpt lat="44.10415" lon="6.71482">
        <ele>2272.6420307272</ele>
        <time>2021-07-10T10:15:56Z</time>
      </trkpt>
      <trkpt lat="44.10414" lon="6.71482">
        <ele>2273.6420653847</ele>
        <time>2021-07-10T10:15:57Z</time>
      </trkpt>
      <trkpt lat="44.10414" lon="6.71481">
        <ele>2273.6420844712</ele>
        <time>2021-07-10T10:15:58Z</time>
      </trkpt>
      <trkpt lat="44.10414" lon="6.7148">
        <ele>2273.6421108237</ele>
        <time>2021-07-10T10:15:59Z</time>
      </trkpt>
      <trkpt lat="44.10413" lon="6.71479">
        <ele>2272.6421316678</ele>
        <time>2021-07-10T10:16:00Z</time>
      </trkpt>
      <trkpt lat="44.10414" lon="6.71477">
        <ele>2273.6421498142</ele>
        <time>2021-07-10T10:16:01Z</time>
      </trkpt>
      <trkpt lat="44.10413" lon="6.71476">
        <ele>2273.6421727742</ele>
        <time>2021-07-10T10:16:03Z</time>
      </trkpt>
      <trkpt lat="44.10412" lon="6.71476">
        <ele>2273.6422365219</ele>
        <time>2021-07-10T10:16:04Z</time>
      </trkpt>
      <trkpt lat="44.10412" lon="6.71477">
        <ele>2273.6422234626</ele>
        <time>2021-07-10T10:16:05Z</time>
      </trkpt>
      <trkpt lat="44.10412" lon="6.71478">
        <ele>2274.6421989394</ele>
        <time>2021-07-10T10:16:07Z</time>
      </trkpt>
      <trkpt lat="44.10411" lon="6.71479">
        <ele>2273.6422154516</ele>
        <time>2021-07-10T10:16:08Z</time>
      </trkpt>
      <trkpt lat="44.10411" lon="6.7148">
        <ele>2275.6422170933</ele>
        <time>2021-07-10T10:16:10Z</time>
      </trkpt>
      <trkpt lat="44.10409" lon="6.7148">
        <ele>2275.6422549782</ele>
        <time>2021-07-10T10:16:11Z</time>
      </trkpt>
      <trkpt lat="44.10409" lon="6.7148">
        <ele>2274.6422878087</ele>
        <time>2021-07-10T10:16:13Z</time>
      </trkpt>
      <trkpt lat="44.10407" lon="6.71479">
        <ele>2274.6423347437</ele>
        <time>2021-07-10T10:16:14Z</time>
      </trkpt>
      <trkpt lat="44.10407" lon="6.71478">
        <ele>2274.6423664114</ele>
        <time>2021-07-10T10:16:15Z</time>
      </trkpt>
      <trkpt lat="44.10407" lon="6.71477">
        <ele>2275.6423934395</ele>
        <time>2021-07-10T10:16:16Z</time>
      </trkpt>
      <trkpt lat="44.10406" lon="6.71476">
        <ele>2275.6424228555</ele>
        <time>2021-07-10T10:16:17Z</time>
      </trkpt>
      <trkpt lat="44.10405" lon="6.71475">
        <ele>2275.6424846733</ele>
        <time>2021-07-10T10:16:19Z</time>
      </trkpt>
      <trkpt lat="44.10404" lon="6.71471">
        <ele>2276.6425867775</ele>
        <time>2021-07-10T10:16:20Z</time>
      </trkpt>
      <trkpt lat="44.10404" lon="6.71469">
        <ele>2276.6426070425</ele>
        <time>2021-07-10T10:16:21Z</time>
      </trkpt>
      <trkpt lat="44.10405" lon="6.71468">
        <ele>2275.6426135237</ele>
        <time>2021-07-10T10:16:22Z</time>
      </trkpt>
      <trkpt lat="44.10405" lon="6.71467">
        <ele>2277.642636336</ele>
        <time>2021-07-10T10:16:23Z</time>
      </trkpt>
      <trkpt lat="44.10404" lon="6.71465">
        <ele>2277.642688433</ele>
        <time>2021-07-10T10:16:24Z</time>
      </trkpt>
      <trkpt lat="44.10403" lon="6.71465">
        <ele>2276.6427249005</ele>
        <time>2021-07-10T10:16:25Z</time>
      </trkpt>
      <trkpt lat="44.10402" lon="6.71464">
        <ele>2277.6427612288</ele>
        <time>2021-07-10T10:16:27Z</time>
      </trkpt>
      <trkpt lat="44.10402" lon="6.71463">
        <ele>2277.6427837553</ele>
        <time>2021-07-10T10:16:28Z</time>
      </trkpt>
      <trkpt lat="44.10402" lon="6.71462">
        <ele>2277.6427918961</ele>
        <time>2021-07-10T10:16:29Z</time>
      </trkpt>
      <trkpt lat="44.10403" lon="6.71461">
        <ele>2277.6427950437</ele>
        <time>2021-07-10T10:16:30Z</time>
      </trkpt>
      <trkpt lat="44.10403" lon="6.7146">
        <ele>2276.6428119765</ele>
        <time>2021-07-10T10:16:31Z</time>
      </trkpt>
      <trkpt lat="44.10403" lon="6.71459">
        <ele>2276.6428079767</ele>
        <time>2021-07-10T10:16:33Z</time>
      </trkpt>
      <trkpt lat="44.10403" lon="6.71457">
        <ele>2277.6428576453</ele>
        <time>2021-07-10T10:16:34Z</time>
      </trkpt>
      <trkpt lat="44.10404" lon="6.71456">
        <ele>2277.6428577374</ele>
        <time>2021-07-10T10:16:35Z</time>
      </trkpt>
      <trkpt lat="44.10403" lon="6.71454">
        <ele>2277.6428889669</ele>
        <time>2021-07-10T10:16:37Z</time>
      </trkpt>
      <trkpt lat="44.10403" lon="6.71452">
        <ele>2277.6429439548</ele>
        <time>2021-07-10T10:16:39Z</time>
      </trkpt>
      <trkpt lat="44.10403" lon="6.7145">
        <ele>2278.6429568342</ele>
        <time>2021-07-10T10:16:40Z</time>
      </trkpt>
      <trkpt lat="44.10403" lon="6.7145">
        <ele>2278.6429753181</ele>
        <time>2021-07-10T10:16:41Z</time>
      </trkpt>
      <trkpt lat="44.10404" lon="6.71448">
        <ele>2278.6429790771</ele>
        <time>2021-07-10T10:16:43Z</time>
      </trkpt>
      <trkpt lat="44.10404" lon="6.71446">
        <ele>2278.6429984561</ele>
        <time>2021-07-10T10:16:44Z</time>
      </trkpt>
      <trkpt lat="44.10404" lon="6.71446">
        <ele>2278.6429979417</ele>
        <time>2021-07-10T10:16:45Z</time>
      </trkpt>
      <trkpt lat="44.10405" lon="6.71445">
        <ele>2278.6429999665</ele>
        <time>2021-07-10T10:16:46Z</time>
      </trkpt>
      <trkpt lat="44.10405" lon="6.71442">
        <ele>2278.6430212749</ele>
        <time>2021-07-10T10:16:48Z</time>
      </trkpt>
      <trkpt lat="44.10405" lon="6.71441">
        <ele>2278.6430486766</ele>
        <time>2021-07-10T10:16:49Z</time>
      </trkpt>
      <trkpt lat="44.10405" lon="6.7144">
        <ele>2278.6430696461</ele>
        <time>2021-07-10T10:16:50Z</time>
      </trkpt>
      <trkpt lat="44.10405" lon="6.71439">
        <ele>2279.6430891016</ele>
        <time>2021-07-10T10:16:51Z</time>
      </trkpt>
      <trkpt lat="44.10405" lon="6.71438">
        <ele>2280.6431132201</ele>
        <time>2021-07-10T10:16:53Z</time>
      </trkpt>
      <trkpt lat="44.10405" lon="6.71437">
        <ele>2281.6431085291</ele>
        <time>2021-07-10T10:16:59Z</time>
      </trkpt>
      <trkpt lat="44.10405" lon="6.71434">
        <ele>2282.6431671226</ele>
        <time>2021-07-10T10:17:00Z</time>
      </trkpt>
      <trkpt lat="44.10405" lon="6.71433">
        <ele>2282.6431954729</ele>
        <time>2021-07-10T10:17:01Z</time>
      </trkpt>
      <trkpt lat="44.10405" lon="6.71431">
        <ele>2282.6432287856</ele>
        <time>2021-07-10T10:17:02Z</time>
      </trkpt>
      <trkpt lat="44.10405" lon="6.7143">
        <ele>2281.6432433684</ele>
        <time>2021-07-10T10:17:03Z</time>
      </trkpt>
      <trkpt lat="44.10405" lon="6.71428">
        <ele>2281.6432770446</ele>
        <time>2021-07-10T10:17:04Z</time>
      </trkpt>
      <trkpt lat="44.10405" lon="6.71427">
        <ele>2281.6433057573</ele>
        <time>2021-07-10T10:17:05Z</time>
      </trkpt>
      <trkpt lat="44.10405" lon="6.71425">
        <ele>2281.6433112574</ele>
        <time>2021-07-10T10:17:07Z</time>
      </trkpt>
      <trkpt lat="44.10404" lon="6.71423">
        <ele>2281.643382811</ele>
        <time>2021-07-10T10:17:08Z</time>
      </trkpt>
      <trkpt lat="44.10404" lon="6.71422">
        <ele>2281.6434142671</ele>
        <time>2021-07-10T10:17:09Z</time>
      </trkpt>
      <trkpt lat="44.10405" lon="6.7142">
        <ele>2281.6434198524</ele>
        <time>2021-07-10T10:17:10Z</time>
      </trkpt>
      <trkpt lat="44.10405" lon="6.71418">
        <ele>2282.643415374</ele>
        <time>2021-07-10T10:17:11Z</time>
      </trkpt>
      <trkpt lat="44.10406" lon="6.71418">
        <ele>2283.6434227263</ele>
        <time>2021-07-10T10:17:13Z</time>
      </trkpt>
      <trkpt lat="44.10406" lon="6.71415">
        <ele>2284.6434543044</ele>
        <time>2021-07-10T10:17:14Z</time>
      </trkpt>
      <trkpt lat="44.10406" lon="6.71414">
        <ele>2284.643460382</ele>
        <time>2021-07-10T10:17:15Z</time>
      </trkpt>
      <trkpt lat="44.10406" lon="6.71413">
        <ele>2284.6434886059</ele>
        <time>2021-07-10T10:17:16Z</time>
      </trkpt>
      <trkpt lat="44.10407" lon="6.71412">
        <ele>2283.6434866617</ele>
        <time>2021-07-10T10:17:18Z</time>
      </trkpt>
      <trkpt lat="44.10408" lon="6.71411">
        <ele>2283.6434568884</ele>
        <time>2021-07-10T10:17:20Z</time>
      </trkpt>
      <trkpt lat="44.10408" lon="6.7141">
        <ele>2282.6434575467</ele>
        <time>2021-07-10T10:17:21Z</time>
      </trkpt>
      <trkpt lat="44.10409" lon="6.71408">
        <ele>2280.6434595398</ele>
        <time>2021-07-10T10:17:23Z</time>
      </trkpt>
      <trkpt lat="44.10408" lon="6.71408">
        <ele>2279.6434894173</ele>
        <time>2021-07-10T10:17:24Z</time>
      </trkpt>
      <trkpt lat="44.10409" lon="6.71406">
        <ele>2280.643519916</ele>
        <time>2021-07-10T10:17:25Z</time>
      </trkpt>
      <trkpt lat="44.10408" lon="6.71405">
        <ele>2279.6435363031</ele>
        <time>2021-07-10T10:17:26Z</time>
      </trkpt>
      <trkpt lat="44.10408" lon="6.71404">
        <ele>2279.6435576797</ele>
        <time>2021-07-10T10:17:27Z</time>
      </trkpt>
      <trkpt lat="44.10409" lon="6.71403">
        <ele>2279.6435659803</ele>
        <time>2021-07-10T10:17:28Z</time>
      </trkpt>
      <trkpt lat="44.10409" lon="6.71402">
        <ele>2278.6435736914</ele>
        <time>2021-07-10T10:17:29Z</time>
      </trkpt>
      <trkpt lat="44.10409" lon="6.71401">
        <ele>2279.6435892838</ele>
        <time>2021-07-10T10:17:30Z</time>
      </trkpt>
      <trkpt lat="44.10408" lon="6.714">
        <ele>2279.643624122</ele>
        <time>2021-07-10T10:17:33Z</time>
      </trkpt>
      <trkpt lat="44.10409" lon="6.71398">
        <ele>2280.6436419467</ele>
        <time>2021-07-10T10:17:34Z</time>
      </trkpt>
      <trkpt lat="44.1041" lon="6.71397">
        <ele>2280.6436251902</ele>
        <time>2021-07-10T10:17:35Z</time>
      </trkpt>
      <trkpt lat="44.1041" lon="6.71396">
        <ele>2281.643636673</ele>
        <time>2021-07-10T10:17:39Z</time>
      </trkpt>
      <trkpt lat="44.10411" lon="6.71393">
        <ele>2281.6436326056</ele>
        <time>2021-07-10T10:17:40Z</time>
      </trkpt>
      <trkpt lat="44.10412" lon="6.71392">
        <ele>2281.6436400003</ele>
        <time>2021-07-10T10:17:41Z</time>
      </trkpt>
      <trkpt lat="44.10412" lon="6.71391">
        <ele>2281.6436574235</ele>
        <time>2021-07-10T10:17:42Z</time>
      </trkpt>
      <trkpt lat="44.10412" lon="6.7139">
        <ele>2280.6436701526</ele>
        <time>2021-07-10T10:17:44Z</time>
      </trkpt>
      <trkpt lat="44.10412" lon="6.71388">
        <ele>2281.6436860192</ele>
        <time>2021-07-10T10:17:45Z</time>
      </trkpt>
      <trkpt lat="44.10412" lon="6.71387">
        <ele>2281.6436982128</ele>
        <time>2021-07-10T10:17:46Z</time>
      </trkpt>
      <trkpt lat="44.10413" lon="6.71385">
        <ele>2282.6437213783</ele>
        <time>2021-07-10T10:17:48Z</time>
      </trkpt>
      <trkpt lat="44.10413" lon="6.71383">
        <ele>2282.6437344456</ele>
        <time>2021-07-10T10:17:49Z</time>
      </trkpt>
      <trkpt lat="44.10413" lon="6.71382">
        <ele>2282.6437608322</ele>
        <time>2021-07-10T10:17:50Z</time>
      </trkpt>
      <trkpt lat="44.10413" lon="6.7138">
        <ele>2281.6437737069</ele>
        <time>2021-07-10T10:17:52Z</time>
      </trkpt>
      <trkpt lat="44.10413" lon="6.71378">
        <ele>2281.6438212504</ele>
        <time>2021-07-10T10:17:53Z</time>
      </trkpt>
      <trkpt lat="44.10413" lon="6.71378">
        <ele>2283.6438489407</ele>
        <time>2021-07-10T10:17:54Z</time>
      </trkpt>
      <trkpt lat="44.10412" lon="6.71376">
        <ele>2283.6438968486</ele>
        <time>2021-07-10T10:17:55Z</time>
      </trkpt>
      <trkpt lat="44.10412" lon="6.71375">
        <ele>2283.6439284037</ele>
        <time>2021-07-10T10:17:57Z</time>
      </trkpt>
      <trkpt lat="44.10412" lon="6.71373">
        <ele>2282.6439476055</ele>
        <time>2021-07-10T10:17:59Z</time>
      </trkpt>
      <trkpt lat="44.10412" lon="6.71372">
        <ele>2282.6439529338</ele>
        <time>2021-07-10T10:18:00Z</time>
      </trkpt>
      <trkpt lat="44.10412" lon="6.71371">
        <ele>2283.6439696938</ele>
        <time>2021-07-10T10:18:01Z</time>
      </trkpt>
      <trkpt lat="44.10412" lon="6.7137">
        <ele>2283.643998084</ele>
        <time>2021-07-10T10:18:02Z</time>
      </trkpt>
      <trkpt lat="44.10412" lon="6.71368">
        <ele>2284.6440264897</ele>
        <time>2021-07-10T10:18:03Z</time>
      </trkpt>
      <trkpt lat="44.10412" lon="6.71367">
        <ele>2284.6440481176</ele>
        <time>2021-07-10T10:18:04Z</time>
      </trkpt>
      <trkpt lat="44.10412" lon="6.71366">
        <ele>2285.6440651794</ele>
        <time>2021-07-10T10:18:05Z</time>
      </trkpt>
      <trkpt lat="44.10411" lon="6.71366">
        <ele>2285.6440934013</ele>
        <time>2021-07-10T10:18:08Z</time>
      </trkpt>
      <trkpt lat="44.1041" lon="6.71363">
        <ele>2285.6441692562</ele>
        <time>2021-07-10T10:18:09Z</time>
      </trkpt>
      <trkpt lat="44.1041" lon="6.71361">
        <ele>2285.6442102986</ele>
        <time>2021-07-10T10:18:10Z</time>
      </trkpt>
      <trkpt lat="44.10411" lon="6.7136">
        <ele>2285.6442062485</ele>
        <time>2021-07-10T10:18:11Z</time>
      </trkpt>
      <trkpt lat="44.10411" lon="6.7136">
        <ele>2287.6442023932</ele>
        <time>2021-07-10T10:18:13Z</time>
      </trkpt>
      <trkpt lat="44.10412" lon="6.71358">
        <ele>2288.6442066723</ele>
        <time>2021-07-10T10:18:14Z</time>
      </trkpt>
      <trkpt lat="44.10412" lon="6.71357">
        <ele>2288.644211155</ele>
        <time>2021-07-10T10:18:15Z</time>
      </trkpt>
      <trkpt lat="44.10412" lon="6.71356">
        <ele>2288.6442193443</ele>
        <time>2021-07-10T10:18:17Z</time>
      </trkpt>
      <trkpt lat="44.10413" lon="6.71355">
        <ele>2289.6442134501</ele>
        <time>2021-07-10T10:18:19Z</time>
      </trkpt>
      <trkpt lat="44.10412" lon="6.71354">
        <ele>2290.6442421056</ele>
        <time>2021-07-10T10:18:20Z</time>
      </trkpt>
      <trkpt lat="44.10412" lon="6.71354">
        <ele>2290.6442542436</ele>
        <time>2021-07-10T10:18:21Z</time>
      </trkpt>
      <trkpt lat="44.10413" lon="6.71353">
        <ele>2290.6442619446</ele>
        <time>2021-07-10T10:18:22Z</time>
      </trkpt>
      <trkpt lat="44.10413" lon="6.71351">
        <ele>2290.644269122</ele>
        <time>2021-07-10T10:18:23Z</time>
      </trkpt>
      <trkpt lat="44.10413" lon="6.7135">
        <ele>2290.6442852125</ele>
        <time>2021-07-10T10:18:24Z</time>
      </trkpt>
      <trkpt lat="44.10413" lon="6.71349">
        <ele>2290.6443235654</ele>
        <time>2021-07-10T10:18:25Z</time>
      </trkpt>
      <trkpt lat="44.10412" lon="6.71347">
        <ele>2290.6443698799</ele>
        <time>2021-07-10T10:18:27Z</time>
      </trkpt>
      <trkpt lat="44.10411" lon="6.71346">
        <ele>2290.6444395302</ele>
        <time>2021-07-10T10:18:28Z</time>
      </trkpt>
      <trkpt lat="44.1041" lon="6.71345">
        <ele>2290.6444825567</ele>
        <time>2021-07-10T10:18:30Z</time>
      </trkpt>
      <trkpt lat="44.1041" lon="6.71344">
        <ele>2290.6444974677</ele>
        <time>2021-07-10T10:18:31Z</time>
      </trkpt>
      <trkpt lat="44.1041" lon="6.71343">
        <ele>2290.6445248568</ele>
        <time>2021-07-10T10:18:33Z</time>
      </trkpt>
      <trkpt lat="44.10409" lon="6.71341">
        <ele>2290.6445769964</ele>
        <time>2021-07-10T10:18:34Z</time>
      </trkpt>
      <trkpt lat="44.10409" lon="6.7134">
        <ele>2290.6446152319</ele>
        <time>2021-07-10T10:18:35Z</time>
      </trkpt>
      <trkpt lat="44.10408" lon="6.71338">
        <ele>2290.6446532076</ele>
        <time>2021-07-10T10:18:37Z</time>
      </trkpt>
      <trkpt lat="44.10408" lon="6.71335">
        <ele>2290.6447129355</ele>
        <time>2021-07-10T10:18:38Z</time>
      </trkpt>
      <trkpt lat="44.10408" lon="6.71333">
        <ele>2291.6447390638</ele>
        <time>2021-07-10T10:18:40Z</time>
      </trkpt>
      <trkpt lat="44.10408" lon="6.71332">
        <ele>2290.6447564501</ele>
        <time>2021-07-10T10:18:43Z</time>
      </trkpt>
      <trkpt lat="44.10408" lon="6.71329">
        <ele>2289.6448087384</ele>
        <time>2021-07-10T10:18:44Z</time>
      </trkpt>
      <trkpt lat="44.10408" lon="6.71328">
        <ele>2289.644837844</ele>
        <time>2021-07-10T10:18:45Z</time>
      </trkpt>
      <trkpt lat="44.10408" lon="6.71327">
        <ele>2289.6448649678</ele>
        <time>2021-07-10T10:18:47Z</time>
      </trkpt>
      <trkpt lat="44.10408" lon="6.71323">
        <ele>2290.6449174481</ele>
        <time>2021-07-10T10:18:49Z</time>
      </trkpt>
      <trkpt lat="44.10407" lon="6.71321">
        <ele>2290.6449815154</ele>
        <time>2021-07-10T10:18:50Z</time>
      </trkpt>
      <trkpt lat="44.10407" lon="6.7132">
        <ele>2290.64499441</ele>
        <time>2021-07-10T10:18:51Z</time>
      </trkpt>
      <trkpt lat="44.10407" lon="6.7132">
        <ele>2290.6449961062</ele>
        <time>2021-07-10T10:18:53Z</time>
      </trkpt>
      <trkpt lat="44.10407" lon="6.71318">
        <ele>2291.6450484959</ele>
        <time>2021-07-10T10:18:54Z</time>
      </trkpt>
      <trkpt lat="44.10406" lon="6.71317">
        <ele>2291.64507965</ele>
        <time>2021-07-10T10:18:55Z</time>
      </trkpt>
      <trkpt lat="44.10406" lon="6.71316">
        <ele>2291.6451221214</ele>
        <time>2021-07-10T10:18:57Z</time>
      </trkpt>
      <trkpt lat="44.10405" lon="6.71314">
        <ele>2291.6451827084</ele>
        <time>2021-07-10T10:18:58Z</time>
      </trkpt>
      <trkpt lat="44.10404" lon="6.71313">
        <ele>2292.6452145169</ele>
        <time>2021-07-10T10:19:00Z</time>
      </trkpt>
      <trkpt lat="44.10404" lon="6.71312">
        <ele>2293.6452231519</ele>
        <time>2021-07-10T10:19:01Z</time>
      </trkpt>
      <trkpt lat="44.10404" lon="6.7131">
        <ele>2294.6452488159</ele>
        <time>2021-07-10T10:19:02Z</time>
      </trkpt>
      <trkpt lat="44.10404" lon="6.71309">
        <ele>2294.6452978208</ele>
        <time>2021-07-10T10:19:03Z</time>
      </trkpt>
      <trkpt lat="44.10403" lon="6.71308">
        <ele>2294.6453387119</ele>
        <time>2021-07-10T10:19:04Z</time>
      </trkpt>
      <trkpt lat="44.10402" lon="6.71307">
        <ele>2294.6453773131</ele>
        <time>2021-07-10T10:19:05Z</time>
      </trkpt>
      <trkpt lat="44.10402" lon="6.71306">
        <ele>2294.6454129107</ele>
        <time>2021-07-10T10:19:06Z</time>
      </trkpt>
      <trkpt lat="44.10401" lon="6.71305">
        <ele>2293.6454503617</ele>
        <time>2021-07-10T10:19:07Z</time>
      </trkpt>
      <trkpt lat="44.10401" lon="6.71304">
        <ele>2293.6454764095</ele>
        <time>2021-07-10T10:19:08Z</time>
      </trkpt>
      <trkpt lat="44.10401" lon="6.71303">
        <ele>2292.6454855433</ele>
        <time>2021-07-10T10:19:09Z</time>
      </trkpt>
      <trkpt lat="44.10401" lon="6.71303">
        <ele>2292.6455090052</ele>
        <time>2021-07-10T10:19:10Z</time>
      </trkpt>
      <trkpt lat="44.104" lon="6.71301">
        <ele>2292.645535893</ele>
        <time>2021-07-10T10:19:11Z</time>
      </trkpt>
      <trkpt lat="44.104" lon="6.713">
        <ele>2293.6455759793</ele>
        <time>2021-07-10T10:19:12Z</time>
      </trkpt>
      <trkpt lat="44.10399" lon="6.71298">
        <ele>2293.6456306628</ele>
        <time>2021-07-10T10:19:13Z</time>
      </trkpt>
      <trkpt lat="44.10399" lon="6.71296">
        <ele>2294.6456568028</ele>
        <time>2021-07-10T10:19:14Z</time>
      </trkpt>
      <trkpt lat="44.10399" lon="6.71295">
        <ele>2293.645685855</ele>
        <time>2021-07-10T10:19:15Z</time>
      </trkpt>
      <trkpt lat="44.10399" lon="6.71295">
        <ele>2293.6457024578</ele>
        <time>2021-07-10T10:19:16Z</time>
      </trkpt>
      <trkpt lat="44.10399" lon="6.71294">
        <ele>2293.6457221683</ele>
        <time>2021-07-10T10:19:18Z</time>
      </trkpt>
      <trkpt lat="44.10399" lon="6.71291">
        <ele>2294.6457546889</ele>
        <time>2021-07-10T10:19:19Z</time>
      </trkpt>
      <trkpt lat="44.10399" lon="6.7129">
        <ele>2295.6457628883</ele>
        <time>2021-07-10T10:19:20Z</time>
      </trkpt>
      <trkpt lat="44.10399" lon="6.71289">
        <ele>2295.6457785524</ele>
        <time>2021-07-10T10:19:21Z</time>
      </trkpt>
      <trkpt lat="44.104" lon="6.71288">
        <ele>2295.6457867597</ele>
        <time>2021-07-10T10:19:23Z</time>
      </trkpt>
      <trkpt lat="44.10401" lon="6.71285">
        <ele>2296.6457945562</ele>
        <time>2021-07-10T10:19:24Z</time>
      </trkpt>
      <trkpt lat="44.10401" lon="6.71283">
        <ele>2295.6458163747</ele>
        <time>2021-07-10T10:19:25Z</time>
      </trkpt>
      <trkpt lat="44.10402" lon="6.71282">
        <ele>2295.6458146813</ele>
        <time>2021-07-10T10:19:26Z</time>
      </trkpt>
      <trkpt lat="44.10402" lon="6.71281">
        <ele>2295.6458300385</ele>
        <time>2021-07-10T10:19:28Z</time>
      </trkpt>
      <trkpt lat="44.10401" lon="6.71279">
        <ele>2296.6458913464</ele>
        <time>2021-07-10T10:19:29Z</time>
      </trkpt>
      <trkpt lat="44.10401" lon="6.71278">
        <ele>2296.6459221652</ele>
        <time>2021-07-10T10:19:30Z</time>
      </trkpt>
      <trkpt lat="44.104" lon="6.71276">
        <ele>2297.6459650343</ele>
        <time>2021-07-10T10:19:31Z</time>
      </trkpt>
      <trkpt lat="44.10399" lon="6.71275">
        <ele>2297.6460142242</ele>
        <time>2021-07-10T10:19:32Z</time>
      </trkpt>
      <trkpt lat="44.10399" lon="6.71273">
        <ele>2297.646043931</ele>
        <time>2021-07-10T10:19:34Z</time>
      </trkpt>
      <trkpt lat="44.10398" lon="6.7127">
        <ele>2297.6461332998</ele>
        <time>2021-07-10T10:19:35Z</time>
      </trkpt>
      <trkpt lat="44.10398" lon="6.71268">
        <ele>2297.6461779709</ele>
        <time>2021-07-10T10:19:36Z</time>
      </trkpt>
      <trkpt lat="44.10397" lon="6.71266">
        <ele>2297.6462306599</ele>
        <time>2021-07-10T10:19:37Z</time>
      </trkpt>
      <trkpt lat="44.10397" lon="6.71263">
        <ele>2296.6463066009</ele>
        <time>2021-07-10T10:19:39Z</time>
      </trkpt>
      <trkpt lat="44.10396" lon="6.71262">
        <ele>2296.6463304136</ele>
        <time>2021-07-10T10:19:40Z</time>
      </trkpt>
      <trkpt lat="44.10396" lon="6.71261">
        <ele>2296.6463566294</ele>
        <time>2021-07-10T10:19:42Z</time>
      </trkpt>
      <trkpt lat="44.10397" lon="6.71258">
        <ele>2296.6463822228</ele>
        <time>2021-07-10T10:19:43Z</time>
      </trkpt>
      <trkpt lat="44.10397" lon="6.71256">
        <ele>2296.64640569</ele>
        <time>2021-07-10T10:19:44Z</time>
      </trkpt>
      <trkpt lat="44.10397" lon="6.71255">
        <ele>2296.6464194131</ele>
        <time>2021-07-10T10:19:45Z</time>
      </trkpt>
      <trkpt lat="44.10397" lon="6.71254">
        <ele>2297.6464296883</ele>
        <time>2021-07-10T10:19:46Z</time>
      </trkpt>
      <trkpt lat="44.10398" lon="6.71253">
        <ele>2297.6464384502</ele>
        <time>2021-07-10T10:19:48Z</time>
      </trkpt>
      <trkpt lat="44.10397" lon="6.7125">
        <ele>2296.646484933</ele>
        <time>2021-07-10T10:19:49Z</time>
      </trkpt>
      <trkpt lat="44.10398" lon="6.71249">
        <ele>2297.6465085983</ele>
        <time>2021-07-10T10:19:50Z</time>
      </trkpt>
      <trkpt lat="44.10397" lon="6.71248">
        <ele>2297.6465328824</ele>
        <time>2021-07-10T10:19:52Z</time>
      </trkpt>
      <trkpt lat="44.10398" lon="6.71246">
        <ele>2296.6465410374</ele>
        <time>2021-07-10T10:19:54Z</time>
      </trkpt>
      <trkpt lat="44.10398" lon="6.71244">
        <ele>2297.6465703886</ele>
        <time>2021-07-10T10:19:55Z</time>
      </trkpt>
      <trkpt lat="44.10398" lon="6.71242">
        <ele>2297.6466027658</ele>
        <time>2021-07-10T10:19:56Z</time>
      </trkpt>
      <trkpt lat="44.10398" lon="6.71241">
        <ele>2297.6466216597</ele>
        <time>2021-07-10T10:19:58Z</time>
      </trkpt>
      <trkpt lat="44.10398" lon="6.71239">
        <ele>2296.6466710529</ele>
        <time>2021-07-10T10:19:59Z</time>
      </trkpt>
      <trkpt lat="44.10398" lon="6.71237">
        <ele>2297.6467030858</ele>
        <time>2021-07-10T10:20:00Z</time>
      </trkpt>
      <trkpt lat="44.10397" lon="6.71236">
        <ele>2297.6467342661</ele>
        <time>2021-07-10T10:20:01Z</time>
      </trkpt>
      <trkpt lat="44.10397" lon="6.71234">
        <ele>2297.6467792662</ele>
        <time>2021-07-10T10:20:02Z</time>
      </trkpt>
      <trkpt lat="44.10396" lon="6.71232">
        <ele>2297.646817</ele>
        <time>2021-07-10T10:20:04Z</time>
      </trkpt>
      <trkpt lat="44.10395" lon="6.71229">
        <ele>2299.6468990747</ele>
        <time>2021-07-10T10:20:05Z</time>
      </trkpt>
      <trkpt lat="44.10395" lon="6.71229">
        <ele>2300.646923161</ele>
        <time>2021-07-10T10:20:06Z</time>
      </trkpt>
      <trkpt lat="44.10395" lon="6.71227">
        <ele>2300.6469479464</ele>
        <time>2021-07-10T10:20:07Z</time>
      </trkpt>
      <trkpt lat="44.10395" lon="6.71225">
        <ele>2300.6469870108</ele>
        <time>2021-07-10T10:20:08Z</time>
      </trkpt>
      <trkpt lat="44.10395" lon="6.71223">
        <ele>2300.6470283795</ele>
        <time>2021-07-10T10:20:09Z</time>
      </trkpt>
      <trkpt lat="44.10395" lon="6.71221">
        <ele>2300.647056063</ele>
        <time>2021-07-10T10:20:10Z</time>
      </trkpt>
      <trkpt lat="44.10395" lon="6.71219">
        <ele>2301.647092014</ele>
        <time>2021-07-10T10:20:12Z</time>
      </trkpt>
      <trkpt lat="44.10395" lon="6.71218">
        <ele>2301.6471010596</ele>
        <time>2021-07-10T10:20:14Z</time>
      </trkpt>
      <trkpt lat="44.10395" lon="6.71215">
        <ele>2301.6471459017</ele>
        <time>2021-07-10T10:20:15Z</time>
      </trkpt>
      <trkpt lat="44.10395" lon="6.71214">
        <ele>2300.6471705087</ele>
        <time>2021-07-10T10:20:16Z</time>
      </trkpt>
      <trkpt lat="44.10395" lon="6.71212">
        <ele>2301.6471945874</ele>
        <time>2021-07-10T10:20:18Z</time>
      </trkpt>
      <trkpt lat="44.10396" lon="6.71208">
        <ele>2300.6472354499</ele>
        <time>2021-07-10T10:20:19Z</time>
      </trkpt>
      <trkpt lat="44.10397" lon="6.71207">
        <ele>2300.6472411698</ele>
        <time>2021-07-10T10:20:20Z</time>
      </trkpt>
      <trkpt lat="44.10397" lon="6.71206">
        <ele>2300.6472574331</ele>
        <time>2021-07-10T10:20:22Z</time>
      </trkpt>
      <trkpt lat="44.10397" lon="6.71203">
        <ele>2299.6472889459</ele>
        <time>2021-07-10T10:20:24Z</time>
      </trkpt>
      <trkpt lat="44.10397" lon="6.71201">
        <ele>2298.6473008087</ele>
        <time>2021-07-10T10:20:25Z</time>
      </trkpt>
      <trkpt lat="44.10397" lon="6.712">
        <ele>2298.6473349235</ele>
        <time>2021-07-10T10:20:26Z</time>
      </trkpt>
      <trkpt lat="44.10396" lon="6.71199">
        <ele>2298.6473746321</ele>
        <time>2021-07-10T10:20:28Z</time>
      </trkpt>
      <trkpt lat="44.10396" lon="6.71196">
        <ele>2300.6474273719</ele>
        <time>2021-07-10T10:20:29Z</time>
      </trkpt>
      <trkpt lat="44.10396" lon="6.71195">
        <ele>2300.6474531734</ele>
        <time>2021-07-10T10:20:30Z</time>
      </trkpt>
      <trkpt lat="44.10397" lon="6.71193">
        <ele>2300.6474579049</ele>
        <time>2021-07-10T10:20:32Z</time>
      </trkpt>
      <trkpt lat="44.10397" lon="6.7119">
        <ele>2300.6475037186</ele>
        <time>2021-07-10T10:20:34Z</time>
      </trkpt>
      <trkpt lat="44.10398" lon="6.71187">
        <ele>2300.647530227</ele>
        <time>2021-07-10T10:20:35Z</time>
      </trkpt>
      <trkpt lat="44.10398" lon="6.71185">
        <ele>2299.6475373539</ele>
        <time>2021-07-10T10:20:36Z</time>
      </trkpt>
      <trkpt lat="44.10399" lon="6.71184">
        <ele>2299.6475381264</ele>
        <time>2021-07-10T10:20:38Z</time>
      </trkpt>
      <trkpt lat="44.10398" lon="6.71182">
        <ele>2298.6475932892</ele>
        <time>2021-07-10T10:20:39Z</time>
      </trkpt>
      <trkpt lat="44.10398" lon="6.71181">
        <ele>2298.6476062609</ele>
        <time>2021-07-10T10:20:40Z</time>
      </trkpt>
      <trkpt lat="44.10399" lon="6.7118">
        <ele>2297.6476118332</ele>
        <time>2021-07-10T10:20:42Z</time>
      </trkpt>
      <trkpt lat="44.104" lon="6.71177">
        <ele>2297.6476305094</ele>
        <time>2021-07-10T10:20:44Z</time>
      </trkpt>
      <trkpt lat="44.10399" lon="6.71174">
        <ele>2296.6476931247</ele>
        <time>2021-07-10T10:20:45Z</time>
      </trkpt>
      <trkpt lat="44.104" lon="6.71172">
        <ele>2296.6477164824</ele>
        <time>2021-07-10T10:20:46Z</time>
      </trkpt>
      <trkpt lat="44.104" lon="6.71171">
        <ele>2297.6477359183</ele>
        <time>2021-07-10T10:20:48Z</time>
      </trkpt>
      <trkpt lat="44.104" lon="6.71168">
        <ele>2297.6477616716</ele>
        <time>2021-07-10T10:20:49Z</time>
      </trkpt>
      <trkpt lat="44.10401" lon="6.71167">
        <ele>2296.6477684821</ele>
        <time>2021-07-10T10:20:50Z</time>
      </trkpt>
      <trkpt lat="44.10401" lon="6.71166">
        <ele>2296.647763583</ele>
        <time>2021-07-10T10:20:51Z</time>
      </trkpt>
      <trkpt lat="44.10401" lon="6.71163">
        <ele>2297.647824773</ele>
        <time>2021-07-10T10:20:54Z</time>
      </trkpt>
      <trkpt lat="44.10401" lon="6.7116">
        <ele>2297.6478606353</ele>
        <time>2021-07-10T10:20:55Z</time>
      </trkpt>
      <trkpt lat="44.10401" lon="6.71158">
        <ele>2298.6478946585</ele>
        <time>2021-07-10T10:20:56Z</time>
      </trkpt>
      <trkpt lat="44.10402" lon="6.71157">
        <ele>2298.6478966472</ele>
        <time>2021-07-10T10:20:58Z</time>
      </trkpt>
      <trkpt lat="44.10403" lon="6.71154">
        <ele>2298.6479058549</ele>
        <time>2021-07-10T10:20:59Z</time>
      </trkpt>
      <trkpt lat="44.10403" lon="6.71153">
        <ele>2298.6479046754</ele>
        <time>2021-07-10T10:21:00Z</time>
      </trkpt>
      <trkpt lat="44.10404" lon="6.71152">
        <ele>2298.6479056327</ele>
        <time>2021-07-10T10:21:01Z</time>
      </trkpt>
      <trkpt lat="44.10405" lon="6.7115">
        <ele>2297.6479111966</ele>
        <time>2021-07-10T10:21:03Z</time>
      </trkpt>
      <trkpt lat="44.10406" lon="6.71146">
        <ele>2297.6479262575</ele>
        <time>2021-07-10T10:21:04Z</time>
      </trkpt>
      <trkpt lat="44.10406" lon="6.71145">
        <ele>2297.6479407479</ele>
        <time>2021-07-10T10:21:05Z</time>
      </trkpt>
      <trkpt lat="44.10406" lon="6.71144">
        <ele>2297.6479538069</ele>
        <time>2021-07-10T10:21:06Z</time>
      </trkpt>
      <trkpt lat="44.10406" lon="6.71143">
        <ele>2297.6479920503</ele>
        <time>2021-07-10T10:21:07Z</time>
      </trkpt>
      <trkpt lat="44.10406" lon="6.71141">
        <ele>2297.6480181262</ele>
        <time>2021-07-10T10:21:08Z</time>
      </trkpt>
      <trkpt lat="44.10406" lon="6.7114">
        <ele>2297.6480498328</ele>
        <time>2021-07-10T10:21:09Z</time>
      </trkpt>
      <trkpt lat="44.10406" lon="6.71138">
        <ele>2298.6480623736</ele>
        <time>2021-07-10T10:21:10Z</time>
      </trkpt>
      <trkpt lat="44.10406" lon="6.71136">
        <ele>2298.6481047217</ele>
        <time>2021-07-10T10:21:12Z</time>
      </trkpt>
      <trkpt lat="44.10405" lon="6.71133">
        <ele>2298.6481625487</ele>
        <time>2021-07-10T10:21:13Z</time>
      </trkpt>
      <trkpt lat="44.10405" lon="6.71132">
        <ele>2299.6481931826</ele>
        <time>2021-07-10T10:21:14Z</time>
      </trkpt>
      <trkpt lat="44.10405" lon="6.71131">
        <ele>2299.6482157073</ele>
        <time>2021-07-10T10:21:15Z</time>
      </trkpt>
      <trkpt lat="44.10405" lon="6.71129">
        <ele>2299.6482399687</ele>
        <time>2021-07-10T10:21:17Z</time>
      </trkpt>
      <trkpt lat="44.10404" lon="6.71125">
        <ele>2299.6483393652</ele>
        <time>2021-07-10T10:21:18Z</time>
      </trkpt>
      <trkpt lat="44.10405" lon="6.71122">
        <ele>2300.6483548574</ele>
        <time>2021-07-10T10:21:20Z</time>
      </trkpt>
      <trkpt lat="44.10405" lon="6.71121">
        <ele>2300.6483629195</ele>
        <time>2021-07-10T10:21:21Z</time>
      </trkpt>
      <trkpt lat="44.10406" lon="6.7112">
        <ele>2300.6483814152</ele>
        <time>2021-07-10T10:21:23Z</time>
      </trkpt>
      <trkpt lat="44.10407" lon="6.71117">
        <ele>2300.6483868334</ele>
        <time>2021-07-10T10:21:24Z</time>
      </trkpt>
      <trkpt lat="44.10407" lon="6.71115">
        <ele>2300.6484024606</ele>
        <time>2021-07-10T10:21:25Z</time>
      </trkpt>
      <trkpt lat="44.10407" lon="6.71114">
        <ele>2301.6484321176</ele>
        <time>2021-07-10T10:21:27Z</time>
      </trkpt>
      <trkpt lat="44.10407" lon="6.71111">
        <ele>2300.6484786237</ele>
        <time>2021-07-10T10:21:29Z</time>
      </trkpt>
      <trkpt lat="44.10408" lon="6.71108">
        <ele>2301.6485094487</ele>
        <time>2021-07-10T10:21:30Z</time>
      </trkpt>
      <trkpt lat="44.10408" lon="6.71107">
        <ele>2301.6485355395</ele>
        <time>2021-07-10T10:21:31Z</time>
      </trkpt>
      <trkpt lat="44.10408" lon="6.71105">
        <ele>2301.6485515941</ele>
        <time>2021-07-10T10:21:32Z</time>
      </trkpt>
      <trkpt lat="44.10408" lon="6.71103">
        <ele>2302.6485687804</ele>
        <time>2021-07-10T10:21:33Z</time>
      </trkpt>
      <trkpt lat="44.10409" lon="6.71101">
        <ele>2301.6485870983</ele>
        <time>2021-07-10T10:21:34Z</time>
      </trkpt>
      <trkpt lat="44.10409" lon="6.71099">
        <ele>2302.6486209281</ele>
        <time>2021-07-10T10:21:35Z</time>
      </trkpt>
      <trkpt lat="44.10409" lon="6.71097">
        <ele>2301.6486418867</ele>
        <time>2021-07-10T10:21:36Z</time>
      </trkpt>
      <trkpt lat="44.10409" lon="6.71095">
        <ele>2301.6486701783</ele>
        <time>2021-07-10T10:21:38Z</time>
      </trkpt>
      <trkpt lat="44.1041" lon="6.71094">
        <ele>2301.6486713984</ele>
        <time>2021-07-10T10:21:39Z</time>
      </trkpt>
      <trkpt lat="44.1041" lon="6.71092">
        <ele>2301.6486907764</ele>
        <time>2021-07-10T10:21:40Z</time>
      </trkpt>
      <trkpt lat="44.1041" lon="6.7109">
        <ele>2301.6487256132</ele>
        <time>2021-07-10T10:21:42Z</time>
      </trkpt>
      <trkpt lat="44.10409" lon="6.71088">
        <ele>2301.6487940811</ele>
        <time>2021-07-10T10:21:44Z</time>
      </trkpt>
      <trkpt lat="44.1041" lon="6.71085">
        <ele>2302.6487986152</ele>
        <time>2021-07-10T10:21:45Z</time>
      </trkpt>
      <trkpt lat="44.1041" lon="6.71083">
        <ele>2302.6488230967</ele>
        <time>2021-07-10T10:21:46Z</time>
      </trkpt>
      <trkpt lat="44.10411" lon="6.71082">
        <ele>2302.6488337817</ele>
        <time>2021-07-10T10:21:48Z</time>
      </trkpt>
      <trkpt lat="44.10411" lon="6.71078">
        <ele>2303.6488750355</ele>
        <time>2021-07-10T10:21:49Z</time>
      </trkpt>
      <trkpt lat="44.10412" lon="6.71077">
        <ele>2303.6488957327</ele>
        <time>2021-07-10T10:21:50Z</time>
      </trkpt>
      <trkpt lat="44.10412" lon="6.71075">
        <ele>2303.6489168186</ele>
        <time>2021-07-10T10:21:52Z</time>
      </trkpt>
      <trkpt lat="44.10412" lon="6.71072">
        <ele>2303.64895192</ele>
        <time>2021-07-10T10:21:54Z</time>
      </trkpt>
      <trkpt lat="44.10413" lon="6.7107">
        <ele>2303.6489604388</ele>
        <time>2021-07-10T10:21:55Z</time>
      </trkpt>
      <trkpt lat="44.10414" lon="6.71069">
        <ele>2303.6489426512</ele>
        <time>2021-07-10T10:21:56Z</time>
      </trkpt>
      <trkpt lat="44.10414" lon="6.71069">
        <ele>2303.6489336214</ele>
        <time>2021-07-10T10:21:58Z</time>
      </trkpt>
      <trkpt lat="44.10415" lon="6.71067">
        <ele>2303.6489521962</ele>
        <time>2021-07-10T10:21:59Z</time>
      </trkpt>
      <trkpt lat="44.10415" lon="6.71066">
        <ele>2303.648942784</ele>
        <time>2021-07-10T10:22:00Z</time>
      </trkpt>
      <trkpt lat="44.10415" lon="6.71066">
        <ele>2302.6489518458</ele>
        <time>2021-07-10T10:22:02Z</time>
      </trkpt>
      <trkpt lat="44.10416" lon="6.71063">
        <ele>2302.6489888231</ele>
        <time>2021-07-10T10:22:04Z</time>
      </trkpt>
      <trkpt lat="44.10417" lon="6.71059">
        <ele>2302.6490030639</ele>
        <time>2021-07-10T10:22:05Z</time>
      </trkpt>
      <trkpt lat="44.10418" lon="6.71058">
        <ele>2303.6490131947</ele>
        <time>2021-07-10T10:22:06Z</time>
      </trkpt>
      <trkpt lat="44.10418" lon="6.71056">
        <ele>2303.6490105512</ele>
        <time>2021-07-10T10:22:08Z</time>
      </trkpt>
      <trkpt lat="44.1042" lon="6.71055">
        <ele>2303.6489802044</ele>
        <time>2021-07-10T10:22:09Z</time>
      </trkpt>
      <trkpt lat="44.1042" lon="6.71054">
        <ele>2304.6489796689</ele>
        <time>2021-07-10T10:22:10Z</time>
      </trkpt>
      <trkpt lat="44.10421" lon="6.71053">
        <ele>2304.6489699578</ele>
        <time>2021-07-10T10:22:11Z</time>
      </trkpt>
      <trkpt lat="44.10421" lon="6.71052">
        <ele>2304.6489931261</ele>
        <time>2021-07-10T10:22:12Z</time>
      </trkpt>
      <trkpt lat="44.10421" lon="6.7105">
        <ele>2305.6490102477</ele>
        <time>2021-07-10T10:22:13Z</time>
      </trkpt>
      <trkpt lat="44.10422" lon="6.71049">
        <ele>2305.6490231414</ele>
        <time>2021-07-10T10:22:14Z</time>
      </trkpt>
      <trkpt lat="44.10422" lon="6.71048">
        <ele>2306.6490333618</ele>
        <time>2021-07-10T10:22:15Z</time>
      </trkpt>
      <trkpt lat="44.10422" lon="6.71047">
        <ele>2306.64903634</ele>
        <time>2021-07-10T10:22:16Z</time>
      </trkpt>
      <trkpt lat="44.10423" lon="6.71046">
        <ele>2306.6490368715</ele>
        <time>2021-07-10T10:22:18Z</time>
      </trkpt>
      <trkpt lat="44.10424" lon="6.71044">
        <ele>2306.6490182436</ele>
        <time>2021-07-10T10:22:19Z</time>
      </trkpt>
      <trkpt lat="44.10425" lon="6.71044">
        <ele>2305.6490101651</ele>
        <time>2021-07-10T10:22:20Z</time>
      </trkpt>
      <trkpt lat="44.10425" lon="6.71043">
        <ele>2306.6489993707</ele>
        <time>2021-07-10T10:22:22Z</time>
      </trkpt>
      <trkpt lat="44.10425" lon="6.71042">
        <ele>2306.6490107374</ele>
        <time>2021-07-10T10:22:23Z</time>
      </trkpt>
      <trkpt lat="44.10425" lon="6.71042">
        <ele>2306.6490343939</ele>
        <time>2021-07-10T10:22:24Z</time>
      </trkpt>
      <trkpt lat="44.10424" lon="6.71042">
        <ele>2305.6490461035</ele>
        <time>2021-07-10T10:22:25Z</time>
      </trkpt>
      <trkpt lat="44.10425" lon="6.71043">
        <ele>2305.6490133441</ele>
        <time>2021-07-10T10:22:26Z</time>
      </trkpt>
      <trkpt lat="44.10424" lon="6.71044">
        <ele>2304.6490138561</ele>
        <time>2021-07-10T10:22:34Z</time>
      </trkpt>
      <trkpt lat="44.10424" lon="6.71045">
        <ele>2304.6490151416</ele>
        <time>2021-07-10T10:22:40Z</time>
      </trkpt>
      <trkpt lat="44.10423" lon="6.71044">
        <ele>2305.6490635174</ele>
        <time>2021-07-10T10:22:42Z</time>
      </trkpt>
      <trkpt lat="44.10423" lon="6.71041">
        <ele>2306.6491203195</ele>
        <time>2021-07-10T10:22:43Z</time>
      </trkpt>
      <trkpt lat="44.10423" lon="6.7104">
        <ele>2307.6491163501</ele>
        <time>2021-07-10T10:22:44Z</time>
      </trkpt>
      <trkpt lat="44.10424" lon="6.71039">
        <ele>2307.6491181989</ele>
        <time>2021-07-10T10:22:45Z</time>
      </trkpt>
      <trkpt lat="44.10424" lon="6.71037">
        <ele>2306.6491331844</ele>
        <time>2021-07-10T10:22:47Z</time>
      </trkpt>
      <trkpt lat="44.10426" lon="6.71035">
        <ele>2305.649113629</ele>
        <time>2021-07-10T10:22:49Z</time>
      </trkpt>
      <trkpt lat="44.10426" lon="6.71033">
        <ele>2306.6491281585</ele>
        <time>2021-07-10T10:22:50Z</time>
      </trkpt>
      <trkpt lat="44.10426" lon="6.71031">
        <ele>2306.6491499598</ele>
        <time>2021-07-10T10:22:51Z</time>
      </trkpt>
      <trkpt lat="44.10426" lon="6.7103">
        <ele>2306.6491882363</ele>
        <time>2021-07-10T10:22:52Z</time>
      </trkpt>
      <trkpt lat="44.10425" lon="6.71028">
        <ele>2306.6492362452</ele>
        <time>2021-07-10T10:22:54Z</time>
      </trkpt>
      <trkpt lat="44.10426" lon="6.71026">
        <ele>2307.6492512935</ele>
        <time>2021-07-10T10:22:55Z</time>
      </trkpt>
      <trkpt lat="44.10427" lon="6.71025">
        <ele>2307.6492368694</ele>
        <time>2021-07-10T10:22:56Z</time>
      </trkpt>
      <trkpt lat="44.10428" lon="6.71024">
        <ele>2307.6492310874</ele>
        <time>2021-07-10T10:22:57Z</time>
      </trkpt>
      <trkpt lat="44.10429" lon="6.71022">
        <ele>2306.6492244487</ele>
        <time>2021-07-10T10:22:58Z</time>
      </trkpt>
      <trkpt lat="44.10429" lon="6.71021">
        <ele>2306.6492307406</ele>
        <time>2021-07-10T10:22:59Z</time>
      </trkpt>
      <trkpt lat="44.1043" lon="6.7102">
        <ele>2306.6492392977</ele>
        <time>2021-07-10T10:23:00Z</time>
      </trkpt>
      <trkpt lat="44.1043" lon="6.71019">
        <ele>2305.6492498724</ele>
        <time>2021-07-10T10:23:02Z</time>
      </trkpt>
      <trkpt lat="44.1043" lon="6.71016">
        <ele>2305.6492920041</ele>
        <time>2021-07-10T10:23:04Z</time>
      </trkpt>
      <trkpt lat="44.1043" lon="6.71014">
        <ele>2305.6492989724</ele>
        <time>2021-07-10T10:23:05Z</time>
      </trkpt>
      <trkpt lat="44.10431" lon="6.71014">
        <ele>2304.6493067484</ele>
        <time>2021-07-10T10:23:06Z</time>
      </trkpt>
      <trkpt lat="44.10431" lon="6.71012">
        <ele>2303.6493323262</ele>
        <time>2021-07-10T10:23:08Z</time>
      </trkpt>
      <trkpt lat="44.10431" lon="6.71009">
        <ele>2303.6493870654</ele>
        <time>2021-07-10T10:23:09Z</time>
      </trkpt>
      <trkpt lat="44.1043" lon="6.71008">
        <ele>2303.6494266712</ele>
        <time>2021-07-10T10:23:10Z</time>
      </trkpt>
      <trkpt lat="44.10429" lon="6.71007">
        <ele>2303.6494688343</ele>
        <time>2021-07-10T10:23:12Z</time>
      </trkpt>
      <trkpt lat="44.10429" lon="6.71005">
        <ele>2304.6495158924</ele>
        <time>2021-07-10T10:23:13Z</time>
      </trkpt>
      <trkpt lat="44.10429" lon="6.71004">
        <ele>2304.6495280298</ele>
        <time>2021-07-10T10:23:14Z</time>
      </trkpt>
      <trkpt lat="44.10429" lon="6.71002">
        <ele>2304.6495575454</ele>
        <time>2021-07-10T10:23:15Z</time>
      </trkpt>
      <trkpt lat="44.10429" lon="6.71001">
        <ele>2304.6495908928</ele>
        <time>2021-07-10T10:23:16Z</time>
      </trkpt>
      <trkpt lat="44.10429" lon="6.70999">
        <ele>2304.6496178797</ele>
        <time>2021-07-10T10:23:18Z</time>
      </trkpt>
      <trkpt lat="44.10428" lon="6.70996">
        <ele>2305.6497034295</ele>
        <time>2021-07-10T10:23:19Z</time>
      </trkpt>
      <trkpt lat="44.10427" lon="6.70995">
        <ele>2305.6497403881</ele>
        <time>2021-07-10T10:23:20Z</time>
      </trkpt>
      <trkpt lat="44.10426" lon="6.70995">
        <ele>2305.6497641682</ele>
        <time>2021-07-10T10:23:22Z</time>
      </trkpt>
      <trkpt lat="44.10425" lon="6.70995">
        <ele>2305.6498174823</ele>
        <time>2021-07-10T10:23:23Z</time>
      </trkpt>
      <trkpt lat="44.10424" lon="6.70995">
        <ele>2305.6498578549</ele>
        <time>2021-07-10T10:23:24Z</time>
      </trkpt>
      <trkpt lat="44.10423" lon="6.70994">
        <ele>2305.6499006177</ele>
        <time>2021-07-10T10:23:25Z</time>
      </trkpt>
      <trkpt lat="44.10422" lon="6.70994">
        <ele>2305.6499347298</ele>
        <time>2021-07-10T10:23:26Z</time>
      </trkpt>
      <trkpt lat="44.10421" lon="6.70993">
        <ele>2305.6499757742</ele>
        <time>2021-07-10T10:23:28Z</time>
      </trkpt>
      <trkpt lat="44.1042" lon="6.70991">
        <ele>2306.6500532229</ele>
        <time>2021-07-10T10:23:29Z</time>
      </trkpt>
      <trkpt lat="44.10419" lon="6.70989">
        <ele>2306.6500858281</ele>
        <time>2021-07-10T10:23:30Z</time>
      </trkpt>
      <trkpt lat="44.10419" lon="6.70988">
        <ele>2306.6501116681</ele>
        <time>2021-07-10T10:23:31Z</time>
      </trkpt>
      <trkpt lat="44.10419" lon="6.70987">
        <ele>2306.6501491242</ele>
        <time>2021-07-10T10:23:32Z</time>
      </trkpt>
      <trkpt lat="44.10418" lon="6.70985">
        <ele>2306.6502100142</ele>
        <time>2021-07-10T10:23:33Z</time>
      </trkpt>
      <trkpt lat="44.10417" lon="6.70984">
        <ele>2306.6502557368</ele>
        <time>2021-07-10T10:23:34Z</time>
      </trkpt>
      <trkpt lat="44.10417" lon="6.70982">
        <ele>2306.650301077</ele>
        <time>2021-07-10T10:23:35Z</time>
      </trkpt>
      <trkpt lat="44.10417" lon="6.7098">
        <ele>2307.6503363372</ele>
        <time>2021-07-10T10:23:37Z</time>
      </trkpt>
      <trkpt lat="44.10416" lon="6.70978">
        <ele>2307.6503813435</ele>
        <time>2021-07-10T10:23:38Z</time>
      </trkpt>
      <trkpt lat="44.10417" lon="6.70976">
        <ele>2307.6504003217</ele>
        <time>2021-07-10T10:23:39Z</time>
      </trkpt>
      <trkpt lat="44.10416" lon="6.70975">
        <ele>2307.6504310919</ele>
        <time>2021-07-10T10:23:40Z</time>
      </trkpt>
      <trkpt lat="44.10417" lon="6.70974">
        <ele>2307.6504371636</ele>
        <time>2021-07-10T10:23:41Z</time>
      </trkpt>
      <trkpt lat="44.10417" lon="6.70973">
        <ele>2306.6504537558</ele>
        <time>2021-07-10T10:23:43Z</time>
      </trkpt>
      <trkpt lat="44.10417" lon="6.7097">
        <ele>2306.6504775318</ele>
        <time>2021-07-10T10:23:44Z</time>
      </trkpt>
      <trkpt lat="44.10417" lon="6.70968">
        <ele>2306.6505044791</ele>
        <time>2021-07-10T10:23:45Z</time>
      </trkpt>
      <trkpt lat="44.10418" lon="6.70967">
        <ele>2306.6505123625</ele>
        <time>2021-07-10T10:23:47Z</time>
      </trkpt>
      <trkpt lat="44.10417" lon="6.70964">
        <ele>2307.6505771453</ele>
        <time>2021-07-10T10:23:49Z</time>
      </trkpt>
      <trkpt lat="44.10416" lon="6.7096">
        <ele>2307.6506758535</ele>
        <time>2021-07-10T10:23:50Z</time>
      </trkpt>
      <trkpt lat="44.10416" lon="6.70959">
        <ele>2307.6507101588</ele>
        <time>2021-07-10T10:23:51Z</time>
      </trkpt>
      <trkpt lat="44.10416" lon="6.70957">
        <ele>2307.65074958</ele>
        <time>2021-07-10T10:23:52Z</time>
      </trkpt>
      <trkpt lat="44.10416" lon="6.70955">
        <ele>2307.6507815844</ele>
        <time>2021-07-10T10:23:53Z</time>
      </trkpt>
      <trkpt lat="44.10415" lon="6.70952">
        <ele>2307.6508461922</ele>
        <time>2021-07-10T10:23:55Z</time>
      </trkpt>
      <trkpt lat="44.10415" lon="6.70951">
        <ele>2307.6508845627</ele>
        <time>2021-07-10T10:23:56Z</time>
      </trkpt>
      <trkpt lat="44.10414" lon="6.7095">
        <ele>2307.6509257391</ele>
        <time>2021-07-10T10:23:58Z</time>
      </trkpt>
      <trkpt lat="44.10413" lon="6.70948">
        <ele>2307.6510063149</ele>
        <time>2021-07-10T10:23:59Z</time>
      </trkpt>
      <trkpt lat="44.10412" lon="6.70947">
        <ele>2307.6510523083</ele>
        <time>2021-07-10T10:24:00Z</time>
      </trkpt>
      <trkpt lat="44.10411" lon="6.70946">
        <ele>2308.6511114649</ele>
        <time>2021-07-10T10:24:01Z</time>
      </trkpt>
      <trkpt lat="44.1041" lon="6.70944">
        <ele>2308.6511676544</ele>
        <time>2021-07-10T10:24:02Z</time>
      </trkpt>
      <trkpt lat="44.10409" lon="6.70944">
        <ele>2308.6512080337</ele>
        <time>2021-07-10T10:24:04Z</time>
      </trkpt>
      <trkpt lat="44.10407" lon="6.70943">
        <ele>2307.6512740538</ele>
        <time>2021-07-10T10:24:05Z</time>
      </trkpt>
      <trkpt lat="44.10406" lon="6.70942">
        <ele>2307.6513172331</ele>
        <time>2021-07-10T10:24:06Z</time>
      </trkpt>
      <trkpt lat="44.10406" lon="6.70941">
        <ele>2308.651350984</ele>
        <time>2021-07-10T10:24:07Z</time>
      </trkpt>
      <trkpt lat="44.10405" lon="6.7094">
        <ele>2308.651385744</ele>
        <time>2021-07-10T10:24:08Z</time>
      </trkpt>
      <trkpt lat="44.10404" lon="6.7094">
        <ele>2308.6514145088</ele>
        <time>2021-07-10T10:24:10Z</time>
      </trkpt>
      <trkpt lat="44.10404" lon="6.7094">
        <ele>2308.6514345827</ele>
        <time>2021-07-10T10:24:12Z</time>
      </trkpt>
      <trkpt lat="44.10403" lon="6.7094">
        <ele>2308.651467138</ele>
        <time>2021-07-10T10:24:14Z</time>
      </trkpt>
      <trkpt lat="44.10402" lon="6.70938">
        <ele>2308.6515158325</ele>
        <time>2021-07-10T10:24:15Z</time>
      </trkpt>
      <trkpt lat="44.10402" lon="6.70938">
        <ele>2308.6515495922</ele>
        <time>2021-07-10T10:24:16Z</time>
      </trkpt>
      <trkpt lat="44.10401" lon="6.70938">
        <ele>2309.6515563476</ele>
        <time>2021-07-10T10:24:18Z</time>
      </trkpt>
      <trkpt lat="44.104" lon="6.70937">
        <ele>2309.6516211577</ele>
        <time>2021-07-10T10:24:19Z</time>
      </trkpt>
      <trkpt lat="44.10398" lon="6.70937">
        <ele>2309.6516648329</ele>
        <time>2021-07-10T10:24:20Z</time>
      </trkpt>
      <trkpt lat="44.10397" lon="6.70937">
        <ele>2309.6516978297</ele>
        <time>2021-07-10T10:24:21Z</time>
      </trkpt>
      <trkpt lat="44.10397" lon="6.70937">
        <ele>2309.6517258605</ele>
        <time>2021-07-10T10:24:22Z</time>
      </trkpt>
      <trkpt lat="44.10396" lon="6.70936">
        <ele>2309.6517577402</ele>
        <time>2021-07-10T10:24:39Z</time>
      </trkpt>
      <trkpt lat="44.10395" lon="6.70935">
        <ele>2307.6518133783</ele>
        <time>2021-07-10T10:24:40Z</time>
      </trkpt>
      <trkpt lat="44.10394" lon="6.70935">
        <ele>2306.6518339691</ele>
        <time>2021-07-10T10:24:44Z</time>
      </trkpt>
      <trkpt lat="44.10396" lon="6.70933">
        <ele>2306.6518247677</ele>
        <time>2021-07-10T10:24:45Z</time>
      </trkpt>
      <trkpt lat="44.10397" lon="6.70932">
        <ele>2306.6517918775</ele>
        <time>2021-07-10T10:24:47Z</time>
      </trkpt>
      <trkpt lat="44.10398" lon="6.7093">
        <ele>2305.6517788939</ele>
        <time>2021-07-10T10:24:49Z</time>
      </trkpt>
      <trkpt lat="44.10398" lon="6.70929">
        <ele>2305.6518119686</ele>
        <time>2021-07-10T10:24:50Z</time>
      </trkpt>
      <trkpt lat="44.10398" lon="6.70927">
        <ele>2306.6518275587</ele>
        <time>2021-07-10T10:24:53Z</time>
      </trkpt>
      <trkpt lat="44.10397" lon="6.70927">
        <ele>2305.6518676137</ele>
        <time>2021-07-10T10:24:54Z</time>
      </trkpt>
      <trkpt lat="44.10397" lon="6.70927">
        <ele>2305.6518869892</ele>
        <time>2021-07-10T10:25:00Z</time>
      </trkpt>
      <trkpt lat="44.10396" lon="6.70926">
        <ele>2305.6519164168</ele>
        <time>2021-07-10T10:25:02Z</time>
      </trkpt>
      <trkpt lat="44.10396" lon="6.70925">
        <ele>2305.6519356339</ele>
        <time>2021-07-10T10:25:03Z</time>
      </trkpt>
      <trkpt lat="44.10396" lon="6.70924">
        <ele>2306.6519513764</ele>
        <time>2021-07-10T10:25:05Z</time>
      </trkpt>
      <trkpt lat="44.10396" lon="6.70924">
        <ele>2306.6519791214</ele>
        <time>2021-07-10T10:25:07Z</time>
      </trkpt>
      <trkpt lat="44.10394" lon="6.70923">
        <ele>2307.6520294398</ele>
        <time>2021-07-10T10:25:09Z</time>
      </trkpt>
      <trkpt lat="44.10395" lon="6.7092">
        <ele>2307.6520650612</ele>
        <time>2021-07-10T10:25:10Z</time>
      </trkpt>
      <trkpt lat="44.10395" lon="6.7092">
        <ele>2307.6520692257</ele>
        <time>2021-07-10T10:25:11Z</time>
      </trkpt>
      <trkpt lat="44.10395" lon="6.70918">
        <ele>2307.6520870149</ele>
        <time>2021-07-10T10:25:13Z</time>
      </trkpt>
      <trkpt lat="44.10395" lon="6.70916">
        <ele>2307.6521036436</ele>
        <time>2021-07-10T10:25:14Z</time>
      </trkpt>
      <trkpt lat="44.10395" lon="6.70916">
        <ele>2307.6521300571</ele>
        <time>2021-07-10T10:25:15Z</time>
      </trkpt>
      <trkpt lat="44.10395" lon="6.70914">
        <ele>2308.6521672097</ele>
        <time>2021-07-10T10:25:17Z</time>
      </trkpt>
      <trkpt lat="44.10395" lon="6.70912">
        <ele>2308.6522074911</ele>
        <time>2021-07-10T10:25:19Z</time>
      </trkpt>
      <trkpt lat="44.10395" lon="6.7091">
        <ele>2307.6522268353</ele>
        <time>2021-07-10T10:25:20Z</time>
      </trkpt>
      <trkpt lat="44.10395" lon="6.70909">
        <ele>2307.6522278978</ele>
        <time>2021-07-10T10:25:21Z</time>
      </trkpt>
      <trkpt lat="44.10395" lon="6.70908">
        <ele>2307.6522540055</ele>
        <time>2021-07-10T10:25:22Z</time>
      </trkpt>
      <trkpt lat="44.10395" lon="6.70906">
        <ele>2306.6522859261</ele>
        <time>2021-07-10T10:25:23Z</time>
      </trkpt>
      <trkpt lat="44.10395" lon="6.70905">
        <ele>2306.6523014098</ele>
        <time>2021-07-10T10:25:24Z</time>
      </trkpt>
      <trkpt lat="44.10394" lon="6.70904">
        <ele>2305.6523429411</ele>
        <time>2021-07-10T10:25:25Z</time>
      </trkpt>
      <trkpt lat="44.10394" lon="6.70903">
        <ele>2305.6523706012</ele>
        <time>2021-07-10T10:25:26Z</time>
      </trkpt>
      <trkpt lat="44.10394" lon="6.70902">
        <ele>2304.6523950213</ele>
        <time>2021-07-10T10:25:28Z</time>
      </trkpt>
      <trkpt lat="44.10393" lon="6.70901">
        <ele>2304.6524523462</ele>
        <time>2021-07-10T10:25:29Z</time>
      </trkpt>
      <trkpt lat="44.10392" lon="6.70898">
        <ele>2304.6525227303</ele>
        <time>2021-07-10T10:25:31Z</time>
      </trkpt>
      <trkpt lat="44.10391" lon="6.70897">
        <ele>2303.6525611884</ele>
        <time>2021-07-10T10:25:32Z</time>
      </trkpt>
      <trkpt lat="44.10391" lon="6.70896">
        <ele>2303.652597905</ele>
        <time>2021-07-10T10:25:34Z</time>
      </trkpt>
      <trkpt lat="44.1039" lon="6.70894">
        <ele>2302.6526583921</ele>
        <time>2021-07-10T10:25:35Z</time>
      </trkpt>
      <trkpt lat="44.1039" lon="6.70892">
        <ele>2303.6527083944</ele>
        <time>2021-07-10T10:25:36Z</time>
      </trkpt>
      <trkpt lat="44.10389" lon="6.70891">
        <ele>2302.652740908</ele>
        <time>2021-07-10T10:25:37Z</time>
      </trkpt>
      <trkpt lat="44.1039" lon="6.70889">
        <ele>2302.6527536687</ele>
        <time>2021-07-10T10:25:38Z</time>
      </trkpt>
      <trkpt lat="44.1039" lon="6.70888">
        <ele>2302.6527606948</ele>
        <time>2021-07-10T10:25:39Z</time>
      </trkpt>
      <trkpt lat="44.1039" lon="6.70887">
        <ele>2302.6527788121</ele>
        <time>2021-07-10T10:25:40Z</time>
      </trkpt>
      <trkpt lat="44.1039" lon="6.70885">
        <ele>2302.6528040181</ele>
        <time>2021-07-10T10:25:42Z</time>
      </trkpt>
      <trkpt lat="44.10391" lon="6.70883">
        <ele>2302.6528336447</ele>
        <time>2021-07-10T10:25:44Z</time>
      </trkpt>
      <trkpt lat="44.1039" lon="6.7088">
        <ele>2302.6529088771</ele>
        <time>2021-07-10T10:25:45Z</time>
      </trkpt>
      <trkpt lat="44.1039" lon="6.70878">
        <ele>2301.6529406412</ele>
        <time>2021-07-10T10:25:46Z</time>
      </trkpt>
      <trkpt lat="44.1039" lon="6.70876">
        <ele>2301.6529738351</ele>
        <time>2021-07-10T10:25:47Z</time>
      </trkpt>
      <trkpt lat="44.10389" lon="6.70874">
        <ele>2301.6530120612</ele>
        <time>2021-07-10T10:25:48Z</time>
      </trkpt>
      <trkpt lat="44.10389" lon="6.70872">
        <ele>2300.6530575452</ele>
        <time>2021-07-10T10:25:49Z</time>
      </trkpt>
      <trkpt lat="44.10388" lon="6.70871">
        <ele>2299.6531017703</ele>
        <time>2021-07-10T10:25:50Z</time>
      </trkpt>
      <trkpt lat="44.10388" lon="6.70869">
        <ele>2299.6531426327</ele>
        <time>2021-07-10T10:25:52Z</time>
      </trkpt>
      <trkpt lat="44.10388" lon="6.70865">
        <ele>2299.6532194548</ele>
        <time>2021-07-10T10:25:53Z</time>
      </trkpt>
      <trkpt lat="44.10387" lon="6.70862">
        <ele>2298.6532949069</ele>
        <time>2021-07-10T10:25:55Z</time>
      </trkpt>
      <trkpt lat="44.10387" lon="6.7086">
        <ele>2297.6533220712</ele>
        <time>2021-07-10T10:25:56Z</time>
      </trkpt>
      <trkpt lat="44.10387" lon="6.70859">
        <ele>2297.6533505199</ele>
        <time>2021-07-10T10:25:57Z</time>
      </trkpt>
      <trkpt lat="44.10386" lon="6.70855">
        <ele>2297.6534329181</ele>
        <time>2021-07-10T10:25:59Z</time>
      </trkpt>
      <trkpt lat="44.10386" lon="6.70853">
        <ele>2296.6534757126</ele>
        <time>2021-07-10T10:26:00Z</time>
      </trkpt>
      <trkpt lat="44.10386" lon="6.70851">
        <ele>2295.6535140698</ele>
        <time>2021-07-10T10:26:01Z</time>
      </trkpt>
      <trkpt lat="44.10386" lon="6.7085">
        <ele>2295.6535417921</ele>
        <time>2021-07-10T10:26:02Z</time>
      </trkpt>
      <trkpt lat="44.10386" lon="6.70848">
        <ele>2295.6535492476</ele>
        <time>2021-07-10T10:26:03Z</time>
      </trkpt>
      <trkpt lat="44.10386" lon="6.70847">
        <ele>2295.6535751477</ele>
        <time>2021-07-10T10:26:04Z</time>
      </trkpt>
      <trkpt lat="44.10386" lon="6.70845">
        <ele>2294.6535949014</ele>
        <time>2021-07-10T10:26:05Z</time>
      </trkpt>
      <trkpt lat="44.10387" lon="6.70843">
        <ele>2293.6536206398</ele>
        <time>2021-07-10T10:26:07Z</time>
      </trkpt>
      <trkpt lat="44.10386" lon="6.7084">
        <ele>2293.6536844598</ele>
        <time>2021-07-10T10:26:09Z</time>
      </trkpt>
      <trkpt lat="44.10387" lon="6.70836">
        <ele>2293.6537228524</ele>
        <time>2021-07-10T10:26:10Z</time>
      </trkpt>
      <trkpt lat="44.10387" lon="6.70834">
        <ele>2293.6537448439</ele>
        <time>2021-07-10T10:26:11Z</time>
      </trkpt>
      <trkpt lat="44.10387" lon="6.70834">
        <ele>2293.6537501154</ele>
        <time>2021-07-10T10:26:19Z</time>
      </trkpt>
      <trkpt lat="44.10388" lon="6.70833">
        <ele>2294.653757752</ele>
        <time>2021-07-10T10:26:20Z</time>
      </trkpt>
      <trkpt lat="44.10387" lon="6.70831">
        <ele>2293.6537959608</ele>
        <time>2021-07-10T10:26:21Z</time>
      </trkpt>
      <trkpt lat="44.10387" lon="6.7083">
        <ele>2293.6538322056</ele>
        <time>2021-07-10T10:26:23Z</time>
      </trkpt>
      <trkpt lat="44.10387" lon="6.70825">
        <ele>2292.653906602</ele>
        <time>2021-07-10T10:26:24Z</time>
      </trkpt>
      <trkpt lat="44.10387" lon="6.70824">
        <ele>2291.6539228683</ele>
        <time>2021-07-10T10:26:25Z</time>
      </trkpt>
      <trkpt lat="44.10387" lon="6.70822">
        <ele>2291.6539416623</ele>
        <time>2021-07-10T10:26:26Z</time>
      </trkpt>
      <trkpt lat="44.10388" lon="6.70819">
        <ele>2291.6539797895</ele>
        <time>2021-07-10T10:26:29Z</time>
      </trkpt>
      <trkpt lat="44.10387" lon="6.70815">
        <ele>2291.6540628555</ele>
        <time>2021-07-10T10:26:30Z</time>
      </trkpt>
      <trkpt lat="44.10388" lon="6.70813">
        <ele>2292.6540810807</ele>
        <time>2021-07-10T10:26:31Z</time>
      </trkpt>
      <trkpt lat="44.10388" lon="6.70811">
        <ele>2292.6540914952</ele>
        <time>2021-07-10T10:26:33Z</time>
      </trkpt>
      <trkpt lat="44.10389" lon="6.70808">
        <ele>2291.6541201701</ele>
        <time>2021-07-10T10:26:34Z</time>
      </trkpt>
      <trkpt lat="44.10389" lon="6.70807">
        <ele>2290.6541406455</ele>
        <time>2021-07-10T10:26:35Z</time>
      </trkpt>
      <trkpt lat="44.10389" lon="6.70805">
        <ele>2290.6541771616</ele>
        <time>2021-07-10T10:26:37Z</time>
      </trkpt>
      <trkpt lat="44.10389" lon="6.70803">
        <ele>2289.6541976103</ele>
        <time>2021-07-10T10:26:38Z</time>
      </trkpt>
      <trkpt lat="44.10392" lon="6.708">
        <ele>2288.6541589281</ele>
        <time>2021-07-10T10:26:40Z</time>
      </trkpt>
      <trkpt lat="44.10393" lon="6.70798">
        <ele>2288.6541534729</ele>
        <time>2021-07-10T10:26:41Z</time>
      </trkpt>
      <trkpt lat="44.10393" lon="6.70797">
        <ele>2287.6541696386</ele>
        <time>2021-07-10T10:26:43Z</time>
      </trkpt>
      <trkpt lat="44.10394" lon="6.70795">
        <ele>2286.6541731087</ele>
        <time>2021-07-10T10:26:44Z</time>
      </trkpt>
      <trkpt lat="44.10394" lon="6.70793">
        <ele>2286.6542121415</ele>
        <time>2021-07-10T10:26:45Z</time>
      </trkpt>
      <trkpt lat="44.10394" lon="6.70791">
        <ele>2286.6542496388</ele>
        <time>2021-07-10T10:26:47Z</time>
      </trkpt>
      <trkpt lat="44.10395" lon="6.70787">
        <ele>2286.6542733354</ele>
        <time>2021-07-10T10:26:49Z</time>
      </trkpt>
      <trkpt lat="44.10395" lon="6.70783">
        <ele>2286.6543433167</ele>
        <time>2021-07-10T10:26:50Z</time>
      </trkpt>
      <trkpt lat="44.10395" lon="6.70782">
        <ele>2286.6543728672</ele>
        <time>2021-07-10T10:26:51Z</time>
      </trkpt>
      <trkpt lat="44.10395" lon="6.7078">
        <ele>2287.6543943372</ele>
        <time>2021-07-10T10:26:53Z</time>
      </trkpt>
      <trkpt lat="44.10395" lon="6.70777">
        <ele>2287.6544219522</ele>
        <time>2021-07-10T10:26:54Z</time>
      </trkpt>
      <trkpt lat="44.10396" lon="6.70776">
        <ele>2287.6544395251</ele>
        <time>2021-07-10T10:26:55Z</time>
      </trkpt>
      <trkpt lat="44.10396" lon="6.70774">
        <ele>2287.6544667138</ele>
        <time>2021-07-10T10:26:57Z</time>
      </trkpt>
      <trkpt lat="44.10396" lon="6.70771">
        <ele>2287.6545189963</ele>
        <time>2021-07-10T10:26:58Z</time>
      </trkpt>
      <trkpt lat="44.10396" lon="6.70768">
        <ele>2287.6545493949</ele>
        <time>2021-07-10T10:26:59Z</time>
      </trkpt>
      <trkpt lat="44.10396" lon="6.70767">
        <ele>2286.6545775596</ele>
        <time>2021-07-10T10:27:00Z</time>
      </trkpt>
      <trkpt lat="44.10397" lon="6.70765">
        <ele>2286.6545840023</ele>
        <time>2021-07-10T10:27:01Z</time>
      </trkpt>
      <trkpt lat="44.10398" lon="6.70763">
        <ele>2285.6545804207</ele>
        <time>2021-07-10T10:27:03Z</time>
      </trkpt>
      <trkpt lat="44.10399" lon="6.70759">
        <ele>2285.6546157527</ele>
        <time>2021-07-10T10:27:04Z</time>
      </trkpt>
      <trkpt lat="44.10399" lon="6.70758">
        <ele>2285.6546220601</ele>
        <time>2021-07-10T10:27:05Z</time>
      </trkpt>
      <trkpt lat="44.104" lon="6.70757">
        <ele>2285.654624751</ele>
        <time>2021-07-10T10:27:07Z</time>
      </trkpt>
      <trkpt lat="44.10401" lon="6.70754">
        <ele>2284.6546317986</ele>
        <time>2021-07-10T10:27:09Z</time>
      </trkpt>
      <trkpt lat="44.104" lon="6.70751">
        <ele>2284.6546870169</ele>
        <time>2021-07-10T10:27:10Z</time>
      </trkpt>
      <trkpt lat="44.104" lon="6.70749">
        <ele>2284.6547399622</ele>
        <time>2021-07-10T10:27:11Z</time>
      </trkpt>
      <trkpt lat="44.104" lon="6.70747">
        <ele>2284.6547610502</ele>
        <time>2021-07-10T10:27:13Z</time>
      </trkpt>
      <trkpt lat="44.104" lon="6.70744">
        <ele>2285.6548197548</ele>
        <time>2021-07-10T10:27:14Z</time>
      </trkpt>
      <trkpt lat="44.104" lon="6.70743">
        <ele>2285.654839585</ele>
        <time>2021-07-10T10:27:15Z</time>
      </trkpt>
      <trkpt lat="44.10401" lon="6.70741">
        <ele>2285.6548502142</ele>
        <time>2021-07-10T10:27:16Z</time>
      </trkpt>
      <trkpt lat="44.10401" lon="6.7074">
        <ele>2285.6548555719</ele>
        <time>2021-07-10T10:27:17Z</time>
      </trkpt>
      <trkpt lat="44.10401" lon="6.70739">
        <ele>2285.6548701001</ele>
        <time>2021-07-10T10:27:19Z</time>
      </trkpt>
      <trkpt lat="44.10401" lon="6.70736">
        <ele>2284.6549164177</ele>
        <time>2021-07-10T10:27:20Z</time>
      </trkpt>
      <trkpt lat="44.10402" lon="6.70735">
        <ele>2283.654928151</ele>
        <time>2021-07-10T10:27:21Z</time>
      </trkpt>
      <trkpt lat="44.10401" lon="6.70734">
        <ele>2284.6549467006</ele>
        <time>2021-07-10T10:27:23Z</time>
      </trkpt>
      <trkpt lat="44.10401" lon="6.7073">
        <ele>2285.6550090161</ele>
        <time>2021-07-10T10:27:24Z</time>
      </trkpt>
      <trkpt lat="44.10401" lon="6.70729">
        <ele>2285.6550199202</ele>
        <time>2021-07-10T10:27:25Z</time>
      </trkpt>
      <trkpt lat="44.10402" lon="6.70728">
        <ele>2285.6550330676</ele>
        <time>2021-07-10T10:27:27Z</time>
      </trkpt>
      <trkpt lat="44.10402" lon="6.70729">
        <ele>2285.6550048209</ele>
        <time>2021-07-10T10:27:28Z</time>
      </trkpt>
      <trkpt lat="44.10402" lon="6.70729">
        <ele>2285.6550065786</ele>
        <time>2021-07-10T10:27:29Z</time>
      </trkpt>
      <trkpt lat="44.10401" lon="6.70729">
        <ele>2285.6550292702</ele>
        <time>2021-07-10T10:27:33Z</time>
      </trkpt>
      <trkpt lat="44.10401" lon="6.70727">
        <ele>2283.6550593764</ele>
        <time>2021-07-10T10:27:34Z</time>
      </trkpt>
      <trkpt lat="44.10401" lon="6.70727">
        <ele>2282.6550858202</ele>
        <time>2021-07-10T10:27:35Z</time>
      </trkpt>
      <trkpt lat="44.104" lon="6.70726">
        <ele>2283.655121146</ele>
        <time>2021-07-10T10:27:37Z</time>
      </trkpt>
      <trkpt lat="44.104" lon="6.70725">
        <ele>2282.6551321802</ele>
        <time>2021-07-10T10:32:04Z</time>
      </trkpt>
      <trkpt lat="44.104" lon="6.70725">
        <ele>2281.6551352733</ele>
        <time>2021-07-10T10:32:05Z</time>
      </trkpt>
      <trkpt lat="44.10401" lon="6.70725">
        <ele>2281.6551098495</ele>
        <time>2021-07-10T10:32:06Z</time>
      </trkpt>
      <trkpt lat="44.10402" lon="6.70725">
        <ele>2282.6550849623</ele>
        <time>2021-07-10T10:32:10Z</time>
      </trkpt>
      <trkpt lat="44.10403" lon="6.70725">
        <ele>2281.6550555032</ele>
        <time>2021-07-10T10:32:11Z</time>
      </trkpt>
      <trkpt lat="44.10403" lon="6.70724">
        <ele>2281.655056097</ele>
        <time>2021-07-10T10:34:19Z</time>
      </trkpt>
      <trkpt lat="44.10401" lon="6.70724">
        <ele>2281.6551135266</ele>
        <time>2021-07-10T10:34:20Z</time>
      </trkpt>
      <trkpt lat="44.10402" lon="6.70724">
        <ele>2280.6551057415</ele>
        <time>2021-07-10T11:03:45Z</time>
      </trkpt>
      <trkpt lat="44.10388" lon="6.70739">
        <ele>2291.6553061886</ele>
        <time>2021-07-10T11:09:25Z</time>
      </trkpt>
      <trkpt lat="44.10394" lon="6.70731">
        <ele>2281.6552291624</ele>
        <time>2021-07-10T11:09:26Z</time>
      </trkpt>
      <trkpt lat="44.10397" lon="6.7073">
        <ele>2284.6551677952</ele>
        <time>2021-07-10T11:09:27Z</time>
      </trkpt>
      <trkpt lat="44.10399" lon="6.70725">
        <ele>2277.6551570522</ele>
        <time>2021-07-10T11:09:29Z</time>
      </trkpt>
      <trkpt lat="44.10401" lon="6.70722">
        <ele>2285.6551414042</ele>
        <time>2021-07-10T11:09:31Z</time>
      </trkpt>
      <trkpt lat="44.10402" lon="6.70723">
        <ele>2277.6551111942</ele>
        <time>2021-07-10T11:33:58Z</time>
      </trkpt>
      <trkpt lat="44.10402" lon="6.70723">
        <ele>2277.6550960678</ele>
        <time>2021-07-10T11:36:50Z</time>
      </trkpt>
      <trkpt lat="44.10403" lon="6.70722">
        <ele>2276.6550837289</ele>
        <time>2021-07-10T11:39:00Z</time>
      </trkpt>
      <trkpt lat="44.10403" lon="6.70724">
        <ele>2278.6550594558</ele>
        <time>2021-07-10T11:39:01Z</time>
      </trkpt>
      <trkpt lat="44.10404" lon="6.70723">
        <ele>2279.6550503332</ele>
        <time>2021-07-10T11:39:51Z</time>
      </trkpt>
      <trkpt lat="44.10405" lon="6.70723">
        <ele>2279.6550231412</ele>
        <time>2021-07-10T11:39:52Z</time>
      </trkpt>
      <trkpt lat="44.10405" lon="6.70722">
        <ele>2279.6550126054</ele>
        <time>2021-07-10T11:39:53Z</time>
      </trkpt>
      <trkpt lat="44.10405" lon="6.70723">
        <ele>2279.654991852</ele>
        <time>2021-07-10T11:40:43Z</time>
      </trkpt>
      <trkpt lat="44.10407" lon="6.70722">
        <ele>2277.6549601964</ele>
        <time>2021-07-10T11:40:44Z</time>
      </trkpt>
      <trkpt lat="44.10406" lon="6.70722">
        <ele>2277.6549859422</ele>
        <time>2021-07-10T11:41:13Z</time>
      </trkpt>
      <trkpt lat="44.10406" lon="6.7072">
        <ele>2277.6550174628</ele>
        <time>2021-07-10T11:41:14Z</time>
      </trkpt>
      <trkpt lat="44.10407" lon="6.70721">
        <ele>2277.6549881084</ele>
        <time>2021-07-10T11:41:18Z</time>
      </trkpt>
      <trkpt lat="44.10408" lon="6.70722">
        <ele>2277.6549322777</ele>
        <time>2021-07-10T11:41:19Z</time>
      </trkpt>
      <trkpt lat="44.10408" lon="6.70723">
        <ele>2278.6549092742</ele>
        <time>2021-07-10T11:41:20Z</time>
      </trkpt>
      <trkpt lat="44.10408" lon="6.70724">
        <ele>2274.6548996457</ele>
        <time>2021-07-10T11:41:53Z</time>
      </trkpt>
      <trkpt lat="44.10409" lon="6.70721">
        <ele>2274.6549138642</ele>
        <time>2021-07-10T11:41:55Z</time>
      </trkpt>
      <trkpt lat="44.10409" lon="6.70721">
        <ele>2275.6548986098</ele>
        <time>2021-07-10T11:41:56Z</time>
      </trkpt>
      <trkpt lat="44.1041" lon="6.7072">
        <ele>2276.6548904628</ele>
        <time>2021-07-10T11:41:59Z</time>
      </trkpt>
      <trkpt lat="44.1041" lon="6.70721">
        <ele>2277.6548644466</ele>
        <time>2021-07-10T11:42:00Z</time>
      </trkpt>
      <trkpt lat="44.10411" lon="6.70721">
        <ele>2277.6548442768</ele>
        <time>2021-07-10T11:42:02Z</time>
      </trkpt>
      <trkpt lat="44.10412" lon="6.70722">
        <ele>2278.6547811131</ele>
        <time>2021-07-10T11:42:03Z</time>
      </trkpt>
      <trkpt lat="44.10413" lon="6.70722">
        <ele>2279.6547495625</ele>
        <time>2021-07-10T11:42:04Z</time>
      </trkpt>
      <trkpt lat="44.10414" lon="6.70722">
        <ele>2279.6547383214</ele>
        <time>2021-07-10T11:42:06Z</time>
      </trkpt>
      <trkpt lat="44.10414" lon="6.70721">
        <ele>2279.6547288259</ele>
        <time>2021-07-10T11:42:07Z</time>
      </trkpt>
      <trkpt lat="44.10415" lon="6.70721">
        <ele>2280.6546992256</ele>
        <time>2021-07-10T11:42:08Z</time>
      </trkpt>
      <trkpt lat="44.10416" lon="6.70722">
        <ele>2280.6546491484</ele>
        <time>2021-07-10T11:42:09Z</time>
      </trkpt>
      <trkpt lat="44.10417" lon="6.70722">
        <ele>2281.6546068397</ele>
        <time>2021-07-10T11:42:10Z</time>
      </trkpt>
      <trkpt lat="44.10418" lon="6.70723">
        <ele>2281.6545651127</ele>
        <time>2021-07-10T11:42:12Z</time>
      </trkpt>
      <trkpt lat="44.10419" lon="6.70723">
        <ele>2280.6545447053</ele>
        <time>2021-07-10T11:42:13Z</time>
      </trkpt>
      <trkpt lat="44.1042" lon="6.70723">
        <ele>2281.6545012951</ele>
        <time>2021-07-10T11:42:15Z</time>
      </trkpt>
      <trkpt lat="44.10421" lon="6.70723">
        <ele>2280.6544532005</ele>
        <time>2021-07-10T11:42:16Z</time>
      </trkpt>
      <trkpt lat="44.10423" lon="6.70723">
        <ele>2280.6544174811</ele>
        <time>2021-07-10T11:42:17Z</time>
      </trkpt>
      <trkpt lat="44.10424" lon="6.70724">
        <ele>2280.6543756155</ele>
        <time>2021-07-10T11:42:18Z</time>
      </trkpt>
      <trkpt lat="44.10424" lon="6.70724">
        <ele>2280.6543642072</ele>
        <time>2021-07-10T11:42:19Z</time>
      </trkpt>
      <trkpt lat="44.10425" lon="6.70724">
        <ele>2280.6543240295</ele>
        <time>2021-07-10T11:42:20Z</time>
      </trkpt>
      <trkpt lat="44.10426" lon="6.70724">
        <ele>2281.654288449</ele>
        <time>2021-07-10T11:42:21Z</time>
      </trkpt>
      <trkpt lat="44.10427" lon="6.70724">
        <ele>2280.654275716</ele>
        <time>2021-07-10T11:42:23Z</time>
      </trkpt>
      <trkpt lat="44.10427" lon="6.70723">
        <ele>2280.6542710236</ele>
        <time>2021-07-10T11:42:25Z</time>
      </trkpt>
      <trkpt lat="44.10428" lon="6.70723">
        <ele>2280.6542296374</ele>
        <time>2021-07-10T11:42:26Z</time>
      </trkpt>
      <trkpt lat="44.10429" lon="6.70723">
        <ele>2280.6542019654</ele>
        <time>2021-07-10T11:42:27Z</time>
      </trkpt>
      <trkpt lat="44.1043" lon="6.70723">
        <ele>2279.6541616512</ele>
        <time>2021-07-10T11:42:29Z</time>
      </trkpt>
      <trkpt lat="44.10432" lon="6.70723">
        <ele>2279.6540969692</ele>
        <time>2021-07-10T11:42:30Z</time>
      </trkpt>
      <trkpt lat="44.10433" lon="6.70722">
        <ele>2279.6540861939</ele>
        <time>2021-07-10T11:42:31Z</time>
      </trkpt>
      <trkpt lat="44.10434" lon="6.70722">
        <ele>2279.6540532502</ele>
        <time>2021-07-10T11:42:32Z</time>
      </trkpt>
      <trkpt lat="44.10435" lon="6.70722">
        <ele>2279.654031199</ele>
        <time>2021-07-10T11:42:33Z</time>
      </trkpt>
      <trkpt lat="44.10436" lon="6.70722">
        <ele>2279.6540166671</ele>
        <time>2021-07-10T11:42:34Z</time>
      </trkpt>
      <trkpt lat="44.10437" lon="6.70721">
        <ele>2279.653993544</ele>
        <time>2021-07-10T11:42:35Z</time>
      </trkpt>
      <trkpt lat="44.10437" lon="6.70721">
        <ele>2278.6539635177</ele>
        <time>2021-07-10T11:42:36Z</time>
      </trkpt>
      <trkpt lat="44.10438" lon="6.70721">
        <ele>2279.6539390332</ele>
        <time>2021-07-10T11:42:37Z</time>
      </trkpt>
      <trkpt lat="44.10439" lon="6.70721">
        <ele>2279.6539168291</ele>
        <time>2021-07-10T11:42:38Z</time>
      </trkpt>
      <trkpt lat="44.1044" lon="6.70721">
        <ele>2279.6538971413</ele>
        <time>2021-07-10T11:42:39Z</time>
      </trkpt>
      <trkpt lat="44.10441" lon="6.7072">
        <ele>2280.6538712182</ele>
        <time>2021-07-10T11:42:40Z</time>
      </trkpt>
      <trkpt lat="44.10441" lon="6.70721">
        <ele>2280.6538372701</ele>
        <time>2021-07-10T11:42:41Z</time>
      </trkpt>
      <trkpt lat="44.10442" lon="6.70721">
        <ele>2281.6538093076</ele>
        <time>2021-07-10T11:42:42Z</time>
      </trkpt>
      <trkpt lat="44.10443" lon="6.70722">
        <ele>2281.6537623726</ele>
        <time>2021-07-10T11:42:43Z</time>
      </trkpt>
      <trkpt lat="44.10444" lon="6.70722">
        <ele>2281.6537306799</ele>
        <time>2021-07-10T11:42:44Z</time>
      </trkpt>
      <trkpt lat="44.10445" lon="6.70721">
        <ele>2281.6537163146</ele>
        <time>2021-07-10T11:42:46Z</time>
      </trkpt>
      <trkpt lat="44.10445" lon="6.70721">
        <ele>2280.6536969966</ele>
        <time>2021-07-10T11:42:47Z</time>
      </trkpt>
      <trkpt lat="44.10446" lon="6.70721">
        <ele>2280.653670327</ele>
        <time>2021-07-10T11:42:48Z</time>
      </trkpt>
      <trkpt lat="44.10447" lon="6.7072">
        <ele>2280.6536540569</ele>
        <time>2021-07-10T11:42:49Z</time>
      </trkpt>
      <trkpt lat="44.10448" lon="6.70719">
        <ele>2279.6536358207</ele>
        <time>2021-07-10T11:42:50Z</time>
      </trkpt>
      <trkpt lat="44.10449" lon="6.70719">
        <ele>2279.6536031807</ele>
        <time>2021-07-10T11:42:51Z</time>
      </trkpt>
      <trkpt lat="44.1045" lon="6.7072">
        <ele>2279.6535669985</ele>
        <time>2021-07-10T11:42:52Z</time>
      </trkpt>
      <trkpt lat="44.10451" lon="6.7072">
        <ele>2279.653528363</ele>
        <time>2021-07-10T11:42:53Z</time>
      </trkpt>
      <trkpt lat="44.10452" lon="6.70721">
        <ele>2279.6534817151</ele>
        <time>2021-07-10T11:42:54Z</time>
      </trkpt>
      <trkpt lat="44.10453" lon="6.70721">
        <ele>2279.6534445802</ele>
        <time>2021-07-10T11:42:55Z</time>
      </trkpt>
      <trkpt lat="44.10454" lon="6.70721">
        <ele>2279.6534172347</ele>
        <time>2021-07-10T11:42:56Z</time>
      </trkpt>
      <trkpt lat="44.10455" lon="6.7072">
        <ele>2279.6533853415</ele>
        <time>2021-07-10T11:42:57Z</time>
      </trkpt>
      <trkpt lat="44.10456" lon="6.7072">
        <ele>2279.6533507804</ele>
        <time>2021-07-10T11:42:58Z</time>
      </trkpt>
      <trkpt lat="44.10457" lon="6.7072">
        <ele>2279.6533256534</ele>
        <time>2021-07-10T11:42:59Z</time>
      </trkpt>
      <trkpt lat="44.10459" lon="6.70719">
        <ele>2279.6532844579</ele>
        <time>2021-07-10T11:43:00Z</time>
      </trkpt>
      <trkpt lat="44.1046" lon="6.70719">
        <ele>2279.6532468968</ele>
        <time>2021-07-10T11:43:01Z</time>
      </trkpt>
      <trkpt lat="44.10461" lon="6.70718">
        <ele>2279.653223114</ele>
        <time>2021-07-10T11:43:02Z</time>
      </trkpt>
      <trkpt lat="44.10462" lon="6.70717">
        <ele>2279.6532145771</ele>
        <time>2021-07-10T11:43:03Z</time>
      </trkpt>
      <trkpt lat="44.10463" lon="6.70716">
        <ele>2278.6531948904</ele>
        <time>2021-07-10T11:43:04Z</time>
      </trkpt>
      <trkpt lat="44.10464" lon="6.70715">
        <ele>2278.6531817174</ele>
        <time>2021-07-10T11:43:05Z</time>
      </trkpt>
      <trkpt lat="44.10465" lon="6.70714">
        <ele>2278.6531645927</ele>
        <time>2021-07-10T11:43:06Z</time>
      </trkpt>
      <trkpt lat="44.10465" lon="6.70714">
        <ele>2278.6531592438</ele>
        <time>2021-07-10T11:43:07Z</time>
      </trkpt>
      <trkpt lat="44.10466" lon="6.70714">
        <ele>2279.6531194767</ele>
        <time>2021-07-10T11:43:08Z</time>
      </trkpt>
      <trkpt lat="44.10467" lon="6.70714">
        <ele>2278.6530862872</ele>
        <time>2021-07-10T11:43:09Z</time>
      </trkpt>
      <trkpt lat="44.10468" lon="6.70714">
        <ele>2278.6530691398</ele>
        <time>2021-07-10T11:43:10Z</time>
      </trkpt>
      <trkpt lat="44.10469" lon="6.70714">
        <ele>2278.6530439756</ele>
        <time>2021-07-10T11:43:11Z</time>
      </trkpt>
      <trkpt lat="44.1047" lon="6.70714">
        <ele>2279.6530254149</ele>
        <time>2021-07-10T11:43:12Z</time>
      </trkpt>
      <trkpt lat="44.1047" lon="6.70714">
        <ele>2280.6529916238</ele>
        <time>2021-07-10T11:43:13Z</time>
      </trkpt>
      <trkpt lat="44.10471" lon="6.70714">
        <ele>2280.6529652612</ele>
        <time>2021-07-10T11:43:14Z</time>
      </trkpt>
      <trkpt lat="44.10472" lon="6.70714">
        <ele>2280.6529355361</ele>
        <time>2021-07-10T11:43:15Z</time>
      </trkpt>
      <trkpt lat="44.10473" lon="6.70714">
        <ele>2280.6529130444</ele>
        <time>2021-07-10T11:43:16Z</time>
      </trkpt>
      <trkpt lat="44.10474" lon="6.70714">
        <ele>2281.6528889937</ele>
        <time>2021-07-10T11:43:18Z</time>
      </trkpt>
      <trkpt lat="44.10475" lon="6.70713">
        <ele>2281.6528605769</ele>
        <time>2021-07-10T11:43:19Z</time>
      </trkpt>
      <trkpt lat="44.10476" lon="6.70713">
        <ele>2280.6528322984</ele>
        <time>2021-07-10T11:43:20Z</time>
      </trkpt>
      <trkpt lat="44.10476" lon="6.70713">
        <ele>2280.6528130005</ele>
        <time>2021-07-10T11:43:21Z</time>
      </trkpt>
      <trkpt lat="44.10477" lon="6.70713">
        <ele>2280.652797787</ele>
        <time>2021-07-10T11:43:22Z</time>
      </trkpt>
      <trkpt lat="44.10478" lon="6.70712">
        <ele>2280.6527660678</ele>
        <time>2021-07-10T11:43:23Z</time>
      </trkpt>
      <trkpt lat="44.10479" lon="6.70711">
        <ele>2279.6527411359</ele>
        <time>2021-07-10T11:43:24Z</time>
      </trkpt>
      <trkpt lat="44.1048" lon="6.70711">
        <ele>2279.6527204059</ele>
        <time>2021-07-10T11:43:25Z</time>
      </trkpt>
      <trkpt lat="44.10481" lon="6.70711">
        <ele>2279.6526979181</ele>
        <time>2021-07-10T11:43:26Z</time>
      </trkpt>
      <trkpt lat="44.10481" lon="6.70711">
        <ele>2279.6526731239</ele>
        <time>2021-07-10T11:43:28Z</time>
      </trkpt>
      <trkpt lat="44.10482" lon="6.70711">
        <ele>2278.6526578304</ele>
        <time>2021-07-10T11:43:29Z</time>
      </trkpt>
      <trkpt lat="44.10483" lon="6.70711">
        <ele>2278.6526263289</ele>
        <time>2021-07-10T11:43:30Z</time>
      </trkpt>
      <trkpt lat="44.10484" lon="6.7071">
        <ele>2278.6526125407</ele>
        <time>2021-07-10T11:43:31Z</time>
      </trkpt>
      <trkpt lat="44.10484" lon="6.7071">
        <ele>2278.6525877273</ele>
        <time>2021-07-10T11:43:32Z</time>
      </trkpt>
      <trkpt lat="44.10484" lon="6.7071">
        <ele>2279.6525901505</ele>
        <time>2021-07-10T11:43:33Z</time>
      </trkpt>
      <trkpt lat="44.10485" lon="6.7071">
        <ele>2280.6525640917</ele>
        <time>2021-07-10T11:43:34Z</time>
      </trkpt>
      <trkpt lat="44.10486" lon="6.7071">
        <ele>2280.652524454</ele>
        <time>2021-07-10T11:43:35Z</time>
      </trkpt>
      <trkpt lat="44.10487" lon="6.7071">
        <ele>2280.652502117</ele>
        <time>2021-07-10T11:43:36Z</time>
      </trkpt>
      <trkpt lat="44.10488" lon="6.7071">
        <ele>2280.6524625032</ele>
        <time>2021-07-10T11:43:37Z</time>
      </trkpt>
      <trkpt lat="44.10489" lon="6.70711">
        <ele>2280.6524380627</ele>
        <time>2021-07-10T11:43:38Z</time>
      </trkpt>
      <trkpt lat="44.10489" lon="6.70711">
        <ele>2280.6524117416</ele>
        <time>2021-07-10T11:43:39Z</time>
      </trkpt>
      <trkpt lat="44.1049" lon="6.7071">
        <ele>2279.6524063304</ele>
        <time>2021-07-10T11:43:40Z</time>
      </trkpt>
      <trkpt lat="44.1049" lon="6.7071">
        <ele>2280.6524109317</ele>
        <time>2021-07-10T11:43:41Z</time>
      </trkpt>
      <trkpt lat="44.10491" lon="6.70709">
        <ele>2279.6523933665</ele>
        <time>2021-07-10T11:43:42Z</time>
      </trkpt>
      <trkpt lat="44.10492" lon="6.70708">
        <ele>2279.6523639775</ele>
        <time>2021-07-10T11:43:43Z</time>
      </trkpt>
      <trkpt lat="44.10493" lon="6.70709">
        <ele>2279.6523322651</ele>
        <time>2021-07-10T11:43:44Z</time>
      </trkpt>
      <trkpt lat="44.10494" lon="6.70709">
        <ele>2279.6523102252</ele>
        <time>2021-07-10T11:43:45Z</time>
      </trkpt>
      <trkpt lat="44.10494" lon="6.70709">
        <ele>2280.6522857387</ele>
        <time>2021-07-10T11:43:46Z</time>
      </trkpt>
      <trkpt lat="44.10495" lon="6.70709">
        <ele>2279.6522621019</ele>
        <time>2021-07-10T11:43:47Z</time>
      </trkpt>
      <trkpt lat="44.10496" lon="6.70709">
        <ele>2279.6522369581</ele>
        <time>2021-07-10T11:43:48Z</time>
      </trkpt>
      <trkpt lat="44.10496" lon="6.70709">
        <ele>2280.6522074809</ele>
        <time>2021-07-10T11:43:49Z</time>
      </trkpt>
      <trkpt lat="44.10497" lon="6.70709">
        <ele>2280.6521868984</ele>
        <time>2021-07-10T11:43:51Z</time>
      </trkpt>
      <trkpt lat="44.10497" lon="6.7071">
        <ele>2280.652170021</ele>
        <time>2021-07-10T11:43:53Z</time>
      </trkpt>
      <trkpt lat="44.10498" lon="6.7071">
        <ele>2280.6521254695</ele>
        <time>2021-07-10T11:43:54Z</time>
      </trkpt>
      <trkpt lat="44.10499" lon="6.7071">
        <ele>2281.6521029724</ele>
        <time>2021-07-10T11:43:55Z</time>
      </trkpt>
      <trkpt lat="44.105" lon="6.70711">
        <ele>2281.6520786789</ele>
        <time>2021-07-10T11:43:56Z</time>
      </trkpt>
      <trkpt lat="44.105" lon="6.70711">
        <ele>2281.6520523771</ele>
        <time>2021-07-10T11:43:58Z</time>
      </trkpt>
      <trkpt lat="44.10501" lon="6.70711">
        <ele>2281.6520168483</ele>
        <time>2021-07-10T11:43:59Z</time>
      </trkpt>
      <trkpt lat="44.10502" lon="6.70712">
        <ele>2281.6519986081</ele>
        <time>2021-07-10T11:44:00Z</time>
      </trkpt>
      <trkpt lat="44.10502" lon="6.70712">
        <ele>2281.6519763615</ele>
        <time>2021-07-10T11:44:17Z</time>
      </trkpt>
      <trkpt lat="44.10502" lon="6.70711">
        <ele>2280.6519880033</ele>
        <time>2021-07-10T11:44:20Z</time>
      </trkpt>
      <trkpt lat="44.10502" lon="6.7071">
        <ele>2281.6520051931</ele>
        <time>2021-07-10T11:44:32Z</time>
      </trkpt>
      <trkpt lat="44.10503" lon="6.7071">
        <ele>2280.6519561375</ele>
        <time>2021-07-10T11:44:33Z</time>
      </trkpt>
      <trkpt lat="44.10504" lon="6.7071">
        <ele>2281.6519369192</ele>
        <time>2021-07-10T11:44:35Z</time>
      </trkpt>
      <trkpt lat="44.10505" lon="6.70711">
        <ele>2281.6519078524</ele>
        <time>2021-07-10T11:44:36Z</time>
      </trkpt>
      <trkpt lat="44.10506" lon="6.70711">
        <ele>2281.6518740211</ele>
        <time>2021-07-10T11:44:37Z</time>
      </trkpt>
      <trkpt lat="44.10506" lon="6.70711">
        <ele>2281.6518427332</ele>
        <time>2021-07-10T11:44:38Z</time>
      </trkpt>
      <trkpt lat="44.10507" lon="6.70712">
        <ele>2281.6518083406</ele>
        <time>2021-07-10T11:44:39Z</time>
      </trkpt>
      <trkpt lat="44.10508" lon="6.70712">
        <ele>2282.6517857338</ele>
        <time>2021-07-10T11:44:40Z</time>
      </trkpt>
      <trkpt lat="44.10509" lon="6.70712">
        <ele>2282.6517517867</ele>
        <time>2021-07-10T11:44:41Z</time>
      </trkpt>
      <trkpt lat="44.10509" lon="6.70713">
        <ele>2282.6517176466</ele>
        <time>2021-07-10T11:44:42Z</time>
      </trkpt>
      <trkpt lat="44.1051" lon="6.70713">
        <ele>2281.6516931753</ele>
        <time>2021-07-10T11:44:43Z</time>
      </trkpt>
      <trkpt lat="44.10511" lon="6.70712">
        <ele>2281.6516851152</ele>
        <time>2021-07-10T11:44:44Z</time>
      </trkpt>
      <trkpt lat="44.10511" lon="6.70712">
        <ele>2281.6516661997</ele>
        <time>2021-07-10T11:44:45Z</time>
      </trkpt>
      <trkpt lat="44.10512" lon="6.70713">
        <ele>2282.6516405423</ele>
        <time>2021-07-10T11:44:46Z</time>
      </trkpt>
      <trkpt lat="44.10512" lon="6.70713">
        <ele>2282.6516168089</ele>
        <time>2021-07-10T11:44:47Z</time>
      </trkpt>
      <trkpt lat="44.10513" lon="6.70713">
        <ele>2282.6515933766</ele>
        <time>2021-07-10T11:44:48Z</time>
      </trkpt>
      <trkpt lat="44.10514" lon="6.70713">
        <ele>2282.6515606032</ele>
        <time>2021-07-10T11:44:49Z</time>
      </trkpt>
      <trkpt lat="44.10514" lon="6.70712">
        <ele>2282.6515637945</ele>
        <time>2021-07-10T11:44:50Z</time>
      </trkpt>
      <trkpt lat="44.10515" lon="6.70711">
        <ele>2283.6515642745</ele>
        <time>2021-07-10T11:44:52Z</time>
      </trkpt>
      <trkpt lat="44.10516" lon="6.70711">
        <ele>2283.6515471629</ele>
        <time>2021-07-10T11:44:53Z</time>
      </trkpt>
      <trkpt lat="44.10516" lon="6.70711">
        <ele>2284.6515289766</ele>
        <time>2021-07-10T11:44:54Z</time>
      </trkpt>
      <trkpt lat="44.10517" lon="6.70711">
        <ele>2285.6515061814</ele>
        <time>2021-07-10T11:44:55Z</time>
      </trkpt>
      <trkpt lat="44.10517" lon="6.70711">
        <ele>2285.6514942727</ele>
        <time>2021-07-10T11:44:56Z</time>
      </trkpt>
      <trkpt lat="44.10518" lon="6.7071">
        <ele>2285.6514891129</ele>
        <time>2021-07-10T11:44:57Z</time>
      </trkpt>
      <trkpt lat="44.10518" lon="6.7071">
        <ele>2285.651481723</ele>
        <time>2021-07-10T11:45:05Z</time>
      </trkpt>
      <trkpt lat="44.1052" lon="6.7071">
        <ele>2286.6514225092</ele>
        <time>2021-07-10T11:45:06Z</time>
      </trkpt>
      <trkpt lat="44.10521" lon="6.7071">
        <ele>2286.6513871272</ele>
        <time>2021-07-10T11:45:07Z</time>
      </trkpt>
      <trkpt lat="44.10521" lon="6.70711">
        <ele>2286.6513609188</ele>
        <time>2021-07-10T11:45:09Z</time>
      </trkpt>
      <trkpt lat="44.10523" lon="6.70711">
        <ele>2287.6512885434</ele>
        <time>2021-07-10T11:45:10Z</time>
      </trkpt>
      <trkpt lat="44.10523" lon="6.70712">
        <ele>2288.6512697046</ele>
        <time>2021-07-10T11:45:11Z</time>
      </trkpt>
      <trkpt lat="44.10524" lon="6.70712">
        <ele>2288.6512464053</ele>
        <time>2021-07-10T11:45:12Z</time>
      </trkpt>
      <trkpt lat="44.10525" lon="6.70712">
        <ele>2289.6512306673</ele>
        <time>2021-07-10T11:45:13Z</time>
      </trkpt>
      <trkpt lat="44.10524" lon="6.70713">
        <ele>2288.6512197653</ele>
        <time>2021-07-10T11:45:22Z</time>
      </trkpt>
      <trkpt lat="44.10525" lon="6.70713">
        <ele>2290.6512000758</ele>
        <time>2021-07-10T11:45:23Z</time>
      </trkpt>
      <trkpt lat="44.10526" lon="6.70713">
        <ele>2290.6511757404</ele>
        <time>2021-07-10T11:45:24Z</time>
      </trkpt>
      <trkpt lat="44.10526" lon="6.70713">
        <ele>2290.6511458355</ele>
        <time>2021-07-10T11:45:26Z</time>
      </trkpt>
      <trkpt lat="44.10527" lon="6.70713">
        <ele>2291.6511271736</ele>
        <time>2021-07-10T11:45:27Z</time>
      </trkpt>
      <trkpt lat="44.10527" lon="6.70713">
        <ele>2291.6511128607</ele>
        <time>2021-07-10T11:45:29Z</time>
      </trkpt>
      <trkpt lat="44.10528" lon="6.70714">
        <ele>2291.6510681859</ele>
        <time>2021-07-10T11:45:30Z</time>
      </trkpt>
      <trkpt lat="44.10528" lon="6.70714">
        <ele>2291.6510681859</ele>
        <time>2021-07-10T11:45:32Z</time>
      </trkpt>
      <trkpt lat="44.1053" lon="6.70715">
        <ele>2292.6510151067</ele>
        <time>2021-07-10T11:45:33Z</time>
      </trkpt>
      <trkpt lat="44.1053" lon="6.70715">
        <ele>2292.6510125834</ele>
        <time>2021-07-10T11:45:35Z</time>
      </trkpt>
      <trkpt lat="44.10531" lon="6.70716">
        <ele>2292.6509515384</ele>
        <time>2021-07-10T11:45:36Z</time>
      </trkpt>
      <trkpt lat="44.10532" lon="6.70716">
        <ele>2292.6509181087</ele>
        <time>2021-07-10T11:45:37Z</time>
      </trkpt>
      <trkpt lat="44.10532" lon="6.70717">
        <ele>2292.6508922603</ele>
        <time>2021-07-10T11:45:38Z</time>
      </trkpt>
      <trkpt lat="44.10533" lon="6.70717">
        <ele>2292.6508770856</ele>
        <time>2021-07-10T11:45:39Z</time>
      </trkpt>
      <trkpt lat="44.10533" lon="6.70718">
        <ele>2292.6508479986</ele>
        <time>2021-07-10T11:45:40Z</time>
      </trkpt>
      <trkpt lat="44.10534" lon="6.7072">
        <ele>2292.6507767961</ele>
        <time>2021-07-10T11:45:42Z</time>
      </trkpt>
      <trkpt lat="44.10534" lon="6.70721">
        <ele>2292.6507528241</ele>
        <time>2021-07-10T11:45:43Z</time>
      </trkpt>
      <trkpt lat="44.10534" lon="6.70722">
        <ele>2292.6507294911</ele>
        <time>2021-07-10T11:45:44Z</time>
      </trkpt>
      <trkpt lat="44.10534" lon="6.70723">
        <ele>2292.650713029</ele>
        <time>2021-07-10T11:45:45Z</time>
      </trkpt>
      <trkpt lat="44.10534" lon="6.70724">
        <ele>2292.6507001728</ele>
        <time>2021-07-10T11:45:46Z</time>
      </trkpt>
      <trkpt lat="44.10535" lon="6.70725">
        <ele>2292.6506770259</ele>
        <time>2021-07-10T11:45:47Z</time>
      </trkpt>
      <trkpt lat="44.10535" lon="6.70725">
        <ele>2292.6506631198</ele>
        <time>2021-07-10T11:45:48Z</time>
      </trkpt>
      <trkpt lat="44.10535" lon="6.70726">
        <ele>2292.6506364535</ele>
        <time>2021-07-10T11:45:49Z</time>
      </trkpt>
      <trkpt lat="44.10536" lon="6.70727">
        <ele>2292.6506004556</ele>
        <time>2021-07-10T11:45:50Z</time>
      </trkpt>
      <trkpt lat="44.10536" lon="6.70728">
        <ele>2292.65056428</ele>
        <time>2021-07-10T11:45:51Z</time>
      </trkpt>
      <trkpt lat="44.10537" lon="6.70729">
        <ele>2292.6505394122</ele>
        <time>2021-07-10T11:45:52Z</time>
      </trkpt>
      <trkpt lat="44.10537" lon="6.70731">
        <ele>2293.6505048141</ele>
        <time>2021-07-10T11:45:53Z</time>
      </trkpt>
      <trkpt lat="44.10537" lon="6.70731">
        <ele>2293.6504796585</ele>
        <time>2021-07-10T11:45:55Z</time>
      </trkpt>
      <trkpt lat="44.10538" lon="6.70732">
        <ele>2293.6504414648</ele>
        <time>2021-07-10T11:45:56Z</time>
      </trkpt>
      <trkpt lat="44.10539" lon="6.70732">
        <ele>2293.6504078087</ele>
        <time>2021-07-10T11:45:57Z</time>
      </trkpt>
      <trkpt lat="44.1054" lon="6.70733">
        <ele>2294.6503702796</ele>
        <time>2021-07-10T11:45:58Z</time>
      </trkpt>
      <trkpt lat="44.10541" lon="6.70733">
        <ele>2295.6503391257</ele>
        <time>2021-07-10T11:45:59Z</time>
      </trkpt>
      <trkpt lat="44.10541" lon="6.70734">
        <ele>2294.6503122665</ele>
        <time>2021-07-10T11:46:00Z</time>
      </trkpt>
      <trkpt lat="44.10542" lon="6.70734">
        <ele>2295.6502799489</ele>
        <time>2021-07-10T11:46:01Z</time>
      </trkpt>
      <trkpt lat="44.10542" lon="6.70735">
        <ele>2295.6502530876</ele>
        <time>2021-07-10T11:46:02Z</time>
      </trkpt>
      <trkpt lat="44.10542" lon="6.70736">
        <ele>2296.6502254959</ele>
        <time>2021-07-10T11:46:03Z</time>
      </trkpt>
      <trkpt lat="44.10543" lon="6.70736">
        <ele>2296.650198177</ele>
        <time>2021-07-10T11:46:05Z</time>
      </trkpt>
      <trkpt lat="44.10544" lon="6.70737">
        <ele>2296.6501556682</ele>
        <time>2021-07-10T11:46:06Z</time>
      </trkpt>
      <trkpt lat="44.10545" lon="6.70738">
        <ele>2296.650128001</ele>
        <time>2021-07-10T11:46:07Z</time>
      </trkpt>
      <trkpt lat="44.10545" lon="6.70738">
        <ele>2296.6501061737</ele>
        <time>2021-07-10T11:46:08Z</time>
      </trkpt>
      <trkpt lat="44.10546" lon="6.70738">
        <ele>2296.6500843773</ele>
        <time>2021-07-10T11:46:09Z</time>
      </trkpt>
      <trkpt lat="44.10546" lon="6.70737">
        <ele>2295.650071217</ele>
        <time>2021-07-10T11:46:11Z</time>
      </trkpt>
      <trkpt lat="44.10547" lon="6.70738">
        <ele>2296.6500317325</ele>
        <time>2021-07-10T11:46:12Z</time>
      </trkpt>
      <trkpt lat="44.10548" lon="6.70739">
        <ele>2295.6499992334</ele>
        <time>2021-07-10T11:46:13Z</time>
      </trkpt>
      <trkpt lat="44.10548" lon="6.70739">
        <ele>2296.6499870293</ele>
        <time>2021-07-10T11:46:14Z</time>
      </trkpt>
      <trkpt lat="44.10548" lon="6.7074">
        <ele>2296.6499673347</ele>
        <time>2021-07-10T11:46:15Z</time>
      </trkpt>
      <trkpt lat="44.10549" lon="6.7074">
        <ele>2295.6499372063</ele>
        <time>2021-07-10T11:46:16Z</time>
      </trkpt>
      <trkpt lat="44.1055" lon="6.70741">
        <ele>2295.6498973028</ele>
        <time>2021-07-10T11:46:17Z</time>
      </trkpt>
      <trkpt lat="44.10551" lon="6.70742">
        <ele>2296.6498520499</ele>
        <time>2021-07-10T11:46:18Z</time>
      </trkpt>
      <trkpt lat="44.10552" lon="6.70743">
        <ele>2296.649812027</ele>
        <time>2021-07-10T11:46:19Z</time>
      </trkpt>
      <trkpt lat="44.10552" lon="6.70743">
        <ele>2295.6497817895</ele>
        <time>2021-07-10T11:46:20Z</time>
      </trkpt>
      <trkpt lat="44.10553" lon="6.70743">
        <ele>2295.6497703983</ele>
        <time>2021-07-10T11:46:21Z</time>
      </trkpt>
      <trkpt lat="44.10553" lon="6.70744">
        <ele>2295.6497457936</ele>
        <time>2021-07-10T11:46:22Z</time>
      </trkpt>
      <trkpt lat="44.10554" lon="6.70744">
        <ele>2295.6497247047</ele>
        <time>2021-07-10T11:46:23Z</time>
      </trkpt>
      <trkpt lat="44.10554" lon="6.70745">
        <ele>2295.6496970116</ele>
        <time>2021-07-10T11:46:25Z</time>
      </trkpt>
      <trkpt lat="44.10555" lon="6.70746">
        <ele>2295.6496289167</ele>
        <time>2021-07-10T11:46:26Z</time>
      </trkpt>
      <trkpt lat="44.10556" lon="6.70747">
        <ele>2295.6496027137</ele>
        <time>2021-07-10T11:46:27Z</time>
      </trkpt>
      <trkpt lat="44.10556" lon="6.70749">
        <ele>2295.6495710352</ele>
        <time>2021-07-10T11:46:28Z</time>
      </trkpt>
      <trkpt lat="44.10556" lon="6.7075">
        <ele>2296.6495343683</ele>
        <time>2021-07-10T11:46:29Z</time>
      </trkpt>
      <trkpt lat="44.10557" lon="6.70751">
        <ele>2296.6495046563</ele>
        <time>2021-07-10T11:46:31Z</time>
      </trkpt>
      <trkpt lat="44.10558" lon="6.70751">
        <ele>2296.6494678222</ele>
        <time>2021-07-10T11:46:32Z</time>
      </trkpt>
      <trkpt lat="44.10558" lon="6.70751">
        <ele>2297.6494393212</ele>
        <time>2021-07-10T11:46:33Z</time>
      </trkpt>
      <trkpt lat="44.10559" lon="6.70752">
        <ele>2297.6494105386</ele>
        <time>2021-07-10T11:46:34Z</time>
      </trkpt>
      <trkpt lat="44.1056" lon="6.70753">
        <ele>2297.6493697349</ele>
        <time>2021-07-10T11:46:35Z</time>
      </trkpt>
      <trkpt lat="44.10561" lon="6.70753">
        <ele>2297.6493411927</ele>
        <time>2021-07-10T11:46:36Z</time>
      </trkpt>
      <trkpt lat="44.10561" lon="6.70753">
        <ele>2298.649308779</ele>
        <time>2021-07-10T11:46:37Z</time>
      </trkpt>
      <trkpt lat="44.10562" lon="6.70754">
        <ele>2297.649265077</ele>
        <time>2021-07-10T11:46:38Z</time>
      </trkpt>
      <trkpt lat="44.10563" lon="6.70755">
        <ele>2297.6492297901</ele>
        <time>2021-07-10T11:46:39Z</time>
      </trkpt>
      <trkpt lat="44.10563" lon="6.70756">
        <ele>2297.6492007917</ele>
        <time>2021-07-10T11:46:41Z</time>
      </trkpt>
      <trkpt lat="44.10564" lon="6.70757">
        <ele>2297.6491485978</ele>
        <time>2021-07-10T11:46:42Z</time>
      </trkpt>
      <trkpt lat="44.10565" lon="6.70757">
        <ele>2297.6491206256</ele>
        <time>2021-07-10T11:46:43Z</time>
      </trkpt>
      <trkpt lat="44.10566" lon="6.70757">
        <ele>2297.6490953107</ele>
        <time>2021-07-10T11:46:44Z</time>
      </trkpt>
      <trkpt lat="44.10567" lon="6.70758">
        <ele>2298.649061076</ele>
        <time>2021-07-10T11:46:45Z</time>
      </trkpt>
      <trkpt lat="44.10567" lon="6.70758">
        <ele>2298.6490355993</ele>
        <time>2021-07-10T11:46:46Z</time>
      </trkpt>
      <trkpt lat="44.10568" lon="6.70759">
        <ele>2298.6490047464</ele>
        <time>2021-07-10T11:46:48Z</time>
      </trkpt>
      <trkpt lat="44.10568" lon="6.7076">
        <ele>2298.6489728645</ele>
        <time>2021-07-10T11:46:49Z</time>
      </trkpt>
      <trkpt lat="44.10569" lon="6.70761">
        <ele>2299.6489393642</ele>
        <time>2021-07-10T11:46:50Z</time>
      </trkpt>
      <trkpt lat="44.10569" lon="6.70761">
        <ele>2299.6489163918</ele>
        <time>2021-07-10T11:46:51Z</time>
      </trkpt>
      <trkpt lat="44.1057" lon="6.70762">
        <ele>2299.6488936465</ele>
        <time>2021-07-10T11:46:52Z</time>
      </trkpt>
      <trkpt lat="44.1057" lon="6.70763">
        <ele>2300.6488468603</ele>
        <time>2021-07-10T11:46:53Z</time>
      </trkpt>
      <trkpt lat="44.10571" lon="6.70764">
        <ele>2299.6488068961</ele>
        <time>2021-07-10T11:46:54Z</time>
      </trkpt>
      <trkpt lat="44.10572" lon="6.70765">
        <ele>2300.6487686332</ele>
        <time>2021-07-10T11:46:55Z</time>
      </trkpt>
      <trkpt lat="44.10572" lon="6.70766">
        <ele>2300.648741278</ele>
        <time>2021-07-10T11:46:56Z</time>
      </trkpt>
      <trkpt lat="44.10573" lon="6.70766">
        <ele>2300.6487130582</ele>
        <time>2021-07-10T11:46:58Z</time>
      </trkpt>
      <trkpt lat="44.10573" lon="6.70767">
        <ele>2300.6486937145</ele>
        <time>2021-07-10T11:46:59Z</time>
      </trkpt>
      <trkpt lat="44.10574" lon="6.70768">
        <ele>2300.6486565805</ele>
        <time>2021-07-10T11:47:00Z</time>
      </trkpt>
      <trkpt lat="44.10574" lon="6.70769">
        <ele>2300.6486302155</ele>
        <time>2021-07-10T11:47:01Z</time>
      </trkpt>
      <trkpt lat="44.10574" lon="6.7077">
        <ele>2300.6486048827</ele>
        <time>2021-07-10T11:47:02Z</time>
      </trkpt>
      <trkpt lat="44.10574" lon="6.70771">
        <ele>2300.6485709722</ele>
        <time>2021-07-10T11:47:03Z</time>
      </trkpt>
      <trkpt lat="44.10575" lon="6.70772">
        <ele>2300.6485389697</ele>
        <time>2021-07-10T11:47:04Z</time>
      </trkpt>
      <trkpt lat="44.10575" lon="6.70774">
        <ele>2300.6485111726</ele>
        <time>2021-07-10T11:47:05Z</time>
      </trkpt>
      <trkpt lat="44.10575" lon="6.70775">
        <ele>2300.6484880859</ele>
        <time>2021-07-10T11:47:06Z</time>
      </trkpt>
      <trkpt lat="44.10575" lon="6.70776">
        <ele>2300.6484705903</ele>
        <time>2021-07-10T11:47:07Z</time>
      </trkpt>
      <trkpt lat="44.10575" lon="6.70776">
        <ele>2299.6484507411</ele>
        <time>2021-07-10T11:47:08Z</time>
      </trkpt>
      <trkpt lat="44.10576" lon="6.70777">
        <ele>2299.6484126991</ele>
        <time>2021-07-10T11:47:09Z</time>
      </trkpt>
      <trkpt lat="44.10577" lon="6.70778">
        <ele>2300.6483869915</ele>
        <time>2021-07-10T11:47:10Z</time>
      </trkpt>
      <trkpt lat="44.10577" lon="6.70779">
        <ele>2300.6483581824</ele>
        <time>2021-07-10T11:47:11Z</time>
      </trkpt>
      <trkpt lat="44.10577" lon="6.7078">
        <ele>2301.6483305633</ele>
        <time>2021-07-10T11:47:12Z</time>
      </trkpt>
      <trkpt lat="44.10578" lon="6.7078">
        <ele>2301.6483040409</ele>
        <time>2021-07-10T11:47:13Z</time>
      </trkpt>
      <trkpt lat="44.10578" lon="6.7078">
        <ele>2301.6482910317</ele>
        <time>2021-07-10T11:47:14Z</time>
      </trkpt>
      <trkpt lat="44.10579" lon="6.70781">
        <ele>2301.6482576632</ele>
        <time>2021-07-10T11:47:15Z</time>
      </trkpt>
      <trkpt lat="44.1058" lon="6.70782">
        <ele>2301.6482288944</ele>
        <time>2021-07-10T11:47:16Z</time>
      </trkpt>
      <trkpt lat="44.1058" lon="6.70782">
        <ele>2301.6482009303</ele>
        <time>2021-07-10T11:47:17Z</time>
      </trkpt>
      <trkpt lat="44.10581" lon="6.70782">
        <ele>2301.6481620601</ele>
        <time>2021-07-10T11:47:18Z</time>
      </trkpt>
      <trkpt lat="44.10582" lon="6.70783">
        <ele>2301.6481256782</ele>
        <time>2021-07-10T11:47:19Z</time>
      </trkpt>
      <trkpt lat="44.10582" lon="6.70784">
        <ele>2301.6480947589</ele>
        <time>2021-07-10T11:47:20Z</time>
      </trkpt>
      <trkpt lat="44.10583" lon="6.70784">
        <ele>2301.6480628058</ele>
        <time>2021-07-10T11:47:21Z</time>
      </trkpt>
      <trkpt lat="44.10584" lon="6.70784">
        <ele>2301.6480237294</ele>
        <time>2021-07-10T11:47:22Z</time>
      </trkpt>
      <trkpt lat="44.10585" lon="6.70785">
        <ele>2301.6479935557</ele>
        <time>2021-07-10T11:47:23Z</time>
      </trkpt>
      <trkpt lat="44.10586" lon="6.70785">
        <ele>2301.6479526023</ele>
        <time>2021-07-10T11:47:24Z</time>
      </trkpt>
      <trkpt lat="44.10587" lon="6.70785">
        <ele>2301.6479220762</ele>
        <time>2021-07-10T11:47:26Z</time>
      </trkpt>
      <trkpt lat="44.10587" lon="6.70786">
        <ele>2301.6478905702</ele>
        <time>2021-07-10T11:47:27Z</time>
      </trkpt>
      <trkpt lat="44.10588" lon="6.70786">
        <ele>2301.6478527248</ele>
        <time>2021-07-10T11:47:28Z</time>
      </trkpt>
      <trkpt lat="44.10591" lon="6.70787">
        <ele>2299.6477743543</ele>
        <time>2021-07-10T11:47:30Z</time>
      </trkpt>
      <trkpt lat="44.10591" lon="6.70787">
        <ele>2299.6477429674</ele>
        <time>2021-07-10T11:47:31Z</time>
      </trkpt>
      <trkpt lat="44.10592" lon="6.70788">
        <ele>2299.6477130969</ele>
        <time>2021-07-10T11:47:32Z</time>
      </trkpt>
      <trkpt lat="44.10592" lon="6.70788">
        <ele>2298.6477038996</ele>
        <time>2021-07-10T11:47:33Z</time>
      </trkpt>
      <trkpt lat="44.10593" lon="6.70789">
        <ele>2298.6476647476</ele>
        <time>2021-07-10T11:47:35Z</time>
      </trkpt>
      <trkpt lat="44.10594" lon="6.70791">
        <ele>2299.6475818376</ele>
        <time>2021-07-10T11:47:36Z</time>
      </trkpt>
      <trkpt lat="44.10595" lon="6.70791">
        <ele>2300.6475358932</ele>
        <time>2021-07-10T11:47:37Z</time>
      </trkpt>
      <trkpt lat="44.10596" lon="6.70792">
        <ele>2300.6475196591</ele>
        <time>2021-07-10T11:47:39Z</time>
      </trkpt>
      <trkpt lat="44.10596" lon="6.70792">
        <ele>2301.6474796451</ele>
        <time>2021-07-10T11:47:40Z</time>
      </trkpt>
      <trkpt lat="44.10597" lon="6.70794">
        <ele>2300.6474527782</ele>
        <time>2021-07-10T11:47:42Z</time>
      </trkpt>
      <trkpt lat="44.10597" lon="6.70794">
        <ele>2300.6474270286</ele>
        <time>2021-07-10T11:47:43Z</time>
      </trkpt>
      <trkpt lat="44.10598" lon="6.70795">
        <ele>2299.6473973119</ele>
        <time>2021-07-10T11:47:45Z</time>
      </trkpt>
      <trkpt lat="44.10598" lon="6.70797">
        <ele>2300.6473475084</ele>
        <time>2021-07-10T11:47:46Z</time>
      </trkpt>
      <trkpt lat="44.10598" lon="6.70798">
        <ele>2300.6473215781</ele>
        <time>2021-07-10T11:47:47Z</time>
      </trkpt>
      <trkpt lat="44.10599" lon="6.70799">
        <ele>2299.6472914333</ele>
        <time>2021-07-10T11:47:48Z</time>
      </trkpt>
      <trkpt lat="44.10599" lon="6.708">
        <ele>2300.6472685293</ele>
        <time>2021-07-10T11:47:49Z</time>
      </trkpt>
      <trkpt lat="44.10599" lon="6.70801">
        <ele>2300.647239914</ele>
        <time>2021-07-10T11:47:50Z</time>
      </trkpt>
      <trkpt lat="44.106" lon="6.70803">
        <ele>2299.6471998657</ele>
        <time>2021-07-10T11:47:51Z</time>
      </trkpt>
      <trkpt lat="44.106" lon="6.70804">
        <ele>2299.6471610999</ele>
        <time>2021-07-10T11:47:52Z</time>
      </trkpt>
      <trkpt lat="44.10601" lon="6.70805">
        <ele>2299.6471317508</ele>
        <time>2021-07-10T11:47:53Z</time>
      </trkpt>
      <trkpt lat="44.10601" lon="6.70806">
        <ele>2300.6471047272</ele>
        <time>2021-07-10T11:47:54Z</time>
      </trkpt>
      <trkpt lat="44.10601" lon="6.70808">
        <ele>2300.6470660482</ele>
        <time>2021-07-10T11:47:56Z</time>
      </trkpt>
      <trkpt lat="44.10601" lon="6.70808">
        <ele>2300.6470498511</ele>
        <time>2021-07-10T11:47:58Z</time>
      </trkpt>
      <trkpt lat="44.10601" lon="6.70811">
        <ele>2300.647000069</ele>
        <time>2021-07-10T11:48:01Z</time>
      </trkpt>
      <trkpt lat="44.10602" lon="6.70812">
        <ele>2300.6469728289</ele>
        <time>2021-07-10T11:48:02Z</time>
      </trkpt>
      <trkpt lat="44.10601" lon="6.70814">
        <ele>2300.6469583437</ele>
        <time>2021-07-10T11:48:03Z</time>
      </trkpt>
      <trkpt lat="44.10601" lon="6.70815">
        <ele>2300.6469456686</ele>
        <time>2021-07-10T11:48:04Z</time>
      </trkpt>
      <trkpt lat="44.10601" lon="6.70816">
        <ele>2300.6469380531</ele>
        <time>2021-07-10T11:48:05Z</time>
      </trkpt>
      <trkpt lat="44.106" lon="6.70817">
        <ele>2299.6469271769</ele>
        <time>2021-07-10T11:48:06Z</time>
      </trkpt>
      <trkpt lat="44.106" lon="6.70819">
        <ele>2299.6469168888</ele>
        <time>2021-07-10T11:48:07Z</time>
      </trkpt>
      <trkpt lat="44.106" lon="6.7082">
        <ele>2298.6469060231</ele>
        <time>2021-07-10T11:48:08Z</time>
      </trkpt>
      <trkpt lat="44.106" lon="6.70821">
        <ele>2298.646888008</ele>
        <time>2021-07-10T11:48:09Z</time>
      </trkpt>
      <trkpt lat="44.106" lon="6.70823">
        <ele>2298.646867381</ele>
        <time>2021-07-10T11:48:10Z</time>
      </trkpt>
      <trkpt lat="44.10599" lon="6.70824">
        <ele>2298.6468531724</ele>
        <time>2021-07-10T11:48:11Z</time>
      </trkpt>
      <trkpt lat="44.10599" lon="6.70826">
        <ele>2298.6468271145</ele>
        <time>2021-07-10T11:48:12Z</time>
      </trkpt>
      <trkpt lat="44.10599" lon="6.70827">
        <ele>2297.6468160997</ele>
        <time>2021-07-10T11:48:13Z</time>
      </trkpt>
      <trkpt lat="44.10599" lon="6.70828">
        <ele>2297.6467874937</ele>
        <time>2021-07-10T11:48:15Z</time>
      </trkpt>
      <trkpt lat="44.10599" lon="6.70832">
        <ele>2297.6467406545</ele>
        <time>2021-07-10T11:48:16Z</time>
      </trkpt>
      <trkpt lat="44.10599" lon="6.70833">
        <ele>2297.6467215298</ele>
        <time>2021-07-10T11:48:17Z</time>
      </trkpt>
      <trkpt lat="44.10599" lon="6.70835">
        <ele>2298.6466824749</ele>
        <time>2021-07-10T11:48:18Z</time>
      </trkpt>
      <trkpt lat="44.10599" lon="6.70837">
        <ele>2298.6466560869</ele>
        <time>2021-07-10T11:48:19Z</time>
      </trkpt>
      <trkpt lat="44.10599" lon="6.70839">
        <ele>2298.6466229927</ele>
        <time>2021-07-10T11:48:20Z</time>
      </trkpt>
      <trkpt lat="44.10599" lon="6.7084">
        <ele>2299.6466060709</ele>
        <time>2021-07-10T11:48:21Z</time>
      </trkpt>
      <trkpt lat="44.10599" lon="6.70841">
        <ele>2299.6465775846</ele>
        <time>2021-07-10T11:48:22Z</time>
      </trkpt>
      <trkpt lat="44.10599" lon="6.70842">
        <ele>2299.646551329</ele>
        <time>2021-07-10T11:48:23Z</time>
      </trkpt>
      <trkpt lat="44.10599" lon="6.70844">
        <ele>2299.6465307208</ele>
        <time>2021-07-10T11:48:24Z</time>
      </trkpt>
      <trkpt lat="44.10599" lon="6.70845">
        <ele>2299.6465081865</ele>
        <time>2021-07-10T11:48:25Z</time>
      </trkpt>
      <trkpt lat="44.10599" lon="6.70847">
        <ele>2299.6464800524</ele>
        <time>2021-07-10T11:48:27Z</time>
      </trkpt>
      <trkpt lat="44.10599" lon="6.70848">
        <ele>2299.6464513432</ele>
        <time>2021-07-10T11:48:28Z</time>
      </trkpt>
      <trkpt lat="44.10599" lon="6.70849">
        <ele>2299.6464441629</ele>
        <time>2021-07-10T11:48:29Z</time>
      </trkpt>
      <trkpt lat="44.10599" lon="6.70851">
        <ele>2299.6464118069</ele>
        <time>2021-07-10T11:48:31Z</time>
      </trkpt>
      <trkpt lat="44.10598" lon="6.70853">
        <ele>2298.6464059912</ele>
        <time>2021-07-10T11:48:32Z</time>
      </trkpt>
      <trkpt lat="44.10598" lon="6.70854">
        <ele>2298.646395217</ele>
        <time>2021-07-10T11:48:33Z</time>
      </trkpt>
      <trkpt lat="44.10597" lon="6.70856">
        <ele>2298.6463756982</ele>
        <time>2021-07-10T11:48:34Z</time>
      </trkpt>
      <trkpt lat="44.10597" lon="6.70857">
        <ele>2298.646365769</ele>
        <time>2021-07-10T11:48:35Z</time>
      </trkpt>
      <trkpt lat="44.10596" lon="6.7086">
        <ele>2298.6463461555</ele>
        <time>2021-07-10T11:48:37Z</time>
      </trkpt>
      <trkpt lat="44.10595" lon="6.70861">
        <ele>2298.6463580073</ele>
        <time>2021-07-10T11:48:38Z</time>
      </trkpt>
      <trkpt lat="44.10595" lon="6.70861">
        <ele>2299.6463635129</ele>
        <time>2021-07-10T11:48:39Z</time>
      </trkpt>
      <trkpt lat="44.10595" lon="6.70862">
        <ele>2298.6463668306</ele>
        <time>2021-07-10T11:48:40Z</time>
      </trkpt>
      <trkpt lat="44.10594" lon="6.70863">
        <ele>2298.6463679907</ele>
        <time>2021-07-10T11:49:09Z</time>
      </trkpt>
      <trkpt lat="44.10592" lon="6.70864">
        <ele>2297.6464071726</ele>
        <time>2021-07-10T11:49:11Z</time>
      </trkpt>
      <trkpt lat="44.10592" lon="6.70865">
        <ele>2295.6463917962</ele>
        <time>2021-07-10T11:49:59Z</time>
      </trkpt>
      <trkpt lat="44.10592" lon="6.70868">
        <ele>2296.6463662802</ele>
        <time>2021-07-10T11:50:01Z</time>
      </trkpt>
      <trkpt lat="44.10591" lon="6.70869">
        <ele>2296.6463550804</ele>
        <time>2021-07-10T11:50:02Z</time>
      </trkpt>
      <trkpt lat="44.10591" lon="6.7087">
        <ele>2295.646339984</ele>
        <time>2021-07-10T11:50:04Z</time>
      </trkpt>
      <trkpt lat="44.10591" lon="6.70872">
        <ele>2295.6463022179</ele>
        <time>2021-07-10T11:50:06Z</time>
      </trkpt>
      <trkpt lat="44.10591" lon="6.70874">
        <ele>2295.6462969043</ele>
        <time>2021-07-10T11:50:07Z</time>
      </trkpt>
      <trkpt lat="44.1059" lon="6.70874">
        <ele>2295.6462946132</ele>
        <time>2021-07-10T11:50:11Z</time>
      </trkpt>
      <trkpt lat="44.10591" lon="6.70876">
        <ele>2294.6462430488</ele>
        <time>2021-07-10T11:50:12Z</time>
      </trkpt>
      <trkpt lat="44.10591" lon="6.70877">
        <ele>2294.646223167</ele>
        <time>2021-07-10T11:50:13Z</time>
      </trkpt>
      <trkpt lat="44.10592" lon="6.70878">
        <ele>2294.6461730379</ele>
        <time>2021-07-10T11:50:15Z</time>
      </trkpt>
      <trkpt lat="44.10592" lon="6.70882">
        <ele>2295.6460974524</ele>
        <time>2021-07-10T11:50:17Z</time>
      </trkpt>
      <trkpt lat="44.10592" lon="6.70884">
        <ele>2295.6460570051</ele>
        <time>2021-07-10T11:50:18Z</time>
      </trkpt>
      <trkpt lat="44.10593" lon="6.70885">
        <ele>2295.6460310731</ele>
        <time>2021-07-10T11:50:19Z</time>
      </trkpt>
      <trkpt lat="44.10593" lon="6.70887">
        <ele>2296.6460021234</ele>
        <time>2021-07-10T11:50:20Z</time>
      </trkpt>
      <trkpt lat="44.10593" lon="6.70888">
        <ele>2296.6459802563</ele>
        <time>2021-07-10T11:50:21Z</time>
      </trkpt>
      <trkpt lat="44.10593" lon="6.70889">
        <ele>2296.6459677313</ele>
        <time>2021-07-10T11:50:22Z</time>
      </trkpt>
      <trkpt lat="44.10593" lon="6.7089">
        <ele>2296.6459395694</ele>
        <time>2021-07-10T11:50:23Z</time>
      </trkpt>
      <trkpt lat="44.10593" lon="6.7089">
        <ele>2295.6459286016</ele>
        <time>2021-07-10T11:50:24Z</time>
      </trkpt>
      <trkpt lat="44.10594" lon="6.7089">
        <ele>2295.6458947148</ele>
        <time>2021-07-10T11:50:25Z</time>
      </trkpt>
      <trkpt lat="44.10595" lon="6.70892">
        <ele>2295.6458328031</ele>
        <time>2021-07-10T11:50:27Z</time>
      </trkpt>
      <trkpt lat="44.10596" lon="6.70892">
        <ele>2295.6458149033</ele>
        <time>2021-07-10T11:50:28Z</time>
      </trkpt>
      <trkpt lat="44.10596" lon="6.70892">
        <ele>2295.6458045626</ele>
        <time>2021-07-10T11:50:29Z</time>
      </trkpt>
      <trkpt lat="44.10597" lon="6.70893">
        <ele>2294.6457704464</ele>
        <time>2021-07-10T11:50:30Z</time>
      </trkpt>
      <trkpt lat="44.10597" lon="6.70894">
        <ele>2295.6457308796</ele>
        <time>2021-07-10T11:50:31Z</time>
      </trkpt>
      <trkpt lat="44.10597" lon="6.70895">
        <ele>2295.6457049842</ele>
        <time>2021-07-10T11:50:32Z</time>
      </trkpt>
      <trkpt lat="44.10598" lon="6.70896">
        <ele>2295.6456671677</ele>
        <time>2021-07-10T11:50:34Z</time>
      </trkpt>
      <trkpt lat="44.10599" lon="6.709">
        <ele>2297.6455914406</ele>
        <time>2021-07-10T11:50:36Z</time>
      </trkpt>
      <trkpt lat="44.10599" lon="6.70902">
        <ele>2297.645535182</ele>
        <time>2021-07-10T11:50:37Z</time>
      </trkpt>
      <trkpt lat="44.10599" lon="6.70903">
        <ele>2298.6455023865</ele>
        <time>2021-07-10T11:50:38Z</time>
      </trkpt>
      <trkpt lat="44.106" lon="6.70904">
        <ele>2298.6454681151</ele>
        <time>2021-07-10T11:50:39Z</time>
      </trkpt>
      <trkpt lat="44.106" lon="6.70905">
        <ele>2298.6454465983</ele>
        <time>2021-07-10T11:50:40Z</time>
      </trkpt>
      <trkpt lat="44.10601" lon="6.70906">
        <ele>2298.6454153785</ele>
        <time>2021-07-10T11:50:41Z</time>
      </trkpt>
      <trkpt lat="44.10601" lon="6.70908">
        <ele>2298.6453812587</ele>
        <time>2021-07-10T11:50:42Z</time>
      </trkpt>
      <trkpt lat="44.10601" lon="6.70908">
        <ele>2298.6453655076</ele>
        <time>2021-07-10T11:50:43Z</time>
      </trkpt>
      <trkpt lat="44.10601" lon="6.7091">
        <ele>2299.6453261373</ele>
        <time>2021-07-10T11:50:46Z</time>
      </trkpt>
      <trkpt lat="44.10603" lon="6.70912">
        <ele>2299.6452348473</ele>
        <time>2021-07-10T11:50:47Z</time>
      </trkpt>
      <trkpt lat="44.10603" lon="6.70913">
        <ele>2299.6452120081</ele>
        <time>2021-07-10T11:50:48Z</time>
      </trkpt>
      <trkpt lat="44.10604" lon="6.70914">
        <ele>2299.645177501</ele>
        <time>2021-07-10T11:50:49Z</time>
      </trkpt>
      <trkpt lat="44.10606" lon="6.70914">
        <ele>2299.6451117426</ele>
        <time>2021-07-10T11:50:51Z</time>
      </trkpt>
      <trkpt lat="44.10607" lon="6.70915">
        <ele>2299.6450605749</ele>
        <time>2021-07-10T11:50:52Z</time>
      </trkpt>
      <trkpt lat="44.10607" lon="6.70916">
        <ele>2299.6450177649</ele>
        <time>2021-07-10T11:50:53Z</time>
      </trkpt>
      <trkpt lat="44.10609" lon="6.70916">
        <ele>2299.6449739314</ele>
        <time>2021-07-10T11:50:55Z</time>
      </trkpt>
      <trkpt lat="44.1061" lon="6.70918">
        <ele>2300.6448918388</ele>
        <time>2021-07-10T11:50:56Z</time>
      </trkpt>
      <trkpt lat="44.10611" lon="6.70919">
        <ele>2299.6448535477</ele>
        <time>2021-07-10T11:50:57Z</time>
      </trkpt>
      <trkpt lat="44.10612" lon="6.7092">
        <ele>2299.6448045834</ele>
        <time>2021-07-10T11:50:59Z</time>
      </trkpt>
      <trkpt lat="44.10613" lon="6.70922">
        <ele>2300.6447289217</ele>
        <time>2021-07-10T11:51:00Z</time>
      </trkpt>
      <trkpt lat="44.10614" lon="6.70922">
        <ele>2300.6447017327</ele>
        <time>2021-07-10T11:51:01Z</time>
      </trkpt>
      <trkpt lat="44.10614" lon="6.70924">
        <ele>2300.6446575348</ele>
        <time>2021-07-10T11:51:02Z</time>
      </trkpt>
      <trkpt lat="44.10615" lon="6.70925">
        <ele>2301.6446102084</ele>
        <time>2021-07-10T11:51:03Z</time>
      </trkpt>
      <trkpt lat="44.10616" lon="6.70926">
        <ele>2301.6445725784</ele>
        <time>2021-07-10T11:51:04Z</time>
      </trkpt>
      <trkpt lat="44.10617" lon="6.70927">
        <ele>2301.6445208281</ele>
        <time>2021-07-10T11:51:05Z</time>
      </trkpt>
      <trkpt lat="44.10618" lon="6.70927">
        <ele>2301.6444881158</ele>
        <time>2021-07-10T11:51:06Z</time>
      </trkpt>
      <trkpt lat="44.10618" lon="6.70928">
        <ele>2301.6444639274</ele>
        <time>2021-07-10T11:51:07Z</time>
      </trkpt>
      <trkpt lat="44.10619" lon="6.70929">
        <ele>2301.6444241275</ele>
        <time>2021-07-10T11:51:09Z</time>
      </trkpt>
      <trkpt lat="44.1062" lon="6.7093">
        <ele>2301.6443522186</ele>
        <time>2021-07-10T11:51:11Z</time>
      </trkpt>
      <trkpt lat="44.10621" lon="6.70932">
        <ele>2300.6442901626</ele>
        <time>2021-07-10T11:51:12Z</time>
      </trkpt>
      <trkpt lat="44.10622" lon="6.70932">
        <ele>2300.6442663834</ele>
        <time>2021-07-10T11:51:13Z</time>
      </trkpt>
      <trkpt lat="44.10622" lon="6.70932">
        <ele>2300.6442497852</ele>
        <time>2021-07-10T11:51:14Z</time>
      </trkpt>
      <trkpt lat="44.10622" lon="6.70933">
        <ele>2300.6442259131</ele>
        <time>2021-07-10T11:51:16Z</time>
      </trkpt>
      <trkpt lat="44.10624" lon="6.70935">
        <ele>2300.6441454691</ele>
        <time>2021-07-10T11:51:17Z</time>
      </trkpt>
      <trkpt lat="44.10625" lon="6.70935">
        <ele>2300.6441192121</ele>
        <time>2021-07-10T11:51:18Z</time>
      </trkpt>
      <trkpt lat="44.10626" lon="6.70935">
        <ele>2300.6440834436</ele>
        <time>2021-07-10T11:51:19Z</time>
      </trkpt>
      <trkpt lat="44.10627" lon="6.70936">
        <ele>2299.6440173525</ele>
        <time>2021-07-10T11:51:21Z</time>
      </trkpt>
      <trkpt lat="44.10628" lon="6.70936">
        <ele>2299.6439907828</ele>
        <time>2021-07-10T11:51:22Z</time>
      </trkpt>
      <trkpt lat="44.10629" lon="6.70938">
        <ele>2299.6439411514</ele>
        <time>2021-07-10T11:51:24Z</time>
      </trkpt>
      <trkpt lat="44.1063" lon="6.7094">
        <ele>2299.6438724542</ele>
        <time>2021-07-10T11:51:26Z</time>
      </trkpt>
      <trkpt lat="44.10632" lon="6.7094">
        <ele>2300.6437979668</ele>
        <time>2021-07-10T11:51:27Z</time>
      </trkpt>
      <trkpt lat="44.10632" lon="6.70941">
        <ele>2299.6437631841</ele>
        <time>2021-07-10T11:51:28Z</time>
      </trkpt>
      <trkpt lat="44.10633" lon="6.70942">
        <ele>2300.6437295618</ele>
        <time>2021-07-10T11:51:29Z</time>
      </trkpt>
      <trkpt lat="44.10633" lon="6.70942">
        <ele>2300.6437130298</ele>
        <time>2021-07-10T11:51:30Z</time>
      </trkpt>
      <trkpt lat="44.10634" lon="6.70942">
        <ele>2300.6436879139</ele>
        <time>2021-07-10T11:51:31Z</time>
      </trkpt>
      <trkpt lat="44.10634" lon="6.70942">
        <ele>2300.6436677184</ele>
        <time>2021-07-10T11:51:32Z</time>
      </trkpt>
      <trkpt lat="44.10635" lon="6.70942">
        <ele>2300.6436498139</ele>
        <time>2021-07-10T11:51:33Z</time>
      </trkpt>
      <trkpt lat="44.10636" lon="6.70942">
        <ele>2300.6436223622</ele>
        <time>2021-07-10T11:51:34Z</time>
      </trkpt>
      <trkpt lat="44.10636" lon="6.70943">
        <ele>2299.6435883438</ele>
        <time>2021-07-10T11:51:35Z</time>
      </trkpt>
      <trkpt lat="44.10637" lon="6.70944">
        <ele>2299.6435517948</ele>
        <time>2021-07-10T11:51:36Z</time>
      </trkpt>
      <trkpt lat="44.10638" lon="6.70945">
        <ele>2299.6435176548</ele>
        <time>2021-07-10T11:51:37Z</time>
      </trkpt>
      <trkpt lat="44.10638" lon="6.70945">
        <ele>2299.643492897</ele>
        <time>2021-07-10T11:51:38Z</time>
      </trkpt>
      <trkpt lat="44.10639" lon="6.70946">
        <ele>2299.6434533195</ele>
        <time>2021-07-10T11:51:40Z</time>
      </trkpt>
      <trkpt lat="44.1064" lon="6.70947">
        <ele>2299.6434174943</ele>
        <time>2021-07-10T11:51:41Z</time>
      </trkpt>
      <trkpt lat="44.1064" lon="6.70947">
        <ele>2299.643399502</ele>
        <time>2021-07-10T11:51:42Z</time>
      </trkpt>
      <trkpt lat="44.1064" lon="6.70947">
        <ele>2298.6433791773</ele>
        <time>2021-07-10T11:51:44Z</time>
      </trkpt>
      <trkpt lat="44.10642" lon="6.70948">
        <ele>2299.6433116227</ele>
        <time>2021-07-10T11:51:46Z</time>
      </trkpt>
      <trkpt lat="44.10643" lon="6.70948">
        <ele>2299.6432815942</ele>
        <time>2021-07-10T11:51:47Z</time>
      </trkpt>
      <trkpt lat="44.10644" lon="6.70947">
        <ele>2299.6432721336</ele>
        <time>2021-07-10T11:51:48Z</time>
      </trkpt>
      <trkpt lat="44.10645" lon="6.70947">
        <ele>2299.6432397906</ele>
        <time>2021-07-10T11:51:50Z</time>
      </trkpt>
      <trkpt lat="44.10646" lon="6.70948">
        <ele>2300.6431771478</ele>
        <time>2021-07-10T11:51:51Z</time>
      </trkpt>
      <trkpt lat="44.10647" lon="6.7095">
        <ele>2300.6431255775</ele>
        <time>2021-07-10T11:51:52Z</time>
      </trkpt>
      <trkpt lat="44.10648" lon="6.7095">
        <ele>2301.6430905074</ele>
        <time>2021-07-10T11:51:53Z</time>
      </trkpt>
      <trkpt lat="44.10649" lon="6.70951">
        <ele>2301.6430449281</ele>
        <time>2021-07-10T11:51:56Z</time>
      </trkpt>
      <trkpt lat="44.1065" lon="6.7095">
        <ele>2301.6430137734</ele>
        <time>2021-07-10T11:51:57Z</time>
      </trkpt>
      <trkpt lat="44.1065" lon="6.7095">
        <ele>2301.6430129728</ele>
        <time>2021-07-10T11:52:04Z</time>
      </trkpt>
      <trkpt lat="44.10652" lon="6.7095">
        <ele>2302.6429602622</ele>
        <time>2021-07-10T11:52:06Z</time>
      </trkpt>
      <trkpt lat="44.10653" lon="6.70948">
        <ele>2302.6429392176</ele>
        <time>2021-07-10T11:52:07Z</time>
      </trkpt>
      <trkpt lat="44.10654" lon="6.70949">
        <ele>2302.6429002087</ele>
        <time>2021-07-10T11:52:08Z</time>
      </trkpt>
      <trkpt lat="44.10655" lon="6.70949">
        <ele>2302.6428751757</ele>
        <time>2021-07-10T11:52:11Z</time>
      </trkpt>
      <trkpt lat="44.10655" lon="6.70948">
        <ele>2302.6428696419</ele>
        <time>2021-07-10T11:52:12Z</time>
      </trkpt>
      <trkpt lat="44.10656" lon="6.70949">
        <ele>2301.6428360472</ele>
        <time>2021-07-10T11:52:14Z</time>
      </trkpt>
      <trkpt lat="44.10657" lon="6.70949">
        <ele>2301.6427816976</ele>
        <time>2021-07-10T11:52:15Z</time>
      </trkpt>
      <trkpt lat="44.10659" lon="6.7095">
        <ele>2301.6427100029</ele>
        <time>2021-07-10T11:52:17Z</time>
      </trkpt>
      <trkpt lat="44.1066" lon="6.7095">
        <ele>2301.6426864559</ele>
        <time>2021-07-10T11:52:18Z</time>
      </trkpt>
      <trkpt lat="44.10661" lon="6.70951">
        <ele>2300.6426404222</ele>
        <time>2021-07-10T11:52:19Z</time>
      </trkpt>
      <trkpt lat="44.10662" lon="6.70952">
        <ele>2299.6425658228</ele>
        <time>2021-07-10T11:52:21Z</time>
      </trkpt>
      <trkpt lat="44.10663" lon="6.70953">
        <ele>2298.6425311712</ele>
        <time>2021-07-10T11:52:24Z</time>
      </trkpt>
      <trkpt lat="44.10665" lon="6.70954">
        <ele>2298.6424625209</ele>
        <time>2021-07-10T11:52:26Z</time>
      </trkpt>
      <trkpt lat="44.10666" lon="6.70956">
        <ele>2297.6423751325</ele>
        <time>2021-07-10T11:52:27Z</time>
      </trkpt>
      <trkpt lat="44.10667" lon="6.70957">
        <ele>2297.6423311041</ele>
        <time>2021-07-10T11:52:28Z</time>
      </trkpt>
      <trkpt lat="44.10668" lon="6.70957">
        <ele>2297.6422871645</ele>
        <time>2021-07-10T11:52:29Z</time>
      </trkpt>
      <trkpt lat="44.1067" lon="6.70959">
        <ele>2297.6421954862</ele>
        <time>2021-07-10T11:52:31Z</time>
      </trkpt>
      <trkpt lat="44.10671" lon="6.70959">
        <ele>2296.642162112</ele>
        <time>2021-07-10T11:52:32Z</time>
      </trkpt>
      <trkpt lat="44.10672" lon="6.70959">
        <ele>2296.6421255009</ele>
        <time>2021-07-10T11:52:33Z</time>
      </trkpt>
      <trkpt lat="44.10673" lon="6.7096">
        <ele>2296.6420767261</ele>
        <time>2021-07-10T11:52:34Z</time>
      </trkpt>
      <trkpt lat="44.10673" lon="6.7096">
        <ele>2296.6420515444</ele>
        <time>2021-07-10T11:52:35Z</time>
      </trkpt>
      <trkpt lat="44.10674" lon="6.7096">
        <ele>2295.6420205036</ele>
        <time>2021-07-10T11:52:36Z</time>
      </trkpt>
      <trkpt lat="44.10675" lon="6.7096">
        <ele>2294.6419870396</ele>
        <time>2021-07-10T11:52:37Z</time>
      </trkpt>
      <trkpt lat="44.10676" lon="6.70961">
        <ele>2294.6419457703</ele>
        <time>2021-07-10T11:52:38Z</time>
      </trkpt>
      <trkpt lat="44.10677" lon="6.70961">
        <ele>2294.6419318385</ele>
        <time>2021-07-10T11:52:39Z</time>
      </trkpt>
      <trkpt lat="44.10678" lon="6.70961">
        <ele>2294.6418927967</ele>
        <time>2021-07-10T11:52:40Z</time>
      </trkpt>
      <trkpt lat="44.10679" lon="6.7096">
        <ele>2294.6418767184</ele>
        <time>2021-07-10T11:52:41Z</time>
      </trkpt>
      <trkpt lat="44.10679" lon="6.7096">
        <ele>2294.6418678432</ele>
        <time>2021-07-10T11:52:42Z</time>
      </trkpt>
      <trkpt lat="44.1068" lon="6.7096">
        <ele>2293.6418426734</ele>
        <time>2021-07-10T11:52:43Z</time>
      </trkpt>
      <trkpt lat="44.10681" lon="6.70959">
        <ele>2293.6418240969</ele>
        <time>2021-07-10T11:52:44Z</time>
      </trkpt>
      <trkpt lat="44.10682" lon="6.7096">
        <ele>2293.6417894637</ele>
        <time>2021-07-10T11:52:45Z</time>
      </trkpt>
      <trkpt lat="44.10682" lon="6.70961">
        <ele>2294.6417534883</ele>
        <time>2021-07-10T11:52:46Z</time>
      </trkpt>
      <trkpt lat="44.10683" lon="6.70962">
        <ele>2293.6416996467</ele>
        <time>2021-07-10T11:52:47Z</time>
      </trkpt>
      <trkpt lat="44.10684" lon="6.70962">
        <ele>2292.6416546367</ele>
        <time>2021-07-10T11:52:48Z</time>
      </trkpt>
      <trkpt lat="44.10686" lon="6.70962">
        <ele>2292.6416135378</ele>
        <time>2021-07-10T11:52:49Z</time>
      </trkpt>
      <trkpt lat="44.10686" lon="6.70963">
        <ele>2293.6415825264</ele>
        <time>2021-07-10T11:52:50Z</time>
      </trkpt>
      <trkpt lat="44.10687" lon="6.70963">
        <ele>2293.6415596387</ele>
        <time>2021-07-10T11:52:51Z</time>
      </trkpt>
      <trkpt lat="44.10688" lon="6.70963">
        <ele>2293.641529615</ele>
        <time>2021-07-10T11:52:52Z</time>
      </trkpt>
      <trkpt lat="44.10688" lon="6.70963">
        <ele>2293.6415160546</ele>
        <time>2021-07-10T11:52:53Z</time>
      </trkpt>
      <trkpt lat="44.10689" lon="6.70963">
        <ele>2293.6414874485</ele>
        <time>2021-07-10T11:52:54Z</time>
      </trkpt>
      <trkpt lat="44.1069" lon="6.70963">
        <ele>2293.6414537715</ele>
        <time>2021-07-10T11:52:55Z</time>
      </trkpt>
      <trkpt lat="44.10691" lon="6.70963">
        <ele>2293.6414239156</ele>
        <time>2021-07-10T11:52:56Z</time>
      </trkpt>
      <trkpt lat="44.10692" lon="6.70964">
        <ele>2293.6413677183</ele>
        <time>2021-07-10T11:52:57Z</time>
      </trkpt>
      <trkpt lat="44.10693" lon="6.70965">
        <ele>2293.6413278498</ele>
        <time>2021-07-10T11:52:58Z</time>
      </trkpt>
      <trkpt lat="44.10693" lon="6.70966">
        <ele>2292.6412805472</ele>
        <time>2021-07-10T11:52:59Z</time>
      </trkpt>
      <trkpt lat="44.10694" lon="6.70968">
        <ele>2292.6412118585</ele>
        <time>2021-07-10T11:53:00Z</time>
      </trkpt>
      <trkpt lat="44.10695" lon="6.7097">
        <ele>2292.6411517356</ele>
        <time>2021-07-10T11:53:01Z</time>
      </trkpt>
      <trkpt lat="44.10696" lon="6.70971">
        <ele>2292.6411035924</ele>
        <time>2021-07-10T11:53:02Z</time>
      </trkpt>
      <trkpt lat="44.10697" lon="6.70971">
        <ele>2292.6410745679</ele>
        <time>2021-07-10T11:53:03Z</time>
      </trkpt>
      <trkpt lat="44.10699" lon="6.70972">
        <ele>2291.641002832</ele>
        <time>2021-07-10T11:53:05Z</time>
      </trkpt>
      <trkpt lat="44.107" lon="6.70972">
        <ele>2290.6409529957</ele>
        <time>2021-07-10T11:53:07Z</time>
      </trkpt>
      <trkpt lat="44.10702" lon="6.70972">
        <ele>2290.6409059255</ele>
        <time>2021-07-10T11:53:08Z</time>
      </trkpt>
      <trkpt lat="44.10703" lon="6.70973">
        <ele>2290.6408668945</ele>
        <time>2021-07-10T11:53:09Z</time>
      </trkpt>
      <trkpt lat="44.10704" lon="6.70973">
        <ele>2290.6407915574</ele>
        <time>2021-07-10T11:53:11Z</time>
      </trkpt>
      <trkpt lat="44.10706" lon="6.70973">
        <ele>2290.6407466298</ele>
        <time>2021-07-10T11:53:12Z</time>
      </trkpt>
      <trkpt lat="44.10706" lon="6.70974">
        <ele>2290.6407222721</ele>
        <time>2021-07-10T11:53:13Z</time>
      </trkpt>
      <trkpt lat="44.10708" lon="6.70975">
        <ele>2290.6406499504</ele>
        <time>2021-07-10T11:53:16Z</time>
      </trkpt>
      <trkpt lat="44.1071" lon="6.70974">
        <ele>2290.6405932634</ele>
        <time>2021-07-10T11:53:17Z</time>
      </trkpt>
      <trkpt lat="44.10711" lon="6.70974">
        <ele>2290.6405652725</ele>
        <time>2021-07-10T11:53:18Z</time>
      </trkpt>
      <trkpt lat="44.10712" lon="6.70974">
        <ele>2290.6405400233</ele>
        <time>2021-07-10T11:53:19Z</time>
      </trkpt>
      <trkpt lat="44.10713" lon="6.70974">
        <ele>2291.6404904846</ele>
        <time>2021-07-10T11:53:21Z</time>
      </trkpt>
      <trkpt lat="44.10714" lon="6.70974">
        <ele>2291.6404614085</ele>
        <time>2021-07-10T11:53:22Z</time>
      </trkpt>
      <trkpt lat="44.10715" lon="6.70974">
        <ele>2290.640438267</ele>
        <time>2021-07-10T11:53:23Z</time>
      </trkpt>
      <trkpt lat="44.10717" lon="6.70976">
        <ele>2290.6403239472</ele>
        <time>2021-07-10T11:53:25Z</time>
      </trkpt>
      <trkpt lat="44.10719" lon="6.70978">
        <ele>2289.6402378322</ele>
        <time>2021-07-10T11:53:27Z</time>
      </trkpt>
      <trkpt lat="44.1072" lon="6.70978">
        <ele>2289.6401934697</ele>
        <time>2021-07-10T11:53:28Z</time>
      </trkpt>
      <trkpt lat="44.10721" lon="6.70978">
        <ele>2289.640159868</ele>
        <time>2021-07-10T11:53:29Z</time>
      </trkpt>
      <trkpt lat="44.10722" lon="6.70979">
        <ele>2289.6400974167</ele>
        <time>2021-07-10T11:53:31Z</time>
      </trkpt>
      <trkpt lat="44.10723" lon="6.70979">
        <ele>2289.6400581714</ele>
        <time>2021-07-10T11:53:32Z</time>
      </trkpt>
      <trkpt lat="44.10725" lon="6.70979">
        <ele>2289.6400170481</ele>
        <time>2021-07-10T11:53:33Z</time>
      </trkpt>
      <trkpt lat="44.10727" lon="6.7098">
        <ele>2289.6399288857</ele>
        <time>2021-07-10T11:53:35Z</time>
      </trkpt>
      <trkpt lat="44.10727" lon="6.7098">
        <ele>2289.6399042672</ele>
        <time>2021-07-10T11:53:36Z</time>
      </trkpt>
      <trkpt lat="44.10728" lon="6.70981">
        <ele>2289.639862376</ele>
        <time>2021-07-10T11:53:37Z</time>
      </trkpt>
      <trkpt lat="44.10729" lon="6.70982">
        <ele>2289.6398082299</ele>
        <time>2021-07-10T11:53:38Z</time>
      </trkpt>
      <trkpt lat="44.1073" lon="6.70983">
        <ele>2289.6397653492</ele>
        <time>2021-07-10T11:53:39Z</time>
      </trkpt>
      <trkpt lat="44.10731" lon="6.70983">
        <ele>2289.6397281364</ele>
        <time>2021-07-10T11:53:40Z</time>
      </trkpt>
      <trkpt lat="44.10732" lon="6.70983">
        <ele>2289.6397051127</ele>
        <time>2021-07-10T11:53:41Z</time>
      </trkpt>
      <trkpt lat="44.10733" lon="6.70983">
        <ele>2289.6396785654</ele>
        <time>2021-07-10T11:53:42Z</time>
      </trkpt>
      <trkpt lat="44.10734" lon="6.70983">
        <ele>2289.6396393369</ele>
        <time>2021-07-10T11:53:43Z</time>
      </trkpt>
      <trkpt lat="44.10734" lon="6.70983">
        <ele>2289.6396265777</ele>
        <time>2021-07-10T11:53:44Z</time>
      </trkpt>
      <trkpt lat="44.10735" lon="6.70983">
        <ele>2289.6396020862</ele>
        <time>2021-07-10T11:53:46Z</time>
      </trkpt>
      <trkpt lat="44.10736" lon="6.70983">
        <ele>2289.6395711843</ele>
        <time>2021-07-10T11:53:47Z</time>
      </trkpt>
      <trkpt lat="44.10737" lon="6.70983">
        <ele>2288.6395381874</ele>
        <time>2021-07-10T11:53:48Z</time>
      </trkpt>
      <trkpt lat="44.10737" lon="6.70985">
        <ele>2287.6394994649</ele>
        <time>2021-07-10T11:53:49Z</time>
      </trkpt>
      <trkpt lat="44.10738" lon="6.70985">
        <ele>2287.6394733929</ele>
        <time>2021-07-10T11:53:50Z</time>
      </trkpt>
      <trkpt lat="44.10739" lon="6.70986">
        <ele>2287.639425668</ele>
        <time>2021-07-10T11:53:51Z</time>
      </trkpt>
      <trkpt lat="44.1074" lon="6.70987">
        <ele>2288.6393648781</ele>
        <time>2021-07-10T11:53:52Z</time>
      </trkpt>
      <trkpt lat="44.10741" lon="6.70988">
        <ele>2289.6393214141</ele>
        <time>2021-07-10T11:53:53Z</time>
      </trkpt>
      <trkpt lat="44.10742" lon="6.70989">
        <ele>2289.6392730051</ele>
        <time>2021-07-10T11:53:54Z</time>
      </trkpt>
      <trkpt lat="44.10744" lon="6.70989">
        <ele>2288.6392074562</ele>
        <time>2021-07-10T11:53:56Z</time>
      </trkpt>
      <trkpt lat="44.10744" lon="6.7099">
        <ele>2288.6391694362</ele>
        <time>2021-07-10T11:53:57Z</time>
      </trkpt>
      <trkpt lat="44.10745" lon="6.7099">
        <ele>2288.6391484514</ele>
        <time>2021-07-10T11:53:59Z</time>
      </trkpt>
      <trkpt lat="44.10747" lon="6.70992">
        <ele>2288.6390469219</ele>
        <time>2021-07-10T11:54:01Z</time>
      </trkpt>
      <trkpt lat="44.10749" lon="6.70993">
        <ele>2287.6389570736</ele>
        <time>2021-07-10T11:54:02Z</time>
      </trkpt>
      <trkpt lat="44.1075" lon="6.70994">
        <ele>2287.6389097543</ele>
        <time>2021-07-10T11:54:03Z</time>
      </trkpt>
      <trkpt lat="44.10751" lon="6.70994">
        <ele>2287.6388841279</ele>
        <time>2021-07-10T11:54:04Z</time>
      </trkpt>
      <trkpt lat="44.10753" lon="6.70996">
        <ele>2286.6387618757</ele>
        <time>2021-07-10T11:54:06Z</time>
      </trkpt>
      <trkpt lat="44.10754" lon="6.70997">
        <ele>2286.6387284156</ele>
        <time>2021-07-10T11:54:07Z</time>
      </trkpt>
      <trkpt lat="44.10755" lon="6.70997">
        <ele>2286.6386839485</ele>
        <time>2021-07-10T11:54:09Z</time>
      </trkpt>
      <trkpt lat="44.10756" lon="6.70998">
        <ele>2287.6386218654</ele>
        <time>2021-07-10T11:54:11Z</time>
      </trkpt>
      <trkpt lat="44.10758" lon="6.70999">
        <ele>2287.6385498429</ele>
        <time>2021-07-10T11:54:12Z</time>
      </trkpt>
      <trkpt lat="44.10759" lon="6.71">
        <ele>2287.6384979381</ele>
        <time>2021-07-10T11:54:13Z</time>
      </trkpt>
      <trkpt lat="44.1076" lon="6.71">
        <ele>2286.6384589317</ele>
        <time>2021-07-10T11:54:15Z</time>
      </trkpt>
      <trkpt lat="44.10762" lon="6.71001">
        <ele>2286.6383851833</ele>
        <time>2021-07-10T11:54:16Z</time>
      </trkpt>
      <trkpt lat="44.10763" lon="6.71002">
        <ele>2286.6383477598</ele>
        <time>2021-07-10T11:54:17Z</time>
      </trkpt>
      <trkpt lat="44.10764" lon="6.71002">
        <ele>2286.6383011351</ele>
        <time>2021-07-10T11:54:18Z</time>
      </trkpt>
      <trkpt lat="44.10766" lon="6.71005">
        <ele>2285.6381771549</ele>
        <time>2021-07-10T11:54:21Z</time>
      </trkpt>
      <trkpt lat="44.10767" lon="6.71006">
        <ele>2286.6381103345</ele>
        <time>2021-07-10T11:54:22Z</time>
      </trkpt>
      <trkpt lat="44.10768" lon="6.71007">
        <ele>2286.6380772871</ele>
        <time>2021-07-10T11:54:23Z</time>
      </trkpt>
      <trkpt lat="44.10769" lon="6.71007">
        <ele>2286.6380397466</ele>
        <time>2021-07-10T11:54:24Z</time>
      </trkpt>
      <trkpt lat="44.10771" lon="6.71009">
        <ele>2286.6379511453</ele>
        <time>2021-07-10T11:54:26Z</time>
      </trkpt>
      <trkpt lat="44.10771" lon="6.71009">
        <ele>2286.6379299425</ele>
        <time>2021-07-10T11:54:27Z</time>
      </trkpt>
      <trkpt lat="44.10772" lon="6.71009">
        <ele>2287.637903938</ele>
        <time>2021-07-10T11:54:28Z</time>
      </trkpt>
      <trkpt lat="44.10774" lon="6.7101">
        <ele>2288.6378307227</ele>
        <time>2021-07-10T11:54:30Z</time>
      </trkpt>
      <trkpt lat="44.10775" lon="6.7101">
        <ele>2288.6377836002</ele>
        <time>2021-07-10T11:54:32Z</time>
      </trkpt>
      <trkpt lat="44.10776" lon="6.71009">
        <ele>2288.6377598207</ele>
        <time>2021-07-10T11:54:33Z</time>
      </trkpt>
      <trkpt lat="44.10777" lon="6.7101">
        <ele>2288.6377290662</ele>
        <time>2021-07-10T11:54:34Z</time>
      </trkpt>
      <trkpt lat="44.10777" lon="6.71011">
        <ele>2288.6377013179</ele>
        <time>2021-07-10T11:54:35Z</time>
      </trkpt>
      <trkpt lat="44.10779" lon="6.71011">
        <ele>2287.6376351922</ele>
        <time>2021-07-10T11:54:37Z</time>
      </trkpt>
      <trkpt lat="44.1078" lon="6.71011">
        <ele>2287.6376060503</ele>
        <time>2021-07-10T11:54:38Z</time>
      </trkpt>
      <trkpt lat="44.10781" lon="6.71012">
        <ele>2286.6375632522</ele>
        <time>2021-07-10T11:54:40Z</time>
      </trkpt>
      <trkpt lat="44.10782" lon="6.71014">
        <ele>2286.6374773319</ele>
        <time>2021-07-10T11:54:41Z</time>
      </trkpt>
      <trkpt lat="44.10783" lon="6.71015">
        <ele>2286.6374275881</ele>
        <time>2021-07-10T11:54:42Z</time>
      </trkpt>
      <trkpt lat="44.10784" lon="6.71016">
        <ele>2287.6373855285</ele>
        <time>2021-07-10T11:54:44Z</time>
      </trkpt>
      <trkpt lat="44.10785" lon="6.71017">
        <ele>2286.6373299962</ele>
        <time>2021-07-10T11:54:45Z</time>
      </trkpt>
      <trkpt lat="44.10786" lon="6.71019">
        <ele>2286.6372560747</ele>
        <time>2021-07-10T11:54:47Z</time>
      </trkpt>
      <trkpt lat="44.10787" lon="6.7102">
        <ele>2286.6372119949</ele>
        <time>2021-07-10T11:54:48Z</time>
      </trkpt>
      <trkpt lat="44.10788" lon="6.71021">
        <ele>2287.6371615362</ele>
        <time>2021-07-10T11:54:49Z</time>
      </trkpt>
      <trkpt lat="44.10789" lon="6.71022">
        <ele>2287.6371143582</ele>
        <time>2021-07-10T11:54:50Z</time>
      </trkpt>
      <trkpt lat="44.1079" lon="6.71023">
        <ele>2287.6370740427</ele>
        <time>2021-07-10T11:54:51Z</time>
      </trkpt>
      <trkpt lat="44.1079" lon="6.71024">
        <ele>2288.6370441438</ele>
        <time>2021-07-10T11:54:52Z</time>
      </trkpt>
      <trkpt lat="44.10791" lon="6.71025">
        <ele>2287.6369903236</ele>
        <time>2021-07-10T11:54:53Z</time>
      </trkpt>
      <trkpt lat="44.10792" lon="6.71026">
        <ele>2287.6369410637</ele>
        <time>2021-07-10T11:54:54Z</time>
      </trkpt>
      <trkpt lat="44.10793" lon="6.71027">
        <ele>2288.6369076086</ele>
        <time>2021-07-10T11:54:55Z</time>
      </trkpt>
      <trkpt lat="44.10793" lon="6.71028">
        <ele>2287.6368676008</ele>
        <time>2021-07-10T11:54:56Z</time>
      </trkpt>
      <trkpt lat="44.10794" lon="6.71029">
        <ele>2287.6368360477</ele>
        <time>2021-07-10T11:54:57Z</time>
      </trkpt>
      <trkpt lat="44.10794" lon="6.7103">
        <ele>2286.6368086091</ele>
        <time>2021-07-10T11:54:59Z</time>
      </trkpt>
      <trkpt lat="44.10794" lon="6.71031">
        <ele>2286.6367844963</ele>
        <time>2021-07-10T11:55:00Z</time>
      </trkpt>
      <trkpt lat="44.10795" lon="6.71031">
        <ele>2286.6367537732</ele>
        <time>2021-07-10T11:55:01Z</time>
      </trkpt>
      <trkpt lat="44.10796" lon="6.71033">
        <ele>2286.636707574</ele>
        <time>2021-07-10T11:55:02Z</time>
      </trkpt>
      <trkpt lat="44.10797" lon="6.71033">
        <ele>2285.6366599855</ele>
        <time>2021-07-10T11:55:04Z</time>
      </trkpt>
      <trkpt lat="44.10798" lon="6.71033">
        <ele>2285.636604721</ele>
        <time>2021-07-10T11:55:05Z</time>
      </trkpt>
      <trkpt lat="44.108" lon="6.71033">
        <ele>2286.6365300242</ele>
        <time>2021-07-10T11:55:07Z</time>
      </trkpt>
      <trkpt lat="44.10801" lon="6.71034">
        <ele>2287.6364937235</ele>
        <time>2021-07-10T11:55:08Z</time>
      </trkpt>
      <trkpt lat="44.10802" lon="6.71033">
        <ele>2287.636460461</ele>
        <time>2021-07-10T11:55:09Z</time>
      </trkpt>
      <trkpt lat="44.10804" lon="6.71035">
        <ele>2287.6363772446</ele>
        <time>2021-07-10T11:55:11Z</time>
      </trkpt>
      <trkpt lat="44.10805" lon="6.71035">
        <ele>2287.6363398055</ele>
        <time>2021-07-10T11:55:12Z</time>
      </trkpt>
      <trkpt lat="44.10806" lon="6.71036">
        <ele>2288.6362971515</ele>
        <time>2021-07-10T11:55:14Z</time>
      </trkpt>
      <trkpt lat="44.10807" lon="6.71038">
        <ele>2288.6362136296</ele>
        <time>2021-07-10T11:55:16Z</time>
      </trkpt>
      <trkpt lat="44.10809" lon="6.71042">
        <ele>2288.6361125338</ele>
        <time>2021-07-10T11:55:17Z</time>
      </trkpt>
      <trkpt lat="44.10809" lon="6.71042">
        <ele>2288.6360843959</ele>
        <time>2021-07-10T11:55:18Z</time>
      </trkpt>
      <trkpt lat="44.1081" lon="6.71042">
        <ele>2288.6360631965</ele>
        <time>2021-07-10T11:55:20Z</time>
      </trkpt>
      <trkpt lat="44.10812" lon="6.71043">
        <ele>2288.6359823623</ele>
        <time>2021-07-10T11:55:21Z</time>
      </trkpt>
      <trkpt lat="44.10813" lon="6.71044">
        <ele>2288.635940314</ele>
        <time>2021-07-10T11:55:22Z</time>
      </trkpt>
      <trkpt lat="44.10813" lon="6.71044">
        <ele>2288.6359041277</ele>
        <time>2021-07-10T11:55:24Z</time>
      </trkpt>
      <trkpt lat="44.10816" lon="6.71046">
        <ele>2287.635805201</ele>
        <time>2021-07-10T11:55:26Z</time>
      </trkpt>
      <trkpt lat="44.10817" lon="6.71047">
        <ele>2287.6357443784</ele>
        <time>2021-07-10T11:55:27Z</time>
      </trkpt>
      <trkpt lat="44.10818" lon="6.71048">
        <ele>2288.6357001232</ele>
        <time>2021-07-10T11:55:28Z</time>
      </trkpt>
      <trkpt lat="44.10819" lon="6.71049">
        <ele>2288.6356582814</ele>
        <time>2021-07-10T11:55:30Z</time>
      </trkpt>
      <trkpt lat="44.1082" lon="6.7105">
        <ele>2288.6355797603</ele>
        <time>2021-07-10T11:55:31Z</time>
      </trkpt>
      <trkpt lat="44.10821" lon="6.7105">
        <ele>2288.6355535309</ele>
        <time>2021-07-10T11:55:32Z</time>
      </trkpt>
      <trkpt lat="44.10822" lon="6.71051">
        <ele>2287.635504288</ele>
        <time>2021-07-10T11:55:33Z</time>
      </trkpt>
      <trkpt lat="44.10823" lon="6.71052">
        <ele>2286.6354344724</ele>
        <time>2021-07-10T11:55:36Z</time>
      </trkpt>
      <trkpt lat="44.10825" lon="6.71053">
        <ele>2285.6353626243</ele>
        <time>2021-07-10T11:55:37Z</time>
      </trkpt>
      <trkpt lat="44.10826" lon="6.71054">
        <ele>2286.6353226007</ele>
        <time>2021-07-10T11:55:38Z</time>
      </trkpt>
      <trkpt lat="44.10827" lon="6.71055">
        <ele>2286.6352845488</ele>
        <time>2021-07-10T11:55:39Z</time>
      </trkpt>
      <trkpt lat="44.10828" lon="6.71055">
        <ele>2286.6352233365</ele>
        <time>2021-07-10T11:55:41Z</time>
      </trkpt>
      <trkpt lat="44.10829" lon="6.71056">
        <ele>2286.6351872327</ele>
        <time>2021-07-10T11:55:42Z</time>
      </trkpt>
      <trkpt lat="44.10829" lon="6.71056">
        <ele>2286.6351655541</ele>
        <time>2021-07-10T11:55:44Z</time>
      </trkpt>
      <trkpt lat="44.10831" lon="6.71056">
        <ele>2286.6350979138</ele>
        <time>2021-07-10T11:55:46Z</time>
      </trkpt>
      <trkpt lat="44.10833" lon="6.71057">
        <ele>2287.6350101774</ele>
        <time>2021-07-10T11:55:47Z</time>
      </trkpt>
      <trkpt lat="44.10834" lon="6.71058">
        <ele>2287.6349675285</ele>
        <time>2021-07-10T11:55:48Z</time>
      </trkpt>
      <trkpt lat="44.10835" lon="6.71059">
        <ele>2287.6349337347</ele>
        <time>2021-07-10T11:55:49Z</time>
      </trkpt>
      <trkpt lat="44.10835" lon="6.71059">
        <ele>2288.6349206204</ele>
        <time>2021-07-10T11:55:51Z</time>
      </trkpt>
      <trkpt lat="44.10836" lon="6.71061">
        <ele>2289.6348597447</ele>
        <time>2021-07-10T11:55:52Z</time>
      </trkpt>
      <trkpt lat="44.10837" lon="6.71061">
        <ele>2289.6348342852</ele>
        <time>2021-07-10T11:55:54Z</time>
      </trkpt>
      <trkpt lat="44.10838" lon="6.71061">
        <ele>2289.6347789632</ele>
        <time>2021-07-10T11:55:55Z</time>
      </trkpt>
      <trkpt lat="44.10839" lon="6.71061">
        <ele>2289.634771784</ele>
        <time>2021-07-10T11:55:56Z</time>
      </trkpt>
      <trkpt lat="44.1084" lon="6.7106">
        <ele>2290.6347541349</ele>
        <time>2021-07-10T11:55:57Z</time>
      </trkpt>
      <trkpt lat="44.10841" lon="6.7106">
        <ele>2290.63472249</ele>
        <time>2021-07-10T11:55:58Z</time>
      </trkpt>
      <trkpt lat="44.10841" lon="6.71059">
        <ele>2290.6346969265</ele>
        <time>2021-07-10T11:55:59Z</time>
      </trkpt>
      <trkpt lat="44.10843" lon="6.7106">
        <ele>2289.6346265578</ele>
        <time>2021-07-10T11:56:01Z</time>
      </trkpt>
      <trkpt lat="44.10844" lon="6.7106">
        <ele>2289.6346052616</ele>
        <time>2021-07-10T11:56:02Z</time>
      </trkpt>
      <trkpt lat="44.10845" lon="6.7106">
        <ele>2289.634587171</ele>
        <time>2021-07-10T11:56:03Z</time>
      </trkpt>
      <trkpt lat="44.10846" lon="6.7106">
        <ele>2289.6345514743</ele>
        <time>2021-07-10T11:56:04Z</time>
      </trkpt>
      <trkpt lat="44.10847" lon="6.71061">
        <ele>2290.6344905443</ele>
        <time>2021-07-10T11:56:06Z</time>
      </trkpt>
      <trkpt lat="44.10848" lon="6.71061">
        <ele>2289.6344643243</ele>
        <time>2021-07-10T11:56:07Z</time>
      </trkpt>
      <trkpt lat="44.10848" lon="6.71061">
        <ele>2289.6344354758</ele>
        <time>2021-07-10T11:56:08Z</time>
      </trkpt>
      <trkpt lat="44.1085" lon="6.71061">
        <ele>2288.6343839539</ele>
        <time>2021-07-10T11:56:10Z</time>
      </trkpt>
      <trkpt lat="44.10852" lon="6.71062">
        <ele>2289.6343039305</ele>
        <time>2021-07-10T11:56:12Z</time>
      </trkpt>
      <trkpt lat="44.10853" lon="6.71063">
        <ele>2288.6342530494</ele>
        <time>2021-07-10T11:56:13Z</time>
      </trkpt>
      <trkpt lat="44.10854" lon="6.71064">
        <ele>2288.6342087785</ele>
        <time>2021-07-10T11:56:14Z</time>
      </trkpt>
      <trkpt lat="44.10855" lon="6.71065">
        <ele>2288.6341335731</ele>
        <time>2021-07-10T11:56:16Z</time>
      </trkpt>
      <trkpt lat="44.10856" lon="6.71065">
        <ele>2288.6341104469</ele>
        <time>2021-07-10T11:56:18Z</time>
      </trkpt>
      <trkpt lat="44.10857" lon="6.71065">
        <ele>2288.6340907565</ele>
        <time>2021-07-10T11:56:20Z</time>
      </trkpt>
      <trkpt lat="44.10858" lon="6.71065">
        <ele>2289.6340535779</ele>
        <time>2021-07-10T11:56:22Z</time>
      </trkpt>
      <trkpt lat="44.10858" lon="6.71065">
        <ele>2289.6340395637</ele>
        <time>2021-07-10T11:56:23Z</time>
      </trkpt>
      <trkpt lat="44.10859" lon="6.71065">
        <ele>2290.6340053606</ele>
        <time>2021-07-10T11:56:24Z</time>
      </trkpt>
      <trkpt lat="44.1086" lon="6.71066">
        <ele>2289.6339570115</ele>
        <time>2021-07-10T11:56:26Z</time>
      </trkpt>
      <trkpt lat="44.10861" lon="6.71067">
        <ele>2290.6338965451</ele>
        <time>2021-07-10T11:56:28Z</time>
      </trkpt>
      <trkpt lat="44.10862" lon="6.71067">
        <ele>2290.633861141</ele>
        <time>2021-07-10T11:56:30Z</time>
      </trkpt>
      <trkpt lat="44.10863" lon="6.71069">
        <ele>2290.6338049601</ele>
        <time>2021-07-10T11:56:32Z</time>
      </trkpt>
      <trkpt lat="44.10864" lon="6.7107">
        <ele>2290.6337778352</ele>
        <time>2021-07-10T11:56:33Z</time>
      </trkpt>
      <trkpt lat="44.10864" lon="6.7107">
        <ele>2290.6337454504</ele>
        <time>2021-07-10T11:56:34Z</time>
      </trkpt>
      <trkpt lat="44.10865" lon="6.71071">
        <ele>2292.633701271</ele>
        <time>2021-07-10T11:56:36Z</time>
      </trkpt>
      <trkpt lat="44.10866" lon="6.71071">
        <ele>2292.6336785268</ele>
        <time>2021-07-10T11:56:37Z</time>
      </trkpt>
      <trkpt lat="44.10866" lon="6.71073">
        <ele>2292.6336262757</ele>
        <time>2021-07-10T11:56:38Z</time>
      </trkpt>
      <trkpt lat="44.10867" lon="6.71073">
        <ele>2291.6335971134</ele>
        <time>2021-07-10T11:56:39Z</time>
      </trkpt>
      <trkpt lat="44.10867" lon="6.71074">
        <ele>2291.6335719677</ele>
        <time>2021-07-10T11:56:40Z</time>
      </trkpt>
      <trkpt lat="44.10868" lon="6.71074">
        <ele>2291.6335551073</ele>
        <time>2021-07-10T11:56:41Z</time>
      </trkpt>
      <trkpt lat="44.10868" lon="6.71075">
        <ele>2290.6335181675</ele>
        <time>2021-07-10T11:56:43Z</time>
      </trkpt>
      <trkpt lat="44.10868" lon="6.71077">
        <ele>2290.6335082734</ele>
        <time>2021-07-10T11:56:44Z</time>
      </trkpt>
      <trkpt lat="44.10868" lon="6.71077">
        <ele>2291.6334982566</ele>
        <time>2021-07-10T11:56:49Z</time>
      </trkpt>
      <trkpt lat="44.10868" lon="6.71079">
        <ele>2291.6334514612</ele>
        <time>2021-07-10T11:56:51Z</time>
      </trkpt>
      <trkpt lat="44.10869" lon="6.71081">
        <ele>2290.6334088145</ele>
        <time>2021-07-10T11:56:52Z</time>
      </trkpt>
      <trkpt lat="44.10869" lon="6.71081">
        <ele>2290.6333989992</ele>
        <time>2021-07-10T11:56:54Z</time>
      </trkpt>
      <trkpt lat="44.1087" lon="6.71082">
        <ele>2292.633343379</ele>
        <time>2021-07-10T11:56:56Z</time>
      </trkpt>
      <trkpt lat="44.10871" lon="6.71083">
        <ele>2292.6333042072</ele>
        <time>2021-07-10T11:56:58Z</time>
      </trkpt>
      <trkpt lat="44.10871" lon="6.71083">
        <ele>2292.6332878388</ele>
        <time>2021-07-10T11:57:01Z</time>
      </trkpt>
      <trkpt lat="44.10872" lon="6.71085">
        <ele>2293.6332368012</ele>
        <time>2021-07-10T11:57:02Z</time>
      </trkpt>
      <trkpt lat="44.10872" lon="6.71086">
        <ele>2294.6332129566</ele>
        <time>2021-07-10T11:57:03Z</time>
      </trkpt>
      <trkpt lat="44.10872" lon="6.71087">
        <ele>2294.6331952131</ele>
        <time>2021-07-10T11:57:04Z</time>
      </trkpt>
      <trkpt lat="44.10872" lon="6.71088">
        <ele>2294.6331851486</ele>
        <time>2021-07-10T11:57:07Z</time>
      </trkpt>
      <trkpt lat="44.10872" lon="6.7109">
        <ele>2294.6331447237</ele>
        <time>2021-07-10T11:57:08Z</time>
      </trkpt>
      <trkpt lat="44.10872" lon="6.71091">
        <ele>2295.6331221315</ele>
        <time>2021-07-10T11:57:09Z</time>
      </trkpt>
      <trkpt lat="44.10873" lon="6.71091">
        <ele>2295.6330896859</ele>
        <time>2021-07-10T11:57:13Z</time>
      </trkpt>
      <trkpt lat="44.10873" lon="6.71093">
        <ele>2296.6330345389</ele>
        <time>2021-07-10T11:57:14Z</time>
      </trkpt>
      <trkpt lat="44.10874" lon="6.71094">
        <ele>2296.6330020411</ele>
        <time>2021-07-10T11:57:16Z</time>
      </trkpt>
      <trkpt lat="44.10875" lon="6.71095">
        <ele>2296.632972393</ele>
        <time>2021-07-10T11:57:19Z</time>
      </trkpt>
      <trkpt lat="44.10875" lon="6.71096">
        <ele>2298.6329112781</ele>
        <time>2021-07-10T11:57:20Z</time>
      </trkpt>
      <trkpt lat="44.10876" lon="6.71097">
        <ele>2299.6328880176</ele>
        <time>2021-07-10T11:57:21Z</time>
      </trkpt>
      <trkpt lat="44.10876" lon="6.71098">
        <ele>2299.6328605045</ele>
        <time>2021-07-10T11:57:22Z</time>
      </trkpt>
      <trkpt lat="44.10877" lon="6.71098">
        <ele>2299.6328317883</ele>
        <time>2021-07-10T11:57:23Z</time>
      </trkpt>
      <trkpt lat="44.10877" lon="6.71099">
        <ele>2299.632803412</ele>
        <time>2021-07-10T11:57:24Z</time>
      </trkpt>
      <trkpt lat="44.10877" lon="6.711">
        <ele>2300.6327824227</ele>
        <time>2021-07-10T11:57:25Z</time>
      </trkpt>
      <trkpt lat="44.10877" lon="6.71101">
        <ele>2300.6327688201</ele>
        <time>2021-07-10T11:57:30Z</time>
      </trkpt>
      <trkpt lat="44.10878" lon="6.71103">
        <ele>2300.6327233734</ele>
        <time>2021-07-10T11:57:32Z</time>
      </trkpt>
      <trkpt lat="44.10878" lon="6.71104">
        <ele>2301.6326939195</ele>
        <time>2021-07-10T11:57:33Z</time>
      </trkpt>
      <trkpt lat="44.10878" lon="6.71105">
        <ele>2301.6326941231</ele>
        <time>2021-07-10T11:57:35Z</time>
      </trkpt>
      <trkpt lat="44.10878" lon="6.71105">
        <ele>2301.632677532</ele>
        <time>2021-07-10T11:57:37Z</time>
      </trkpt>
      <trkpt lat="44.10878" lon="6.71107">
        <ele>2302.6326414272</ele>
        <time>2021-07-10T11:57:38Z</time>
      </trkpt>
      <trkpt lat="44.10879" lon="6.71107">
        <ele>2302.6326163954</ele>
        <time>2021-07-10T11:57:40Z</time>
      </trkpt>
      <trkpt lat="44.10879" lon="6.71107">
        <ele>2301.6325887588</ele>
        <time>2021-07-10T11:57:43Z</time>
      </trkpt>
      <trkpt lat="44.10881" lon="6.71109">
        <ele>2302.632522328</ele>
        <time>2021-07-10T11:57:44Z</time>
      </trkpt>
      <trkpt lat="44.10881" lon="6.7111">
        <ele>2302.6324946785</ele>
        <time>2021-07-10T11:57:45Z</time>
      </trkpt>
      <trkpt lat="44.10881" lon="6.71111">
        <ele>2303.6324676335</ele>
        <time>2021-07-10T11:57:46Z</time>
      </trkpt>
      <trkpt lat="44.10881" lon="6.71111">
        <ele>2303.6324447995</ele>
        <time>2021-07-10T11:57:49Z</time>
      </trkpt>
      <trkpt lat="44.10882" lon="6.71113">
        <ele>2304.6323946042</ele>
        <time>2021-07-10T11:57:50Z</time>
      </trkpt>
      <trkpt lat="44.10883" lon="6.71114">
        <ele>2303.6323450523</ele>
        <time>2021-07-10T11:57:52Z</time>
      </trkpt>
      <trkpt lat="44.10883" lon="6.71115">
        <ele>2303.6323251231</ele>
        <time>2021-07-10T11:58:01Z</time>
      </trkpt>
      <trkpt lat="44.10884" lon="6.71117">
        <ele>2304.6322554337</ele>
        <time>2021-07-10T11:58:02Z</time>
      </trkpt>
      <trkpt lat="44.10884" lon="6.71119">
        <ele>2305.6322373798</ele>
        <time>2021-07-10T11:58:04Z</time>
      </trkpt>
      <trkpt lat="44.10884" lon="6.71119">
        <ele>2305.6322266504</ele>
        <time>2021-07-10T11:58:07Z</time>
      </trkpt>
      <trkpt lat="44.10884" lon="6.71121">
        <ele>2306.6322138618</ele>
        <time>2021-07-10T11:58:08Z</time>
      </trkpt>
      <trkpt lat="44.10884" lon="6.71121">
        <ele>2306.6322019335</ele>
        <time>2021-07-10T11:58:09Z</time>
      </trkpt>
      <trkpt lat="44.10884" lon="6.71121">
        <ele>2307.6321708675</ele>
        <time>2021-07-10T11:58:10Z</time>
      </trkpt>
      <trkpt lat="44.10885" lon="6.71122">
        <ele>2307.6321486352</ele>
        <time>2021-07-10T11:58:13Z</time>
      </trkpt>
      <trkpt lat="44.10885" lon="6.71125">
        <ele>2308.6320917299</ele>
        <time>2021-07-10T11:58:14Z</time>
      </trkpt>
      <trkpt lat="44.10885" lon="6.71125">
        <ele>2308.632079141</ele>
        <time>2021-07-10T11:58:15Z</time>
      </trkpt>
      <trkpt lat="44.10885" lon="6.71126">
        <ele>2310.6320534675</ele>
        <time>2021-07-10T11:58:17Z</time>
      </trkpt>
      <trkpt lat="44.10885" lon="6.71127">
        <ele>2311.6320429265</ele>
        <time>2021-07-10T11:58:25Z</time>
      </trkpt>
      <trkpt lat="44.10887" lon="6.7113">
        <ele>2313.6319513192</ele>
        <time>2021-07-10T11:58:26Z</time>
      </trkpt>
      <trkpt lat="44.10887" lon="6.71131">
        <ele>2312.6319226485</ele>
        <time>2021-07-10T11:58:27Z</time>
      </trkpt>
      <trkpt lat="44.10888" lon="6.71131">
        <ele>2313.6318965115</ele>
        <time>2021-07-10T11:58:28Z</time>
      </trkpt>
      <trkpt lat="44.10887" lon="6.71132">
        <ele>2312.6318890636</ele>
        <time>2021-07-10T11:58:31Z</time>
      </trkpt>
      <trkpt lat="44.10889" lon="6.71133">
        <ele>2313.6318141024</ele>
        <time>2021-07-10T11:58:32Z</time>
      </trkpt>
      <trkpt lat="44.10889" lon="6.71134">
        <ele>2314.6318027928</ele>
        <time>2021-07-10T11:58:34Z</time>
      </trkpt>
      <trkpt lat="44.10889" lon="6.71135">
        <ele>2314.6317977589</ele>
        <time>2021-07-10T11:58:35Z</time>
      </trkpt>
      <trkpt lat="44.10889" lon="6.71135">
        <ele>2314.6317646721</ele>
        <time>2021-07-10T11:58:38Z</time>
      </trkpt>
      <trkpt lat="44.1089" lon="6.71136">
        <ele>2314.6317255164</ele>
        <time>2021-07-10T11:58:39Z</time>
      </trkpt>
      <trkpt lat="44.10891" lon="6.71137">
        <ele>2314.6317006127</ele>
        <time>2021-07-10T11:58:40Z</time>
      </trkpt>
      <trkpt lat="44.10891" lon="6.71137">
        <ele>2314.6316635404</ele>
        <time>2021-07-10T11:58:41Z</time>
      </trkpt>
      <trkpt lat="44.10892" lon="6.71138">
        <ele>2314.6316350024</ele>
        <time>2021-07-10T11:58:42Z</time>
      </trkpt>
      <trkpt lat="44.10892" lon="6.71138">
        <ele>2315.6316122261</ele>
        <time>2021-07-10T11:58:43Z</time>
      </trkpt>
      <trkpt lat="44.10892" lon="6.71139">
        <ele>2315.6316018591</ele>
        <time>2021-07-10T11:58:46Z</time>
      </trkpt>
      <trkpt lat="44.10892" lon="6.71141">
        <ele>2315.63155457</ele>
        <time>2021-07-10T11:58:47Z</time>
      </trkpt>
      <trkpt lat="44.10893" lon="6.71142">
        <ele>2315.6315336812</ele>
        <time>2021-07-10T11:58:48Z</time>
      </trkpt>
      <trkpt lat="44.10893" lon="6.71143">
        <ele>2316.6315013337</ele>
        <time>2021-07-10T11:58:50Z</time>
      </trkpt>
      <trkpt lat="44.10894" lon="6.71147">
        <ele>2317.6314104106</ele>
        <time>2021-07-10T11:58:52Z</time>
      </trkpt>
      <trkpt lat="44.10895" lon="6.71149">
        <ele>2317.6313504439</ele>
        <time>2021-07-10T11:58:53Z</time>
      </trkpt>
      <trkpt lat="44.10895" lon="6.7115">
        <ele>2317.6313293053</ele>
        <time>2021-07-10T11:58:54Z</time>
      </trkpt>
      <trkpt lat="44.10895" lon="6.71151">
        <ele>2318.6312972293</ele>
        <time>2021-07-10T11:58:55Z</time>
      </trkpt>
      <trkpt lat="44.10895" lon="6.71152">
        <ele>2317.6312611887</ele>
        <time>2021-07-10T11:58:56Z</time>
      </trkpt>
      <trkpt lat="44.10896" lon="6.71153">
        <ele>2317.631230463</ele>
        <time>2021-07-10T11:58:58Z</time>
      </trkpt>
      <trkpt lat="44.10896" lon="6.71154">
        <ele>2317.6312268185</ele>
        <time>2021-07-10T11:59:00Z</time>
      </trkpt>
      <trkpt lat="44.10896" lon="6.71155">
        <ele>2318.6311910675</ele>
        <time>2021-07-10T11:59:02Z</time>
      </trkpt>
      <trkpt lat="44.10897" lon="6.71156">
        <ele>2319.6311621739</ele>
        <time>2021-07-10T11:59:04Z</time>
      </trkpt>
      <trkpt lat="44.10896" lon="6.71157">
        <ele>2318.6311583295</ele>
        <time>2021-07-10T11:59:05Z</time>
      </trkpt>
      <trkpt lat="44.10897" lon="6.71157">
        <ele>2317.631129041</ele>
        <time>2021-07-10T11:59:07Z</time>
      </trkpt>
      <trkpt lat="44.10898" lon="6.71157">
        <ele>2317.6311065711</ele>
        <time>2021-07-10T11:59:10Z</time>
      </trkpt>
      <trkpt lat="44.10898" lon="6.71159">
        <ele>2318.6310741554</ele>
        <time>2021-07-10T11:59:11Z</time>
      </trkpt>
      <trkpt lat="44.10898" lon="6.71159">
        <ele>2319.6310494581</ele>
        <time>2021-07-10T11:59:12Z</time>
      </trkpt>
      <trkpt lat="44.10898" lon="6.7116">
        <ele>2319.6310316744</ele>
        <time>2021-07-10T11:59:15Z</time>
      </trkpt>
      <trkpt lat="44.10898" lon="6.71161">
        <ele>2320.6310020747</ele>
        <time>2021-07-10T11:59:17Z</time>
      </trkpt>
      <trkpt lat="44.10899" lon="6.71162">
        <ele>2320.6309723221</ele>
        <time>2021-07-10T11:59:19Z</time>
      </trkpt>
      <trkpt lat="44.10899" lon="6.71163">
        <ele>2321.6309568998</ele>
        <time>2021-07-10T11:59:20Z</time>
      </trkpt>
      <trkpt lat="44.10899" lon="6.71163">
        <ele>2321.6309568998</ele>
        <time>2021-07-10T11:59:24Z</time>
      </trkpt>
      <trkpt lat="44.10898" lon="6.71165">
        <ele>2323.6309447175</ele>
        <time>2021-07-10T11:59:25Z</time>
      </trkpt>
      <trkpt lat="44.10898" lon="6.71166">
        <ele>2323.6309243609</ele>
        <time>2021-07-10T11:59:26Z</time>
      </trkpt>
      <trkpt lat="44.10899" lon="6.71166">
        <ele>2323.6309054466</ele>
        <time>2021-07-10T11:59:27Z</time>
      </trkpt>
      <trkpt lat="44.10899" lon="6.71167">
        <ele>2324.6308795474</ele>
        <time>2021-07-10T11:59:30Z</time>
      </trkpt>
      <trkpt lat="44.109" lon="6.71169">
        <ele>2324.6308319665</ele>
        <time>2021-07-10T11:59:32Z</time>
      </trkpt>
      <trkpt lat="44.109" lon="6.7117">
        <ele>2325.6308045673</ele>
        <time>2021-07-10T11:59:36Z</time>
      </trkpt>
      <trkpt lat="44.109" lon="6.71171">
        <ele>2326.6307635584</ele>
        <time>2021-07-10T11:59:38Z</time>
      </trkpt>
      <trkpt lat="44.10901" lon="6.71172">
        <ele>2327.6307449493</ele>
        <time>2021-07-10T11:59:40Z</time>
      </trkpt>
      <trkpt lat="44.109" lon="6.71173">
        <ele>2327.6307567458</ele>
        <time>2021-07-10T11:59:41Z</time>
      </trkpt>
      <trkpt lat="44.109" lon="6.71173">
        <ele>2327.6307567458</ele>
        <time>2021-07-10T11:59:48Z</time>
      </trkpt>
      <trkpt lat="44.109" lon="6.71176">
        <ele>2327.6306846422</ele>
        <time>2021-07-10T11:59:49Z</time>
      </trkpt>
      <trkpt lat="44.109" lon="6.71177">
        <ele>2327.630677091</ele>
        <time>2021-07-10T11:59:50Z</time>
      </trkpt>
      <trkpt lat="44.109" lon="6.71178">
        <ele>2326.63064283</ele>
        <time>2021-07-10T11:59:54Z</time>
      </trkpt>
      <trkpt lat="44.109" lon="6.71179">
        <ele>2326.6306296156</ele>
        <time>2021-07-10T11:59:56Z</time>
      </trkpt>
      <trkpt lat="44.10901" lon="6.7118">
        <ele>2324.6305879417</ele>
        <time>2021-07-10T11:59:58Z</time>
      </trkpt>
      <trkpt lat="44.10901" lon="6.71181">
        <ele>2325.6305742874</ele>
        <time>2021-07-10T12:00:00Z</time>
      </trkpt>
      <trkpt lat="44.10901" lon="6.71183">
        <ele>2325.6305412573</ele>
        <time>2021-07-10T12:00:02Z</time>
      </trkpt>
      <trkpt lat="44.10901" lon="6.71184">
        <ele>2326.6305343533</ele>
        <time>2021-07-10T12:00:05Z</time>
      </trkpt>
      <trkpt lat="44.10901" lon="6.71184">
        <ele>2326.6305056077</ele>
        <time>2021-07-10T12:00:06Z</time>
      </trkpt>
      <trkpt lat="44.10902" lon="6.71186">
        <ele>2327.6304543932</ele>
        <time>2021-07-10T12:00:08Z</time>
      </trkpt>
      <trkpt lat="44.10902" lon="6.71186">
        <ele>2327.6304351578</ele>
        <time>2021-07-10T12:00:09Z</time>
      </trkpt>
      <trkpt lat="44.10903" lon="6.71187">
        <ele>2328.630415534</ele>
        <time>2021-07-10T12:00:10Z</time>
      </trkpt>
      <trkpt lat="44.10903" lon="6.71187">
        <ele>2328.630402165</ele>
        <time>2021-07-10T12:00:16Z</time>
      </trkpt>
      <trkpt lat="44.10903" lon="6.71191">
        <ele>2330.6303380705</ele>
        <time>2021-07-10T12:00:18Z</time>
      </trkpt>
      <trkpt lat="44.10903" lon="6.71192">
        <ele>2329.6303044916</ele>
        <time>2021-07-10T12:00:20Z</time>
      </trkpt>
      <trkpt lat="44.10903" lon="6.71192">
        <ele>2329.6302934155</ele>
        <time>2021-07-10T12:00:22Z</time>
      </trkpt>
      <trkpt lat="44.10904" lon="6.71193">
        <ele>2330.6302679288</ele>
        <time>2021-07-10T12:00:25Z</time>
      </trkpt>
      <trkpt lat="44.10903" lon="6.71195">
        <ele>2330.6302494822</ele>
        <time>2021-07-10T12:00:26Z</time>
      </trkpt>
      <trkpt lat="44.10904" lon="6.71196">
        <ele>2330.6302258086</ele>
        <time>2021-07-10T12:00:28Z</time>
      </trkpt>
      <trkpt lat="44.10904" lon="6.71197">
        <ele>2330.6302118841</ele>
        <time>2021-07-10T12:00:31Z</time>
      </trkpt>
      <trkpt lat="44.10904" lon="6.71198">
        <ele>2332.6301674862</ele>
        <time>2021-07-10T12:00:32Z</time>
      </trkpt>
      <trkpt lat="44.10904" lon="6.71199">
        <ele>2333.6301592349</ele>
        <time>2021-07-10T12:00:33Z</time>
      </trkpt>
      <trkpt lat="44.10904" lon="6.712">
        <ele>2333.6301465575</ele>
        <time>2021-07-10T12:00:34Z</time>
      </trkpt>
      <trkpt lat="44.10904" lon="6.71201">
        <ele>2333.630126946</ele>
        <time>2021-07-10T12:00:36Z</time>
      </trkpt>
      <trkpt lat="44.10904" lon="6.71203">
        <ele>2335.6300800374</ele>
        <time>2021-07-10T12:00:38Z</time>
      </trkpt>
      <trkpt lat="44.10904" lon="6.71204">
        <ele>2335.630060417</ele>
        <time>2021-07-10T12:00:39Z</time>
      </trkpt>
      <trkpt lat="44.10904" lon="6.71204">
        <ele>2336.6300458255</ele>
        <time>2021-07-10T12:00:41Z</time>
      </trkpt>
      <trkpt lat="44.10904" lon="6.71205">
        <ele>2337.6300385707</ele>
        <time>2021-07-10T12:00:43Z</time>
      </trkpt>
      <trkpt lat="44.10904" lon="6.71206">
        <ele>2338.6300333883</ele>
        <time>2021-07-10T12:00:44Z</time>
      </trkpt>
      <trkpt lat="44.10904" lon="6.71208">
        <ele>2338.6299983361</ele>
        <time>2021-07-10T12:00:46Z</time>
      </trkpt>
      <trkpt lat="44.10904" lon="6.71208">
        <ele>2338.6300001419</ele>
        <time>2021-07-10T12:00:49Z</time>
      </trkpt>
      <trkpt lat="44.10905" lon="6.7121">
        <ele>2338.6299470158</ele>
        <time>2021-07-10T12:00:50Z</time>
      </trkpt>
      <trkpt lat="44.10905" lon="6.71211">
        <ele>2338.6299073127</ele>
        <time>2021-07-10T12:00:52Z</time>
      </trkpt>
      <trkpt lat="44.10905" lon="6.71212">
        <ele>2338.6298860292</ele>
        <time>2021-07-10T12:00:53Z</time>
      </trkpt>
      <trkpt lat="44.10905" lon="6.71212">
        <ele>2338.6298777187</ele>
        <time>2021-07-10T12:00:54Z</time>
      </trkpt>
      <trkpt lat="44.10905" lon="6.71213">
        <ele>2338.6298730126</ele>
        <time>2021-07-10T12:00:55Z</time>
      </trkpt>
      <trkpt lat="44.10905" lon="6.71214">
        <ele>2339.6298657265</ele>
        <time>2021-07-10T12:01:00Z</time>
      </trkpt>
      <trkpt lat="44.10905" lon="6.71217">
        <ele>2340.629804257</ele>
        <time>2021-07-10T12:01:01Z</time>
      </trkpt>
      <trkpt lat="44.10906" lon="6.71218">
        <ele>2341.6297682788</ele>
        <time>2021-07-10T12:01:03Z</time>
      </trkpt>
      <trkpt lat="44.10905" lon="6.71218">
        <ele>2340.6297734824</ele>
        <time>2021-07-10T12:01:05Z</time>
      </trkpt>
      <trkpt lat="44.10905" lon="6.71219">
        <ele>2340.629751465</ele>
        <time>2021-07-10T12:01:07Z</time>
      </trkpt>
      <trkpt lat="44.10905" lon="6.71221">
        <ele>2340.6297291399</ele>
        <time>2021-07-10T12:01:09Z</time>
      </trkpt>
      <trkpt lat="44.10905" lon="6.71221">
        <ele>2341.6297327723</ele>
        <time>2021-07-10T12:01:11Z</time>
      </trkpt>
      <trkpt lat="44.10906" lon="6.71223">
        <ele>2340.6296880901</ele>
        <time>2021-07-10T12:01:13Z</time>
      </trkpt>
      <trkpt lat="44.10905" lon="6.71224">
        <ele>2341.6296821932</ele>
        <time>2021-07-10T12:01:14Z</time>
      </trkpt>
      <trkpt lat="44.10906" lon="6.71225">
        <ele>2340.6296520197</ele>
        <time>2021-07-10T12:01:23Z</time>
      </trkpt>
      <trkpt lat="44.10906" lon="6.71228">
        <ele>2340.629577619</ele>
        <time>2021-07-10T12:01:24Z</time>
      </trkpt>
      <trkpt lat="44.10906" lon="6.71229">
        <ele>2340.6295554757</ele>
        <time>2021-07-10T12:01:25Z</time>
      </trkpt>
      <trkpt lat="44.10906" lon="6.71231">
        <ele>2341.6295239489</ele>
        <time>2021-07-10T12:01:27Z</time>
      </trkpt>
      <trkpt lat="44.10906" lon="6.71231">
        <ele>2341.6295239489</ele>
        <time>2021-07-10T12:01:30Z</time>
      </trkpt>
      <trkpt lat="44.10905" lon="6.71232">
        <ele>2343.6295387228</ele>
        <time>2021-07-10T12:01:31Z</time>
      </trkpt>
      <trkpt lat="44.10905" lon="6.71233">
        <ele>2344.6295129499</ele>
        <time>2021-07-10T12:01:33Z</time>
      </trkpt>
      <trkpt lat="44.10906" lon="6.71234">
        <ele>2344.6294852417</ele>
        <time>2021-07-10T12:01:39Z</time>
      </trkpt>
      <trkpt lat="44.10907" lon="6.71236">
        <ele>2344.6294236431</ele>
        <time>2021-07-10T12:01:40Z</time>
      </trkpt>
      <trkpt lat="44.10907" lon="6.71237">
        <ele>2344.6293980999</ele>
        <time>2021-07-10T12:01:41Z</time>
      </trkpt>
      <trkpt lat="44.10907" lon="6.71238">
        <ele>2344.6293740119</ele>
        <time>2021-07-10T12:01:42Z</time>
      </trkpt>
      <trkpt lat="44.10907" lon="6.71239">
        <ele>2345.629350012</ele>
        <time>2021-07-10T12:01:43Z</time>
      </trkpt>
      <trkpt lat="44.10907" lon="6.7124">
        <ele>2347.6293281937</ele>
        <time>2021-07-10T12:01:47Z</time>
      </trkpt>
      <trkpt lat="44.10907" lon="6.71241">
        <ele>2346.6293011936</ele>
        <time>2021-07-10T12:01:48Z</time>
      </trkpt>
      <trkpt lat="44.10907" lon="6.71242">
        <ele>2346.6292991652</ele>
        <time>2021-07-10T12:01:49Z</time>
      </trkpt>
      <trkpt lat="44.10907" lon="6.71243">
        <ele>2347.6292800726</ele>
        <time>2021-07-10T12:01:51Z</time>
      </trkpt>
      <trkpt lat="44.10907" lon="6.71243">
        <ele>2347.6292800726</ele>
        <time>2021-07-10T12:01:54Z</time>
      </trkpt>
      <trkpt lat="44.10909" lon="6.71244">
        <ele>2348.6292137201</ele>
        <time>2021-07-10T12:01:55Z</time>
      </trkpt>
      <trkpt lat="44.10909" lon="6.71245">
        <ele>2348.6291760162</ele>
        <time>2021-07-10T12:01:57Z</time>
      </trkpt>
      <trkpt lat="44.10909" lon="6.71246">
        <ele>2350.6291550795</ele>
        <time>2021-07-10T12:01:59Z</time>
      </trkpt>
      <trkpt lat="44.10909" lon="6.71247">
        <ele>2350.6291519887</ele>
        <time>2021-07-10T12:02:01Z</time>
      </trkpt>
      <trkpt lat="44.1091" lon="6.71248">
        <ele>2350.6291087147</ele>
        <time>2021-07-10T12:02:03Z</time>
      </trkpt>
      <trkpt lat="44.1091" lon="6.71249">
        <ele>2351.629083301</ele>
        <time>2021-07-10T12:02:06Z</time>
      </trkpt>
      <trkpt lat="44.1091" lon="6.71251">
        <ele>2352.6290495779</ele>
        <time>2021-07-10T12:02:07Z</time>
      </trkpt>
      <trkpt lat="44.10911" lon="6.71251">
        <ele>2353.6290272616</ele>
        <time>2021-07-10T12:02:12Z</time>
      </trkpt>
      <trkpt lat="44.10911" lon="6.71253">
        <ele>2354.6289804267</ele>
        <time>2021-07-10T12:02:13Z</time>
      </trkpt>
      <trkpt lat="44.10911" lon="6.71254">
        <ele>2355.6289648094</ele>
        <time>2021-07-10T12:02:14Z</time>
      </trkpt>
      <trkpt lat="44.10911" lon="6.71255">
        <ele>2356.6289402552</ele>
        <time>2021-07-10T12:02:17Z</time>
      </trkpt>
      <trkpt lat="44.10911" lon="6.71256">
        <ele>2356.6289196589</ele>
        <time>2021-07-10T12:02:18Z</time>
      </trkpt>
      <trkpt lat="44.10911" lon="6.71256">
        <ele>2357.6289084674</ele>
        <time>2021-07-10T12:02:19Z</time>
      </trkpt>
      <trkpt lat="44.10912" lon="6.71257">
        <ele>2357.6288783071</ele>
        <time>2021-07-10T12:02:21Z</time>
      </trkpt>
      <trkpt lat="44.10911" lon="6.71258">
        <ele>2358.6288761571</ele>
        <time>2021-07-10T12:02:23Z</time>
      </trkpt>
      <trkpt lat="44.10911" lon="6.71261">
        <ele>2359.6288385907</ele>
        <time>2021-07-10T12:02:25Z</time>
      </trkpt>
      <trkpt lat="44.10911" lon="6.71263">
        <ele>2358.6288039</ele>
        <time>2021-07-10T12:02:27Z</time>
      </trkpt>
      <trkpt lat="44.10911" lon="6.71263">
        <ele>2358.6288046545</ele>
        <time>2021-07-10T12:02:35Z</time>
      </trkpt>
      <trkpt lat="44.10912" lon="6.71267">
        <ele>2357.6286904683</ele>
        <time>2021-07-10T12:02:36Z</time>
      </trkpt>
      <trkpt lat="44.10912" lon="6.71268">
        <ele>2357.6286706026</ele>
        <time>2021-07-10T12:02:37Z</time>
      </trkpt>
      <trkpt lat="44.10913" lon="6.71269">
        <ele>2357.6286445437</ele>
        <time>2021-07-10T12:02:40Z</time>
      </trkpt>
      <trkpt lat="44.10913" lon="6.7127">
        <ele>2358.6286220292</ele>
        <time>2021-07-10T12:02:41Z</time>
      </trkpt>
      <trkpt lat="44.10913" lon="6.71271">
        <ele>2358.6285975813</ele>
        <time>2021-07-10T12:02:46Z</time>
      </trkpt>
      <trkpt lat="44.10914" lon="6.71272">
        <ele>2357.6285644563</ele>
        <time>2021-07-10T12:02:47Z</time>
      </trkpt>
      <trkpt lat="44.10914" lon="6.71272">
        <ele>2357.6285543611</ele>
        <time>2021-07-10T12:02:50Z</time>
      </trkpt>
      <trkpt lat="44.10913" lon="6.71273">
        <ele>2359.6285565054</ele>
        <time>2021-07-10T12:02:51Z</time>
      </trkpt>
      <trkpt lat="44.10913" lon="6.71274">
        <ele>2360.6285288886</ele>
        <time>2021-07-10T12:02:55Z</time>
      </trkpt>
      <trkpt lat="44.10913" lon="6.71275">
        <ele>2362.6285268017</ele>
        <time>2021-07-10T12:02:56Z</time>
      </trkpt>
      <trkpt lat="44.10913" lon="6.71276">
        <ele>2361.628516316</ele>
        <time>2021-07-10T12:02:57Z</time>
      </trkpt>
      <trkpt lat="44.10913" lon="6.71277">
        <ele>2362.6284828114</ele>
        <time>2021-07-10T12:03:01Z</time>
      </trkpt>
      <trkpt lat="44.10914" lon="6.71278">
        <ele>2362.6284429711</ele>
        <time>2021-07-10T12:03:02Z</time>
      </trkpt>
      <trkpt lat="44.10914" lon="6.71279">
        <ele>2364.6284205264</ele>
        <time>2021-07-10T12:03:07Z</time>
      </trkpt>
      <trkpt lat="44.10915" lon="6.71281">
        <ele>2365.6283611511</ele>
        <time>2021-07-10T12:03:08Z</time>
      </trkpt>
      <trkpt lat="44.10915" lon="6.71282">
        <ele>2366.6283304488</ele>
        <time>2021-07-10T12:03:09Z</time>
      </trkpt>
      <trkpt lat="44.10915" lon="6.71283">
        <ele>2366.6283056299</ele>
        <time>2021-07-10T12:03:10Z</time>
      </trkpt>
      <trkpt lat="44.10916" lon="6.71284">
        <ele>2365.6282748494</ele>
        <time>2021-07-10T12:03:14Z</time>
      </trkpt>
      <trkpt lat="44.10916" lon="6.71285">
        <ele>2365.6282289092</ele>
        <time>2021-07-10T12:03:16Z</time>
      </trkpt>
      <trkpt lat="44.10916" lon="6.71286">
        <ele>2365.6282215998</ele>
        <time>2021-07-10T12:03:18Z</time>
      </trkpt>
      <trkpt lat="44.10917" lon="6.71287">
        <ele>2366.6281977041</ele>
        <time>2021-07-10T12:03:20Z</time>
      </trkpt>
      <trkpt lat="44.10917" lon="6.71288">
        <ele>2366.6281540315</ele>
        <time>2021-07-10T12:03:22Z</time>
      </trkpt>
      <trkpt lat="44.10917" lon="6.71289">
        <ele>2366.6281286695</ele>
        <time>2021-07-10T12:03:23Z</time>
      </trkpt>
      <trkpt lat="44.10917" lon="6.7129">
        <ele>2366.6281133218</ele>
        <time>2021-07-10T12:03:24Z</time>
      </trkpt>
      <trkpt lat="44.10917" lon="6.71291">
        <ele>2366.628103212</ele>
        <time>2021-07-10T12:03:26Z</time>
      </trkpt>
      <trkpt lat="44.10916" lon="6.71292">
        <ele>2367.6281059002</ele>
        <time>2021-07-10T12:03:28Z</time>
      </trkpt>
      <trkpt lat="44.10916" lon="6.71293">
        <ele>2367.628104425</ele>
        <time>2021-07-10T12:03:29Z</time>
      </trkpt>
      <trkpt lat="44.10916" lon="6.71294">
        <ele>2368.6280944377</ele>
        <time>2021-07-10T12:03:30Z</time>
      </trkpt>
      <trkpt lat="44.10916" lon="6.71295">
        <ele>2368.6280796013</ele>
        <time>2021-07-10T12:03:33Z</time>
      </trkpt>
      <trkpt lat="44.10916" lon="6.71297">
        <ele>2369.6280320994</ele>
        <time>2021-07-10T12:03:34Z</time>
      </trkpt>
      <trkpt lat="44.10916" lon="6.71298">
        <ele>2369.6280102365</ele>
        <time>2021-07-10T12:03:35Z</time>
      </trkpt>
      <trkpt lat="44.10917" lon="6.71299">
        <ele>2369.627990923</ele>
        <time>2021-07-10T12:03:36Z</time>
      </trkpt>
      <trkpt lat="44.10917" lon="6.71299">
        <ele>2369.6279753941</ele>
        <time>2021-07-10T12:03:41Z</time>
      </trkpt>
      <trkpt lat="44.10916" lon="6.71301">
        <ele>2370.6279814074</ele>
        <time>2021-07-10T12:03:42Z</time>
      </trkpt>
      <trkpt lat="44.10915" lon="6.71302">
        <ele>2370.6279755526</ele>
        <time>2021-07-10T12:03:43Z</time>
      </trkpt>
      <trkpt lat="44.10916" lon="6.71302">
        <ele>2370.6279564386</ele>
        <time>2021-07-10T12:03:52Z</time>
      </trkpt>
      <trkpt lat="44.10916" lon="6.71306">
        <ele>2370.6278870599</ele>
        <time>2021-07-10T12:03:53Z</time>
      </trkpt>
      <trkpt lat="44.10915" lon="6.71307">
        <ele>2369.6278817146</ele>
        <time>2021-07-10T12:03:54Z</time>
      </trkpt>
      <trkpt lat="44.10916" lon="6.71308">
        <ele>2370.6278601124</ele>
        <time>2021-07-10T12:03:55Z</time>
      </trkpt>
      <trkpt lat="44.10916" lon="6.71309">
        <ele>2370.6278521899</ele>
        <time>2021-07-10T12:03:58Z</time>
      </trkpt>
      <trkpt lat="44.10915" lon="6.71311">
        <ele>2371.6278353337</ele>
        <time>2021-07-10T12:03:59Z</time>
      </trkpt>
      <trkpt lat="44.10915" lon="6.71312">
        <ele>2371.6278119301</ele>
        <time>2021-07-10T12:04:00Z</time>
      </trkpt>
      <trkpt lat="44.10915" lon="6.71313">
        <ele>2372.6278007817</ele>
        <time>2021-07-10T12:04:01Z</time>
      </trkpt>
      <trkpt lat="44.10915" lon="6.71313">
        <ele>2372.6277855296</ele>
        <time>2021-07-10T12:04:06Z</time>
      </trkpt>
      <trkpt lat="44.10916" lon="6.71315">
        <ele>2372.6277337272</ele>
        <time>2021-07-10T12:04:07Z</time>
      </trkpt>
      <trkpt lat="44.10915" lon="6.71316">
        <ele>2373.6277176073</ele>
        <time>2021-07-10T12:04:08Z</time>
      </trkpt>
      <trkpt lat="44.10915" lon="6.71317">
        <ele>2373.6277114573</ele>
        <time>2021-07-10T12:04:09Z</time>
      </trkpt>
      <trkpt lat="44.10915" lon="6.71318">
        <ele>2373.6277063323</ele>
        <time>2021-07-10T12:04:12Z</time>
      </trkpt>
      <trkpt lat="44.10915" lon="6.71319">
        <ele>2373.6277028434</ele>
        <time>2021-07-10T12:04:13Z</time>
      </trkpt>
      <trkpt lat="44.10915" lon="6.7132">
        <ele>2373.6276932401</ele>
        <time>2021-07-10T12:04:15Z</time>
      </trkpt>
      <trkpt lat="44.10914" lon="6.71321">
        <ele>2373.6276639244</ele>
        <time>2021-07-10T12:04:16Z</time>
      </trkpt>
      <trkpt lat="44.10914" lon="6.71321">
        <ele>2373.6276639244</ele>
        <time>2021-07-10T12:04:21Z</time>
      </trkpt>
      <trkpt lat="44.10914" lon="6.71323">
        <ele>2374.6276650456</ele>
        <time>2021-07-10T12:04:22Z</time>
      </trkpt>
      <trkpt lat="44.10914" lon="6.71324">
        <ele>2374.6276567657</ele>
        <time>2021-07-10T12:04:23Z</time>
      </trkpt>
      <trkpt lat="44.10914" lon="6.71324">
        <ele>2374.6276420775</ele>
        <time>2021-07-10T12:04:25Z</time>
      </trkpt>
      <trkpt lat="44.10913" lon="6.71325">
        <ele>2374.6276343807</ele>
        <time>2021-07-10T12:04:29Z</time>
      </trkpt>
      <trkpt lat="44.10913" lon="6.71327">
        <ele>2375.6276216886</ele>
        <time>2021-07-10T12:04:30Z</time>
      </trkpt>
      <trkpt lat="44.10913" lon="6.71328">
        <ele>2375.6275920929</ele>
        <time>2021-07-10T12:04:32Z</time>
      </trkpt>
      <trkpt lat="44.10914" lon="6.71328">
        <ele>2376.6275739015</ele>
        <time>2021-07-10T12:04:35Z</time>
      </trkpt>
      <trkpt lat="44.10914" lon="6.7133">
        <ele>2377.6275478425</ele>
        <time>2021-07-10T12:04:37Z</time>
      </trkpt>
      <trkpt lat="44.10914" lon="6.71331">
        <ele>2380.627515477</ele>
        <time>2021-07-10T12:04:41Z</time>
      </trkpt>
      <trkpt lat="44.10915" lon="6.71331">
        <ele>2382.6274807485</ele>
        <time>2021-07-10T12:04:43Z</time>
      </trkpt>
      <trkpt lat="44.10915" lon="6.71332">
        <ele>2381.6274614866</ele>
        <time>2021-07-10T12:04:47Z</time>
      </trkpt>
      <trkpt lat="44.10915" lon="6.71333">
        <ele>2382.6274346629</ele>
        <time>2021-07-10T12:04:49Z</time>
      </trkpt>
      <trkpt lat="44.10915" lon="6.71334">
        <ele>2382.6274188835</ele>
        <time>2021-07-10T12:04:50Z</time>
      </trkpt>
      <trkpt lat="44.10915" lon="6.71335">
        <ele>2383.6273981401</ele>
        <time>2021-07-10T12:04:51Z</time>
      </trkpt>
      <trkpt lat="44.10916" lon="6.71335">
        <ele>2383.6273754498</ele>
        <time>2021-07-10T12:04:57Z</time>
      </trkpt>
      <trkpt lat="44.10916" lon="6.71338">
        <ele>2383.6273177829</ele>
        <time>2021-07-10T12:04:58Z</time>
      </trkpt>
      <trkpt lat="44.10917" lon="6.71339">
        <ele>2384.6272929077</ele>
        <time>2021-07-10T12:05:03Z</time>
      </trkpt>
      <trkpt lat="44.10916" lon="6.71341">
        <ele>2385.6272740022</ele>
        <time>2021-07-10T12:05:04Z</time>
      </trkpt>
      <trkpt lat="44.10916" lon="6.71341">
        <ele>2384.6272522224</ele>
        <time>2021-07-10T12:05:05Z</time>
      </trkpt>
      <trkpt lat="44.10917" lon="6.71342">
        <ele>2385.627232327</ele>
        <time>2021-07-10T12:05:06Z</time>
      </trkpt>
      <trkpt lat="44.10916" lon="6.71343">
        <ele>2385.6272271178</ele>
        <time>2021-07-10T12:05:08Z</time>
      </trkpt>
      <trkpt lat="44.10916" lon="6.71344">
        <ele>2385.6272179572</ele>
        <time>2021-07-10T12:05:14Z</time>
      </trkpt>
      <trkpt lat="44.10916" lon="6.71346">
        <ele>2385.6271912798</ele>
        <time>2021-07-10T12:05:15Z</time>
      </trkpt>
      <trkpt lat="44.10916" lon="6.71346">
        <ele>2385.6271737551</ele>
        <time>2021-07-10T12:05:23Z</time>
      </trkpt>
      <trkpt lat="44.10916" lon="6.71348">
        <ele>2386.6271455818</ele>
        <time>2021-07-10T12:05:24Z</time>
      </trkpt>
      <trkpt lat="44.10916" lon="6.71349">
        <ele>2385.6271232448</ele>
        <time>2021-07-10T12:05:26Z</time>
      </trkpt>
      <trkpt lat="44.10916" lon="6.7135">
        <ele>2387.6271201107</ele>
        <time>2021-07-10T12:05:30Z</time>
      </trkpt>
      <trkpt lat="44.10915" lon="6.7135">
        <ele>2388.6271277223</ele>
        <time>2021-07-10T12:05:35Z</time>
      </trkpt>
      <trkpt lat="44.10915" lon="6.71353">
        <ele>2387.6270828042</ele>
        <time>2021-07-10T12:05:36Z</time>
      </trkpt>
      <trkpt lat="44.10916" lon="6.71354">
        <ele>2387.6270544581</ele>
        <time>2021-07-10T12:05:42Z</time>
      </trkpt>
      <trkpt lat="44.10917" lon="6.71355">
        <ele>2387.62698916</ele>
        <time>2021-07-10T12:05:43Z</time>
      </trkpt>
      <trkpt lat="44.10917" lon="6.71356">
        <ele>2387.6269594125</ele>
        <time>2021-07-10T12:05:44Z</time>
      </trkpt>
      <trkpt lat="44.10917" lon="6.71357">
        <ele>2387.6269386958</ele>
        <time>2021-07-10T12:05:46Z</time>
      </trkpt>
      <trkpt lat="44.10917" lon="6.71358">
        <ele>2388.6269216647</ele>
        <time>2021-07-10T12:05:47Z</time>
      </trkpt>
      <trkpt lat="44.10918" lon="6.7136">
        <ele>2388.6268686381</ele>
        <time>2021-07-10T12:05:49Z</time>
      </trkpt>
      <trkpt lat="44.10919" lon="6.71361">
        <ele>2389.6268385106</ele>
        <time>2021-07-10T12:05:52Z</time>
      </trkpt>
      <trkpt lat="44.10918" lon="6.71361">
        <ele>2390.6268388284</ele>
        <time>2021-07-10T12:05:54Z</time>
      </trkpt>
      <trkpt lat="44.10918" lon="6.71362">
        <ele>2392.6268261501</ele>
        <time>2021-07-10T12:05:56Z</time>
      </trkpt>
      <trkpt lat="44.10918" lon="6.71362">
        <ele>2394.6268279933</ele>
        <time>2021-07-10T12:06:01Z</time>
      </trkpt>
      <trkpt lat="44.10918" lon="6.71364">
        <ele>2394.6268001616</ele>
        <time>2021-07-10T12:06:02Z</time>
      </trkpt>
      <trkpt lat="44.10918" lon="6.71365">
        <ele>2394.6267936921</ele>
        <time>2021-07-10T12:06:03Z</time>
      </trkpt>
      <trkpt lat="44.10917" lon="6.71366">
        <ele>2394.6267930797</ele>
        <time>2021-07-10T12:06:11Z</time>
      </trkpt>
      <trkpt lat="44.10918" lon="6.71369">
        <ele>2395.626712763</ele>
        <time>2021-07-10T12:06:13Z</time>
      </trkpt>
      <trkpt lat="44.10918" lon="6.7137">
        <ele>2396.6266940467</ele>
        <time>2021-07-10T12:06:14Z</time>
      </trkpt>
      <trkpt lat="44.10919" lon="6.7137">
        <ele>2396.6266754144</ele>
        <time>2021-07-10T12:06:17Z</time>
      </trkpt>
      <trkpt lat="44.1092" lon="6.71371">
        <ele>2398.6266183133</ele>
        <time>2021-07-10T12:06:19Z</time>
      </trkpt>
      <trkpt lat="44.1092" lon="6.71371">
        <ele>2399.6265997265</ele>
        <time>2021-07-10T12:06:25Z</time>
      </trkpt>
      <trkpt lat="44.10921" lon="6.71374">
        <ele>2400.6265378355</ele>
        <time>2021-07-10T12:06:28Z</time>
      </trkpt>
      <trkpt lat="44.1092" lon="6.71375">
        <ele>2400.6265199206</ele>
        <time>2021-07-10T12:06:29Z</time>
      </trkpt>
      <trkpt lat="44.1092" lon="6.71375">
        <ele>2400.6265199206</ele>
        <time>2021-07-10T12:06:32Z</time>
      </trkpt>
      <trkpt lat="44.1092" lon="6.71377">
        <ele>2400.626503191</ele>
        <time>2021-07-10T12:06:33Z</time>
      </trkpt>
      <trkpt lat="44.10919" lon="6.71377">
        <ele>2400.626515255</ele>
        <time>2021-07-10T12:06:34Z</time>
      </trkpt>
      <trkpt lat="44.10919" lon="6.71379">
        <ele>2400.6265172755</ele>
        <time>2021-07-10T12:06:35Z</time>
      </trkpt>
      <trkpt lat="44.10919" lon="6.71379">
        <ele>2400.6265172755</ele>
        <time>2021-07-10T12:06:45Z</time>
      </trkpt>
      <trkpt lat="44.10919" lon="6.71382">
        <ele>2401.6264567872</ele>
        <time>2021-07-10T12:06:46Z</time>
      </trkpt>
      <trkpt lat="44.10919" lon="6.71383">
        <ele>2402.6264418388</ele>
        <time>2021-07-10T12:06:49Z</time>
      </trkpt>
      <trkpt lat="44.10919" lon="6.71384">
        <ele>2401.6264306309</ele>
        <time>2021-07-10T12:06:50Z</time>
      </trkpt>
      <trkpt lat="44.10918" lon="6.71384">
        <ele>2402.6264485283</ele>
        <time>2021-07-10T12:06:52Z</time>
      </trkpt>
      <trkpt lat="44.10918" lon="6.71385">
        <ele>2403.6264367046</ele>
        <time>2021-07-10T12:06:56Z</time>
      </trkpt>
      <trkpt lat="44.10918" lon="6.71387">
        <ele>2404.626378721</ele>
        <time>2021-07-10T12:06:58Z</time>
      </trkpt>
      <trkpt lat="44.10918" lon="6.71388">
        <ele>2404.6263553951</ele>
        <time>2021-07-10T12:06:59Z</time>
      </trkpt>
      <trkpt lat="44.10918" lon="6.71389">
        <ele>2404.6263406119</ele>
        <time>2021-07-10T12:07:10Z</time>
      </trkpt>
      <trkpt lat="44.10919" lon="6.71393">
        <ele>2405.6262544689</ele>
        <time>2021-07-10T12:07:11Z</time>
      </trkpt>
      <trkpt lat="44.10919" lon="6.71394">
        <ele>2407.6262305216</ele>
        <time>2021-07-10T12:07:12Z</time>
      </trkpt>
      <trkpt lat="44.10919" lon="6.71394">
        <ele>2407.6262389951</ele>
        <time>2021-07-10T12:07:15Z</time>
      </trkpt>
      <trkpt lat="44.10918" lon="6.71395">
        <ele>2407.62625885</ele>
        <time>2021-07-10T12:07:16Z</time>
      </trkpt>
      <trkpt lat="44.10918" lon="6.71395">
        <ele>2408.626254617</ele>
        <time>2021-07-10T12:07:17Z</time>
      </trkpt>
      <trkpt lat="44.10918" lon="6.71396">
        <ele>2409.6262260865</ele>
        <time>2021-07-10T12:07:19Z</time>
      </trkpt>
      <trkpt lat="44.10918" lon="6.71397">
        <ele>2410.6262281958</ele>
        <time>2021-07-10T12:07:22Z</time>
      </trkpt>
      <trkpt lat="44.10918" lon="6.71398">
        <ele>2409.6262091383</ele>
        <time>2021-07-10T12:07:25Z</time>
      </trkpt>
      <trkpt lat="44.10919" lon="6.71398">
        <ele>2410.6261811559</ele>
        <time>2021-07-10T12:07:26Z</time>
      </trkpt>
      <trkpt lat="44.10919" lon="6.71398">
        <ele>2410.6261766902</ele>
        <time>2021-07-10T12:07:31Z</time>
      </trkpt>
      <trkpt lat="44.1092" lon="6.71399">
        <ele>2411.626125611</ele>
        <time>2021-07-10T12:07:32Z</time>
      </trkpt>
      <trkpt lat="44.1092" lon="6.71398">
        <ele>2411.6261242411</ele>
        <time>2021-07-10T12:07:33Z</time>
      </trkpt>
      <trkpt lat="44.10921" lon="6.71399">
        <ele>2412.6260910638</ele>
        <time>2021-07-10T12:07:38Z</time>
      </trkpt>
      <trkpt lat="44.10921" lon="6.71399">
        <ele>2412.6260647671</ele>
        <time>2021-07-10T12:07:40Z</time>
      </trkpt>
      <trkpt lat="44.10922" lon="6.71399">
        <ele>2412.6260495568</ele>
        <time>2021-07-10T12:07:41Z</time>
      </trkpt>
      <trkpt lat="44.10922" lon="6.714">
        <ele>2412.6260283509</ele>
        <time>2021-07-10T12:07:42Z</time>
      </trkpt>
      <trkpt lat="44.10922" lon="6.71402">
        <ele>2411.6259970428</ele>
        <time>2021-07-10T12:07:43Z</time>
      </trkpt>
      <trkpt lat="44.10923" lon="6.71402">
        <ele>2410.6259820554</ele>
        <time>2021-07-10T12:07:47Z</time>
      </trkpt>
      <trkpt lat="44.10924" lon="6.714">
        <ele>2411.625979558</ele>
        <time>2021-07-10T12:07:48Z</time>
      </trkpt>
      <trkpt lat="44.10924" lon="6.714">
        <ele>2413.6259603121</ele>
        <time>2021-07-10T12:07:51Z</time>
      </trkpt>
      <trkpt lat="44.10925" lon="6.71399">
        <ele>2414.6259545373</ele>
        <time>2021-07-10T12:07:52Z</time>
      </trkpt>
      <trkpt lat="44.10925" lon="6.714">
        <ele>2414.6259257357</ele>
        <time>2021-07-10T12:07:53Z</time>
      </trkpt>
      <trkpt lat="44.10926" lon="6.71399">
        <ele>2416.6259231415</ele>
        <time>2021-07-10T12:07:57Z</time>
      </trkpt>
      <trkpt lat="44.10925" lon="6.71399">
        <ele>2413.6259385611</ele>
        <time>2021-07-10T12:08:03Z</time>
      </trkpt>
      <trkpt lat="44.10925" lon="6.71399">
        <ele>2413.625964503</ele>
        <time>2021-07-10T12:08:46Z</time>
      </trkpt>
      <trkpt lat="44.10924" lon="6.71398">
        <ele>2410.6260016599</ele>
        <time>2021-07-10T12:08:58Z</time>
      </trkpt>
      <trkpt lat="44.10924" lon="6.71399">
        <ele>2410.6259965755</ele>
        <time>2021-07-10T12:08:59Z</time>
      </trkpt>
      <trkpt lat="44.10925" lon="6.714">
        <ele>2410.6259528654</ele>
        <time>2021-07-10T12:09:00Z</time>
      </trkpt>
      <trkpt lat="44.10925" lon="6.714">
        <ele>2410.6259250122</ele>
        <time>2021-07-10T12:09:02Z</time>
      </trkpt>
      <trkpt lat="44.10925" lon="6.71399">
        <ele>2409.6259272917</ele>
        <time>2021-07-10T12:09:15Z</time>
      </trkpt>
      <trkpt lat="44.10924" lon="6.714">
        <ele>2411.6259672299</ele>
        <time>2021-07-10T12:09:16Z</time>
      </trkpt>
      <trkpt lat="44.10924" lon="6.71399">
        <ele>2412.6259819485</ele>
        <time>2021-07-10T12:09:18Z</time>
      </trkpt>
      <trkpt lat="44.10924" lon="6.71398">
        <ele>2412.6259824948</ele>
        <time>2021-07-10T12:09:19Z</time>
      </trkpt>
      <trkpt lat="44.10925" lon="6.71398">
        <ele>2412.6259653341</ele>
        <time>2021-07-10T12:09:20Z</time>
      </trkpt>
      <trkpt lat="44.10926" lon="6.71398">
        <ele>2413.625947627</ele>
        <time>2021-07-10T12:09:21Z</time>
      </trkpt>
      <trkpt lat="44.10926" lon="6.71397">
        <ele>2413.625930882</ele>
        <time>2021-07-10T12:09:22Z</time>
      </trkpt>
      <trkpt lat="44.10927" lon="6.71397">
        <ele>2413.6258933179</ele>
        <time>2021-07-10T12:09:23Z</time>
      </trkpt>
      <trkpt lat="44.10929" lon="6.71397">
        <ele>2412.6258592439</ele>
        <time>2021-07-10T12:09:24Z</time>
      </trkpt>
      <trkpt lat="44.1093" lon="6.71397">
        <ele>2413.625824837</ele>
        <time>2021-07-10T12:09:25Z</time>
      </trkpt>
      <trkpt lat="44.10931" lon="6.71397">
        <ele>2412.6257889645</ele>
        <time>2021-07-10T12:09:26Z</time>
      </trkpt>
      <trkpt lat="44.10932" lon="6.71397">
        <ele>2412.6257530451</ele>
        <time>2021-07-10T12:09:27Z</time>
      </trkpt>
      <trkpt lat="44.10933" lon="6.71397">
        <ele>2412.6257179557</ele>
        <time>2021-07-10T12:09:28Z</time>
      </trkpt>
      <trkpt lat="44.10934" lon="6.71397">
        <ele>2413.6256917073</ele>
        <time>2021-07-10T12:09:29Z</time>
      </trkpt>
      <trkpt lat="44.10934" lon="6.71396">
        <ele>2413.6256755413</ele>
        <time>2021-07-10T12:09:30Z</time>
      </trkpt>
      <trkpt lat="44.10935" lon="6.71396">
        <ele>2413.6256464421</ele>
        <time>2021-07-10T12:09:31Z</time>
      </trkpt>
      <trkpt lat="44.10936" lon="6.71396">
        <ele>2413.6256207161</ele>
        <time>2021-07-10T12:09:32Z</time>
      </trkpt>
      <trkpt lat="44.10937" lon="6.71397">
        <ele>2413.6255773924</ele>
        <time>2021-07-10T12:09:34Z</time>
      </trkpt>
      <trkpt lat="44.10937" lon="6.71396">
        <ele>2414.6255838816</ele>
        <time>2021-07-10T12:09:35Z</time>
      </trkpt>
      <trkpt lat="44.10937" lon="6.71396">
        <ele>2414.625586937</ele>
        <time>2021-07-10T12:09:36Z</time>
      </trkpt>
      <trkpt lat="44.10936" lon="6.71395">
        <ele>2413.6256446981</ele>
        <time>2021-07-10T12:09:38Z</time>
      </trkpt>
      <trkpt lat="44.10935" lon="6.71395">
        <ele>2413.6256729258</ele>
        <time>2021-07-10T12:09:46Z</time>
      </trkpt>
      <trkpt lat="44.10936" lon="6.71395">
        <ele>2412.6256388384</ele>
        <time>2021-07-10T12:10:04Z</time>
      </trkpt>
      <trkpt lat="44.10937" lon="6.71396">
        <ele>2412.6255887155</ele>
        <time>2021-07-10T12:10:05Z</time>
      </trkpt>
      <trkpt lat="44.10938" lon="6.71396">
        <ele>2412.6255546806</ele>
        <time>2021-07-10T12:10:07Z</time>
      </trkpt>
      <trkpt lat="44.10939" lon="6.71396">
        <ele>2412.6255285607</ele>
        <time>2021-07-10T12:10:08Z</time>
      </trkpt>
      <trkpt lat="44.10939" lon="6.71395">
        <ele>2411.6255272813</ele>
        <time>2021-07-10T12:10:09Z</time>
      </trkpt>
      <trkpt lat="44.1094" lon="6.71395">
        <ele>2411.6255098752</ele>
        <time>2021-07-10T12:10:10Z</time>
      </trkpt>
      <trkpt lat="44.10941" lon="6.71395">
        <ele>2411.6254786198</ele>
        <time>2021-07-10T12:10:11Z</time>
      </trkpt>
      <trkpt lat="44.10942" lon="6.71395">
        <ele>2411.6254373518</ele>
        <time>2021-07-10T12:10:13Z</time>
      </trkpt>
      <trkpt lat="44.10944" lon="6.71394">
        <ele>2412.6253753089</ele>
        <time>2021-07-10T12:10:14Z</time>
      </trkpt>
      <trkpt lat="44.10945" lon="6.71395">
        <ele>2413.625351288</ele>
        <time>2021-07-10T12:10:15Z</time>
      </trkpt>
      <trkpt lat="44.10946" lon="6.71394">
        <ele>2413.6253174843</ele>
        <time>2021-07-10T12:10:16Z</time>
      </trkpt>
      <trkpt lat="44.10948" lon="6.71394">
        <ele>2413.6252657697</ele>
        <time>2021-07-10T12:10:18Z</time>
      </trkpt>
      <trkpt lat="44.10948" lon="6.71393">
        <ele>2413.625260488</ele>
        <time>2021-07-10T12:10:19Z</time>
      </trkpt>
      <trkpt lat="44.10949" lon="6.71393">
        <ele>2413.6252443172</ele>
        <time>2021-07-10T12:10:21Z</time>
      </trkpt>
      <trkpt lat="44.10949" lon="6.71391">
        <ele>2413.6252519948</ele>
        <time>2021-07-10T12:10:23Z</time>
      </trkpt>
      <trkpt lat="44.1095" lon="6.71392">
        <ele>2413.6252225145</ele>
        <time>2021-07-10T12:10:25Z</time>
      </trkpt>
      <trkpt lat="44.10951" lon="6.71392">
        <ele>2413.6251736724</ele>
        <time>2021-07-10T12:10:26Z</time>
      </trkpt>
      <trkpt lat="44.10952" lon="6.71391">
        <ele>2413.6251560503</ele>
        <time>2021-07-10T12:10:27Z</time>
      </trkpt>
      <trkpt lat="44.10953" lon="6.71391">
        <ele>2413.625137432</ele>
        <time>2021-07-10T12:10:28Z</time>
      </trkpt>
      <trkpt lat="44.10953" lon="6.71391">
        <ele>2413.625116281</ele>
        <time>2021-07-10T12:10:29Z</time>
      </trkpt>
      <trkpt lat="44.10954" lon="6.71391">
        <ele>2413.6250864528</ele>
        <time>2021-07-10T12:10:31Z</time>
      </trkpt>
      <trkpt lat="44.10955" lon="6.71392">
        <ele>2414.6250584033</ele>
        <time>2021-07-10T12:10:32Z</time>
      </trkpt>
      <trkpt lat="44.10955" lon="6.71392">
        <ele>2414.6250277144</ele>
        <time>2021-07-10T12:10:38Z</time>
      </trkpt>
      <trkpt lat="44.10958" lon="6.71391">
        <ele>2414.624958439</ele>
        <time>2021-07-10T12:10:39Z</time>
      </trkpt>
      <trkpt lat="44.10959" lon="6.71391">
        <ele>2414.624933858</ele>
        <time>2021-07-10T12:10:40Z</time>
      </trkpt>
      <trkpt lat="44.10959" lon="6.71391">
        <ele>2415.6249259079</ele>
        <time>2021-07-10T12:10:42Z</time>
      </trkpt>
      <trkpt lat="44.1096" lon="6.7139">
        <ele>2415.6248929112</ele>
        <time>2021-07-10T12:10:43Z</time>
      </trkpt>
      <trkpt lat="44.10961" lon="6.7139">
        <ele>2415.6248852834</ele>
        <time>2021-07-10T12:10:44Z</time>
      </trkpt>
      <trkpt lat="44.10961" lon="6.71389">
        <ele>2415.6248852748</ele>
        <time>2021-07-10T12:10:45Z</time>
      </trkpt>
      <trkpt lat="44.10961" lon="6.71388">
        <ele>2415.6248944169</ele>
        <time>2021-07-10T12:10:46Z</time>
      </trkpt>
      <trkpt lat="44.10962" lon="6.71388">
        <ele>2415.6248749593</ele>
        <time>2021-07-10T12:10:48Z</time>
      </trkpt>
      <trkpt lat="44.10963" lon="6.71388">
        <ele>2415.6248440241</ele>
        <time>2021-07-10T12:10:52Z</time>
      </trkpt>
      <trkpt lat="44.10965" lon="6.71387">
        <ele>2416.6247846627</ele>
        <time>2021-07-10T12:10:53Z</time>
      </trkpt>
      <trkpt lat="44.10965" lon="6.71387">
        <ele>2416.624775619</ele>
        <time>2021-07-10T12:11:02Z</time>
      </trkpt>
      <trkpt lat="44.10967" lon="6.71388">
        <ele>2417.6246976078</ele>
        <time>2021-07-10T12:11:04Z</time>
      </trkpt>
      <trkpt lat="44.10968" lon="6.71389">
        <ele>2417.624664449</ele>
        <time>2021-07-10T12:11:05Z</time>
      </trkpt>
      <trkpt lat="44.10969" lon="6.71389">
        <ele>2417.6246265049</ele>
        <time>2021-07-10T12:11:07Z</time>
      </trkpt>
      <trkpt lat="44.10969" lon="6.71389">
        <ele>2417.6245983308</ele>
        <time>2021-07-10T12:11:08Z</time>
      </trkpt>
      <trkpt lat="44.1097" lon="6.71389">
        <ele>2418.624578097</ele>
        <time>2021-07-10T12:11:13Z</time>
      </trkpt>
      <trkpt lat="44.10971" lon="6.7139">
        <ele>2419.6245258914</ele>
        <time>2021-07-10T12:11:14Z</time>
      </trkpt>
      <trkpt lat="44.10972" lon="6.71391">
        <ele>2418.6244881293</ele>
        <time>2021-07-10T12:11:15Z</time>
      </trkpt>
      <trkpt lat="44.10972" lon="6.71391">
        <ele>2418.624458873</ele>
        <time>2021-07-10T12:11:16Z</time>
      </trkpt>
      <trkpt lat="44.10973" lon="6.71392">
        <ele>2418.6244296379</ele>
        <time>2021-07-10T12:11:17Z</time>
      </trkpt>
      <trkpt lat="44.10974" lon="6.71392">
        <ele>2417.6244006755</ele>
        <time>2021-07-10T12:11:20Z</time>
      </trkpt>
      <trkpt lat="44.10975" lon="6.71392">
        <ele>2417.6243389804</ele>
        <time>2021-07-10T12:11:21Z</time>
      </trkpt>
      <trkpt lat="44.10976" lon="6.71392">
        <ele>2417.6243223359</ele>
        <time>2021-07-10T12:11:23Z</time>
      </trkpt>
      <trkpt lat="44.10976" lon="6.71392">
        <ele>2417.6243066477</ele>
        <time>2021-07-10T12:11:30Z</time>
      </trkpt>
      <trkpt lat="44.10977" lon="6.71393">
        <ele>2420.6242612814</ele>
        <time>2021-07-10T12:11:31Z</time>
      </trkpt>
      <trkpt lat="44.10978" lon="6.71394">
        <ele>2421.6242269967</ele>
        <time>2021-07-10T12:11:39Z</time>
      </trkpt>
      <trkpt lat="44.10977" lon="6.7139">
        <ele>2419.6243150498</ele>
        <time>2021-07-10T12:11:40Z</time>
      </trkpt>
      <trkpt lat="44.10978" lon="6.71389">
        <ele>2419.6243115102</ele>
        <time>2021-07-10T12:11:41Z</time>
      </trkpt>
      <trkpt lat="44.10978" lon="6.71389">
        <ele>2419.6242927822</ele>
        <time>2021-07-10T12:11:42Z</time>
      </trkpt>
      <trkpt lat="44.10979" lon="6.71389">
        <ele>2419.6242660859</ele>
        <time>2021-07-10T12:11:45Z</time>
      </trkpt>
      <trkpt lat="44.1098" lon="6.71389">
        <ele>2419.6242584649</ele>
        <time>2021-07-10T12:11:47Z</time>
      </trkpt>
      <trkpt lat="44.1098" lon="6.71388">
        <ele>2419.624246481</ele>
        <time>2021-07-10T12:11:57Z</time>
      </trkpt>
      <trkpt lat="44.10979" lon="6.71387">
        <ele>2419.6242997201</ele>
        <time>2021-07-10T12:11:59Z</time>
      </trkpt>
      <trkpt lat="44.10979" lon="6.71386">
        <ele>2419.6243123702</ele>
        <time>2021-07-10T12:12:02Z</time>
      </trkpt>
      <trkpt lat="44.10979" lon="6.71385">
        <ele>2420.6243279628</ele>
        <time>2021-07-10T12:12:04Z</time>
      </trkpt>
      <trkpt lat="44.1098" lon="6.71385">
        <ele>2420.6243140255</ele>
        <time>2021-07-10T12:12:05Z</time>
      </trkpt>
      <trkpt lat="44.1098" lon="6.71385">
        <ele>2421.6243055182</ele>
        <time>2021-07-10T12:12:09Z</time>
      </trkpt>
      <trkpt lat="44.10981" lon="6.71385">
        <ele>2422.6242786533</ele>
        <time>2021-07-10T12:12:10Z</time>
      </trkpt>
      <trkpt lat="44.10982" lon="6.71385">
        <ele>2422.6242528223</ele>
        <time>2021-07-10T12:12:11Z</time>
      </trkpt>
      <trkpt lat="44.10982" lon="6.71385">
        <ele>2422.6242448811</ele>
        <time>2021-07-10T12:12:19Z</time>
      </trkpt>
      <trkpt lat="44.10984" lon="6.71385">
        <ele>2422.6241834519</ele>
        <time>2021-07-10T12:12:20Z</time>
      </trkpt>
      <trkpt lat="44.10984" lon="6.71386">
        <ele>2422.6241569647</ele>
        <time>2021-07-10T12:12:21Z</time>
      </trkpt>
      <trkpt lat="44.10984" lon="6.71387">
        <ele>2422.6241321094</ele>
        <time>2021-07-10T12:12:22Z</time>
      </trkpt>
      <trkpt lat="44.10985" lon="6.71386">
        <ele>2423.6241050601</ele>
        <time>2021-07-10T12:12:25Z</time>
      </trkpt>
      <trkpt lat="44.10986" lon="6.71386">
        <ele>2423.6240941</ele>
        <time>2021-07-10T12:12:26Z</time>
      </trkpt>
      <trkpt lat="44.10987" lon="6.71385">
        <ele>2424.6240721226</ele>
        <time>2021-07-10T12:12:27Z</time>
      </trkpt>
      <trkpt lat="44.10988" lon="6.71385">
        <ele>2424.6240415489</ele>
        <time>2021-07-10T12:12:29Z</time>
      </trkpt>
      <trkpt lat="44.10988" lon="6.71385">
        <ele>2424.6240415489</ele>
        <time>2021-07-10T12:12:31Z</time>
      </trkpt>
      <trkpt lat="44.10989" lon="6.71386">
        <ele>2425.6240021875</ele>
        <time>2021-07-10T12:12:33Z</time>
      </trkpt>
      <trkpt lat="44.10989" lon="6.71385">
        <ele>2424.6239973429</ele>
        <time>2021-07-10T12:12:38Z</time>
      </trkpt>
      <trkpt lat="44.10989" lon="6.71384">
        <ele>2424.6240116026</ele>
        <time>2021-07-10T12:12:39Z</time>
      </trkpt>
      <trkpt lat="44.1099" lon="6.71383">
        <ele>2423.6240243454</ele>
        <time>2021-07-10T12:12:40Z</time>
      </trkpt>
      <trkpt lat="44.10989" lon="6.71383">
        <ele>2423.6240441165</ele>
        <time>2021-07-10T12:12:42Z</time>
      </trkpt>
      <trkpt lat="44.1099" lon="6.71382">
        <ele>2423.6240049064</ele>
        <time>2021-07-10T12:12:43Z</time>
      </trkpt>
      <trkpt lat="44.10991" lon="6.71383">
        <ele>2424.6239711282</ele>
        <time>2021-07-10T12:12:44Z</time>
      </trkpt>
      <trkpt lat="44.10991" lon="6.71384">
        <ele>2424.6239429658</ele>
        <time>2021-07-10T12:12:45Z</time>
      </trkpt>
      <trkpt lat="44.10991" lon="6.71385">
        <ele>2424.6239239789</ele>
        <time>2021-07-10T12:12:47Z</time>
      </trkpt>
      <trkpt lat="44.10992" lon="6.71386">
        <ele>2425.6238887518</ele>
        <time>2021-07-10T12:12:49Z</time>
      </trkpt>
      <trkpt lat="44.10991" lon="6.71387">
        <ele>2426.6238862756</ele>
        <time>2021-07-10T12:12:50Z</time>
      </trkpt>
      <trkpt lat="44.10992" lon="6.71388">
        <ele>2426.6238502615</ele>
        <time>2021-07-10T12:12:52Z</time>
      </trkpt>
      <trkpt lat="44.10993" lon="6.71389">
        <ele>2427.6238135289</ele>
        <time>2021-07-10T12:12:56Z</time>
      </trkpt>
      <trkpt lat="44.10994" lon="6.7139">
        <ele>2427.6237540803</ele>
        <time>2021-07-10T12:12:57Z</time>
      </trkpt>
      <trkpt lat="44.10994" lon="6.7139">
        <ele>2427.6237227632</ele>
        <time>2021-07-10T12:13:03Z</time>
      </trkpt>
      <trkpt lat="44.10995" lon="6.71391">
        <ele>2428.6236906294</ele>
        <time>2021-07-10T12:13:04Z</time>
      </trkpt>
      <trkpt lat="44.10995" lon="6.71393">
        <ele>2429.6236564901</ele>
        <time>2021-07-10T12:13:05Z</time>
      </trkpt>
      <trkpt lat="44.10995" lon="6.71392">
        <ele>2431.6236651669</ele>
        <time>2021-07-10T12:13:18Z</time>
      </trkpt>
      <trkpt lat="44.10996" lon="6.7139">
        <ele>2430.6236742485</ele>
        <time>2021-07-10T12:13:19Z</time>
      </trkpt>
      <trkpt lat="44.10997" lon="6.71391">
        <ele>2430.6236369075</ele>
        <time>2021-07-10T12:13:25Z</time>
      </trkpt>
      <trkpt lat="44.10997" lon="6.71392">
        <ele>2431.6236001485</ele>
        <time>2021-07-10T12:13:26Z</time>
      </trkpt>
      <trkpt lat="44.10998" lon="6.71392">
        <ele>2432.6235926572</ele>
        <time>2021-07-10T12:13:32Z</time>
      </trkpt>
      <trkpt lat="44.10998" lon="6.7139">
        <ele>2432.6236214105</ele>
        <time>2021-07-10T12:13:33Z</time>
      </trkpt>
      <trkpt lat="44.10998" lon="6.71391">
        <ele>2433.6235893802</ele>
        <time>2021-07-10T12:13:36Z</time>
      </trkpt>
      <trkpt lat="44.10999" lon="6.71389">
        <ele>2433.6235982077</ele>
        <time>2021-07-10T12:13:40Z</time>
      </trkpt>
      <trkpt lat="44.10999" lon="6.7139">
        <ele>2434.6235766161</ele>
        <time>2021-07-10T12:13:41Z</time>
      </trkpt>
      <trkpt lat="44.11" lon="6.71389">
        <ele>2433.6235492005</ele>
        <time>2021-07-10T12:13:42Z</time>
      </trkpt>
      <trkpt lat="44.11001" lon="6.71389">
        <ele>2434.6235246013</ele>
        <time>2021-07-10T12:13:45Z</time>
      </trkpt>
      <trkpt lat="44.11001" lon="6.71388">
        <ele>2436.6235284919</ele>
        <time>2021-07-10T12:13:47Z</time>
      </trkpt>
      <trkpt lat="44.11002" lon="6.71388">
        <ele>2436.6235020742</ele>
        <time>2021-07-10T12:13:48Z</time>
      </trkpt>
      <trkpt lat="44.11003" lon="6.71389">
        <ele>2437.6234699692</ele>
        <time>2021-07-10T12:13:50Z</time>
      </trkpt>
      <trkpt lat="44.11003" lon="6.7139">
        <ele>2437.6234495777</ele>
        <time>2021-07-10T12:13:51Z</time>
      </trkpt>
      <trkpt lat="44.11003" lon="6.71391">
        <ele>2437.6234236836</ele>
        <time>2021-07-10T12:13:54Z</time>
      </trkpt>
      <trkpt lat="44.11003" lon="6.7139">
        <ele>2437.6234248108</ele>
        <time>2021-07-10T12:13:55Z</time>
      </trkpt>
      <trkpt lat="44.11004" lon="6.71389">
        <ele>2436.6234228308</ele>
        <time>2021-07-10T12:14:04Z</time>
      </trkpt>
      <trkpt lat="44.11005" lon="6.7139">
        <ele>2437.6233525118</ele>
        <time>2021-07-10T12:14:05Z</time>
      </trkpt>
      <trkpt lat="44.11006" lon="6.7139">
        <ele>2437.6233291134</ele>
        <time>2021-07-10T12:14:06Z</time>
      </trkpt>
      <trkpt lat="44.11006" lon="6.71391">
        <ele>2438.6233112708</ele>
        <time>2021-07-10T12:14:07Z</time>
      </trkpt>
      <trkpt lat="44.11007" lon="6.71391">
        <ele>2439.6232698303</ele>
        <time>2021-07-10T12:14:09Z</time>
      </trkpt>
      <trkpt lat="44.11008" lon="6.71391">
        <ele>2440.6232339604</ele>
        <time>2021-07-10T12:14:11Z</time>
      </trkpt>
      <trkpt lat="44.11009" lon="6.71392">
        <ele>2440.62318709</ele>
        <time>2021-07-10T12:14:13Z</time>
      </trkpt>
      <trkpt lat="44.1101" lon="6.71393">
        <ele>2440.6231532636</ele>
        <time>2021-07-10T12:14:14Z</time>
      </trkpt>
      <trkpt lat="44.11011" lon="6.71393">
        <ele>2440.6231191273</ele>
        <time>2021-07-10T12:14:15Z</time>
      </trkpt>
      <trkpt lat="44.11011" lon="6.71394">
        <ele>2441.6230878125</ele>
        <time>2021-07-10T12:14:16Z</time>
      </trkpt>
      <trkpt lat="44.11012" lon="6.71394">
        <ele>2441.6230662223</ele>
        <time>2021-07-10T12:14:18Z</time>
      </trkpt>
      <trkpt lat="44.11012" lon="6.71394">
        <ele>2441.623045889</ele>
        <time>2021-07-10T12:14:21Z</time>
      </trkpt>
      <trkpt lat="44.11014" lon="6.71396">
        <ele>2440.6229625972</ele>
        <time>2021-07-10T12:14:22Z</time>
      </trkpt>
      <trkpt lat="44.11014" lon="6.71396">
        <ele>2440.6229542844</ele>
        <time>2021-07-10T12:14:26Z</time>
      </trkpt>
      <trkpt lat="44.11015" lon="6.71395">
        <ele>2440.6229335887</ele>
        <time>2021-07-10T12:14:27Z</time>
      </trkpt>
      <trkpt lat="44.11016" lon="6.71395">
        <ele>2440.6228892618</ele>
        <time>2021-07-10T12:14:29Z</time>
      </trkpt>
      <trkpt lat="44.11016" lon="6.71397">
        <ele>2440.6228587453</ele>
        <time>2021-07-10T12:14:30Z</time>
      </trkpt>
      <trkpt lat="44.11016" lon="6.71397">
        <ele>2440.6228587453</ele>
        <time>2021-07-10T12:14:32Z</time>
      </trkpt>
      <trkpt lat="44.11017" lon="6.71398">
        <ele>2440.6227952532</ele>
        <time>2021-07-10T12:14:33Z</time>
      </trkpt>
      <trkpt lat="44.11018" lon="6.71399">
        <ele>2440.6227675735</ele>
        <time>2021-07-10T12:14:34Z</time>
      </trkpt>
      <trkpt lat="44.11018" lon="6.71398">
        <ele>2440.6227634802</ele>
        <time>2021-07-10T12:14:35Z</time>
      </trkpt>
      <trkpt lat="44.11019" lon="6.71398">
        <ele>2441.6227585013</ele>
        <time>2021-07-10T12:14:36Z</time>
      </trkpt>
      <trkpt lat="44.11021" lon="6.71399">
        <ele>2442.6226616715</ele>
        <time>2021-07-10T12:14:38Z</time>
      </trkpt>
      <trkpt lat="44.11022" lon="6.71398">
        <ele>2443.6226342773</ele>
        <time>2021-07-10T12:14:40Z</time>
      </trkpt>
      <trkpt lat="44.11022" lon="6.71398">
        <ele>2444.6226234329</ele>
        <time>2021-07-10T12:14:42Z</time>
      </trkpt>
      <trkpt lat="44.11024" lon="6.714">
        <ele>2443.6225527845</ele>
        <time>2021-07-10T12:14:44Z</time>
      </trkpt>
      <trkpt lat="44.11024" lon="6.714">
        <ele>2444.6225272117</ele>
        <time>2021-07-10T12:14:45Z</time>
      </trkpt>
      <trkpt lat="44.11024" lon="6.71401">
        <ele>2444.6225081614</ele>
        <time>2021-07-10T12:14:46Z</time>
      </trkpt>
      <trkpt lat="44.11024" lon="6.71402">
        <ele>2444.6225032786</ele>
        <time>2021-07-10T12:14:49Z</time>
      </trkpt>
      <trkpt lat="44.11025" lon="6.71402">
        <ele>2445.6224546543</ele>
        <time>2021-07-10T12:14:50Z</time>
      </trkpt>
      <trkpt lat="44.11026" lon="6.71403">
        <ele>2445.6224202109</ele>
        <time>2021-07-10T12:14:52Z</time>
      </trkpt>
      <trkpt lat="44.11027" lon="6.71403">
        <ele>2445.6224012141</ele>
        <time>2021-07-10T12:14:53Z</time>
      </trkpt>
      <trkpt lat="44.11027" lon="6.71403">
        <ele>2444.6223660647</ele>
        <time>2021-07-10T12:14:54Z</time>
      </trkpt>
      <trkpt lat="44.11027" lon="6.71403">
        <ele>2444.6223660647</ele>
        <time>2021-07-10T12:14:56Z</time>
      </trkpt>
      <trkpt lat="44.11029" lon="6.71404">
        <ele>2445.622299963</ele>
        <time>2021-07-10T12:14:57Z</time>
      </trkpt>
      <trkpt lat="44.11029" lon="6.71405">
        <ele>2444.6222716682</ele>
        <time>2021-07-10T12:14:58Z</time>
      </trkpt>
      <trkpt lat="44.1103" lon="6.71406">
        <ele>2445.6222336534</ele>
        <time>2021-07-10T12:14:59Z</time>
      </trkpt>
      <trkpt lat="44.1103" lon="6.71407">
        <ele>2445.6222029486</ele>
        <time>2021-07-10T12:15:04Z</time>
      </trkpt>
      <trkpt lat="44.11032" lon="6.71408">
        <ele>2446.6221248814</ele>
        <time>2021-07-10T12:15:05Z</time>
      </trkpt>
      <trkpt lat="44.11033" lon="6.71408">
        <ele>2447.6220950343</ele>
        <time>2021-07-10T12:15:07Z</time>
      </trkpt>
      <trkpt lat="44.11034" lon="6.71409">
        <ele>2446.6220333635</ele>
        <time>2021-07-10T12:15:08Z</time>
      </trkpt>
      <trkpt lat="44.11036" lon="6.71409">
        <ele>2446.62198921</ele>
        <time>2021-07-10T12:15:10Z</time>
      </trkpt>
      <trkpt lat="44.11036" lon="6.71409">
        <ele>2447.6219699734</ele>
        <time>2021-07-10T12:15:12Z</time>
      </trkpt>
      <trkpt lat="44.11037" lon="6.71408">
        <ele>2448.6219426561</ele>
        <time>2021-07-10T12:15:14Z</time>
      </trkpt>
      <trkpt lat="44.11038" lon="6.71408">
        <ele>2449.6219194813</ele>
        <time>2021-07-10T12:15:15Z</time>
      </trkpt>
      <trkpt lat="44.11038" lon="6.71409">
        <ele>2449.6218911206</ele>
        <time>2021-07-10T12:15:16Z</time>
      </trkpt>
      <trkpt lat="44.11039" lon="6.71409">
        <ele>2449.6218661776</ele>
        <time>2021-07-10T12:15:19Z</time>
      </trkpt>
      <trkpt lat="44.11041" lon="6.71409">
        <ele>2449.6218119839</ele>
        <time>2021-07-10T12:15:20Z</time>
      </trkpt>
      <trkpt lat="44.11041" lon="6.7141">
        <ele>2452.6217807035</ele>
        <time>2021-07-10T12:15:34Z</time>
      </trkpt>
      <trkpt lat="44.11041" lon="6.71411">
        <ele>2452.6217581481</ele>
        <time>2021-07-10T12:15:35Z</time>
      </trkpt>
      <trkpt lat="44.11042" lon="6.71411">
        <ele>2452.6217345206</ele>
        <time>2021-07-10T12:15:38Z</time>
      </trkpt>
      <trkpt lat="44.11043" lon="6.7141">
        <ele>2452.6217073709</ele>
        <time>2021-07-10T12:15:39Z</time>
      </trkpt>
      <trkpt lat="44.11044" lon="6.7141">
        <ele>2453.6216871596</ele>
        <time>2021-07-10T12:15:45Z</time>
      </trkpt>
      <trkpt lat="44.11045" lon="6.71411">
        <ele>2453.6216193227</ele>
        <time>2021-07-10T12:15:46Z</time>
      </trkpt>
      <trkpt lat="44.11046" lon="6.71412">
        <ele>2454.6215927367</ele>
        <time>2021-07-10T12:15:50Z</time>
      </trkpt>
      <trkpt lat="44.11045" lon="6.71412">
        <ele>2454.6215894893</ele>
        <time>2021-07-10T12:15:52Z</time>
      </trkpt>
      <trkpt lat="44.11046" lon="6.71413">
        <ele>2454.6215533093</ele>
        <time>2021-07-10T12:15:53Z</time>
      </trkpt>
      <trkpt lat="44.11047" lon="6.71413">
        <ele>2455.6215268872</ele>
        <time>2021-07-10T12:16:01Z</time>
      </trkpt>
      <trkpt lat="44.11047" lon="6.71414">
        <ele>2456.6214916184</ele>
        <time>2021-07-10T12:16:04Z</time>
      </trkpt>
      <trkpt lat="44.11048" lon="6.71414">
        <ele>2456.6214727554</ele>
        <time>2021-07-10T12:16:06Z</time>
      </trkpt>
      <trkpt lat="44.11048" lon="6.71414">
        <ele>2456.621459641</ele>
        <time>2021-07-10T12:16:07Z</time>
      </trkpt>
      <trkpt lat="44.11049" lon="6.71415">
        <ele>2457.6214232845</ele>
        <time>2021-07-10T12:16:08Z</time>
      </trkpt>
      <trkpt lat="44.1105" lon="6.71415">
        <ele>2458.6213948825</ele>
        <time>2021-07-10T12:16:09Z</time>
      </trkpt>
      <trkpt lat="44.1105" lon="6.71416">
        <ele>2458.6213615893</ele>
        <time>2021-07-10T12:16:12Z</time>
      </trkpt>
      <trkpt lat="44.1105" lon="6.71417">
        <ele>2458.6213624264</ele>
        <time>2021-07-10T12:16:13Z</time>
      </trkpt>
      <trkpt lat="44.1105" lon="6.71418">
        <ele>2460.6213251073</ele>
        <time>2021-07-10T12:16:15Z</time>
      </trkpt>
      <trkpt lat="44.11051" lon="6.71418">
        <ele>2460.6212904893</ele>
        <time>2021-07-10T12:16:18Z</time>
      </trkpt>
      <trkpt lat="44.11051" lon="6.71419">
        <ele>2461.6212685837</ele>
        <time>2021-07-10T12:16:20Z</time>
      </trkpt>
      <trkpt lat="44.11052" lon="6.71419">
        <ele>2461.6212490718</ele>
        <time>2021-07-10T12:16:21Z</time>
      </trkpt>
      <trkpt lat="44.11053" lon="6.71419">
        <ele>2461.621220675</ele>
        <time>2021-07-10T12:16:22Z</time>
      </trkpt>
      <trkpt lat="44.11053" lon="6.7142">
        <ele>2461.6211837505</ele>
        <time>2021-07-10T12:16:24Z</time>
      </trkpt>
      <trkpt lat="44.11054" lon="6.7142">
        <ele>2461.6211571466</ele>
        <time>2021-07-10T12:16:25Z</time>
      </trkpt>
      <trkpt lat="44.11055" lon="6.7142">
        <ele>2461.6211336005</ele>
        <time>2021-07-10T12:16:26Z</time>
      </trkpt>
      <trkpt lat="44.11055" lon="6.7142">
        <ele>2460.621110235</ele>
        <time>2021-07-10T12:16:32Z</time>
      </trkpt>
      <trkpt lat="44.11057" lon="6.7142">
        <ele>2459.621033965</ele>
        <time>2021-07-10T12:16:34Z</time>
      </trkpt>
      <trkpt lat="44.11058" lon="6.71422">
        <ele>2459.6209973291</ele>
        <time>2021-07-10T12:16:35Z</time>
      </trkpt>
      <trkpt lat="44.11058" lon="6.71422">
        <ele>2459.6209862812</ele>
        <time>2021-07-10T12:16:36Z</time>
      </trkpt>
      <trkpt lat="44.11059" lon="6.71422">
        <ele>2458.6209542826</ele>
        <time>2021-07-10T12:16:39Z</time>
      </trkpt>
      <trkpt lat="44.1106" lon="6.71422">
        <ele>2458.6208978773</ele>
        <time>2021-07-10T12:16:40Z</time>
      </trkpt>
      <trkpt lat="44.11061" lon="6.71423">
        <ele>2459.6208787392</ele>
        <time>2021-07-10T12:16:41Z</time>
      </trkpt>
      <trkpt lat="44.11061" lon="6.71424">
        <ele>2458.6208499537</ele>
        <time>2021-07-10T12:16:42Z</time>
      </trkpt>
      <trkpt lat="44.11061" lon="6.71425">
        <ele>2458.6208386472</ele>
        <time>2021-07-10T12:16:43Z</time>
      </trkpt>
      <trkpt lat="44.11061" lon="6.71425">
        <ele>2457.620807393</ele>
        <time>2021-07-10T12:16:45Z</time>
      </trkpt>
      <trkpt lat="44.11062" lon="6.71427">
        <ele>2457.6207679969</ele>
        <time>2021-07-10T12:16:46Z</time>
      </trkpt>
      <trkpt lat="44.11063" lon="6.71428">
        <ele>2457.6207184499</ele>
        <time>2021-07-10T12:16:47Z</time>
      </trkpt>
      <trkpt lat="44.11063" lon="6.71428">
        <ele>2458.6206953464</ele>
        <time>2021-07-10T12:16:48Z</time>
      </trkpt>
      <trkpt lat="44.11064" lon="6.71428">
        <ele>2458.6206672899</ele>
        <time>2021-07-10T12:16:51Z</time>
      </trkpt>
      <trkpt lat="44.11066" lon="6.71431">
        <ele>2459.6205664738</ele>
        <time>2021-07-10T12:16:53Z</time>
      </trkpt>
      <trkpt lat="44.11066" lon="6.71431">
        <ele>2460.6205448503</ele>
        <time>2021-07-10T12:16:54Z</time>
      </trkpt>
      <trkpt lat="44.11067" lon="6.71431">
        <ele>2460.6205037906</ele>
        <time>2021-07-10T12:16:55Z</time>
      </trkpt>
      <trkpt lat="44.11068" lon="6.71431">
        <ele>2460.6204950651</ele>
        <time>2021-07-10T12:16:57Z</time>
      </trkpt>
      <trkpt lat="44.11069" lon="6.71431">
        <ele>2459.6204470504</ele>
        <time>2021-07-10T12:16:58Z</time>
      </trkpt>
      <trkpt lat="44.1107" lon="6.71431">
        <ele>2459.6204169505</ele>
        <time>2021-07-10T12:16:59Z</time>
      </trkpt>
      <trkpt lat="44.1107" lon="6.71432">
        <ele>2458.6203903523</ele>
        <time>2021-07-10T12:17:00Z</time>
      </trkpt>
      <trkpt lat="44.11071" lon="6.71433">
        <ele>2459.6203555282</ele>
        <time>2021-07-10T12:17:01Z</time>
      </trkpt>
      <trkpt lat="44.11072" lon="6.71433">
        <ele>2459.6203226291</ele>
        <time>2021-07-10T12:17:02Z</time>
      </trkpt>
      <trkpt lat="44.11072" lon="6.71434">
        <ele>2460.6202979924</ele>
        <time>2021-07-10T12:17:03Z</time>
      </trkpt>
      <trkpt lat="44.11073" lon="6.71434">
        <ele>2460.620272051</ele>
        <time>2021-07-10T12:17:04Z</time>
      </trkpt>
      <trkpt lat="44.11073" lon="6.71434">
        <ele>2460.6202606823</ele>
        <time>2021-07-10T12:17:05Z</time>
      </trkpt>
      <trkpt lat="44.11073" lon="6.71435">
        <ele>2460.6202334226</ele>
        <time>2021-07-10T12:17:06Z</time>
      </trkpt>
      <trkpt lat="44.11074" lon="6.71435">
        <ele>2460.6202075373</ele>
        <time>2021-07-10T12:17:07Z</time>
      </trkpt>
      <trkpt lat="44.11074" lon="6.71435">
        <ele>2460.6201944478</ele>
        <time>2021-07-10T12:17:08Z</time>
      </trkpt>
      <trkpt lat="44.11075" lon="6.71435">
        <ele>2460.6201769412</ele>
        <time>2021-07-10T12:17:09Z</time>
      </trkpt>
      <trkpt lat="44.11076" lon="6.71435">
        <ele>2461.620145152</ele>
        <time>2021-07-10T12:17:11Z</time>
      </trkpt>
      <trkpt lat="44.11077" lon="6.71435">
        <ele>2460.6201174691</ele>
        <time>2021-07-10T12:17:13Z</time>
      </trkpt>
      <trkpt lat="44.11077" lon="6.71435">
        <ele>2460.6201019334</ele>
        <time>2021-07-10T12:17:14Z</time>
      </trkpt>
      <trkpt lat="44.11078" lon="6.71435">
        <ele>2460.6200544559</ele>
        <time>2021-07-10T12:17:15Z</time>
      </trkpt>
      <trkpt lat="44.11079" lon="6.71436">
        <ele>2460.6200074591</ele>
        <time>2021-07-10T12:17:16Z</time>
      </trkpt>
      <trkpt lat="44.1108" lon="6.71436">
        <ele>2461.6199859353</ele>
        <time>2021-07-10T12:17:18Z</time>
      </trkpt>
      <trkpt lat="44.11081" lon="6.71438">
        <ele>2462.6199014329</ele>
        <time>2021-07-10T12:17:19Z</time>
      </trkpt>
      <trkpt lat="44.11082" lon="6.71438">
        <ele>2462.6198700244</ele>
        <time>2021-07-10T12:17:20Z</time>
      </trkpt>
      <trkpt lat="44.11083" lon="6.71438">
        <ele>2462.6198497429</ele>
        <time>2021-07-10T12:17:21Z</time>
      </trkpt>
      <trkpt lat="44.11083" lon="6.71439">
        <ele>2462.6198281915</ele>
        <time>2021-07-10T12:17:24Z</time>
      </trkpt>
      <trkpt lat="44.11085" lon="6.7144">
        <ele>2463.6197293115</ele>
        <time>2021-07-10T12:17:25Z</time>
      </trkpt>
      <trkpt lat="44.11086" lon="6.7144">
        <ele>2464.6197114664</ele>
        <time>2021-07-10T12:17:27Z</time>
      </trkpt>
      <trkpt lat="44.11088" lon="6.7144">
        <ele>2464.6196529448</ele>
        <time>2021-07-10T12:17:29Z</time>
      </trkpt>
      <trkpt lat="44.11088" lon="6.71441">
        <ele>2464.619619905</ele>
        <time>2021-07-10T12:17:30Z</time>
      </trkpt>
      <trkpt lat="44.11088" lon="6.71441">
        <ele>2464.6196061381</ele>
        <time>2021-07-10T12:17:32Z</time>
      </trkpt>
      <trkpt lat="44.1109" lon="6.71442">
        <ele>2464.6195423725</ele>
        <time>2021-07-10T12:17:34Z</time>
      </trkpt>
      <trkpt lat="44.11091" lon="6.71442">
        <ele>2465.6195056298</ele>
        <time>2021-07-10T12:17:35Z</time>
      </trkpt>
      <trkpt lat="44.11092" lon="6.71442">
        <ele>2465.6194795767</ele>
        <time>2021-07-10T12:17:37Z</time>
      </trkpt>
      <trkpt lat="44.11093" lon="6.71442">
        <ele>2464.6194200109</ele>
        <time>2021-07-10T12:17:38Z</time>
      </trkpt>
      <trkpt lat="44.11094" lon="6.71442">
        <ele>2465.6194008881</ele>
        <time>2021-07-10T12:17:40Z</time>
      </trkpt>
      <trkpt lat="44.11095" lon="6.71443">
        <ele>2464.6193634721</ele>
        <time>2021-07-10T12:17:41Z</time>
      </trkpt>
      <trkpt lat="44.11095" lon="6.71443">
        <ele>2465.619342963</ele>
        <time>2021-07-10T12:17:42Z</time>
      </trkpt>
      <trkpt lat="44.11096" lon="6.71443">
        <ele>2465.6193184842</ele>
        <time>2021-07-10T12:17:43Z</time>
      </trkpt>
      <trkpt lat="44.11097" lon="6.71444">
        <ele>2465.6192755139</ele>
        <time>2021-07-10T12:17:44Z</time>
      </trkpt>
      <trkpt lat="44.11097" lon="6.71445">
        <ele>2465.6192346772</ele>
        <time>2021-07-10T12:17:45Z</time>
      </trkpt>
      <trkpt lat="44.11098" lon="6.71445">
        <ele>2465.6191961046</ele>
        <time>2021-07-10T12:17:47Z</time>
      </trkpt>
      <trkpt lat="44.11099" lon="6.71445">
        <ele>2465.6191550912</ele>
        <time>2021-07-10T12:17:48Z</time>
      </trkpt>
      <trkpt lat="44.11101" lon="6.71445">
        <ele>2466.6190990006</ele>
        <time>2021-07-10T12:17:50Z</time>
      </trkpt>
      <trkpt lat="44.11102" lon="6.71445">
        <ele>2466.6190809273</ele>
        <time>2021-07-10T12:17:51Z</time>
      </trkpt>
      <trkpt lat="44.11102" lon="6.71446">
        <ele>2466.6190497184</ele>
        <time>2021-07-10T12:17:52Z</time>
      </trkpt>
      <trkpt lat="44.11103" lon="6.71445">
        <ele>2467.6190451807</ele>
        <time>2021-07-10T12:17:53Z</time>
      </trkpt>
      <trkpt lat="44.11103" lon="6.71445">
        <ele>2466.6190242984</ele>
        <time>2021-07-10T12:17:54Z</time>
      </trkpt>
      <trkpt lat="44.11104" lon="6.71445">
        <ele>2466.619008691</ele>
        <time>2021-07-10T12:17:56Z</time>
      </trkpt>
      <trkpt lat="44.11105" lon="6.71444">
        <ele>2467.618976922</ele>
        <time>2021-07-10T12:17:58Z</time>
      </trkpt>
      <trkpt lat="44.11106" lon="6.71443">
        <ele>2466.618974966</ele>
        <time>2021-07-10T12:18:02Z</time>
      </trkpt>
      <trkpt lat="44.11107" lon="6.71445">
        <ele>2466.6189190227</ele>
        <time>2021-07-10T12:18:04Z</time>
      </trkpt>
      <trkpt lat="44.11107" lon="6.71445">
        <ele>2466.6188825113</ele>
        <time>2021-07-10T12:18:06Z</time>
      </trkpt>
      <trkpt lat="44.11108" lon="6.71446">
        <ele>2468.618839744</ele>
        <time>2021-07-10T12:18:08Z</time>
      </trkpt>
      <trkpt lat="44.11109" lon="6.71447">
        <ele>2469.6187945679</ele>
        <time>2021-07-10T12:18:10Z</time>
      </trkpt>
      <trkpt lat="44.1111" lon="6.71448">
        <ele>2469.6187570601</ele>
        <time>2021-07-10T12:18:11Z</time>
      </trkpt>
      <trkpt lat="44.1111" lon="6.71448">
        <ele>2469.618730472</ele>
        <time>2021-07-10T12:18:12Z</time>
      </trkpt>
      <trkpt lat="44.11111" lon="6.71448">
        <ele>2469.618687534</ele>
        <time>2021-07-10T12:18:13Z</time>
      </trkpt>
      <trkpt lat="44.11112" lon="6.71449">
        <ele>2469.6186466083</ele>
        <time>2021-07-10T12:18:14Z</time>
      </trkpt>
      <trkpt lat="44.11113" lon="6.71449">
        <ele>2469.6186269595</ele>
        <time>2021-07-10T12:18:15Z</time>
      </trkpt>
      <trkpt lat="44.11113" lon="6.71449">
        <ele>2470.6186029696</ele>
        <time>2021-07-10T12:18:16Z</time>
      </trkpt>
      <trkpt lat="44.11114" lon="6.7145">
        <ele>2470.6185703657</ele>
        <time>2021-07-10T12:18:17Z</time>
      </trkpt>
      <trkpt lat="44.11115" lon="6.71451">
        <ele>2470.6185286239</ele>
        <time>2021-07-10T12:18:18Z</time>
      </trkpt>
      <trkpt lat="44.11115" lon="6.71452">
        <ele>2470.6184932054</ele>
        <time>2021-07-10T12:18:19Z</time>
      </trkpt>
      <trkpt lat="44.11116" lon="6.71452">
        <ele>2470.6184675774</ele>
        <time>2021-07-10T12:18:20Z</time>
      </trkpt>
      <trkpt lat="44.11116" lon="6.71453">
        <ele>2470.6184405442</ele>
        <time>2021-07-10T12:18:21Z</time>
      </trkpt>
      <trkpt lat="44.11117" lon="6.71453">
        <ele>2470.6184020541</ele>
        <time>2021-07-10T12:18:22Z</time>
      </trkpt>
      <trkpt lat="44.11118" lon="6.71456">
        <ele>2469.6183402003</ele>
        <time>2021-07-10T12:18:24Z</time>
      </trkpt>
      <trkpt lat="44.11118" lon="6.71456">
        <ele>2469.6183283689</ele>
        <time>2021-07-10T12:18:25Z</time>
      </trkpt>
      <trkpt lat="44.11119" lon="6.71456">
        <ele>2469.6183016031</ele>
        <time>2021-07-10T12:18:29Z</time>
      </trkpt>
      <trkpt lat="44.1112" lon="6.71459">
        <ele>2469.6182047362</ele>
        <time>2021-07-10T12:18:30Z</time>
      </trkpt>
      <trkpt lat="44.11121" lon="6.7146">
        <ele>2470.6181612263</ele>
        <time>2021-07-10T12:18:31Z</time>
      </trkpt>
      <trkpt lat="44.11121" lon="6.7146">
        <ele>2470.6181360954</ele>
        <time>2021-07-10T12:18:35Z</time>
      </trkpt>
      <trkpt lat="44.11123" lon="6.7146">
        <ele>2471.6180932156</ele>
        <time>2021-07-10T12:18:36Z</time>
      </trkpt>
      <trkpt lat="44.11123" lon="6.7146">
        <ele>2472.6180688946</ele>
        <time>2021-07-10T12:18:38Z</time>
      </trkpt>
      <trkpt lat="44.11124" lon="6.7146">
        <ele>2472.6180448716</ele>
        <time>2021-07-10T12:18:40Z</time>
      </trkpt>
      <trkpt lat="44.11125" lon="6.7146">
        <ele>2472.6180127726</ele>
        <time>2021-07-10T12:18:43Z</time>
      </trkpt>
      <trkpt lat="44.11125" lon="6.71459">
        <ele>2472.6180185529</ele>
        <time>2021-07-10T12:18:44Z</time>
      </trkpt>
      <trkpt lat="44.11126" lon="6.71459">
        <ele>2472.6179962278</ele>
        <time>2021-07-10T12:18:45Z</time>
      </trkpt>
      <trkpt lat="44.11127" lon="6.71459">
        <ele>2473.61794732</ele>
        <time>2021-07-10T12:18:46Z</time>
      </trkpt>
      <trkpt lat="44.1113" lon="6.71461">
        <ele>2474.6178430268</ele>
        <time>2021-07-10T12:18:48Z</time>
      </trkpt>
      <trkpt lat="44.11131" lon="6.71461">
        <ele>2474.6178058928</ele>
        <time>2021-07-10T12:18:49Z</time>
      </trkpt>
      <trkpt lat="44.11132" lon="6.71461">
        <ele>2473.6177646169</ele>
        <time>2021-07-10T12:18:50Z</time>
      </trkpt>
      <trkpt lat="44.11132" lon="6.71461">
        <ele>2473.6177440665</ele>
        <time>2021-07-10T12:18:52Z</time>
      </trkpt>
      <trkpt lat="44.11133" lon="6.71461">
        <ele>2472.6177161633</ele>
        <time>2021-07-10T12:18:53Z</time>
      </trkpt>
      <trkpt lat="44.11134" lon="6.71461">
        <ele>2473.617687521</ele>
        <time>2021-07-10T12:18:54Z</time>
      </trkpt>
      <trkpt lat="44.11135" lon="6.71461">
        <ele>2472.6176604291</ele>
        <time>2021-07-10T12:18:55Z</time>
      </trkpt>
      <trkpt lat="44.11136" lon="6.71461">
        <ele>2473.6176204534</ele>
        <time>2021-07-10T12:18:56Z</time>
      </trkpt>
      <trkpt lat="44.11137" lon="6.71461">
        <ele>2472.617594654</ele>
        <time>2021-07-10T12:18:58Z</time>
      </trkpt>
      <trkpt lat="44.11139" lon="6.71461">
        <ele>2473.6175125517</ele>
        <time>2021-07-10T12:18:59Z</time>
      </trkpt>
      <trkpt lat="44.1114" lon="6.7146">
        <ele>2473.6174835737</ele>
        <time>2021-07-10T12:19:00Z</time>
      </trkpt>
      <trkpt lat="44.11141" lon="6.7146">
        <ele>2473.6174624199</ele>
        <time>2021-07-10T12:19:01Z</time>
      </trkpt>
      <trkpt lat="44.11142" lon="6.7146">
        <ele>2473.6174239826</ele>
        <time>2021-07-10T12:19:02Z</time>
      </trkpt>
      <trkpt lat="44.11143" lon="6.7146">
        <ele>2473.6174127419</ele>
        <time>2021-07-10T12:19:03Z</time>
      </trkpt>
      <trkpt lat="44.11144" lon="6.71458">
        <ele>2473.6173823063</ele>
        <time>2021-07-10T12:19:05Z</time>
      </trkpt>
      <trkpt lat="44.11145" lon="6.71458">
        <ele>2473.6173522071</ele>
        <time>2021-07-10T12:19:06Z</time>
      </trkpt>
      <trkpt lat="44.11146" lon="6.71459">
        <ele>2474.6173102363</ele>
        <time>2021-07-10T12:19:07Z</time>
      </trkpt>
      <trkpt lat="44.11147" lon="6.71459">
        <ele>2475.617285196</ele>
        <time>2021-07-10T12:19:10Z</time>
      </trkpt>
      <trkpt lat="44.11148" lon="6.71459">
        <ele>2474.6172552023</ele>
        <time>2021-07-10T12:19:11Z</time>
      </trkpt>
      <trkpt lat="44.11148" lon="6.71459">
        <ele>2474.6172326303</ele>
        <time>2021-07-10T12:19:13Z</time>
      </trkpt>
      <trkpt lat="44.1115" lon="6.71458">
        <ele>2475.6171690278</ele>
        <time>2021-07-10T12:19:14Z</time>
      </trkpt>
      <trkpt lat="44.11151" lon="6.71459">
        <ele>2475.6171445068</ele>
        <time>2021-07-10T12:19:15Z</time>
      </trkpt>
      <trkpt lat="44.11152" lon="6.71459">
        <ele>2475.6171032574</ele>
        <time>2021-07-10T12:19:16Z</time>
      </trkpt>
      <trkpt lat="44.11153" lon="6.71459">
        <ele>2475.6170682139</ele>
        <time>2021-07-10T12:19:17Z</time>
      </trkpt>
      <trkpt lat="44.11154" lon="6.7146">
        <ele>2474.6170255162</ele>
        <time>2021-07-10T12:19:18Z</time>
      </trkpt>
      <trkpt lat="44.11155" lon="6.7146">
        <ele>2474.6169833112</ele>
        <time>2021-07-10T12:19:19Z</time>
      </trkpt>
      <trkpt lat="44.11156" lon="6.7146">
        <ele>2475.6169519931</ele>
        <time>2021-07-10T12:19:20Z</time>
      </trkpt>
      <trkpt lat="44.11157" lon="6.71461">
        <ele>2475.6169099868</ele>
        <time>2021-07-10T12:19:21Z</time>
      </trkpt>
      <trkpt lat="44.11158" lon="6.7146">
        <ele>2475.6168877953</ele>
        <time>2021-07-10T12:19:22Z</time>
      </trkpt>
      <trkpt lat="44.11159" lon="6.7146">
        <ele>2474.6168627499</ele>
        <time>2021-07-10T12:19:23Z</time>
      </trkpt>
      <trkpt lat="44.1116" lon="6.7146">
        <ele>2474.6168286744</ele>
        <time>2021-07-10T12:19:24Z</time>
      </trkpt>
      <trkpt lat="44.11161" lon="6.7146">
        <ele>2474.6167889917</ele>
        <time>2021-07-10T12:19:25Z</time>
      </trkpt>
      <trkpt lat="44.11161" lon="6.7146">
        <ele>2474.6167540517</ele>
        <time>2021-07-10T12:19:26Z</time>
      </trkpt>
      <trkpt lat="44.11163" lon="6.7146">
        <ele>2474.6167184274</ele>
        <time>2021-07-10T12:19:27Z</time>
      </trkpt>
      <trkpt lat="44.11163" lon="6.7146">
        <ele>2473.6166971543</ele>
        <time>2021-07-10T12:19:28Z</time>
      </trkpt>
      <trkpt lat="44.11164" lon="6.7146">
        <ele>2473.6166791915</ele>
        <time>2021-07-10T12:19:29Z</time>
      </trkpt>
      <trkpt lat="44.11165" lon="6.71459">
        <ele>2472.6166530173</ele>
        <time>2021-07-10T12:19:30Z</time>
      </trkpt>
      <trkpt lat="44.11166" lon="6.71459">
        <ele>2472.6166216595</ele>
        <time>2021-07-10T12:19:31Z</time>
      </trkpt>
      <trkpt lat="44.11167" lon="6.71459">
        <ele>2472.6165929388</ele>
        <time>2021-07-10T12:19:32Z</time>
      </trkpt>
      <trkpt lat="44.11168" lon="6.71459">
        <ele>2472.6165518873</ele>
        <time>2021-07-10T12:19:33Z</time>
      </trkpt>
      <trkpt lat="44.11169" lon="6.7146">
        <ele>2472.6165101481</ele>
        <time>2021-07-10T12:19:34Z</time>
      </trkpt>
      <trkpt lat="44.1117" lon="6.71459">
        <ele>2472.6164836014</ele>
        <time>2021-07-10T12:19:35Z</time>
      </trkpt>
      <trkpt lat="44.11171" lon="6.71459">
        <ele>2471.6164466694</ele>
        <time>2021-07-10T12:19:36Z</time>
      </trkpt>
      <trkpt lat="44.11172" lon="6.71459">
        <ele>2471.6164165757</ele>
        <time>2021-07-10T12:19:37Z</time>
      </trkpt>
      <trkpt lat="44.11174" lon="6.7146">
        <ele>2471.6163418432</ele>
        <time>2021-07-10T12:19:39Z</time>
      </trkpt>
      <trkpt lat="44.11175" lon="6.7146">
        <ele>2470.6162923005</ele>
        <time>2021-07-10T12:19:40Z</time>
      </trkpt>
      <trkpt lat="44.11176" lon="6.7146">
        <ele>2470.6162741022</ele>
        <time>2021-07-10T12:19:41Z</time>
      </trkpt>
      <trkpt lat="44.11177" lon="6.7146">
        <ele>2470.6162361788</ele>
        <time>2021-07-10T12:19:42Z</time>
      </trkpt>
      <trkpt lat="44.11178" lon="6.7146">
        <ele>2469.6162093173</ele>
        <time>2021-07-10T12:19:43Z</time>
      </trkpt>
      <trkpt lat="44.11178" lon="6.7146">
        <ele>2469.6161833556</ele>
        <time>2021-07-10T12:19:44Z</time>
      </trkpt>
      <trkpt lat="44.11179" lon="6.7146">
        <ele>2469.6161475842</ele>
        <time>2021-07-10T12:19:45Z</time>
      </trkpt>
      <trkpt lat="44.1118" lon="6.7146">
        <ele>2469.6161220072</ele>
        <time>2021-07-10T12:19:46Z</time>
      </trkpt>
      <trkpt lat="44.11181" lon="6.71459">
        <ele>2468.616099892</ele>
        <time>2021-07-10T12:19:47Z</time>
      </trkpt>
      <trkpt lat="44.11182" lon="6.71459">
        <ele>2468.6160795308</ele>
        <time>2021-07-10T12:19:48Z</time>
      </trkpt>
      <trkpt lat="44.11184" lon="6.71458">
        <ele>2468.6160246391</ele>
        <time>2021-07-10T12:19:50Z</time>
      </trkpt>
      <trkpt lat="44.11185" lon="6.71458">
        <ele>2468.6160002274</ele>
        <time>2021-07-10T12:19:51Z</time>
      </trkpt>
      <trkpt lat="44.11186" lon="6.71458">
        <ele>2468.6159762231</ele>
        <time>2021-07-10T12:19:52Z</time>
      </trkpt>
      <trkpt lat="44.11187" lon="6.71457">
        <ele>2468.6159348146</ele>
        <time>2021-07-10T12:19:54Z</time>
      </trkpt>
      <trkpt lat="44.11189" lon="6.71456">
        <ele>2467.6158996099</ele>
        <time>2021-07-10T12:19:55Z</time>
      </trkpt>
      <trkpt lat="44.11189" lon="6.71456">
        <ele>2467.6158961693</ele>
        <time>2021-07-10T12:19:57Z</time>
      </trkpt>
      <trkpt lat="44.11191" lon="6.71457">
        <ele>2468.6158080741</ele>
        <time>2021-07-10T12:19:58Z</time>
      </trkpt>
      <trkpt lat="44.11192" lon="6.71457">
        <ele>2468.6157633827</ele>
        <time>2021-07-10T12:19:59Z</time>
      </trkpt>
      <trkpt lat="44.11193" lon="6.71457">
        <ele>2468.6157431625</ele>
        <time>2021-07-10T12:20:00Z</time>
      </trkpt>
      <trkpt lat="44.11194" lon="6.71457">
        <ele>2467.615717827</ele>
        <time>2021-07-10T12:20:02Z</time>
      </trkpt>
      <trkpt lat="44.11196" lon="6.71456">
        <ele>2466.6156442312</ele>
        <time>2021-07-10T12:20:03Z</time>
      </trkpt>
      <trkpt lat="44.11197" lon="6.71457">
        <ele>2466.6155899571</ele>
        <time>2021-07-10T12:20:04Z</time>
      </trkpt>
      <trkpt lat="44.11198" lon="6.71457">
        <ele>2466.6155607803</ele>
        <time>2021-07-10T12:20:05Z</time>
      </trkpt>
      <trkpt lat="44.11198" lon="6.71456">
        <ele>2465.6155676604</ele>
        <time>2021-07-10T12:20:06Z</time>
      </trkpt>
      <trkpt lat="44.112" lon="6.71454">
        <ele>2465.6155317275</ele>
        <time>2021-07-10T12:20:08Z</time>
      </trkpt>
      <trkpt lat="44.11203" lon="6.71455">
        <ele>2465.6154426881</ele>
        <time>2021-07-10T12:20:10Z</time>
      </trkpt>
      <trkpt lat="44.11204" lon="6.71455">
        <ele>2465.6153923994</ele>
        <time>2021-07-10T12:20:11Z</time>
      </trkpt>
      <trkpt lat="44.11205" lon="6.71455">
        <ele>2465.6153546713</ele>
        <time>2021-07-10T12:20:12Z</time>
      </trkpt>
      <trkpt lat="44.11207" lon="6.71455">
        <ele>2465.6153026393</ele>
        <time>2021-07-10T12:20:13Z</time>
      </trkpt>
      <trkpt lat="44.11208" lon="6.71455">
        <ele>2466.6152404221</ele>
        <time>2021-07-10T12:20:15Z</time>
      </trkpt>
      <trkpt lat="44.11209" lon="6.71455">
        <ele>2466.6152168043</ele>
        <time>2021-07-10T12:20:16Z</time>
      </trkpt>
      <trkpt lat="44.1121" lon="6.71455">
        <ele>2467.6152065735</ele>
        <time>2021-07-10T12:20:17Z</time>
      </trkpt>
      <trkpt lat="44.11211" lon="6.71455">
        <ele>2466.6151514536</ele>
        <time>2021-07-10T12:20:19Z</time>
      </trkpt>
      <trkpt lat="44.11212" lon="6.71454">
        <ele>2466.6151248027</ele>
        <time>2021-07-10T12:20:20Z</time>
      </trkpt>
      <trkpt lat="44.11213" lon="6.71454">
        <ele>2465.6150943165</ele>
        <time>2021-07-10T12:20:21Z</time>
      </trkpt>
      <trkpt lat="44.11214" lon="6.71454">
        <ele>2465.6150672842</ele>
        <time>2021-07-10T12:20:23Z</time>
      </trkpt>
      <trkpt lat="44.11216" lon="6.71453">
        <ele>2464.6149974163</ele>
        <time>2021-07-10T12:20:24Z</time>
      </trkpt>
      <trkpt lat="44.11217" lon="6.71454">
        <ele>2464.6149637846</ele>
        <time>2021-07-10T12:20:25Z</time>
      </trkpt>
      <trkpt lat="44.11218" lon="6.71454">
        <ele>2464.6149304742</ele>
        <time>2021-07-10T12:20:26Z</time>
      </trkpt>
      <trkpt lat="44.11219" lon="6.71454">
        <ele>2464.6148830573</ele>
        <time>2021-07-10T12:20:27Z</time>
      </trkpt>
      <trkpt lat="44.1122" lon="6.71455">
        <ele>2464.6148301229</ele>
        <time>2021-07-10T12:20:28Z</time>
      </trkpt>
      <trkpt lat="44.11221" lon="6.71456">
        <ele>2465.6147762282</ele>
        <time>2021-07-10T12:20:29Z</time>
      </trkpt>
      <trkpt lat="44.11222" lon="6.71456">
        <ele>2464.61473335</ele>
        <time>2021-07-10T12:20:30Z</time>
      </trkpt>
      <trkpt lat="44.11223" lon="6.71456">
        <ele>2463.6147169326</ele>
        <time>2021-07-10T12:20:31Z</time>
      </trkpt>
      <trkpt lat="44.11224" lon="6.71456">
        <ele>2463.6146741957</ele>
        <time>2021-07-10T12:20:32Z</time>
      </trkpt>
      <trkpt lat="44.11225" lon="6.71456">
        <ele>2463.6146394584</ele>
        <time>2021-07-10T12:20:34Z</time>
      </trkpt>
      <trkpt lat="44.11228" lon="6.71455">
        <ele>2463.6145750091</ele>
        <time>2021-07-10T12:20:35Z</time>
      </trkpt>
      <trkpt lat="44.11229" lon="6.71454">
        <ele>2463.6145484766</ele>
        <time>2021-07-10T12:20:36Z</time>
      </trkpt>
      <trkpt lat="44.1123" lon="6.71454">
        <ele>2462.6145251733</ele>
        <time>2021-07-10T12:20:37Z</time>
      </trkpt>
      <trkpt lat="44.11231" lon="6.71454">
        <ele>2463.6144954304</ele>
        <time>2021-07-10T12:20:39Z</time>
      </trkpt>
      <trkpt lat="44.11233" lon="6.71454">
        <ele>2464.614418995</ele>
        <time>2021-07-10T12:20:40Z</time>
      </trkpt>
      <trkpt lat="44.11234" lon="6.71454">
        <ele>2464.6143809817</ele>
        <time>2021-07-10T12:20:41Z</time>
      </trkpt>
      <trkpt lat="44.11234" lon="6.71454">
        <ele>2465.6143668882</ele>
        <time>2021-07-10T12:20:43Z</time>
      </trkpt>
      <trkpt lat="44.11236" lon="6.71454">
        <ele>2465.6142999187</ele>
        <time>2021-07-10T12:20:44Z</time>
      </trkpt>
      <trkpt lat="44.11237" lon="6.71454">
        <ele>2464.6142762981</ele>
        <time>2021-07-10T12:20:46Z</time>
      </trkpt>
      <trkpt lat="44.11238" lon="6.71453">
        <ele>2464.6142478287</ele>
        <time>2021-07-10T12:20:48Z</time>
      </trkpt>
      <trkpt lat="44.11241" lon="6.71453">
        <ele>2463.6141511728</ele>
        <time>2021-07-10T12:20:49Z</time>
      </trkpt>
      <trkpt lat="44.11242" lon="6.71452">
        <ele>2462.6141320402</ele>
        <time>2021-07-10T12:20:50Z</time>
      </trkpt>
      <trkpt lat="44.11244" lon="6.71452">
        <ele>2462.6140851845</ele>
        <time>2021-07-10T12:20:51Z</time>
      </trkpt>
      <trkpt lat="44.11246" lon="6.71452">
        <ele>2461.6139995324</ele>
        <time>2021-07-10T12:20:54Z</time>
      </trkpt>
      <trkpt lat="44.11249" lon="6.71451">
        <ele>2461.6139242567</ele>
        <time>2021-07-10T12:20:55Z</time>
      </trkpt>
      <trkpt lat="44.1125" lon="6.71451">
        <ele>2462.6138823921</ele>
        <time>2021-07-10T12:20:56Z</time>
      </trkpt>
      <trkpt lat="44.11251" lon="6.7145">
        <ele>2462.6138700382</ele>
        <time>2021-07-10T12:20:57Z</time>
      </trkpt>
      <trkpt lat="44.11252" lon="6.7145">
        <ele>2462.6138289128</ele>
        <time>2021-07-10T12:20:58Z</time>
      </trkpt>
      <trkpt lat="44.11253" lon="6.7145">
        <ele>2461.6137889439</ele>
        <time>2021-07-10T12:20:59Z</time>
      </trkpt>
      <trkpt lat="44.11254" lon="6.7145">
        <ele>2461.6137504201</ele>
        <time>2021-07-10T12:21:00Z</time>
      </trkpt>
      <trkpt lat="44.11256" lon="6.7145">
        <ele>2461.6137121235</ele>
        <time>2021-07-10T12:21:01Z</time>
      </trkpt>
      <trkpt lat="44.11257" lon="6.7145">
        <ele>2461.6136655255</ele>
        <time>2021-07-10T12:21:02Z</time>
      </trkpt>
      <trkpt lat="44.11257" lon="6.71451">
        <ele>2462.6136333096</ele>
        <time>2021-07-10T12:21:03Z</time>
      </trkpt>
      <trkpt lat="44.11259" lon="6.7145">
        <ele>2462.6135929603</ele>
        <time>2021-07-10T12:21:05Z</time>
      </trkpt>
      <trkpt lat="44.1126" lon="6.7145">
        <ele>2463.6135698387</ele>
        <time>2021-07-10T12:21:06Z</time>
      </trkpt>
      <trkpt lat="44.1126" lon="6.7145">
        <ele>2464.6135566481</ele>
        <time>2021-07-10T12:21:07Z</time>
      </trkpt>
      <trkpt lat="44.11262" lon="6.7145">
        <ele>2464.6134930599</ele>
        <time>2021-07-10T12:21:09Z</time>
      </trkpt>
      <trkpt lat="44.11263" lon="6.7145">
        <ele>2464.6134661993</ele>
        <time>2021-07-10T12:21:10Z</time>
      </trkpt>
      <trkpt lat="44.11263" lon="6.7145">
        <ele>2464.6134467759</ele>
        <time>2021-07-10T12:21:11Z</time>
      </trkpt>
      <trkpt lat="44.11265" lon="6.7145">
        <ele>2464.6133983527</ele>
        <time>2021-07-10T12:21:12Z</time>
      </trkpt>
      <trkpt lat="44.11266" lon="6.7145">
        <ele>2464.6133512309</ele>
        <time>2021-07-10T12:21:13Z</time>
      </trkpt>
      <trkpt lat="44.11267" lon="6.7145">
        <ele>2464.613325185</ele>
        <time>2021-07-10T12:21:14Z</time>
      </trkpt>
      <trkpt lat="44.11268" lon="6.71449">
        <ele>2463.6133048532</ele>
        <time>2021-07-10T12:21:15Z</time>
      </trkpt>
      <trkpt lat="44.11269" lon="6.71449">
        <ele>2464.6132817717</ele>
        <time>2021-07-10T12:21:16Z</time>
      </trkpt>
      <trkpt lat="44.11269" lon="6.71449">
        <ele>2464.6132670546</ele>
        <time>2021-07-10T12:21:18Z</time>
      </trkpt>
      <trkpt lat="44.11271" lon="6.71449">
        <ele>2465.6132100877</ele>
        <time>2021-07-10T12:21:19Z</time>
      </trkpt>
      <trkpt lat="44.11271" lon="6.71449">
        <ele>2465.6131994227</ele>
        <time>2021-07-10T12:21:21Z</time>
      </trkpt>
      <trkpt lat="44.11272" lon="6.71449">
        <ele>2466.6131600073</ele>
        <time>2021-07-10T12:21:23Z</time>
      </trkpt>
      <trkpt lat="44.11273" lon="6.71449">
        <ele>2465.6131377439</ele>
        <time>2021-07-10T12:21:24Z</time>
      </trkpt>
      <trkpt lat="44.11274" lon="6.71449">
        <ele>2465.6131113426</ele>
        <time>2021-07-10T12:21:25Z</time>
      </trkpt>
      <trkpt lat="44.11275" lon="6.71449">
        <ele>2465.6130778502</ele>
        <time>2021-07-10T12:21:26Z</time>
      </trkpt>
      <trkpt lat="44.11276" lon="6.71449">
        <ele>2466.6130479274</ele>
        <time>2021-07-10T12:21:30Z</time>
      </trkpt>
      <trkpt lat="44.11276" lon="6.71449">
        <ele>2467.6130269037</ele>
        <time>2021-07-10T12:21:31Z</time>
      </trkpt>
      <trkpt lat="44.11277" lon="6.71449">
        <ele>2467.6130080628</ele>
        <time>2021-07-10T12:21:32Z</time>
      </trkpt>
      <trkpt lat="44.11277" lon="6.71448">
        <ele>2467.6130013492</ele>
        <time>2021-07-10T12:21:33Z</time>
      </trkpt>
      <trkpt lat="44.11278" lon="6.71448">
        <ele>2467.6129675391</ele>
        <time>2021-07-10T12:21:34Z</time>
      </trkpt>
      <trkpt lat="44.11279" lon="6.71448">
        <ele>2467.6129637374</ele>
        <time>2021-07-10T12:21:37Z</time>
      </trkpt>
      <trkpt lat="44.11281" lon="6.71447">
        <ele>2468.612911105</ele>
        <time>2021-07-10T12:21:38Z</time>
      </trkpt>
      <trkpt lat="44.11281" lon="6.71447">
        <ele>2469.6128807772</ele>
        <time>2021-07-10T12:21:39Z</time>
      </trkpt>
      <trkpt lat="44.11282" lon="6.71447">
        <ele>2468.6128563574</ele>
        <time>2021-07-10T12:21:40Z</time>
      </trkpt>
      <trkpt lat="44.11283" lon="6.71446">
        <ele>2468.6128532244</ele>
        <time>2021-07-10T12:21:41Z</time>
      </trkpt>
      <trkpt lat="44.11283" lon="6.71445">
        <ele>2468.6128545357</ele>
        <time>2021-07-10T12:21:42Z</time>
      </trkpt>
      <trkpt lat="44.11284" lon="6.71445">
        <ele>2467.6128347212</ele>
        <time>2021-07-10T12:21:43Z</time>
      </trkpt>
      <trkpt lat="44.11284" lon="6.71445">
        <ele>2467.6128169516</ele>
        <time>2021-07-10T12:21:44Z</time>
      </trkpt>
      <trkpt lat="44.11285" lon="6.71446">
        <ele>2467.6127766346</ele>
        <time>2021-07-10T12:21:45Z</time>
      </trkpt>
      <trkpt lat="44.11286" lon="6.71446">
        <ele>2468.6127438027</ele>
        <time>2021-07-10T12:21:46Z</time>
      </trkpt>
      <trkpt lat="44.11287" lon="6.71446">
        <ele>2468.6127080028</ele>
        <time>2021-07-10T12:21:47Z</time>
      </trkpt>
      <trkpt lat="44.11287" lon="6.71447">
        <ele>2468.6126888083</ele>
        <time>2021-07-10T12:21:48Z</time>
      </trkpt>
      <trkpt lat="44.11289" lon="6.71447">
        <ele>2469.6126364231</ele>
        <time>2021-07-10T12:21:50Z</time>
      </trkpt>
      <trkpt lat="44.11289" lon="6.71447">
        <ele>2469.6126085611</ele>
        <time>2021-07-10T12:21:51Z</time>
      </trkpt>
      <trkpt lat="44.1129" lon="6.71447">
        <ele>2469.6125899038</ele>
        <time>2021-07-10T12:21:52Z</time>
      </trkpt>
      <trkpt lat="44.1129" lon="6.71446">
        <ele>2468.6125832759</ele>
        <time>2021-07-10T12:21:54Z</time>
      </trkpt>
      <trkpt lat="44.11291" lon="6.71446">
        <ele>2467.6125658551</ele>
        <time>2021-07-10T12:21:55Z</time>
      </trkpt>
      <trkpt lat="44.11292" lon="6.71445">
        <ele>2467.6125548924</ele>
        <time>2021-07-10T12:21:57Z</time>
      </trkpt>
      <trkpt lat="44.11293" lon="6.71445">
        <ele>2466.6125037803</ele>
        <time>2021-07-10T12:21:59Z</time>
      </trkpt>
      <trkpt lat="44.11294" lon="6.71445">
        <ele>2466.6124829343</ele>
        <time>2021-07-10T12:22:00Z</time>
      </trkpt>
      <trkpt lat="44.11295" lon="6.71445">
        <ele>2467.6124693444</ele>
        <time>2021-07-10T12:22:01Z</time>
      </trkpt>
      <trkpt lat="44.11296" lon="6.71445">
        <ele>2468.6124170359</ele>
        <time>2021-07-10T12:22:03Z</time>
      </trkpt>
      <trkpt lat="44.11297" lon="6.71444">
        <ele>2468.6123924289</ele>
        <time>2021-07-10T12:22:05Z</time>
      </trkpt>
      <trkpt lat="44.11298" lon="6.71443">
        <ele>2468.6123783511</ele>
        <time>2021-07-10T12:22:06Z</time>
      </trkpt>
      <trkpt lat="44.11299" lon="6.71443">
        <ele>2468.612358966</ele>
        <time>2021-07-10T12:22:07Z</time>
      </trkpt>
      <trkpt lat="44.11299" lon="6.71443">
        <ele>2468.6123416287</ele>
        <time>2021-07-10T12:22:09Z</time>
      </trkpt>
      <trkpt lat="44.113" lon="6.71442">
        <ele>2468.6123368748</ele>
        <time>2021-07-10T12:22:10Z</time>
      </trkpt>
      <trkpt lat="44.113" lon="6.71442">
        <ele>2468.6123272918</ele>
        <time>2021-07-10T12:22:11Z</time>
      </trkpt>
      <trkpt lat="44.11301" lon="6.71442">
        <ele>2468.6122939038</ele>
        <time>2021-07-10T12:22:13Z</time>
      </trkpt>
      <trkpt lat="44.11302" lon="6.71442">
        <ele>2469.6122609521</ele>
        <time>2021-07-10T12:22:15Z</time>
      </trkpt>
      <trkpt lat="44.11303" lon="6.71442">
        <ele>2469.6122340737</ele>
        <time>2021-07-10T12:22:16Z</time>
      </trkpt>
      <trkpt lat="44.11303" lon="6.71441">
        <ele>2469.612222273</ele>
        <time>2021-07-10T12:22:17Z</time>
      </trkpt>
      <trkpt lat="44.11305" lon="6.7144">
        <ele>2469.6121897055</ele>
        <time>2021-07-10T12:22:19Z</time>
      </trkpt>
      <trkpt lat="44.11306" lon="6.7144">
        <ele>2469.6121575413</ele>
        <time>2021-07-10T12:22:20Z</time>
      </trkpt>
      <trkpt lat="44.11307" lon="6.71439">
        <ele>2469.6121530639</ele>
        <time>2021-07-10T12:22:21Z</time>
      </trkpt>
      <trkpt lat="44.11308" lon="6.71437">
        <ele>2469.6121437083</ele>
        <time>2021-07-10T12:22:23Z</time>
      </trkpt>
      <trkpt lat="44.11309" lon="6.71437">
        <ele>2470.6121248732</ele>
        <time>2021-07-10T12:22:26Z</time>
      </trkpt>
      <trkpt lat="44.1131" lon="6.71437">
        <ele>2470.6120883877</ele>
        <time>2021-07-10T12:22:27Z</time>
      </trkpt>
      <trkpt lat="44.1131" lon="6.71438">
        <ele>2470.6120576781</ele>
        <time>2021-07-10T12:22:28Z</time>
      </trkpt>
      <trkpt lat="44.11312" lon="6.71438">
        <ele>2470.612008611</ele>
        <time>2021-07-10T12:22:30Z</time>
      </trkpt>
      <trkpt lat="44.11312" lon="6.71438">
        <ele>2470.6119894123</ele>
        <time>2021-07-10T12:22:31Z</time>
      </trkpt>
      <trkpt lat="44.11313" lon="6.71438">
        <ele>2470.6119622837</ele>
        <time>2021-07-10T12:22:32Z</time>
      </trkpt>
      <trkpt lat="44.11313" lon="6.71438">
        <ele>2469.6119575224</ele>
        <time>2021-07-10T12:22:33Z</time>
      </trkpt>
      <trkpt lat="44.11314" lon="6.71437">
        <ele>2469.6119281012</ele>
        <time>2021-07-10T12:22:35Z</time>
      </trkpt>
      <trkpt lat="44.11315" lon="6.71437">
        <ele>2469.6119183191</ele>
        <time>2021-07-10T12:22:36Z</time>
      </trkpt>
      <trkpt lat="44.11316" lon="6.71436">
        <ele>2469.6118851074</ele>
        <time>2021-07-10T12:22:37Z</time>
      </trkpt>
      <trkpt lat="44.11317" lon="6.71436">
        <ele>2470.611864219</ele>
        <time>2021-07-10T12:22:39Z</time>
      </trkpt>
      <trkpt lat="44.11317" lon="6.71436">
        <ele>2471.6118324578</ele>
        <time>2021-07-10T12:22:42Z</time>
      </trkpt>
      <trkpt lat="44.1132" lon="6.71437">
        <ele>2470.6117490186</ele>
        <time>2021-07-10T12:22:43Z</time>
      </trkpt>
      <trkpt lat="44.11322" lon="6.71437">
        <ele>2470.6116911819</ele>
        <time>2021-07-10T12:22:45Z</time>
      </trkpt>
      <trkpt lat="44.11322" lon="6.71437">
        <ele>2470.6116578801</ele>
        <time>2021-07-10T12:22:46Z</time>
      </trkpt>
      <trkpt lat="44.11323" lon="6.71438">
        <ele>2471.6116274601</ele>
        <time>2021-07-10T12:22:47Z</time>
      </trkpt>
      <trkpt lat="44.11323" lon="6.71438">
        <ele>2471.6116155085</ele>
        <time>2021-07-10T12:22:48Z</time>
      </trkpt>
      <trkpt lat="44.11324" lon="6.71438">
        <ele>2471.6115870451</ele>
        <time>2021-07-10T12:22:49Z</time>
      </trkpt>
      <trkpt lat="44.11325" lon="6.71438">
        <ele>2471.6115656979</ele>
        <time>2021-07-10T12:22:50Z</time>
      </trkpt>
      <trkpt lat="44.11325" lon="6.71437">
        <ele>2472.6115567606</ele>
        <time>2021-07-10T12:22:51Z</time>
      </trkpt>
      <trkpt lat="44.11325" lon="6.71436">
        <ele>2472.6115580382</ele>
        <time>2021-07-10T12:22:52Z</time>
      </trkpt>
      <trkpt lat="44.11326" lon="6.71436">
        <ele>2472.6115395148</ele>
        <time>2021-07-10T12:22:54Z</time>
      </trkpt>
      <trkpt lat="44.11328" lon="6.71437">
        <ele>2472.6114803488</ele>
        <time>2021-07-10T12:22:55Z</time>
      </trkpt>
      <trkpt lat="44.11328" lon="6.71437">
        <ele>2472.6114522581</ele>
        <time>2021-07-10T12:22:56Z</time>
      </trkpt>
      <trkpt lat="44.11329" lon="6.71437">
        <ele>2473.6114332556</ele>
        <time>2021-07-10T12:22:57Z</time>
      </trkpt>
      <trkpt lat="44.1133" lon="6.71436">
        <ele>2473.6114173848</ele>
        <time>2021-07-10T12:22:59Z</time>
      </trkpt>
      <trkpt lat="44.1133" lon="6.71436">
        <ele>2473.6114189076</ele>
        <time>2021-07-10T12:23:02Z</time>
      </trkpt>
      <trkpt lat="44.11332" lon="6.71437">
        <ele>2474.6113291627</ele>
        <time>2021-07-10T12:23:04Z</time>
      </trkpt>
      <trkpt lat="44.11332" lon="6.71437">
        <ele>2474.6113234003</ele>
        <time>2021-07-10T12:23:09Z</time>
      </trkpt>
      <trkpt lat="44.11334" lon="6.71437">
        <ele>2474.6112487372</ele>
        <time>2021-07-10T12:23:10Z</time>
      </trkpt>
      <trkpt lat="44.11334" lon="6.71437">
        <ele>2475.6112340914</ele>
        <time>2021-07-10T12:23:11Z</time>
      </trkpt>
      <trkpt lat="44.11335" lon="6.71437">
        <ele>2474.6112084844</ele>
        <time>2021-07-10T12:23:12Z</time>
      </trkpt>
      <trkpt lat="44.11337" lon="6.71437">
        <ele>2474.6111568541</ele>
        <time>2021-07-10T12:23:14Z</time>
      </trkpt>
      <trkpt lat="44.11337" lon="6.71437">
        <ele>2475.6111330611</ele>
        <time>2021-07-10T12:23:15Z</time>
      </trkpt>
      <trkpt lat="44.11338" lon="6.71438">
        <ele>2474.6111021685</ele>
        <time>2021-07-10T12:23:16Z</time>
      </trkpt>
      <trkpt lat="44.11339" lon="6.71437">
        <ele>2474.6110749173</ele>
        <time>2021-07-10T12:23:18Z</time>
      </trkpt>
      <trkpt lat="44.1134" lon="6.71436">
        <ele>2474.6110561226</ele>
        <time>2021-07-10T12:23:20Z</time>
      </trkpt>
      <trkpt lat="44.11341" lon="6.71436">
        <ele>2474.6110474726</ele>
        <time>2021-07-10T12:23:23Z</time>
      </trkpt>
      <trkpt lat="44.11342" lon="6.71435">
        <ele>2474.6110194008</ele>
        <time>2021-07-10T12:23:24Z</time>
      </trkpt>
      <trkpt lat="44.11343" lon="6.71434">
        <ele>2474.6110093416</ele>
        <time>2021-07-10T12:23:25Z</time>
      </trkpt>
      <trkpt lat="44.11344" lon="6.71433">
        <ele>2474.6109925073</ele>
        <time>2021-07-10T12:23:26Z</time>
      </trkpt>
      <trkpt lat="44.11344" lon="6.71433">
        <ele>2475.6109867317</ele>
        <time>2021-07-10T12:23:27Z</time>
      </trkpt>
      <trkpt lat="44.11344" lon="6.71433">
        <ele>2475.6109699664</ele>
        <time>2021-07-10T12:23:29Z</time>
      </trkpt>
      <trkpt lat="44.11346" lon="6.71433">
        <ele>2475.6109161051</ele>
        <time>2021-07-10T12:23:30Z</time>
      </trkpt>
      <trkpt lat="44.11347" lon="6.71432">
        <ele>2476.6109064932</ele>
        <time>2021-07-10T12:23:31Z</time>
      </trkpt>
      <trkpt lat="44.11347" lon="6.71431">
        <ele>2476.6109055555</ele>
        <time>2021-07-10T12:23:32Z</time>
      </trkpt>
      <trkpt lat="44.11349" lon="6.71431">
        <ele>2477.6108616524</ele>
        <time>2021-07-10T12:23:34Z</time>
      </trkpt>
      <trkpt lat="44.1135" lon="6.7143">
        <ele>2477.6108446293</ele>
        <time>2021-07-10T12:23:35Z</time>
      </trkpt>
      <trkpt lat="44.1135" lon="6.7143">
        <ele>2477.6108417327</ele>
        <time>2021-07-10T12:23:36Z</time>
      </trkpt>
      <trkpt lat="44.1135" lon="6.7143">
        <ele>2477.6108214383</ele>
        <time>2021-07-10T12:23:39Z</time>
      </trkpt>
      <trkpt lat="44.11351" lon="6.71428">
        <ele>2478.6108190932</ele>
        <time>2021-07-10T12:23:40Z</time>
      </trkpt>
      <trkpt lat="44.11352" lon="6.71428">
        <ele>2478.6108095634</ele>
        <time>2021-07-10T12:23:41Z</time>
      </trkpt>
      <trkpt lat="44.11353" lon="6.71428">
        <ele>2478.6107775319</ele>
        <time>2021-07-10T12:23:43Z</time>
      </trkpt>
      <trkpt lat="44.11354" lon="6.71429">
        <ele>2479.6107120602</ele>
        <time>2021-07-10T12:23:44Z</time>
      </trkpt>
      <trkpt lat="44.11355" lon="6.71428">
        <ele>2479.6106813303</ele>
        <time>2021-07-10T12:23:45Z</time>
      </trkpt>
      <trkpt lat="44.11356" lon="6.71429">
        <ele>2480.6106322986</ele>
        <time>2021-07-10T12:23:46Z</time>
      </trkpt>
      <trkpt lat="44.11357" lon="6.71428">
        <ele>2479.6106083453</ele>
        <time>2021-07-10T12:23:47Z</time>
      </trkpt>
      <trkpt lat="44.11359" lon="6.71428">
        <ele>2479.6105780799</ele>
        <time>2021-07-10T12:23:48Z</time>
      </trkpt>
      <trkpt lat="44.11359" lon="6.71428">
        <ele>2479.6105585128</ele>
        <time>2021-07-10T12:23:49Z</time>
      </trkpt>
      <trkpt lat="44.1136" lon="6.71428">
        <ele>2479.6105315902</ele>
        <time>2021-07-10T12:23:50Z</time>
      </trkpt>
      <trkpt lat="44.11361" lon="6.71427">
        <ele>2479.6105015199</ele>
        <time>2021-07-10T12:23:51Z</time>
      </trkpt>
      <trkpt lat="44.11362" lon="6.71426">
        <ele>2478.6104752601</ele>
        <time>2021-07-10T12:23:52Z</time>
      </trkpt>
      <trkpt lat="44.11364" lon="6.71427">
        <ele>2479.6104264669</ele>
        <time>2021-07-10T12:23:53Z</time>
      </trkpt>
      <trkpt lat="44.11365" lon="6.71426">
        <ele>2479.6103878317</ele>
        <time>2021-07-10T12:23:54Z</time>
      </trkpt>
      <trkpt lat="44.11365" lon="6.71427">
        <ele>2478.6103705945</ele>
        <time>2021-07-10T12:23:55Z</time>
      </trkpt>
      <trkpt lat="44.11366" lon="6.71427">
        <ele>2478.6103425674</ele>
        <time>2021-07-10T12:23:56Z</time>
      </trkpt>
      <trkpt lat="44.11367" lon="6.71427">
        <ele>2478.6103186749</ele>
        <time>2021-07-10T12:23:57Z</time>
      </trkpt>
      <trkpt lat="44.11368" lon="6.71426">
        <ele>2478.6103121744</ele>
        <time>2021-07-10T12:23:58Z</time>
      </trkpt>
      <trkpt lat="44.11368" lon="6.71425">
        <ele>2478.6102954148</ele>
        <time>2021-07-10T12:23:59Z</time>
      </trkpt>
      <trkpt lat="44.11369" lon="6.71426">
        <ele>2478.6102577823</ele>
        <time>2021-07-10T12:24:00Z</time>
      </trkpt>
      <trkpt lat="44.1137" lon="6.71426">
        <ele>2478.6102275824</ele>
        <time>2021-07-10T12:24:01Z</time>
      </trkpt>
      <trkpt lat="44.11371" lon="6.71426">
        <ele>2479.6101961742</ele>
        <time>2021-07-10T12:24:02Z</time>
      </trkpt>
      <trkpt lat="44.11372" lon="6.71426">
        <ele>2479.6101581899</ele>
        <time>2021-07-10T12:24:03Z</time>
      </trkpt>
      <trkpt lat="44.11373" lon="6.71425">
        <ele>2479.6101390865</ele>
        <time>2021-07-10T12:24:04Z</time>
      </trkpt>
      <trkpt lat="44.11373" lon="6.71424">
        <ele>2479.6101356978</ele>
        <time>2021-07-10T12:24:06Z</time>
      </trkpt>
      <trkpt lat="44.11374" lon="6.71424">
        <ele>2478.6101182016</ele>
        <time>2021-07-10T12:24:09Z</time>
      </trkpt>
      <trkpt lat="44.11375" lon="6.71424">
        <ele>2478.6100835236</ele>
        <time>2021-07-10T12:24:10Z</time>
      </trkpt>
      <trkpt lat="44.11376" lon="6.71424">
        <ele>2478.6100517408</ele>
        <time>2021-07-10T12:24:11Z</time>
      </trkpt>
      <trkpt lat="44.11377" lon="6.71424">
        <ele>2478.6100276953</ele>
        <time>2021-07-10T12:24:12Z</time>
      </trkpt>
      <trkpt lat="44.11377" lon="6.71424">
        <ele>2478.6100103929</ele>
        <time>2021-07-10T12:24:14Z</time>
      </trkpt>
      <trkpt lat="44.11379" lon="6.71424">
        <ele>2478.6099436199</ele>
        <time>2021-07-10T12:24:15Z</time>
      </trkpt>
      <trkpt lat="44.1138" lon="6.71424">
        <ele>2478.6099054613</ele>
        <time>2021-07-10T12:24:16Z</time>
      </trkpt>
      <trkpt lat="44.1138" lon="6.71425">
        <ele>2478.6098885815</ele>
        <time>2021-07-10T12:24:18Z</time>
      </trkpt>
      <trkpt lat="44.11381" lon="6.71425">
        <ele>2478.6098690791</ele>
        <time>2021-07-10T12:24:21Z</time>
      </trkpt>
      <trkpt lat="44.11383" lon="6.71424">
        <ele>2478.6098174868</ele>
        <time>2021-07-10T12:24:23Z</time>
      </trkpt>
      <trkpt lat="44.11385" lon="6.71425">
        <ele>2478.6097380135</ele>
        <time>2021-07-10T12:24:24Z</time>
      </trkpt>
      <trkpt lat="44.11385" lon="6.71424">
        <ele>2478.6097325933</ele>
        <time>2021-07-10T12:24:25Z</time>
      </trkpt>
      <trkpt lat="44.11386" lon="6.71424">
        <ele>2478.6097121615</ele>
        <time>2021-07-10T12:24:27Z</time>
      </trkpt>
      <trkpt lat="44.11387" lon="6.71423">
        <ele>2478.6096723003</ele>
        <time>2021-07-10T12:24:28Z</time>
      </trkpt>
      <trkpt lat="44.11388" lon="6.71423">
        <ele>2478.609645171</ele>
        <time>2021-07-10T12:24:29Z</time>
      </trkpt>
      <trkpt lat="44.11389" lon="6.71423">
        <ele>2478.6096233485</ele>
        <time>2021-07-10T12:24:30Z</time>
      </trkpt>
      <trkpt lat="44.1139" lon="6.71422">
        <ele>2478.60959553</ele>
        <time>2021-07-10T12:24:31Z</time>
      </trkpt>
      <trkpt lat="44.11392" lon="6.71422">
        <ele>2478.6095571446</ele>
        <time>2021-07-10T12:24:33Z</time>
      </trkpt>
      <trkpt lat="44.11394" lon="6.71421">
        <ele>2478.609496802</ele>
        <time>2021-07-10T12:24:35Z</time>
      </trkpt>
      <trkpt lat="44.11395" lon="6.71421">
        <ele>2479.6094623743</ele>
        <time>2021-07-10T12:24:36Z</time>
      </trkpt>
      <trkpt lat="44.11396" lon="6.7142">
        <ele>2479.6094444344</ele>
        <time>2021-07-10T12:24:37Z</time>
      </trkpt>
      <trkpt lat="44.11398" lon="6.7142">
        <ele>2480.6093816238</ele>
        <time>2021-07-10T12:24:39Z</time>
      </trkpt>
      <trkpt lat="44.11399" lon="6.71419">
        <ele>2481.6093558023</ele>
        <time>2021-07-10T12:24:40Z</time>
      </trkpt>
      <trkpt lat="44.114" lon="6.71419">
        <ele>2480.6093232491</ele>
        <time>2021-07-10T12:24:41Z</time>
      </trkpt>
      <trkpt lat="44.11402" lon="6.71419">
        <ele>2481.6092554999</ele>
        <time>2021-07-10T12:24:43Z</time>
      </trkpt>
      <trkpt lat="44.11404" lon="6.71418">
        <ele>2481.6092199981</ele>
        <time>2021-07-10T12:24:45Z</time>
      </trkpt>
      <trkpt lat="44.11405" lon="6.71418">
        <ele>2481.6091920451</ele>
        <time>2021-07-10T12:24:46Z</time>
      </trkpt>
      <trkpt lat="44.11406" lon="6.71417">
        <ele>2481.6091671076</ele>
        <time>2021-07-10T12:24:47Z</time>
      </trkpt>
      <trkpt lat="44.11407" lon="6.71416">
        <ele>2481.6091264223</ele>
        <time>2021-07-10T12:24:49Z</time>
      </trkpt>
      <trkpt lat="44.11408" lon="6.71416">
        <ele>2481.6090956598</ele>
        <time>2021-07-10T12:24:50Z</time>
      </trkpt>
      <trkpt lat="44.11409" lon="6.71416">
        <ele>2481.6090628684</ele>
        <time>2021-07-10T12:24:51Z</time>
      </trkpt>
      <trkpt lat="44.11411" lon="6.71415">
        <ele>2481.6090324588</ele>
        <time>2021-07-10T12:24:53Z</time>
      </trkpt>
      <trkpt lat="44.11412" lon="6.71414">
        <ele>2480.6090090399</ele>
        <time>2021-07-10T12:24:55Z</time>
      </trkpt>
      <trkpt lat="44.11412" lon="6.71413">
        <ele>2480.6090157467</ele>
        <time>2021-07-10T12:24:56Z</time>
      </trkpt>
      <trkpt lat="44.11413" lon="6.71412">
        <ele>2480.6090216135</ele>
        <time>2021-07-10T12:24:57Z</time>
      </trkpt>
      <trkpt lat="44.11413" lon="6.71412">
        <ele>2479.6089946672</ele>
        <time>2021-07-10T12:24:59Z</time>
      </trkpt>
      <trkpt lat="44.11414" lon="6.71412">
        <ele>2479.6089683454</ele>
        <time>2021-07-10T12:25:00Z</time>
      </trkpt>
      <trkpt lat="44.11415" lon="6.71411">
        <ele>2479.6089608859</ele>
        <time>2021-07-10T12:25:01Z</time>
      </trkpt>
      <trkpt lat="44.11415" lon="6.71411">
        <ele>2480.6089490319</ele>
        <time>2021-07-10T12:25:02Z</time>
      </trkpt>
      <trkpt lat="44.11416" lon="6.7141">
        <ele>2480.6089220288</ele>
        <time>2021-07-10T12:25:03Z</time>
      </trkpt>
      <trkpt lat="44.11417" lon="6.71409">
        <ele>2480.6089012582</ele>
        <time>2021-07-10T12:25:04Z</time>
      </trkpt>
      <trkpt lat="44.11418" lon="6.71408">
        <ele>2480.6088983008</ele>
        <time>2021-07-10T12:25:05Z</time>
      </trkpt>
      <trkpt lat="44.11419" lon="6.71407">
        <ele>2480.608885947</ele>
        <time>2021-07-10T12:25:06Z</time>
      </trkpt>
      <trkpt lat="44.11421" lon="6.71407">
        <ele>2481.6088244127</ele>
        <time>2021-07-10T12:25:08Z</time>
      </trkpt>
      <trkpt lat="44.11423" lon="6.71408">
        <ele>2481.6087405743</ele>
        <time>2021-07-10T12:25:10Z</time>
      </trkpt>
      <trkpt lat="44.11424" lon="6.71408">
        <ele>2482.6087229231</ele>
        <time>2021-07-10T12:25:11Z</time>
      </trkpt>
      <trkpt lat="44.11424" lon="6.71407">
        <ele>2482.6087026841</ele>
        <time>2021-07-10T12:25:12Z</time>
      </trkpt>
      <trkpt lat="44.11425" lon="6.71407">
        <ele>2482.6086765391</ele>
        <time>2021-07-10T12:25:13Z</time>
      </trkpt>
      <trkpt lat="44.11427" lon="6.71408">
        <ele>2483.6086030096</ele>
        <time>2021-07-10T12:25:15Z</time>
      </trkpt>
      <trkpt lat="44.11428" lon="6.71408">
        <ele>2483.6085734751</ele>
        <time>2021-07-10T12:25:16Z</time>
      </trkpt>
      <trkpt lat="44.11429" lon="6.71408">
        <ele>2483.6085445243</ele>
        <time>2021-07-10T12:25:17Z</time>
      </trkpt>
      <trkpt lat="44.1143" lon="6.71407">
        <ele>2484.6084971537</ele>
        <time>2021-07-10T12:25:19Z</time>
      </trkpt>
      <trkpt lat="44.11431" lon="6.71406">
        <ele>2484.6084944862</ele>
        <time>2021-07-10T12:25:20Z</time>
      </trkpt>
      <trkpt lat="44.11431" lon="6.71406">
        <ele>2484.6084841113</ele>
        <time>2021-07-10T12:25:21Z</time>
      </trkpt>
      <trkpt lat="44.11432" lon="6.71405">
        <ele>2484.6084880409</ele>
        <time>2021-07-10T12:25:22Z</time>
      </trkpt>
      <trkpt lat="44.11432" lon="6.71405">
        <ele>2484.6084752043</ele>
        <time>2021-07-10T12:25:24Z</time>
      </trkpt>
      <trkpt lat="44.11434" lon="6.71404">
        <ele>2483.6084377988</ele>
        <time>2021-07-10T12:25:25Z</time>
      </trkpt>
      <trkpt lat="44.11435" lon="6.71403">
        <ele>2483.6084069544</ele>
        <time>2021-07-10T12:25:26Z</time>
      </trkpt>
      <trkpt lat="44.11437" lon="6.71402">
        <ele>2484.6083757844</ele>
        <time>2021-07-10T12:25:27Z</time>
      </trkpt>
      <trkpt lat="44.11438" lon="6.71402">
        <ele>2483.6083442806</ele>
        <time>2021-07-10T12:25:29Z</time>
      </trkpt>
      <trkpt lat="44.11438" lon="6.71401">
        <ele>2484.6083351499</ele>
        <time>2021-07-10T12:25:30Z</time>
      </trkpt>
      <trkpt lat="44.11439" lon="6.714">
        <ele>2484.6083326365</ele>
        <time>2021-07-10T12:25:31Z</time>
      </trkpt>
      <trkpt lat="44.11441" lon="6.714">
        <ele>2483.6082798252</ele>
        <time>2021-07-10T12:25:33Z</time>
      </trkpt>
      <trkpt lat="44.11442" lon="6.714">
        <ele>2484.6082316998</ele>
        <time>2021-07-10T12:25:35Z</time>
      </trkpt>
      <trkpt lat="44.11442" lon="6.71399">
        <ele>2484.6082345233</ele>
        <time>2021-07-10T12:25:37Z</time>
      </trkpt>
      <trkpt lat="44.11444" lon="6.71398">
        <ele>2485.6081992734</ele>
        <time>2021-07-10T12:25:38Z</time>
      </trkpt>
      <trkpt lat="44.11445" lon="6.71397">
        <ele>2485.6081719199</ele>
        <time>2021-07-10T12:25:40Z</time>
      </trkpt>
      <trkpt lat="44.11445" lon="6.71397">
        <ele>2484.6081578488</ele>
        <time>2021-07-10T12:25:41Z</time>
      </trkpt>
      <trkpt lat="44.11446" lon="6.71396">
        <ele>2484.6081682838</ele>
        <time>2021-07-10T12:25:42Z</time>
      </trkpt>
      <trkpt lat="44.11446" lon="6.71396">
        <ele>2485.6081728456</ele>
        <time>2021-07-10T12:25:43Z</time>
      </trkpt>
      <trkpt lat="44.11446" lon="6.71394">
        <ele>2485.6081817368</ele>
        <time>2021-07-10T12:25:45Z</time>
      </trkpt>
      <trkpt lat="44.11448" lon="6.71393">
        <ele>2485.608155801</ele>
        <time>2021-07-10T12:25:46Z</time>
      </trkpt>
      <trkpt lat="44.11449" lon="6.71393">
        <ele>2485.6081361468</ele>
        <time>2021-07-10T12:25:48Z</time>
      </trkpt>
      <trkpt lat="44.1145" lon="6.71391">
        <ele>2486.6081067442</ele>
        <time>2021-07-10T12:25:49Z</time>
      </trkpt>
      <trkpt lat="44.11451" lon="6.7139">
        <ele>2486.6081165454</ele>
        <time>2021-07-10T12:25:50Z</time>
      </trkpt>
      <trkpt lat="44.1145" lon="6.71389">
        <ele>2486.6081492735</ele>
        <time>2021-07-10T12:25:53Z</time>
      </trkpt>
      <trkpt lat="44.11451" lon="6.71388">
        <ele>2485.6081593622</ele>
        <time>2021-07-10T12:25:54Z</time>
      </trkpt>
      <trkpt lat="44.11451" lon="6.71388">
        <ele>2485.6081355234</ele>
        <time>2021-07-10T12:25:57Z</time>
      </trkpt>
      <trkpt lat="44.11453" lon="6.71388">
        <ele>2485.6080694845</ele>
        <time>2021-07-10T12:25:59Z</time>
      </trkpt>
      <trkpt lat="44.11454" lon="6.71387">
        <ele>2485.6080536275</ele>
        <time>2021-07-10T12:26:00Z</time>
      </trkpt>
      <trkpt lat="44.11455" lon="6.71386">
        <ele>2485.6080510534</ele>
        <time>2021-07-10T12:26:01Z</time>
      </trkpt>
      <trkpt lat="44.11455" lon="6.71385">
        <ele>2485.6080461856</ele>
        <time>2021-07-10T12:26:02Z</time>
      </trkpt>
      <trkpt lat="44.11455" lon="6.71385">
        <ele>2485.6080496672</ele>
        <time>2021-07-10T12:26:05Z</time>
      </trkpt>
      <trkpt lat="44.11457" lon="6.71384">
        <ele>2486.6080121712</ele>
        <time>2021-07-10T12:26:06Z</time>
      </trkpt>
      <trkpt lat="44.11458" lon="6.71383">
        <ele>2486.6080028625</ele>
        <time>2021-07-10T12:26:07Z</time>
      </trkpt>
      <trkpt lat="44.11458" lon="6.71383">
        <ele>2486.6079713577</ele>
        <time>2021-07-10T12:26:08Z</time>
      </trkpt>
      <trkpt lat="44.1146" lon="6.71384">
        <ele>2486.6079270402</ele>
        <time>2021-07-10T12:26:10Z</time>
      </trkpt>
      <trkpt lat="44.11461" lon="6.71383">
        <ele>2486.6079041124</ele>
        <time>2021-07-10T12:26:11Z</time>
      </trkpt>
      <trkpt lat="44.11461" lon="6.71382">
        <ele>2486.607914668</ele>
        <time>2021-07-10T12:26:12Z</time>
      </trkpt>
      <trkpt lat="44.11461" lon="6.71382">
        <ele>2486.6079014821</ele>
        <time>2021-07-10T12:26:14Z</time>
      </trkpt>
      <trkpt lat="44.11463" lon="6.71381">
        <ele>2486.6078433696</ele>
        <time>2021-07-10T12:26:15Z</time>
      </trkpt>
      <trkpt lat="44.11464" lon="6.71381">
        <ele>2485.6078049786</ele>
        <time>2021-07-10T12:26:16Z</time>
      </trkpt>
      <trkpt lat="44.11465" lon="6.71381">
        <ele>2485.6077862363</ele>
        <time>2021-07-10T12:26:17Z</time>
      </trkpt>
      <trkpt lat="44.11466" lon="6.71381">
        <ele>2484.6077715525</ele>
        <time>2021-07-10T12:26:18Z</time>
      </trkpt>
      <trkpt lat="44.11466" lon="6.71381">
        <ele>2484.6077371533</ele>
        <time>2021-07-10T12:26:20Z</time>
      </trkpt>
      <trkpt lat="44.11467" lon="6.71381">
        <ele>2484.6077147946</ele>
        <time>2021-07-10T12:26:21Z</time>
      </trkpt>
      <trkpt lat="44.11468" lon="6.71381">
        <ele>2484.6076792052</ele>
        <time>2021-07-10T12:26:23Z</time>
      </trkpt>
      <trkpt lat="44.1147" lon="6.7138">
        <ele>2483.6076324021</ele>
        <time>2021-07-10T12:26:24Z</time>
      </trkpt>
      <trkpt lat="44.11471" lon="6.71379">
        <ele>2483.607619278</ele>
        <time>2021-07-10T12:26:25Z</time>
      </trkpt>
      <trkpt lat="44.11471" lon="6.71379">
        <ele>2483.6076163681</ele>
        <time>2021-07-10T12:26:26Z</time>
      </trkpt>
      <trkpt lat="44.11472" lon="6.71379">
        <ele>2483.6075828303</ele>
        <time>2021-07-10T12:26:27Z</time>
      </trkpt>
      <trkpt lat="44.11475" lon="6.71378">
        <ele>2483.6075205233</ele>
        <time>2021-07-10T12:26:29Z</time>
      </trkpt>
      <trkpt lat="44.11475" lon="6.71378">
        <ele>2483.6074992614</ele>
        <time>2021-07-10T12:26:30Z</time>
      </trkpt>
      <trkpt lat="44.11476" lon="6.71377">
        <ele>2482.6074879321</ele>
        <time>2021-07-10T12:26:32Z</time>
      </trkpt>
      <trkpt lat="44.11478" lon="6.71375">
        <ele>2482.6074458849</ele>
        <time>2021-07-10T12:26:34Z</time>
      </trkpt>
      <trkpt lat="44.1148" lon="6.71373">
        <ele>2481.6074381355</ele>
        <time>2021-07-10T12:26:35Z</time>
      </trkpt>
      <trkpt lat="44.1148" lon="6.71372">
        <ele>2480.6074429527</ele>
        <time>2021-07-10T12:26:36Z</time>
      </trkpt>
      <trkpt lat="44.1148" lon="6.71371">
        <ele>2480.607439315</ele>
        <time>2021-07-10T12:26:37Z</time>
      </trkpt>
      <trkpt lat="44.11482" lon="6.7137">
        <ele>2479.6074063633</ele>
        <time>2021-07-10T12:26:39Z</time>
      </trkpt>
      <trkpt lat="44.11483" lon="6.71369">
        <ele>2479.607382702</ele>
        <time>2021-07-10T12:26:40Z</time>
      </trkpt>
      <trkpt lat="44.11484" lon="6.71368">
        <ele>2479.6073679448</ele>
        <time>2021-07-10T12:26:41Z</time>
      </trkpt>
      <trkpt lat="44.11486" lon="6.71367">
        <ele>2479.6073324662</ele>
        <time>2021-07-10T12:26:43Z</time>
      </trkpt>
      <trkpt lat="44.11488" lon="6.71365">
        <ele>2478.6073177787</ele>
        <time>2021-07-10T12:26:45Z</time>
      </trkpt>
      <trkpt lat="44.11489" lon="6.71364">
        <ele>2477.6072952921</ele>
        <time>2021-07-10T12:26:46Z</time>
      </trkpt>
      <trkpt lat="44.11491" lon="6.71363">
        <ele>2476.6072439573</ele>
        <time>2021-07-10T12:26:48Z</time>
      </trkpt>
      <trkpt lat="44.11492" lon="6.71363">
        <ele>2477.607203592</ele>
        <time>2021-07-10T12:26:49Z</time>
      </trkpt>
      <trkpt lat="44.11493" lon="6.71362">
        <ele>2477.6071704641</ele>
        <time>2021-07-10T12:26:50Z</time>
      </trkpt>
      <trkpt lat="44.11494" lon="6.71361">
        <ele>2477.6071529841</ele>
        <time>2021-07-10T12:26:51Z</time>
      </trkpt>
      <trkpt lat="44.11496" lon="6.7136">
        <ele>2477.6071128301</ele>
        <time>2021-07-10T12:26:53Z</time>
      </trkpt>
      <trkpt lat="44.11496" lon="6.71359">
        <ele>2477.6071189625</ele>
        <time>2021-07-10T12:26:55Z</time>
      </trkpt>
      <trkpt lat="44.11497" lon="6.71358">
        <ele>2477.6071193617</ele>
        <time>2021-07-10T12:26:56Z</time>
      </trkpt>
      <trkpt lat="44.11498" lon="6.71357">
        <ele>2476.6071029555</ele>
        <time>2021-07-10T12:26:58Z</time>
      </trkpt>
      <trkpt lat="44.11501" lon="6.71356">
        <ele>2476.6070274296</ele>
        <time>2021-07-10T12:26:59Z</time>
      </trkpt>
      <trkpt lat="44.11502" lon="6.71355">
        <ele>2476.6070052023</ele>
        <time>2021-07-10T12:27:00Z</time>
      </trkpt>
      <trkpt lat="44.11503" lon="6.71355">
        <ele>2476.6069617711</ele>
        <time>2021-07-10T12:27:01Z</time>
      </trkpt>
      <trkpt lat="44.11506" lon="6.71353">
        <ele>2477.6069176013</ele>
        <time>2021-07-10T12:27:03Z</time>
      </trkpt>
      <trkpt lat="44.11507" lon="6.71351">
        <ele>2477.6069111159</ele>
        <time>2021-07-10T12:27:05Z</time>
      </trkpt>
      <trkpt lat="44.11508" lon="6.7135">
        <ele>2477.6068919548</ele>
        <time>2021-07-10T12:27:06Z</time>
      </trkpt>
      <trkpt lat="44.11509" lon="6.71349">
        <ele>2476.6068801885</ele>
        <time>2021-07-10T12:27:07Z</time>
      </trkpt>
      <trkpt lat="44.1151" lon="6.71349">
        <ele>2475.6068604675</ele>
        <time>2021-07-10T12:27:08Z</time>
      </trkpt>
      <trkpt lat="44.11511" lon="6.71347">
        <ele>2476.6068424459</ele>
        <time>2021-07-10T12:27:09Z</time>
      </trkpt>
      <trkpt lat="44.11512" lon="6.71347">
        <ele>2476.6068014265</ele>
        <time>2021-07-10T12:27:10Z</time>
      </trkpt>
      <trkpt lat="44.11514" lon="6.71346">
        <ele>2477.6067601479</ele>
        <time>2021-07-10T12:27:11Z</time>
      </trkpt>
      <trkpt lat="44.11515" lon="6.71346">
        <ele>2476.6067352864</ele>
        <time>2021-07-10T12:27:12Z</time>
      </trkpt>
      <trkpt lat="44.11515" lon="6.71346">
        <ele>2476.6067166824</ele>
        <time>2021-07-10T12:27:13Z</time>
      </trkpt>
      <trkpt lat="44.11516" lon="6.71345">
        <ele>2476.6066921586</ele>
        <time>2021-07-10T12:27:14Z</time>
      </trkpt>
      <trkpt lat="44.11517" lon="6.71344">
        <ele>2476.6066744212</ele>
        <time>2021-07-10T12:27:15Z</time>
      </trkpt>
      <trkpt lat="44.11519" lon="6.71344">
        <ele>2476.606637863</ele>
        <time>2021-07-10T12:27:16Z</time>
      </trkpt>
      <trkpt lat="44.1152" lon="6.71343">
        <ele>2477.6066020902</ele>
        <time>2021-07-10T12:27:17Z</time>
      </trkpt>
      <trkpt lat="44.11521" lon="6.71343">
        <ele>2477.6065746919</ele>
        <time>2021-07-10T12:27:18Z</time>
      </trkpt>
      <trkpt lat="44.11522" lon="6.71342">
        <ele>2477.6065603029</ele>
        <time>2021-07-10T12:27:19Z</time>
      </trkpt>
      <trkpt lat="44.11523" lon="6.71341">
        <ele>2477.606546162</ele>
        <time>2021-07-10T12:27:20Z</time>
      </trkpt>
      <trkpt lat="44.11524" lon="6.71341">
        <ele>2477.6065128297</ele>
        <time>2021-07-10T12:27:21Z</time>
      </trkpt>
      <trkpt lat="44.11525" lon="6.7134">
        <ele>2477.6064872162</ele>
        <time>2021-07-10T12:27:22Z</time>
      </trkpt>
      <trkpt lat="44.11527" lon="6.71339">
        <ele>2477.606434427</ele>
        <time>2021-07-10T12:27:24Z</time>
      </trkpt>
      <trkpt lat="44.11528" lon="6.71339">
        <ele>2477.6064046697</ele>
        <time>2021-07-10T12:27:25Z</time>
      </trkpt>
      <trkpt lat="44.11529" lon="6.71339">
        <ele>2477.6063762712</ele>
        <time>2021-07-10T12:27:26Z</time>
      </trkpt>
      <trkpt lat="44.11531" lon="6.71337">
        <ele>2476.6063521857</ele>
        <time>2021-07-10T12:27:28Z</time>
      </trkpt>
      <trkpt lat="44.11532" lon="6.71336">
        <ele>2476.6063325644</ele>
        <time>2021-07-10T12:27:30Z</time>
      </trkpt>
      <trkpt lat="44.11533" lon="6.71336">
        <ele>2476.6063105355</ele>
        <time>2021-07-10T12:27:31Z</time>
      </trkpt>
      <trkpt lat="44.11534" lon="6.71336">
        <ele>2476.6062766326</ele>
        <time>2021-07-10T12:27:33Z</time>
      </trkpt>
      <trkpt lat="44.11535" lon="6.71335">
        <ele>2476.6062311004</ele>
        <time>2021-07-10T12:27:34Z</time>
      </trkpt>
      <trkpt lat="44.11536" lon="6.71335">
        <ele>2476.6062009522</ele>
        <time>2021-07-10T12:27:35Z</time>
      </trkpt>
      <trkpt lat="44.11537" lon="6.71336">
        <ele>2476.6061653123</ele>
        <time>2021-07-10T12:27:37Z</time>
      </trkpt>
      <trkpt lat="44.11539" lon="6.71336">
        <ele>2475.6060831019</ele>
        <time>2021-07-10T12:27:38Z</time>
      </trkpt>
      <trkpt lat="44.11542" lon="6.71336">
        <ele>2475.6060020324</ele>
        <time>2021-07-10T12:27:40Z</time>
      </trkpt>
      <trkpt lat="44.11543" lon="6.71335">
        <ele>2474.6059677085</ele>
        <time>2021-07-10T12:27:41Z</time>
      </trkpt>
      <trkpt lat="44.11544" lon="6.71335">
        <ele>2475.6059435245</ele>
        <time>2021-07-10T12:27:42Z</time>
      </trkpt>
      <trkpt lat="44.11546" lon="6.71334">
        <ele>2475.6058929039</ele>
        <time>2021-07-10T12:27:44Z</time>
      </trkpt>
      <trkpt lat="44.11546" lon="6.71333">
        <ele>2475.6058861412</ele>
        <time>2021-07-10T12:27:45Z</time>
      </trkpt>
      <trkpt lat="44.11547" lon="6.71334">
        <ele>2474.6058501805</ele>
        <time>2021-07-10T12:27:46Z</time>
      </trkpt>
      <trkpt lat="44.11549" lon="6.71334">
        <ele>2475.6057872266</ele>
        <time>2021-07-10T12:27:49Z</time>
      </trkpt>
      <trkpt lat="44.11551" lon="6.71334">
        <ele>2475.6057353331</ele>
        <time>2021-07-10T12:27:50Z</time>
      </trkpt>
      <trkpt lat="44.11551" lon="6.71332">
        <ele>2475.6057359443</ele>
        <time>2021-07-10T12:27:51Z</time>
      </trkpt>
      <trkpt lat="44.11552" lon="6.71332">
        <ele>2476.6057216137</ele>
        <time>2021-07-10T12:27:52Z</time>
      </trkpt>
      <trkpt lat="44.11553" lon="6.71332">
        <ele>2476.6056813354</ele>
        <time>2021-07-10T12:27:54Z</time>
      </trkpt>
      <trkpt lat="44.11554" lon="6.71331">
        <ele>2475.605668354</ele>
        <time>2021-07-10T12:27:55Z</time>
      </trkpt>
      <trkpt lat="44.11554" lon="6.7133">
        <ele>2475.605663741</ele>
        <time>2021-07-10T12:27:56Z</time>
      </trkpt>
      <trkpt lat="44.11555" lon="6.71331">
        <ele>2475.6056256341</ele>
        <time>2021-07-10T12:27:57Z</time>
      </trkpt>
      <trkpt lat="44.11557" lon="6.71331">
        <ele>2475.6055820806</ele>
        <time>2021-07-10T12:27:59Z</time>
      </trkpt>
      <trkpt lat="44.11558" lon="6.71331">
        <ele>2475.6055561926</ele>
        <time>2021-07-10T12:28:00Z</time>
      </trkpt>
      <trkpt lat="44.11558" lon="6.7133">
        <ele>2475.6055407245</ele>
        <time>2021-07-10T12:28:01Z</time>
      </trkpt>
      <trkpt lat="44.11559" lon="6.7133">
        <ele>2475.6055151147</ele>
        <time>2021-07-10T12:28:02Z</time>
      </trkpt>
      <trkpt lat="44.11561" lon="6.71329">
        <ele>2475.605477786</ele>
        <time>2021-07-10T12:28:04Z</time>
      </trkpt>
      <trkpt lat="44.11562" lon="6.71328">
        <ele>2476.6054551558</ele>
        <time>2021-07-10T12:28:05Z</time>
      </trkpt>
      <trkpt lat="44.11563" lon="6.71328">
        <ele>2475.6054311819</ele>
        <time>2021-07-10T12:28:06Z</time>
      </trkpt>
      <trkpt lat="44.11563" lon="6.71328">
        <ele>2476.6054061336</ele>
        <time>2021-07-10T12:28:07Z</time>
      </trkpt>
      <trkpt lat="44.11565" lon="6.71327">
        <ele>2476.6053703155</ele>
        <time>2021-07-10T12:28:09Z</time>
      </trkpt>
      <trkpt lat="44.11566" lon="6.71327">
        <ele>2477.6053211361</ele>
        <time>2021-07-10T12:28:10Z</time>
      </trkpt>
      <trkpt lat="44.11567" lon="6.71327">
        <ele>2477.6053001793</ele>
        <time>2021-07-10T12:28:11Z</time>
      </trkpt>
      <trkpt lat="44.11568" lon="6.71328">
        <ele>2477.6052607905</ele>
        <time>2021-07-10T12:28:13Z</time>
      </trkpt>
      <trkpt lat="44.11568" lon="6.71327">
        <ele>2477.6052471029</ele>
        <time>2021-07-10T12:28:14Z</time>
      </trkpt>
      <trkpt lat="44.11569" lon="6.71327">
        <ele>2477.6052246961</ele>
        <time>2021-07-10T12:28:15Z</time>
      </trkpt>
      <trkpt lat="44.1157" lon="6.71327">
        <ele>2477.6052006581</ele>
        <time>2021-07-10T12:28:16Z</time>
      </trkpt>
      <trkpt lat="44.1157" lon="6.71328">
        <ele>2478.6051786165</ele>
        <time>2021-07-10T12:28:17Z</time>
      </trkpt>
      <trkpt lat="44.11571" lon="6.71327">
        <ele>2478.6051626386</ele>
        <time>2021-07-10T12:28:18Z</time>
      </trkpt>
      <trkpt lat="44.11572" lon="6.71328">
        <ele>2478.6051328526</ele>
        <time>2021-07-10T12:28:20Z</time>
      </trkpt>
      <trkpt lat="44.11572" lon="6.71328">
        <ele>2477.6051021012</ele>
        <time>2021-07-10T12:28:21Z</time>
      </trkpt>
      <trkpt lat="44.11573" lon="6.71328">
        <ele>2478.6050721435</ele>
        <time>2021-07-10T12:28:22Z</time>
      </trkpt>
      <trkpt lat="44.11574" lon="6.71329">
        <ele>2478.6050386696</ele>
        <time>2021-07-10T12:28:23Z</time>
      </trkpt>
      <trkpt lat="44.11574" lon="6.71329">
        <ele>2478.6050120521</ele>
        <time>2021-07-10T12:28:25Z</time>
      </trkpt>
      <trkpt lat="44.11575" lon="6.71328">
        <ele>2478.6049833384</ele>
        <time>2021-07-10T12:28:26Z</time>
      </trkpt>
      <trkpt lat="44.11576" lon="6.71328">
        <ele>2478.6049582114</ele>
        <time>2021-07-10T12:28:27Z</time>
      </trkpt>
      <trkpt lat="44.11577" lon="6.71328">
        <ele>2478.604931868</ele>
        <time>2021-07-10T12:28:28Z</time>
      </trkpt>
      <trkpt lat="44.11578" lon="6.71328">
        <ele>2479.604893184</ele>
        <time>2021-07-10T12:28:29Z</time>
      </trkpt>
      <trkpt lat="44.1158" lon="6.71327">
        <ele>2480.6048699115</ele>
        <time>2021-07-10T12:28:30Z</time>
      </trkpt>
      <trkpt lat="44.11581" lon="6.71327">
        <ele>2480.604846424</ele>
        <time>2021-07-10T12:28:31Z</time>
      </trkpt>
      <trkpt lat="44.11582" lon="6.71327">
        <ele>2481.6047858648</ele>
        <time>2021-07-10T12:28:33Z</time>
      </trkpt>
      <trkpt lat="44.11582" lon="6.71328">
        <ele>2481.6047706885</ele>
        <time>2021-07-10T12:28:36Z</time>
      </trkpt>
      <trkpt lat="44.11584" lon="6.71326">
        <ele>2482.604747238</ele>
        <time>2021-07-10T12:28:37Z</time>
      </trkpt>
      <trkpt lat="44.11584" lon="6.71325">
        <ele>2482.6047336383</ele>
        <time>2021-07-10T12:28:38Z</time>
      </trkpt>
      <trkpt lat="44.11586" lon="6.71325">
        <ele>2482.6046800413</ele>
        <time>2021-07-10T12:28:40Z</time>
      </trkpt>
      <trkpt lat="44.11587" lon="6.71324">
        <ele>2482.6046755244</ele>
        <time>2021-07-10T12:28:41Z</time>
      </trkpt>
      <trkpt lat="44.11588" lon="6.71324">
        <ele>2482.6046578491</ele>
        <time>2021-07-10T12:28:42Z</time>
      </trkpt>
      <trkpt lat="44.11588" lon="6.71323">
        <ele>2482.6046435687</ele>
        <time>2021-07-10T12:28:43Z</time>
      </trkpt>
      <trkpt lat="44.1159" lon="6.71323">
        <ele>2482.6046051318</ele>
        <time>2021-07-10T12:28:44Z</time>
      </trkpt>
      <trkpt lat="44.1159" lon="6.71322">
        <ele>2482.6045883359</ele>
        <time>2021-07-10T12:28:45Z</time>
      </trkpt>
      <trkpt lat="44.11591" lon="6.71321">
        <ele>2482.6045819561</ele>
        <time>2021-07-10T12:28:46Z</time>
      </trkpt>
      <trkpt lat="44.11592" lon="6.71321">
        <ele>2482.6045546069</ele>
        <time>2021-07-10T12:28:47Z</time>
      </trkpt>
      <trkpt lat="44.11593" lon="6.71321">
        <ele>2482.6045303787</ele>
        <time>2021-07-10T12:28:48Z</time>
      </trkpt>
      <trkpt lat="44.11594" lon="6.71321">
        <ele>2482.6044981201</ele>
        <time>2021-07-10T12:28:49Z</time>
      </trkpt>
      <trkpt lat="44.11594" lon="6.7132">
        <ele>2482.6044870158</ele>
        <time>2021-07-10T12:28:50Z</time>
      </trkpt>
      <trkpt lat="44.11595" lon="6.7132">
        <ele>2482.6044702565</ele>
        <time>2021-07-10T12:28:51Z</time>
      </trkpt>
      <trkpt lat="44.11597" lon="6.71318">
        <ele>2482.6044364366</ele>
        <time>2021-07-10T12:28:53Z</time>
      </trkpt>
      <trkpt lat="44.11598" lon="6.71318">
        <ele>2482.6044179024</ele>
        <time>2021-07-10T12:28:54Z</time>
      </trkpt>
      <trkpt lat="44.11599" lon="6.71317">
        <ele>2482.6043938397</ele>
        <time>2021-07-10T12:28:55Z</time>
      </trkpt>
      <trkpt lat="44.116" lon="6.71317">
        <ele>2483.6043653399</ele>
        <time>2021-07-10T12:28:56Z</time>
      </trkpt>
      <trkpt lat="44.11601" lon="6.71316">
        <ele>2483.6043558715</ele>
        <time>2021-07-10T12:28:58Z</time>
      </trkpt>
      <trkpt lat="44.11601" lon="6.71315">
        <ele>2483.6043477384</ele>
        <time>2021-07-10T12:28:59Z</time>
      </trkpt>
      <trkpt lat="44.11602" lon="6.71315">
        <ele>2483.6043420444</ele>
        <time>2021-07-10T12:29:00Z</time>
      </trkpt>
      <trkpt lat="44.11602" lon="6.71315">
        <ele>2483.604334283</ele>
        <time>2021-07-10T12:29:02Z</time>
      </trkpt>
      <trkpt lat="44.11603" lon="6.71314">
        <ele>2484.6043093083</ele>
        <time>2021-07-10T12:29:03Z</time>
      </trkpt>
      <trkpt lat="44.11603" lon="6.71314">
        <ele>2483.6043016286</ele>
        <time>2021-07-10T12:29:17Z</time>
      </trkpt>
      <trkpt lat="44.11605" lon="6.71314">
        <ele>2482.604253448</ele>
        <time>2021-07-10T12:29:19Z</time>
      </trkpt>
      <trkpt lat="44.11605" lon="6.71315">
        <ele>2482.6042286519</ele>
        <time>2021-07-10T12:29:45Z</time>
      </trkpt>
      <trkpt lat="44.11605" lon="6.71318">
        <ele>2481.6041711175</ele>
        <time>2021-07-10T12:29:46Z</time>
      </trkpt>
      <trkpt lat="44.11606" lon="6.71319">
        <ele>2480.6041348105</ele>
        <time>2021-07-10T12:29:47Z</time>
      </trkpt>
      <trkpt lat="44.11606" lon="6.7132">
        <ele>2480.6040818812</ele>
        <time>2021-07-10T12:29:48Z</time>
      </trkpt>
      <trkpt lat="44.11607" lon="6.71322">
        <ele>2480.6040372443</ele>
        <time>2021-07-10T12:29:50Z</time>
      </trkpt>
      <trkpt lat="44.11606" lon="6.71323">
        <ele>2479.604026728</ele>
        <time>2021-07-10T12:29:51Z</time>
      </trkpt>
      <trkpt lat="44.11607" lon="6.71324">
        <ele>2479.6040091155</ele>
        <time>2021-07-10T12:29:52Z</time>
      </trkpt>
      <trkpt lat="44.11607" lon="6.71325">
        <ele>2479.6039712087</ele>
        <time>2021-07-10T12:29:54Z</time>
      </trkpt>
      <trkpt lat="44.11608" lon="6.71325">
        <ele>2479.6039409479</ele>
        <time>2021-07-10T12:29:55Z</time>
      </trkpt>
      <trkpt lat="44.11608" lon="6.71326">
        <ele>2479.6039260089</ele>
        <time>2021-07-10T12:29:56Z</time>
      </trkpt>
      <trkpt lat="44.11608" lon="6.71327">
        <ele>2478.6039046818</ele>
        <time>2021-07-10T12:29:57Z</time>
      </trkpt>
      <trkpt lat="44.11609" lon="6.71329">
        <ele>2478.6038524742</ele>
        <time>2021-07-10T12:29:59Z</time>
      </trkpt>
      <trkpt lat="44.11609" lon="6.71329">
        <ele>2478.6038296042</ele>
        <time>2021-07-10T12:30:00Z</time>
      </trkpt>
      <trkpt lat="44.11609" lon="6.7133">
        <ele>2478.6038030112</ele>
        <time>2021-07-10T12:30:01Z</time>
      </trkpt>
      <trkpt lat="44.1161" lon="6.71331">
        <ele>2478.6037667819</ele>
        <time>2021-07-10T12:30:02Z</time>
      </trkpt>
      <trkpt lat="44.1161" lon="6.71333">
        <ele>2477.6037267161</ele>
        <time>2021-07-10T12:30:04Z</time>
      </trkpt>
      <trkpt lat="44.1161" lon="6.71334">
        <ele>2476.6037050707</ele>
        <time>2021-07-10T12:30:05Z</time>
      </trkpt>
      <trkpt lat="44.11611" lon="6.71335">
        <ele>2476.6036691686</ele>
        <time>2021-07-10T12:30:06Z</time>
      </trkpt>
      <trkpt lat="44.11611" lon="6.71335">
        <ele>2476.6036352016</ele>
        <time>2021-07-10T12:30:07Z</time>
      </trkpt>
      <trkpt lat="44.11612" lon="6.71337">
        <ele>2476.6035800339</ele>
        <time>2021-07-10T12:30:09Z</time>
      </trkpt>
      <trkpt lat="44.11612" lon="6.71338">
        <ele>2476.6035520978</ele>
        <time>2021-07-10T12:30:10Z</time>
      </trkpt>
      <trkpt lat="44.11613" lon="6.71338">
        <ele>2475.6035194895</ele>
        <time>2021-07-10T12:30:11Z</time>
      </trkpt>
      <trkpt lat="44.11614" lon="6.71339">
        <ele>2475.6034799636</ele>
        <time>2021-07-10T12:30:12Z</time>
      </trkpt>
      <trkpt lat="44.11614" lon="6.71342">
        <ele>2475.6034150016</ele>
        <time>2021-07-10T12:30:14Z</time>
      </trkpt>
      <trkpt lat="44.11615" lon="6.71342">
        <ele>2475.6033862301</ele>
        <time>2021-07-10T12:30:15Z</time>
      </trkpt>
      <trkpt lat="44.11615" lon="6.71344">
        <ele>2474.6033444236</ele>
        <time>2021-07-10T12:30:16Z</time>
      </trkpt>
      <trkpt lat="44.11616" lon="6.71345">
        <ele>2473.6033048551</ele>
        <time>2021-07-10T12:30:17Z</time>
      </trkpt>
      <trkpt lat="44.11616" lon="6.71347">
        <ele>2473.6032700245</ele>
        <time>2021-07-10T12:30:18Z</time>
      </trkpt>
      <trkpt lat="44.11617" lon="6.7135">
        <ele>2472.6031840825</ele>
        <time>2021-07-10T12:30:20Z</time>
      </trkpt>
      <trkpt lat="44.11617" lon="6.71351">
        <ele>2472.6031293643</ele>
        <time>2021-07-10T12:30:21Z</time>
      </trkpt>
      <trkpt lat="44.11618" lon="6.71353">
        <ele>2471.6030787236</ele>
        <time>2021-07-10T12:30:22Z</time>
      </trkpt>
      <trkpt lat="44.11619" lon="6.71356">
        <ele>2471.6029962996</ele>
        <time>2021-07-10T12:30:24Z</time>
      </trkpt>
      <trkpt lat="44.11619" lon="6.71359">
        <ele>2470.6029163006</ele>
        <time>2021-07-10T12:30:26Z</time>
      </trkpt>
      <trkpt lat="44.1162" lon="6.71363">
        <ele>2470.6028193362</ele>
        <time>2021-07-10T12:30:29Z</time>
      </trkpt>
      <trkpt lat="44.1162" lon="6.71366">
        <ele>2470.6027548751</ele>
        <time>2021-07-10T12:30:30Z</time>
      </trkpt>
      <trkpt lat="44.1162" lon="6.71368">
        <ele>2471.6027224126</ele>
        <time>2021-07-10T12:30:31Z</time>
      </trkpt>
      <trkpt lat="44.1162" lon="6.71369">
        <ele>2471.6026923604</ele>
        <time>2021-07-10T12:30:32Z</time>
      </trkpt>
      <trkpt lat="44.1162" lon="6.71371">
        <ele>2470.6026551521</ele>
        <time>2021-07-10T12:30:33Z</time>
      </trkpt>
      <trkpt lat="44.11621" lon="6.71373">
        <ele>2470.6026157608</ele>
        <time>2021-07-10T12:30:34Z</time>
      </trkpt>
      <trkpt lat="44.11621" lon="6.71374">
        <ele>2470.6025881274</ele>
        <time>2021-07-10T12:30:35Z</time>
      </trkpt>
      <trkpt lat="44.11621" lon="6.71375">
        <ele>2470.602556444</ele>
        <time>2021-07-10T12:30:36Z</time>
      </trkpt>
      <trkpt lat="44.11622" lon="6.71377">
        <ele>2471.6025045404</ele>
        <time>2021-07-10T12:30:37Z</time>
      </trkpt>
      <trkpt lat="44.11622" lon="6.71378">
        <ele>2471.6024784957</ele>
        <time>2021-07-10T12:30:38Z</time>
      </trkpt>
      <trkpt lat="44.11622" lon="6.71378">
        <ele>2471.6024642244</ele>
        <time>2021-07-10T12:30:39Z</time>
      </trkpt>
      <trkpt lat="44.11623" lon="6.7138">
        <ele>2471.60241727</ele>
        <time>2021-07-10T12:30:41Z</time>
      </trkpt>
      <trkpt lat="44.11623" lon="6.7138">
        <ele>2470.602397757</ele>
        <time>2021-07-10T12:30:43Z</time>
      </trkpt>
      <trkpt lat="44.11623" lon="6.71381">
        <ele>2470.6023658867</ele>
        <time>2021-07-10T12:30:44Z</time>
      </trkpt>
      <trkpt lat="44.11624" lon="6.71382">
        <ele>2469.6023302064</ele>
        <time>2021-07-10T12:30:46Z</time>
      </trkpt>
      <trkpt lat="44.11625" lon="6.71383">
        <ele>2468.6022887708</ele>
        <time>2021-07-10T12:30:48Z</time>
      </trkpt>
      <trkpt lat="44.11626" lon="6.71384">
        <ele>2468.6022329077</ele>
        <time>2021-07-10T12:30:50Z</time>
      </trkpt>
      <trkpt lat="44.11626" lon="6.71384">
        <ele>2468.6022099652</ele>
        <time>2021-07-10T12:30:51Z</time>
      </trkpt>
      <trkpt lat="44.11628" lon="6.71382">
        <ele>2469.6021817606</ele>
        <time>2021-07-10T12:30:53Z</time>
      </trkpt>
      <trkpt lat="44.1163" lon="6.71381">
        <ele>2469.6021464999</ele>
        <time>2021-07-10T12:30:55Z</time>
      </trkpt>
      <trkpt lat="44.11631" lon="6.7138">
        <ele>2469.6021241746</ele>
        <time>2021-07-10T12:30:56Z</time>
      </trkpt>
      <trkpt lat="44.11632" lon="6.7138">
        <ele>2469.6020931484</ele>
        <time>2021-07-10T12:30:57Z</time>
      </trkpt>
      <trkpt lat="44.11633" lon="6.7138">
        <ele>2469.6020683339</ele>
        <time>2021-07-10T12:30:58Z</time>
      </trkpt>
      <trkpt lat="44.11634" lon="6.71381">
        <ele>2469.6020077151</ele>
        <time>2021-07-10T12:31:00Z</time>
      </trkpt>
      <trkpt lat="44.11635" lon="6.71381">
        <ele>2469.6019852523</ele>
        <time>2021-07-10T12:31:01Z</time>
      </trkpt>
      <trkpt lat="44.11635" lon="6.71382">
        <ele>2469.6019494877</ele>
        <time>2021-07-10T12:31:04Z</time>
      </trkpt>
      <trkpt lat="44.11636" lon="6.71383">
        <ele>2469.6018970305</ele>
        <time>2021-07-10T12:31:05Z</time>
      </trkpt>
      <trkpt lat="44.11637" lon="6.71383">
        <ele>2469.6018700095</ele>
        <time>2021-07-10T12:31:06Z</time>
      </trkpt>
      <trkpt lat="44.11637" lon="6.71384">
        <ele>2468.6018462768</ele>
        <time>2021-07-10T12:31:07Z</time>
      </trkpt>
      <trkpt lat="44.11636" lon="6.71386">
        <ele>2466.6018319177</ele>
        <time>2021-07-10T12:31:09Z</time>
      </trkpt>
      <trkpt lat="44.11637" lon="6.71386">
        <ele>2466.6018178935</ele>
        <time>2021-07-10T12:31:10Z</time>
      </trkpt>
      <trkpt lat="44.11637" lon="6.71386">
        <ele>2465.6018040889</ele>
        <time>2021-07-10T12:31:11Z</time>
      </trkpt>
      <trkpt lat="44.11638" lon="6.71386">
        <ele>2465.6017724293</ele>
        <time>2021-07-10T12:31:12Z</time>
      </trkpt>
      <trkpt lat="44.11639" lon="6.71388">
        <ele>2464.6017249028</ele>
        <time>2021-07-10T12:31:14Z</time>
      </trkpt>
      <trkpt lat="44.1164" lon="6.71389">
        <ele>2464.6016769317</ele>
        <time>2021-07-10T12:31:15Z</time>
      </trkpt>
      <trkpt lat="44.1164" lon="6.7139">
        <ele>2463.6016495436</ele>
        <time>2021-07-10T12:31:16Z</time>
      </trkpt>
      <trkpt lat="44.11639" lon="6.71391">
        <ele>2463.6016419067</ele>
        <time>2021-07-10T12:31:17Z</time>
      </trkpt>
      <trkpt lat="44.11639" lon="6.71392">
        <ele>2463.6016171887</ele>
        <time>2021-07-10T12:31:18Z</time>
      </trkpt>
      <trkpt lat="44.1164" lon="6.71394">
        <ele>2463.6015463506</ele>
        <time>2021-07-10T12:31:20Z</time>
      </trkpt>
      <trkpt lat="44.11641" lon="6.71395">
        <ele>2463.6015173893</ele>
        <time>2021-07-10T12:31:23Z</time>
      </trkpt>
      <trkpt lat="44.11641" lon="6.71396">
        <ele>2463.6015025284</ele>
        <time>2021-07-10T12:31:24Z</time>
      </trkpt>
      <trkpt lat="44.11641" lon="6.71399">
        <ele>2462.6014285364</ele>
        <time>2021-07-10T12:31:26Z</time>
      </trkpt>
      <trkpt lat="44.11641" lon="6.714">
        <ele>2462.6014183396</ele>
        <time>2021-07-10T12:31:27Z</time>
      </trkpt>
      <trkpt lat="44.11641" lon="6.71401">
        <ele>2462.6014146262</ele>
        <time>2021-07-10T12:31:29Z</time>
      </trkpt>
      <trkpt lat="44.11641" lon="6.71403">
        <ele>2463.6013404308</ele>
        <time>2021-07-10T12:31:30Z</time>
      </trkpt>
      <trkpt lat="44.11642" lon="6.71404">
        <ele>2462.6013035663</ele>
        <time>2021-07-10T12:31:31Z</time>
      </trkpt>
      <trkpt lat="44.11643" lon="6.71405">
        <ele>2462.6012682447</ele>
        <time>2021-07-10T12:31:33Z</time>
      </trkpt>
      <trkpt lat="44.11643" lon="6.71406">
        <ele>2462.6012404457</ele>
        <time>2021-07-10T12:31:34Z</time>
      </trkpt>
      <trkpt lat="44.11643" lon="6.71407">
        <ele>2462.6012086033</ele>
        <time>2021-07-10T12:31:35Z</time>
      </trkpt>
      <trkpt lat="44.11644" lon="6.71407">
        <ele>2462.6011913665</ele>
        <time>2021-07-10T12:31:36Z</time>
      </trkpt>
      <trkpt lat="44.11644" lon="6.71408">
        <ele>2462.6011535988</ele>
        <time>2021-07-10T12:31:37Z</time>
      </trkpt>
      <trkpt lat="44.11644" lon="6.71409">
        <ele>2461.6011344191</ele>
        <time>2021-07-10T12:31:39Z</time>
      </trkpt>
      <trkpt lat="44.11645" lon="6.7141">
        <ele>2461.6011030284</ele>
        <time>2021-07-10T12:31:40Z</time>
      </trkpt>
      <trkpt lat="44.11645" lon="6.71411">
        <ele>2460.601081815</ele>
        <time>2021-07-10T12:31:41Z</time>
      </trkpt>
      <trkpt lat="44.11645" lon="6.71412">
        <ele>2460.6010622839</ele>
        <time>2021-07-10T12:31:42Z</time>
      </trkpt>
      <trkpt lat="44.11645" lon="6.71412">
        <ele>2458.601033281</ele>
        <time>2021-07-10T12:31:45Z</time>
      </trkpt>
      <trkpt lat="44.11646" lon="6.71413">
        <ele>2458.6010203435</ele>
        <time>2021-07-10T12:31:46Z</time>
      </trkpt>
      <trkpt lat="44.11647" lon="6.71413">
        <ele>2458.6009684411</ele>
        <time>2021-07-10T12:31:48Z</time>
      </trkpt>
      <trkpt lat="44.11648" lon="6.71415">
        <ele>2458.6008985112</ele>
        <time>2021-07-10T12:31:50Z</time>
      </trkpt>
      <trkpt lat="44.11649" lon="6.71416">
        <ele>2458.6008564497</ele>
        <time>2021-07-10T12:31:51Z</time>
      </trkpt>
      <trkpt lat="44.11649" lon="6.71417">
        <ele>2457.6008247151</ele>
        <time>2021-07-10T12:31:52Z</time>
      </trkpt>
      <trkpt lat="44.11649" lon="6.71419">
        <ele>2457.6007838115</ele>
        <time>2021-07-10T12:31:54Z</time>
      </trkpt>
      <trkpt lat="44.1165" lon="6.7142">
        <ele>2456.6007295691</ele>
        <time>2021-07-10T12:31:56Z</time>
      </trkpt>
      <trkpt lat="44.1165" lon="6.71421">
        <ele>2456.6007010506</ele>
        <time>2021-07-10T12:31:57Z</time>
      </trkpt>
      <trkpt lat="44.11651" lon="6.71422">
        <ele>2456.6006709056</ele>
        <time>2021-07-10T12:31:58Z</time>
      </trkpt>
      <trkpt lat="44.11652" lon="6.71423">
        <ele>2455.6006326951</ele>
        <time>2021-07-10T12:31:59Z</time>
      </trkpt>
      <trkpt lat="44.11653" lon="6.71423">
        <ele>2455.6005701667</ele>
        <time>2021-07-10T12:32:01Z</time>
      </trkpt>
      <trkpt lat="44.11655" lon="6.71423">
        <ele>2456.600520152</ele>
        <time>2021-07-10T12:32:02Z</time>
      </trkpt>
      <trkpt lat="44.11655" lon="6.71424">
        <ele>2456.600471524</ele>
        <time>2021-07-10T12:32:03Z</time>
      </trkpt>
      <trkpt lat="44.11655" lon="6.71427">
        <ele>2455.600420668</ele>
        <time>2021-07-10T12:32:05Z</time>
      </trkpt>
      <trkpt lat="44.11656" lon="6.71429">
        <ele>2454.6003793351</ele>
        <time>2021-07-10T12:32:06Z</time>
      </trkpt>
      <trkpt lat="44.11656" lon="6.7143">
        <ele>2453.6003480975</ele>
        <time>2021-07-10T12:32:07Z</time>
      </trkpt>
      <trkpt lat="44.11656" lon="6.71432">
        <ele>2453.6003054135</ele>
        <time>2021-07-10T12:32:09Z</time>
      </trkpt>
      <trkpt lat="44.11657" lon="6.71433">
        <ele>2453.6002477097</ele>
        <time>2021-07-10T12:32:11Z</time>
      </trkpt>
      <trkpt lat="44.11657" lon="6.71434">
        <ele>2452.6002175374</ele>
        <time>2021-07-10T12:32:13Z</time>
      </trkpt>
      <trkpt lat="44.11659" lon="6.71436">
        <ele>2451.6001400647</ele>
        <time>2021-07-10T12:32:15Z</time>
      </trkpt>
      <trkpt lat="44.11659" lon="6.71437">
        <ele>2451.6001131617</ele>
        <time>2021-07-10T12:32:16Z</time>
      </trkpt>
      <trkpt lat="44.1166" lon="6.71438">
        <ele>2450.6000798848</ele>
        <time>2021-07-10T12:32:17Z</time>
      </trkpt>
      <trkpt lat="44.1166" lon="6.71439">
        <ele>2449.6000473027</ele>
        <time>2021-07-10T12:32:18Z</time>
      </trkpt>
      <trkpt lat="44.1166" lon="6.7144">
        <ele>2450.6000226869</ele>
        <time>2021-07-10T12:32:20Z</time>
      </trkpt>
      <trkpt lat="44.1166" lon="6.71441">
        <ele>2450.6000130128</ele>
        <time>2021-07-10T12:32:21Z</time>
      </trkpt>
      <trkpt lat="44.1166" lon="6.71441">
        <ele>2449.5999889405</ele>
        <time>2021-07-10T12:32:22Z</time>
      </trkpt>
      <trkpt lat="44.11661" lon="6.71442">
        <ele>2448.5999449703</ele>
        <time>2021-07-10T12:32:24Z</time>
      </trkpt>
      <trkpt lat="44.11661" lon="6.71443">
        <ele>2447.5999123753</ele>
        <time>2021-07-10T12:32:26Z</time>
      </trkpt>
      <trkpt lat="44.11662" lon="6.71445">
        <ele>2446.5998688616</ele>
        <time>2021-07-10T12:32:27Z</time>
      </trkpt>
      <trkpt lat="44.11663" lon="6.71446">
        <ele>2446.5998212301</ele>
        <time>2021-07-10T12:32:28Z</time>
      </trkpt>
      <trkpt lat="44.11663" lon="6.71447">
        <ele>2446.5997797591</ele>
        <time>2021-07-10T12:32:29Z</time>
      </trkpt>
      <trkpt lat="44.11664" lon="6.71449">
        <ele>2445.5997096171</ele>
        <time>2021-07-10T12:32:31Z</time>
      </trkpt>
      <trkpt lat="44.11664" lon="6.7145">
        <ele>2445.5996819755</ele>
        <time>2021-07-10T12:32:32Z</time>
      </trkpt>
      <trkpt lat="44.11665" lon="6.71451">
        <ele>2445.5996575781</ele>
        <time>2021-07-10T12:32:33Z</time>
      </trkpt>
      <trkpt lat="44.11666" lon="6.71452">
        <ele>2445.5995971906</ele>
        <time>2021-07-10T12:32:35Z</time>
      </trkpt>
      <trkpt lat="44.11667" lon="6.71454">
        <ele>2445.599539158</ele>
        <time>2021-07-10T12:32:36Z</time>
      </trkpt>
      <trkpt lat="44.11667" lon="6.71455">
        <ele>2445.5994931146</ele>
        <time>2021-07-10T12:32:37Z</time>
      </trkpt>
      <trkpt lat="44.11668" lon="6.71457">
        <ele>2444.5994446346</ele>
        <time>2021-07-10T12:32:38Z</time>
      </trkpt>
      <trkpt lat="44.11668" lon="6.71458">
        <ele>2443.5994272481</ele>
        <time>2021-07-10T12:32:39Z</time>
      </trkpt>
      <trkpt lat="44.11668" lon="6.71459">
        <ele>2443.5994090342</ele>
        <time>2021-07-10T12:32:40Z</time>
      </trkpt>
      <trkpt lat="44.11668" lon="6.7146">
        <ele>2443.5993933994</ele>
        <time>2021-07-10T12:32:41Z</time>
      </trkpt>
      <trkpt lat="44.11668" lon="6.7146">
        <ele>2443.5993607086</ele>
        <time>2021-07-10T12:32:42Z</time>
      </trkpt>
      <trkpt lat="44.11668" lon="6.71461">
        <ele>2442.5993326202</ele>
        <time>2021-07-10T12:32:45Z</time>
      </trkpt>
      <trkpt lat="44.11669" lon="6.71462">
        <ele>2441.5992819807</ele>
        <time>2021-07-10T12:32:46Z</time>
      </trkpt>
      <trkpt lat="44.1167" lon="6.71463">
        <ele>2442.5992512208</ele>
        <time>2021-07-10T12:32:47Z</time>
      </trkpt>
      <trkpt lat="44.1167" lon="6.71464">
        <ele>2441.5992207367</ele>
        <time>2021-07-10T12:32:48Z</time>
      </trkpt>
      <trkpt lat="44.11671" lon="6.71464">
        <ele>2441.5991991265</ele>
        <time>2021-07-10T12:32:49Z</time>
      </trkpt>
      <trkpt lat="44.11672" lon="6.71464">
        <ele>2441.5991759219</ele>
        <time>2021-07-10T12:32:50Z</time>
      </trkpt>
      <trkpt lat="44.11672" lon="6.71464">
        <ele>2441.5991412491</ele>
        <time>2021-07-10T12:32:51Z</time>
      </trkpt>
      <trkpt lat="44.11673" lon="6.71464">
        <ele>2440.5991068069</ele>
        <time>2021-07-10T12:32:52Z</time>
      </trkpt>
      <trkpt lat="44.11674" lon="6.71465">
        <ele>2440.5990771926</ele>
        <time>2021-07-10T12:32:53Z</time>
      </trkpt>
      <trkpt lat="44.11675" lon="6.71466">
        <ele>2440.599018284</ele>
        <time>2021-07-10T12:32:55Z</time>
      </trkpt>
      <trkpt lat="44.11675" lon="6.71467">
        <ele>2440.5989898762</ele>
        <time>2021-07-10T12:32:57Z</time>
      </trkpt>
      <trkpt lat="44.11675" lon="6.71468">
        <ele>2439.5989726123</ele>
        <time>2021-07-10T12:32:58Z</time>
      </trkpt>
      <trkpt lat="44.11676" lon="6.71468">
        <ele>2439.5989363306</ele>
        <time>2021-07-10T12:33:00Z</time>
      </trkpt>
      <trkpt lat="44.11677" lon="6.71469">
        <ele>2439.5988983248</ele>
        <time>2021-07-10T12:33:01Z</time>
      </trkpt>
      <trkpt lat="44.11677" lon="6.7147">
        <ele>2439.5988741687</ele>
        <time>2021-07-10T12:33:02Z</time>
      </trkpt>
      <trkpt lat="44.11677" lon="6.7147">
        <ele>2439.5988508202</ele>
        <time>2021-07-10T12:33:04Z</time>
      </trkpt>
      <trkpt lat="44.11679" lon="6.71472">
        <ele>2439.5987758637</ele>
        <time>2021-07-10T12:33:05Z</time>
      </trkpt>
      <trkpt lat="44.1168" lon="6.71472">
        <ele>2439.5987378203</ele>
        <time>2021-07-10T12:33:06Z</time>
      </trkpt>
      <trkpt lat="44.1168" lon="6.71473">
        <ele>2439.5987111185</ele>
        <time>2021-07-10T12:33:07Z</time>
      </trkpt>
      <trkpt lat="44.11681" lon="6.71473">
        <ele>2439.5986804047</ele>
        <time>2021-07-10T12:33:09Z</time>
      </trkpt>
      <trkpt lat="44.11682" lon="6.71474">
        <ele>2439.5986100812</ele>
        <time>2021-07-10T12:33:10Z</time>
      </trkpt>
      <trkpt lat="44.11683" lon="6.71474">
        <ele>2439.5985864874</ele>
        <time>2021-07-10T12:33:11Z</time>
      </trkpt>
      <trkpt lat="44.11684" lon="6.71475">
        <ele>2438.5985455803</ele>
        <time>2021-07-10T12:33:12Z</time>
      </trkpt>
      <trkpt lat="44.11685" lon="6.71475">
        <ele>2438.5985165217</ele>
        <time>2021-07-10T12:33:14Z</time>
      </trkpt>
      <trkpt lat="44.11685" lon="6.71475">
        <ele>2438.5984969205</ele>
        <time>2021-07-10T12:33:23Z</time>
      </trkpt>
      <trkpt lat="44.11687" lon="6.71478">
        <ele>2435.5983947738</ele>
        <time>2021-07-10T12:33:25Z</time>
      </trkpt>
      <trkpt lat="44.11687" lon="6.71479">
        <ele>2436.5983647194</ele>
        <time>2021-07-10T12:33:26Z</time>
      </trkpt>
      <trkpt lat="44.11687" lon="6.7148">
        <ele>2435.5983316351</ele>
        <time>2021-07-10T12:33:27Z</time>
      </trkpt>
      <trkpt lat="44.11688" lon="6.71481">
        <ele>2434.5982957745</ele>
        <time>2021-07-10T12:33:29Z</time>
      </trkpt>
      <trkpt lat="44.11688" lon="6.71482">
        <ele>2434.5982655426</ele>
        <time>2021-07-10T12:33:31Z</time>
      </trkpt>
      <trkpt lat="44.11689" lon="6.71482">
        <ele>2435.5982383475</ele>
        <time>2021-07-10T12:33:33Z</time>
      </trkpt>
      <trkpt lat="44.1169" lon="6.71483">
        <ele>2434.5981937588</ele>
        <time>2021-07-10T12:33:35Z</time>
      </trkpt>
      <trkpt lat="44.1169" lon="6.71483">
        <ele>2433.5981624983</ele>
        <time>2021-07-10T12:33:38Z</time>
      </trkpt>
      <trkpt lat="44.11692" lon="6.71485">
        <ele>2432.598099859</ele>
        <time>2021-07-10T12:33:40Z</time>
      </trkpt>
      <trkpt lat="44.11693" lon="6.71486">
        <ele>2431.5980387276</ele>
        <time>2021-07-10T12:33:41Z</time>
      </trkpt>
      <trkpt lat="44.11693" lon="6.71487">
        <ele>2432.5980078808</ele>
        <time>2021-07-10T12:33:42Z</time>
      </trkpt>
      <trkpt lat="44.11693" lon="6.71487">
        <ele>2432.5979934791</ele>
        <time>2021-07-10T12:33:44Z</time>
      </trkpt>
      <trkpt lat="44.11693" lon="6.71489">
        <ele>2431.5979592724</ele>
        <time>2021-07-10T12:33:45Z</time>
      </trkpt>
      <trkpt lat="44.11694" lon="6.71489">
        <ele>2431.5979393528</ele>
        <time>2021-07-10T12:33:46Z</time>
      </trkpt>
      <trkpt lat="44.11694" lon="6.71491">
        <ele>2431.597898922</ele>
        <time>2021-07-10T12:33:47Z</time>
      </trkpt>
      <trkpt lat="44.11694" lon="6.71492">
        <ele>2430.5978748591</ele>
        <time>2021-07-10T12:33:48Z</time>
      </trkpt>
      <trkpt lat="44.11694" lon="6.71493">
        <ele>2430.597855056</ele>
        <time>2021-07-10T12:33:49Z</time>
      </trkpt>
      <trkpt lat="44.11695" lon="6.71494">
        <ele>2430.5978288051</ele>
        <time>2021-07-10T12:33:50Z</time>
      </trkpt>
      <trkpt lat="44.11695" lon="6.71495">
        <ele>2430.5977968645</ele>
        <time>2021-07-10T12:33:51Z</time>
      </trkpt>
      <trkpt lat="44.11696" lon="6.71495">
        <ele>2431.597758504</ele>
        <time>2021-07-10T12:33:52Z</time>
      </trkpt>
      <trkpt lat="44.11696" lon="6.71496">
        <ele>2431.5977332248</ele>
        <time>2021-07-10T12:33:53Z</time>
      </trkpt>
      <trkpt lat="44.11697" lon="6.71496">
        <ele>2430.5977105606</ele>
        <time>2021-07-10T12:33:54Z</time>
      </trkpt>
      <trkpt lat="44.11697" lon="6.71497">
        <ele>2430.5976667313</ele>
        <time>2021-07-10T12:33:55Z</time>
      </trkpt>
      <trkpt lat="44.11698" lon="6.71498">
        <ele>2430.5976344919</ele>
        <time>2021-07-10T12:33:56Z</time>
      </trkpt>
      <trkpt lat="44.11699" lon="6.71498">
        <ele>2430.5975834003</ele>
        <time>2021-07-10T12:33:57Z</time>
      </trkpt>
      <trkpt lat="44.117" lon="6.71499">
        <ele>2429.5975419054</ele>
        <time>2021-07-10T12:33:58Z</time>
      </trkpt>
      <trkpt lat="44.117" lon="6.715">
        <ele>2429.5975149448</ele>
        <time>2021-07-10T12:33:59Z</time>
      </trkpt>
      <trkpt lat="44.11701" lon="6.715">
        <ele>2428.5974917416</ele>
        <time>2021-07-10T12:34:00Z</time>
      </trkpt>
      <trkpt lat="44.11701" lon="6.71501">
        <ele>2428.5974625865</ele>
        <time>2021-07-10T12:34:01Z</time>
      </trkpt>
      <trkpt lat="44.11702" lon="6.71502">
        <ele>2427.597430325</ele>
        <time>2021-07-10T12:34:03Z</time>
      </trkpt>
      <trkpt lat="44.11702" lon="6.71504">
        <ele>2427.5973784109</ele>
        <time>2021-07-10T12:34:04Z</time>
      </trkpt>
      <trkpt lat="44.11702" lon="6.71505">
        <ele>2427.5973385806</ele>
        <time>2021-07-10T12:34:05Z</time>
      </trkpt>
      <trkpt lat="44.11703" lon="6.71506">
        <ele>2427.5973178904</ele>
        <time>2021-07-10T12:34:06Z</time>
      </trkpt>
      <trkpt lat="44.11703" lon="6.71506">
        <ele>2427.5972859171</ele>
        <time>2021-07-10T12:34:07Z</time>
      </trkpt>
      <trkpt lat="44.11704" lon="6.71508">
        <ele>2426.597228966</ele>
        <time>2021-07-10T12:34:09Z</time>
      </trkpt>
      <trkpt lat="44.11705" lon="6.71508">
        <ele>2426.5971985464</ele>
        <time>2021-07-10T12:34:10Z</time>
      </trkpt>
      <trkpt lat="44.11705" lon="6.71509">
        <ele>2427.5971630042</ele>
        <time>2021-07-10T12:34:11Z</time>
      </trkpt>
      <trkpt lat="44.11706" lon="6.7151">
        <ele>2427.5971383467</ele>
        <time>2021-07-10T12:34:13Z</time>
      </trkpt>
      <trkpt lat="44.11706" lon="6.71513">
        <ele>2426.5970924134</ele>
        <time>2021-07-10T12:34:14Z</time>
      </trkpt>
      <trkpt lat="44.11706" lon="6.71514">
        <ele>2426.5970579061</ele>
        <time>2021-07-10T12:34:15Z</time>
      </trkpt>
      <trkpt lat="44.11706" lon="6.71514">
        <ele>2426.5970324565</ele>
        <time>2021-07-10T12:34:16Z</time>
      </trkpt>
      <trkpt lat="44.11707" lon="6.71515">
        <ele>2426.5970085633</ele>
        <time>2021-07-10T12:34:17Z</time>
      </trkpt>
      <trkpt lat="44.11707" lon="6.71516">
        <ele>2426.5969773878</ele>
        <time>2021-07-10T12:34:18Z</time>
      </trkpt>
      <trkpt lat="44.11708" lon="6.71517">
        <ele>2426.5969203462</ele>
        <time>2021-07-10T12:34:20Z</time>
      </trkpt>
      <trkpt lat="44.11709" lon="6.71518">
        <ele>2426.5968911834</ele>
        <time>2021-07-10T12:34:21Z</time>
      </trkpt>
      <trkpt lat="44.11709" lon="6.71518">
        <ele>2426.596856061</ele>
        <time>2021-07-10T12:34:23Z</time>
      </trkpt>
      <trkpt lat="44.1171" lon="6.7152">
        <ele>2425.596810975</ele>
        <time>2021-07-10T12:34:24Z</time>
      </trkpt>
      <trkpt lat="44.11711" lon="6.71522">
        <ele>2425.5967342267</ele>
        <time>2021-07-10T12:34:26Z</time>
      </trkpt>
      <trkpt lat="44.11711" lon="6.71523">
        <ele>2425.5967013087</ele>
        <time>2021-07-10T12:34:27Z</time>
      </trkpt>
      <trkpt lat="44.11712" lon="6.71523">
        <ele>2425.5966746046</ele>
        <time>2021-07-10T12:34:29Z</time>
      </trkpt>
      <trkpt lat="44.11713" lon="6.71524">
        <ele>2424.5966396718</ele>
        <time>2021-07-10T12:34:30Z</time>
      </trkpt>
      <trkpt lat="44.11712" lon="6.71525">
        <ele>2424.5966260951</ele>
        <time>2021-07-10T12:34:31Z</time>
      </trkpt>
      <trkpt lat="44.11713" lon="6.71526">
        <ele>2424.5965955586</ele>
        <time>2021-07-10T12:34:32Z</time>
      </trkpt>
      <trkpt lat="44.11714" lon="6.71527">
        <ele>2424.5965468839</ele>
        <time>2021-07-10T12:34:33Z</time>
      </trkpt>
      <trkpt lat="44.11715" lon="6.71528">
        <ele>2425.596503051</ele>
        <time>2021-07-10T12:34:34Z</time>
      </trkpt>
      <trkpt lat="44.11715" lon="6.71531">
        <ele>2425.5964410924</ele>
        <time>2021-07-10T12:34:36Z</time>
      </trkpt>
      <trkpt lat="44.11715" lon="6.71532">
        <ele>2425.5964144475</ele>
        <time>2021-07-10T12:34:37Z</time>
      </trkpt>
      <trkpt lat="44.11715" lon="6.71533">
        <ele>2425.5963877167</ele>
        <time>2021-07-10T12:34:39Z</time>
      </trkpt>
      <trkpt lat="44.11716" lon="6.71535">
        <ele>2425.5963209636</ele>
        <time>2021-07-10T12:34:40Z</time>
      </trkpt>
      <trkpt lat="44.11717" lon="6.71535">
        <ele>2426.5962852977</ele>
        <time>2021-07-10T12:34:41Z</time>
      </trkpt>
      <trkpt lat="44.11717" lon="6.71537">
        <ele>2425.5962433198</ele>
        <time>2021-07-10T12:34:43Z</time>
      </trkpt>
      <trkpt lat="44.11718" lon="6.71539">
        <ele>2425.5961788147</ele>
        <time>2021-07-10T12:34:44Z</time>
      </trkpt>
      <trkpt lat="44.11719" lon="6.71541">
        <ele>2425.5961172061</ele>
        <time>2021-07-10T12:34:46Z</time>
      </trkpt>
      <trkpt lat="44.11719" lon="6.71542">
        <ele>2425.5960737154</ele>
        <time>2021-07-10T12:34:47Z</time>
      </trkpt>
      <trkpt lat="44.1172" lon="6.71543">
        <ele>2425.5960485583</ele>
        <time>2021-07-10T12:34:49Z</time>
      </trkpt>
      <trkpt lat="44.11721" lon="6.71544">
        <ele>2424.5959905785</ele>
        <time>2021-07-10T12:34:51Z</time>
      </trkpt>
      <trkpt lat="44.11721" lon="6.71545">
        <ele>2424.5959426751</ele>
        <time>2021-07-10T12:34:52Z</time>
      </trkpt>
      <trkpt lat="44.11721" lon="6.71546">
        <ele>2423.5959209259</ele>
        <time>2021-07-10T12:34:53Z</time>
      </trkpt>
      <trkpt lat="44.11722" lon="6.71548">
        <ele>2423.5958842759</ele>
        <time>2021-07-10T12:34:54Z</time>
      </trkpt>
      <trkpt lat="44.11722" lon="6.71549">
        <ele>2423.5958515612</ele>
        <time>2021-07-10T12:34:55Z</time>
      </trkpt>
      <trkpt lat="44.11723" lon="6.7155">
        <ele>2422.5958090968</ele>
        <time>2021-07-10T12:34:56Z</time>
      </trkpt>
      <trkpt lat="44.11723" lon="6.71551">
        <ele>2422.5957765873</ele>
        <time>2021-07-10T12:34:57Z</time>
      </trkpt>
      <trkpt lat="44.11723" lon="6.71552">
        <ele>2422.5957516656</ele>
        <time>2021-07-10T12:34:58Z</time>
      </trkpt>
      <trkpt lat="44.11723" lon="6.71553">
        <ele>2422.5957261941</ele>
        <time>2021-07-10T12:34:59Z</time>
      </trkpt>
      <trkpt lat="44.11723" lon="6.71554">
        <ele>2422.5956974606</ele>
        <time>2021-07-10T12:35:00Z</time>
      </trkpt>
      <trkpt lat="44.11724" lon="6.71556">
        <ele>2422.5956598414</ele>
        <time>2021-07-10T12:35:01Z</time>
      </trkpt>
      <trkpt lat="44.11723" lon="6.71557">
        <ele>2422.5956474848</ele>
        <time>2021-07-10T12:35:02Z</time>
      </trkpt>
      <trkpt lat="44.11723" lon="6.71558">
        <ele>2422.5956199649</ele>
        <time>2021-07-10T12:35:03Z</time>
      </trkpt>
      <trkpt lat="44.11724" lon="6.7156">
        <ele>2422.5955751657</ele>
        <time>2021-07-10T12:35:04Z</time>
      </trkpt>
      <trkpt lat="44.11724" lon="6.71561">
        <ele>2421.5955395759</ele>
        <time>2021-07-10T12:35:05Z</time>
      </trkpt>
      <trkpt lat="44.11725" lon="6.71562">
        <ele>2421.5955099164</ele>
        <time>2021-07-10T12:35:06Z</time>
      </trkpt>
      <trkpt lat="44.11725" lon="6.71563">
        <ele>2421.5954885731</ele>
        <time>2021-07-10T12:35:07Z</time>
      </trkpt>
      <trkpt lat="44.11725" lon="6.71566">
        <ele>2421.5954107805</ele>
        <time>2021-07-10T12:35:09Z</time>
      </trkpt>
      <trkpt lat="44.11727" lon="6.71568">
        <ele>2421.5953347856</ele>
        <time>2021-07-10T12:35:11Z</time>
      </trkpt>
      <trkpt lat="44.11728" lon="6.71568">
        <ele>2420.5952921797</ele>
        <time>2021-07-10T12:35:12Z</time>
      </trkpt>
      <trkpt lat="44.11728" lon="6.71569">
        <ele>2419.5952576588</ele>
        <time>2021-07-10T12:35:13Z</time>
      </trkpt>
      <trkpt lat="44.1173" lon="6.71571">
        <ele>2420.5951669469</ele>
        <time>2021-07-10T12:35:15Z</time>
      </trkpt>
      <trkpt lat="44.11731" lon="6.71572">
        <ele>2419.5951143295</ele>
        <time>2021-07-10T12:35:16Z</time>
      </trkpt>
      <trkpt lat="44.11731" lon="6.71574">
        <ele>2419.5950623181</ele>
        <time>2021-07-10T12:35:17Z</time>
      </trkpt>
      <trkpt lat="44.11732" lon="6.71577">
        <ele>2419.594963892</ele>
        <time>2021-07-10T12:35:19Z</time>
      </trkpt>
      <trkpt lat="44.11734" lon="6.7158">
        <ele>2417.5948623193</ele>
        <time>2021-07-10T12:35:21Z</time>
      </trkpt>
      <trkpt lat="44.11734" lon="6.71581">
        <ele>2418.5948191988</ele>
        <time>2021-07-10T12:35:22Z</time>
      </trkpt>
      <trkpt lat="44.11735" lon="6.71582">
        <ele>2417.5947934527</ele>
        <time>2021-07-10T12:35:23Z</time>
      </trkpt>
      <trkpt lat="44.11735" lon="6.71584">
        <ele>2418.5947476201</ele>
        <time>2021-07-10T12:35:25Z</time>
      </trkpt>
      <trkpt lat="44.11735" lon="6.71585">
        <ele>2417.5947123839</ele>
        <time>2021-07-10T12:35:26Z</time>
      </trkpt>
      <trkpt lat="44.11736" lon="6.71587">
        <ele>2417.5946713991</ele>
        <time>2021-07-10T12:35:27Z</time>
      </trkpt>
      <trkpt lat="44.11736" lon="6.71589">
        <ele>2416.5946035974</ele>
        <time>2021-07-10T12:35:29Z</time>
      </trkpt>
      <trkpt lat="44.11737" lon="6.71591">
        <ele>2416.5945382817</ele>
        <time>2021-07-10T12:35:31Z</time>
      </trkpt>
      <trkpt lat="44.11738" lon="6.71593">
        <ele>2416.594490925</ele>
        <time>2021-07-10T12:35:32Z</time>
      </trkpt>
      <trkpt lat="44.11738" lon="6.71594">
        <ele>2416.5944703797</ele>
        <time>2021-07-10T12:35:33Z</time>
      </trkpt>
      <trkpt lat="44.11738" lon="6.71596">
        <ele>2415.5944046019</ele>
        <time>2021-07-10T12:35:35Z</time>
      </trkpt>
      <trkpt lat="44.11739" lon="6.71597">
        <ele>2415.5943736721</ele>
        <time>2021-07-10T12:35:36Z</time>
      </trkpt>
      <trkpt lat="44.11739" lon="6.71598">
        <ele>2415.5943400027</ele>
        <time>2021-07-10T12:35:37Z</time>
      </trkpt>
      <trkpt lat="44.1174" lon="6.71599">
        <ele>2414.5943088252</ele>
        <time>2021-07-10T12:35:38Z</time>
      </trkpt>
      <trkpt lat="44.1174" lon="6.716">
        <ele>2415.594276992</ele>
        <time>2021-07-10T12:35:39Z</time>
      </trkpt>
      <trkpt lat="44.1174" lon="6.716">
        <ele>2415.5942499812</ele>
        <time>2021-07-10T12:35:40Z</time>
      </trkpt>
      <trkpt lat="44.11741" lon="6.71601">
        <ele>2415.594224475</ele>
        <time>2021-07-10T12:35:41Z</time>
      </trkpt>
      <trkpt lat="44.11741" lon="6.71603">
        <ele>2415.5941805708</ele>
        <time>2021-07-10T12:35:42Z</time>
      </trkpt>
      <trkpt lat="44.11742" lon="6.71603">
        <ele>2415.594152329</ele>
        <time>2021-07-10T12:35:43Z</time>
      </trkpt>
      <trkpt lat="44.11742" lon="6.71604">
        <ele>2415.5941128557</ele>
        <time>2021-07-10T12:35:44Z</time>
      </trkpt>
      <trkpt lat="44.11743" lon="6.71605">
        <ele>2414.59406271</ele>
        <time>2021-07-10T12:35:45Z</time>
      </trkpt>
      <trkpt lat="44.11744" lon="6.71606">
        <ele>2415.5940188477</ele>
        <time>2021-07-10T12:35:46Z</time>
      </trkpt>
      <trkpt lat="44.11745" lon="6.71608">
        <ele>2415.5939681164</ele>
        <time>2021-07-10T12:35:47Z</time>
      </trkpt>
      <trkpt lat="44.11745" lon="6.7161">
        <ele>2416.5939086299</ele>
        <time>2021-07-10T12:35:49Z</time>
      </trkpt>
      <trkpt lat="44.11746" lon="6.71611">
        <ele>2416.5938689238</ele>
        <time>2021-07-10T12:35:50Z</time>
      </trkpt>
      <trkpt lat="44.11746" lon="6.71612">
        <ele>2416.5938322782</ele>
        <time>2021-07-10T12:35:51Z</time>
      </trkpt>
      <trkpt lat="44.11746" lon="6.71613">
        <ele>2416.5937973952</ele>
        <time>2021-07-10T12:35:52Z</time>
      </trkpt>
      <trkpt lat="44.11747" lon="6.71614">
        <ele>2416.5937590136</ele>
        <time>2021-07-10T12:35:53Z</time>
      </trkpt>
      <trkpt lat="44.11747" lon="6.71615">
        <ele>2416.593731381</ele>
        <time>2021-07-10T12:35:55Z</time>
      </trkpt>
      <trkpt lat="44.11748" lon="6.71618">
        <ele>2415.5936646938</ele>
        <time>2021-07-10T12:35:56Z</time>
      </trkpt>
      <trkpt lat="44.11748" lon="6.71619">
        <ele>2415.5936230664</ele>
        <time>2021-07-10T12:35:57Z</time>
      </trkpt>
      <trkpt lat="44.11749" lon="6.7162">
        <ele>2415.5936003646</ele>
        <time>2021-07-10T12:35:58Z</time>
      </trkpt>
      <trkpt lat="44.11749" lon="6.71621">
        <ele>2415.5935668725</ele>
        <time>2021-07-10T12:36:00Z</time>
      </trkpt>
      <trkpt lat="44.11749" lon="6.71622">
        <ele>2415.593543704</ele>
        <time>2021-07-10T12:36:01Z</time>
      </trkpt>
      <trkpt lat="44.11749" lon="6.71624">
        <ele>2415.5935073097</ele>
        <time>2021-07-10T12:36:02Z</time>
      </trkpt>
      <trkpt lat="44.1175" lon="6.71624">
        <ele>2415.5934817732</ele>
        <time>2021-07-10T12:36:03Z</time>
      </trkpt>
      <trkpt lat="44.1175" lon="6.71625">
        <ele>2416.5934472035</ele>
        <time>2021-07-10T12:36:04Z</time>
      </trkpt>
      <trkpt lat="44.11751" lon="6.71626">
        <ele>2416.5934133499</ele>
        <time>2021-07-10T12:36:05Z</time>
      </trkpt>
      <trkpt lat="44.11752" lon="6.71627">
        <ele>2416.5933559351</ele>
        <time>2021-07-10T12:36:06Z</time>
      </trkpt>
      <trkpt lat="44.11752" lon="6.71628">
        <ele>2416.593327805</ele>
        <time>2021-07-10T12:36:07Z</time>
      </trkpt>
      <trkpt lat="44.11752" lon="6.7163">
        <ele>2416.5932942459</ele>
        <time>2021-07-10T12:36:08Z</time>
      </trkpt>
      <trkpt lat="44.11752" lon="6.71631">
        <ele>2417.5932693498</ele>
        <time>2021-07-10T12:36:09Z</time>
      </trkpt>
      <trkpt lat="44.11752" lon="6.71632">
        <ele>2417.5932510688</ele>
        <time>2021-07-10T12:36:10Z</time>
      </trkpt>
      <trkpt lat="44.11752" lon="6.71633">
        <ele>2417.5932439797</ele>
        <time>2021-07-10T12:36:11Z</time>
      </trkpt>
      <trkpt lat="44.11752" lon="6.71634">
        <ele>2416.5932159819</ele>
        <time>2021-07-10T12:36:12Z</time>
      </trkpt>
      <trkpt lat="44.11752" lon="6.71635">
        <ele>2416.5931945353</ele>
        <time>2021-07-10T12:36:13Z</time>
      </trkpt>
      <trkpt lat="44.11752" lon="6.71636">
        <ele>2416.5931715293</ele>
        <time>2021-07-10T12:36:14Z</time>
      </trkpt>
      <trkpt lat="44.11753" lon="6.71637">
        <ele>2416.5931419175</ele>
        <time>2021-07-10T12:36:15Z</time>
      </trkpt>
      <trkpt lat="44.11753" lon="6.71638">
        <ele>2416.5931047796</ele>
        <time>2021-07-10T12:36:16Z</time>
      </trkpt>
      <trkpt lat="44.11754" lon="6.71639">
        <ele>2416.5930706099</ele>
        <time>2021-07-10T12:36:17Z</time>
      </trkpt>
      <trkpt lat="44.11754" lon="6.7164">
        <ele>2417.5930346421</ele>
        <time>2021-07-10T12:36:18Z</time>
      </trkpt>
      <trkpt lat="44.11754" lon="6.7164">
        <ele>2416.5930084715</ele>
        <time>2021-07-10T12:36:19Z</time>
      </trkpt>
      <trkpt lat="44.11755" lon="6.71642">
        <ele>2416.5929575685</ele>
        <time>2021-07-10T12:36:20Z</time>
      </trkpt>
      <trkpt lat="44.11756" lon="6.71642">
        <ele>2416.5929247468</ele>
        <time>2021-07-10T12:36:21Z</time>
      </trkpt>
      <trkpt lat="44.11756" lon="6.71643">
        <ele>2416.5928921409</ele>
        <time>2021-07-10T12:36:22Z</time>
      </trkpt>
      <trkpt lat="44.11757" lon="6.71644">
        <ele>2416.5928561224</ele>
        <time>2021-07-10T12:36:23Z</time>
      </trkpt>
      <trkpt lat="44.11757" lon="6.71645">
        <ele>2416.592841667</ele>
        <time>2021-07-10T12:36:25Z</time>
      </trkpt>
      <trkpt lat="44.11757" lon="6.71647">
        <ele>2417.592795355</ele>
        <time>2021-07-10T12:36:26Z</time>
      </trkpt>
      <trkpt lat="44.11757" lon="6.71648">
        <ele>2417.5927727827</ele>
        <time>2021-07-10T12:36:27Z</time>
      </trkpt>
      <trkpt lat="44.11758" lon="6.71648">
        <ele>2417.5927468037</ele>
        <time>2021-07-10T12:36:28Z</time>
      </trkpt>
      <trkpt lat="44.11759" lon="6.71649">
        <ele>2417.5927058617</ele>
        <time>2021-07-10T12:36:30Z</time>
      </trkpt>
      <trkpt lat="44.11759" lon="6.7165">
        <ele>2418.5926713149</ele>
        <time>2021-07-10T12:36:33Z</time>
      </trkpt>
      <trkpt lat="44.1176" lon="6.71651">
        <ele>2419.5926137772</ele>
        <time>2021-07-10T12:36:34Z</time>
      </trkpt>
      <trkpt lat="44.11761" lon="6.71653">
        <ele>2419.592547478</ele>
        <time>2021-07-10T12:36:36Z</time>
      </trkpt>
      <trkpt lat="44.11761" lon="6.71654">
        <ele>2419.5925212562</ele>
        <time>2021-07-10T12:36:38Z</time>
      </trkpt>
      <trkpt lat="44.11762" lon="6.71654">
        <ele>2421.5924781794</ele>
        <time>2021-07-10T12:36:40Z</time>
      </trkpt>
      <trkpt lat="44.11762" lon="6.71655">
        <ele>2421.5924557883</ele>
        <time>2021-07-10T12:36:41Z</time>
      </trkpt>
      <trkpt lat="44.11762" lon="6.71656">
        <ele>2421.5924358903</ele>
        <time>2021-07-10T12:36:42Z</time>
      </trkpt>
      <trkpt lat="44.11763" lon="6.71657">
        <ele>2421.59241303</ele>
        <time>2021-07-10T12:36:45Z</time>
      </trkpt>
      <trkpt lat="44.11763" lon="6.71658">
        <ele>2422.5923794217</ele>
        <time>2021-07-10T12:36:46Z</time>
      </trkpt>
      <trkpt lat="44.11763" lon="6.71659">
        <ele>2422.5923604313</ele>
        <time>2021-07-10T12:36:47Z</time>
      </trkpt>
      <trkpt lat="44.11763" lon="6.7166">
        <ele>2421.5923322403</ele>
        <time>2021-07-10T12:36:48Z</time>
      </trkpt>
      <trkpt lat="44.11764" lon="6.71661">
        <ele>2421.5923062571</ele>
        <time>2021-07-10T12:36:53Z</time>
      </trkpt>
      <trkpt lat="44.11765" lon="6.71663">
        <ele>2421.5922335343</ele>
        <time>2021-07-10T12:36:55Z</time>
      </trkpt>
      <trkpt lat="44.11765" lon="6.71664">
        <ele>2422.5922017073</ele>
        <time>2021-07-10T12:36:56Z</time>
      </trkpt>
      <trkpt lat="44.11765" lon="6.71665">
        <ele>2422.5921768876</ele>
        <time>2021-07-10T12:36:57Z</time>
      </trkpt>
      <trkpt lat="44.11765" lon="6.71666">
        <ele>2423.5921716411</ele>
        <time>2021-07-10T12:36:59Z</time>
      </trkpt>
      <trkpt lat="44.11765" lon="6.71667">
        <ele>2422.5921468057</ele>
        <time>2021-07-10T12:37:01Z</time>
      </trkpt>
      <trkpt lat="44.11766" lon="6.71669">
        <ele>2421.5920818718</ele>
        <time>2021-07-10T12:37:02Z</time>
      </trkpt>
      <trkpt lat="44.11767" lon="6.71669">
        <ele>2421.5920362519</ele>
        <time>2021-07-10T12:37:03Z</time>
      </trkpt>
      <trkpt lat="44.11767" lon="6.7167">
        <ele>2422.5920096295</ele>
        <time>2021-07-10T12:37:04Z</time>
      </trkpt>
      <trkpt lat="44.11768" lon="6.7167">
        <ele>2422.5919878439</ele>
        <time>2021-07-10T12:37:15Z</time>
      </trkpt>
      <trkpt lat="44.1177" lon="6.71672">
        <ele>2423.591868612</ele>
        <time>2021-07-10T12:37:16Z</time>
      </trkpt>
      <trkpt lat="44.11771" lon="6.71672">
        <ele>2424.5918365606</ele>
        <time>2021-07-10T12:37:17Z</time>
      </trkpt>
      <trkpt lat="44.11772" lon="6.71673">
        <ele>2424.5917991883</ele>
        <time>2021-07-10T12:37:18Z</time>
      </trkpt>
      <trkpt lat="44.11773" lon="6.71675">
        <ele>2424.5917355319</ele>
        <time>2021-07-10T12:37:20Z</time>
      </trkpt>
      <trkpt lat="44.11773" lon="6.71676">
        <ele>2424.5917120177</ele>
        <time>2021-07-10T12:37:21Z</time>
      </trkpt>
      <trkpt lat="44.11773" lon="6.71676">
        <ele>2424.5916985901</ele>
        <time>2021-07-10T12:37:22Z</time>
      </trkpt>
      <trkpt lat="44.11773" lon="6.71677">
        <ele>2424.5916758546</ele>
        <time>2021-07-10T12:37:29Z</time>
      </trkpt>
      <trkpt lat="44.11774" lon="6.7168">
        <ele>2426.5915637246</ele>
        <time>2021-07-10T12:37:30Z</time>
      </trkpt>
      <trkpt lat="44.11775" lon="6.71681">
        <ele>2427.5915425198</ele>
        <time>2021-07-10T12:37:33Z</time>
      </trkpt>
      <trkpt lat="44.11775" lon="6.71682">
        <ele>2427.5915307866</ele>
        <time>2021-07-10T12:37:35Z</time>
      </trkpt>
      <trkpt lat="44.11776" lon="6.71684">
        <ele>2427.5914395366</ele>
        <time>2021-07-10T12:37:36Z</time>
      </trkpt>
      <trkpt lat="44.11776" lon="6.71685">
        <ele>2427.5914188124</ele>
        <time>2021-07-10T12:37:37Z</time>
      </trkpt>
      <trkpt lat="44.11776" lon="6.71686">
        <ele>2428.5914062185</ele>
        <time>2021-07-10T12:37:38Z</time>
      </trkpt>
      <trkpt lat="44.11776" lon="6.71687">
        <ele>2428.5913892872</ele>
        <time>2021-07-10T12:37:41Z</time>
      </trkpt>
      <trkpt lat="44.11777" lon="6.71689">
        <ele>2428.5913282386</ele>
        <time>2021-07-10T12:37:42Z</time>
      </trkpt>
      <trkpt lat="44.11777" lon="6.71691">
        <ele>2429.591252739</ele>
        <time>2021-07-10T12:37:44Z</time>
      </trkpt>
      <trkpt lat="44.11778" lon="6.71692">
        <ele>2430.5912184042</ele>
        <time>2021-07-10T12:37:46Z</time>
      </trkpt>
      <trkpt lat="44.11778" lon="6.71693">
        <ele>2431.5911905766</ele>
        <time>2021-07-10T12:37:47Z</time>
      </trkpt>
      <trkpt lat="44.11778" lon="6.71695">
        <ele>2432.5911723781</ele>
        <time>2021-07-10T12:37:49Z</time>
      </trkpt>
      <trkpt lat="44.11778" lon="6.71696">
        <ele>2432.5911604814</ele>
        <time>2021-07-10T12:38:08Z</time>
      </trkpt>
      <trkpt lat="44.11778" lon="6.71696">
        <ele>2432.5911404422</ele>
        <time>2021-07-10T12:38:09Z</time>
      </trkpt>
      <trkpt lat="44.11778" lon="6.71697">
        <ele>2432.5911188645</ele>
        <time>2021-07-10T12:38:10Z</time>
      </trkpt>
      <trkpt lat="44.11778" lon="6.71698">
        <ele>2432.5911128414</ele>
        <time>2021-07-10T12:38:13Z</time>
      </trkpt>
      <trkpt lat="44.11779" lon="6.71697">
        <ele>2433.591087185</ele>
        <time>2021-07-10T12:38:14Z</time>
      </trkpt>
      <trkpt lat="44.1178" lon="6.71698">
        <ele>2433.591057716</ele>
        <time>2021-07-10T12:38:15Z</time>
      </trkpt>
      <trkpt lat="44.1178" lon="6.71698">
        <ele>2432.5910326942</ele>
        <time>2021-07-10T12:38:16Z</time>
      </trkpt>
      <trkpt lat="44.11781" lon="6.71699">
        <ele>2433.5910067943</ele>
        <time>2021-07-10T12:38:19Z</time>
      </trkpt>
      <trkpt lat="44.11781" lon="6.717">
        <ele>2434.5909554249</ele>
        <time>2021-07-10T12:38:20Z</time>
      </trkpt>
      <trkpt lat="44.11782" lon="6.717">
        <ele>2434.5909286165</ele>
        <time>2021-07-10T12:38:21Z</time>
      </trkpt>
      <trkpt lat="44.11782" lon="6.71701">
        <ele>2434.5909046507</ele>
        <time>2021-07-10T12:38:22Z</time>
      </trkpt>
      <trkpt lat="44.11783" lon="6.71702">
        <ele>2435.5908446794</ele>
        <time>2021-07-10T12:38:24Z</time>
      </trkpt>
      <trkpt lat="44.11783" lon="6.71704">
        <ele>2436.5908152038</ele>
        <time>2021-07-10T12:38:26Z</time>
      </trkpt>
      <trkpt lat="44.11784" lon="6.71704">
        <ele>2436.5907967244</ele>
        <time>2021-07-10T12:38:28Z</time>
      </trkpt>
      <trkpt lat="44.11785" lon="6.71705">
        <ele>2435.5907470144</ele>
        <time>2021-07-10T12:38:30Z</time>
      </trkpt>
      <trkpt lat="44.11785" lon="6.71705">
        <ele>2436.5907224531</ele>
        <time>2021-07-10T12:38:31Z</time>
      </trkpt>
      <trkpt lat="44.11785" lon="6.71706">
        <ele>2436.5907103538</ele>
        <time>2021-07-10T12:38:32Z</time>
      </trkpt>
      <trkpt lat="44.11786" lon="6.71707">
        <ele>2437.590670074</ele>
        <time>2021-07-10T12:38:34Z</time>
      </trkpt>
      <trkpt lat="44.11786" lon="6.71707">
        <ele>2437.590670074</ele>
        <time>2021-07-10T12:38:37Z</time>
      </trkpt>
      <trkpt lat="44.11786" lon="6.71709">
        <ele>2439.5906184579</ele>
        <time>2021-07-10T12:38:39Z</time>
      </trkpt>
      <trkpt lat="44.11786" lon="6.71709">
        <ele>2439.5906062324</ele>
        <time>2021-07-10T12:38:40Z</time>
      </trkpt>
      <trkpt lat="44.11786" lon="6.7171">
        <ele>2439.5905890782</ele>
        <time>2021-07-10T12:38:42Z</time>
      </trkpt>
      <trkpt lat="44.11786" lon="6.71711">
        <ele>2439.5905789493</ele>
        <time>2021-07-10T12:38:44Z</time>
      </trkpt>
      <trkpt lat="44.11787" lon="6.71713">
        <ele>2439.5905186752</ele>
        <time>2021-07-10T12:38:46Z</time>
      </trkpt>
      <trkpt lat="44.11788" lon="6.71713">
        <ele>2439.5904861653</ele>
        <time>2021-07-10T12:38:47Z</time>
      </trkpt>
      <trkpt lat="44.11788" lon="6.71713">
        <ele>2440.5904643587</ele>
        <time>2021-07-10T12:38:50Z</time>
      </trkpt>
      <trkpt lat="44.11789" lon="6.71715">
        <ele>2440.5903934213</ele>
        <time>2021-07-10T12:38:51Z</time>
      </trkpt>
      <trkpt lat="44.1179" lon="6.71716">
        <ele>2441.590370588</ele>
        <time>2021-07-10T12:38:52Z</time>
      </trkpt>
      <trkpt lat="44.1179" lon="6.71716">
        <ele>2441.5903512368</ele>
        <time>2021-07-10T12:38:53Z</time>
      </trkpt>
      <trkpt lat="44.1179" lon="6.71717">
        <ele>2441.5903227311</ele>
        <time>2021-07-10T12:38:56Z</time>
      </trkpt>
      <trkpt lat="44.11791" lon="6.71719">
        <ele>2441.5902494219</ele>
        <time>2021-07-10T12:38:57Z</time>
      </trkpt>
      <trkpt lat="44.11791" lon="6.71721">
        <ele>2441.590212939</ele>
        <time>2021-07-10T12:38:59Z</time>
      </trkpt>
      <trkpt lat="44.11792" lon="6.71722">
        <ele>2441.5901595463</ele>
        <time>2021-07-10T12:39:01Z</time>
      </trkpt>
      <trkpt lat="44.11792" lon="6.71722">
        <ele>2441.5901595463</ele>
        <time>2021-07-10T12:39:03Z</time>
      </trkpt>
      <trkpt lat="44.11793" lon="6.71724">
        <ele>2440.5901010811</ele>
        <time>2021-07-10T12:39:05Z</time>
      </trkpt>
      <trkpt lat="44.11793" lon="6.71725">
        <ele>2440.5900866765</ele>
        <time>2021-07-10T12:39:06Z</time>
      </trkpt>
      <trkpt lat="44.11793" lon="6.71726">
        <ele>2441.5900794564</ele>
        <time>2021-07-10T12:39:09Z</time>
      </trkpt>
      <trkpt lat="44.11793" lon="6.71727">
        <ele>2442.5900318406</ele>
        <time>2021-07-10T12:39:10Z</time>
      </trkpt>
      <trkpt lat="44.11794" lon="6.71727">
        <ele>2441.5900061417</ele>
        <time>2021-07-10T12:39:11Z</time>
      </trkpt>
      <trkpt lat="44.11794" lon="6.71728">
        <ele>2441.5899761878</ele>
        <time>2021-07-10T12:39:12Z</time>
      </trkpt>
      <trkpt lat="44.11795" lon="6.71728">
        <ele>2442.5899534466</ele>
        <time>2021-07-10T12:39:15Z</time>
      </trkpt>
      <trkpt lat="44.11794" lon="6.7173">
        <ele>2442.5899330393</ele>
        <time>2021-07-10T12:39:16Z</time>
      </trkpt>
      <trkpt lat="44.11795" lon="6.71731">
        <ele>2442.589907083</ele>
        <time>2021-07-10T12:39:17Z</time>
      </trkpt>
      <trkpt lat="44.11795" lon="6.71732">
        <ele>2442.5898746653</ele>
        <time>2021-07-10T12:39:21Z</time>
      </trkpt>
      <trkpt lat="44.11796" lon="6.71733">
        <ele>2444.5898155852</ele>
        <time>2021-07-10T12:39:22Z</time>
      </trkpt>
      <trkpt lat="44.11796" lon="6.71734">
        <ele>2444.5897985923</ele>
        <time>2021-07-10T12:39:23Z</time>
      </trkpt>
      <trkpt lat="44.11796" lon="6.71735">
        <ele>2444.5897766526</ele>
        <time>2021-07-10T12:39:24Z</time>
      </trkpt>
      <trkpt lat="44.11797" lon="6.71735">
        <ele>2444.5897577062</ele>
        <time>2021-07-10T12:39:25Z</time>
      </trkpt>
      <trkpt lat="44.11797" lon="6.71735">
        <ele>2445.5897359578</ele>
        <time>2021-07-10T12:39:26Z</time>
      </trkpt>
      <trkpt lat="44.11798" lon="6.71735">
        <ele>2445.5897104033</ele>
        <time>2021-07-10T12:39:37Z</time>
      </trkpt>
      <trkpt lat="44.118" lon="6.71737">
        <ele>2446.5896223632</ele>
        <time>2021-07-10T12:39:38Z</time>
      </trkpt>
      <trkpt lat="44.118" lon="6.71737">
        <ele>2446.5895912086</ele>
        <time>2021-07-10T12:39:39Z</time>
      </trkpt>
      <trkpt lat="44.11801" lon="6.71739">
        <ele>2446.58954102</ele>
        <time>2021-07-10T12:39:41Z</time>
      </trkpt>
      <trkpt lat="44.11801" lon="6.7174">
        <ele>2447.5895101163</ele>
        <time>2021-07-10T12:39:43Z</time>
      </trkpt>
      <trkpt lat="44.11802" lon="6.71741">
        <ele>2448.5894853094</ele>
        <time>2021-07-10T12:39:46Z</time>
      </trkpt>
      <trkpt lat="44.11802" lon="6.71742">
        <ele>2448.5894364062</ele>
        <time>2021-07-10T12:39:47Z</time>
      </trkpt>
      <trkpt lat="44.11802" lon="6.71743">
        <ele>2448.5894218409</ele>
        <time>2021-07-10T12:39:48Z</time>
      </trkpt>
      <trkpt lat="44.11802" lon="6.71744">
        <ele>2448.5893985696</ele>
        <time>2021-07-10T12:39:50Z</time>
      </trkpt>
      <trkpt lat="44.11802" lon="6.71745">
        <ele>2448.589369286</ele>
        <time>2021-07-10T12:39:53Z</time>
      </trkpt>
      <trkpt lat="44.11804" lon="6.71747">
        <ele>2449.5892679885</ele>
        <time>2021-07-10T12:39:55Z</time>
      </trkpt>
      <trkpt lat="44.11805" lon="6.71748">
        <ele>2450.5892373783</ele>
        <time>2021-07-10T12:39:56Z</time>
      </trkpt>
      <trkpt lat="44.11805" lon="6.71749">
        <ele>2450.5892106047</ele>
        <time>2021-07-10T12:40:00Z</time>
      </trkpt>
      <trkpt lat="44.11806" lon="6.71749">
        <ele>2451.5891494623</ele>
        <time>2021-07-10T12:40:01Z</time>
      </trkpt>
      <trkpt lat="44.11806" lon="6.7175">
        <ele>2452.5891305869</ele>
        <time>2021-07-10T12:40:03Z</time>
      </trkpt>
      <trkpt lat="44.11806" lon="6.71752">
        <ele>2452.5890998321</ele>
        <time>2021-07-10T12:40:04Z</time>
      </trkpt>
      <trkpt lat="44.11807" lon="6.71752">
        <ele>2453.589072299</ele>
        <time>2021-07-10T12:40:08Z</time>
      </trkpt>
      <trkpt lat="44.11807" lon="6.71754">
        <ele>2453.5890323356</ele>
        <time>2021-07-10T12:40:10Z</time>
      </trkpt>
      <trkpt lat="44.11808" lon="6.71755">
        <ele>2454.5890054438</ele>
        <time>2021-07-10T12:40:20Z</time>
      </trkpt>
      <trkpt lat="44.11807" lon="6.71758">
        <ele>2453.5889524764</ele>
        <time>2021-07-10T12:40:21Z</time>
      </trkpt>
      <trkpt lat="44.11807" lon="6.71759">
        <ele>2453.5889460603</ele>
        <time>2021-07-10T12:40:22Z</time>
      </trkpt>
      <trkpt lat="44.11807" lon="6.7176">
        <ele>2452.5889359697</ele>
        <time>2021-07-10T12:40:23Z</time>
      </trkpt>
      <trkpt lat="44.11807" lon="6.71761">
        <ele>2453.5889007037</ele>
        <time>2021-07-10T12:40:32Z</time>
      </trkpt>
      <trkpt lat="44.11808" lon="6.71764">
        <ele>2454.5888236308</ele>
        <time>2021-07-10T12:40:34Z</time>
      </trkpt>
      <trkpt lat="44.11808" lon="6.71765">
        <ele>2455.5888024948</ele>
        <time>2021-07-10T12:40:35Z</time>
      </trkpt>
      <trkpt lat="44.11808" lon="6.71766">
        <ele>2454.588772707</ele>
        <time>2021-07-10T12:40:36Z</time>
      </trkpt>
      <trkpt lat="44.11809" lon="6.71767">
        <ele>2455.5887423183</ele>
        <time>2021-07-10T12:40:37Z</time>
      </trkpt>
      <trkpt lat="44.11809" lon="6.71768">
        <ele>2456.5887057366</ele>
        <time>2021-07-10T12:40:42Z</time>
      </trkpt>
      <trkpt lat="44.1181" lon="6.7177">
        <ele>2455.5886484484</ele>
        <time>2021-07-10T12:40:45Z</time>
      </trkpt>
      <trkpt lat="44.1181" lon="6.71772">
        <ele>2455.5885851722</ele>
        <time>2021-07-10T12:40:46Z</time>
      </trkpt>
      <trkpt lat="44.1181" lon="6.71772">
        <ele>2455.5885851722</ele>
        <time>2021-07-10T12:40:48Z</time>
      </trkpt>
      <trkpt lat="44.11811" lon="6.71773">
        <ele>2456.5885428125</ele>
        <time>2021-07-10T12:40:50Z</time>
      </trkpt>
      <trkpt lat="44.11811" lon="6.71773">
        <ele>2458.5885290789</ele>
        <time>2021-07-10T12:40:58Z</time>
      </trkpt>
      <trkpt lat="44.11813" lon="6.71776">
        <ele>2458.588442084</ele>
        <time>2021-07-10T12:41:00Z</time>
      </trkpt>
      <trkpt lat="44.11813" lon="6.71777">
        <ele>2458.5884025314</ele>
        <time>2021-07-10T12:41:01Z</time>
      </trkpt>
      <trkpt lat="44.11813" lon="6.71778">
        <ele>2458.5883856888</ele>
        <time>2021-07-10T12:41:05Z</time>
      </trkpt>
      <trkpt lat="44.11813" lon="6.7178">
        <ele>2460.5883485086</ele>
        <time>2021-07-10T12:41:06Z</time>
      </trkpt>
      <trkpt lat="44.11813" lon="6.71781">
        <ele>2460.588337008</ele>
        <time>2021-07-10T12:41:08Z</time>
      </trkpt>
      <trkpt lat="44.11813" lon="6.71782">
        <ele>2461.5883041938</ele>
        <time>2021-07-10T12:41:10Z</time>
      </trkpt>
      <trkpt lat="44.11814" lon="6.71782">
        <ele>2460.5882733733</ele>
        <time>2021-07-10T12:41:11Z</time>
      </trkpt>
      <trkpt lat="44.11815" lon="6.71782">
        <ele>2461.5882396802</ele>
        <time>2021-07-10T12:41:12Z</time>
      </trkpt>
      <trkpt lat="44.11816" lon="6.71783">
        <ele>2461.5882069447</ele>
        <time>2021-07-10T12:41:15Z</time>
      </trkpt>
      <trkpt lat="44.11817" lon="6.71783">
        <ele>2462.5881657712</ele>
        <time>2021-07-10T12:41:16Z</time>
      </trkpt>
      <trkpt lat="44.11817" lon="6.71784">
        <ele>2463.5881343097</ele>
        <time>2021-07-10T12:41:19Z</time>
      </trkpt>
      <trkpt lat="44.11817" lon="6.71784">
        <ele>2463.5881211024</ele>
        <time>2021-07-10T12:41:23Z</time>
      </trkpt>
      <trkpt lat="44.11818" lon="6.71786">
        <ele>2464.5880678962</ele>
        <time>2021-07-10T12:41:24Z</time>
      </trkpt>
      <trkpt lat="44.11818" lon="6.71787">
        <ele>2465.5880443473</ele>
        <time>2021-07-10T12:41:47Z</time>
      </trkpt>
      <trkpt lat="44.11818" lon="6.71789">
        <ele>2468.5880025231</ele>
        <time>2021-07-10T12:41:48Z</time>
      </trkpt>
      <trkpt lat="44.11818" lon="6.7179">
        <ele>2470.5879755153</ele>
        <time>2021-07-10T12:41:51Z</time>
      </trkpt>
      <trkpt lat="44.11819" lon="6.7179">
        <ele>2470.5879534346</ele>
        <time>2021-07-10T12:41:52Z</time>
      </trkpt>
      <trkpt lat="44.11819" lon="6.7179">
        <ele>2471.5879225918</ele>
        <time>2021-07-10T12:41:54Z</time>
      </trkpt>
      <trkpt lat="44.1182" lon="6.71792">
        <ele>2471.5878959696</ele>
        <time>2021-07-10T12:42:01Z</time>
      </trkpt>
      <trkpt lat="44.11819" lon="6.71794">
        <ele>2471.5878745302</ele>
        <time>2021-07-10T12:42:03Z</time>
      </trkpt>
      <trkpt lat="44.11819" lon="6.71795">
        <ele>2472.5878405244</ele>
        <time>2021-07-10T12:42:04Z</time>
      </trkpt>
      <trkpt lat="44.11819" lon="6.71796">
        <ele>2472.587818208</ele>
        <time>2021-07-10T12:42:07Z</time>
      </trkpt>
      <trkpt lat="44.1182" lon="6.71797">
        <ele>2474.5877870061</ele>
        <time>2021-07-10T12:42:08Z</time>
      </trkpt>
      <trkpt lat="44.1182" lon="6.71798">
        <ele>2474.5877650116</ele>
        <time>2021-07-10T12:42:10Z</time>
      </trkpt>
      <trkpt lat="44.1182" lon="6.71799">
        <ele>2474.5877460574</ele>
        <time>2021-07-10T12:42:12Z</time>
      </trkpt>
      <trkpt lat="44.1182" lon="6.718">
        <ele>2473.5877134928</ele>
        <time>2021-07-10T12:42:14Z</time>
      </trkpt>
      <trkpt lat="44.1182" lon="6.71801">
        <ele>2474.5877040712</ele>
        <time>2021-07-10T12:42:22Z</time>
      </trkpt>
      <trkpt lat="44.11821" lon="6.71803">
        <ele>2473.5876335672</ele>
        <time>2021-07-10T12:42:24Z</time>
      </trkpt>
      <trkpt lat="44.11821" lon="6.71804">
        <ele>2474.5876108283</ele>
        <time>2021-07-10T12:42:33Z</time>
      </trkpt>
      <trkpt lat="44.11821" lon="6.71806">
        <ele>2474.5875696495</ele>
        <time>2021-07-10T12:42:34Z</time>
      </trkpt>
      <trkpt lat="44.11821" lon="6.71807">
        <ele>2473.5875618732</ele>
        <time>2021-07-10T12:42:35Z</time>
      </trkpt>
      <trkpt lat="44.1182" lon="6.71808">
        <ele>2473.5875546509</ele>
        <time>2021-07-10T12:42:38Z</time>
      </trkpt>
      <trkpt lat="44.1182" lon="6.71809">
        <ele>2474.5875379879</ele>
        <time>2021-07-10T12:42:39Z</time>
      </trkpt>
      <trkpt lat="44.11821" lon="6.7181">
        <ele>2476.587513669</ele>
        <time>2021-07-10T12:42:41Z</time>
      </trkpt>
      <trkpt lat="44.11821" lon="6.7181">
        <ele>2477.5874835597</ele>
        <time>2021-07-10T12:42:54Z</time>
      </trkpt>
      <trkpt lat="44.11822" lon="6.71813">
        <ele>2476.5874113655</ele>
        <time>2021-07-10T12:42:55Z</time>
      </trkpt>
      <trkpt lat="44.11821" lon="6.71814">
        <ele>2477.5874083587</ele>
        <time>2021-07-10T12:42:59Z</time>
      </trkpt>
      <trkpt lat="44.11821" lon="6.71816">
        <ele>2476.5873721884</ele>
        <time>2021-07-10T12:43:01Z</time>
      </trkpt>
      <trkpt lat="44.11821" lon="6.71817">
        <ele>2476.5873610018</ele>
        <time>2021-07-10T12:43:03Z</time>
      </trkpt>
      <trkpt lat="44.11821" lon="6.71817">
        <ele>2477.587348125</ele>
        <time>2021-07-10T12:43:09Z</time>
      </trkpt>
      <trkpt lat="44.11821" lon="6.7182">
        <ele>2478.5873053205</ele>
        <time>2021-07-10T12:43:11Z</time>
      </trkpt>
      <trkpt lat="44.11822" lon="6.7182">
        <ele>2478.5872818711</ele>
        <time>2021-07-10T12:43:21Z</time>
      </trkpt>
      <trkpt lat="44.11822" lon="6.71824">
        <ele>2477.5872171019</ele>
        <time>2021-07-10T12:43:22Z</time>
      </trkpt>
      <trkpt lat="44.11822" lon="6.71824">
        <ele>2477.587199443</ele>
        <time>2021-07-10T12:43:27Z</time>
      </trkpt>
      <trkpt lat="44.11822" lon="6.71827">
        <ele>2479.5871469042</ele>
        <time>2021-07-10T12:43:29Z</time>
      </trkpt>
      <trkpt lat="44.11821" lon="6.71829">
        <ele>2480.5871285404</ele>
        <time>2021-07-10T12:43:31Z</time>
      </trkpt>
      <trkpt lat="44.11821" lon="6.71829">
        <ele>2480.5871285404</ele>
        <time>2021-07-10T12:43:36Z</time>
      </trkpt>
      <trkpt lat="44.11821" lon="6.71831">
        <ele>2480.5871130355</ele>
        <time>2021-07-10T12:43:37Z</time>
      </trkpt>
      <trkpt lat="44.11821" lon="6.71832">
        <ele>2480.5870864733</ele>
        <time>2021-07-10T12:43:39Z</time>
      </trkpt>
      <trkpt lat="44.11821" lon="6.71833">
        <ele>2481.5870475028</ele>
        <time>2021-07-10T12:43:40Z</time>
      </trkpt>
      <trkpt lat="44.11821" lon="6.71833">
        <ele>2481.5870475028</ele>
        <time>2021-07-10T12:43:43Z</time>
      </trkpt>
      <trkpt lat="44.11821" lon="6.71836">
        <ele>2482.5869877098</ele>
        <time>2021-07-10T12:43:44Z</time>
      </trkpt>
      <trkpt lat="44.11821" lon="6.71837">
        <ele>2482.5869786368</ele>
        <time>2021-07-10T12:43:45Z</time>
      </trkpt>
      <trkpt lat="44.11821" lon="6.71837">
        <ele>2482.5869687129</ele>
        <time>2021-07-10T12:43:48Z</time>
      </trkpt>
      <trkpt lat="44.11821" lon="6.71838">
        <ele>2484.5869706923</ele>
        <time>2021-07-10T12:43:49Z</time>
      </trkpt>
      <trkpt lat="44.11821" lon="6.71839">
        <ele>2484.5869546796</ele>
        <time>2021-07-10T12:43:51Z</time>
      </trkpt>
      <trkpt lat="44.11821" lon="6.7184">
        <ele>2484.5869388375</ele>
        <time>2021-07-10T12:43:59Z</time>
      </trkpt>
      <trkpt lat="44.1182" lon="6.71842">
        <ele>2486.5869195672</ele>
        <time>2021-07-10T12:44:01Z</time>
      </trkpt>
      <trkpt lat="44.11821" lon="6.71842">
        <ele>2487.5868965639</ele>
        <time>2021-07-10T12:44:03Z</time>
      </trkpt>
      <trkpt lat="44.11821" lon="6.71843">
        <ele>2488.5868580171</ele>
        <time>2021-07-10T12:44:05Z</time>
      </trkpt>
      <trkpt lat="44.11822" lon="6.71844">
        <ele>2489.5868349916</ele>
        <time>2021-07-10T12:44:09Z</time>
      </trkpt>
      <trkpt lat="44.11823" lon="6.71847">
        <ele>2489.5867318542</ele>
        <time>2021-07-10T12:44:11Z</time>
      </trkpt>
      <trkpt lat="44.11823" lon="6.71848">
        <ele>2489.586710578</ele>
        <time>2021-07-10T12:44:12Z</time>
      </trkpt>
      <trkpt lat="44.11823" lon="6.71849">
        <ele>2489.5866832502</ele>
        <time>2021-07-10T12:44:13Z</time>
      </trkpt>
      <trkpt lat="44.11823" lon="6.7185">
        <ele>2490.5866700475</ele>
        <time>2021-07-10T12:44:14Z</time>
      </trkpt>
      <trkpt lat="44.11822" lon="6.71852">
        <ele>2490.5866612226</ele>
        <time>2021-07-10T12:44:16Z</time>
      </trkpt>
      <trkpt lat="44.11822" lon="6.71853">
        <ele>2490.5866421802</ele>
        <time>2021-07-10T12:44:17Z</time>
      </trkpt>
      <trkpt lat="44.11822" lon="6.71854">
        <ele>2490.5866285113</ele>
        <time>2021-07-10T12:44:18Z</time>
      </trkpt>
      <trkpt lat="44.11822" lon="6.71855">
        <ele>2490.5865892607</ele>
        <time>2021-07-10T12:44:20Z</time>
      </trkpt>
      <trkpt lat="44.11822" lon="6.71856">
        <ele>2490.5865727742</ele>
        <time>2021-07-10T12:44:21Z</time>
      </trkpt>
      <trkpt lat="44.11822" lon="6.71858">
        <ele>2491.5865462311</ele>
        <time>2021-07-10T12:44:23Z</time>
      </trkpt>
      <trkpt lat="44.11822" lon="6.71858">
        <ele>2491.5865376454</ele>
        <time>2021-07-10T12:44:26Z</time>
      </trkpt>
      <trkpt lat="44.11822" lon="6.7186">
        <ele>2491.5865221403</ele>
        <time>2021-07-10T12:44:27Z</time>
      </trkpt>
      <trkpt lat="44.11822" lon="6.7186">
        <ele>2491.5865171928</ele>
        <time>2021-07-10T12:44:28Z</time>
      </trkpt>
      <trkpt lat="44.11822" lon="6.71861">
        <ele>2491.5865049079</ele>
        <time>2021-07-10T12:44:30Z</time>
      </trkpt>
      <trkpt lat="44.11822" lon="6.71862">
        <ele>2491.5864889334</ele>
        <time>2021-07-10T12:44:34Z</time>
      </trkpt>
      <trkpt lat="44.11822" lon="6.71863">
        <ele>2492.5864600636</ele>
        <time>2021-07-10T12:44:35Z</time>
      </trkpt>
      <trkpt lat="44.11822" lon="6.71864">
        <ele>2492.5864550073</ele>
        <time>2021-07-10T12:44:37Z</time>
      </trkpt>
      <trkpt lat="44.11822" lon="6.71865">
        <ele>2492.5864343258</ele>
        <time>2021-07-10T12:44:40Z</time>
      </trkpt>
      <trkpt lat="44.11822" lon="6.71867">
        <ele>2492.5863886913</ele>
        <time>2021-07-10T12:44:41Z</time>
      </trkpt>
      <trkpt lat="44.11822" lon="6.71868">
        <ele>2493.5863855437</ele>
        <time>2021-07-10T12:44:42Z</time>
      </trkpt>
      <trkpt lat="44.11821" lon="6.71869">
        <ele>2494.5863735222</ele>
        <time>2021-07-10T12:44:49Z</time>
      </trkpt>
      <trkpt lat="44.11821" lon="6.71872">
        <ele>2495.5863267115</ele>
        <time>2021-07-10T12:44:50Z</time>
      </trkpt>
      <trkpt lat="44.11821" lon="6.71872">
        <ele>2495.5863011342</ele>
        <time>2021-07-10T12:44:52Z</time>
      </trkpt>
      <trkpt lat="44.11822" lon="6.71873">
        <ele>2495.5862643386</ele>
        <time>2021-07-10T12:44:55Z</time>
      </trkpt>
      <trkpt lat="44.11822" lon="6.71876">
        <ele>2495.5862333824</ele>
        <time>2021-07-10T12:44:56Z</time>
      </trkpt>
      <trkpt lat="44.11821" lon="6.71877">
        <ele>2495.5862196105</ele>
        <time>2021-07-10T12:44:57Z</time>
      </trkpt>
      <trkpt lat="44.11821" lon="6.71877">
        <ele>2495.5862113687</ele>
        <time>2021-07-10T12:44:58Z</time>
      </trkpt>
      <trkpt lat="44.11821" lon="6.71878">
        <ele>2495.5862085221</ele>
        <time>2021-07-10T12:45:01Z</time>
      </trkpt>
      <trkpt lat="44.11821" lon="6.7188">
        <ele>2496.5861900891</ele>
        <time>2021-07-10T12:45:02Z</time>
      </trkpt>
      <trkpt lat="44.11821" lon="6.71881">
        <ele>2496.5861781761</ele>
        <time>2021-07-10T12:45:03Z</time>
      </trkpt>
      <trkpt lat="44.11821" lon="6.71882">
        <ele>2496.5861602206</ele>
        <time>2021-07-10T12:45:04Z</time>
      </trkpt>
      <trkpt lat="44.11821" lon="6.71882">
        <ele>2496.5861350967</ele>
        <time>2021-07-10T12:45:12Z</time>
      </trkpt>
      <trkpt lat="44.11821" lon="6.71884">
        <ele>2498.5860911691</ele>
        <time>2021-07-10T12:45:13Z</time>
      </trkpt>
      <trkpt lat="44.11821" lon="6.71886">
        <ele>2498.5860648451</ele>
        <time>2021-07-10T12:45:15Z</time>
      </trkpt>
      <trkpt lat="44.11821" lon="6.71887">
        <ele>2498.5860456621</ele>
        <time>2021-07-10T12:45:18Z</time>
      </trkpt>
      <trkpt lat="44.11821" lon="6.71888">
        <ele>2499.5860303248</ele>
        <time>2021-07-10T12:45:19Z</time>
      </trkpt>
      <trkpt lat="44.11821" lon="6.71889">
        <ele>2499.5859913754</ele>
        <time>2021-07-10T12:45:24Z</time>
      </trkpt>
      <trkpt lat="44.11823" lon="6.7189">
        <ele>2500.5859280578</ele>
        <time>2021-07-10T12:45:25Z</time>
      </trkpt>
      <trkpt lat="44.11823" lon="6.7189">
        <ele>2500.5859019169</ele>
        <time>2021-07-10T12:45:26Z</time>
      </trkpt>
      <trkpt lat="44.11824" lon="6.71891">
        <ele>2500.585872381</ele>
        <time>2021-07-10T12:45:27Z</time>
      </trkpt>
      <trkpt lat="44.11824" lon="6.71892">
        <ele>2500.5858298937</ele>
        <time>2021-07-10T12:45:29Z</time>
      </trkpt>
      <trkpt lat="44.11825" lon="6.71894">
        <ele>2500.5857529261</ele>
        <time>2021-07-10T12:45:31Z</time>
      </trkpt>
      <trkpt lat="44.11826" lon="6.71895">
        <ele>2501.5857273999</ele>
        <time>2021-07-10T12:45:33Z</time>
      </trkpt>
      <trkpt lat="44.11826" lon="6.71896">
        <ele>2501.5856950211</ele>
        <time>2021-07-10T12:45:35Z</time>
      </trkpt>
      <trkpt lat="44.11827" lon="6.71896">
        <ele>2501.5856682333</ele>
        <time>2021-07-10T12:45:36Z</time>
      </trkpt>
      <trkpt lat="44.11827" lon="6.71897">
        <ele>2501.5856402916</ele>
        <time>2021-07-10T12:45:37Z</time>
      </trkpt>
      <trkpt lat="44.11827" lon="6.71898">
        <ele>2502.5856071821</ele>
        <time>2021-07-10T12:45:39Z</time>
      </trkpt>
      <trkpt lat="44.11827" lon="6.71899">
        <ele>2503.5855938754</ele>
        <time>2021-07-10T12:45:42Z</time>
      </trkpt>
      <trkpt lat="44.11827" lon="6.71901">
        <ele>2503.5855582935</ele>
        <time>2021-07-10T12:45:43Z</time>
      </trkpt>
      <trkpt lat="44.11828" lon="6.71903">
        <ele>2503.5855056625</ele>
        <time>2021-07-10T12:45:45Z</time>
      </trkpt>
      <trkpt lat="44.11828" lon="6.71904">
        <ele>2503.5854835377</ele>
        <time>2021-07-10T12:45:46Z</time>
      </trkpt>
      <trkpt lat="44.11828" lon="6.71905">
        <ele>2504.5854579696</ele>
        <time>2021-07-10T12:45:48Z</time>
      </trkpt>
      <trkpt lat="44.11828" lon="6.71907">
        <ele>2504.585412843</ele>
        <time>2021-07-10T12:45:49Z</time>
      </trkpt>
      <trkpt lat="44.11828" lon="6.71908">
        <ele>2505.5853915215</ele>
        <time>2021-07-10T12:45:52Z</time>
      </trkpt>
      <trkpt lat="44.11829" lon="6.7191">
        <ele>2506.5853416558</ele>
        <time>2021-07-10T12:45:53Z</time>
      </trkpt>
      <trkpt lat="44.11829" lon="6.7191">
        <ele>2506.5853267531</ele>
        <time>2021-07-10T12:45:54Z</time>
      </trkpt>
      <trkpt lat="44.1183" lon="6.7191">
        <ele>2507.5853081002</ele>
        <time>2021-07-10T12:45:55Z</time>
      </trkpt>
      <trkpt lat="44.1183" lon="6.7191">
        <ele>2507.585286434</ele>
        <time>2021-07-10T12:45:56Z</time>
      </trkpt>
      <trkpt lat="44.1183" lon="6.71911">
        <ele>2508.5852629042</ele>
        <time>2021-07-10T12:45:57Z</time>
      </trkpt>
      <trkpt lat="44.11831" lon="6.71911">
        <ele>2508.5852305287</ele>
        <time>2021-07-10T12:45:58Z</time>
      </trkpt>
      <trkpt lat="44.11832" lon="6.71911">
        <ele>2508.5852059217</ele>
        <time>2021-07-10T12:46:00Z</time>
      </trkpt>
      <trkpt lat="44.11832" lon="6.7191">
        <ele>2508.5851971479</ele>
        <time>2021-07-10T12:46:01Z</time>
      </trkpt>
      <trkpt lat="44.11833" lon="6.71911">
        <ele>2509.5851618332</ele>
        <time>2021-07-10T12:46:02Z</time>
      </trkpt>
      <trkpt lat="44.11834" lon="6.71911">
        <ele>2509.5851302379</ele>
        <time>2021-07-10T12:46:03Z</time>
      </trkpt>
      <trkpt lat="44.11835" lon="6.71911">
        <ele>2509.5851112909</ele>
        <time>2021-07-10T12:46:04Z</time>
      </trkpt>
      <trkpt lat="44.11836" lon="6.71911">
        <ele>2510.5850687198</ele>
        <time>2021-07-10T12:46:06Z</time>
      </trkpt>
      <trkpt lat="44.11837" lon="6.71911">
        <ele>2510.5850474988</ele>
        <time>2021-07-10T12:46:14Z</time>
      </trkpt>
      <trkpt lat="44.11837" lon="6.71911">
        <ele>2509.585014968</ele>
        <time>2021-07-10T12:46:15Z</time>
      </trkpt>
      <trkpt lat="44.11838" lon="6.71912">
        <ele>2509.5849770703</ele>
        <time>2021-07-10T12:46:16Z</time>
      </trkpt>
      <trkpt lat="44.11839" lon="6.71913">
        <ele>2510.5849343388</ele>
        <time>2021-07-10T12:46:17Z</time>
      </trkpt>
      <trkpt lat="44.11839" lon="6.71913">
        <ele>2511.584899468</ele>
        <time>2021-07-10T12:46:18Z</time>
      </trkpt>
      <trkpt lat="44.1184" lon="6.71914">
        <ele>2511.5848710024</ele>
        <time>2021-07-10T12:46:19Z</time>
      </trkpt>
      <trkpt lat="44.11841" lon="6.71915">
        <ele>2511.5848307966</ele>
        <time>2021-07-10T12:46:20Z</time>
      </trkpt>
      <trkpt lat="44.11842" lon="6.71915">
        <ele>2511.5847885341</ele>
        <time>2021-07-10T12:46:21Z</time>
      </trkpt>
      <trkpt lat="44.11842" lon="6.71916">
        <ele>2512.5847536015</ele>
        <time>2021-07-10T12:46:22Z</time>
      </trkpt>
      <trkpt lat="44.11844" lon="6.71918">
        <ele>2512.5846692497</ele>
        <time>2021-07-10T12:46:24Z</time>
      </trkpt>
      <trkpt lat="44.11844" lon="6.71918">
        <ele>2512.5846319007</ele>
        <time>2021-07-10T12:46:25Z</time>
      </trkpt>
      <trkpt lat="44.11844" lon="6.71919">
        <ele>2513.584614469</ele>
        <time>2021-07-10T12:46:26Z</time>
      </trkpt>
      <trkpt lat="44.11845" lon="6.7192">
        <ele>2513.5845839692</ele>
        <time>2021-07-10T12:46:27Z</time>
      </trkpt>
      <trkpt lat="44.11846" lon="6.7192">
        <ele>2513.5845409341</ele>
        <time>2021-07-10T12:46:29Z</time>
      </trkpt>
      <trkpt lat="44.11846" lon="6.71921">
        <ele>2513.5845040427</ele>
        <time>2021-07-10T12:46:30Z</time>
      </trkpt>
      <trkpt lat="44.11847" lon="6.71922">
        <ele>2513.5844579628</ele>
        <time>2021-07-10T12:46:31Z</time>
      </trkpt>
      <trkpt lat="44.11848" lon="6.71923">
        <ele>2513.5844101907</ele>
        <time>2021-07-10T12:46:33Z</time>
      </trkpt>
      <trkpt lat="44.1185" lon="6.71924">
        <ele>2513.5843315162</ele>
        <time>2021-07-10T12:46:34Z</time>
      </trkpt>
      <trkpt lat="44.1185" lon="6.71925">
        <ele>2513.584297298</ele>
        <time>2021-07-10T12:46:35Z</time>
      </trkpt>
      <trkpt lat="44.11851" lon="6.71925">
        <ele>2513.584259066</ele>
        <time>2021-07-10T12:46:36Z</time>
      </trkpt>
      <trkpt lat="44.11852" lon="6.71925">
        <ele>2514.5842324398</ele>
        <time>2021-07-10T12:46:37Z</time>
      </trkpt>
      <trkpt lat="44.11853" lon="6.71925">
        <ele>2514.5842004564</ele>
        <time>2021-07-10T12:46:38Z</time>
      </trkpt>
      <trkpt lat="44.11853" lon="6.71925">
        <ele>2513.584174974</ele>
        <time>2021-07-10T12:46:40Z</time>
      </trkpt>
      <trkpt lat="44.11855" lon="6.71926">
        <ele>2514.5841210431</ele>
        <time>2021-07-10T12:46:41Z</time>
      </trkpt>
      <trkpt lat="44.11855" lon="6.71926">
        <ele>2514.5841017402</ele>
        <time>2021-07-10T12:46:43Z</time>
      </trkpt>
      <trkpt lat="44.11856" lon="6.71926">
        <ele>2514.5840813122</ele>
        <time>2021-07-10T12:46:51Z</time>
      </trkpt>
      <trkpt lat="44.11855" lon="6.71925">
        <ele>2513.5841316369</ele>
        <time>2021-07-10T12:46:52Z</time>
      </trkpt>
      <trkpt lat="44.11856" lon="6.71925">
        <ele>2512.5841030807</ele>
        <time>2021-07-10T12:46:55Z</time>
      </trkpt>
      <trkpt lat="44.11856" lon="6.71926">
        <ele>2512.5840880499</ele>
        <time>2021-07-10T12:47:38Z</time>
      </trkpt>
      <trkpt lat="44.11855" lon="6.71927">
        <ele>2511.5840905444</ele>
        <time>2021-07-10T12:47:40Z</time>
      </trkpt>
      <trkpt lat="44.11855" lon="6.71928">
        <ele>2512.5840529091</ele>
        <time>2021-07-10T12:47:42Z</time>
      </trkpt>
      <trkpt lat="44.11855" lon="6.71928">
        <ele>2512.5840662166</ele>
        <time>2021-07-10T12:48:01Z</time>
      </trkpt>
      <trkpt lat="44.11856" lon="6.71926">
        <ele>2511.5840524143</ele>
        <time>2021-07-10T12:48:02Z</time>
      </trkpt>
      <trkpt lat="44.11857" lon="6.71926">
        <ele>2512.5840355743</ele>
        <time>2021-07-10T12:48:03Z</time>
      </trkpt>
      <trkpt lat="44.11858" lon="6.71926">
        <ele>2513.5840196386</ele>
        <time>2021-07-10T12:48:04Z</time>
      </trkpt>
      <trkpt lat="44.11858" lon="6.71926">
        <ele>2514.5839821441</ele>
        <time>2021-07-10T12:48:08Z</time>
      </trkpt>
      <trkpt lat="44.11858" lon="6.71927">
        <ele>2514.5839713058</ele>
        <time>2021-07-10T12:48:09Z</time>
      </trkpt>
      <trkpt lat="44.11858" lon="6.71928">
        <ele>2515.5839625801</ele>
        <time>2021-07-10T12:48:10Z</time>
      </trkpt>
      <trkpt lat="44.11858" lon="6.71929">
        <ele>2515.5839613691</ele>
        <time>2021-07-10T12:49:09Z</time>
      </trkpt>
      <trkpt lat="44.11858" lon="6.71928">
        <ele>2518.5839800534</ele>
        <time>2021-07-10T12:49:18Z</time>
      </trkpt>
      <trkpt lat="44.11858" lon="6.71927">
        <ele>2518.5839813489</ele>
        <time>2021-07-10T12:49:31Z</time>
      </trkpt>
      <trkpt lat="44.11859" lon="6.71927">
        <ele>2518.5839428447</ele>
        <time>2021-07-10T12:49:32Z</time>
      </trkpt>
      <trkpt lat="44.1186" lon="6.71927">
        <ele>2518.5839098606</ele>
        <time>2021-07-10T12:49:40Z</time>
      </trkpt>
      <trkpt lat="44.11859" lon="6.71926">
        <ele>2517.5839806651</ele>
        <time>2021-07-10T12:49:41Z</time>
      </trkpt>
      <trkpt lat="44.11858" lon="6.71925">
        <ele>2517.5840181268</ele>
        <time>2021-07-10T12:49:42Z</time>
      </trkpt>
      <trkpt lat="44.11858" lon="6.71925">
        <ele>2518.5840304647</ele>
        <time>2021-07-10T12:49:53Z</time>
      </trkpt>
      <trkpt lat="44.11858" lon="6.71926">
        <ele>2518.5840029979</ele>
        <time>2021-07-10T12:49:54Z</time>
      </trkpt>
      <trkpt lat="44.11858" lon="6.71925">
        <ele>2518.5840114115</ele>
        <time>2021-07-10T12:49:57Z</time>
      </trkpt>
      <trkpt lat="44.11859" lon="6.71925">
        <ele>2519.5839966076</ele>
        <time>2021-07-10T12:50:04Z</time>
      </trkpt>
      <trkpt lat="44.11859" lon="6.71925">
        <ele>2519.5839677731</ele>
        <time>2021-07-10T12:50:05Z</time>
      </trkpt>
      <trkpt lat="44.1186" lon="6.71926">
        <ele>2519.5839498391</ele>
        <time>2021-07-10T12:50:06Z</time>
      </trkpt>
      <trkpt lat="44.1186" lon="6.71926">
        <ele>2519.5839261629</ele>
        <time>2021-07-10T12:50:07Z</time>
      </trkpt>
      <trkpt lat="44.1186" lon="6.71927">
        <ele>2519.5839143983</ele>
        <time>2021-07-10T12:50:08Z</time>
      </trkpt>
      <trkpt lat="44.1186" lon="6.71928">
        <ele>2520.5839108983</ele>
        <time>2021-07-10T12:50:09Z</time>
      </trkpt>
      <trkpt lat="44.11859" lon="6.71928">
        <ele>2520.5839110898</ele>
        <time>2021-07-10T12:50:11Z</time>
      </trkpt>
      <trkpt lat="44.11859" lon="6.71929">
        <ele>2520.5839302593</ele>
        <time>2021-07-10T12:50:12Z</time>
      </trkpt>
      <trkpt lat="44.11858" lon="6.71929">
        <ele>2519.5839387023</ele>
        <time>2021-07-10T12:50:15Z</time>
      </trkpt>
      <trkpt lat="44.11858" lon="6.71929">
        <ele>2519.5839477408</ele>
        <time>2021-07-10T12:50:18Z</time>
      </trkpt>
      <trkpt lat="44.11857" lon="6.71928">
        <ele>2519.5839943039</ele>
        <time>2021-07-10T12:50:19Z</time>
      </trkpt>
      <trkpt lat="44.11857" lon="6.71927">
        <ele>2519.5840112503</ele>
        <time>2021-07-10T12:50:20Z</time>
      </trkpt>
      <trkpt lat="44.11857" lon="6.71927">
        <ele>2519.5840361857</ele>
        <time>2021-07-10T12:50:40Z</time>
      </trkpt>
      <trkpt lat="44.11856" lon="6.71928">
        <ele>2517.5840431833</ele>
        <time>2021-07-10T12:56:28Z</time>
      </trkpt>
      <trkpt lat="44.11856" lon="6.71929">
        <ele>2517.5840191981</ele>
        <time>2021-07-10T12:59:45Z</time>
      </trkpt>
      <trkpt lat="44.11856" lon="6.71929">
        <ele>2511.5840113414</ele>
        <time>2021-07-10T13:00:22Z</time>
      </trkpt>
      <trkpt lat="44.11857" lon="6.71927">
        <ele>2511.5840299604</ele>
        <time>2021-07-10T13:00:23Z</time>
      </trkpt>
      <trkpt lat="44.11857" lon="6.71927">
        <ele>2511.5840218868</ele>
        <time>2021-07-10T13:00:27Z</time>
      </trkpt>
      <trkpt lat="44.11858" lon="6.71926">
        <ele>2511.5839991543</ele>
        <time>2021-07-10T13:00:36Z</time>
      </trkpt>
      <trkpt lat="44.11859" lon="6.71926">
        <ele>2511.5839873504</ele>
        <time>2021-07-10T13:00:37Z</time>
      </trkpt>
      <trkpt lat="44.11859" lon="6.71925">
        <ele>2511.583980994</ele>
        <time>2021-07-10T13:00:40Z</time>
      </trkpt>
      <trkpt lat="44.1186" lon="6.71923">
        <ele>2511.5839944484</ele>
        <time>2021-07-10T13:00:42Z</time>
      </trkpt>
      <trkpt lat="44.1186" lon="6.71923">
        <ele>2511.5839930723</ele>
        <time>2021-07-10T13:00:43Z</time>
      </trkpt>
      <trkpt lat="44.11861" lon="6.71922">
        <ele>2511.5839834094</ele>
        <time>2021-07-10T13:00:44Z</time>
      </trkpt>
      <trkpt lat="44.11861" lon="6.71921">
        <ele>2511.5839783198</ele>
        <time>2021-07-10T13:00:45Z</time>
      </trkpt>
      <trkpt lat="44.11862" lon="6.71921">
        <ele>2512.5839747457</ele>
        <time>2021-07-10T13:00:46Z</time>
      </trkpt>
      <trkpt lat="44.11862" lon="6.7192">
        <ele>2511.583967532</ele>
        <time>2021-07-10T13:00:47Z</time>
      </trkpt>
      <trkpt lat="44.11863" lon="6.7192">
        <ele>2511.5839581785</ele>
        <time>2021-07-10T13:00:48Z</time>
      </trkpt>
      <trkpt lat="44.11863" lon="6.71919">
        <ele>2511.5839435602</ele>
        <time>2021-07-10T13:00:49Z</time>
      </trkpt>
      <trkpt lat="44.11864" lon="6.71919">
        <ele>2511.5839317488</ele>
        <time>2021-07-10T13:00:53Z</time>
      </trkpt>
      <trkpt lat="44.11866" lon="6.71919">
        <ele>2510.5838629759</ele>
        <time>2021-07-10T13:00:55Z</time>
      </trkpt>
      <trkpt lat="44.11866" lon="6.71919">
        <ele>2509.5838415533</ele>
        <time>2021-07-10T13:01:00Z</time>
      </trkpt>
      <trkpt lat="44.11868" lon="6.7192">
        <ele>2509.5837630977</ele>
        <time>2021-07-10T13:01:01Z</time>
      </trkpt>
      <trkpt lat="44.11869" lon="6.7192">
        <ele>2509.5837289003</ele>
        <time>2021-07-10T13:01:02Z</time>
      </trkpt>
      <trkpt lat="44.1187" lon="6.71921">
        <ele>2508.583694703</ele>
        <time>2021-07-10T13:01:04Z</time>
      </trkpt>
      <trkpt lat="44.1187" lon="6.71921">
        <ele>2508.5836686505</ele>
        <time>2021-07-10T13:01:05Z</time>
      </trkpt>
      <trkpt lat="44.11871" lon="6.7192">
        <ele>2508.5836548068</ele>
        <time>2021-07-10T13:01:06Z</time>
      </trkpt>
      <trkpt lat="44.11872" lon="6.7192">
        <ele>2507.5836429359</ele>
        <time>2021-07-10T13:01:07Z</time>
      </trkpt>
      <trkpt lat="44.11873" lon="6.71919">
        <ele>2507.5836338343</ele>
        <time>2021-07-10T13:01:08Z</time>
      </trkpt>
      <trkpt lat="44.11873" lon="6.71918">
        <ele>2507.5836282744</ele>
        <time>2021-07-10T13:01:09Z</time>
      </trkpt>
      <trkpt lat="44.11874" lon="6.71917">
        <ele>2507.5836041238</ele>
        <time>2021-07-10T13:01:10Z</time>
      </trkpt>
      <trkpt lat="44.11875" lon="6.71917">
        <ele>2507.5835667947</ele>
        <time>2021-07-10T13:01:11Z</time>
      </trkpt>
      <trkpt lat="44.11876" lon="6.71917">
        <ele>2508.5835409902</ele>
        <time>2021-07-10T13:01:12Z</time>
      </trkpt>
      <trkpt lat="44.11877" lon="6.71916">
        <ele>2507.5835263493</ele>
        <time>2021-07-10T13:01:13Z</time>
      </trkpt>
      <trkpt lat="44.11878" lon="6.71916">
        <ele>2507.5835084263</ele>
        <time>2021-07-10T13:01:14Z</time>
      </trkpt>
      <trkpt lat="44.11878" lon="6.71915">
        <ele>2507.5834911161</ele>
        <time>2021-07-10T13:01:15Z</time>
      </trkpt>
      <trkpt lat="44.11879" lon="6.71915">
        <ele>2507.5834699494</ele>
        <time>2021-07-10T13:01:16Z</time>
      </trkpt>
      <trkpt lat="44.1188" lon="6.71915">
        <ele>2507.5834405255</ele>
        <time>2021-07-10T13:01:17Z</time>
      </trkpt>
      <trkpt lat="44.11881" lon="6.71914">
        <ele>2507.5834179591</ele>
        <time>2021-07-10T13:01:18Z</time>
      </trkpt>
      <trkpt lat="44.11882" lon="6.71914">
        <ele>2508.5833995553</ele>
        <time>2021-07-10T13:01:19Z</time>
      </trkpt>
      <trkpt lat="44.11882" lon="6.71915">
        <ele>2508.5833728902</ele>
        <time>2021-07-10T13:01:20Z</time>
      </trkpt>
      <trkpt lat="44.11883" lon="6.71915">
        <ele>2508.5833382434</ele>
        <time>2021-07-10T13:01:21Z</time>
      </trkpt>
      <trkpt lat="44.11884" lon="6.71915">
        <ele>2507.5833090106</ele>
        <time>2021-07-10T13:01:22Z</time>
      </trkpt>
      <trkpt lat="44.11885" lon="6.71916">
        <ele>2508.5832697363</ele>
        <time>2021-07-10T13:01:23Z</time>
      </trkpt>
      <trkpt lat="44.11886" lon="6.71916">
        <ele>2507.5832219866</ele>
        <time>2021-07-10T13:01:24Z</time>
      </trkpt>
      <trkpt lat="44.11887" lon="6.71917">
        <ele>2507.5831822255</ele>
        <time>2021-07-10T13:01:25Z</time>
      </trkpt>
      <trkpt lat="44.11888" lon="6.71917">
        <ele>2507.5831355734</ele>
        <time>2021-07-10T13:01:26Z</time>
      </trkpt>
      <trkpt lat="44.11888" lon="6.71917">
        <ele>2507.5831103648</ele>
        <time>2021-07-10T13:01:27Z</time>
      </trkpt>
      <trkpt lat="44.11889" lon="6.71918">
        <ele>2507.5830682534</ele>
        <time>2021-07-10T13:01:28Z</time>
      </trkpt>
      <trkpt lat="44.1189" lon="6.71918">
        <ele>2508.5830340075</ele>
        <time>2021-07-10T13:01:30Z</time>
      </trkpt>
      <trkpt lat="44.11892" lon="6.71919">
        <ele>2508.5829550043</ele>
        <time>2021-07-10T13:01:31Z</time>
      </trkpt>
      <trkpt lat="44.11892" lon="6.71919">
        <ele>2508.5829313565</ele>
        <time>2021-07-10T13:01:32Z</time>
      </trkpt>
      <trkpt lat="44.11893" lon="6.7192">
        <ele>2508.5829086369</ele>
        <time>2021-07-10T13:01:33Z</time>
      </trkpt>
      <trkpt lat="44.11893" lon="6.7192">
        <ele>2509.5828771136</ele>
        <time>2021-07-10T13:01:35Z</time>
      </trkpt>
      <trkpt lat="44.11894" lon="6.7192">
        <ele>2509.5828653114</ele>
        <time>2021-07-10T13:01:36Z</time>
      </trkpt>
      <trkpt lat="44.11895" lon="6.7192">
        <ele>2509.5828404337</ele>
        <time>2021-07-10T13:01:39Z</time>
      </trkpt>
      <trkpt lat="44.11895" lon="6.71919">
        <ele>2508.5828412021</ele>
        <time>2021-07-10T13:01:40Z</time>
      </trkpt>
      <trkpt lat="44.11896" lon="6.71917">
        <ele>2509.5828523164</ele>
        <time>2021-07-10T13:01:42Z</time>
      </trkpt>
      <trkpt lat="44.11896" lon="6.71917">
        <ele>2508.5828549307</ele>
        <time>2021-07-10T13:01:47Z</time>
      </trkpt>
      <trkpt lat="44.11897" lon="6.71914">
        <ele>2507.5828606004</ele>
        <time>2021-07-10T13:01:48Z</time>
      </trkpt>
      <trkpt lat="44.11897" lon="6.71914">
        <ele>2506.5828550261</ele>
        <time>2021-07-10T13:01:50Z</time>
      </trkpt>
      <trkpt lat="44.11898" lon="6.71912">
        <ele>2505.5828441364</ele>
        <time>2021-07-10T13:01:52Z</time>
      </trkpt>
      <trkpt lat="44.11899" lon="6.71912">
        <ele>2505.5828254972</ele>
        <time>2021-07-10T13:01:53Z</time>
      </trkpt>
      <trkpt lat="44.119" lon="6.71911">
        <ele>2505.5828225226</ele>
        <time>2021-07-10T13:01:54Z</time>
      </trkpt>
      <trkpt lat="44.11901" lon="6.7191">
        <ele>2504.5828190734</ele>
        <time>2021-07-10T13:01:55Z</time>
      </trkpt>
      <trkpt lat="44.11901" lon="6.71909">
        <ele>2504.5828144638</ele>
        <time>2021-07-10T13:01:56Z</time>
      </trkpt>
      <trkpt lat="44.11901" lon="6.71908">
        <ele>2504.5828230412</ele>
        <time>2021-07-10T13:01:57Z</time>
      </trkpt>
      <trkpt lat="44.11902" lon="6.71907">
        <ele>2503.5828214081</ele>
        <time>2021-07-10T13:01:59Z</time>
      </trkpt>
      <trkpt lat="44.11903" lon="6.71906">
        <ele>2502.5828166724</ele>
        <time>2021-07-10T13:02:01Z</time>
      </trkpt>
      <trkpt lat="44.11903" lon="6.71906">
        <ele>2502.582797053</ele>
        <time>2021-07-10T13:02:02Z</time>
      </trkpt>
      <trkpt lat="44.11904" lon="6.71906">
        <ele>2502.5827723515</ele>
        <time>2021-07-10T13:02:03Z</time>
      </trkpt>
      <trkpt lat="44.11904" lon="6.71906">
        <ele>2502.5827556374</ele>
        <time>2021-07-10T13:02:04Z</time>
      </trkpt>
      <trkpt lat="44.11905" lon="6.71906">
        <ele>2502.5827326583</ele>
        <time>2021-07-10T13:02:05Z</time>
      </trkpt>
      <trkpt lat="44.11906" lon="6.71906">
        <ele>2502.5827007316</ele>
        <time>2021-07-10T13:02:06Z</time>
      </trkpt>
      <trkpt lat="44.11906" lon="6.71906">
        <ele>2502.5826908905</ele>
        <time>2021-07-10T13:02:07Z</time>
      </trkpt>
      <trkpt lat="44.11907" lon="6.71905">
        <ele>2501.5826885485</ele>
        <time>2021-07-10T13:02:08Z</time>
      </trkpt>
      <trkpt lat="44.11907" lon="6.71904">
        <ele>2501.5826938007</ele>
        <time>2021-07-10T13:02:09Z</time>
      </trkpt>
      <trkpt lat="44.11908" lon="6.71903">
        <ele>2501.5826868699</ele>
        <time>2021-07-10T13:02:11Z</time>
      </trkpt>
      <trkpt lat="44.11909" lon="6.71903">
        <ele>2500.5826674925</ele>
        <time>2021-07-10T13:02:13Z</time>
      </trkpt>
      <trkpt lat="44.11909" lon="6.71902">
        <ele>2500.5826717397</ele>
        <time>2021-07-10T13:02:14Z</time>
      </trkpt>
      <trkpt lat="44.11909" lon="6.71902">
        <ele>2500.582662625</ele>
        <time>2021-07-10T13:02:15Z</time>
      </trkpt>
      <trkpt lat="44.1191" lon="6.71902">
        <ele>2500.5826375706</ele>
        <time>2021-07-10T13:02:16Z</time>
      </trkpt>
      <trkpt lat="44.11911" lon="6.71902">
        <ele>2499.5826035793</ele>
        <time>2021-07-10T13:02:17Z</time>
      </trkpt>
      <trkpt lat="44.11911" lon="6.71903">
        <ele>2499.5825833896</ele>
        <time>2021-07-10T13:02:22Z</time>
      </trkpt>
      <trkpt lat="44.11912" lon="6.71903">
        <ele>2498.5825539514</ele>
        <time>2021-07-10T13:02:24Z</time>
      </trkpt>
      <trkpt lat="44.11912" lon="6.71902">
        <ele>2498.5825701636</ele>
        <time>2021-07-10T13:02:25Z</time>
      </trkpt>
      <trkpt lat="44.11912" lon="6.71901">
        <ele>2497.5825812855</ele>
        <time>2021-07-10T13:02:26Z</time>
      </trkpt>
      <trkpt lat="44.11913" lon="6.719">
        <ele>2497.5825835832</ele>
        <time>2021-07-10T13:02:27Z</time>
      </trkpt>
      <trkpt lat="44.11913" lon="6.719">
        <ele>2496.5825752712</ele>
        <time>2021-07-10T13:02:28Z</time>
      </trkpt>
      <trkpt lat="44.11913" lon="6.71899">
        <ele>2496.5825842217</ele>
        <time>2021-07-10T13:02:29Z</time>
      </trkpt>
      <trkpt lat="44.11914" lon="6.71898">
        <ele>2496.582568801</ele>
        <time>2021-07-10T13:02:31Z</time>
      </trkpt>
      <trkpt lat="44.11915" lon="6.71897">
        <ele>2496.5825491078</ele>
        <time>2021-07-10T13:02:32Z</time>
      </trkpt>
      <trkpt lat="44.11916" lon="6.71897">
        <ele>2497.5825274591</ele>
        <time>2021-07-10T13:02:33Z</time>
      </trkpt>
      <trkpt lat="44.11916" lon="6.71897">
        <ele>2497.5825080555</ele>
        <time>2021-07-10T13:02:34Z</time>
      </trkpt>
      <trkpt lat="44.11917" lon="6.71898">
        <ele>2496.5824797743</ele>
        <time>2021-07-10T13:02:37Z</time>
      </trkpt>
      <trkpt lat="44.11917" lon="6.719">
        <ele>2496.5824249283</ele>
        <time>2021-07-10T13:02:38Z</time>
      </trkpt>
      <trkpt lat="44.11918" lon="6.71901">
        <ele>2496.5823893586</ele>
        <time>2021-07-10T13:02:43Z</time>
      </trkpt>
      <trkpt lat="44.11918" lon="6.71903">
        <ele>2495.5823194571</ele>
        <time>2021-07-10T13:02:44Z</time>
      </trkpt>
      <trkpt lat="44.11919" lon="6.71904">
        <ele>2494.5822981123</ele>
        <time>2021-07-10T13:02:46Z</time>
      </trkpt>
      <trkpt lat="44.11919" lon="6.71905">
        <ele>2493.5822590288</ele>
        <time>2021-07-10T13:02:50Z</time>
      </trkpt>
      <trkpt lat="44.1192" lon="6.71906">
        <ele>2493.5822124774</ele>
        <time>2021-07-10T13:02:52Z</time>
      </trkpt>
      <trkpt lat="44.11921" lon="6.71906">
        <ele>2492.5821868405</ele>
        <time>2021-07-10T13:02:57Z</time>
      </trkpt>
      <trkpt lat="44.11921" lon="6.71907">
        <ele>2492.5821471249</ele>
        <time>2021-07-10T13:02:58Z</time>
      </trkpt>
      <trkpt lat="44.11921" lon="6.71908">
        <ele>2493.5821264846</ele>
        <time>2021-07-10T13:03:04Z</time>
      </trkpt>
      <trkpt lat="44.11922" lon="6.71909">
        <ele>2491.5821072518</ele>
        <time>2021-07-10T13:03:05Z</time>
      </trkpt>
      <trkpt lat="44.11922" lon="6.71909">
        <ele>2491.5820761275</ele>
        <time>2021-07-10T13:03:13Z</time>
      </trkpt>
      <trkpt lat="44.11922" lon="6.71911">
        <ele>2490.5820634706</ele>
        <time>2021-07-10T13:03:14Z</time>
      </trkpt>
      <trkpt lat="44.11922" lon="6.71912">
        <ele>2490.5820276948</ele>
        <time>2021-07-10T13:03:17Z</time>
      </trkpt>
      <trkpt lat="44.11922" lon="6.71913">
        <ele>2490.5819952971</ele>
        <time>2021-07-10T13:03:19Z</time>
      </trkpt>
      <trkpt lat="44.11923" lon="6.71913">
        <ele>2489.5819714892</ele>
        <time>2021-07-10T13:03:23Z</time>
      </trkpt>
      <trkpt lat="44.11924" lon="6.71914">
        <ele>2491.5819325284</ele>
        <time>2021-07-10T13:03:38Z</time>
      </trkpt>
      <trkpt lat="44.11924" lon="6.71914">
        <ele>2491.5819187502</ele>
        <time>2021-07-10T13:03:44Z</time>
      </trkpt>
      <trkpt lat="44.11924" lon="6.71915">
        <ele>2490.5819049551</ele>
        <time>2021-07-10T13:03:47Z</time>
      </trkpt>
      <trkpt lat="44.11923" lon="6.71916">
        <ele>2489.5819058684</ele>
        <time>2021-07-10T13:03:48Z</time>
      </trkpt>
      <trkpt lat="44.11923" lon="6.71917">
        <ele>2489.5818845885</ele>
        <time>2021-07-10T13:03:56Z</time>
      </trkpt>
      <trkpt lat="44.11923" lon="6.71918">
        <ele>2489.5818642878</ele>
        <time>2021-07-10T13:03:58Z</time>
      </trkpt>
      <trkpt lat="44.11924" lon="6.71919">
        <ele>2489.5818333575</ele>
        <time>2021-07-10T13:04:01Z</time>
      </trkpt>
      <trkpt lat="44.11924" lon="6.71919">
        <ele>2489.5818162375</ele>
        <time>2021-07-10T13:04:06Z</time>
      </trkpt>
      <trkpt lat="44.11924" lon="6.71921">
        <ele>2488.5817620607</ele>
        <time>2021-07-10T13:04:07Z</time>
      </trkpt>
      <trkpt lat="44.11925" lon="6.71922">
        <ele>2488.5817333478</ele>
        <time>2021-07-10T13:04:08Z</time>
      </trkpt>
      <trkpt lat="44.11925" lon="6.71922">
        <ele>2488.5817189788</ele>
        <time>2021-07-10T13:04:09Z</time>
      </trkpt>
      <trkpt lat="44.11924" lon="6.71923">
        <ele>2488.5817268398</ele>
        <time>2021-07-10T13:04:16Z</time>
      </trkpt>
      <trkpt lat="44.11925" lon="6.71923">
        <ele>2486.5816989393</ele>
        <time>2021-07-10T13:04:23Z</time>
      </trkpt>
      <trkpt lat="44.11925" lon="6.71924">
        <ele>2487.5816793825</ele>
        <time>2021-07-10T13:04:26Z</time>
      </trkpt>
      <trkpt lat="44.11925" lon="6.71925">
        <ele>2486.5816621794</ele>
        <time>2021-07-10T13:04:38Z</time>
      </trkpt>
      <trkpt lat="44.11925" lon="6.71926">
        <ele>2486.5816479298</ele>
        <time>2021-07-10T13:04:39Z</time>
      </trkpt>
      <trkpt lat="44.11926" lon="6.71927">
        <ele>2485.5816255965</ele>
        <time>2021-07-10T13:04:41Z</time>
      </trkpt>
      <trkpt lat="44.11926" lon="6.71927">
        <ele>2484.5816059223</ele>
        <time>2021-07-10T13:04:44Z</time>
      </trkpt>
      <trkpt lat="44.11926" lon="6.71929">
        <ele>2483.5815590994</ele>
        <time>2021-07-10T13:04:46Z</time>
      </trkpt>
      <trkpt lat="44.11926" lon="6.7193">
        <ele>2484.5815233412</ele>
        <time>2021-07-10T13:04:52Z</time>
      </trkpt>
      <trkpt lat="44.11927" lon="6.7193">
        <ele>2484.5815107566</ele>
        <time>2021-07-10T13:04:53Z</time>
      </trkpt>
      <trkpt lat="44.11927" lon="6.71931">
        <ele>2483.5814843331</ele>
        <time>2021-07-10T13:04:56Z</time>
      </trkpt>
      <trkpt lat="44.11928" lon="6.71932">
        <ele>2482.5814363809</ele>
        <time>2021-07-10T13:04:58Z</time>
      </trkpt>
      <trkpt lat="44.11928" lon="6.71933">
        <ele>2481.5814346397</ele>
        <time>2021-07-10T13:05:03Z</time>
      </trkpt>
      <trkpt lat="44.11927" lon="6.71933">
        <ele>2480.5814274939</ele>
        <time>2021-07-10T13:05:04Z</time>
      </trkpt>
      <trkpt lat="44.11928" lon="6.71934">
        <ele>2480.5813911934</ele>
        <time>2021-07-10T13:05:06Z</time>
      </trkpt>
      <trkpt lat="44.11928" lon="6.71935">
        <ele>2481.5813665295</ele>
        <time>2021-07-10T13:05:14Z</time>
      </trkpt>
      <trkpt lat="44.11928" lon="6.71937">
        <ele>2479.581334924</ele>
        <time>2021-07-10T13:05:16Z</time>
      </trkpt>
      <trkpt lat="44.11928" lon="6.71937">
        <ele>2480.5813186419</ele>
        <time>2021-07-10T13:05:20Z</time>
      </trkpt>
      <trkpt lat="44.11929" lon="6.71938">
        <ele>2479.5812903632</ele>
        <time>2021-07-10T13:05:21Z</time>
      </trkpt>
      <trkpt lat="44.11929" lon="6.71939">
        <ele>2478.5812824013</ele>
        <time>2021-07-10T13:05:25Z</time>
      </trkpt>
      <trkpt lat="44.11929" lon="6.71939">
        <ele>2476.5812451325</ele>
        <time>2021-07-10T13:05:28Z</time>
      </trkpt>
      <trkpt lat="44.1193" lon="6.7194">
        <ele>2476.5812320374</ele>
        <time>2021-07-10T13:05:33Z</time>
      </trkpt>
      <trkpt lat="44.1193" lon="6.71941">
        <ele>2475.5811866381</ele>
        <time>2021-07-10T13:05:34Z</time>
      </trkpt>
      <trkpt lat="44.1193" lon="6.71941">
        <ele>2475.5811763724</ele>
        <time>2021-07-10T13:05:35Z</time>
      </trkpt>
      <trkpt lat="44.11931" lon="6.71943">
        <ele>2474.5811435171</ele>
        <time>2021-07-10T13:05:37Z</time>
      </trkpt>
      <trkpt lat="44.11931" lon="6.71943">
        <ele>2474.5811435171</ele>
        <time>2021-07-10T13:05:41Z</time>
      </trkpt>
      <trkpt lat="44.11931" lon="6.71944">
        <ele>2473.5811043411</ele>
        <time>2021-07-10T13:05:42Z</time>
      </trkpt>
      <trkpt lat="44.11931" lon="6.71945">
        <ele>2472.5810691981</ele>
        <time>2021-07-10T13:05:44Z</time>
      </trkpt>
      <trkpt lat="44.11932" lon="6.71946">
        <ele>2473.5810429144</ele>
        <time>2021-07-10T13:05:47Z</time>
      </trkpt>
      <trkpt lat="44.11932" lon="6.71946">
        <ele>2472.5810233508</ele>
        <time>2021-07-10T13:05:48Z</time>
      </trkpt>
      <trkpt lat="44.11932" lon="6.71947">
        <ele>2473.5810057429</ele>
        <time>2021-07-10T13:05:49Z</time>
      </trkpt>
      <trkpt lat="44.11932" lon="6.71948">
        <ele>2472.5809807108</ele>
        <time>2021-07-10T13:05:53Z</time>
      </trkpt>
      <trkpt lat="44.11932" lon="6.71949">
        <ele>2471.5809641574</ele>
        <time>2021-07-10T13:05:54Z</time>
      </trkpt>
      <trkpt lat="44.11933" lon="6.7195">
        <ele>2470.5809301087</ele>
        <time>2021-07-10T13:05:56Z</time>
      </trkpt>
      <trkpt lat="44.11933" lon="6.71951">
        <ele>2470.5809045316</ele>
        <time>2021-07-10T13:05:58Z</time>
      </trkpt>
      <trkpt lat="44.11933" lon="6.71952">
        <ele>2470.580871766</ele>
        <time>2021-07-10T13:06:00Z</time>
      </trkpt>
      <trkpt lat="44.11934" lon="6.71954">
        <ele>2469.5808256659</ele>
        <time>2021-07-10T13:06:02Z</time>
      </trkpt>
      <trkpt lat="44.11934" lon="6.71954">
        <ele>2469.5808092335</ele>
        <time>2021-07-10T13:06:06Z</time>
      </trkpt>
      <trkpt lat="44.11934" lon="6.71955">
        <ele>2468.5807848181</ele>
        <time>2021-07-10T13:06:08Z</time>
      </trkpt>
      <trkpt lat="44.11935" lon="6.71955">
        <ele>2468.580754644</ele>
        <time>2021-07-10T13:06:10Z</time>
      </trkpt>
      <trkpt lat="44.11935" lon="6.71955">
        <ele>2468.5807576731</ele>
        <time>2021-07-10T13:06:14Z</time>
      </trkpt>
      <trkpt lat="44.11935" lon="6.71957">
        <ele>2467.58071225</ele>
        <time>2021-07-10T13:06:16Z</time>
      </trkpt>
      <trkpt lat="44.11935" lon="6.71958">
        <ele>2466.580696564</ele>
        <time>2021-07-10T13:06:19Z</time>
      </trkpt>
      <trkpt lat="44.11935" lon="6.71959">
        <ele>2465.5806665755</ele>
        <time>2021-07-10T13:06:29Z</time>
      </trkpt>
      <trkpt lat="44.11936" lon="6.7196">
        <ele>2464.5806194728</ele>
        <time>2021-07-10T13:06:31Z</time>
      </trkpt>
      <trkpt lat="44.11937" lon="6.7196">
        <ele>2464.5805937343</ele>
        <time>2021-07-10T13:06:32Z</time>
      </trkpt>
      <trkpt lat="44.11937" lon="6.71961">
        <ele>2463.5805798523</ele>
        <time>2021-07-10T13:06:33Z</time>
      </trkpt>
      <trkpt lat="44.11937" lon="6.71962">
        <ele>2463.5805459937</ele>
        <time>2021-07-10T13:06:36Z</time>
      </trkpt>
      <trkpt lat="44.11938" lon="6.71962">
        <ele>2462.5805273542</ele>
        <time>2021-07-10T13:06:37Z</time>
      </trkpt>
      <trkpt lat="44.11938" lon="6.71962">
        <ele>2462.5804992507</ele>
        <time>2021-07-10T13:06:38Z</time>
      </trkpt>
      <trkpt lat="44.11938" lon="6.71963">
        <ele>2462.5804825565</ele>
        <time>2021-07-10T13:06:39Z</time>
      </trkpt>
      <trkpt lat="44.11939" lon="6.71963">
        <ele>2462.5804529775</ele>
        <time>2021-07-10T13:06:40Z</time>
      </trkpt>
      <trkpt lat="44.11939" lon="6.71964">
        <ele>2462.5804280152</ele>
        <time>2021-07-10T13:06:41Z</time>
      </trkpt>
      <trkpt lat="44.1194" lon="6.71965">
        <ele>2462.5803881569</ele>
        <time>2021-07-10T13:06:43Z</time>
      </trkpt>
      <trkpt lat="44.1194" lon="6.71965">
        <ele>2461.5803741941</ele>
        <time>2021-07-10T13:06:44Z</time>
      </trkpt>
      <trkpt lat="44.1194" lon="6.71966">
        <ele>2461.5803536786</ele>
        <time>2021-07-10T13:06:45Z</time>
      </trkpt>
      <trkpt lat="44.1194" lon="6.71967">
        <ele>2461.5803454085</ele>
        <time>2021-07-10T13:06:46Z</time>
      </trkpt>
      <trkpt lat="44.1194" lon="6.71968">
        <ele>2461.5803275901</ele>
        <time>2021-07-10T13:06:47Z</time>
      </trkpt>
      <trkpt lat="44.1194" lon="6.71969">
        <ele>2461.5803162017</ele>
        <time>2021-07-10T13:06:48Z</time>
      </trkpt>
      <trkpt lat="44.1194" lon="6.7197">
        <ele>2461.5802828375</ele>
        <time>2021-07-10T13:06:50Z</time>
      </trkpt>
      <trkpt lat="44.11941" lon="6.71971">
        <ele>2460.5802385766</ele>
        <time>2021-07-10T13:06:52Z</time>
      </trkpt>
      <trkpt lat="44.11941" lon="6.71972">
        <ele>2460.5802210379</ele>
        <time>2021-07-10T13:06:54Z</time>
      </trkpt>
      <trkpt lat="44.11942" lon="6.71972">
        <ele>2459.5801834999</ele>
        <time>2021-07-10T13:06:56Z</time>
      </trkpt>
      <trkpt lat="44.11942" lon="6.71973">
        <ele>2459.580160656</ele>
        <time>2021-07-10T13:06:57Z</time>
      </trkpt>
      <trkpt lat="44.11942" lon="6.71974">
        <ele>2459.5801563769</ele>
        <time>2021-07-10T13:06:58Z</time>
      </trkpt>
      <trkpt lat="44.11941" lon="6.71975">
        <ele>2459.580145321</ele>
        <time>2021-07-10T13:06:59Z</time>
      </trkpt>
      <trkpt lat="44.11941" lon="6.71976">
        <ele>2458.5801267318</ele>
        <time>2021-07-10T13:07:02Z</time>
      </trkpt>
      <trkpt lat="44.11942" lon="6.71977">
        <ele>2457.5800902725</ele>
        <time>2021-07-10T13:07:04Z</time>
      </trkpt>
      <trkpt lat="44.11941" lon="6.71978">
        <ele>2456.5800865668</ele>
        <time>2021-07-10T13:07:07Z</time>
      </trkpt>
      <trkpt lat="44.11941" lon="6.7198">
        <ele>2455.5800665409</ele>
        <time>2021-07-10T13:07:08Z</time>
      </trkpt>
      <trkpt lat="44.11941" lon="6.71981">
        <ele>2455.5800434011</ele>
        <time>2021-07-10T13:07:09Z</time>
      </trkpt>
      <trkpt lat="44.1194" lon="6.7198">
        <ele>2453.5800731087</ele>
        <time>2021-07-10T13:07:12Z</time>
      </trkpt>
      <trkpt lat="44.1194" lon="6.71982">
        <ele>2453.5800467559</ele>
        <time>2021-07-10T13:07:16Z</time>
      </trkpt>
      <trkpt lat="44.11941" lon="6.71983">
        <ele>2452.5800052998</ele>
        <time>2021-07-10T13:07:17Z</time>
      </trkpt>
      <trkpt lat="44.11942" lon="6.71983">
        <ele>2453.5799774309</ele>
        <time>2021-07-10T13:07:22Z</time>
      </trkpt>
      <trkpt lat="44.11942" lon="6.71984">
        <ele>2453.5799329795</ele>
        <time>2021-07-10T13:07:23Z</time>
      </trkpt>
      <trkpt lat="44.11942" lon="6.71984">
        <ele>2452.5799275723</ele>
        <time>2021-07-10T13:07:26Z</time>
      </trkpt>
      <trkpt lat="44.11943" lon="6.71983">
        <ele>2450.5799441296</ele>
        <time>2021-07-10T13:07:28Z</time>
      </trkpt>
      <trkpt lat="44.11943" lon="6.71983">
        <ele>2449.5799153411</ele>
        <time>2021-07-10T13:07:35Z</time>
      </trkpt>
      <trkpt lat="44.11944" lon="6.71985">
        <ele>2447.5798496124</ele>
        <time>2021-07-10T13:07:36Z</time>
      </trkpt>
      <trkpt lat="44.11945" lon="6.71986">
        <ele>2447.5798290421</ele>
        <time>2021-07-10T13:07:37Z</time>
      </trkpt>
      <trkpt lat="44.11945" lon="6.71986">
        <ele>2446.579807241</ele>
        <time>2021-07-10T13:07:38Z</time>
      </trkpt>
      <trkpt lat="44.11945" lon="6.71987">
        <ele>2446.5797863112</ele>
        <time>2021-07-10T13:07:41Z</time>
      </trkpt>
      <trkpt lat="44.11945" lon="6.71988">
        <ele>2446.5797626632</ele>
        <time>2021-07-10T13:07:42Z</time>
      </trkpt>
      <trkpt lat="44.11945" lon="6.71989">
        <ele>2446.5797438277</ele>
        <time>2021-07-10T13:07:44Z</time>
      </trkpt>
      <trkpt lat="44.11945" lon="6.7199">
        <ele>2447.5797440148</ele>
        <time>2021-07-10T13:07:45Z</time>
      </trkpt>
      <trkpt lat="44.11945" lon="6.71991">
        <ele>2447.5797242167</ele>
        <time>2021-07-10T13:07:47Z</time>
      </trkpt>
      <trkpt lat="44.11945" lon="6.71991">
        <ele>2446.5797049257</ele>
        <time>2021-07-10T13:07:48Z</time>
      </trkpt>
      <trkpt lat="44.11945" lon="6.71992">
        <ele>2446.5796720111</ele>
        <time>2021-07-10T13:07:51Z</time>
      </trkpt>
      <trkpt lat="44.11946" lon="6.71992">
        <ele>2445.5796574338</ele>
        <time>2021-07-10T13:07:54Z</time>
      </trkpt>
      <trkpt lat="44.11946" lon="6.71994">
        <ele>2444.5796176529</ele>
        <time>2021-07-10T13:07:55Z</time>
      </trkpt>
      <trkpt lat="44.11947" lon="6.71995">
        <ele>2445.579583888</ele>
        <time>2021-07-10T13:07:57Z</time>
      </trkpt>
      <trkpt lat="44.11947" lon="6.71996">
        <ele>2444.5795614585</ele>
        <time>2021-07-10T13:07:58Z</time>
      </trkpt>
      <trkpt lat="44.11947" lon="6.71997">
        <ele>2444.5795259184</ele>
        <time>2021-07-10T13:08:00Z</time>
      </trkpt>
      <trkpt lat="44.11948" lon="6.71997">
        <ele>2443.5795002198</ele>
        <time>2021-07-10T13:08:03Z</time>
      </trkpt>
      <trkpt lat="44.11948" lon="6.71998">
        <ele>2443.5794854179</ele>
        <time>2021-07-10T13:08:06Z</time>
      </trkpt>
      <trkpt lat="44.11948" lon="6.71999">
        <ele>2442.5794474838</ele>
        <time>2021-07-10T13:08:07Z</time>
      </trkpt>
      <trkpt lat="44.11948" lon="6.72">
        <ele>2441.5794282679</ele>
        <time>2021-07-10T13:08:10Z</time>
      </trkpt>
      <trkpt lat="44.11949" lon="6.72">
        <ele>2441.5794080371</ele>
        <time>2021-07-10T13:08:11Z</time>
      </trkpt>
      <trkpt lat="44.11949" lon="6.72001">
        <ele>2438.5793958968</ele>
        <time>2021-07-10T13:08:20Z</time>
      </trkpt>
      <trkpt lat="44.1195" lon="6.72001">
        <ele>2436.5793431897</ele>
        <time>2021-07-10T13:08:22Z</time>
      </trkpt>
      <trkpt lat="44.11951" lon="6.72001">
        <ele>2436.5793103844</ele>
        <time>2021-07-10T13:08:23Z</time>
      </trkpt>
      <trkpt lat="44.11952" lon="6.72001">
        <ele>2436.5792786422</ele>
        <time>2021-07-10T13:08:24Z</time>
      </trkpt>
      <trkpt lat="44.11953" lon="6.72002">
        <ele>2435.5792235469</ele>
        <time>2021-07-10T13:08:26Z</time>
      </trkpt>
      <trkpt lat="44.11954" lon="6.72002">
        <ele>2434.5791862514</ele>
        <time>2021-07-10T13:08:29Z</time>
      </trkpt>
      <trkpt lat="44.11955" lon="6.72004">
        <ele>2433.5791057144</ele>
        <time>2021-07-10T13:08:31Z</time>
      </trkpt>
      <trkpt lat="44.11956" lon="6.72005">
        <ele>2432.5790636541</ele>
        <time>2021-07-10T13:08:33Z</time>
      </trkpt>
      <trkpt lat="44.11957" lon="6.72005">
        <ele>2431.5790280195</ele>
        <time>2021-07-10T13:08:34Z</time>
      </trkpt>
      <trkpt lat="44.11957" lon="6.72006">
        <ele>2430.5789930567</ele>
        <time>2021-07-10T13:08:35Z</time>
      </trkpt>
      <trkpt lat="44.11959" lon="6.72007">
        <ele>2429.5789270673</ele>
        <time>2021-07-10T13:08:37Z</time>
      </trkpt>
      <trkpt lat="44.11959" lon="6.72007">
        <ele>2429.5788955278</ele>
        <time>2021-07-10T13:08:38Z</time>
      </trkpt>
      <trkpt lat="44.1196" lon="6.72009">
        <ele>2429.5788637441</ele>
        <time>2021-07-10T13:08:40Z</time>
      </trkpt>
      <trkpt lat="44.11959" lon="6.7201">
        <ele>2429.5788500442</ele>
        <time>2021-07-10T13:08:41Z</time>
      </trkpt>
      <trkpt lat="44.1196" lon="6.72011">
        <ele>2429.5788262967</ele>
        <time>2021-07-10T13:08:43Z</time>
      </trkpt>
      <trkpt lat="44.1196" lon="6.72011">
        <ele>2429.5788080856</ele>
        <time>2021-07-10T13:08:47Z</time>
      </trkpt>
      <trkpt lat="44.11962" lon="6.72011">
        <ele>2428.5787366895</ele>
        <time>2021-07-10T13:08:48Z</time>
      </trkpt>
      <trkpt lat="44.11963" lon="6.72011">
        <ele>2428.5787082229</ele>
        <time>2021-07-10T13:08:49Z</time>
      </trkpt>
      <trkpt lat="44.11963" lon="6.72011">
        <ele>2428.5786862182</ele>
        <time>2021-07-10T13:08:50Z</time>
      </trkpt>
      <trkpt lat="44.11964" lon="6.72011">
        <ele>2428.5786654518</ele>
        <time>2021-07-10T13:08:53Z</time>
      </trkpt>
      <trkpt lat="44.11965" lon="6.72013">
        <ele>2427.5785978733</ele>
        <time>2021-07-10T13:08:54Z</time>
      </trkpt>
      <trkpt lat="44.11965" lon="6.72014">
        <ele>2426.5785718597</ele>
        <time>2021-07-10T13:08:55Z</time>
      </trkpt>
      <trkpt lat="44.11965" lon="6.72015">
        <ele>2426.5785404291</ele>
        <time>2021-07-10T13:08:56Z</time>
      </trkpt>
      <trkpt lat="44.11966" lon="6.72016">
        <ele>2426.5784814864</ele>
        <time>2021-07-10T13:08:58Z</time>
      </trkpt>
      <trkpt lat="44.11966" lon="6.72016">
        <ele>2426.5784814864</ele>
        <time>2021-07-10T13:08:59Z</time>
      </trkpt>
      <trkpt lat="44.11967" lon="6.72018">
        <ele>2425.5784243557</ele>
        <time>2021-07-10T13:09:00Z</time>
      </trkpt>
      <trkpt lat="44.11967" lon="6.72019">
        <ele>2425.5783825965</ele>
        <time>2021-07-10T13:09:01Z</time>
      </trkpt>
      <trkpt lat="44.11968" lon="6.72021">
        <ele>2425.5783457275</ele>
        <time>2021-07-10T13:09:02Z</time>
      </trkpt>
      <trkpt lat="44.11968" lon="6.72022">
        <ele>2425.5783043756</ele>
        <time>2021-07-10T13:09:03Z</time>
      </trkpt>
      <trkpt lat="44.11969" lon="6.72022">
        <ele>2423.5782716316</ele>
        <time>2021-07-10T13:09:05Z</time>
      </trkpt>
      <trkpt lat="44.1197" lon="6.72022">
        <ele>2422.5782558827</ele>
        <time>2021-07-10T13:09:07Z</time>
      </trkpt>
      <trkpt lat="44.1197" lon="6.72022">
        <ele>2422.5782350481</ele>
        <time>2021-07-10T13:09:08Z</time>
      </trkpt>
      <trkpt lat="44.11971" lon="6.72023">
        <ele>2422.5781880849</ele>
        <time>2021-07-10T13:09:09Z</time>
      </trkpt>
      <trkpt lat="44.11971" lon="6.72024">
        <ele>2422.578156287</ele>
        <time>2021-07-10T13:09:10Z</time>
      </trkpt>
      <trkpt lat="44.11972" lon="6.72026">
        <ele>2421.5781101603</ele>
        <time>2021-07-10T13:09:12Z</time>
      </trkpt>
      <trkpt lat="44.11972" lon="6.72027">
        <ele>2421.5780877155</ele>
        <time>2021-07-10T13:09:13Z</time>
      </trkpt>
      <trkpt lat="44.11972" lon="6.72028">
        <ele>2421.5780611858</ele>
        <time>2021-07-10T13:09:14Z</time>
      </trkpt>
      <trkpt lat="44.11973" lon="6.72028">
        <ele>2420.5779977663</ele>
        <time>2021-07-10T13:09:16Z</time>
      </trkpt>
      <trkpt lat="44.11974" lon="6.72029">
        <ele>2419.5779590243</ele>
        <time>2021-07-10T13:09:17Z</time>
      </trkpt>
      <trkpt lat="44.11974" lon="6.7203">
        <ele>2419.5779439432</ele>
        <time>2021-07-10T13:09:18Z</time>
      </trkpt>
      <trkpt lat="44.11974" lon="6.7203">
        <ele>2419.5779198693</ele>
        <time>2021-07-10T13:09:19Z</time>
      </trkpt>
      <trkpt lat="44.11975" lon="6.72032">
        <ele>2419.5778597393</ele>
        <time>2021-07-10T13:09:21Z</time>
      </trkpt>
      <trkpt lat="44.11976" lon="6.72034">
        <ele>2418.5777936816</ele>
        <time>2021-07-10T13:09:23Z</time>
      </trkpt>
      <trkpt lat="44.11976" lon="6.72035">
        <ele>2418.577755579</ele>
        <time>2021-07-10T13:09:24Z</time>
      </trkpt>
      <trkpt lat="44.11977" lon="6.72036">
        <ele>2417.577703347</ele>
        <time>2021-07-10T13:09:25Z</time>
      </trkpt>
      <trkpt lat="44.11978" lon="6.72038">
        <ele>2417.5776475973</ele>
        <time>2021-07-10T13:09:27Z</time>
      </trkpt>
      <trkpt lat="44.11979" lon="6.72038">
        <ele>2417.5776036551</ele>
        <time>2021-07-10T13:09:28Z</time>
      </trkpt>
      <trkpt lat="44.11979" lon="6.7204">
        <ele>2417.577574738</ele>
        <time>2021-07-10T13:09:29Z</time>
      </trkpt>
      <trkpt lat="44.11979" lon="6.72041">
        <ele>2415.5775375306</ele>
        <time>2021-07-10T13:09:31Z</time>
      </trkpt>
      <trkpt lat="44.11979" lon="6.72043">
        <ele>2414.5775079122</ele>
        <time>2021-07-10T13:09:33Z</time>
      </trkpt>
      <trkpt lat="44.11979" lon="6.72043">
        <ele>2414.5775181565</ele>
        <time>2021-07-10T13:09:34Z</time>
      </trkpt>
      <trkpt lat="44.11979" lon="6.72043">
        <ele>2414.5775254895</ele>
        <time>2021-07-10T13:09:37Z</time>
      </trkpt>
      <trkpt lat="44.11979" lon="6.72045">
        <ele>2413.5774803387</ele>
        <time>2021-07-10T13:09:38Z</time>
      </trkpt>
      <trkpt lat="44.11979" lon="6.72046">
        <ele>2412.577454332</ele>
        <time>2021-07-10T13:09:40Z</time>
      </trkpt>
      <trkpt lat="44.11977" lon="6.72046">
        <ele>2412.577507849</ele>
        <time>2021-07-10T13:09:42Z</time>
      </trkpt>
      <trkpt lat="44.11977" lon="6.72047">
        <ele>2412.5775254298</ele>
        <time>2021-07-10T13:09:43Z</time>
      </trkpt>
      <trkpt lat="44.11976" lon="6.72047">
        <ele>2412.5775367398</ele>
        <time>2021-07-10T13:09:44Z</time>
      </trkpt>
      <trkpt lat="44.11976" lon="6.72048">
        <ele>2411.5775331644</ele>
        <time>2021-07-10T13:09:45Z</time>
      </trkpt>
      <trkpt lat="44.11976" lon="6.72049">
        <ele>2411.5775099886</ele>
        <time>2021-07-10T13:09:47Z</time>
      </trkpt>
      <trkpt lat="44.11976" lon="6.72049">
        <ele>2411.5775087229</ele>
        <time>2021-07-10T13:09:48Z</time>
      </trkpt>
      <trkpt lat="44.11977" lon="6.7205">
        <ele>2411.5774709655</ele>
        <time>2021-07-10T13:09:50Z</time>
      </trkpt>
      <trkpt lat="44.11977" lon="6.72051">
        <ele>2411.5774449535</ele>
        <time>2021-07-10T13:09:51Z</time>
      </trkpt>
      <trkpt lat="44.11977" lon="6.72051">
        <ele>2411.5774278546</ele>
        <time>2021-07-10T13:09:54Z</time>
      </trkpt>
      <trkpt lat="44.11979" lon="6.72051">
        <ele>2411.5773513156</ele>
        <time>2021-07-10T13:09:55Z</time>
      </trkpt>
      <trkpt lat="44.1198" lon="6.72051">
        <ele>2411.5773244878</ele>
        <time>2021-07-10T13:09:56Z</time>
      </trkpt>
      <trkpt lat="44.1198" lon="6.72052">
        <ele>2411.5773054598</ele>
        <time>2021-07-10T13:09:57Z</time>
      </trkpt>
      <trkpt lat="44.11981" lon="6.72052">
        <ele>2411.5772832962</ele>
        <time>2021-07-10T13:10:00Z</time>
      </trkpt>
      <trkpt lat="44.1198" lon="6.72054">
        <ele>2410.5772655741</ele>
        <time>2021-07-10T13:10:01Z</time>
      </trkpt>
      <trkpt lat="44.1198" lon="6.72055">
        <ele>2410.5772454945</ele>
        <time>2021-07-10T13:10:02Z</time>
      </trkpt>
      <trkpt lat="44.11981" lon="6.72056">
        <ele>2408.5772168274</ele>
        <time>2021-07-10T13:10:05Z</time>
      </trkpt>
      <trkpt lat="44.11981" lon="6.72055">
        <ele>2406.5771981911</ele>
        <time>2021-07-10T13:10:07Z</time>
      </trkpt>
      <trkpt lat="44.11982" lon="6.72055">
        <ele>2405.577177873</ele>
        <time>2021-07-10T13:10:11Z</time>
      </trkpt>
      <trkpt lat="44.11983" lon="6.72057">
        <ele>2405.5771205389</ele>
        <time>2021-07-10T13:10:13Z</time>
      </trkpt>
      <trkpt lat="44.11983" lon="6.72058">
        <ele>2405.5770884876</ele>
        <time>2021-07-10T13:10:14Z</time>
      </trkpt>
      <trkpt lat="44.11983" lon="6.72059">
        <ele>2404.5770563848</ele>
        <time>2021-07-10T13:10:16Z</time>
      </trkpt>
      <trkpt lat="44.11982" lon="6.7206">
        <ele>2404.5770667396</ele>
        <time>2021-07-10T13:10:17Z</time>
      </trkpt>
      <trkpt lat="44.11982" lon="6.72061">
        <ele>2402.577055587</ele>
        <time>2021-07-10T13:10:19Z</time>
      </trkpt>
      <trkpt lat="44.11982" lon="6.72062">
        <ele>2402.577051521</ele>
        <time>2021-07-10T13:10:20Z</time>
      </trkpt>
      <trkpt lat="44.11981" lon="6.72063">
        <ele>2401.577064206</ele>
        <time>2021-07-10T13:10:23Z</time>
      </trkpt>
      <trkpt lat="44.1198" lon="6.72064">
        <ele>2400.5770778428</ele>
        <time>2021-07-10T13:10:24Z</time>
      </trkpt>
      <trkpt lat="44.11979" lon="6.72065">
        <ele>2398.5770868828</ele>
        <time>2021-07-10T13:10:26Z</time>
      </trkpt>
      <trkpt lat="44.11979" lon="6.72066">
        <ele>2398.5770665011</ele>
        <time>2021-07-10T13:10:27Z</time>
      </trkpt>
      <trkpt lat="44.1198" lon="6.72066">
        <ele>2398.5770402007</ele>
        <time>2021-07-10T13:10:28Z</time>
      </trkpt>
      <trkpt lat="44.1198" lon="6.72067">
        <ele>2398.5769993256</ele>
        <time>2021-07-10T13:10:29Z</time>
      </trkpt>
      <trkpt lat="44.11981" lon="6.72068">
        <ele>2398.5769741396</ele>
        <time>2021-07-10T13:10:30Z</time>
      </trkpt>
      <trkpt lat="44.11982" lon="6.72068">
        <ele>2398.5769543026</ele>
        <time>2021-07-10T13:10:31Z</time>
      </trkpt>
      <trkpt lat="44.11982" lon="6.72068">
        <ele>2398.5769254497</ele>
        <time>2021-07-10T13:10:37Z</time>
      </trkpt>
      <trkpt lat="44.11983" lon="6.7207">
        <ele>2398.5768541496</ele>
        <time>2021-07-10T13:10:38Z</time>
      </trkpt>
      <trkpt lat="44.11984" lon="6.7207">
        <ele>2398.5768254047</ele>
        <time>2021-07-10T13:10:39Z</time>
      </trkpt>
      <trkpt lat="44.11985" lon="6.72071">
        <ele>2397.5767895493</ele>
        <time>2021-07-10T13:10:43Z</time>
      </trkpt>
      <trkpt lat="44.11986" lon="6.7207">
        <ele>2396.5767552421</ele>
        <time>2021-07-10T13:10:44Z</time>
      </trkpt>
      <trkpt lat="44.11986" lon="6.72071">
        <ele>2395.5767411988</ele>
        <time>2021-07-10T13:10:51Z</time>
      </trkpt>
      <trkpt lat="44.11987" lon="6.72072">
        <ele>2394.5766693327</ele>
        <time>2021-07-10T13:10:53Z</time>
      </trkpt>
      <trkpt lat="44.11988" lon="6.72072">
        <ele>2395.5766305456</ele>
        <time>2021-07-10T13:10:54Z</time>
      </trkpt>
      <trkpt lat="44.11989" lon="6.72072">
        <ele>2395.5766008978</ele>
        <time>2021-07-10T13:10:55Z</time>
      </trkpt>
      <trkpt lat="44.11989" lon="6.72073">
        <ele>2395.5765856947</ele>
        <time>2021-07-10T13:10:57Z</time>
      </trkpt>
      <trkpt lat="44.1199" lon="6.72074">
        <ele>2394.5765516145</ele>
        <time>2021-07-10T13:10:58Z</time>
      </trkpt>
      <trkpt lat="44.1199" lon="6.72074">
        <ele>2394.57652582</ele>
        <time>2021-07-10T13:10:59Z</time>
      </trkpt>
      <trkpt lat="44.11991" lon="6.72075">
        <ele>2394.5764865129</ele>
        <time>2021-07-10T13:11:02Z</time>
      </trkpt>
      <trkpt lat="44.11991" lon="6.72076">
        <ele>2393.5764505536</ele>
        <time>2021-07-10T13:11:03Z</time>
      </trkpt>
      <trkpt lat="44.11992" lon="6.72077">
        <ele>2392.5764196374</ele>
        <time>2021-07-10T13:11:04Z</time>
      </trkpt>
      <trkpt lat="44.11992" lon="6.72078">
        <ele>2391.5763888608</ele>
        <time>2021-07-10T13:11:09Z</time>
      </trkpt>
      <trkpt lat="44.11992" lon="6.72079">
        <ele>2390.5763659061</ele>
        <time>2021-07-10T13:11:10Z</time>
      </trkpt>
      <trkpt lat="44.11992" lon="6.72079">
        <ele>2391.5763852849</ele>
        <time>2021-07-10T13:11:14Z</time>
      </trkpt>
      <trkpt lat="44.11993" lon="6.7208">
        <ele>2390.5763359851</ele>
        <time>2021-07-10T13:11:16Z</time>
      </trkpt>
      <trkpt lat="44.11993" lon="6.7208">
        <ele>2390.5763213117</ele>
        <time>2021-07-10T13:11:18Z</time>
      </trkpt>
      <trkpt lat="44.11994" lon="6.72081">
        <ele>2389.5762696462</ele>
        <time>2021-07-10T13:11:19Z</time>
      </trkpt>
      <trkpt lat="44.11994" lon="6.72082">
        <ele>2388.5762335389</ele>
        <time>2021-07-10T13:11:23Z</time>
      </trkpt>
      <trkpt lat="44.11995" lon="6.72082">
        <ele>2387.5762083507</ele>
        <time>2021-07-10T13:11:24Z</time>
      </trkpt>
      <trkpt lat="44.11994" lon="6.72083">
        <ele>2387.5762044016</ele>
        <time>2021-07-10T13:11:25Z</time>
      </trkpt>
      <trkpt lat="44.11995" lon="6.72084">
        <ele>2386.5761708901</ele>
        <time>2021-07-10T13:11:28Z</time>
      </trkpt>
      <trkpt lat="44.11995" lon="6.72085">
        <ele>2386.5761477136</ele>
        <time>2021-07-10T13:11:29Z</time>
      </trkpt>
      <trkpt lat="44.11995" lon="6.72086">
        <ele>2385.576144223</ele>
        <time>2021-07-10T13:11:32Z</time>
      </trkpt>
      <trkpt lat="44.11995" lon="6.72087">
        <ele>2384.5761322379</ele>
        <time>2021-07-10T13:11:33Z</time>
      </trkpt>
      <trkpt lat="44.11995" lon="6.72087">
        <ele>2384.5761146092</ele>
        <time>2021-07-10T13:11:34Z</time>
      </trkpt>
      <trkpt lat="44.11995" lon="6.72088">
        <ele>2384.5760882858</ele>
        <time>2021-07-10T13:11:35Z</time>
      </trkpt>
      <trkpt lat="44.11995" lon="6.72089">
        <ele>2384.5760522368</ele>
        <time>2021-07-10T13:11:38Z</time>
      </trkpt>
      <trkpt lat="44.11997" lon="6.72089">
        <ele>2383.5760037406</ele>
        <time>2021-07-10T13:11:39Z</time>
      </trkpt>
      <trkpt lat="44.11997" lon="6.7209">
        <ele>2383.575974627</ele>
        <time>2021-07-10T13:11:40Z</time>
      </trkpt>
      <trkpt lat="44.11998" lon="6.72092">
        <ele>2384.5759187337</ele>
        <time>2021-07-10T13:11:42Z</time>
      </trkpt>
      <trkpt lat="44.11998" lon="6.72092">
        <ele>2383.5759159651</ele>
        <time>2021-07-10T13:11:45Z</time>
      </trkpt>
      <trkpt lat="44.11999" lon="6.72093">
        <ele>2383.5758706703</ele>
        <time>2021-07-10T13:11:47Z</time>
      </trkpt>
      <trkpt lat="44.11999" lon="6.72093">
        <ele>2383.5758497896</ele>
        <time>2021-07-10T13:11:48Z</time>
      </trkpt>
      <trkpt lat="44.11998" lon="6.72094">
        <ele>2383.575857818</ele>
        <time>2021-07-10T13:11:49Z</time>
      </trkpt>
      <trkpt lat="44.11999" lon="6.72095">
        <ele>2380.575829011</ele>
        <time>2021-07-10T13:11:53Z</time>
      </trkpt>
      <trkpt lat="44.11999" lon="6.72095">
        <ele>2380.5758036408</ele>
        <time>2021-07-10T13:11:54Z</time>
      </trkpt>
      <trkpt lat="44.12" lon="6.72096">
        <ele>2380.5757598548</ele>
        <time>2021-07-10T13:11:55Z</time>
      </trkpt>
      <trkpt lat="44.12001" lon="6.72096">
        <ele>2380.5757344038</ele>
        <time>2021-07-10T13:11:56Z</time>
      </trkpt>
      <trkpt lat="44.12001" lon="6.72098">
        <ele>2378.5756684697</ele>
        <time>2021-07-10T13:11:58Z</time>
      </trkpt>
      <trkpt lat="44.12001" lon="6.72099">
        <ele>2377.5756552776</ele>
        <time>2021-07-10T13:11:59Z</time>
      </trkpt>
      <trkpt lat="44.12001" lon="6.721">
        <ele>2377.5756270595</ele>
        <time>2021-07-10T13:12:01Z</time>
      </trkpt>
      <trkpt lat="44.12002" lon="6.72101">
        <ele>2378.5756084282</ele>
        <time>2021-07-10T13:12:07Z</time>
      </trkpt>
      <trkpt lat="44.12002" lon="6.72103">
        <ele>2377.5755552392</ele>
        <time>2021-07-10T13:12:08Z</time>
      </trkpt>
      <trkpt lat="44.12002" lon="6.72104">
        <ele>2377.5755266803</ele>
        <time>2021-07-10T13:12:09Z</time>
      </trkpt>
      <trkpt lat="44.12003" lon="6.72104">
        <ele>2377.5754941456</ele>
        <time>2021-07-10T13:12:12Z</time>
      </trkpt>
      <trkpt lat="44.12003" lon="6.72105">
        <ele>2377.5754999695</ele>
        <time>2021-07-10T13:12:14Z</time>
      </trkpt>
      <trkpt lat="44.12002" lon="6.72105">
        <ele>2377.5755059437</ele>
        <time>2021-07-10T13:12:15Z</time>
      </trkpt>
      <trkpt lat="44.12002" lon="6.72106">
        <ele>2377.5755062766</ele>
        <time>2021-07-10T13:12:16Z</time>
      </trkpt>
      <trkpt lat="44.12001" lon="6.72106">
        <ele>2377.5755195151</ele>
        <time>2021-07-10T13:12:23Z</time>
      </trkpt>
      <trkpt lat="44.12003" lon="6.72107">
        <ele>2375.5754570381</ele>
        <time>2021-07-10T13:12:24Z</time>
      </trkpt>
      <trkpt lat="44.12003" lon="6.72108">
        <ele>2375.5754205428</ele>
        <time>2021-07-10T13:12:26Z</time>
      </trkpt>
      <trkpt lat="44.12003" lon="6.72108">
        <ele>2375.5754049298</ele>
        <time>2021-07-10T13:12:29Z</time>
      </trkpt>
      <trkpt lat="44.12003" lon="6.72111">
        <ele>2374.5753570858</ele>
        <time>2021-07-10T13:12:30Z</time>
      </trkpt>
      <trkpt lat="44.12003" lon="6.72111">
        <ele>2373.5753487531</ele>
        <time>2021-07-10T13:12:32Z</time>
      </trkpt>
      <trkpt lat="44.12004" lon="6.72112">
        <ele>2373.57531241</ele>
        <time>2021-07-10T13:12:33Z</time>
      </trkpt>
      <trkpt lat="44.12004" lon="6.72112">
        <ele>2372.5752976926</ele>
        <time>2021-07-10T13:12:35Z</time>
      </trkpt>
      <trkpt lat="44.12005" lon="6.72113">
        <ele>2371.5752495655</ele>
        <time>2021-07-10T13:12:36Z</time>
      </trkpt>
      <trkpt lat="44.12005" lon="6.72114">
        <ele>2371.5752250004</ele>
        <time>2021-07-10T13:12:41Z</time>
      </trkpt>
      <trkpt lat="44.12007" lon="6.72115">
        <ele>2370.5751593233</ele>
        <time>2021-07-10T13:12:42Z</time>
      </trkpt>
      <trkpt lat="44.12007" lon="6.72116">
        <ele>2370.5751366115</ele>
        <time>2021-07-10T13:12:43Z</time>
      </trkpt>
      <trkpt lat="44.12007" lon="6.72117">
        <ele>2370.5751114499</ele>
        <time>2021-07-10T13:12:44Z</time>
      </trkpt>
      <trkpt lat="44.12008" lon="6.72118">
        <ele>2369.5750750034</ele>
        <time>2021-07-10T13:12:47Z</time>
      </trkpt>
      <trkpt lat="44.12008" lon="6.72118">
        <ele>2369.575065566</ele>
        <time>2021-07-10T13:12:48Z</time>
      </trkpt>
      <trkpt lat="44.12008" lon="6.72119">
        <ele>2367.5750515263</ele>
        <time>2021-07-10T13:12:51Z</time>
      </trkpt>
      <trkpt lat="44.12006" lon="6.72119">
        <ele>2367.5750805891</ele>
        <time>2021-07-10T13:12:53Z</time>
      </trkpt>
      <trkpt lat="44.12006" lon="6.7212">
        <ele>2366.5750874439</ele>
        <time>2021-07-10T13:12:55Z</time>
      </trkpt>
      <trkpt lat="44.12006" lon="6.72121">
        <ele>2367.5750578419</ele>
        <time>2021-07-10T13:13:00Z</time>
      </trkpt>
      <trkpt lat="44.12005" lon="6.72123">
        <ele>2366.5750579171</ele>
        <time>2021-07-10T13:13:01Z</time>
      </trkpt>
      <trkpt lat="44.12005" lon="6.72123">
        <ele>2366.5750579171</ele>
        <time>2021-07-10T13:13:03Z</time>
      </trkpt>
      <trkpt lat="44.12005" lon="6.72125">
        <ele>2366.5750502172</ele>
        <time>2021-07-10T13:13:04Z</time>
      </trkpt>
      <trkpt lat="44.12004" lon="6.72125">
        <ele>2367.5750572307</ele>
        <time>2021-07-10T13:13:05Z</time>
      </trkpt>
      <trkpt lat="44.12004" lon="6.72126">
        <ele>2367.5750574524</ele>
        <time>2021-07-10T13:13:06Z</time>
      </trkpt>
      <trkpt lat="44.12003" lon="6.72126">
        <ele>2367.5750535733</ele>
        <time>2021-07-10T13:13:12Z</time>
      </trkpt>
      <trkpt lat="44.12003" lon="6.72126">
        <ele>2365.5750997831</ele>
        <time>2021-07-10T13:13:13Z</time>
      </trkpt>
      <trkpt lat="44.12002" lon="6.72126">
        <ele>2363.5751117376</ele>
        <time>2021-07-10T13:13:18Z</time>
      </trkpt>
      <trkpt lat="44.12003" lon="6.72127">
        <ele>2362.5750603558</ele>
        <time>2021-07-10T13:13:19Z</time>
      </trkpt>
      <trkpt lat="44.12002" lon="6.72127">
        <ele>2361.5750773224</ele>
        <time>2021-07-10T13:13:21Z</time>
      </trkpt>
      <trkpt lat="44.12001" lon="6.72128">
        <ele>2361.575095595</ele>
        <time>2021-07-10T13:13:22Z</time>
      </trkpt>
      <trkpt lat="44.12001" lon="6.72129">
        <ele>2360.5750978791</ele>
        <time>2021-07-10T13:13:25Z</time>
      </trkpt>
      <trkpt lat="44.12" lon="6.7213">
        <ele>2359.5751024123</ele>
        <time>2021-07-10T13:13:26Z</time>
      </trkpt>
      <trkpt lat="44.12" lon="6.72131">
        <ele>2357.575084908</ele>
        <time>2021-07-10T13:13:35Z</time>
      </trkpt>
      <trkpt lat="44.12" lon="6.72132">
        <ele>2356.5750700423</ele>
        <time>2021-07-10T13:13:36Z</time>
      </trkpt>
      <trkpt lat="44.11999" lon="6.72133">
        <ele>2355.5750864583</ele>
        <time>2021-07-10T13:13:38Z</time>
      </trkpt>
      <trkpt lat="44.11999" lon="6.72133">
        <ele>2355.5750873622</ele>
        <time>2021-07-10T13:13:41Z</time>
      </trkpt>
      <trkpt lat="44.11998" lon="6.72134">
        <ele>2354.5751189673</ele>
        <time>2021-07-10T13:13:42Z</time>
      </trkpt>
      <trkpt lat="44.11998" lon="6.72134">
        <ele>2354.5750894581</ele>
        <time>2021-07-10T13:13:44Z</time>
      </trkpt>
      <trkpt lat="44.11998" lon="6.72135">
        <ele>2353.5750895837</ele>
        <time>2021-07-10T13:13:46Z</time>
      </trkpt>
      <trkpt lat="44.11998" lon="6.72136">
        <ele>2353.5750782845</ele>
        <time>2021-07-10T13:13:49Z</time>
      </trkpt>
      <trkpt lat="44.11998" lon="6.72137">
        <ele>2352.5750389326</ele>
        <time>2021-07-10T13:13:50Z</time>
      </trkpt>
      <trkpt lat="44.11997" lon="6.72138">
        <ele>2351.5750660161</ele>
        <time>2021-07-10T13:13:52Z</time>
      </trkpt>
      <trkpt lat="44.11997" lon="6.72138">
        <ele>2352.5750677717</ele>
        <time>2021-07-10T13:13:57Z</time>
      </trkpt>
      <trkpt lat="44.11997" lon="6.72139">
        <ele>2352.5750360681</ele>
        <time>2021-07-10T13:14:01Z</time>
      </trkpt>
      <trkpt lat="44.11997" lon="6.72139">
        <ele>2352.5750182029</ele>
        <time>2021-07-10T13:14:05Z</time>
      </trkpt>
      <trkpt lat="44.11998" lon="6.7214">
        <ele>2351.5749770537</ele>
        <time>2021-07-10T13:14:07Z</time>
      </trkpt>
      <trkpt lat="44.11999" lon="6.7214">
        <ele>2351.574939696</ele>
        <time>2021-07-10T13:14:09Z</time>
      </trkpt>
      <trkpt lat="44.12" lon="6.7214">
        <ele>2350.5749115755</ele>
        <time>2021-07-10T13:14:12Z</time>
      </trkpt>
      <trkpt lat="44.12001" lon="6.72142">
        <ele>2350.5748554625</ele>
        <time>2021-07-10T13:14:14Z</time>
      </trkpt>
      <trkpt lat="44.12001" lon="6.72143">
        <ele>2350.5748317846</ele>
        <time>2021-07-10T13:14:19Z</time>
      </trkpt>
      <trkpt lat="44.12" lon="6.72145">
        <ele>2349.5748099223</ele>
        <time>2021-07-10T13:14:20Z</time>
      </trkpt>
      <trkpt lat="44.12" lon="6.72146">
        <ele>2349.5748168838</ele>
        <time>2021-07-10T13:14:21Z</time>
      </trkpt>
      <trkpt lat="44.12" lon="6.72146">
        <ele>2349.5748134645</ele>
        <time>2021-07-10T13:14:22Z</time>
      </trkpt>
      <trkpt lat="44.11999" lon="6.72147">
        <ele>2349.5748091404</ele>
        <time>2021-07-10T13:14:27Z</time>
      </trkpt>
      <trkpt lat="44.12" lon="6.72147">
        <ele>2347.5747796235</ele>
        <time>2021-07-10T13:14:28Z</time>
      </trkpt>
      <trkpt lat="44.12001" lon="6.72148">
        <ele>2345.5747430869</ele>
        <time>2021-07-10T13:14:36Z</time>
      </trkpt>
      <trkpt lat="44.12001" lon="6.72148">
        <ele>2346.5747116118</ele>
        <time>2021-07-10T13:14:43Z</time>
      </trkpt>
      <trkpt lat="44.12002" lon="6.72149">
        <ele>2344.5746761001</ele>
        <time>2021-07-10T13:14:44Z</time>
      </trkpt>
      <trkpt lat="44.12002" lon="6.7215">
        <ele>2344.5746632718</ele>
        <time>2021-07-10T13:14:45Z</time>
      </trkpt>
      <trkpt lat="44.12002" lon="6.7215">
        <ele>2344.574647201</ele>
        <time>2021-07-10T13:14:46Z</time>
      </trkpt>
      <trkpt lat="44.12002" lon="6.72151">
        <ele>2344.5746435708</ele>
        <time>2021-07-10T13:14:48Z</time>
      </trkpt>
      <trkpt lat="44.12002" lon="6.72152">
        <ele>2342.5746281684</ele>
        <time>2021-07-10T13:14:50Z</time>
      </trkpt>
      <trkpt lat="44.12002" lon="6.72153">
        <ele>2341.5746165791</ele>
        <time>2021-07-10T13:14:51Z</time>
      </trkpt>
      <trkpt lat="44.12001" lon="6.72154">
        <ele>2341.5746209714</ele>
        <time>2021-07-10T13:14:52Z</time>
      </trkpt>
      <trkpt lat="44.12002" lon="6.72154">
        <ele>2339.5745872738</ele>
        <time>2021-07-10T13:14:59Z</time>
      </trkpt>
      <trkpt lat="44.12002" lon="6.72154">
        <ele>2338.5745729376</ele>
        <time>2021-07-10T13:15:00Z</time>
      </trkpt>
      <trkpt lat="44.12002" lon="6.72155">
        <ele>2338.5745457375</ele>
        <time>2021-07-10T13:15:02Z</time>
      </trkpt>
      <trkpt lat="44.12003" lon="6.72156">
        <ele>2338.5744949751</ele>
        <time>2021-07-10T13:15:03Z</time>
      </trkpt>
      <trkpt lat="44.12004" lon="6.72157">
        <ele>2338.574460838</ele>
        <time>2021-07-10T13:15:06Z</time>
      </trkpt>
      <trkpt lat="44.12004" lon="6.72157">
        <ele>2337.5744565406</ele>
        <time>2021-07-10T13:15:11Z</time>
      </trkpt>
      <trkpt lat="44.12003" lon="6.72159">
        <ele>2336.5744237628</ele>
        <time>2021-07-10T13:15:13Z</time>
      </trkpt>
      <trkpt lat="44.12003" lon="6.72159">
        <ele>2336.5744237628</ele>
        <time>2021-07-10T13:15:15Z</time>
      </trkpt>
      <trkpt lat="44.12003" lon="6.72161">
        <ele>2334.5743805462</ele>
        <time>2021-07-10T13:15:17Z</time>
      </trkpt>
      <trkpt lat="44.12003" lon="6.72162">
        <ele>2333.5743716678</ele>
        <time>2021-07-10T13:15:20Z</time>
      </trkpt>
      <trkpt lat="44.12003" lon="6.72162">
        <ele>2333.5743991727</ele>
        <time>2021-07-10T13:15:25Z</time>
      </trkpt>
      <trkpt lat="44.12002" lon="6.72162">
        <ele>2332.5744124973</ele>
        <time>2021-07-10T13:15:28Z</time>
      </trkpt>
      <trkpt lat="44.12003" lon="6.72163">
        <ele>2332.5743675094</ele>
        <time>2021-07-10T13:15:29Z</time>
      </trkpt>
      <trkpt lat="44.12004" lon="6.72163">
        <ele>2332.5743321647</ele>
        <time>2021-07-10T13:15:37Z</time>
      </trkpt>
      <trkpt lat="44.12004" lon="6.72164">
        <ele>2331.5743155335</ele>
        <time>2021-07-10T13:15:39Z</time>
      </trkpt>
      <trkpt lat="44.12005" lon="6.72164">
        <ele>2330.5742887075</ele>
        <time>2021-07-10T13:15:40Z</time>
      </trkpt>
      <trkpt lat="44.12005" lon="6.72165">
        <ele>2330.5742501278</ele>
        <time>2021-07-10T13:15:42Z</time>
      </trkpt>
      <trkpt lat="44.12006" lon="6.72165">
        <ele>2331.5742229912</ele>
        <time>2021-07-10T13:15:45Z</time>
      </trkpt>
      <trkpt lat="44.12007" lon="6.72165">
        <ele>2330.5741810904</ele>
        <time>2021-07-10T13:15:47Z</time>
      </trkpt>
      <trkpt lat="44.12008" lon="6.72166">
        <ele>2331.5741387165</ele>
        <time>2021-07-10T13:15:49Z</time>
      </trkpt>
      <trkpt lat="44.12008" lon="6.72167">
        <ele>2331.5741305405</ele>
        <time>2021-07-10T13:15:51Z</time>
      </trkpt>
      <trkpt lat="44.12009" lon="6.72168">
        <ele>2331.5740614069</ele>
        <time>2021-07-10T13:15:53Z</time>
      </trkpt>
      <trkpt lat="44.1201" lon="6.72168">
        <ele>2331.5740334863</ele>
        <time>2021-07-10T13:15:55Z</time>
      </trkpt>
      <trkpt lat="44.1201" lon="6.72168">
        <ele>2332.5740028256</ele>
        <time>2021-07-10T13:15:59Z</time>
      </trkpt>
      <trkpt lat="44.12012" lon="6.7217">
        <ele>2330.573933869</ele>
        <time>2021-07-10T13:16:00Z</time>
      </trkpt>
      <trkpt lat="44.12012" lon="6.7217">
        <ele>2330.5739140843</ele>
        <time>2021-07-10T13:16:01Z</time>
      </trkpt>
      <trkpt lat="44.12013" lon="6.72171">
        <ele>2329.5738658738</ele>
        <time>2021-07-10T13:16:03Z</time>
      </trkpt>
      <trkpt lat="44.12013" lon="6.72172">
        <ele>2329.5738352421</ele>
        <time>2021-07-10T13:16:05Z</time>
      </trkpt>
      <trkpt lat="44.12012" lon="6.72172">
        <ele>2328.5738625489</ele>
        <time>2021-07-10T13:16:09Z</time>
      </trkpt>
      <trkpt lat="44.12013" lon="6.72171">
        <ele>2328.5738361507</ele>
        <time>2021-07-10T13:16:10Z</time>
      </trkpt>
      <trkpt lat="44.12014" lon="6.72172">
        <ele>2328.5737915202</ele>
        <time>2021-07-10T13:16:11Z</time>
      </trkpt>
      <trkpt lat="44.12015" lon="6.72174">
        <ele>2328.573731823</ele>
        <time>2021-07-10T13:16:13Z</time>
      </trkpt>
      <trkpt lat="44.12015" lon="6.72175">
        <ele>2328.5736970478</ele>
        <time>2021-07-10T13:16:15Z</time>
      </trkpt>
      <trkpt lat="44.12015" lon="6.72176">
        <ele>2328.573689644</ele>
        <time>2021-07-10T13:16:16Z</time>
      </trkpt>
      <trkpt lat="44.12015" lon="6.72177">
        <ele>2328.5736894057</ele>
        <time>2021-07-10T13:16:18Z</time>
      </trkpt>
      <trkpt lat="44.12015" lon="6.72178">
        <ele>2328.5736750274</ele>
        <time>2021-07-10T13:16:19Z</time>
      </trkpt>
      <trkpt lat="44.12015" lon="6.72178">
        <ele>2328.5736572418</ele>
        <time>2021-07-10T13:16:20Z</time>
      </trkpt>
      <trkpt lat="44.12015" lon="6.7218">
        <ele>2328.5736397033</ele>
        <time>2021-07-10T13:16:23Z</time>
      </trkpt>
      <trkpt lat="44.12014" lon="6.72181">
        <ele>2327.5736429381</ele>
        <time>2021-07-10T13:16:24Z</time>
      </trkpt>
      <trkpt lat="44.12014" lon="6.72181">
        <ele>2327.5736211864</ele>
        <time>2021-07-10T13:16:25Z</time>
      </trkpt>
      <trkpt lat="44.12015" lon="6.72182">
        <ele>2327.573593943</ele>
        <time>2021-07-10T13:16:26Z</time>
      </trkpt>
      <trkpt lat="44.12015" lon="6.72183">
        <ele>2326.573539888</ele>
        <time>2021-07-10T13:16:28Z</time>
      </trkpt>
      <trkpt lat="44.12016" lon="6.72184">
        <ele>2325.5735255711</ele>
        <time>2021-07-10T13:16:30Z</time>
      </trkpt>
      <trkpt lat="44.12016" lon="6.72184">
        <ele>2325.5734931555</ele>
        <time>2021-07-10T13:16:32Z</time>
      </trkpt>
      <trkpt lat="44.12017" lon="6.72184">
        <ele>2324.573461743</ele>
        <time>2021-07-10T13:16:34Z</time>
      </trkpt>
      <trkpt lat="44.12017" lon="6.72185">
        <ele>2324.5734373708</ele>
        <time>2021-07-10T13:16:36Z</time>
      </trkpt>
      <trkpt lat="44.12017" lon="6.72186">
        <ele>2323.5734116218</ele>
        <time>2021-07-10T13:16:39Z</time>
      </trkpt>
      <trkpt lat="44.12018" lon="6.72187">
        <ele>2323.5733924057</ele>
        <time>2021-07-10T13:16:40Z</time>
      </trkpt>
      <trkpt lat="44.12018" lon="6.72187">
        <ele>2323.5733690607</ele>
        <time>2021-07-10T13:16:41Z</time>
      </trkpt>
      <trkpt lat="44.12018" lon="6.72188">
        <ele>2323.5733479341</ele>
        <time>2021-07-10T13:16:42Z</time>
      </trkpt>
      <trkpt lat="44.12019" lon="6.72188">
        <ele>2323.5733219965</ele>
        <time>2021-07-10T13:16:43Z</time>
      </trkpt>
      <trkpt lat="44.12019" lon="6.72189">
        <ele>2322.5733120279</ele>
        <time>2021-07-10T13:16:44Z</time>
      </trkpt>
      <trkpt lat="44.12018" lon="6.7219">
        <ele>2322.5733011674</ele>
        <time>2021-07-10T13:16:46Z</time>
      </trkpt>
      <trkpt lat="44.12019" lon="6.72191">
        <ele>2319.5732696117</ele>
        <time>2021-07-10T13:16:50Z</time>
      </trkpt>
      <trkpt lat="44.12019" lon="6.72191">
        <ele>2319.5732358343</ele>
        <time>2021-07-10T13:16:52Z</time>
      </trkpt>
      <trkpt lat="44.1202" lon="6.72191">
        <ele>2319.5732271168</ele>
        <time>2021-07-10T13:16:55Z</time>
      </trkpt>
      <trkpt lat="44.12021" lon="6.72192">
        <ele>2317.5731571779</ele>
        <time>2021-07-10T13:16:57Z</time>
      </trkpt>
      <trkpt lat="44.12022" lon="6.72192">
        <ele>2317.5731282839</ele>
        <time>2021-07-10T13:16:58Z</time>
      </trkpt>
      <trkpt lat="44.12023" lon="6.72193">
        <ele>2317.5730951845</ele>
        <time>2021-07-10T13:17:03Z</time>
      </trkpt>
      <trkpt lat="44.12025" lon="6.72193">
        <ele>2316.5730316285</ele>
        <time>2021-07-10T13:17:04Z</time>
      </trkpt>
      <trkpt lat="44.12025" lon="6.72193">
        <ele>2317.57298672</ele>
        <time>2021-07-10T13:17:05Z</time>
      </trkpt>
      <trkpt lat="44.12026" lon="6.72194">
        <ele>2318.5729524875</ele>
        <time>2021-07-10T13:17:06Z</time>
      </trkpt>
      <trkpt lat="44.12026" lon="6.72195">
        <ele>2317.5729387246</ele>
        <time>2021-07-10T13:17:08Z</time>
      </trkpt>
      <trkpt lat="44.12026" lon="6.72196">
        <ele>2316.5729295687</ele>
        <time>2021-07-10T13:17:10Z</time>
      </trkpt>
      <trkpt lat="44.12027" lon="6.72196">
        <ele>2315.5728993434</ele>
        <time>2021-07-10T13:17:12Z</time>
      </trkpt>
      <trkpt lat="44.12028" lon="6.72196">
        <ele>2316.5728473023</ele>
        <time>2021-07-10T13:17:14Z</time>
      </trkpt>
      <trkpt lat="44.12029" lon="6.72195">
        <ele>2316.5728318381</ele>
        <time>2021-07-10T13:17:15Z</time>
      </trkpt>
      <trkpt lat="44.12029" lon="6.72196">
        <ele>2316.5728012597</ele>
        <time>2021-07-10T13:17:16Z</time>
      </trkpt>
      <trkpt lat="44.1203" lon="6.72198">
        <ele>2315.5727362217</ele>
        <time>2021-07-10T13:17:18Z</time>
      </trkpt>
      <trkpt lat="44.1203" lon="6.72198">
        <ele>2315.5727362217</ele>
        <time>2021-07-10T13:17:19Z</time>
      </trkpt>
      <trkpt lat="44.1203" lon="6.72199">
        <ele>2314.5727084222</ele>
        <time>2021-07-10T13:17:20Z</time>
      </trkpt>
      <trkpt lat="44.12031" lon="6.722">
        <ele>2312.5726734625</ele>
        <time>2021-07-10T13:17:25Z</time>
      </trkpt>
      <trkpt lat="44.12031" lon="6.722">
        <ele>2312.5726462544</ele>
        <time>2021-07-10T13:17:26Z</time>
      </trkpt>
      <trkpt lat="44.12032" lon="6.72201">
        <ele>2311.5726145754</ele>
        <time>2021-07-10T13:17:30Z</time>
      </trkpt>
      <trkpt lat="44.12034" lon="6.72202">
        <ele>2311.5725281187</ele>
        <time>2021-07-10T13:17:32Z</time>
      </trkpt>
      <trkpt lat="44.12034" lon="6.72203">
        <ele>2311.5724839394</ele>
        <time>2021-07-10T13:17:34Z</time>
      </trkpt>
      <trkpt lat="44.12035" lon="6.72203">
        <ele>2309.5724492669</ele>
        <time>2021-07-10T13:17:37Z</time>
      </trkpt>
      <trkpt lat="44.12035" lon="6.72204">
        <ele>2309.5724315626</ele>
        <time>2021-07-10T13:17:39Z</time>
      </trkpt>
      <trkpt lat="44.12035" lon="6.72205">
        <ele>2309.5724184502</ele>
        <time>2021-07-10T13:17:40Z</time>
      </trkpt>
      <trkpt lat="44.12036" lon="6.72206">
        <ele>2308.572388094</ele>
        <time>2021-07-10T13:17:41Z</time>
      </trkpt>
      <trkpt lat="44.12036" lon="6.72207">
        <ele>2308.5723629186</ele>
        <time>2021-07-10T13:17:42Z</time>
      </trkpt>
      <trkpt lat="44.12036" lon="6.72208">
        <ele>2307.5723350816</ele>
        <time>2021-07-10T13:17:43Z</time>
      </trkpt>
      <trkpt lat="44.12037" lon="6.72208">
        <ele>2306.5723037195</ele>
        <time>2021-07-10T13:17:45Z</time>
      </trkpt>
      <trkpt lat="44.12037" lon="6.72208">
        <ele>2306.5722800255</ele>
        <time>2021-07-10T13:17:46Z</time>
      </trkpt>
      <trkpt lat="44.12038" lon="6.72209">
        <ele>2306.5722473469</ele>
        <time>2021-07-10T13:17:48Z</time>
      </trkpt>
      <trkpt lat="44.12038" lon="6.72209">
        <ele>2306.5722319302</ele>
        <time>2021-07-10T13:17:51Z</time>
      </trkpt>
      <trkpt lat="44.12039" lon="6.72211">
        <ele>2304.5721853912</ele>
        <time>2021-07-10T13:17:52Z</time>
      </trkpt>
      <trkpt lat="44.12039" lon="6.72211">
        <ele>2303.5721546276</ele>
        <time>2021-07-10T13:17:57Z</time>
      </trkpt>
      <trkpt lat="44.1204" lon="6.72213">
        <ele>2301.5721081898</ele>
        <time>2021-07-10T13:17:59Z</time>
      </trkpt>
      <trkpt lat="44.1204" lon="6.72213">
        <ele>2300.5720805277</ele>
        <time>2021-07-10T13:18:00Z</time>
      </trkpt>
      <trkpt lat="44.12041" lon="6.72214">
        <ele>2299.5720504538</ele>
        <time>2021-07-10T13:18:02Z</time>
      </trkpt>
      <trkpt lat="44.12042" lon="6.72215">
        <ele>2299.5719961203</ele>
        <time>2021-07-10T13:18:04Z</time>
      </trkpt>
      <trkpt lat="44.12042" lon="6.72216">
        <ele>2299.5719632158</ele>
        <time>2021-07-10T13:18:06Z</time>
      </trkpt>
      <trkpt lat="44.12043" lon="6.72217">
        <ele>2300.5719109142</ele>
        <time>2021-07-10T13:18:08Z</time>
      </trkpt>
      <trkpt lat="44.12044" lon="6.72218">
        <ele>2300.5718657594</ele>
        <time>2021-07-10T13:18:09Z</time>
      </trkpt>
      <trkpt lat="44.12044" lon="6.72218">
        <ele>2300.5718447329</ele>
        <time>2021-07-10T13:18:10Z</time>
      </trkpt>
      <trkpt lat="44.12046" lon="6.72218">
        <ele>2299.5717890973</ele>
        <time>2021-07-10T13:18:12Z</time>
      </trkpt>
      <trkpt lat="44.12047" lon="6.72219">
        <ele>2298.5717267395</ele>
        <time>2021-07-10T13:18:14Z</time>
      </trkpt>
      <trkpt lat="44.12047" lon="6.7222">
        <ele>2298.5717122781</ele>
        <time>2021-07-10T13:18:15Z</time>
      </trkpt>
      <trkpt lat="44.12047" lon="6.72221">
        <ele>2298.5716927954</ele>
        <time>2021-07-10T13:18:16Z</time>
      </trkpt>
      <trkpt lat="44.12047" lon="6.72223">
        <ele>2296.5716666253</ele>
        <time>2021-07-10T13:18:18Z</time>
      </trkpt>
      <trkpt lat="44.12047" lon="6.72223">
        <ele>2295.5716531266</ele>
        <time>2021-07-10T13:18:19Z</time>
      </trkpt>
      <trkpt lat="44.12047" lon="6.72224">
        <ele>2294.5716376561</ele>
        <time>2021-07-10T13:18:21Z</time>
      </trkpt>
      <trkpt lat="44.12048" lon="6.72225">
        <ele>2294.5715976207</ele>
        <time>2021-07-10T13:18:23Z</time>
      </trkpt>
      <trkpt lat="44.12048" lon="6.72225">
        <ele>2293.5715581108</ele>
        <time>2021-07-10T13:18:24Z</time>
      </trkpt>
      <trkpt lat="44.12049" lon="6.72226">
        <ele>2293.5715248811</ele>
        <time>2021-07-10T13:18:25Z</time>
      </trkpt>
      <trkpt lat="44.12051" lon="6.72226">
        <ele>2293.5714717477</ele>
        <time>2021-07-10T13:18:27Z</time>
      </trkpt>
      <trkpt lat="44.12052" lon="6.72227">
        <ele>2293.571406803</ele>
        <time>2021-07-10T13:18:29Z</time>
      </trkpt>
      <trkpt lat="44.12052" lon="6.72228">
        <ele>2293.5713767626</ele>
        <time>2021-07-10T13:18:30Z</time>
      </trkpt>
      <trkpt lat="44.12051" lon="6.72229">
        <ele>2292.5713704198</ele>
        <time>2021-07-10T13:18:31Z</time>
      </trkpt>
      <trkpt lat="44.12051" lon="6.72229">
        <ele>2292.5713747643</ele>
        <time>2021-07-10T13:18:32Z</time>
      </trkpt>
      <trkpt lat="44.12052" lon="6.7223">
        <ele>2291.5713264113</ele>
        <time>2021-07-10T13:18:34Z</time>
      </trkpt>
      <trkpt lat="44.12053" lon="6.72231">
        <ele>2291.571296072</ele>
        <time>2021-07-10T13:18:35Z</time>
      </trkpt>
      <trkpt lat="44.12054" lon="6.72232">
        <ele>2290.5712304635</ele>
        <time>2021-07-10T13:18:37Z</time>
      </trkpt>
      <trkpt lat="44.12055" lon="6.72233">
        <ele>2289.5711702803</ele>
        <time>2021-07-10T13:18:39Z</time>
      </trkpt>
      <trkpt lat="44.12055" lon="6.72234">
        <ele>2288.5711346832</ele>
        <time>2021-07-10T13:18:42Z</time>
      </trkpt>
      <trkpt lat="44.12056" lon="6.72234">
        <ele>2287.5711028849</ele>
        <time>2021-07-10T13:18:45Z</time>
      </trkpt>
      <trkpt lat="44.12057" lon="6.72235">
        <ele>2286.5710697045</ele>
        <time>2021-07-10T13:18:47Z</time>
      </trkpt>
      <trkpt lat="44.12058" lon="6.72238">
        <ele>2286.5709639325</ele>
        <time>2021-07-10T13:18:49Z</time>
      </trkpt>
      <trkpt lat="44.12058" lon="6.72238">
        <ele>2285.5709591587</ele>
        <time>2021-07-10T13:18:55Z</time>
      </trkpt>
      <trkpt lat="44.1206" lon="6.72238">
        <ele>2283.5709073082</ele>
        <time>2021-07-10T13:18:56Z</time>
      </trkpt>
      <trkpt lat="44.1206" lon="6.72238">
        <ele>2283.5708925559</ele>
        <time>2021-07-10T13:18:57Z</time>
      </trkpt>
      <trkpt lat="44.12061" lon="6.72238">
        <ele>2282.5708709797</ele>
        <time>2021-07-10T13:18:58Z</time>
      </trkpt>
      <trkpt lat="44.12061" lon="6.72239">
        <ele>2282.5708348887</ele>
        <time>2021-07-10T13:18:59Z</time>
      </trkpt>
      <trkpt lat="44.12061" lon="6.7224">
        <ele>2282.570813393</ele>
        <time>2021-07-10T13:19:00Z</time>
      </trkpt>
      <trkpt lat="44.12061" lon="6.72241">
        <ele>2281.570785211</ele>
        <time>2021-07-10T13:19:02Z</time>
      </trkpt>
      <trkpt lat="44.12062" lon="6.72241">
        <ele>2281.5707619384</ele>
        <time>2021-07-10T13:19:03Z</time>
      </trkpt>
      <trkpt lat="44.12062" lon="6.72242">
        <ele>2282.5707364613</ele>
        <time>2021-07-10T13:19:04Z</time>
      </trkpt>
      <trkpt lat="44.12063" lon="6.72242">
        <ele>2281.5707113979</ele>
        <time>2021-07-10T13:19:05Z</time>
      </trkpt>
      <trkpt lat="44.12063" lon="6.72243">
        <ele>2281.5706837838</ele>
        <time>2021-07-10T13:19:06Z</time>
      </trkpt>
      <trkpt lat="44.12064" lon="6.72244">
        <ele>2280.5706459227</ele>
        <time>2021-07-10T13:19:07Z</time>
      </trkpt>
      <trkpt lat="44.12064" lon="6.72245">
        <ele>2279.5706042021</ele>
        <time>2021-07-10T13:19:09Z</time>
      </trkpt>
      <trkpt lat="44.12064" lon="6.72245">
        <ele>2279.5706042021</ele>
        <time>2021-07-10T13:19:10Z</time>
      </trkpt>
      <trkpt lat="44.12065" lon="6.72246">
        <ele>2279.5705582865</ele>
        <time>2021-07-10T13:19:11Z</time>
      </trkpt>
      <trkpt lat="44.12065" lon="6.72248">
        <ele>2278.570522924</ele>
        <time>2021-07-10T13:19:13Z</time>
      </trkpt>
      <trkpt lat="44.12065" lon="6.72248">
        <ele>2278.5705325006</ele>
        <time>2021-07-10T13:19:14Z</time>
      </trkpt>
      <trkpt lat="44.12065" lon="6.72249">
        <ele>2276.5705018299</ele>
        <time>2021-07-10T13:19:17Z</time>
      </trkpt>
      <trkpt lat="44.12067" lon="6.7225">
        <ele>2276.5704254675</ele>
        <time>2021-07-10T13:19:19Z</time>
      </trkpt>
      <trkpt lat="44.12067" lon="6.72252">
        <ele>2275.570386258</ele>
        <time>2021-07-10T13:19:20Z</time>
      </trkpt>
      <trkpt lat="44.12067" lon="6.72253">
        <ele>2275.5703556512</ele>
        <time>2021-07-10T13:19:21Z</time>
      </trkpt>
      <trkpt lat="44.12067" lon="6.72255">
        <ele>2275.5703074393</ele>
        <time>2021-07-10T13:19:23Z</time>
      </trkpt>
      <trkpt lat="44.12068" lon="6.72256">
        <ele>2274.5702778456</ele>
        <time>2021-07-10T13:19:24Z</time>
      </trkpt>
      <trkpt lat="44.12068" lon="6.72256">
        <ele>2274.5702700958</ele>
        <time>2021-07-10T13:19:25Z</time>
      </trkpt>
      <trkpt lat="44.12068" lon="6.72257">
        <ele>2274.5702363029</ele>
        <time>2021-07-10T13:19:27Z</time>
      </trkpt>
      <trkpt lat="44.12069" lon="6.72256">
        <ele>2273.5702167586</ele>
        <time>2021-07-10T13:19:40Z</time>
      </trkpt>
      <trkpt lat="44.1207" lon="6.72257">
        <ele>2271.5701760607</ele>
        <time>2021-07-10T13:19:41Z</time>
      </trkpt>
      <trkpt lat="44.1207" lon="6.72257">
        <ele>2268.5701609823</ele>
        <time>2021-07-10T13:20:07Z</time>
      </trkpt>
      <trkpt lat="44.12071" lon="6.72258">
        <ele>2267.5701308834</ele>
        <time>2021-07-10T13:20:08Z</time>
      </trkpt>
      <trkpt lat="44.12072" lon="6.72258">
        <ele>2266.5700970113</ele>
        <time>2021-07-10T13:20:09Z</time>
      </trkpt>
      <trkpt lat="44.12072" lon="6.72259">
        <ele>2267.5700676694</ele>
        <time>2021-07-10T13:20:10Z</time>
      </trkpt>
      <trkpt lat="44.12072" lon="6.7226">
        <ele>2266.5700337733</ele>
        <time>2021-07-10T13:20:15Z</time>
      </trkpt>
      <trkpt lat="44.12074" lon="6.7226">
        <ele>2265.5699708369</ele>
        <time>2021-07-10T13:20:16Z</time>
      </trkpt>
      <trkpt lat="44.12075" lon="6.72261">
        <ele>2265.5699413292</ele>
        <time>2021-07-10T13:20:17Z</time>
      </trkpt>
      <trkpt lat="44.12075" lon="6.72261">
        <ele>2264.569916279</ele>
        <time>2021-07-10T13:20:18Z</time>
      </trkpt>
      <trkpt lat="44.12075" lon="6.72262">
        <ele>2264.5698892412</ele>
        <time>2021-07-10T13:20:21Z</time>
      </trkpt>
      <trkpt lat="44.12076" lon="6.72262">
        <ele>2264.5698492208</ele>
        <time>2021-07-10T13:20:23Z</time>
      </trkpt>
      <trkpt lat="44.12076" lon="6.72263">
        <ele>2264.5698347236</ele>
        <time>2021-07-10T13:20:44Z</time>
      </trkpt>
      <trkpt lat="44.12077" lon="6.72264">
        <ele>2263.5698149759</ele>
        <time>2021-07-10T13:20:45Z</time>
      </trkpt>
      <trkpt lat="44.12077" lon="6.72265">
        <ele>2262.5697766735</ele>
        <time>2021-07-10T13:20:46Z</time>
      </trkpt>
      <trkpt lat="44.12077" lon="6.72266">
        <ele>2262.5697355601</ele>
        <time>2021-07-10T13:20:48Z</time>
      </trkpt>
      <trkpt lat="44.12078" lon="6.72267">
        <ele>2262.5697053479</ele>
        <time>2021-07-10T13:20:49Z</time>
      </trkpt>
      <trkpt lat="44.12078" lon="6.72268">
        <ele>2262.5696701823</ele>
        <time>2021-07-10T13:20:50Z</time>
      </trkpt>
      <trkpt lat="44.12079" lon="6.72269">
        <ele>2262.5696094577</ele>
        <time>2021-07-10T13:20:52Z</time>
      </trkpt>
      <trkpt lat="44.12079" lon="6.72269">
        <ele>2262.5696094577</ele>
        <time>2021-07-10T13:20:54Z</time>
      </trkpt>
      <trkpt lat="44.1208" lon="6.7227">
        <ele>2261.5695611817</ele>
        <time>2021-07-10T13:20:55Z</time>
      </trkpt>
      <trkpt lat="44.1208" lon="6.72272">
        <ele>2261.5695225612</ele>
        <time>2021-07-10T13:20:57Z</time>
      </trkpt>
      <trkpt lat="44.12081" lon="6.72272">
        <ele>2260.56949803</ele>
        <time>2021-07-10T13:20:59Z</time>
      </trkpt>
      <trkpt lat="44.12082" lon="6.72272">
        <ele>2260.5694677878</ele>
        <time>2021-07-10T13:21:00Z</time>
      </trkpt>
      <trkpt lat="44.12083" lon="6.72272">
        <ele>2260.5694314062</ele>
        <time>2021-07-10T13:21:02Z</time>
      </trkpt>
      <trkpt lat="44.12083" lon="6.72273">
        <ele>2258.5693963555</ele>
        <time>2021-07-10T13:21:05Z</time>
      </trkpt>
      <trkpt lat="44.12083" lon="6.72274">
        <ele>2258.5693704552</ele>
        <time>2021-07-10T13:21:06Z</time>
      </trkpt>
      <trkpt lat="44.12083" lon="6.72275">
        <ele>2257.5693475878</ele>
        <time>2021-07-10T13:21:07Z</time>
      </trkpt>
      <trkpt lat="44.12084" lon="6.72276">
        <ele>2257.5693144502</ele>
        <time>2021-07-10T13:21:08Z</time>
      </trkpt>
      <trkpt lat="44.12084" lon="6.72277">
        <ele>2256.5692810732</ele>
        <time>2021-07-10T13:21:09Z</time>
      </trkpt>
      <trkpt lat="44.12084" lon="6.72278">
        <ele>2256.5692613128</ele>
        <time>2021-07-10T13:21:10Z</time>
      </trkpt>
      <trkpt lat="44.12085" lon="6.72278">
        <ele>2256.5692408344</ele>
        <time>2021-07-10T13:21:11Z</time>
      </trkpt>
      <trkpt lat="44.12085" lon="6.72278">
        <ele>2256.5692336823</ele>
        <time>2021-07-10T13:21:12Z</time>
      </trkpt>
      <trkpt lat="44.12086" lon="6.72278">
        <ele>2256.569204067</ele>
        <time>2021-07-10T13:21:13Z</time>
      </trkpt>
      <trkpt lat="44.12086" lon="6.72278">
        <ele>2256.5691799618</ele>
        <time>2021-07-10T13:21:14Z</time>
      </trkpt>
      <trkpt lat="44.12087" lon="6.72279">
        <ele>2255.5691476784</ele>
        <time>2021-07-10T13:21:16Z</time>
      </trkpt>
      <trkpt lat="44.12087" lon="6.7228">
        <ele>2255.5691228803</ele>
        <time>2021-07-10T13:21:17Z</time>
      </trkpt>
      <trkpt lat="44.12087" lon="6.72283">
        <ele>2255.5690718697</ele>
        <time>2021-07-10T13:21:19Z</time>
      </trkpt>
      <trkpt lat="44.12087" lon="6.72283">
        <ele>2254.56907528</ele>
        <time>2021-07-10T13:21:23Z</time>
      </trkpt>
      <trkpt lat="44.12086" lon="6.72284">
        <ele>2253.5690626591</ele>
        <time>2021-07-10T13:21:24Z</time>
      </trkpt>
      <trkpt lat="44.12087" lon="6.72285">
        <ele>2252.5690264438</ele>
        <time>2021-07-10T13:21:25Z</time>
      </trkpt>
      <trkpt lat="44.12088" lon="6.72286">
        <ele>2252.5689702399</ele>
        <time>2021-07-10T13:21:27Z</time>
      </trkpt>
      <trkpt lat="44.12089" lon="6.72287">
        <ele>2252.5689360244</ele>
        <time>2021-07-10T13:21:28Z</time>
      </trkpt>
      <trkpt lat="44.12089" lon="6.72287">
        <ele>2251.5688991303</ele>
        <time>2021-07-10T13:21:29Z</time>
      </trkpt>
      <trkpt lat="44.1209" lon="6.72288">
        <ele>2250.5688806075</ele>
        <time>2021-07-10T13:21:40Z</time>
      </trkpt>
      <trkpt lat="44.12091" lon="6.72289">
        <ele>2248.5688142341</ele>
        <time>2021-07-10T13:21:41Z</time>
      </trkpt>
      <trkpt lat="44.12091" lon="6.7229">
        <ele>2249.5687717471</ele>
        <time>2021-07-10T13:21:43Z</time>
      </trkpt>
      <trkpt lat="44.12091" lon="6.72291">
        <ele>2249.5687607251</ele>
        <time>2021-07-10T13:21:55Z</time>
      </trkpt>
      <trkpt lat="44.12092" lon="6.72294">
        <ele>2248.5686636085</ele>
        <time>2021-07-10T13:21:56Z</time>
      </trkpt>
      <trkpt lat="44.12093" lon="6.72295">
        <ele>2248.568630589</ele>
        <time>2021-07-10T13:21:59Z</time>
      </trkpt>
      <trkpt lat="44.12093" lon="6.72295">
        <ele>2248.5686089643</ele>
        <time>2021-07-10T13:22:01Z</time>
      </trkpt>
      <trkpt lat="44.12094" lon="6.72296">
        <ele>2248.5685646344</ele>
        <time>2021-07-10T13:22:02Z</time>
      </trkpt>
      <trkpt lat="44.12095" lon="6.72297">
        <ele>2247.5685162336</ele>
        <time>2021-07-10T13:22:04Z</time>
      </trkpt>
      <trkpt lat="44.12095" lon="6.72298">
        <ele>2247.5684921241</ele>
        <time>2021-07-10T13:22:05Z</time>
      </trkpt>
      <trkpt lat="44.12095" lon="6.72299">
        <ele>2247.5684689566</ele>
        <time>2021-07-10T13:22:06Z</time>
      </trkpt>
      <trkpt lat="44.12096" lon="6.723">
        <ele>2247.5684304937</ele>
        <time>2021-07-10T13:22:08Z</time>
      </trkpt>
      <trkpt lat="44.12096" lon="6.723">
        <ele>2247.568414917</ele>
        <time>2021-07-10T13:22:09Z</time>
      </trkpt>
      <trkpt lat="44.12097" lon="6.723">
        <ele>2247.5683833515</ele>
        <time>2021-07-10T13:22:10Z</time>
      </trkpt>
      <trkpt lat="44.12098" lon="6.72301">
        <ele>2247.5683413838</ele>
        <time>2021-07-10T13:22:11Z</time>
      </trkpt>
      <trkpt lat="44.12098" lon="6.72302">
        <ele>2247.5683126938</ele>
        <time>2021-07-10T13:22:12Z</time>
      </trkpt>
      <trkpt lat="44.12098" lon="6.72303">
        <ele>2246.5683030058</ele>
        <time>2021-07-10T13:22:13Z</time>
      </trkpt>
      <trkpt lat="44.12098" lon="6.72304">
        <ele>2245.5682882618</ele>
        <time>2021-07-10T13:22:14Z</time>
      </trkpt>
      <trkpt lat="44.12098" lon="6.72305">
        <ele>2244.5682662935</ele>
        <time>2021-07-10T13:22:17Z</time>
      </trkpt>
      <trkpt lat="44.12098" lon="6.72307">
        <ele>2243.5682181321</ele>
        <time>2021-07-10T13:22:18Z</time>
      </trkpt>
      <trkpt lat="44.12099" lon="6.72307">
        <ele>2242.56818342</ele>
        <time>2021-07-10T13:22:20Z</time>
      </trkpt>
      <trkpt lat="44.12099" lon="6.72307">
        <ele>2242.5681522436</ele>
        <time>2021-07-10T13:22:21Z</time>
      </trkpt>
      <trkpt lat="44.121" lon="6.72309">
        <ele>2242.5681162991</ele>
        <time>2021-07-10T13:22:22Z</time>
      </trkpt>
      <trkpt lat="44.12099" lon="6.72309">
        <ele>2241.5681131504</ele>
        <time>2021-07-10T13:22:24Z</time>
      </trkpt>
      <trkpt lat="44.121" lon="6.7231">
        <ele>2241.5680838779</ele>
        <time>2021-07-10T13:22:25Z</time>
      </trkpt>
      <trkpt lat="44.121" lon="6.72311">
        <ele>2241.568057726</ele>
        <time>2021-07-10T13:22:26Z</time>
      </trkpt>
      <trkpt lat="44.121" lon="6.72312">
        <ele>2241.5680167831</ele>
        <time>2021-07-10T13:22:28Z</time>
      </trkpt>
      <trkpt lat="44.12101" lon="6.72313">
        <ele>2240.5679811748</ele>
        <time>2021-07-10T13:22:29Z</time>
      </trkpt>
      <trkpt lat="44.12102" lon="6.72313">
        <ele>2239.5679640879</ele>
        <time>2021-07-10T13:22:30Z</time>
      </trkpt>
      <trkpt lat="44.12102" lon="6.72313">
        <ele>2239.5679356142</ele>
        <time>2021-07-10T13:22:31Z</time>
      </trkpt>
      <trkpt lat="44.12103" lon="6.72314">
        <ele>2238.5678795674</ele>
        <time>2021-07-10T13:22:33Z</time>
      </trkpt>
      <trkpt lat="44.12104" lon="6.72315">
        <ele>2238.5678525598</ele>
        <time>2021-07-10T13:22:34Z</time>
      </trkpt>
      <trkpt lat="44.12104" lon="6.72316">
        <ele>2238.5678310192</ele>
        <time>2021-07-10T13:22:35Z</time>
      </trkpt>
      <trkpt lat="44.12104" lon="6.72317">
        <ele>2237.5677853976</ele>
        <time>2021-07-10T13:22:37Z</time>
      </trkpt>
      <trkpt lat="44.12104" lon="6.72318">
        <ele>2237.5677697533</ele>
        <time>2021-07-10T13:22:38Z</time>
      </trkpt>
      <trkpt lat="44.12104" lon="6.7232">
        <ele>2237.5677347628</ele>
        <time>2021-07-10T13:22:39Z</time>
      </trkpt>
      <trkpt lat="44.12105" lon="6.72321">
        <ele>2237.5677063326</ele>
        <time>2021-07-10T13:22:40Z</time>
      </trkpt>
      <trkpt lat="44.12105" lon="6.72322">
        <ele>2237.5676777806</ele>
        <time>2021-07-10T13:22:41Z</time>
      </trkpt>
      <trkpt lat="44.12105" lon="6.72322">
        <ele>2236.5676726007</ele>
        <time>2021-07-10T13:22:42Z</time>
      </trkpt>
      <trkpt lat="44.12105" lon="6.72323">
        <ele>2236.5676343519</ele>
        <time>2021-07-10T13:22:43Z</time>
      </trkpt>
      <trkpt lat="44.12106" lon="6.72324">
        <ele>2235.5676001983</ele>
        <time>2021-07-10T13:22:44Z</time>
      </trkpt>
      <trkpt lat="44.12106" lon="6.72325">
        <ele>2235.5675742728</ele>
        <time>2021-07-10T13:22:45Z</time>
      </trkpt>
      <trkpt lat="44.12106" lon="6.72326">
        <ele>2233.567566137</ele>
        <time>2021-07-10T13:22:47Z</time>
      </trkpt>
      <trkpt lat="44.12106" lon="6.72327">
        <ele>2233.5675394096</ele>
        <time>2021-07-10T13:22:48Z</time>
      </trkpt>
      <trkpt lat="44.12106" lon="6.72328">
        <ele>2233.5675139278</ele>
        <time>2021-07-10T13:22:49Z</time>
      </trkpt>
      <trkpt lat="44.12107" lon="6.72328">
        <ele>2232.5674797999</ele>
        <time>2021-07-10T13:22:50Z</time>
      </trkpt>
      <trkpt lat="44.12107" lon="6.72329">
        <ele>2232.5674486119</ele>
        <time>2021-07-10T13:22:51Z</time>
      </trkpt>
      <trkpt lat="44.12107" lon="6.72331">
        <ele>2232.5674266523</ele>
        <time>2021-07-10T13:22:52Z</time>
      </trkpt>
      <trkpt lat="44.12107" lon="6.72332">
        <ele>2231.5674199974</ele>
        <time>2021-07-10T13:22:54Z</time>
      </trkpt>
      <trkpt lat="44.12107" lon="6.72333">
        <ele>2231.5673793937</ele>
        <time>2021-07-10T13:22:55Z</time>
      </trkpt>
      <trkpt lat="44.12108" lon="6.72333">
        <ele>2231.5673556099</ele>
        <time>2021-07-10T13:22:56Z</time>
      </trkpt>
      <trkpt lat="44.12108" lon="6.72334">
        <ele>2231.5673245062</ele>
        <time>2021-07-10T13:22:57Z</time>
      </trkpt>
      <trkpt lat="44.12109" lon="6.72336">
        <ele>2230.5672506243</ele>
        <time>2021-07-10T13:22:59Z</time>
      </trkpt>
      <trkpt lat="44.1211" lon="6.72336">
        <ele>2230.5672336134</ele>
        <time>2021-07-10T13:23:00Z</time>
      </trkpt>
      <trkpt lat="44.1211" lon="6.72336">
        <ele>2230.5672084984</ele>
        <time>2021-07-10T13:23:01Z</time>
      </trkpt>
      <trkpt lat="44.12111" lon="6.72336">
        <ele>2230.5671795443</ele>
        <time>2021-07-10T13:23:02Z</time>
      </trkpt>
      <trkpt lat="44.12112" lon="6.72337">
        <ele>2230.5671311077</ele>
        <time>2021-07-10T13:23:04Z</time>
      </trkpt>
      <trkpt lat="44.12112" lon="6.72337">
        <ele>2230.56711341</ele>
        <time>2021-07-10T13:23:05Z</time>
      </trkpt>
      <trkpt lat="44.12113" lon="6.72337">
        <ele>2230.5670926726</ele>
        <time>2021-07-10T13:23:07Z</time>
      </trkpt>
      <trkpt lat="44.12114" lon="6.72338">
        <ele>2229.5670269499</ele>
        <time>2021-07-10T13:23:08Z</time>
      </trkpt>
      <trkpt lat="44.12115" lon="6.72338">
        <ele>2229.5669963606</ele>
        <time>2021-07-10T13:23:09Z</time>
      </trkpt>
      <trkpt lat="44.12115" lon="6.72338">
        <ele>2228.5669827351</ele>
        <time>2021-07-10T13:23:10Z</time>
      </trkpt>
      <trkpt lat="44.12117" lon="6.72339">
        <ele>2228.5669133631</ele>
        <time>2021-07-10T13:23:12Z</time>
      </trkpt>
      <trkpt lat="44.12117" lon="6.72339">
        <ele>2228.5668875901</ele>
        <time>2021-07-10T13:23:14Z</time>
      </trkpt>
      <trkpt lat="44.12118" lon="6.72339">
        <ele>2227.566894982</ele>
        <time>2021-07-10T13:23:16Z</time>
      </trkpt>
      <trkpt lat="44.12119" lon="6.72339">
        <ele>2226.5668499675</ele>
        <time>2021-07-10T13:23:18Z</time>
      </trkpt>
      <trkpt lat="44.12119" lon="6.7234">
        <ele>2225.566825627</ele>
        <time>2021-07-10T13:23:20Z</time>
      </trkpt>
      <trkpt lat="44.12119" lon="6.72341">
        <ele>2225.5668081251</ele>
        <time>2021-07-10T13:23:22Z</time>
      </trkpt>
      <trkpt lat="44.12119" lon="6.72342">
        <ele>2224.5667764121</ele>
        <time>2021-07-10T13:23:23Z</time>
      </trkpt>
      <trkpt lat="44.1212" lon="6.72341">
        <ele>2224.5667560714</ele>
        <time>2021-07-10T13:23:24Z</time>
      </trkpt>
      <trkpt lat="44.12121" lon="6.72341">
        <ele>2223.5667328131</ele>
        <time>2021-07-10T13:23:26Z</time>
      </trkpt>
      <trkpt lat="44.12122" lon="6.72342">
        <ele>2223.5666939455</ele>
        <time>2021-07-10T13:23:27Z</time>
      </trkpt>
      <trkpt lat="44.12122" lon="6.72343">
        <ele>2223.5666658153</ele>
        <time>2021-07-10T13:23:28Z</time>
      </trkpt>
      <trkpt lat="44.12122" lon="6.72343">
        <ele>2223.5666567785</ele>
        <time>2021-07-10T13:23:29Z</time>
      </trkpt>
      <trkpt lat="44.12122" lon="6.72344">
        <ele>2222.5666241303</ele>
        <time>2021-07-10T13:23:30Z</time>
      </trkpt>
      <trkpt lat="44.12123" lon="6.72345">
        <ele>2222.566598293</ele>
        <time>2021-07-10T13:23:31Z</time>
      </trkpt>
      <trkpt lat="44.12123" lon="6.72345">
        <ele>2222.566573491</ele>
        <time>2021-07-10T13:23:32Z</time>
      </trkpt>
      <trkpt lat="44.12123" lon="6.72347">
        <ele>2222.5665456954</ele>
        <time>2021-07-10T13:23:33Z</time>
      </trkpt>
      <trkpt lat="44.12123" lon="6.72348">
        <ele>2222.5665104166</ele>
        <time>2021-07-10T13:23:34Z</time>
      </trkpt>
      <trkpt lat="44.12124" lon="6.72349">
        <ele>2222.5664802112</ele>
        <time>2021-07-10T13:23:35Z</time>
      </trkpt>
      <trkpt lat="44.12125" lon="6.7235">
        <ele>2221.5664225555</ele>
        <time>2021-07-10T13:23:37Z</time>
      </trkpt>
      <trkpt lat="44.12126" lon="6.72353">
        <ele>2221.5663291721</ele>
        <time>2021-07-10T13:23:39Z</time>
      </trkpt>
      <trkpt lat="44.12126" lon="6.72354">
        <ele>2221.5662855006</ele>
        <time>2021-07-10T13:23:40Z</time>
      </trkpt>
      <trkpt lat="44.12126" lon="6.72355">
        <ele>2220.5662703089</ele>
        <time>2021-07-10T13:23:42Z</time>
      </trkpt>
      <trkpt lat="44.12127" lon="6.72357">
        <ele>2219.5662065203</ele>
        <time>2021-07-10T13:23:44Z</time>
      </trkpt>
      <trkpt lat="44.12127" lon="6.72359">
        <ele>2219.566167758</ele>
        <time>2021-07-10T13:23:45Z</time>
      </trkpt>
      <trkpt lat="44.12127" lon="6.7236">
        <ele>2219.5661444857</ele>
        <time>2021-07-10T13:23:46Z</time>
      </trkpt>
      <trkpt lat="44.12128" lon="6.72361">
        <ele>2218.5661066535</ele>
        <time>2021-07-10T13:23:48Z</time>
      </trkpt>
      <trkpt lat="44.12129" lon="6.72361">
        <ele>2218.566064667</ele>
        <time>2021-07-10T13:23:49Z</time>
      </trkpt>
      <trkpt lat="44.12129" lon="6.72362">
        <ele>2217.5660282423</ele>
        <time>2021-07-10T13:23:50Z</time>
      </trkpt>
      <trkpt lat="44.1213" lon="6.72363">
        <ele>2217.5659954857</ele>
        <time>2021-07-10T13:23:54Z</time>
      </trkpt>
      <trkpt lat="44.1213" lon="6.72365">
        <ele>2216.5659363339</ele>
        <time>2021-07-10T13:23:55Z</time>
      </trkpt>
      <trkpt lat="44.12131" lon="6.72366">
        <ele>2215.5658964692</ele>
        <time>2021-07-10T13:23:57Z</time>
      </trkpt>
      <trkpt lat="44.12131" lon="6.72367">
        <ele>2214.5658851219</ele>
        <time>2021-07-10T13:24:00Z</time>
      </trkpt>
      <trkpt lat="44.12131" lon="6.72368">
        <ele>2213.5658392937</ele>
        <time>2021-07-10T13:24:01Z</time>
      </trkpt>
      <trkpt lat="44.12132" lon="6.72368">
        <ele>2213.565795596</ele>
        <time>2021-07-10T13:24:03Z</time>
      </trkpt>
      <trkpt lat="44.12133" lon="6.72369">
        <ele>2213.5657544921</ele>
        <time>2021-07-10T13:24:04Z</time>
      </trkpt>
      <trkpt lat="44.12133" lon="6.7237">
        <ele>2212.5657239677</ele>
        <time>2021-07-10T13:24:05Z</time>
      </trkpt>
      <trkpt lat="44.12135" lon="6.72372">
        <ele>2213.5656451102</ele>
        <time>2021-07-10T13:24:07Z</time>
      </trkpt>
      <trkpt lat="44.12136" lon="6.72372">
        <ele>2212.5655970268</ele>
        <time>2021-07-10T13:24:09Z</time>
      </trkpt>
      <trkpt lat="44.12137" lon="6.72372">
        <ele>2212.5655740492</ele>
        <time>2021-07-10T13:24:10Z</time>
      </trkpt>
      <trkpt lat="44.12137" lon="6.72372">
        <ele>2211.5655552636</ele>
        <time>2021-07-10T13:24:11Z</time>
      </trkpt>
      <trkpt lat="44.12137" lon="6.72374">
        <ele>2211.5655055617</ele>
        <time>2021-07-10T13:24:13Z</time>
      </trkpt>
      <trkpt lat="44.12138" lon="6.72375">
        <ele>2210.5654695112</ele>
        <time>2021-07-10T13:24:16Z</time>
      </trkpt>
      <trkpt lat="44.12138" lon="6.72377">
        <ele>2209.5654187838</ele>
        <time>2021-07-10T13:24:18Z</time>
      </trkpt>
      <trkpt lat="44.12139" lon="6.72379">
        <ele>2208.5653705525</ele>
        <time>2021-07-10T13:24:19Z</time>
      </trkpt>
      <trkpt lat="44.12139" lon="6.7238">
        <ele>2209.5653337372</ele>
        <time>2021-07-10T13:24:20Z</time>
      </trkpt>
      <trkpt lat="44.1214" lon="6.72379">
        <ele>2208.5653243833</ele>
        <time>2021-07-10T13:24:21Z</time>
      </trkpt>
      <trkpt lat="44.12141" lon="6.72379">
        <ele>2208.5652615802</ele>
        <time>2021-07-10T13:24:23Z</time>
      </trkpt>
      <trkpt lat="44.12142" lon="6.72379">
        <ele>2207.5652495464</ele>
        <time>2021-07-10T13:24:24Z</time>
      </trkpt>
      <trkpt lat="44.12142" lon="6.7238">
        <ele>2206.5652212163</ele>
        <time>2021-07-10T13:24:25Z</time>
      </trkpt>
      <trkpt lat="44.12142" lon="6.72382">
        <ele>2206.5651823452</ele>
        <time>2021-07-10T13:24:26Z</time>
      </trkpt>
      <trkpt lat="44.12143" lon="6.72382">
        <ele>2205.5651505514</ele>
        <time>2021-07-10T13:24:27Z</time>
      </trkpt>
      <trkpt lat="44.12143" lon="6.72384">
        <ele>2206.5651292157</ele>
        <time>2021-07-10T13:24:28Z</time>
      </trkpt>
      <trkpt lat="44.12143" lon="6.72385">
        <ele>2205.5650966156</ele>
        <time>2021-07-10T13:24:29Z</time>
      </trkpt>
      <trkpt lat="44.12143" lon="6.72385">
        <ele>2206.5650716147</ele>
        <time>2021-07-10T13:24:30Z</time>
      </trkpt>
      <trkpt lat="44.12143" lon="6.72387">
        <ele>2206.5650360344</ele>
        <time>2021-07-10T13:24:31Z</time>
      </trkpt>
      <trkpt lat="44.12144" lon="6.72388">
        <ele>2207.5649980721</ele>
        <time>2021-07-10T13:24:32Z</time>
      </trkpt>
      <trkpt lat="44.12144" lon="6.7239">
        <ele>2206.5649710395</ele>
        <time>2021-07-10T13:24:33Z</time>
      </trkpt>
      <trkpt lat="44.12144" lon="6.72391">
        <ele>2206.5649524839</ele>
        <time>2021-07-10T13:24:34Z</time>
      </trkpt>
      <trkpt lat="44.12144" lon="6.72392">
        <ele>2204.5649181754</ele>
        <time>2021-07-10T13:24:37Z</time>
      </trkpt>
      <trkpt lat="44.12144" lon="6.72393">
        <ele>2203.5649122094</ele>
        <time>2021-07-10T13:24:39Z</time>
      </trkpt>
      <trkpt lat="44.12143" lon="6.72394">
        <ele>2201.5649215651</ele>
        <time>2021-07-10T13:24:42Z</time>
      </trkpt>
      <trkpt lat="44.12145" lon="6.72393">
        <ele>2201.5648787755</ele>
        <time>2021-07-10T13:24:44Z</time>
      </trkpt>
      <trkpt lat="44.12145" lon="6.72394">
        <ele>2200.5648534509</ele>
        <time>2021-07-10T13:24:46Z</time>
      </trkpt>
      <trkpt lat="44.12145" lon="6.72395">
        <ele>2200.5648200513</ele>
        <time>2021-07-10T13:24:48Z</time>
      </trkpt>
      <trkpt lat="44.12146" lon="6.72396">
        <ele>2200.5647890324</ele>
        <time>2021-07-10T13:24:51Z</time>
      </trkpt>
      <trkpt lat="44.12146" lon="6.72396">
        <ele>2201.5647508963</ele>
        <time>2021-07-10T13:24:52Z</time>
      </trkpt>
      <trkpt lat="44.12147" lon="6.72397">
        <ele>2200.5647012606</ele>
        <time>2021-07-10T13:24:54Z</time>
      </trkpt>
      <trkpt lat="44.12148" lon="6.72398">
        <ele>2200.56465202</ele>
        <time>2021-07-10T13:24:55Z</time>
      </trkpt>
      <trkpt lat="44.12148" lon="6.72398">
        <ele>2200.5646333911</ele>
        <time>2021-07-10T13:24:56Z</time>
      </trkpt>
      <trkpt lat="44.12149" lon="6.724">
        <ele>2199.5646044568</ele>
        <time>2021-07-10T13:24:57Z</time>
      </trkpt>
      <trkpt lat="44.12149" lon="6.72402">
        <ele>2199.5645405659</ele>
        <time>2021-07-10T13:24:59Z</time>
      </trkpt>
      <trkpt lat="44.12149" lon="6.72402">
        <ele>2197.5645348241</ele>
        <time>2021-07-10T13:25:01Z</time>
      </trkpt>
      <trkpt lat="44.1215" lon="6.72401">
        <ele>2197.564537239</ele>
        <time>2021-07-10T13:25:03Z</time>
      </trkpt>
      <trkpt lat="44.12149" lon="6.72401">
        <ele>2195.5645580392</ele>
        <time>2021-07-10T13:25:10Z</time>
      </trkpt>
      <trkpt lat="44.12149" lon="6.72402">
        <ele>2195.5645503797</ele>
        <time>2021-07-10T13:25:11Z</time>
      </trkpt>
      <trkpt lat="44.12149" lon="6.72403">
        <ele>2195.5645221963</ele>
        <time>2021-07-10T13:25:12Z</time>
      </trkpt>
      <trkpt lat="44.1215" lon="6.72404">
        <ele>2194.5644704065</ele>
        <time>2021-07-10T13:25:14Z</time>
      </trkpt>
      <trkpt lat="44.12151" lon="6.72404">
        <ele>2194.5644385938</ele>
        <time>2021-07-10T13:25:16Z</time>
      </trkpt>
      <trkpt lat="44.12152" lon="6.72404">
        <ele>2194.5644100144</ele>
        <time>2021-07-10T13:25:18Z</time>
      </trkpt>
      <trkpt lat="44.12152" lon="6.72405">
        <ele>2193.5643915002</ele>
        <time>2021-07-10T13:25:19Z</time>
      </trkpt>
      <trkpt lat="44.12152" lon="6.72406">
        <ele>2193.5643729834</ele>
        <time>2021-07-10T13:25:20Z</time>
      </trkpt>
      <trkpt lat="44.12152" lon="6.72407">
        <ele>2193.5643600353</ele>
        <time>2021-07-10T13:25:21Z</time>
      </trkpt>
      <trkpt lat="44.12152" lon="6.72407">
        <ele>2193.5643275821</ele>
        <time>2021-07-10T13:25:24Z</time>
      </trkpt>
      <trkpt lat="44.12153" lon="6.7241">
        <ele>2193.5642405023</ele>
        <time>2021-07-10T13:25:25Z</time>
      </trkpt>
      <trkpt lat="44.12154" lon="6.72411">
        <ele>2193.5642022196</ele>
        <time>2021-07-10T13:25:26Z</time>
      </trkpt>
      <trkpt lat="44.12154" lon="6.72412">
        <ele>2192.5641659906</ele>
        <time>2021-07-10T13:25:28Z</time>
      </trkpt>
      <trkpt lat="44.12154" lon="6.72414">
        <ele>2191.5641546146</ele>
        <time>2021-07-10T13:25:29Z</time>
      </trkpt>
      <trkpt lat="44.12154" lon="6.72415">
        <ele>2192.5641172915</ele>
        <time>2021-07-10T13:25:30Z</time>
      </trkpt>
      <trkpt lat="44.12154" lon="6.72417">
        <ele>2192.564098694</ele>
        <time>2021-07-10T13:25:31Z</time>
      </trkpt>
      <trkpt lat="44.12154" lon="6.72417">
        <ele>2192.56407274</ele>
        <time>2021-07-10T13:25:32Z</time>
      </trkpt>
      <trkpt lat="44.12154" lon="6.72417">
        <ele>2191.5640556869</ele>
        <time>2021-07-10T13:25:33Z</time>
      </trkpt>
      <trkpt lat="44.12154" lon="6.72419">
        <ele>2190.5640392187</ele>
        <time>2021-07-10T13:25:34Z</time>
      </trkpt>
      <trkpt lat="44.12154" lon="6.7242">
        <ele>2189.5640169465</ele>
        <time>2021-07-10T13:25:35Z</time>
      </trkpt>
      <trkpt lat="44.12154" lon="6.72421">
        <ele>2189.5639872603</ele>
        <time>2021-07-10T13:25:36Z</time>
      </trkpt>
      <trkpt lat="44.12155" lon="6.72422">
        <ele>2189.5639447063</ele>
        <time>2021-07-10T13:25:37Z</time>
      </trkpt>
      <trkpt lat="44.12155" lon="6.72424">
        <ele>2189.5639131099</ele>
        <time>2021-07-10T13:25:38Z</time>
      </trkpt>
      <trkpt lat="44.12155" lon="6.72425">
        <ele>2189.5638947256</ele>
        <time>2021-07-10T13:25:39Z</time>
      </trkpt>
      <trkpt lat="44.12154" lon="6.72426">
        <ele>2187.5638841751</ele>
        <time>2021-07-10T13:25:41Z</time>
      </trkpt>
      <trkpt lat="44.12154" lon="6.72427">
        <ele>2187.5638643531</ele>
        <time>2021-07-10T13:25:42Z</time>
      </trkpt>
      <trkpt lat="44.12154" lon="6.72428">
        <ele>2186.5638557858</ele>
        <time>2021-07-10T13:25:43Z</time>
      </trkpt>
      <trkpt lat="44.12154" lon="6.72429">
        <ele>2186.5638354856</ele>
        <time>2021-07-10T13:25:44Z</time>
      </trkpt>
      <trkpt lat="44.12154" lon="6.7243">
        <ele>2185.563820123</ele>
        <time>2021-07-10T13:25:45Z</time>
      </trkpt>
      <trkpt lat="44.12155" lon="6.72431">
        <ele>2184.5637683375</ele>
        <time>2021-07-10T13:25:47Z</time>
      </trkpt>
      <trkpt lat="44.12155" lon="6.72432">
        <ele>2184.563752527</ele>
        <time>2021-07-10T13:25:51Z</time>
      </trkpt>
      <trkpt lat="44.12156" lon="6.72433">
        <ele>2183.56368676</ele>
        <time>2021-07-10T13:25:53Z</time>
      </trkpt>
      <trkpt lat="44.12156" lon="6.72434">
        <ele>2181.5636638622</ele>
        <time>2021-07-10T13:25:55Z</time>
      </trkpt>
      <trkpt lat="44.12156" lon="6.72436">
        <ele>2182.563618028</ele>
        <time>2021-07-10T13:25:57Z</time>
      </trkpt>
      <trkpt lat="44.12156" lon="6.72438">
        <ele>2182.5635880302</ele>
        <time>2021-07-10T13:25:59Z</time>
      </trkpt>
      <trkpt lat="44.12156" lon="6.72439">
        <ele>2181.5635827359</ele>
        <time>2021-07-10T13:26:00Z</time>
      </trkpt>
      <trkpt lat="44.12156" lon="6.72439">
        <ele>2181.5635624214</ele>
        <time>2021-07-10T13:26:02Z</time>
      </trkpt>
      <trkpt lat="44.12157" lon="6.7244">
        <ele>2182.5635385336</ele>
        <time>2021-07-10T13:26:04Z</time>
      </trkpt>
      <trkpt lat="44.12156" lon="6.72441">
        <ele>2181.5635501684</ele>
        <time>2021-07-10T13:26:05Z</time>
      </trkpt>
      <trkpt lat="44.12155" lon="6.72442">
        <ele>2181.5635328636</ele>
        <time>2021-07-10T13:26:06Z</time>
      </trkpt>
      <trkpt lat="44.12155" lon="6.72444">
        <ele>2180.5635058656</ele>
        <time>2021-07-10T13:26:08Z</time>
      </trkpt>
      <trkpt lat="44.12156" lon="6.72444">
        <ele>2179.5634606424</ele>
        <time>2021-07-10T13:26:09Z</time>
      </trkpt>
      <trkpt lat="44.12157" lon="6.72445">
        <ele>2179.5634157562</ele>
        <time>2021-07-10T13:26:10Z</time>
      </trkpt>
      <trkpt lat="44.12157" lon="6.72447">
        <ele>2179.5633942233</ele>
        <time>2021-07-10T13:26:11Z</time>
      </trkpt>
      <trkpt lat="44.12157" lon="6.72448">
        <ele>2179.5633521435</ele>
        <time>2021-07-10T13:26:13Z</time>
      </trkpt>
      <trkpt lat="44.12158" lon="6.72447">
        <ele>2180.5633453814</ele>
        <time>2021-07-10T13:26:14Z</time>
      </trkpt>
      <trkpt lat="44.12159" lon="6.72447">
        <ele>2179.5633006522</ele>
        <time>2021-07-10T13:26:15Z</time>
      </trkpt>
      <trkpt lat="44.1216" lon="6.72448">
        <ele>2179.5632566619</ele>
        <time>2021-07-10T13:26:17Z</time>
      </trkpt>
      <trkpt lat="44.12162" lon="6.72448">
        <ele>2178.5632047445</ele>
        <time>2021-07-10T13:26:19Z</time>
      </trkpt>
      <trkpt lat="44.12162" lon="6.72448">
        <ele>2178.5631961757</ele>
        <time>2021-07-10T13:26:20Z</time>
      </trkpt>
      <trkpt lat="44.12161" lon="6.72449">
        <ele>2177.5631894615</ele>
        <time>2021-07-10T13:26:21Z</time>
      </trkpt>
      <trkpt lat="44.1216" lon="6.72451">
        <ele>2177.5631874529</ele>
        <time>2021-07-10T13:26:23Z</time>
      </trkpt>
      <trkpt lat="44.1216" lon="6.72451">
        <ele>2177.5631733902</ele>
        <time>2021-07-10T13:26:25Z</time>
      </trkpt>
      <trkpt lat="44.1216" lon="6.72452">
        <ele>2175.5631734677</ele>
        <time>2021-07-10T13:26:27Z</time>
      </trkpt>
      <trkpt lat="44.1216" lon="6.72454">
        <ele>2174.5631377638</ele>
        <time>2021-07-10T13:26:29Z</time>
      </trkpt>
      <trkpt lat="44.1216" lon="6.72455">
        <ele>2174.5631120611</ele>
        <time>2021-07-10T13:26:30Z</time>
      </trkpt>
      <trkpt lat="44.1216" lon="6.72456">
        <ele>2174.5631148754</ele>
        <time>2021-07-10T13:26:31Z</time>
      </trkpt>
      <trkpt lat="44.1216" lon="6.72457">
        <ele>2174.5630858455</ele>
        <time>2021-07-10T13:26:33Z</time>
      </trkpt>
      <trkpt lat="44.1216" lon="6.72458">
        <ele>2174.5630628245</ele>
        <time>2021-07-10T13:26:34Z</time>
      </trkpt>
      <trkpt lat="44.1216" lon="6.7246">
        <ele>2174.5630239219</ele>
        <time>2021-07-10T13:26:35Z</time>
      </trkpt>
      <trkpt lat="44.1216" lon="6.72461">
        <ele>2174.5630015674</ele>
        <time>2021-07-10T13:26:41Z</time>
      </trkpt>
      <trkpt lat="44.12162" lon="6.72463">
        <ele>2173.5629083821</ele>
        <time>2021-07-10T13:26:42Z</time>
      </trkpt>
      <trkpt lat="44.12161" lon="6.72464">
        <ele>2173.5629071105</ele>
        <time>2021-07-10T13:26:43Z</time>
      </trkpt>
      <trkpt lat="44.12161" lon="6.72465">
        <ele>2173.5628986219</ele>
        <time>2021-07-10T13:26:44Z</time>
      </trkpt>
      <trkpt lat="44.12161" lon="6.72465">
        <ele>2172.5628910825</ele>
        <time>2021-07-10T13:26:47Z</time>
      </trkpt>
      <trkpt lat="44.12162" lon="6.72467">
        <ele>2170.5628148032</ele>
        <time>2021-07-10T13:26:49Z</time>
      </trkpt>
      <trkpt lat="44.12162" lon="6.72467">
        <ele>2169.5627990481</ele>
        <time>2021-07-10T13:26:51Z</time>
      </trkpt>
      <trkpt lat="44.12163" lon="6.72467">
        <ele>2168.5627671004</ele>
        <time>2021-07-10T13:26:54Z</time>
      </trkpt>
      <trkpt lat="44.12164" lon="6.72469">
        <ele>2167.5627178648</ele>
        <time>2021-07-10T13:26:55Z</time>
      </trkpt>
      <trkpt lat="44.12164" lon="6.72471">
        <ele>2165.5626685568</ele>
        <time>2021-07-10T13:26:57Z</time>
      </trkpt>
      <trkpt lat="44.12163" lon="6.72472">
        <ele>2166.5626851649</ele>
        <time>2021-07-10T13:26:59Z</time>
      </trkpt>
      <trkpt lat="44.12163" lon="6.72472">
        <ele>2165.5626734576</ele>
        <time>2021-07-10T13:27:00Z</time>
      </trkpt>
      <trkpt lat="44.12163" lon="6.72473">
        <ele>2165.5626464823</ele>
        <time>2021-07-10T13:27:01Z</time>
      </trkpt>
      <trkpt lat="44.12164" lon="6.72473">
        <ele>2164.5626314687</ele>
        <time>2021-07-10T13:27:02Z</time>
      </trkpt>
      <trkpt lat="44.12165" lon="6.72473">
        <ele>2164.5625931498</ele>
        <time>2021-07-10T13:27:04Z</time>
      </trkpt>
      <trkpt lat="44.12166" lon="6.72472">
        <ele>2163.562572275</ele>
        <time>2021-07-10T13:27:06Z</time>
      </trkpt>
      <trkpt lat="44.12166" lon="6.72473">
        <ele>2163.5625486073</ele>
        <time>2021-07-10T13:27:07Z</time>
      </trkpt>
      <trkpt lat="44.12166" lon="6.72474">
        <ele>2163.5625337722</ele>
        <time>2021-07-10T13:27:08Z</time>
      </trkpt>
      <trkpt lat="44.12166" lon="6.72475">
        <ele>2164.5625161271</ele>
        <time>2021-07-10T13:27:09Z</time>
      </trkpt>
      <trkpt lat="44.12166" lon="6.72476">
        <ele>2163.5624864777</ele>
        <time>2021-07-10T13:27:11Z</time>
      </trkpt>
      <trkpt lat="44.12167" lon="6.72476">
        <ele>2163.5624684459</ele>
        <time>2021-07-10T13:27:12Z</time>
      </trkpt>
      <trkpt lat="44.12167" lon="6.72477">
        <ele>2163.5624295314</ele>
        <time>2021-07-10T13:27:14Z</time>
      </trkpt>
      <trkpt lat="44.12168" lon="6.72476">
        <ele>2161.5624201033</ele>
        <time>2021-07-10T13:27:17Z</time>
      </trkpt>
      <trkpt lat="44.12168" lon="6.72478">
        <ele>2161.5623986956</ele>
        <time>2021-07-10T13:27:19Z</time>
      </trkpt>
      <trkpt lat="44.12167" lon="6.72478">
        <ele>2162.562417731</ele>
        <time>2021-07-10T13:27:21Z</time>
      </trkpt>
      <trkpt lat="44.12166" lon="6.7248">
        <ele>2161.562436722</ele>
        <time>2021-07-10T13:27:23Z</time>
      </trkpt>
      <trkpt lat="44.12166" lon="6.72481">
        <ele>2161.5624062386</ele>
        <time>2021-07-10T13:27:39Z</time>
      </trkpt>
      <trkpt lat="44.12166" lon="6.72482">
        <ele>2159.5623898255</ele>
        <time>2021-07-10T13:27:41Z</time>
      </trkpt>
      <trkpt lat="44.12166" lon="6.72482">
        <ele>2158.5623663138</ele>
        <time>2021-07-10T13:27:48Z</time>
      </trkpt>
      <trkpt lat="44.12167" lon="6.72482">
        <ele>2158.562341131</ele>
        <time>2021-07-10T13:27:49Z</time>
      </trkpt>
      <trkpt lat="44.12167" lon="6.72483">
        <ele>2158.5623207931</ele>
        <time>2021-07-10T13:27:50Z</time>
      </trkpt>
      <trkpt lat="44.12167" lon="6.72484">
        <ele>2158.5623172329</ele>
        <time>2021-07-10T13:27:51Z</time>
      </trkpt>
      <trkpt lat="44.12166" lon="6.72485">
        <ele>2157.562300968</ele>
        <time>2021-07-10T13:27:54Z</time>
      </trkpt>
      <trkpt lat="44.12167" lon="6.72485">
        <ele>2157.5622711868</ele>
        <time>2021-07-10T13:27:55Z</time>
      </trkpt>
      <trkpt lat="44.12168" lon="6.72486">
        <ele>2157.5622384343</ele>
        <time>2021-07-10T13:27:56Z</time>
      </trkpt>
      <trkpt lat="44.12168" lon="6.72487">
        <ele>2156.5622195923</ele>
        <time>2021-07-10T13:27:57Z</time>
      </trkpt>
      <trkpt lat="44.12167" lon="6.72488">
        <ele>2157.5622106284</ele>
        <time>2021-07-10T13:27:58Z</time>
      </trkpt>
      <trkpt lat="44.12167" lon="6.72489">
        <ele>2157.5622101278</ele>
        <time>2021-07-10T13:27:59Z</time>
      </trkpt>
      <trkpt lat="44.12167" lon="6.7249">
        <ele>2157.5621833382</ele>
        <time>2021-07-10T13:28:00Z</time>
      </trkpt>
      <trkpt lat="44.12168" lon="6.72491">
        <ele>2157.5621503996</ele>
        <time>2021-07-10T13:28:01Z</time>
      </trkpt>
      <trkpt lat="44.12169" lon="6.72491">
        <ele>2156.5621015312</ele>
        <time>2021-07-10T13:28:03Z</time>
      </trkpt>
      <trkpt lat="44.12169" lon="6.72492">
        <ele>2156.5620567347</ele>
        <time>2021-07-10T13:28:04Z</time>
      </trkpt>
      <trkpt lat="44.1217" lon="6.72493">
        <ele>2156.5620292037</ele>
        <time>2021-07-10T13:28:06Z</time>
      </trkpt>
      <trkpt lat="44.1217" lon="6.72494">
        <ele>2155.562005131</ele>
        <time>2021-07-10T13:28:10Z</time>
      </trkpt>
      <trkpt lat="44.12169" lon="6.72497">
        <ele>2154.5619643914</ele>
        <time>2021-07-10T13:28:12Z</time>
      </trkpt>
      <trkpt lat="44.12168" lon="6.72498">
        <ele>2153.5620007974</ele>
        <time>2021-07-10T13:28:14Z</time>
      </trkpt>
      <trkpt lat="44.12168" lon="6.72497">
        <ele>2152.5620003702</ele>
        <time>2021-07-10T13:28:17Z</time>
      </trkpt>
      <trkpt lat="44.12169" lon="6.72497">
        <ele>2152.5619807438</ele>
        <time>2021-07-10T13:28:18Z</time>
      </trkpt>
      <trkpt lat="44.12169" lon="6.72498">
        <ele>2153.5619541574</ele>
        <time>2021-07-10T13:28:19Z</time>
      </trkpt>
      <trkpt lat="44.1217" lon="6.72498">
        <ele>2153.5619195676</ele>
        <time>2021-07-10T13:28:20Z</time>
      </trkpt>
      <trkpt lat="44.1217" lon="6.72499">
        <ele>2153.5619154435</ele>
        <time>2021-07-10T13:28:21Z</time>
      </trkpt>
      <trkpt lat="44.12169" lon="6.725">
        <ele>2152.5619124953</ele>
        <time>2021-07-10T13:28:22Z</time>
      </trkpt>
      <trkpt lat="44.12169" lon="6.725">
        <ele>2151.5619275635</ele>
        <time>2021-07-10T13:28:26Z</time>
      </trkpt>
      <trkpt lat="44.12167" lon="6.72502">
        <ele>2150.5619424596</ele>
        <time>2021-07-10T13:28:27Z</time>
      </trkpt>
      <trkpt lat="44.12167" lon="6.72503">
        <ele>2150.5619461192</ele>
        <time>2021-07-10T13:28:28Z</time>
      </trkpt>
      <trkpt lat="44.12166" lon="6.72503">
        <ele>2150.5619683569</ele>
        <time>2021-07-10T13:28:33Z</time>
      </trkpt>
      <trkpt lat="44.12165" lon="6.72504">
        <ele>2150.5619673911</ele>
        <time>2021-07-10T13:28:34Z</time>
      </trkpt>
      <trkpt lat="44.12165" lon="6.72505">
        <ele>2148.5619573817</ele>
        <time>2021-07-10T13:28:36Z</time>
      </trkpt>
      <trkpt lat="44.12165" lon="6.72506">
        <ele>2148.5619224924</ele>
        <time>2021-07-10T13:28:40Z</time>
      </trkpt>
      <trkpt lat="44.12165" lon="6.72507">
        <ele>2148.561916909</ele>
        <time>2021-07-10T13:28:41Z</time>
      </trkpt>
      <trkpt lat="44.12165" lon="6.72508">
        <ele>2148.5619147159</ele>
        <time>2021-07-10T13:28:42Z</time>
      </trkpt>
      <trkpt lat="44.12164" lon="6.72509">
        <ele>2148.5619167788</ele>
        <time>2021-07-10T13:28:43Z</time>
      </trkpt>
      <trkpt lat="44.12163" lon="6.72509">
        <ele>2147.5619380271</ele>
        <time>2021-07-10T13:28:44Z</time>
      </trkpt>
      <trkpt lat="44.12163" lon="6.7251">
        <ele>2146.5619303333</ele>
        <time>2021-07-10T13:28:45Z</time>
      </trkpt>
      <trkpt lat="44.12163" lon="6.72511">
        <ele>2146.5619150753</ele>
        <time>2021-07-10T13:28:47Z</time>
      </trkpt>
      <trkpt lat="44.12161" lon="6.72513">
        <ele>2145.5619430831</ele>
        <time>2021-07-10T13:28:49Z</time>
      </trkpt>
      <trkpt lat="44.12161" lon="6.72513">
        <ele>2145.5619657377</ele>
        <time>2021-07-10T13:28:50Z</time>
      </trkpt>
      <trkpt lat="44.12161" lon="6.72513">
        <ele>2145.5619648429</ele>
        <time>2021-07-10T13:28:53Z</time>
      </trkpt>
      <trkpt lat="44.1216" lon="6.72514">
        <ele>2144.5619519328</ele>
        <time>2021-07-10T13:28:54Z</time>
      </trkpt>
      <trkpt lat="44.1216" lon="6.72514">
        <ele>2143.5619713593</ele>
        <time>2021-07-10T13:28:55Z</time>
      </trkpt>
      <trkpt lat="44.12159" lon="6.72514">
        <ele>2142.562000224</ele>
        <time>2021-07-10T13:28:56Z</time>
      </trkpt>
      <trkpt lat="44.12159" lon="6.72515">
        <ele>2142.5620066491</ele>
        <time>2021-07-10T13:29:00Z</time>
      </trkpt>
      <trkpt lat="44.12158" lon="6.72516">
        <ele>2141.5620063952</ele>
        <time>2021-07-10T13:29:01Z</time>
      </trkpt>
      <trkpt lat="44.12158" lon="6.72516">
        <ele>2140.562009005</ele>
        <time>2021-07-10T13:29:03Z</time>
      </trkpt>
      <trkpt lat="44.12158" lon="6.72517">
        <ele>2140.5619824148</ele>
        <time>2021-07-10T13:29:04Z</time>
      </trkpt>
      <trkpt lat="44.12158" lon="6.72518">
        <ele>2138.5619526597</ele>
        <time>2021-07-10T13:29:06Z</time>
      </trkpt>
      <trkpt lat="44.12159" lon="6.72519">
        <ele>2139.5618956381</ele>
        <time>2021-07-10T13:29:08Z</time>
      </trkpt>
      <trkpt lat="44.12159" lon="6.72519">
        <ele>2139.5618956381</ele>
        <time>2021-07-10T13:29:09Z</time>
      </trkpt>
      <trkpt lat="44.1216" lon="6.7252">
        <ele>2139.5618574054</ele>
        <time>2021-07-10T13:29:10Z</time>
      </trkpt>
      <trkpt lat="44.12159" lon="6.7252">
        <ele>2139.5618679523</ele>
        <time>2021-07-10T13:29:11Z</time>
      </trkpt>
      <trkpt lat="44.12159" lon="6.7252">
        <ele>2138.5619025023</ele>
        <time>2021-07-10T13:29:12Z</time>
      </trkpt>
      <trkpt lat="44.12157" lon="6.7252">
        <ele>2138.5619534575</ele>
        <time>2021-07-10T13:29:14Z</time>
      </trkpt>
      <trkpt lat="44.12157" lon="6.7252">
        <ele>2138.5619547842</ele>
        <time>2021-07-10T13:29:17Z</time>
      </trkpt>
      <trkpt lat="44.12157" lon="6.72521">
        <ele>2138.56194089</ele>
        <time>2021-07-10T13:29:18Z</time>
      </trkpt>
      <trkpt lat="44.12157" lon="6.72522">
        <ele>2138.5619218319</ele>
        <time>2021-07-10T13:29:19Z</time>
      </trkpt>
      <trkpt lat="44.12157" lon="6.72523">
        <ele>2139.5619014075</ele>
        <time>2021-07-10T13:29:21Z</time>
      </trkpt>
      <trkpt lat="44.12156" lon="6.72524">
        <ele>2139.5619226147</ele>
        <time>2021-07-10T13:29:23Z</time>
      </trkpt>
      <trkpt lat="44.12155" lon="6.72525">
        <ele>2138.5619178516</ele>
        <time>2021-07-10T13:29:25Z</time>
      </trkpt>
      <trkpt lat="44.12156" lon="6.72526">
        <ele>2138.5618993873</ele>
        <time>2021-07-10T13:29:26Z</time>
      </trkpt>
      <trkpt lat="44.12155" lon="6.72527">
        <ele>2137.5619000426</ele>
        <time>2021-07-10T13:29:27Z</time>
      </trkpt>
      <trkpt lat="44.12154" lon="6.72528">
        <ele>2136.5619218562</ele>
        <time>2021-07-10T13:29:29Z</time>
      </trkpt>
      <trkpt lat="44.12153" lon="6.72528">
        <ele>2136.5619437164</ele>
        <time>2021-07-10T13:29:30Z</time>
      </trkpt>
      <trkpt lat="44.12152" lon="6.72528">
        <ele>2135.5619666582</ele>
        <time>2021-07-10T13:29:32Z</time>
      </trkpt>
      <trkpt lat="44.12153" lon="6.72529">
        <ele>2135.5619436459</ele>
        <time>2021-07-10T13:29:33Z</time>
      </trkpt>
      <trkpt lat="44.12152" lon="6.7253">
        <ele>2134.5619424352</ele>
        <time>2021-07-10T13:29:34Z</time>
      </trkpt>
      <trkpt lat="44.12152" lon="6.7253">
        <ele>2134.5619520611</ele>
        <time>2021-07-10T13:29:35Z</time>
      </trkpt>
      <trkpt lat="44.12152" lon="6.72531">
        <ele>2133.5619324912</ele>
        <time>2021-07-10T13:29:36Z</time>
      </trkpt>
      <trkpt lat="44.12152" lon="6.72533">
        <ele>2132.5619107574</ele>
        <time>2021-07-10T13:29:37Z</time>
      </trkpt>
      <trkpt lat="44.12151" lon="6.72534">
        <ele>2132.561921131</ele>
        <time>2021-07-10T13:29:38Z</time>
      </trkpt>
      <trkpt lat="44.12151" lon="6.72535">
        <ele>2132.5619096799</ele>
        <time>2021-07-10T13:29:39Z</time>
      </trkpt>
      <trkpt lat="44.12151" lon="6.72535">
        <ele>2132.5618972183</ele>
        <time>2021-07-10T13:29:40Z</time>
      </trkpt>
      <trkpt lat="44.12151" lon="6.72536">
        <ele>2132.5618535807</ele>
        <time>2021-07-10T13:29:41Z</time>
      </trkpt>
      <trkpt lat="44.12151" lon="6.72537">
        <ele>2131.5618574332</ele>
        <time>2021-07-10T13:29:48Z</time>
      </trkpt>
      <trkpt lat="44.12153" lon="6.72536">
        <ele>2131.5617817318</ele>
        <time>2021-07-10T13:29:49Z</time>
      </trkpt>
      <trkpt lat="44.12154" lon="6.72537">
        <ele>2131.5617492607</ele>
        <time>2021-07-10T13:29:50Z</time>
      </trkpt>
      <trkpt lat="44.12155" lon="6.72537">
        <ele>2129.5617187818</ele>
        <time>2021-07-10T13:29:52Z</time>
      </trkpt>
      <trkpt lat="44.12155" lon="6.72537">
        <ele>2129.5616854465</ele>
        <time>2021-07-10T13:29:54Z</time>
      </trkpt>
      <trkpt lat="44.12155" lon="6.72539">
        <ele>2129.5616549271</ele>
        <time>2021-07-10T13:29:55Z</time>
      </trkpt>
      <trkpt lat="44.12154" lon="6.72539">
        <ele>2129.561683275</ele>
        <time>2021-07-10T13:29:56Z</time>
      </trkpt>
      <trkpt lat="44.12153" lon="6.72539">
        <ele>2127.5617524359</ele>
        <time>2021-07-10T13:29:58Z</time>
      </trkpt>
      <trkpt lat="44.12152" lon="6.72539">
        <ele>2127.5617676449</ele>
        <time>2021-07-10T13:30:01Z</time>
      </trkpt>
      <trkpt lat="44.12152" lon="6.7254">
        <ele>2127.5617399267</ele>
        <time>2021-07-10T13:30:02Z</time>
      </trkpt>
      <trkpt lat="44.12153" lon="6.7254">
        <ele>2127.5617171814</ele>
        <time>2021-07-10T13:30:03Z</time>
      </trkpt>
      <trkpt lat="44.12153" lon="6.72541">
        <ele>2127.5616932148</ele>
        <time>2021-07-10T13:30:04Z</time>
      </trkpt>
      <trkpt lat="44.12154" lon="6.7254">
        <ele>2127.5616769798</ele>
        <time>2021-07-10T13:30:07Z</time>
      </trkpt>
      <trkpt lat="44.12154" lon="6.72542">
        <ele>2127.5616411498</ele>
        <time>2021-07-10T13:30:08Z</time>
      </trkpt>
      <trkpt lat="44.12154" lon="6.72543">
        <ele>2126.561640597</ele>
        <time>2021-07-10T13:30:09Z</time>
      </trkpt>
      <trkpt lat="44.12153" lon="6.72544">
        <ele>2125.5616354433</ele>
        <time>2021-07-10T13:30:13Z</time>
      </trkpt>
      <trkpt lat="44.12152" lon="6.72545">
        <ele>2125.5616506997</ele>
        <time>2021-07-10T13:30:14Z</time>
      </trkpt>
      <trkpt lat="44.12152" lon="6.72545">
        <ele>2124.561658548</ele>
        <time>2021-07-10T13:30:17Z</time>
      </trkpt>
      <trkpt lat="44.12151" lon="6.72546">
        <ele>2124.5616826682</ele>
        <time>2021-07-10T13:30:19Z</time>
      </trkpt>
      <trkpt lat="44.1215" lon="6.72547">
        <ele>2124.5616879138</ele>
        <time>2021-07-10T13:30:22Z</time>
      </trkpt>
      <trkpt lat="44.12151" lon="6.72547">
        <ele>2123.5616567368</ele>
        <time>2021-07-10T13:30:25Z</time>
      </trkpt>
      <trkpt lat="44.12151" lon="6.72548">
        <ele>2123.5616486227</ele>
        <time>2021-07-10T13:30:26Z</time>
      </trkpt>
      <trkpt lat="44.1215" lon="6.72548">
        <ele>2123.5616697485</ele>
        <time>2021-07-10T13:30:27Z</time>
      </trkpt>
      <trkpt lat="44.1215" lon="6.72549">
        <ele>2123.5616624499</ele>
        <time>2021-07-10T13:30:32Z</time>
      </trkpt>
      <trkpt lat="44.12151" lon="6.72549">
        <ele>2122.5616097617</ele>
        <time>2021-07-10T13:30:34Z</time>
      </trkpt>
      <trkpt lat="44.12151" lon="6.7255">
        <ele>2122.5616055355</ele>
        <time>2021-07-10T13:30:35Z</time>
      </trkpt>
      <trkpt lat="44.1215" lon="6.7255">
        <ele>2122.5616267683</ele>
        <time>2021-07-10T13:30:36Z</time>
      </trkpt>
      <trkpt lat="44.12149" lon="6.72552">
        <ele>2122.5616161166</ele>
        <time>2021-07-10T13:30:38Z</time>
      </trkpt>
      <trkpt lat="44.12149" lon="6.72553">
        <ele>2121.5616251596</ele>
        <time>2021-07-10T13:30:40Z</time>
      </trkpt>
      <trkpt lat="44.12148" lon="6.72554">
        <ele>2120.5616127506</ele>
        <time>2021-07-10T13:30:41Z</time>
      </trkpt>
      <trkpt lat="44.12148" lon="6.72554">
        <ele>2120.5616379378</ele>
        <time>2021-07-10T13:30:44Z</time>
      </trkpt>
      <trkpt lat="44.12148" lon="6.72554">
        <ele>2120.561634485</ele>
        <time>2021-07-10T13:30:47Z</time>
      </trkpt>
      <trkpt lat="44.12149" lon="6.72554">
        <ele>2120.5615980158</ele>
        <time>2021-07-10T13:30:49Z</time>
      </trkpt>
      <trkpt lat="44.12149" lon="6.72554">
        <ele>2120.5615918837</ele>
        <time>2021-07-10T13:30:50Z</time>
      </trkpt>
      <trkpt lat="44.12148" lon="6.72553">
        <ele>2120.5616351751</ele>
        <time>2021-07-10T13:30:51Z</time>
      </trkpt>
      <trkpt lat="44.12148" lon="6.72554">
        <ele>2118.5616506909</ele>
        <time>2021-07-10T13:30:56Z</time>
      </trkpt>
      <trkpt lat="44.12147" lon="6.72554">
        <ele>2118.5616668846</ele>
        <time>2021-07-10T13:30:57Z</time>
      </trkpt>
      <trkpt lat="44.12146" lon="6.72554">
        <ele>2117.5616938964</ele>
        <time>2021-07-10T13:30:59Z</time>
      </trkpt>
      <trkpt lat="44.12146" lon="6.72554">
        <ele>2118.5617165353</ele>
        <time>2021-07-10T13:31:00Z</time>
      </trkpt>
      <trkpt lat="44.12145" lon="6.72555">
        <ele>2117.5617084255</ele>
        <time>2021-07-10T13:31:04Z</time>
      </trkpt>
      <trkpt lat="44.12145" lon="6.72555">
        <ele>2117.5617166506</ele>
        <time>2021-07-10T13:31:05Z</time>
      </trkpt>
      <trkpt lat="44.12144" lon="6.72556">
        <ele>2116.5617182458</ele>
        <time>2021-07-10T13:31:06Z</time>
      </trkpt>
      <trkpt lat="44.12144" lon="6.72556">
        <ele>2117.5617307538</ele>
        <time>2021-07-10T13:31:07Z</time>
      </trkpt>
      <trkpt lat="44.12143" lon="6.72557">
        <ele>2116.5617376894</ele>
        <time>2021-07-10T13:31:08Z</time>
      </trkpt>
      <trkpt lat="44.12143" lon="6.72557">
        <ele>2117.5617547011</ele>
        <time>2021-07-10T13:31:09Z</time>
      </trkpt>
      <trkpt lat="44.12142" lon="6.72557">
        <ele>2117.5617772138</ele>
        <time>2021-07-10T13:31:16Z</time>
      </trkpt>
      <trkpt lat="44.12142" lon="6.72555">
        <ele>2116.5618221363</ele>
        <time>2021-07-10T13:31:17Z</time>
      </trkpt>
      <trkpt lat="44.12142" lon="6.72555">
        <ele>2114.5618121901</ele>
        <time>2021-07-10T13:31:22Z</time>
      </trkpt>
      <trkpt lat="44.12141" lon="6.72557">
        <ele>2114.5618091394</ele>
        <time>2021-07-10T13:31:23Z</time>
      </trkpt>
      <trkpt lat="44.12141" lon="6.72558">
        <ele>2114.5617911018</ele>
        <time>2021-07-10T13:31:25Z</time>
      </trkpt>
      <trkpt lat="44.12142" lon="6.72559">
        <ele>2114.5617590429</ele>
        <time>2021-07-10T13:31:26Z</time>
      </trkpt>
      <trkpt lat="44.12142" lon="6.7256">
        <ele>2114.561725822</ele>
        <time>2021-07-10T13:31:28Z</time>
      </trkpt>
      <trkpt lat="44.12141" lon="6.72561">
        <ele>2114.5617393621</ele>
        <time>2021-07-10T13:31:31Z</time>
      </trkpt>
      <trkpt lat="44.12141" lon="6.72562">
        <ele>2114.5617148524</ele>
        <time>2021-07-10T13:31:34Z</time>
      </trkpt>
      <trkpt lat="44.12141" lon="6.72562">
        <ele>2114.5617266469</ele>
        <time>2021-07-10T13:31:35Z</time>
      </trkpt>
      <trkpt lat="44.1214" lon="6.72563">
        <ele>2114.5617416754</ele>
        <time>2021-07-10T13:31:36Z</time>
      </trkpt>
      <trkpt lat="44.1214" lon="6.72563">
        <ele>2113.5617476926</ele>
        <time>2021-07-10T13:31:42Z</time>
      </trkpt>
      <trkpt lat="44.1214" lon="6.72563">
        <ele>2113.561736791</ele>
        <time>2021-07-10T13:31:48Z</time>
      </trkpt>
      <trkpt lat="44.12141" lon="6.72563">
        <ele>2112.5617008923</ele>
        <time>2021-07-10T13:31:50Z</time>
      </trkpt>
      <trkpt lat="44.12141" lon="6.72564">
        <ele>2112.5616692132</ele>
        <time>2021-07-10T13:31:51Z</time>
      </trkpt>
      <trkpt lat="44.12141" lon="6.72565">
        <ele>2112.561663287</ele>
        <time>2021-07-10T13:31:52Z</time>
      </trkpt>
      <trkpt lat="44.1214" lon="6.72564">
        <ele>2110.5617300638</ele>
        <time>2021-07-10T13:31:54Z</time>
      </trkpt>
      <trkpt lat="44.12139" lon="6.72565">
        <ele>2109.5617292266</ele>
        <time>2021-07-10T13:31:55Z</time>
      </trkpt>
      <trkpt lat="44.12139" lon="6.72566">
        <ele>2110.5617089207</ele>
        <time>2021-07-10T13:31:56Z</time>
      </trkpt>
      <trkpt lat="44.12139" lon="6.72566">
        <ele>2109.5617030181</ele>
        <time>2021-07-10T13:31:57Z</time>
      </trkpt>
      <trkpt lat="44.12138" lon="6.72566">
        <ele>2109.5617363291</ele>
        <time>2021-07-10T13:31:59Z</time>
      </trkpt>
      <trkpt lat="44.12138" lon="6.72567">
        <ele>2109.5617555216</ele>
        <time>2021-07-10T13:32:00Z</time>
      </trkpt>
      <trkpt lat="44.12137" lon="6.72567">
        <ele>2107.561764265</ele>
        <time>2021-07-10T13:32:02Z</time>
      </trkpt>
      <trkpt lat="44.12137" lon="6.72568">
        <ele>2108.5617548896</ele>
        <time>2021-07-10T13:32:03Z</time>
      </trkpt>
      <trkpt lat="44.12136" lon="6.72568">
        <ele>2108.5617896814</ele>
        <time>2021-07-10T13:32:05Z</time>
      </trkpt>
      <trkpt lat="44.12136" lon="6.72569">
        <ele>2108.5617625954</ele>
        <time>2021-07-10T13:32:14Z</time>
      </trkpt>
      <trkpt lat="44.12136" lon="6.7257">
        <ele>2107.5617503201</ele>
        <time>2021-07-10T13:32:15Z</time>
      </trkpt>
      <trkpt lat="44.12136" lon="6.72571">
        <ele>2107.5617242615</ele>
        <time>2021-07-10T13:32:17Z</time>
      </trkpt>
      <trkpt lat="44.12137" lon="6.72571">
        <ele>2106.5616888689</ele>
        <time>2021-07-10T13:32:19Z</time>
      </trkpt>
      <trkpt lat="44.12137" lon="6.72572">
        <ele>2106.5616693505</ele>
        <time>2021-07-10T13:32:20Z</time>
      </trkpt>
      <trkpt lat="44.12137" lon="6.72573">
        <ele>2105.561650663</ele>
        <time>2021-07-10T13:32:28Z</time>
      </trkpt>
      <trkpt lat="44.12137" lon="6.72574">
        <ele>2104.5616223781</ele>
        <time>2021-07-10T13:32:30Z</time>
      </trkpt>
      <trkpt lat="44.12138" lon="6.72575">
        <ele>2104.5615716729</ele>
        <time>2021-07-10T13:32:32Z</time>
      </trkpt>
      <trkpt lat="44.12138" lon="6.72575">
        <ele>2104.5615716729</ele>
        <time>2021-07-10T13:32:35Z</time>
      </trkpt>
      <trkpt lat="44.12137" lon="6.72577">
        <ele>2104.561565753</ele>
        <time>2021-07-10T13:32:36Z</time>
      </trkpt>
      <trkpt lat="44.12138" lon="6.72578">
        <ele>2103.5615347255</ele>
        <time>2021-07-10T13:32:37Z</time>
      </trkpt>
      <trkpt lat="44.12137" lon="6.72579">
        <ele>2103.561543804</ele>
        <time>2021-07-10T13:32:38Z</time>
      </trkpt>
      <trkpt lat="44.12137" lon="6.7258">
        <ele>2102.5615095437</ele>
        <time>2021-07-10T13:32:41Z</time>
      </trkpt>
      <trkpt lat="44.12137" lon="6.7258">
        <ele>2101.5614953523</ele>
        <time>2021-07-10T13:32:45Z</time>
      </trkpt>
      <trkpt lat="44.12137" lon="6.72581">
        <ele>2102.5614973811</ele>
        <time>2021-07-10T13:32:46Z</time>
      </trkpt>
      <trkpt lat="44.12137" lon="6.72582">
        <ele>2102.5614756229</ele>
        <time>2021-07-10T13:32:47Z</time>
      </trkpt>
      <trkpt lat="44.12137" lon="6.72582">
        <ele>2102.5614571647</ele>
        <time>2021-07-10T13:32:48Z</time>
      </trkpt>
      <trkpt lat="44.12138" lon="6.72582">
        <ele>2102.5614328909</ele>
        <time>2021-07-10T13:32:51Z</time>
      </trkpt>
      <trkpt lat="44.12139" lon="6.72582">
        <ele>2102.5614019166</ele>
        <time>2021-07-10T13:32:55Z</time>
      </trkpt>
      <trkpt lat="44.12139" lon="6.72583">
        <ele>2102.5613778536</ele>
        <time>2021-07-10T13:32:56Z</time>
      </trkpt>
      <trkpt lat="44.12139" lon="6.72584">
        <ele>2102.5613602302</ele>
        <time>2021-07-10T13:32:58Z</time>
      </trkpt>
      <trkpt lat="44.1214" lon="6.72583">
        <ele>2101.5613260218</ele>
        <time>2021-07-10T13:33:00Z</time>
      </trkpt>
      <trkpt lat="44.12141" lon="6.72583">
        <ele>2101.561304318</ele>
        <time>2021-07-10T13:33:01Z</time>
      </trkpt>
      <trkpt lat="44.12142" lon="6.72584">
        <ele>2099.5612776822</ele>
        <time>2021-07-10T13:33:06Z</time>
      </trkpt>
      <trkpt lat="44.12143" lon="6.72582">
        <ele>2099.5612625469</ele>
        <time>2021-07-10T13:33:07Z</time>
      </trkpt>
      <trkpt lat="44.12143" lon="6.72582">
        <ele>2098.5612686149</ele>
        <time>2021-07-10T13:33:09Z</time>
      </trkpt>
      <trkpt lat="44.12142" lon="6.72581">
        <ele>2096.5612941048</ele>
        <time>2021-07-10T13:33:11Z</time>
      </trkpt>
      <trkpt lat="44.12143" lon="6.72583">
        <ele>2095.561258373</ele>
        <time>2021-07-10T13:33:13Z</time>
      </trkpt>
      <trkpt lat="44.12143" lon="6.72583">
        <ele>2094.561218496</ele>
        <time>2021-07-10T13:33:15Z</time>
      </trkpt>
      <trkpt lat="44.12144" lon="6.72583">
        <ele>2095.5611854235</ele>
        <time>2021-07-10T13:33:16Z</time>
      </trkpt>
      <trkpt lat="44.12144" lon="6.72583">
        <ele>2095.5611927585</ele>
        <time>2021-07-10T13:33:17Z</time>
      </trkpt>
      <trkpt lat="44.12143" lon="6.72583">
        <ele>2095.5612257044</ele>
        <time>2021-07-10T13:33:19Z</time>
      </trkpt>
      <trkpt lat="44.12143" lon="6.72584">
        <ele>2094.5612125989</ele>
        <time>2021-07-10T13:33:20Z</time>
      </trkpt>
      <trkpt lat="44.12143" lon="6.72584">
        <ele>2094.5612162539</ele>
        <time>2021-07-10T13:33:21Z</time>
      </trkpt>
      <trkpt lat="44.12142" lon="6.72585">
        <ele>2093.5612282024</ele>
        <time>2021-07-10T13:33:25Z</time>
      </trkpt>
      <trkpt lat="44.12142" lon="6.72585">
        <ele>2094.5612291048</ele>
        <time>2021-07-10T13:33:26Z</time>
      </trkpt>
      <trkpt lat="44.12142" lon="6.72586">
        <ele>2095.5612215405</ele>
        <time>2021-07-10T13:33:27Z</time>
      </trkpt>
      <trkpt lat="44.12141" lon="6.72587">
        <ele>2095.5612205432</ele>
        <time>2021-07-10T13:33:28Z</time>
      </trkpt>
      <trkpt lat="44.12141" lon="6.72588">
        <ele>2094.5612151697</ele>
        <time>2021-07-10T13:33:33Z</time>
      </trkpt>
      <trkpt lat="44.12141" lon="6.72589">
        <ele>2093.5612104935</ele>
        <time>2021-07-10T13:33:35Z</time>
      </trkpt>
      <trkpt lat="44.1214" lon="6.7259">
        <ele>2093.5612031184</ele>
        <time>2021-07-10T13:33:39Z</time>
      </trkpt>
      <trkpt lat="44.12142" lon="6.72589">
        <ele>2092.5611849634</ele>
        <time>2021-07-10T13:33:40Z</time>
      </trkpt>
      <trkpt lat="44.12142" lon="6.72588">
        <ele>2092.5611611038</ele>
        <time>2021-07-10T13:33:42Z</time>
      </trkpt>
      <trkpt lat="44.12143" lon="6.72588">
        <ele>2092.5611644445</ele>
        <time>2021-07-10T13:33:48Z</time>
      </trkpt>
      <trkpt lat="44.12143" lon="6.7259">
        <ele>2091.5611138989</ele>
        <time>2021-07-10T13:33:50Z</time>
      </trkpt>
      <trkpt lat="44.12142" lon="6.72591">
        <ele>2090.5611316524</ele>
        <time>2021-07-10T13:33:53Z</time>
      </trkpt>
      <trkpt lat="44.12143" lon="6.72591">
        <ele>2089.5610897145</ele>
        <time>2021-07-10T13:33:55Z</time>
      </trkpt>
      <trkpt lat="44.12144" lon="6.72591">
        <ele>2089.5610605533</ele>
        <time>2021-07-10T13:33:57Z</time>
      </trkpt>
      <trkpt lat="44.12144" lon="6.72593">
        <ele>2088.5610082571</ele>
        <time>2021-07-10T13:33:59Z</time>
      </trkpt>
      <trkpt lat="44.12144" lon="6.72593">
        <ele>2089.5610165061</ele>
        <time>2021-07-10T13:34:05Z</time>
      </trkpt>
      <trkpt lat="44.12143" lon="6.72594">
        <ele>2089.5610226692</ele>
        <time>2021-07-10T13:34:06Z</time>
      </trkpt>
      <trkpt lat="44.12142" lon="6.72595">
        <ele>2089.5610305082</ele>
        <time>2021-07-10T13:34:07Z</time>
      </trkpt>
      <trkpt lat="44.12142" lon="6.72595">
        <ele>2089.5610340525</ele>
        <time>2021-07-10T13:34:16Z</time>
      </trkpt>
      <trkpt lat="44.12142" lon="6.72597">
        <ele>2088.5609942366</ele>
        <time>2021-07-10T13:34:18Z</time>
      </trkpt>
      <trkpt lat="44.12143" lon="6.72598">
        <ele>2087.5609716226</ele>
        <time>2021-07-10T13:34:20Z</time>
      </trkpt>
      <trkpt lat="44.12143" lon="6.72599">
        <ele>2087.5609384249</ele>
        <time>2021-07-10T13:34:21Z</time>
      </trkpt>
      <trkpt lat="44.12143" lon="6.726">
        <ele>2086.5609310154</ele>
        <time>2021-07-10T13:34:24Z</time>
      </trkpt>
      <trkpt lat="44.12142" lon="6.726">
        <ele>2086.5609445279</ele>
        <time>2021-07-10T13:34:26Z</time>
      </trkpt>
      <trkpt lat="44.12142" lon="6.72601">
        <ele>2086.5609275185</ele>
        <time>2021-07-10T13:34:29Z</time>
      </trkpt>
      <trkpt lat="44.12143" lon="6.72602">
        <ele>2086.5608923676</ele>
        <time>2021-07-10T13:34:30Z</time>
      </trkpt>
      <trkpt lat="44.12142" lon="6.72603">
        <ele>2086.5608786712</ele>
        <time>2021-07-10T13:34:31Z</time>
      </trkpt>
      <trkpt lat="44.12142" lon="6.72604">
        <ele>2086.5608731021</ele>
        <time>2021-07-10T13:34:32Z</time>
      </trkpt>
      <trkpt lat="44.12142" lon="6.72605">
        <ele>2085.5608720151</ele>
        <time>2021-07-10T13:34:36Z</time>
      </trkpt>
      <trkpt lat="44.12141" lon="6.72607">
        <ele>2086.5608559045</ele>
        <time>2021-07-10T13:34:38Z</time>
      </trkpt>
      <trkpt lat="44.1214" lon="6.72608">
        <ele>2085.5608546923</ele>
        <time>2021-07-10T13:34:39Z</time>
      </trkpt>
      <trkpt lat="44.12141" lon="6.72608">
        <ele>2086.5608383759</ele>
        <time>2021-07-10T13:34:43Z</time>
      </trkpt>
      <trkpt lat="44.12141" lon="6.72609">
        <ele>2086.5608053782</ele>
        <time>2021-07-10T13:34:51Z</time>
      </trkpt>
      <trkpt lat="44.12142" lon="6.72608">
        <ele>2086.5607756476</ele>
        <time>2021-07-10T13:34:53Z</time>
      </trkpt>
      <trkpt lat="44.12143" lon="6.72609">
        <ele>2087.5607285425</ele>
        <time>2021-07-10T13:34:56Z</time>
      </trkpt>
      <trkpt lat="44.12144" lon="6.7261">
        <ele>2087.5607006848</ele>
        <time>2021-07-10T13:34:57Z</time>
      </trkpt>
      <trkpt lat="44.12143" lon="6.72611">
        <ele>2087.5606869595</ele>
        <time>2021-07-10T13:34:59Z</time>
      </trkpt>
      <trkpt lat="44.12144" lon="6.72612">
        <ele>2086.5606484021</ele>
        <time>2021-07-10T13:35:00Z</time>
      </trkpt>
      <trkpt lat="44.12144" lon="6.72613">
        <ele>2085.5606199238</ele>
        <time>2021-07-10T13:35:01Z</time>
      </trkpt>
      <trkpt lat="44.12145" lon="6.72615">
        <ele>2085.5605557812</ele>
        <time>2021-07-10T13:35:03Z</time>
      </trkpt>
      <trkpt lat="44.12146" lon="6.72615">
        <ele>2081.5605357924</ele>
        <time>2021-07-10T13:35:10Z</time>
      </trkpt>
      <trkpt lat="44.12146" lon="6.72616">
        <ele>2080.5605108825</ele>
        <time>2021-07-10T13:35:11Z</time>
      </trkpt>
      <trkpt lat="44.12145" lon="6.72616">
        <ele>2080.5605127417</ele>
        <time>2021-07-10T13:35:16Z</time>
      </trkpt>
      <trkpt lat="44.12146" lon="6.72616">
        <ele>2078.5604781197</ele>
        <time>2021-07-10T13:35:20Z</time>
      </trkpt>
      <trkpt lat="44.12146" lon="6.72617">
        <ele>2076.5604683912</ele>
        <time>2021-07-10T13:35:21Z</time>
      </trkpt>
      <trkpt lat="44.12147" lon="6.72618">
        <ele>2076.5604328126</ele>
        <time>2021-07-10T13:35:23Z</time>
      </trkpt>
      <trkpt lat="44.12146" lon="6.72619">
        <ele>2075.5604211413</ele>
        <time>2021-07-10T13:35:25Z</time>
      </trkpt>
      <trkpt lat="44.12146" lon="6.72619">
        <ele>2075.5604211413</ele>
        <time>2021-07-10T13:35:26Z</time>
      </trkpt>
      <trkpt lat="44.12146" lon="6.72621">
        <ele>2076.5604039099</ele>
        <time>2021-07-10T13:35:27Z</time>
      </trkpt>
      <trkpt lat="44.12146" lon="6.72621">
        <ele>2077.5604060801</ele>
        <time>2021-07-10T13:35:29Z</time>
      </trkpt>
      <trkpt lat="44.12145" lon="6.72622">
        <ele>2077.5604043192</ele>
        <time>2021-07-10T13:35:30Z</time>
      </trkpt>
      <trkpt lat="44.12145" lon="6.72623">
        <ele>2076.5604145109</ele>
        <time>2021-07-10T13:35:31Z</time>
      </trkpt>
      <trkpt lat="44.12143" lon="6.72624">
        <ele>2076.5604283413</ele>
        <time>2021-07-10T13:35:33Z</time>
      </trkpt>
      <trkpt lat="44.12143" lon="6.72625">
        <ele>2076.5604208791</ele>
        <time>2021-07-10T13:35:35Z</time>
      </trkpt>
      <trkpt lat="44.12144" lon="6.72625">
        <ele>2076.5603866886</ele>
        <time>2021-07-10T13:35:36Z</time>
      </trkpt>
      <trkpt lat="44.12145" lon="6.72625">
        <ele>2076.560363557</ele>
        <time>2021-07-10T13:35:37Z</time>
      </trkpt>
      <trkpt lat="44.12145" lon="6.72625">
        <ele>2075.560348196</ele>
        <time>2021-07-10T13:35:40Z</time>
      </trkpt>
      <trkpt lat="44.12146" lon="6.72627">
        <ele>2076.5602955193</ele>
        <time>2021-07-10T13:35:41Z</time>
      </trkpt>
      <trkpt lat="44.12146" lon="6.72628">
        <ele>2077.5602601529</ele>
        <time>2021-07-10T13:35:43Z</time>
      </trkpt>
      <trkpt lat="44.12147" lon="6.72629">
        <ele>2077.560223078</ele>
        <time>2021-07-10T13:35:46Z</time>
      </trkpt>
      <trkpt lat="44.12147" lon="6.72629">
        <ele>2076.5601904893</ele>
        <time>2021-07-10T13:35:47Z</time>
      </trkpt>
      <trkpt lat="44.12147" lon="6.7263">
        <ele>2076.560177138</ele>
        <time>2021-07-10T13:35:48Z</time>
      </trkpt>
      <trkpt lat="44.12148" lon="6.7263">
        <ele>2075.5601300626</ele>
        <time>2021-07-10T13:35:50Z</time>
      </trkpt>
      <trkpt lat="44.12149" lon="6.7263">
        <ele>2075.5601090831</ele>
        <time>2021-07-10T13:35:51Z</time>
      </trkpt>
      <trkpt lat="44.1215" lon="6.72631">
        <ele>2075.5600590611</ele>
        <time>2021-07-10T13:35:53Z</time>
      </trkpt>
      <trkpt lat="44.12149" lon="6.72633">
        <ele>2074.5600448718</ele>
        <time>2021-07-10T13:35:55Z</time>
      </trkpt>
      <trkpt lat="44.12149" lon="6.72633">
        <ele>2074.5600577518</ele>
        <time>2021-07-10T13:35:57Z</time>
      </trkpt>
      <trkpt lat="44.1215" lon="6.72634">
        <ele>2074.5600096761</ele>
        <time>2021-07-10T13:35:58Z</time>
      </trkpt>
      <trkpt lat="44.1215" lon="6.72633">
        <ele>2073.5600194328</ele>
        <time>2021-07-10T13:35:59Z</time>
      </trkpt>
      <trkpt lat="44.12151" lon="6.72633">
        <ele>2073.5599872358</ele>
        <time>2021-07-10T13:36:01Z</time>
      </trkpt>
      <trkpt lat="44.12151" lon="6.72634">
        <ele>2072.55997288</ele>
        <time>2021-07-10T13:36:06Z</time>
      </trkpt>
      <trkpt lat="44.1215" lon="6.72635">
        <ele>2072.5599672271</ele>
        <time>2021-07-10T13:36:09Z</time>
      </trkpt>
      <trkpt lat="44.1215" lon="6.72636">
        <ele>2072.5599591555</ele>
        <time>2021-07-10T13:36:11Z</time>
      </trkpt>
      <trkpt lat="44.1215" lon="6.72637">
        <ele>2072.5599567433</ele>
        <time>2021-07-10T13:36:13Z</time>
      </trkpt>
      <trkpt lat="44.12149" lon="6.72637">
        <ele>2071.5599567626</ele>
        <time>2021-07-10T13:36:14Z</time>
      </trkpt>
      <trkpt lat="44.12149" lon="6.72638">
        <ele>2070.5599573231</ele>
        <time>2021-07-10T13:36:17Z</time>
      </trkpt>
      <trkpt lat="44.1215" lon="6.72637">
        <ele>2069.5599233831</ele>
        <time>2021-07-10T13:36:19Z</time>
      </trkpt>
      <trkpt lat="44.12151" lon="6.72638">
        <ele>2069.5598843251</ele>
        <time>2021-07-10T13:36:20Z</time>
      </trkpt>
      <trkpt lat="44.12151" lon="6.72639">
        <ele>2069.55987092</ele>
        <time>2021-07-10T13:36:21Z</time>
      </trkpt>
      <trkpt lat="44.12151" lon="6.7264">
        <ele>2068.5598410112</ele>
        <time>2021-07-10T13:36:23Z</time>
      </trkpt>
      <trkpt lat="44.12151" lon="6.7264">
        <ele>2068.5598410112</ele>
        <time>2021-07-10T13:36:25Z</time>
      </trkpt>
      <trkpt lat="44.12151" lon="6.72641">
        <ele>2067.5598384589</ele>
        <time>2021-07-10T13:36:26Z</time>
      </trkpt>
      <trkpt lat="44.12149" lon="6.72642">
        <ele>2066.5598748142</ele>
        <time>2021-07-10T13:36:27Z</time>
      </trkpt>
      <trkpt lat="44.12148" lon="6.72643">
        <ele>2066.5598724429</ele>
        <time>2021-07-10T13:36:29Z</time>
      </trkpt>
      <trkpt lat="44.12148" lon="6.72644">
        <ele>2066.5598539617</ele>
        <time>2021-07-10T13:36:30Z</time>
      </trkpt>
      <trkpt lat="44.12148" lon="6.72645">
        <ele>2066.5598580674</ele>
        <time>2021-07-10T13:36:31Z</time>
      </trkpt>
      <trkpt lat="44.12148" lon="6.72645">
        <ele>2066.5598627813</ele>
        <time>2021-07-10T13:36:37Z</time>
      </trkpt>
      <trkpt lat="44.12148" lon="6.72646">
        <ele>2066.5598284938</ele>
        <time>2021-07-10T13:36:40Z</time>
      </trkpt>
      <trkpt lat="44.12149" lon="6.72646">
        <ele>2065.5597957755</ele>
        <time>2021-07-10T13:36:45Z</time>
      </trkpt>
      <trkpt lat="44.12149" lon="6.72647">
        <ele>2064.5597745818</ele>
        <time>2021-07-10T13:36:46Z</time>
      </trkpt>
      <trkpt lat="44.1215" lon="6.72648">
        <ele>2062.5597407182</ele>
        <time>2021-07-10T13:36:53Z</time>
      </trkpt>
      <trkpt lat="44.1215" lon="6.72648">
        <ele>2062.5597315397</ele>
        <time>2021-07-10T13:36:54Z</time>
      </trkpt>
      <trkpt lat="44.12149" lon="6.7265">
        <ele>2062.5597189866</ele>
        <time>2021-07-10T13:36:55Z</time>
      </trkpt>
      <trkpt lat="44.12149" lon="6.72651">
        <ele>2061.5597228027</ele>
        <time>2021-07-10T13:36:56Z</time>
      </trkpt>
      <trkpt lat="44.12148" lon="6.72652">
        <ele>2061.5597260134</ele>
        <time>2021-07-10T13:36:57Z</time>
      </trkpt>
      <trkpt lat="44.12148" lon="6.72653">
        <ele>2061.5597133493</ele>
        <time>2021-07-10T13:36:58Z</time>
      </trkpt>
      <trkpt lat="44.12148" lon="6.72653">
        <ele>2060.559709217</ele>
        <time>2021-07-10T13:36:59Z</time>
      </trkpt>
      <trkpt lat="44.12147" lon="6.72655">
        <ele>2060.559690751</ele>
        <time>2021-07-10T13:37:02Z</time>
      </trkpt>
      <trkpt lat="44.12148" lon="6.72655">
        <ele>2060.5596613005</ele>
        <time>2021-07-10T13:37:03Z</time>
      </trkpt>
      <trkpt lat="44.12149" lon="6.72656">
        <ele>2059.5596188521</ele>
        <time>2021-07-10T13:37:04Z</time>
      </trkpt>
      <trkpt lat="44.1215" lon="6.72656">
        <ele>2060.5595673201</ele>
        <time>2021-07-10T13:37:05Z</time>
      </trkpt>
      <trkpt lat="44.1215" lon="6.72657">
        <ele>2060.5595431903</ele>
        <time>2021-07-10T13:37:06Z</time>
      </trkpt>
      <trkpt lat="44.12151" lon="6.72658">
        <ele>2059.5595045568</ele>
        <time>2021-07-10T13:37:08Z</time>
      </trkpt>
      <trkpt lat="44.12151" lon="6.7266">
        <ele>2059.5594753216</ele>
        <time>2021-07-10T13:37:10Z</time>
      </trkpt>
      <trkpt lat="44.12151" lon="6.7266">
        <ele>2059.5594667202</ele>
        <time>2021-07-10T13:37:11Z</time>
      </trkpt>
      <trkpt lat="44.1215" lon="6.72659">
        <ele>2059.5595055071</ele>
        <time>2021-07-10T13:37:13Z</time>
      </trkpt>
      <trkpt lat="44.1215" lon="6.7266">
        <ele>2058.5595067012</ele>
        <time>2021-07-10T13:37:14Z</time>
      </trkpt>
      <trkpt lat="44.1215" lon="6.72661">
        <ele>2057.5594652414</ele>
        <time>2021-07-10T13:37:15Z</time>
      </trkpt>
      <trkpt lat="44.12151" lon="6.72662">
        <ele>2057.5594355704</ele>
        <time>2021-07-10T13:37:18Z</time>
      </trkpt>
      <trkpt lat="44.1215" lon="6.72663">
        <ele>2057.5594382525</ele>
        <time>2021-07-10T13:37:19Z</time>
      </trkpt>
      <trkpt lat="44.1215" lon="6.72663">
        <ele>2057.5594413004</ele>
        <time>2021-07-10T13:37:20Z</time>
      </trkpt>
      <trkpt lat="44.12149" lon="6.72664">
        <ele>2055.5594488572</ele>
        <time>2021-07-10T13:37:24Z</time>
      </trkpt>
      <trkpt lat="44.12147" lon="6.72665">
        <ele>2053.5594875265</ele>
        <time>2021-07-10T13:37:25Z</time>
      </trkpt>
      <trkpt lat="44.12147" lon="6.72665">
        <ele>2053.5595056314</ele>
        <time>2021-07-10T13:37:26Z</time>
      </trkpt>
      <trkpt lat="44.12146" lon="6.72665">
        <ele>2052.5595328168</ele>
        <time>2021-07-10T13:37:30Z</time>
      </trkpt>
      <trkpt lat="44.12145" lon="6.72665">
        <ele>2051.5595730481</ele>
        <time>2021-07-10T13:37:31Z</time>
      </trkpt>
      <trkpt lat="44.12144" lon="6.72665">
        <ele>2051.5596001551</ele>
        <time>2021-07-10T13:37:33Z</time>
      </trkpt>
      <trkpt lat="44.12143" lon="6.72665">
        <ele>2050.5596423184</ele>
        <time>2021-07-10T13:37:35Z</time>
      </trkpt>
      <trkpt lat="44.12143" lon="6.72666">
        <ele>2049.5596346751</ele>
        <time>2021-07-10T13:37:37Z</time>
      </trkpt>
      <trkpt lat="44.12143" lon="6.72667">
        <ele>2050.5596270756</ele>
        <time>2021-07-10T13:37:38Z</time>
      </trkpt>
      <trkpt lat="44.12142" lon="6.72667">
        <ele>2049.5596377155</ele>
        <time>2021-07-10T13:37:47Z</time>
      </trkpt>
      <trkpt lat="44.12142" lon="6.72668">
        <ele>2048.5596329184</ele>
        <time>2021-07-10T13:37:49Z</time>
      </trkpt>
      <trkpt lat="44.12141" lon="6.72668">
        <ele>2048.5596642078</ele>
        <time>2021-07-10T13:37:50Z</time>
      </trkpt>
      <trkpt lat="44.12141" lon="6.72667">
        <ele>2047.55969417</ele>
        <time>2021-07-10T13:37:51Z</time>
      </trkpt>
      <trkpt lat="44.1214" lon="6.72668">
        <ele>2047.5596946405</ele>
        <time>2021-07-10T13:37:53Z</time>
      </trkpt>
      <trkpt lat="44.1214" lon="6.72669">
        <ele>2047.5596687512</ele>
        <time>2021-07-10T13:37:55Z</time>
      </trkpt>
      <trkpt lat="44.1214" lon="6.72669">
        <ele>2047.5596652895</ele>
        <time>2021-07-10T13:37:57Z</time>
      </trkpt>
      <trkpt lat="44.1214" lon="6.7267">
        <ele>2046.5596537106</ele>
        <time>2021-07-10T13:37:58Z</time>
      </trkpt>
      <trkpt lat="44.1214" lon="6.72671">
        <ele>2047.5596364976</ele>
        <time>2021-07-10T13:37:59Z</time>
      </trkpt>
      <trkpt lat="44.1214" lon="6.72672">
        <ele>2046.5596373741</ele>
        <time>2021-07-10T13:38:01Z</time>
      </trkpt>
      <trkpt lat="44.12139" lon="6.72673">
        <ele>2046.5596354615</ele>
        <time>2021-07-10T13:38:06Z</time>
      </trkpt>
      <trkpt lat="44.12139" lon="6.72673">
        <ele>2045.5596362824</ele>
        <time>2021-07-10T13:38:09Z</time>
      </trkpt>
      <trkpt lat="44.12139" lon="6.72675">
        <ele>2044.5596052809</ele>
        <time>2021-07-10T13:38:11Z</time>
      </trkpt>
      <trkpt lat="44.12139" lon="6.72675">
        <ele>2045.5596004093</ele>
        <time>2021-07-10T13:38:17Z</time>
      </trkpt>
      <trkpt lat="44.12137" lon="6.72675">
        <ele>2042.5596709135</ele>
        <time>2021-07-10T13:38:18Z</time>
      </trkpt>
      <trkpt lat="44.12137" lon="6.72677">
        <ele>2041.5596463551</ele>
        <time>2021-07-10T13:38:20Z</time>
      </trkpt>
      <trkpt lat="44.12137" lon="6.72678">
        <ele>2042.5596187038</ele>
        <time>2021-07-10T13:38:21Z</time>
      </trkpt>
      <trkpt lat="44.12137" lon="6.72678">
        <ele>2041.5596337347</ele>
        <time>2021-07-10T13:38:26Z</time>
      </trkpt>
      <trkpt lat="44.12135" lon="6.72677">
        <ele>2039.5596975948</ele>
        <time>2021-07-10T13:38:28Z</time>
      </trkpt>
      <trkpt lat="44.12134" lon="6.72676">
        <ele>2039.5597484049</ele>
        <time>2021-07-10T13:38:29Z</time>
      </trkpt>
      <trkpt lat="44.12134" lon="6.72676">
        <ele>2038.5597700184</ele>
        <time>2021-07-10T13:38:30Z</time>
      </trkpt>
      <trkpt lat="44.12133" lon="6.72676">
        <ele>2037.559799602</ele>
        <time>2021-07-10T13:38:32Z</time>
      </trkpt>
      <trkpt lat="44.12133" lon="6.72675">
        <ele>2037.5598180157</ele>
        <time>2021-07-10T13:38:34Z</time>
      </trkpt>
      <trkpt lat="44.12132" lon="6.72676">
        <ele>2037.559821767</ele>
        <time>2021-07-10T13:38:36Z</time>
      </trkpt>
      <trkpt lat="44.12132" lon="6.72677">
        <ele>2036.5597984238</ele>
        <time>2021-07-10T13:38:38Z</time>
      </trkpt>
      <trkpt lat="44.12133" lon="6.72679">
        <ele>2037.5597454696</ele>
        <time>2021-07-10T13:38:40Z</time>
      </trkpt>
      <trkpt lat="44.12133" lon="6.7268">
        <ele>2036.5597197374</ele>
        <time>2021-07-10T13:38:41Z</time>
      </trkpt>
      <trkpt lat="44.12133" lon="6.7268">
        <ele>2036.5597087152</ele>
        <time>2021-07-10T13:38:42Z</time>
      </trkpt>
      <trkpt lat="44.12133" lon="6.72682">
        <ele>2037.5596873033</ele>
        <time>2021-07-10T13:38:44Z</time>
      </trkpt>
      <trkpt lat="44.12133" lon="6.72682">
        <ele>2037.5596873033</ele>
        <time>2021-07-10T13:38:45Z</time>
      </trkpt>
      <trkpt lat="44.12133" lon="6.72684">
        <ele>2038.5596412904</ele>
        <time>2021-07-10T13:38:46Z</time>
      </trkpt>
      <trkpt lat="44.12133" lon="6.72685">
        <ele>2037.5596214673</ele>
        <time>2021-07-10T13:38:52Z</time>
      </trkpt>
      <trkpt lat="44.12133" lon="6.72685">
        <ele>2037.559624719</ele>
        <time>2021-07-10T13:38:53Z</time>
      </trkpt>
      <trkpt lat="44.12133" lon="6.72687">
        <ele>2036.5596012673</ele>
        <time>2021-07-10T13:38:55Z</time>
      </trkpt>
      <trkpt lat="44.12133" lon="6.72687">
        <ele>2036.5595941264</ele>
        <time>2021-07-10T13:38:56Z</time>
      </trkpt>
      <trkpt lat="44.12132" lon="6.72688">
        <ele>2037.5596104314</ele>
        <time>2021-07-10T13:38:57Z</time>
      </trkpt>
      <trkpt lat="44.12131" lon="6.72689">
        <ele>2037.5596174138</ele>
        <time>2021-07-10T13:38:58Z</time>
      </trkpt>
      <trkpt lat="44.12131" lon="6.7269">
        <ele>2037.559596284</ele>
        <time>2021-07-10T13:38:59Z</time>
      </trkpt>
      <trkpt lat="44.12131" lon="6.72692">
        <ele>2036.559567988</ele>
        <time>2021-07-10T13:39:00Z</time>
      </trkpt>
      <trkpt lat="44.12131" lon="6.72693">
        <ele>2037.5595326554</ele>
        <time>2021-07-10T13:39:01Z</time>
      </trkpt>
      <trkpt lat="44.12131" lon="6.72694">
        <ele>2036.5595120774</ele>
        <time>2021-07-10T13:39:04Z</time>
      </trkpt>
      <trkpt lat="44.12132" lon="6.72695">
        <ele>2035.5594872593</ele>
        <time>2021-07-10T13:39:06Z</time>
      </trkpt>
      <trkpt lat="44.12132" lon="6.72695">
        <ele>2035.5594757289</ele>
        <time>2021-07-10T13:39:10Z</time>
      </trkpt>
      <trkpt lat="44.12131" lon="6.72697">
        <ele>2034.5594496235</ele>
        <time>2021-07-10T13:39:11Z</time>
      </trkpt>
      <trkpt lat="44.12131" lon="6.72697">
        <ele>2034.5594451049</ele>
        <time>2021-07-10T13:39:12Z</time>
      </trkpt>
      <trkpt lat="44.12131" lon="6.72698">
        <ele>2032.5594385976</ele>
        <time>2021-07-10T13:39:15Z</time>
      </trkpt>
      <trkpt lat="44.12131" lon="6.72699">
        <ele>2031.5594108816</ele>
        <time>2021-07-10T13:39:17Z</time>
      </trkpt>
      <trkpt lat="44.12132" lon="6.72699">
        <ele>2031.5593941072</ele>
        <time>2021-07-10T13:39:19Z</time>
      </trkpt>
      <trkpt lat="44.12132" lon="6.727">
        <ele>2031.5593672976</ele>
        <time>2021-07-10T13:39:20Z</time>
      </trkpt>
      <trkpt lat="44.12132" lon="6.72701">
        <ele>2032.5593521826</ele>
        <time>2021-07-10T13:39:23Z</time>
      </trkpt>
      <trkpt lat="44.12132" lon="6.72702">
        <ele>2032.5593192834</ele>
        <time>2021-07-10T13:39:25Z</time>
      </trkpt>
      <trkpt lat="44.12132" lon="6.72703">
        <ele>2031.5593207185</ele>
        <time>2021-07-10T13:39:26Z</time>
      </trkpt>
      <trkpt lat="44.12132" lon="6.72704">
        <ele>2031.5593073794</ele>
        <time>2021-07-10T13:39:32Z</time>
      </trkpt>
      <trkpt lat="44.12131" lon="6.72705">
        <ele>2031.559296198</ele>
        <time>2021-07-10T13:39:33Z</time>
      </trkpt>
      <trkpt lat="44.12131" lon="6.72706">
        <ele>2031.5592889367</ele>
        <time>2021-07-10T13:39:35Z</time>
      </trkpt>
      <trkpt lat="44.12131" lon="6.72706">
        <ele>2031.559267543</ele>
        <time>2021-07-10T13:39:36Z</time>
      </trkpt>
      <trkpt lat="44.12132" lon="6.72707">
        <ele>2031.5592333883</ele>
        <time>2021-07-10T13:39:38Z</time>
      </trkpt>
      <trkpt lat="44.12133" lon="6.72706">
        <ele>2031.559209348</ele>
        <time>2021-07-10T13:39:40Z</time>
      </trkpt>
      <trkpt lat="44.12133" lon="6.72707">
        <ele>2031.559183506</ele>
        <time>2021-07-10T13:39:42Z</time>
      </trkpt>
      <trkpt lat="44.12134" lon="6.72709">
        <ele>2030.5591311785</ele>
        <time>2021-07-10T13:39:44Z</time>
      </trkpt>
      <trkpt lat="44.12134" lon="6.72711">
        <ele>2030.559095279</ele>
        <time>2021-07-10T13:39:45Z</time>
      </trkpt>
      <trkpt lat="44.12134" lon="6.72712">
        <ele>2029.5590811032</ele>
        <time>2021-07-10T13:39:46Z</time>
      </trkpt>
      <trkpt lat="44.12133" lon="6.72713">
        <ele>2028.559084699</ele>
        <time>2021-07-10T13:39:49Z</time>
      </trkpt>
      <trkpt lat="44.12133" lon="6.72714">
        <ele>2027.5590559827</ele>
        <time>2021-07-10T13:39:50Z</time>
      </trkpt>
      <trkpt lat="44.12134" lon="6.72714">
        <ele>2026.5590275582</ele>
        <time>2021-07-10T13:39:51Z</time>
      </trkpt>
      <trkpt lat="44.12133" lon="6.72715">
        <ele>2027.5590342402</ele>
        <time>2021-07-10T13:39:53Z</time>
      </trkpt>
      <trkpt lat="44.12133" lon="6.72716">
        <ele>2027.5590400728</ele>
        <time>2021-07-10T13:39:57Z</time>
      </trkpt>
      <trkpt lat="44.12131" lon="6.72717">
        <ele>2026.5590724264</ele>
        <time>2021-07-10T13:39:59Z</time>
      </trkpt>
      <trkpt lat="44.12131" lon="6.72718">
        <ele>2025.5590719366</ele>
        <time>2021-07-10T13:40:00Z</time>
      </trkpt>
      <trkpt lat="44.12131" lon="6.72718">
        <ele>2025.559066203</ele>
        <time>2021-07-10T13:40:02Z</time>
      </trkpt>
      <trkpt lat="44.12131" lon="6.72719">
        <ele>2025.5590171159</ele>
        <time>2021-07-10T13:40:03Z</time>
      </trkpt>
      <trkpt lat="44.12132" lon="6.7272">
        <ele>2025.5589793623</ele>
        <time>2021-07-10T13:40:04Z</time>
      </trkpt>
      <trkpt lat="44.12132" lon="6.72721">
        <ele>2024.5589518874</ele>
        <time>2021-07-10T13:40:05Z</time>
      </trkpt>
      <trkpt lat="44.12132" lon="6.72722">
        <ele>2024.5589255893</ele>
        <time>2021-07-10T13:40:06Z</time>
      </trkpt>
      <trkpt lat="44.12133" lon="6.72723">
        <ele>2024.5589025474</ele>
        <time>2021-07-10T13:40:07Z</time>
      </trkpt>
      <trkpt lat="44.12133" lon="6.72724">
        <ele>2023.5588846362</ele>
        <time>2021-07-10T13:40:09Z</time>
      </trkpt>
      <trkpt lat="44.12133" lon="6.72724">
        <ele>2023.5588614235</ele>
        <time>2021-07-10T13:40:10Z</time>
      </trkpt>
      <trkpt lat="44.12134" lon="6.72724">
        <ele>2024.5588329133</ele>
        <time>2021-07-10T13:40:11Z</time>
      </trkpt>
      <trkpt lat="44.12134" lon="6.72725">
        <ele>2024.558815541</ele>
        <time>2021-07-10T13:40:14Z</time>
      </trkpt>
      <trkpt lat="44.12134" lon="6.72727">
        <ele>2023.5587827856</ele>
        <time>2021-07-10T13:40:15Z</time>
      </trkpt>
      <trkpt lat="44.12133" lon="6.72727">
        <ele>2023.5588116529</ele>
        <time>2021-07-10T13:40:16Z</time>
      </trkpt>
      <trkpt lat="44.12133" lon="6.72728">
        <ele>2023.5588091719</ele>
        <time>2021-07-10T13:40:18Z</time>
      </trkpt>
      <trkpt lat="44.12134" lon="6.72729">
        <ele>2022.5587447724</ele>
        <time>2021-07-10T13:40:20Z</time>
      </trkpt>
      <trkpt lat="44.12134" lon="6.7273">
        <ele>2022.5586948789</ele>
        <time>2021-07-10T13:40:21Z</time>
      </trkpt>
      <trkpt lat="44.12134" lon="6.7273">
        <ele>2022.5586902318</ele>
        <time>2021-07-10T13:40:24Z</time>
      </trkpt>
      <trkpt lat="44.12134" lon="6.72732">
        <ele>2022.5586816822</ele>
        <time>2021-07-10T13:40:25Z</time>
      </trkpt>
      <trkpt lat="44.12134" lon="6.72732">
        <ele>2022.5586737991</ele>
        <time>2021-07-10T13:40:26Z</time>
      </trkpt>
      <trkpt lat="44.12134" lon="6.72734">
        <ele>2021.5586522311</ele>
        <time>2021-07-10T13:40:28Z</time>
      </trkpt>
      <trkpt lat="44.12133" lon="6.72735">
        <ele>2020.5586532506</ele>
        <time>2021-07-10T13:40:30Z</time>
      </trkpt>
      <trkpt lat="44.12133" lon="6.72735">
        <ele>2020.558636038</ele>
        <time>2021-07-10T13:40:31Z</time>
      </trkpt>
      <trkpt lat="44.12134" lon="6.72736">
        <ele>2020.5586083246</ele>
        <time>2021-07-10T13:40:32Z</time>
      </trkpt>
      <trkpt lat="44.12134" lon="6.72737">
        <ele>2020.5585580395</ele>
        <time>2021-07-10T13:40:34Z</time>
      </trkpt>
      <trkpt lat="44.12135" lon="6.72738">
        <ele>2019.5585320239</ele>
        <time>2021-07-10T13:40:36Z</time>
      </trkpt>
      <trkpt lat="44.12135" lon="6.72739">
        <ele>2019.5584938243</ele>
        <time>2021-07-10T13:40:37Z</time>
      </trkpt>
      <trkpt lat="44.12136" lon="6.72739">
        <ele>2018.5584629141</ele>
        <time>2021-07-10T13:40:39Z</time>
      </trkpt>
      <trkpt lat="44.12137" lon="6.7274">
        <ele>2017.5584236736</ele>
        <time>2021-07-10T13:40:41Z</time>
      </trkpt>
      <trkpt lat="44.12137" lon="6.72741">
        <ele>2017.5584039138</ele>
        <time>2021-07-10T13:40:42Z</time>
      </trkpt>
      <trkpt lat="44.12137" lon="6.72742">
        <ele>2015.558366223</ele>
        <time>2021-07-10T13:40:44Z</time>
      </trkpt>
      <trkpt lat="44.12138" lon="6.72742">
        <ele>2015.5583291425</ele>
        <time>2021-07-10T13:40:45Z</time>
      </trkpt>
      <trkpt lat="44.12138" lon="6.72742">
        <ele>2014.5583192181</ele>
        <time>2021-07-10T13:40:46Z</time>
      </trkpt>
      <trkpt lat="44.12138" lon="6.72744">
        <ele>2012.5582875978</ele>
        <time>2021-07-10T13:40:48Z</time>
      </trkpt>
      <trkpt lat="44.12139" lon="6.72745">
        <ele>2012.5582445332</ele>
        <time>2021-07-10T13:40:49Z</time>
      </trkpt>
      <trkpt lat="44.1214" lon="6.72746">
        <ele>2012.5582104086</ele>
        <time>2021-07-10T13:40:50Z</time>
      </trkpt>
      <trkpt lat="44.1214" lon="6.72746">
        <ele>2011.5581824952</ele>
        <time>2021-07-10T13:40:51Z</time>
      </trkpt>
      <trkpt lat="44.1214" lon="6.72748">
        <ele>2010.5581189946</ele>
        <time>2021-07-10T13:40:53Z</time>
      </trkpt>
      <trkpt lat="44.12141" lon="6.7275">
        <ele>2009.5580760389</ele>
        <time>2021-07-10T13:40:55Z</time>
      </trkpt>
      <trkpt lat="44.12141" lon="6.7275">
        <ele>2008.5580699354</ele>
        <time>2021-07-10T13:40:56Z</time>
      </trkpt>
      <trkpt lat="44.12141" lon="6.72751">
        <ele>2006.5580467237</ele>
        <time>2021-07-10T13:40:57Z</time>
      </trkpt>
      <trkpt lat="44.1214" lon="6.72752">
        <ele>2004.5580557901</ele>
        <time>2021-07-10T13:41:01Z</time>
      </trkpt>
      <trkpt lat="44.1214" lon="6.72752">
        <ele>2005.5580629459</ele>
        <time>2021-07-10T13:41:32Z</time>
      </trkpt>
      <trkpt lat="44.12141" lon="6.72753">
        <ele>2005.5580126233</ele>
        <time>2021-07-10T13:41:34Z</time>
      </trkpt>
      <trkpt lat="44.12141" lon="6.72752">
        <ele>2005.558028662</ele>
        <time>2021-07-10T13:41:36Z</time>
      </trkpt>
      <trkpt lat="44.12141" lon="6.72751">
        <ele>2005.5580519312</ele>
        <time>2021-07-10T13:41:58Z</time>
      </trkpt>
      <trkpt lat="44.12141" lon="6.72755">
        <ele>2006.5579521421</ele>
        <time>2021-07-10T13:42:00Z</time>
      </trkpt>
      <trkpt lat="44.12142" lon="6.72756">
        <ele>2006.5579344561</ele>
        <time>2021-07-10T13:42:01Z</time>
      </trkpt>
      <trkpt lat="44.12142" lon="6.72756">
        <ele>2005.5579135675</ele>
        <time>2021-07-10T13:42:02Z</time>
      </trkpt>
      <trkpt lat="44.12142" lon="6.72757">
        <ele>2004.5578891616</ele>
        <time>2021-07-10T13:42:04Z</time>
      </trkpt>
      <trkpt lat="44.12144" lon="6.72757">
        <ele>2004.5578413122</ele>
        <time>2021-07-10T13:42:05Z</time>
      </trkpt>
      <trkpt lat="44.12144" lon="6.72758">
        <ele>2004.5578000448</ele>
        <time>2021-07-10T13:42:06Z</time>
      </trkpt>
      <trkpt lat="44.12145" lon="6.72758">
        <ele>2003.5577445484</ele>
        <time>2021-07-10T13:42:08Z</time>
      </trkpt>
      <trkpt lat="44.12146" lon="6.72759">
        <ele>2003.5576993018</ele>
        <time>2021-07-10T13:42:10Z</time>
      </trkpt>
      <trkpt lat="44.12145" lon="6.72761">
        <ele>2004.5577094618</ele>
        <time>2021-07-10T13:42:11Z</time>
      </trkpt>
      <trkpt lat="44.12145" lon="6.72762">
        <ele>2004.5577151307</ele>
        <time>2021-07-10T13:42:12Z</time>
      </trkpt>
      <trkpt lat="44.12144" lon="6.72763">
        <ele>2003.5577089941</ele>
        <time>2021-07-10T13:42:14Z</time>
      </trkpt>
      <trkpt lat="44.12143" lon="6.72764">
        <ele>2003.557710273</ele>
        <time>2021-07-10T13:42:15Z</time>
      </trkpt>
      <trkpt lat="44.12144" lon="6.72764">
        <ele>2003.5576878342</ele>
        <time>2021-07-10T13:42:18Z</time>
      </trkpt>
      <trkpt lat="44.12144" lon="6.72764">
        <ele>2002.5576699025</ele>
        <time>2021-07-10T13:42:21Z</time>
      </trkpt>
      <trkpt lat="44.12145" lon="6.72762">
        <ele>2001.5576896213</ele>
        <time>2021-07-10T13:42:22Z</time>
      </trkpt>
      <trkpt lat="44.12145" lon="6.72762">
        <ele>1999.5576937844</ele>
        <time>2021-07-10T13:42:23Z</time>
      </trkpt>
      <trkpt lat="44.12146" lon="6.72762">
        <ele>1998.5576497365</ele>
        <time>2021-07-10T13:42:24Z</time>
      </trkpt>
      <trkpt lat="44.12146" lon="6.72764">
        <ele>1998.5576282127</ele>
        <time>2021-07-10T13:42:25Z</time>
      </trkpt>
      <trkpt lat="44.12146" lon="6.72765">
        <ele>1998.5576177238</ele>
        <time>2021-07-10T13:42:26Z</time>
      </trkpt>
      <trkpt lat="44.12145" lon="6.72766">
        <ele>1998.5576059538</ele>
        <time>2021-07-10T13:42:27Z</time>
      </trkpt>
      <trkpt lat="44.12145" lon="6.72766">
        <ele>1998.5575976864</ele>
        <time>2021-07-10T13:42:30Z</time>
      </trkpt>
      <trkpt lat="44.12144" lon="6.72767">
        <ele>1997.5576255704</ele>
        <time>2021-07-10T13:42:31Z</time>
      </trkpt>
      <trkpt lat="44.12144" lon="6.72767">
        <ele>1997.5576238593</ele>
        <time>2021-07-10T13:42:32Z</time>
      </trkpt>
      <trkpt lat="44.12143" lon="6.72768">
        <ele>1997.5576493137</ele>
        <time>2021-07-10T13:42:34Z</time>
      </trkpt>
      <trkpt lat="44.12143" lon="6.72769">
        <ele>1998.5576462303</ele>
        <time>2021-07-10T13:42:35Z</time>
      </trkpt>
      <trkpt lat="44.12142" lon="6.7277">
        <ele>1997.5576628451</ele>
        <time>2021-07-10T13:42:36Z</time>
      </trkpt>
      <trkpt lat="44.1214" lon="6.72772">
        <ele>1997.5576796354</ele>
        <time>2021-07-10T13:42:38Z</time>
      </trkpt>
      <trkpt lat="44.12139" lon="6.72774">
        <ele>1996.5576614921</ele>
        <time>2021-07-10T13:42:39Z</time>
      </trkpt>
      <trkpt lat="44.1214" lon="6.72775">
        <ele>1996.5576284103</ele>
        <time>2021-07-10T13:42:41Z</time>
      </trkpt>
      <trkpt lat="44.1214" lon="6.72776">
        <ele>1997.5576021319</ele>
        <time>2021-07-10T13:42:42Z</time>
      </trkpt>
      <trkpt lat="44.12139" lon="6.72777">
        <ele>1997.5576276212</ele>
        <time>2021-07-10T13:42:44Z</time>
      </trkpt>
      <trkpt lat="44.12138" lon="6.72777">
        <ele>1996.5576508501</ele>
        <time>2021-07-10T13:42:45Z</time>
      </trkpt>
      <trkpt lat="44.12138" lon="6.72778">
        <ele>1997.557643115</ele>
        <time>2021-07-10T13:42:46Z</time>
      </trkpt>
      <trkpt lat="44.12138" lon="6.72779">
        <ele>1996.5576288471</ele>
        <time>2021-07-10T13:42:47Z</time>
      </trkpt>
      <trkpt lat="44.12137" lon="6.72779">
        <ele>1996.5576520891</ele>
        <time>2021-07-10T13:42:48Z</time>
      </trkpt>
      <trkpt lat="44.12136" lon="6.7278">
        <ele>1995.5576671092</ele>
        <time>2021-07-10T13:42:50Z</time>
      </trkpt>
      <trkpt lat="44.12136" lon="6.72781">
        <ele>1996.5576509136</ele>
        <time>2021-07-10T13:42:53Z</time>
      </trkpt>
      <trkpt lat="44.12138" lon="6.72781">
        <ele>1996.5575762398</ele>
        <time>2021-07-10T13:42:55Z</time>
      </trkpt>
      <trkpt lat="44.12138" lon="6.72782">
        <ele>1996.5575520354</ele>
        <time>2021-07-10T13:42:57Z</time>
      </trkpt>
      <trkpt lat="44.12137" lon="6.72783">
        <ele>1996.5575697985</ele>
        <time>2021-07-10T13:42:59Z</time>
      </trkpt>
      <trkpt lat="44.12137" lon="6.72784">
        <ele>1995.5575695107</ele>
        <time>2021-07-10T13:43:00Z</time>
      </trkpt>
      <trkpt lat="44.12136" lon="6.72786">
        <ele>1995.5575567512</ele>
        <time>2021-07-10T13:43:01Z</time>
      </trkpt>
      <trkpt lat="44.12136" lon="6.72786">
        <ele>1995.5575562032</ele>
        <time>2021-07-10T13:43:02Z</time>
      </trkpt>
      <trkpt lat="44.12137" lon="6.72787">
        <ele>1995.5575051661</ele>
        <time>2021-07-10T13:43:03Z</time>
      </trkpt>
      <trkpt lat="44.12138" lon="6.72788">
        <ele>1996.5574519572</ele>
        <time>2021-07-10T13:43:04Z</time>
      </trkpt>
      <trkpt lat="44.12137" lon="6.72788">
        <ele>1997.5574546045</ele>
        <time>2021-07-10T13:43:05Z</time>
      </trkpt>
      <trkpt lat="44.12136" lon="6.72789">
        <ele>1995.5574929664</ele>
        <time>2021-07-10T13:43:06Z</time>
      </trkpt>
      <trkpt lat="44.12136" lon="6.72789">
        <ele>1994.5575161599</ele>
        <time>2021-07-10T13:43:08Z</time>
      </trkpt>
      <trkpt lat="44.12137" lon="6.72788">
        <ele>1994.5574833856</ele>
        <time>2021-07-10T13:43:09Z</time>
      </trkpt>
      <trkpt lat="44.12137" lon="6.72789">
        <ele>1993.5574448679</ele>
        <time>2021-07-10T13:43:10Z</time>
      </trkpt>
      <trkpt lat="44.12137" lon="6.7279">
        <ele>1993.5574298593</ele>
        <time>2021-07-10T13:43:11Z</time>
      </trkpt>
      <trkpt lat="44.12137" lon="6.72791">
        <ele>1993.5574197885</ele>
        <time>2021-07-10T13:43:12Z</time>
      </trkpt>
      <trkpt lat="44.12136" lon="6.72792">
        <ele>1992.5574186669</ele>
        <time>2021-07-10T13:43:14Z</time>
      </trkpt>
      <trkpt lat="44.12136" lon="6.72792">
        <ele>1991.5574442239</ele>
        <time>2021-07-10T13:43:15Z</time>
      </trkpt>
      <trkpt lat="44.12135" lon="6.72793">
        <ele>1991.5574488877</ele>
        <time>2021-07-10T13:43:24Z</time>
      </trkpt>
      <trkpt lat="44.12134" lon="6.72795">
        <ele>1989.5574329199</ele>
        <time>2021-07-10T13:43:25Z</time>
      </trkpt>
      <trkpt lat="44.12134" lon="6.72796">
        <ele>1989.5574206109</ele>
        <time>2021-07-10T13:43:26Z</time>
      </trkpt>
      <trkpt lat="44.12134" lon="6.72796">
        <ele>1988.5574353738</ele>
        <time>2021-07-10T13:43:27Z</time>
      </trkpt>
      <trkpt lat="44.12134" lon="6.72798">
        <ele>1987.5574133271</ele>
        <time>2021-07-10T13:43:29Z</time>
      </trkpt>
      <trkpt lat="44.12135" lon="6.72799">
        <ele>1987.5573609613</ele>
        <time>2021-07-10T13:43:30Z</time>
      </trkpt>
      <trkpt lat="44.12135" lon="6.728">
        <ele>1987.5573311703</ele>
        <time>2021-07-10T13:43:31Z</time>
      </trkpt>
      <trkpt lat="44.12135" lon="6.72801">
        <ele>1987.5572983694</ele>
        <time>2021-07-10T13:43:32Z</time>
      </trkpt>
      <trkpt lat="44.12136" lon="6.72801">
        <ele>1989.5572690393</ele>
        <time>2021-07-10T13:43:35Z</time>
      </trkpt>
      <trkpt lat="44.12137" lon="6.72801">
        <ele>1988.5572400736</ele>
        <time>2021-07-10T13:43:37Z</time>
      </trkpt>
      <trkpt lat="44.12138" lon="6.72802">
        <ele>1989.5571599241</ele>
        <time>2021-07-10T13:43:39Z</time>
      </trkpt>
      <trkpt lat="44.12139" lon="6.72803">
        <ele>1988.5571318876</ele>
        <time>2021-07-10T13:43:40Z</time>
      </trkpt>
      <trkpt lat="44.12139" lon="6.72803">
        <ele>1988.5571012996</ele>
        <time>2021-07-10T13:43:41Z</time>
      </trkpt>
      <trkpt lat="44.12139" lon="6.72804">
        <ele>1987.5570900863</ele>
        <time>2021-07-10T13:43:42Z</time>
      </trkpt>
      <trkpt lat="44.12139" lon="6.72806">
        <ele>1987.5570545715</ele>
        <time>2021-07-10T13:43:44Z</time>
      </trkpt>
      <trkpt lat="44.12139" lon="6.72807">
        <ele>1986.5570295947</ele>
        <time>2021-07-10T13:43:48Z</time>
      </trkpt>
      <trkpt lat="44.12139" lon="6.72808">
        <ele>1986.5570138677</ele>
        <time>2021-07-10T13:43:49Z</time>
      </trkpt>
      <trkpt lat="44.12138" lon="6.72809">
        <ele>1985.5570139989</ele>
        <time>2021-07-10T13:43:50Z</time>
      </trkpt>
      <trkpt lat="44.12139" lon="6.7281">
        <ele>1985.5569941914</ele>
        <time>2021-07-10T13:43:53Z</time>
      </trkpt>
      <trkpt lat="44.12139" lon="6.72812">
        <ele>1985.5569420774</ele>
        <time>2021-07-10T13:43:55Z</time>
      </trkpt>
      <trkpt lat="44.12139" lon="6.72813">
        <ele>1985.5569076335</ele>
        <time>2021-07-10T13:43:57Z</time>
      </trkpt>
      <trkpt lat="44.1214" lon="6.72813">
        <ele>1984.55686945</ele>
        <time>2021-07-10T13:43:58Z</time>
      </trkpt>
      <trkpt lat="44.12141" lon="6.72813">
        <ele>1983.5568557708</ele>
        <time>2021-07-10T13:43:59Z</time>
      </trkpt>
      <trkpt lat="44.12141" lon="6.72814">
        <ele>1984.5568268025</ele>
        <time>2021-07-10T13:44:03Z</time>
      </trkpt>
      <trkpt lat="44.12142" lon="6.72816">
        <ele>1983.556744665</ele>
        <time>2021-07-10T13:44:05Z</time>
      </trkpt>
      <trkpt lat="44.12143" lon="6.72817">
        <ele>1983.5567124782</ele>
        <time>2021-07-10T13:44:06Z</time>
      </trkpt>
      <trkpt lat="44.12142" lon="6.72818">
        <ele>1983.5567001339</ele>
        <time>2021-07-10T13:44:07Z</time>
      </trkpt>
      <trkpt lat="44.12142" lon="6.7282">
        <ele>1983.5566596245</ele>
        <time>2021-07-10T13:44:09Z</time>
      </trkpt>
      <trkpt lat="44.12143" lon="6.72821">
        <ele>1983.5566308667</ele>
        <time>2021-07-10T13:44:10Z</time>
      </trkpt>
      <trkpt lat="44.12143" lon="6.72822">
        <ele>1983.556608402</ele>
        <time>2021-07-10T13:44:11Z</time>
      </trkpt>
      <trkpt lat="44.12143" lon="6.72823">
        <ele>1982.556590218</ele>
        <time>2021-07-10T13:44:15Z</time>
      </trkpt>
      <trkpt lat="44.12143" lon="6.72825">
        <ele>1981.5565284975</ele>
        <time>2021-07-10T13:44:16Z</time>
      </trkpt>
      <trkpt lat="44.12143" lon="6.72826">
        <ele>1981.5565054802</ele>
        <time>2021-07-10T13:44:17Z</time>
      </trkpt>
      <trkpt lat="44.12143" lon="6.72828">
        <ele>1981.5564812284</ele>
        <time>2021-07-10T13:44:18Z</time>
      </trkpt>
      <trkpt lat="44.12143" lon="6.72829">
        <ele>1981.5564646076</ele>
        <time>2021-07-10T13:44:19Z</time>
      </trkpt>
      <trkpt lat="44.12142" lon="6.7283">
        <ele>1981.5564559809</ele>
        <time>2021-07-10T13:44:20Z</time>
      </trkpt>
      <trkpt lat="44.12143" lon="6.7283">
        <ele>1981.5564393759</ele>
        <time>2021-07-10T13:44:21Z</time>
      </trkpt>
      <trkpt lat="44.12143" lon="6.72832">
        <ele>1981.5564245022</ele>
        <time>2021-07-10T13:44:22Z</time>
      </trkpt>
      <trkpt lat="44.12142" lon="6.72832">
        <ele>1982.5564303477</ele>
        <time>2021-07-10T13:44:23Z</time>
      </trkpt>
      <trkpt lat="44.12142" lon="6.72832">
        <ele>1982.5564473075</ele>
        <time>2021-07-10T13:44:27Z</time>
      </trkpt>
      <trkpt lat="44.12142" lon="6.72834">
        <ele>1981.5563786571</ele>
        <time>2021-07-10T13:44:28Z</time>
      </trkpt>
      <trkpt lat="44.12142" lon="6.72835">
        <ele>1981.5563714095</ele>
        <time>2021-07-10T13:44:29Z</time>
      </trkpt>
      <trkpt lat="44.12142" lon="6.72836">
        <ele>1980.5563570631</ele>
        <time>2021-07-10T13:44:30Z</time>
      </trkpt>
      <trkpt lat="44.12142" lon="6.72837">
        <ele>1980.5563605628</ele>
        <time>2021-07-10T13:44:34Z</time>
      </trkpt>
      <trkpt lat="44.12141" lon="6.72838">
        <ele>1980.5563614394</ele>
        <time>2021-07-10T13:44:35Z</time>
      </trkpt>
      <trkpt lat="44.12141" lon="6.72839">
        <ele>1979.5563445849</ele>
        <time>2021-07-10T13:44:36Z</time>
      </trkpt>
      <trkpt lat="44.12141" lon="6.7284">
        <ele>1979.5563363986</ele>
        <time>2021-07-10T13:44:37Z</time>
      </trkpt>
      <trkpt lat="44.12141" lon="6.72841">
        <ele>1975.556316925</ele>
        <time>2021-07-10T13:44:43Z</time>
      </trkpt>
      <trkpt lat="44.12141" lon="6.72841">
        <ele>1975.5562787434</ele>
        <time>2021-07-10T13:44:44Z</time>
      </trkpt>
      <trkpt lat="44.12142" lon="6.72842">
        <ele>1975.5562550244</ele>
        <time>2021-07-10T13:44:46Z</time>
      </trkpt>
      <trkpt lat="44.12142" lon="6.72843">
        <ele>1974.5562290086</ele>
        <time>2021-07-10T13:44:47Z</time>
      </trkpt>
      <trkpt lat="44.12142" lon="6.72844">
        <ele>1973.5561966576</ele>
        <time>2021-07-10T13:44:49Z</time>
      </trkpt>
      <trkpt lat="44.12142" lon="6.72845">
        <ele>1973.5561780936</ele>
        <time>2021-07-10T13:44:50Z</time>
      </trkpt>
      <trkpt lat="44.12142" lon="6.72846">
        <ele>1972.5561606489</ele>
        <time>2021-07-10T13:44:52Z</time>
      </trkpt>
      <trkpt lat="44.12142" lon="6.72846">
        <ele>1971.5561665226</ele>
        <time>2021-07-10T13:44:53Z</time>
      </trkpt>
      <trkpt lat="44.12142" lon="6.72847">
        <ele>1970.5561441207</ele>
        <time>2021-07-10T13:44:56Z</time>
      </trkpt>
      <trkpt lat="44.12143" lon="6.72847">
        <ele>1971.5561235134</ele>
        <time>2021-07-10T13:45:00Z</time>
      </trkpt>
      <trkpt lat="44.12144" lon="6.72848">
        <ele>1969.5560751529</ele>
        <time>2021-07-10T13:45:01Z</time>
      </trkpt>
      <trkpt lat="44.12144" lon="6.72849">
        <ele>1968.5560591663</ele>
        <time>2021-07-10T13:45:02Z</time>
      </trkpt>
      <trkpt lat="44.12143" lon="6.7285">
        <ele>1969.5560550651</ele>
        <time>2021-07-10T13:45:04Z</time>
      </trkpt>
      <trkpt lat="44.12142" lon="6.7285">
        <ele>1967.556090537</ele>
        <time>2021-07-10T13:45:06Z</time>
      </trkpt>
      <trkpt lat="44.12141" lon="6.7285">
        <ele>1966.5561073812</ele>
        <time>2021-07-10T13:45:09Z</time>
      </trkpt>
      <trkpt lat="44.1214" lon="6.7285">
        <ele>1966.5561687373</ele>
        <time>2021-07-10T13:45:10Z</time>
      </trkpt>
      <trkpt lat="44.12139" lon="6.7285">
        <ele>1966.5561983377</ele>
        <time>2021-07-10T13:45:11Z</time>
      </trkpt>
      <trkpt lat="44.12139" lon="6.72851">
        <ele>1966.5561961738</ele>
        <time>2021-07-10T13:45:14Z</time>
      </trkpt>
      <trkpt lat="44.12138" lon="6.72851">
        <ele>1965.5561935317</ele>
        <time>2021-07-10T13:45:15Z</time>
      </trkpt>
      <trkpt lat="44.12137" lon="6.72852">
        <ele>1965.5562269386</ele>
        <time>2021-07-10T13:45:16Z</time>
      </trkpt>
      <trkpt lat="44.12136" lon="6.72853">
        <ele>1965.5562479827</ele>
        <time>2021-07-10T13:45:17Z</time>
      </trkpt>
      <trkpt lat="44.12136" lon="6.72853">
        <ele>1965.5562619123</ele>
        <time>2021-07-10T13:45:18Z</time>
      </trkpt>
      <trkpt lat="44.12135" lon="6.72854">
        <ele>1964.5562800988</ele>
        <time>2021-07-10T13:45:20Z</time>
      </trkpt>
      <trkpt lat="44.12134" lon="6.72855">
        <ele>1964.5562802404</ele>
        <time>2021-07-10T13:45:21Z</time>
      </trkpt>
      <trkpt lat="44.12135" lon="6.72856">
        <ele>1964.5562517001</ele>
        <time>2021-07-10T13:45:25Z</time>
      </trkpt>
      <trkpt lat="44.12135" lon="6.72856">
        <ele>1965.5562333075</ele>
        <time>2021-07-10T13:45:28Z</time>
      </trkpt>
      <trkpt lat="44.12135" lon="6.72858">
        <ele>1965.5562075362</ele>
        <time>2021-07-10T13:45:30Z</time>
      </trkpt>
      <trkpt lat="44.12134" lon="6.72858">
        <ele>1965.556213932</ele>
        <time>2021-07-10T13:45:32Z</time>
      </trkpt>
      <trkpt lat="44.12134" lon="6.72859">
        <ele>1966.5561998371</ele>
        <time>2021-07-10T13:45:33Z</time>
      </trkpt>
      <trkpt lat="44.12134" lon="6.72861">
        <ele>1965.5561820496</ele>
        <time>2021-07-10T13:45:35Z</time>
      </trkpt>
      <trkpt lat="44.12133" lon="6.72861">
        <ele>1964.5561968791</ele>
        <time>2021-07-10T13:45:36Z</time>
      </trkpt>
      <trkpt lat="44.12133" lon="6.72862">
        <ele>1964.556174214</ele>
        <time>2021-07-10T13:45:41Z</time>
      </trkpt>
      <trkpt lat="44.12133" lon="6.72863">
        <ele>1964.5561561079</ele>
        <time>2021-07-10T13:45:42Z</time>
      </trkpt>
      <trkpt lat="44.12133" lon="6.72864">
        <ele>1964.5561450301</ele>
        <time>2021-07-10T13:45:43Z</time>
      </trkpt>
      <trkpt lat="44.12133" lon="6.72865">
        <ele>1964.5561486403</ele>
        <time>2021-07-10T13:45:44Z</time>
      </trkpt>
      <trkpt lat="44.12132" lon="6.72865">
        <ele>1964.5561641729</ele>
        <time>2021-07-10T13:45:45Z</time>
      </trkpt>
      <trkpt lat="44.12132" lon="6.72866">
        <ele>1964.5561451242</ele>
        <time>2021-07-10T13:45:46Z</time>
      </trkpt>
      <trkpt lat="44.12132" lon="6.72867">
        <ele>1964.5561339176</ele>
        <time>2021-07-10T13:45:47Z</time>
      </trkpt>
      <trkpt lat="44.12132" lon="6.72868">
        <ele>1964.5561102888</ele>
        <time>2021-07-10T13:45:48Z</time>
      </trkpt>
      <trkpt lat="44.12131" lon="6.72869">
        <ele>1963.5561063095</ele>
        <time>2021-07-10T13:45:49Z</time>
      </trkpt>
      <trkpt lat="44.12131" lon="6.7287">
        <ele>1963.5560991255</ele>
        <time>2021-07-10T13:45:50Z</time>
      </trkpt>
      <trkpt lat="44.1213" lon="6.72871">
        <ele>1963.5561134643</ele>
        <time>2021-07-10T13:45:51Z</time>
      </trkpt>
      <trkpt lat="44.1213" lon="6.72871">
        <ele>1962.5561199551</ele>
        <time>2021-07-10T13:45:52Z</time>
      </trkpt>
      <trkpt lat="44.1213" lon="6.72872">
        <ele>1962.5560979293</ele>
        <time>2021-07-10T13:45:53Z</time>
      </trkpt>
      <trkpt lat="44.1213" lon="6.72873">
        <ele>1962.5560754805</ele>
        <time>2021-07-10T13:45:54Z</time>
      </trkpt>
      <trkpt lat="44.1213" lon="6.72874">
        <ele>1961.5560517063</ele>
        <time>2021-07-10T13:45:55Z</time>
      </trkpt>
      <trkpt lat="44.1213" lon="6.72875">
        <ele>1962.5560392822</ele>
        <time>2021-07-10T13:45:56Z</time>
      </trkpt>
      <trkpt lat="44.12129" lon="6.72876">
        <ele>1962.5560500022</ele>
        <time>2021-07-10T13:45:57Z</time>
      </trkpt>
      <trkpt lat="44.12128" lon="6.72876">
        <ele>1961.5560833703</ele>
        <time>2021-07-10T13:45:59Z</time>
      </trkpt>
      <trkpt lat="44.12128" lon="6.72877">
        <ele>1961.5560667189</ele>
        <time>2021-07-10T13:46:02Z</time>
      </trkpt>
      <trkpt lat="44.12128" lon="6.72879">
        <ele>1961.5560412717</ele>
        <time>2021-07-10T13:46:03Z</time>
      </trkpt>
      <trkpt lat="44.12128" lon="6.72881">
        <ele>1959.5559982163</ele>
        <time>2021-07-10T13:46:05Z</time>
      </trkpt>
      <trkpt lat="44.12128" lon="6.72882">
        <ele>1959.5559692223</ele>
        <time>2021-07-10T13:46:07Z</time>
      </trkpt>
      <trkpt lat="44.12128" lon="6.72883">
        <ele>1959.5559592423</ele>
        <time>2021-07-10T13:46:08Z</time>
      </trkpt>
      <trkpt lat="44.12127" lon="6.72884">
        <ele>1959.5559655073</ele>
        <time>2021-07-10T13:46:09Z</time>
      </trkpt>
      <trkpt lat="44.12126" lon="6.72884">
        <ele>1959.5560009412</ele>
        <time>2021-07-10T13:46:10Z</time>
      </trkpt>
      <trkpt lat="44.12126" lon="6.72885">
        <ele>1959.5559976261</ele>
        <time>2021-07-10T13:46:11Z</time>
      </trkpt>
      <trkpt lat="44.12126" lon="6.72885">
        <ele>1958.5559831709</ele>
        <time>2021-07-10T13:46:12Z</time>
      </trkpt>
      <trkpt lat="44.12126" lon="6.72887">
        <ele>1958.5559498831</ele>
        <time>2021-07-10T13:46:14Z</time>
      </trkpt>
      <trkpt lat="44.12124" lon="6.72888">
        <ele>1958.5559894306</ele>
        <time>2021-07-10T13:46:16Z</time>
      </trkpt>
      <trkpt lat="44.12124" lon="6.72889">
        <ele>1958.5559947403</ele>
        <time>2021-07-10T13:46:17Z</time>
      </trkpt>
      <trkpt lat="44.12123" lon="6.72891">
        <ele>1957.5559860214</ele>
        <time>2021-07-10T13:46:19Z</time>
      </trkpt>
      <trkpt lat="44.12122" lon="6.72892">
        <ele>1957.5560026667</ele>
        <time>2021-07-10T13:46:20Z</time>
      </trkpt>
      <trkpt lat="44.12122" lon="6.72892">
        <ele>1957.5560004425</ele>
        <time>2021-07-10T13:46:21Z</time>
      </trkpt>
      <trkpt lat="44.12121" lon="6.72891">
        <ele>1957.5560547058</ele>
        <time>2021-07-10T13:46:23Z</time>
      </trkpt>
      <trkpt lat="44.12121" lon="6.72891">
        <ele>1956.5560648904</ele>
        <time>2021-07-10T13:46:24Z</time>
      </trkpt>
      <trkpt lat="44.12121" lon="6.72892">
        <ele>1956.5560593168</ele>
        <time>2021-07-10T13:46:25Z</time>
      </trkpt>
      <trkpt lat="44.12121" lon="6.72893">
        <ele>1956.5560444256</ele>
        <time>2021-07-10T13:46:26Z</time>
      </trkpt>
      <trkpt lat="44.12121" lon="6.72894">
        <ele>1956.5560305727</ele>
        <time>2021-07-10T13:46:27Z</time>
      </trkpt>
      <trkpt lat="44.1212" lon="6.72895">
        <ele>1956.5560211722</ele>
        <time>2021-07-10T13:46:28Z</time>
      </trkpt>
      <trkpt lat="44.1212" lon="6.72896">
        <ele>1955.5560117632</ele>
        <time>2021-07-10T13:46:30Z</time>
      </trkpt>
      <trkpt lat="44.12118" lon="6.72897">
        <ele>1954.5560409933</ele>
        <time>2021-07-10T13:46:30Z</time>
      </trkpt>
      <trkpt lat="44.12118" lon="6.72897">
        <ele>1954.5560611821</ele>
        <time>2021-07-10T13:46:31Z</time>
      </trkpt>
      <trkpt lat="44.12117" lon="6.72899">
        <ele>1953.5560626892</ele>
        <time>2021-07-10T13:46:33Z</time>
      </trkpt>
      <trkpt lat="44.12116" lon="6.729">
        <ele>1953.5560625469</ele>
        <time>2021-07-10T13:46:34Z</time>
      </trkpt>
      <trkpt lat="44.12115" lon="6.72901">
        <ele>1953.5560755426</ele>
        <time>2021-07-10T13:46:35Z</time>
      </trkpt>
      <trkpt lat="44.12115" lon="6.72902">
        <ele>1953.5560591472</ele>
        <time>2021-07-10T13:46:36Z</time>
      </trkpt>
      <trkpt lat="44.12115" lon="6.72904">
        <ele>1952.5560258191</ele>
        <time>2021-07-10T13:46:37Z</time>
      </trkpt>
      <trkpt lat="44.12116" lon="6.72904">
        <ele>1952.5559967633</ele>
        <time>2021-07-10T13:46:38Z</time>
      </trkpt>
      <trkpt lat="44.12116" lon="6.72905">
        <ele>1952.5559631212</ele>
        <time>2021-07-10T13:46:39Z</time>
      </trkpt>
      <trkpt lat="44.12117" lon="6.72906">
        <ele>1952.5559307981</ele>
        <time>2021-07-10T13:46:40Z</time>
      </trkpt>
      <trkpt lat="44.12117" lon="6.72908">
        <ele>1952.5558968518</ele>
        <time>2021-07-10T13:46:41Z</time>
      </trkpt>
      <trkpt lat="44.12116" lon="6.72908">
        <ele>1952.555902608</ele>
        <time>2021-07-10T13:46:42Z</time>
      </trkpt>
      <trkpt lat="44.12115" lon="6.72908">
        <ele>1950.5559319241</ele>
        <time>2021-07-10T13:46:43Z</time>
      </trkpt>
      <trkpt lat="44.12114" lon="6.72909">
        <ele>1950.5559590932</ele>
        <time>2021-07-10T13:46:44Z</time>
      </trkpt>
      <trkpt lat="44.12113" lon="6.7291">
        <ele>1949.5559826785</ele>
        <time>2021-07-10T13:46:45Z</time>
      </trkpt>
      <trkpt lat="44.12113" lon="6.7291">
        <ele>1949.5559879087</ele>
        <time>2021-07-10T13:46:48Z</time>
      </trkpt>
      <trkpt lat="44.12112" lon="6.7291">
        <ele>1948.5560186309</ele>
        <time>2021-07-10T13:46:49Z</time>
      </trkpt>
      <trkpt lat="44.12111" lon="6.72911">
        <ele>1948.5560299756</ele>
        <time>2021-07-10T13:46:51Z</time>
      </trkpt>
      <trkpt lat="44.12111" lon="6.72912">
        <ele>1947.5560324857</ele>
        <time>2021-07-10T13:46:53Z</time>
      </trkpt>
      <trkpt lat="44.12111" lon="6.72914">
        <ele>1947.5560114291</ele>
        <time>2021-07-10T13:46:54Z</time>
      </trkpt>
      <trkpt lat="44.1211" lon="6.72915">
        <ele>1947.5559889029</ele>
        <time>2021-07-10T13:46:55Z</time>
      </trkpt>
      <trkpt lat="44.1211" lon="6.72916">
        <ele>1947.5559592329</ele>
        <time>2021-07-10T13:46:56Z</time>
      </trkpt>
      <trkpt lat="44.1211" lon="6.72917">
        <ele>1947.5559642127</ele>
        <time>2021-07-10T13:46:57Z</time>
      </trkpt>
      <trkpt lat="44.12109" lon="6.72917">
        <ele>1947.5560083291</ele>
        <time>2021-07-10T13:46:58Z</time>
      </trkpt>
      <trkpt lat="44.12109" lon="6.72917">
        <ele>1946.5560029112</ele>
        <time>2021-07-10T13:46:59Z</time>
      </trkpt>
      <trkpt lat="44.12109" lon="6.72918">
        <ele>1947.5559721338</ele>
        <time>2021-07-10T13:47:00Z</time>
      </trkpt>
      <trkpt lat="44.1211" lon="6.72919">
        <ele>1946.5559310194</ele>
        <time>2021-07-10T13:47:01Z</time>
      </trkpt>
      <trkpt lat="44.12109" lon="6.72921">
        <ele>1946.5559109741</ele>
        <time>2021-07-10T13:47:02Z</time>
      </trkpt>
      <trkpt lat="44.12109" lon="6.72922">
        <ele>1946.55591957</ele>
        <time>2021-07-10T13:47:03Z</time>
      </trkpt>
      <trkpt lat="44.12108" lon="6.72923">
        <ele>1946.5559183806</ele>
        <time>2021-07-10T13:47:04Z</time>
      </trkpt>
      <trkpt lat="44.12108" lon="6.72924">
        <ele>1946.5559173471</ele>
        <time>2021-07-10T13:47:05Z</time>
      </trkpt>
      <trkpt lat="44.12107" lon="6.72925">
        <ele>1946.5559051591</ele>
        <time>2021-07-10T13:47:06Z</time>
      </trkpt>
      <trkpt lat="44.12107" lon="6.72927">
        <ele>1946.5558946657</ele>
        <time>2021-07-10T13:47:07Z</time>
      </trkpt>
      <trkpt lat="44.12107" lon="6.72927">
        <ele>1945.5558920992</ele>
        <time>2021-07-10T13:47:08Z</time>
      </trkpt>
      <trkpt lat="44.12106" lon="6.72927">
        <ele>1944.555922496</ele>
        <time>2021-07-10T13:47:09Z</time>
      </trkpt>
      <trkpt lat="44.12105" lon="6.72927">
        <ele>1944.5559530661</ele>
        <time>2021-07-10T13:47:10Z</time>
      </trkpt>
      <trkpt lat="44.12104" lon="6.72927">
        <ele>1943.5559791247</ele>
        <time>2021-07-10T13:47:11Z</time>
      </trkpt>
      <trkpt lat="44.12103" lon="6.72927">
        <ele>1942.5560054009</ele>
        <time>2021-07-10T13:47:12Z</time>
      </trkpt>
      <trkpt lat="44.12103" lon="6.72928">
        <ele>1941.556013418</ele>
        <time>2021-07-10T13:47:13Z</time>
      </trkpt>
      <trkpt lat="44.12102" lon="6.72929">
        <ele>1941.5560135615</ele>
        <time>2021-07-10T13:47:14Z</time>
      </trkpt>
      <trkpt lat="44.12101" lon="6.7293">
        <ele>1940.5560336092</ele>
        <time>2021-07-10T13:47:15Z</time>
      </trkpt>
      <trkpt lat="44.12101" lon="6.72931">
        <ele>1940.5560293137</ele>
        <time>2021-07-10T13:47:16Z</time>
      </trkpt>
      <trkpt lat="44.12101" lon="6.72932">
        <ele>1941.5560090019</ele>
        <time>2021-07-10T13:47:17Z</time>
      </trkpt>
      <trkpt lat="44.12101" lon="6.72932">
        <ele>1940.5560100553</ele>
        <time>2021-07-10T13:47:18Z</time>
      </trkpt>
      <trkpt lat="44.121" lon="6.72933">
        <ele>1940.5560159882</ele>
        <time>2021-07-10T13:47:19Z</time>
      </trkpt>
      <trkpt lat="44.121" lon="6.72934">
        <ele>1941.5560035651</ele>
        <time>2021-07-10T13:47:20Z</time>
      </trkpt>
      <trkpt lat="44.121" lon="6.72935">
        <ele>1941.5559942334</ele>
        <time>2021-07-10T13:47:21Z</time>
      </trkpt>
      <trkpt lat="44.121" lon="6.72936">
        <ele>1940.5559759395</ele>
        <time>2021-07-10T13:47:22Z</time>
      </trkpt>
      <trkpt lat="44.121" lon="6.72937">
        <ele>1940.5559361131</ele>
        <time>2021-07-10T13:47:23Z</time>
      </trkpt>
      <trkpt lat="44.121" lon="6.72938">
        <ele>1940.5559040967</ele>
        <time>2021-07-10T13:47:24Z</time>
      </trkpt>
      <trkpt lat="44.121" lon="6.72939">
        <ele>1940.5558978568</ele>
        <time>2021-07-10T13:47:26Z</time>
      </trkpt>
      <trkpt lat="44.121" lon="6.72939">
        <ele>1939.555902537</ele>
        <time>2021-07-10T13:47:27Z</time>
      </trkpt>
      <trkpt lat="44.12099" lon="6.7294">
        <ele>1939.5559195978</ele>
        <time>2021-07-10T13:47:28Z</time>
      </trkpt>
      <trkpt lat="44.12098" lon="6.7294">
        <ele>1938.5559372429</ele>
        <time>2021-07-10T13:47:29Z</time>
      </trkpt>
      <trkpt lat="44.12098" lon="6.72941">
        <ele>1938.5559466774</ele>
        <time>2021-07-10T13:47:30Z</time>
      </trkpt>
      <trkpt lat="44.12098" lon="6.72941">
        <ele>1938.5559407934</ele>
        <time>2021-07-10T13:47:31Z</time>
      </trkpt>
      <trkpt lat="44.12097" lon="6.72943">
        <ele>1938.5559347756</ele>
        <time>2021-07-10T13:47:32Z</time>
      </trkpt>
      <trkpt lat="44.12096" lon="6.72944">
        <ele>1939.5559467036</ele>
        <time>2021-07-10T13:47:34Z</time>
      </trkpt>
      <trkpt lat="44.12096" lon="6.72944">
        <ele>1939.555961247</ele>
        <time>2021-07-10T13:47:35Z</time>
      </trkpt>
      <trkpt lat="44.12095" lon="6.72944">
        <ele>1938.5559893514</ele>
        <time>2021-07-10T13:47:36Z</time>
      </trkpt>
      <trkpt lat="44.12094" lon="6.72945">
        <ele>1937.5559963379</ele>
        <time>2021-07-10T13:47:38Z</time>
      </trkpt>
      <trkpt lat="44.12094" lon="6.72946">
        <ele>1937.5559726902</ele>
        <time>2021-07-10T13:47:39Z</time>
      </trkpt>
      <trkpt lat="44.12095" lon="6.72947">
        <ele>1936.5559264779</ele>
        <time>2021-07-10T13:47:40Z</time>
      </trkpt>
      <trkpt lat="44.12095" lon="6.72948">
        <ele>1936.5559093837</ele>
        <time>2021-07-10T13:47:41Z</time>
      </trkpt>
      <trkpt lat="44.12095" lon="6.72949">
        <ele>1937.55588242</ele>
        <time>2021-07-10T13:47:42Z</time>
      </trkpt>
      <trkpt lat="44.12096" lon="6.7295">
        <ele>1937.5558494539</ele>
        <time>2021-07-10T13:47:43Z</time>
      </trkpt>
      <trkpt lat="44.12096" lon="6.7295">
        <ele>1938.5558306579</ele>
        <time>2021-07-10T13:47:44Z</time>
      </trkpt>
      <trkpt lat="44.12096" lon="6.72952">
        <ele>1938.5558166943</ele>
        <time>2021-07-10T13:47:45Z</time>
      </trkpt>
      <trkpt lat="44.12095" lon="6.72952">
        <ele>1938.555825227</ele>
        <time>2021-07-10T13:47:46Z</time>
      </trkpt>
      <trkpt lat="44.12094" lon="6.72953">
        <ele>1937.5558539546</ele>
        <time>2021-07-10T13:47:47Z</time>
      </trkpt>
      <trkpt lat="44.12093" lon="6.72953">
        <ele>1936.5558910219</ele>
        <time>2021-07-10T13:47:48Z</time>
      </trkpt>
      <trkpt lat="44.12092" lon="6.72953">
        <ele>1935.555916411</ele>
        <time>2021-07-10T13:47:50Z</time>
      </trkpt>
      <trkpt lat="44.12092" lon="6.72953">
        <ele>1934.5559362929</ele>
        <time>2021-07-10T13:47:51Z</time>
      </trkpt>
      <trkpt lat="44.12091" lon="6.72954">
        <ele>1932.5559613124</ele>
        <time>2021-07-10T13:47:52Z</time>
      </trkpt>
      <trkpt lat="44.1209" lon="6.72954">
        <ele>1932.5559640626</ele>
        <time>2021-07-10T13:47:53Z</time>
      </trkpt>
      <trkpt lat="44.12089" lon="6.72955">
        <ele>1932.5559854595</ele>
        <time>2021-07-10T13:47:54Z</time>
      </trkpt>
      <trkpt lat="44.12089" lon="6.72955">
        <ele>1932.5560018373</ele>
        <time>2021-07-10T13:47:55Z</time>
      </trkpt>
      <trkpt lat="44.12088" lon="6.72955">
        <ele>1931.5560206456</ele>
        <time>2021-07-10T13:47:56Z</time>
      </trkpt>
      <trkpt lat="44.12088" lon="6.72956">
        <ele>1931.5560214678</ele>
        <time>2021-07-10T13:47:58Z</time>
      </trkpt>
      <trkpt lat="44.12088" lon="6.72957">
        <ele>1931.5560067388</ele>
        <time>2021-07-10T13:47:59Z</time>
      </trkpt>
      <trkpt lat="44.12088" lon="6.72958">
        <ele>1931.5559773773</ele>
        <time>2021-07-10T13:48:01Z</time>
      </trkpt>
      <trkpt lat="44.12088" lon="6.72958">
        <ele>1931.5559785234</ele>
        <time>2021-07-10T13:48:03Z</time>
      </trkpt>
      <trkpt lat="44.12087" lon="6.72959">
        <ele>1931.5559788096</ele>
        <time>2021-07-10T13:48:04Z</time>
      </trkpt>
      <trkpt lat="44.12086" lon="6.7296">
        <ele>1930.5560021341</ele>
        <time>2021-07-10T13:48:05Z</time>
      </trkpt>
      <trkpt lat="44.12085" lon="6.72959">
        <ele>1929.556051198</ele>
        <time>2021-07-10T13:48:06Z</time>
      </trkpt>
      <trkpt lat="44.12084" lon="6.7296">
        <ele>1929.5560850598</ele>
        <time>2021-07-10T13:48:07Z</time>
      </trkpt>
      <trkpt lat="44.12083" lon="6.72959">
        <ele>1928.5561356219</ele>
        <time>2021-07-10T13:48:08Z</time>
      </trkpt>
      <trkpt lat="44.12082" lon="6.7296">
        <ele>1927.5561743303</ele>
        <time>2021-07-10T13:48:09Z</time>
      </trkpt>
      <trkpt lat="44.12081" lon="6.7296">
        <ele>1927.5561981227</ele>
        <time>2021-07-10T13:48:10Z</time>
      </trkpt>
      <trkpt lat="44.12081" lon="6.72961">
        <ele>1926.5561825793</ele>
        <time>2021-07-10T13:48:13Z</time>
      </trkpt>
      <trkpt lat="44.1208" lon="6.72962">
        <ele>1926.556174379</ele>
        <time>2021-07-10T13:48:14Z</time>
      </trkpt>
      <trkpt lat="44.1208" lon="6.72963">
        <ele>1926.5561635434</ele>
        <time>2021-07-10T13:48:15Z</time>
      </trkpt>
      <trkpt lat="44.1208" lon="6.72964">
        <ele>1927.5561635628</ele>
        <time>2021-07-10T13:48:16Z</time>
      </trkpt>
      <trkpt lat="44.12078" lon="6.72966">
        <ele>1927.556182634</ele>
        <time>2021-07-10T13:48:18Z</time>
      </trkpt>
      <trkpt lat="44.12078" lon="6.72966">
        <ele>1927.5561939468</ele>
        <time>2021-07-10T13:48:19Z</time>
      </trkpt>
      <trkpt lat="44.12077" lon="6.72966">
        <ele>1926.5562294172</ele>
        <time>2021-07-10T13:48:20Z</time>
      </trkpt>
      <trkpt lat="44.12077" lon="6.72966">
        <ele>1926.5562443177</ele>
        <time>2021-07-10T13:48:21Z</time>
      </trkpt>
      <trkpt lat="44.12075" lon="6.72965">
        <ele>1924.556320704</ele>
        <time>2021-07-10T13:48:23Z</time>
      </trkpt>
      <trkpt lat="44.12074" lon="6.72965">
        <ele>1924.5563600563</ele>
        <time>2021-07-10T13:48:24Z</time>
      </trkpt>
      <trkpt lat="44.12073" lon="6.72965">
        <ele>1924.5563957191</ele>
        <time>2021-07-10T13:48:25Z</time>
      </trkpt>
      <trkpt lat="44.12072" lon="6.72965">
        <ele>1923.5564352914</ele>
        <time>2021-07-10T13:48:27Z</time>
      </trkpt>
      <trkpt lat="44.12071" lon="6.72965">
        <ele>1923.5564471053</ele>
        <time>2021-07-10T13:48:28Z</time>
      </trkpt>
      <trkpt lat="44.12071" lon="6.72966">
        <ele>1923.5564565237</ele>
        <time>2021-07-10T13:48:29Z</time>
      </trkpt>
      <trkpt lat="44.1207" lon="6.72967">
        <ele>1923.5564512981</ele>
        <time>2021-07-10T13:48:31Z</time>
      </trkpt>
      <trkpt lat="44.1207" lon="6.72968">
        <ele>1923.5564486465</ele>
        <time>2021-07-10T13:48:33Z</time>
      </trkpt>
      <trkpt lat="44.12071" lon="6.72967">
        <ele>1921.5564310411</ele>
        <time>2021-07-10T13:48:44Z</time>
      </trkpt>
      <trkpt lat="44.12071" lon="6.72966">
        <ele>1920.5564570179</ele>
        <time>2021-07-10T13:49:16Z</time>
      </trkpt>
      <trkpt lat="44.12071" lon="6.72966">
        <ele>1921.5564326418</ele>
        <time>2021-07-10T13:49:18Z</time>
      </trkpt>
      <trkpt lat="44.12071" lon="6.72965">
        <ele>1921.5564644077</ele>
        <time>2021-07-10T13:49:20Z</time>
      </trkpt>
      <trkpt lat="44.12071" lon="6.72965">
        <ele>1920.5564782355</ele>
        <time>2021-07-10T13:51:00Z</time>
      </trkpt>
      <trkpt lat="44.12071" lon="6.72966">
        <ele>1919.5564350073</ele>
        <time>2021-07-10T13:51:01Z</time>
      </trkpt>
      <trkpt lat="44.12072" lon="6.72966">
        <ele>1920.5564176845</ele>
        <time>2021-07-10T13:51:21Z</time>
      </trkpt>
      <trkpt lat="44.12073" lon="6.72967">
        <ele>1918.5563610943</ele>
        <time>2021-07-10T13:51:23Z</time>
      </trkpt>
      <trkpt lat="44.12073" lon="6.72966">
        <ele>1914.5563564752</ele>
        <time>2021-07-10T13:54:17Z</time>
      </trkpt>
      <trkpt lat="44.12073" lon="6.72968">
        <ele>1913.556336342</ele>
        <time>2021-07-10T13:54:18Z</time>
      </trkpt>
      <trkpt lat="44.12072" lon="6.72968">
        <ele>1914.5563668991</ele>
        <time>2021-07-10T13:54:25Z</time>
      </trkpt>
      <trkpt lat="44.12072" lon="6.72966">
        <ele>1914.5564130366</ele>
        <time>2021-07-10T13:54:26Z</time>
      </trkpt>
      <trkpt lat="44.12072" lon="6.72966">
        <ele>1914.5564130366</ele>
        <time>2021-07-10T13:54:52Z</time>
      </trkpt>
      <trkpt lat="44.12073" lon="6.72967">
        <ele>1913.5563459032</ele>
        <time>2021-07-10T13:54:54Z</time>
      </trkpt>
      <trkpt lat="44.12073" lon="6.72966">
        <ele>1909.5563702603</ele>
        <time>2021-07-10T13:56:24Z</time>
      </trkpt>
      <trkpt lat="44.12072" lon="6.72965">
        <ele>1909.5564393824</ele>
        <time>2021-07-10T13:56:25Z</time>
      </trkpt>
      <trkpt lat="44.12072" lon="6.72966">
        <ele>1911.5564290484</ele>
        <time>2021-07-10T13:57:12Z</time>
      </trkpt>
      <trkpt lat="44.12071" lon="6.72965">
        <ele>1912.556451279</ele>
        <time>2021-07-10T13:57:13Z</time>
      </trkpt>
      <trkpt lat="44.12071" lon="6.72967">
        <ele>1912.556433942</ele>
        <time>2021-07-10T13:57:14Z</time>
      </trkpt>
      <trkpt lat="44.1207" lon="6.72967">
        <ele>1912.5564702534</ele>
        <time>2021-07-10T13:57:15Z</time>
      </trkpt>
      <trkpt lat="44.12069" lon="6.72968">
        <ele>1912.5564996443</ele>
        <time>2021-07-10T13:57:16Z</time>
      </trkpt>
      <trkpt lat="44.12068" lon="6.72969">
        <ele>1913.5565166537</ele>
        <time>2021-07-10T13:57:17Z</time>
      </trkpt>
      <trkpt lat="44.12067" lon="6.7297">
        <ele>1913.5565080708</ele>
        <time>2021-07-10T13:57:18Z</time>
      </trkpt>
      <trkpt lat="44.12067" lon="6.72972">
        <ele>1913.5564606206</ele>
        <time>2021-07-10T13:57:19Z</time>
      </trkpt>
      <trkpt lat="44.12067" lon="6.72973">
        <ele>1913.556444149</ele>
        <time>2021-07-10T13:57:20Z</time>
      </trkpt>
      <trkpt lat="44.12067" lon="6.72975">
        <ele>1913.5564325649</ele>
        <time>2021-07-10T13:57:21Z</time>
      </trkpt>
      <trkpt lat="44.12066" lon="6.72977">
        <ele>1913.5564187436</ele>
        <time>2021-07-10T13:57:22Z</time>
      </trkpt>
      <trkpt lat="44.12066" lon="6.72978">
        <ele>1913.5563894374</ele>
        <time>2021-07-10T13:57:23Z</time>
      </trkpt>
      <trkpt lat="44.12066" lon="6.7298">
        <ele>1913.5563690556</ele>
        <time>2021-07-10T13:57:24Z</time>
      </trkpt>
      <trkpt lat="44.12066" lon="6.72981">
        <ele>1914.5563525578</ele>
        <time>2021-07-10T13:57:25Z</time>
      </trkpt>
      <trkpt lat="44.12066" lon="6.72982">
        <ele>1914.5563425326</ele>
        <time>2021-07-10T13:57:26Z</time>
      </trkpt>
      <trkpt lat="44.12065" lon="6.72983">
        <ele>1915.5563340498</ele>
        <time>2021-07-10T13:57:27Z</time>
      </trkpt>
      <trkpt lat="44.12065" lon="6.72984">
        <ele>1915.5563267227</ele>
        <time>2021-07-10T13:57:28Z</time>
      </trkpt>
      <trkpt lat="44.12065" lon="6.72984">
        <ele>1914.5563109351</ele>
        <time>2021-07-10T13:57:29Z</time>
      </trkpt>
      <trkpt lat="44.12065" lon="6.72985">
        <ele>1915.556292558</ele>
        <time>2021-07-10T13:57:31Z</time>
      </trkpt>
      <trkpt lat="44.12065" lon="6.72987">
        <ele>1915.5562582091</ele>
        <time>2021-07-10T13:57:32Z</time>
      </trkpt>
      <trkpt lat="44.12065" lon="6.72988">
        <ele>1915.5562491958</ele>
        <time>2021-07-10T13:57:33Z</time>
      </trkpt>
      <trkpt lat="44.12065" lon="6.72989">
        <ele>1915.5562175631</ele>
        <time>2021-07-10T13:57:35Z</time>
      </trkpt>
      <trkpt lat="44.12065" lon="6.72989">
        <ele>1915.5562112822</ele>
        <time>2021-07-10T13:57:39Z</time>
      </trkpt>
      <trkpt lat="44.12066" lon="6.72991">
        <ele>1916.5561644327</ele>
        <time>2021-07-10T13:57:40Z</time>
      </trkpt>
      <trkpt lat="44.12065" lon="6.72992">
        <ele>1916.5561581721</ele>
        <time>2021-07-10T13:57:41Z</time>
      </trkpt>
      <trkpt lat="44.12065" lon="6.72993">
        <ele>1915.5561643165</ele>
        <time>2021-07-10T13:57:42Z</time>
      </trkpt>
      <trkpt lat="44.12064" lon="6.72993">
        <ele>1915.5561836934</ele>
        <time>2021-07-10T13:57:43Z</time>
      </trkpt>
      <trkpt lat="44.12064" lon="6.72993">
        <ele>1915.5561902361</ele>
        <time>2021-07-10T13:57:44Z</time>
      </trkpt>
      <trkpt lat="44.12063" lon="6.72994">
        <ele>1915.5561884428</ele>
        <time>2021-07-10T13:57:45Z</time>
      </trkpt>
      <trkpt lat="44.12063" lon="6.72995">
        <ele>1915.5561945546</ele>
        <time>2021-07-10T13:57:46Z</time>
      </trkpt>
      <trkpt lat="44.12063" lon="6.72995">
        <ele>1915.5561862791</ele>
        <time>2021-07-10T13:57:47Z</time>
      </trkpt>
      <trkpt lat="44.12062" lon="6.72997">
        <ele>1915.5561677568</ele>
        <time>2021-07-10T13:57:49Z</time>
      </trkpt>
      <trkpt lat="44.12062" lon="6.72997">
        <ele>1914.556192206</ele>
        <time>2021-07-10T13:57:50Z</time>
      </trkpt>
      <trkpt lat="44.12061" lon="6.72998">
        <ele>1914.5561936406</ele>
        <time>2021-07-10T13:57:51Z</time>
      </trkpt>
      <trkpt lat="44.12061" lon="6.73">
        <ele>1914.5561742979</ele>
        <time>2021-07-10T13:57:53Z</time>
      </trkpt>
      <trkpt lat="44.1206" lon="6.73001">
        <ele>1914.5561653312</ele>
        <time>2021-07-10T13:57:54Z</time>
      </trkpt>
      <trkpt lat="44.1206" lon="6.73002">
        <ele>1914.556164626</ele>
        <time>2021-07-10T13:57:55Z</time>
      </trkpt>
      <trkpt lat="44.12059" lon="6.73003">
        <ele>1913.5561588678</ele>
        <time>2021-07-10T13:57:57Z</time>
      </trkpt>
      <trkpt lat="44.12058" lon="6.73004">
        <ele>1912.5561763319</ele>
        <time>2021-07-10T13:57:58Z</time>
      </trkpt>
      <trkpt lat="44.12057" lon="6.73005">
        <ele>1913.5561998074</ele>
        <time>2021-07-10T13:57:59Z</time>
      </trkpt>
      <trkpt lat="44.12057" lon="6.73006">
        <ele>1913.5562030095</ele>
        <time>2021-07-10T13:58:00Z</time>
      </trkpt>
      <trkpt lat="44.12056" lon="6.73007">
        <ele>1912.556197498</ele>
        <time>2021-07-10T13:58:02Z</time>
      </trkpt>
      <trkpt lat="44.12056" lon="6.73008">
        <ele>1911.5561846093</ele>
        <time>2021-07-10T13:58:03Z</time>
      </trkpt>
      <trkpt lat="44.12056" lon="6.73009">
        <ele>1910.5561740099</ele>
        <time>2021-07-10T13:58:05Z</time>
      </trkpt>
      <trkpt lat="44.12057" lon="6.73009">
        <ele>1910.5561399314</ele>
        <time>2021-07-10T13:58:06Z</time>
      </trkpt>
      <trkpt lat="44.12057" lon="6.7301">
        <ele>1909.5561104411</ele>
        <time>2021-07-10T13:58:07Z</time>
      </trkpt>
      <trkpt lat="44.12057" lon="6.73011">
        <ele>1909.5560940379</ele>
        <time>2021-07-10T13:58:08Z</time>
      </trkpt>
      <trkpt lat="44.12057" lon="6.73012">
        <ele>1909.5560897051</ele>
        <time>2021-07-10T13:58:09Z</time>
      </trkpt>
      <trkpt lat="44.12057" lon="6.73013">
        <ele>1910.5560514899</ele>
        <time>2021-07-10T13:58:10Z</time>
      </trkpt>
      <trkpt lat="44.12058" lon="6.73013">
        <ele>1910.5560090001</ele>
        <time>2021-07-10T13:58:11Z</time>
      </trkpt>
      <trkpt lat="44.12058" lon="6.73014">
        <ele>1910.5559946069</ele>
        <time>2021-07-10T13:58:12Z</time>
      </trkpt>
      <trkpt lat="44.12058" lon="6.73015">
        <ele>1910.55597795</ele>
        <time>2021-07-10T13:58:16Z</time>
      </trkpt>
      <trkpt lat="44.12056" lon="6.73014">
        <ele>1908.5560684159</ele>
        <time>2021-07-10T13:58:18Z</time>
      </trkpt>
      <trkpt lat="44.12057" lon="6.73015">
        <ele>1908.5560388809</ele>
        <time>2021-07-10T13:58:19Z</time>
      </trkpt>
      <trkpt lat="44.12057" lon="6.73015">
        <ele>1909.5560135772</ele>
        <time>2021-07-10T13:58:21Z</time>
      </trkpt>
      <trkpt lat="44.12057" lon="6.73016">
        <ele>1909.5559955198</ele>
        <time>2021-07-10T13:58:22Z</time>
      </trkpt>
      <trkpt lat="44.12058" lon="6.73016">
        <ele>1908.5559688779</ele>
        <time>2021-07-10T13:58:23Z</time>
      </trkpt>
      <trkpt lat="44.12058" lon="6.73017">
        <ele>1908.5559446883</ele>
        <time>2021-07-10T13:58:24Z</time>
      </trkpt>
      <trkpt lat="44.12058" lon="6.73018">
        <ele>1907.5559187943</ele>
        <time>2021-07-10T13:58:27Z</time>
      </trkpt>
      <trkpt lat="44.12059" lon="6.73018">
        <ele>1904.5558954444</ele>
        <time>2021-07-10T13:58:35Z</time>
      </trkpt>
      <trkpt lat="44.12058" lon="6.73018">
        <ele>1905.5559161475</ele>
        <time>2021-07-10T13:58:37Z</time>
      </trkpt>
      <trkpt lat="44.12057" lon="6.73018">
        <ele>1905.5559403657</ele>
        <time>2021-07-10T13:58:39Z</time>
      </trkpt>
      <trkpt lat="44.12057" lon="6.73018">
        <ele>1905.555955683</ele>
        <time>2021-07-10T13:58:42Z</time>
      </trkpt>
      <trkpt lat="44.12056" lon="6.73019">
        <ele>1906.5559711478</ele>
        <time>2021-07-10T13:58:43Z</time>
      </trkpt>
      <trkpt lat="44.12056" lon="6.73019">
        <ele>1906.5559745741</ele>
        <time>2021-07-10T13:58:46Z</time>
      </trkpt>
      <trkpt lat="44.12055" lon="6.73018">
        <ele>1906.5560081624</ele>
        <time>2021-07-10T13:58:48Z</time>
      </trkpt>
      <trkpt lat="44.12055" lon="6.73018">
        <ele>1906.5560382154</ele>
        <time>2021-07-10T13:58:53Z</time>
      </trkpt>
      <trkpt lat="44.12054" lon="6.73018">
        <ele>1906.5560610069</ele>
        <time>2021-07-10T13:58:54Z</time>
      </trkpt>
      <trkpt lat="44.12053" lon="6.73018">
        <ele>1906.5560843667</ele>
        <time>2021-07-10T13:59:01Z</time>
      </trkpt>
      <trkpt lat="44.12051" lon="6.73018">
        <ele>1906.5561738408</ele>
        <time>2021-07-10T13:59:02Z</time>
      </trkpt>
      <trkpt lat="44.12051" lon="6.73019">
        <ele>1906.5561444444</ele>
        <time>2021-07-10T13:59:03Z</time>
      </trkpt>
      <trkpt lat="44.12052" lon="6.7302">
        <ele>1904.5561076836</ele>
        <time>2021-07-10T13:59:09Z</time>
      </trkpt>
      <trkpt lat="44.12051" lon="6.73022">
        <ele>1903.5560999354</ele>
        <time>2021-07-10T13:59:10Z</time>
      </trkpt>
      <trkpt lat="44.1205" lon="6.73022">
        <ele>1903.5561516984</ele>
        <time>2021-07-10T13:59:12Z</time>
      </trkpt>
      <trkpt lat="44.12049" lon="6.73022">
        <ele>1903.5561734881</ele>
        <time>2021-07-10T13:59:13Z</time>
      </trkpt>
      <trkpt lat="44.12048" lon="6.73022">
        <ele>1904.556194681</ele>
        <time>2021-07-10T13:59:14Z</time>
      </trkpt>
      <trkpt lat="44.12047" lon="6.73023">
        <ele>1904.5562227555</ele>
        <time>2021-07-10T13:59:15Z</time>
      </trkpt>
      <trkpt lat="44.12047" lon="6.73023">
        <ele>1904.5562317096</ele>
        <time>2021-07-10T13:59:16Z</time>
      </trkpt>
      <trkpt lat="44.12046" lon="6.73025">
        <ele>1903.5562410833</ele>
        <time>2021-07-10T13:59:17Z</time>
      </trkpt>
      <trkpt lat="44.12045" lon="6.73026">
        <ele>1903.5562591384</ele>
        <time>2021-07-10T13:59:18Z</time>
      </trkpt>
      <trkpt lat="44.12044" lon="6.73027">
        <ele>1903.5562604616</ele>
        <time>2021-07-10T13:59:20Z</time>
      </trkpt>
      <trkpt lat="44.12043" lon="6.73028">
        <ele>1903.5562731698</ele>
        <time>2021-07-10T13:59:22Z</time>
      </trkpt>
      <trkpt lat="44.12042" lon="6.73029">
        <ele>1903.5562910046</ele>
        <time>2021-07-10T13:59:23Z</time>
      </trkpt>
      <trkpt lat="44.12042" lon="6.7303">
        <ele>1903.5562845628</ele>
        <time>2021-07-10T13:59:24Z</time>
      </trkpt>
      <trkpt lat="44.12041" lon="6.73031">
        <ele>1903.5562951295</ele>
        <time>2021-07-10T13:59:26Z</time>
      </trkpt>
      <trkpt lat="44.1204" lon="6.73032">
        <ele>1903.5563056718</ele>
        <time>2021-07-10T13:59:27Z</time>
      </trkpt>
      <trkpt lat="44.12039" lon="6.73033">
        <ele>1903.5563171852</ele>
        <time>2021-07-10T13:59:28Z</time>
      </trkpt>
      <trkpt lat="44.12039" lon="6.73034">
        <ele>1903.5562985056</ele>
        <time>2021-07-10T13:59:29Z</time>
      </trkpt>
      <trkpt lat="44.12039" lon="6.73034">
        <ele>1903.5562985056</ele>
        <time>2021-07-10T13:59:30Z</time>
      </trkpt>
      <trkpt lat="44.1204" lon="6.73037">
        <ele>1903.5562355967</ele>
        <time>2021-07-10T13:59:31Z</time>
      </trkpt>
      <trkpt lat="44.12041" lon="6.73037">
        <ele>1903.5561978138</ele>
        <time>2021-07-10T13:59:32Z</time>
      </trkpt>
      <trkpt lat="44.12041" lon="6.73037">
        <ele>1902.5561643994</ele>
        <time>2021-07-10T13:59:33Z</time>
      </trkpt>
      <trkpt lat="44.12042" lon="6.73038">
        <ele>1901.5561288766</ele>
        <time>2021-07-10T13:59:34Z</time>
      </trkpt>
      <trkpt lat="44.12043" lon="6.73036">
        <ele>1901.5561202836</ele>
        <time>2021-07-10T13:59:35Z</time>
      </trkpt>
      <trkpt lat="44.12044" lon="6.73035">
        <ele>1900.5560965709</ele>
        <time>2021-07-10T13:59:36Z</time>
      </trkpt>
      <trkpt lat="44.12045" lon="6.73035">
        <ele>1900.5560805447</ele>
        <time>2021-07-10T13:59:37Z</time>
      </trkpt>
      <trkpt lat="44.12046" lon="6.73034">
        <ele>1899.55606113</ele>
        <time>2021-07-10T13:59:38Z</time>
      </trkpt>
      <trkpt lat="44.12047" lon="6.73033">
        <ele>1899.5560377491</ele>
        <time>2021-07-10T13:59:39Z</time>
      </trkpt>
      <trkpt lat="44.12047" lon="6.73033">
        <ele>1898.556019136</ele>
        <time>2021-07-10T13:59:40Z</time>
      </trkpt>
      <trkpt lat="44.12049" lon="6.73033">
        <ele>1898.5559844805</ele>
        <time>2021-07-10T13:59:41Z</time>
      </trkpt>
      <trkpt lat="44.12049" lon="6.73033">
        <ele>1897.5559527691</ele>
        <time>2021-07-10T13:59:42Z</time>
      </trkpt>
      <trkpt lat="44.1205" lon="6.73033">
        <ele>1897.5559024286</ele>
        <time>2021-07-10T13:59:43Z</time>
      </trkpt>
      <trkpt lat="44.12051" lon="6.73034">
        <ele>1897.555863979</ele>
        <time>2021-07-10T13:59:44Z</time>
      </trkpt>
      <trkpt lat="44.12052" lon="6.73034">
        <ele>1895.5558354549</ele>
        <time>2021-07-10T13:59:45Z</time>
      </trkpt>
      <trkpt lat="44.12053" lon="6.73035">
        <ele>1895.5557825663</ele>
        <time>2021-07-10T13:59:46Z</time>
      </trkpt>
      <trkpt lat="44.12054" lon="6.73035">
        <ele>1895.5557462647</ele>
        <time>2021-07-10T13:59:47Z</time>
      </trkpt>
      <trkpt lat="44.12055" lon="6.73035">
        <ele>1894.5557185732</ele>
        <time>2021-07-10T13:59:48Z</time>
      </trkpt>
      <trkpt lat="44.12056" lon="6.73036">
        <ele>1894.5556595229</ele>
        <time>2021-07-10T13:59:49Z</time>
      </trkpt>
      <trkpt lat="44.12057" lon="6.73036">
        <ele>1894.55561824</ele>
        <time>2021-07-10T13:59:50Z</time>
      </trkpt>
      <trkpt lat="44.12057" lon="6.73035">
        <ele>1893.5556111149</ele>
        <time>2021-07-10T13:59:51Z</time>
      </trkpt>
      <trkpt lat="44.12058" lon="6.73035">
        <ele>1893.5555761436</ele>
        <time>2021-07-10T13:59:52Z</time>
      </trkpt>
      <trkpt lat="44.12059" lon="6.73034">
        <ele>1892.5555534301</ele>
        <time>2021-07-10T13:59:53Z</time>
      </trkpt>
      <trkpt lat="44.12061" lon="6.73034">
        <ele>1892.5555124741</ele>
        <time>2021-07-10T13:59:54Z</time>
      </trkpt>
      <trkpt lat="44.12062" lon="6.73033">
        <ele>1892.5554859994</ele>
        <time>2021-07-10T13:59:55Z</time>
      </trkpt>
      <trkpt lat="44.12063" lon="6.73033">
        <ele>1892.5554543649</ele>
        <time>2021-07-10T13:59:56Z</time>
      </trkpt>
      <trkpt lat="44.12064" lon="6.73034">
        <ele>1892.5553974328</ele>
        <time>2021-07-10T13:59:57Z</time>
      </trkpt>
      <trkpt lat="44.12065" lon="6.73034">
        <ele>1892.5553483539</ele>
        <time>2021-07-10T13:59:58Z</time>
      </trkpt>
      <trkpt lat="44.12067" lon="6.73034">
        <ele>1892.5552990758</ele>
        <time>2021-07-10T13:59:59Z</time>
      </trkpt>
      <trkpt lat="44.12067" lon="6.73034">
        <ele>1892.5552548928</ele>
        <time>2021-07-10T14:00:00Z</time>
      </trkpt>
      <trkpt lat="44.12068" lon="6.73034">
        <ele>1891.5552284895</ele>
        <time>2021-07-10T14:00:01Z</time>
      </trkpt>
      <trkpt lat="44.12069" lon="6.73035">
        <ele>1891.55517611</ele>
        <time>2021-07-10T14:00:02Z</time>
      </trkpt>
      <trkpt lat="44.12071" lon="6.73035">
        <ele>1890.5551224355</ele>
        <time>2021-07-10T14:00:03Z</time>
      </trkpt>
      <trkpt lat="44.12072" lon="6.73036">
        <ele>1890.5550417467</ele>
        <time>2021-07-10T14:00:04Z</time>
      </trkpt>
      <trkpt lat="44.12074" lon="6.73036">
        <ele>1890.5549816897</ele>
        <time>2021-07-10T14:00:05Z</time>
      </trkpt>
      <trkpt lat="44.12075" lon="6.73037">
        <ele>1890.5549190672</ele>
        <time>2021-07-10T14:00:06Z</time>
      </trkpt>
      <trkpt lat="44.12076" lon="6.73038">
        <ele>1890.5548655063</ele>
        <time>2021-07-10T14:00:07Z</time>
      </trkpt>
      <trkpt lat="44.12077" lon="6.73039">
        <ele>1890.5548346543</ele>
        <time>2021-07-10T14:00:08Z</time>
      </trkpt>
      <trkpt lat="44.12078" lon="6.73039">
        <ele>1890.5547922697</ele>
        <time>2021-07-10T14:00:09Z</time>
      </trkpt>
      <trkpt lat="44.12079" lon="6.73039">
        <ele>1890.5547431873</ele>
        <time>2021-07-10T14:00:10Z</time>
      </trkpt>
      <trkpt lat="44.1208" lon="6.73039">
        <ele>1890.5547096783</ele>
        <time>2021-07-10T14:00:11Z</time>
      </trkpt>
      <trkpt lat="44.12081" lon="6.73038">
        <ele>1889.5546759995</ele>
        <time>2021-07-10T14:00:12Z</time>
      </trkpt>
      <trkpt lat="44.12082" lon="6.73038">
        <ele>1889.5546493203</ele>
        <time>2021-07-10T14:00:13Z</time>
      </trkpt>
      <trkpt lat="44.12083" lon="6.73037">
        <ele>1889.5546248352</ele>
        <time>2021-07-10T14:00:14Z</time>
      </trkpt>
      <trkpt lat="44.12085" lon="6.73038">
        <ele>1888.5545564813</ele>
        <time>2021-07-10T14:00:16Z</time>
      </trkpt>
      <trkpt lat="44.12086" lon="6.73038">
        <ele>1888.5545145056</ele>
        <time>2021-07-10T14:00:17Z</time>
      </trkpt>
      <trkpt lat="44.12086" lon="6.73038">
        <ele>1888.5544998099</ele>
        <time>2021-07-10T14:00:18Z</time>
      </trkpt>
      <trkpt lat="44.12088" lon="6.73038">
        <ele>1888.5544523999</ele>
        <time>2021-07-10T14:00:20Z</time>
      </trkpt>
      <trkpt lat="44.12089" lon="6.73037">
        <ele>1888.5543920566</ele>
        <time>2021-07-10T14:00:22Z</time>
      </trkpt>
      <trkpt lat="44.1209" lon="6.73037">
        <ele>1888.554360357</ele>
        <time>2021-07-10T14:00:23Z</time>
      </trkpt>
      <trkpt lat="44.12092" lon="6.73037">
        <ele>1888.5543167555</ele>
        <time>2021-07-10T14:00:24Z</time>
      </trkpt>
      <trkpt lat="44.12093" lon="6.73037">
        <ele>1888.5542828474</ele>
        <time>2021-07-10T14:00:25Z</time>
      </trkpt>
      <trkpt lat="44.12095" lon="6.73037">
        <ele>1887.5541788861</ele>
        <time>2021-07-10T14:00:27Z</time>
      </trkpt>
      <trkpt lat="44.12096" lon="6.73037">
        <ele>1887.5541319711</ele>
        <time>2021-07-10T14:00:28Z</time>
      </trkpt>
      <trkpt lat="44.12098" lon="6.73037">
        <ele>1887.5540873123</ele>
        <time>2021-07-10T14:00:29Z</time>
      </trkpt>
      <trkpt lat="44.121" lon="6.73037">
        <ele>1887.5540193233</ele>
        <time>2021-07-10T14:00:31Z</time>
      </trkpt>
      <trkpt lat="44.12101" lon="6.73037">
        <ele>1886.5539772501</ele>
        <time>2021-07-10T14:00:32Z</time>
      </trkpt>
      <trkpt lat="44.12102" lon="6.73037">
        <ele>1885.5539448984</ele>
        <time>2021-07-10T14:00:33Z</time>
      </trkpt>
      <trkpt lat="44.12103" lon="6.73037">
        <ele>1885.5538817007</ele>
        <time>2021-07-10T14:00:34Z</time>
      </trkpt>
      <trkpt lat="44.12106" lon="6.73036">
        <ele>1884.5537829649</ele>
        <time>2021-07-10T14:00:36Z</time>
      </trkpt>
      <trkpt lat="44.12108" lon="6.73036">
        <ele>1883.5537399304</ele>
        <time>2021-07-10T14:00:37Z</time>
      </trkpt>
      <trkpt lat="44.12109" lon="6.73036">
        <ele>1883.5536837436</ele>
        <time>2021-07-10T14:00:38Z</time>
      </trkpt>
      <trkpt lat="44.12111" lon="6.73036">
        <ele>1882.5536261811</ele>
        <time>2021-07-10T14:00:40Z</time>
      </trkpt>
      <trkpt lat="44.12113" lon="6.73035">
        <ele>1881.5535783373</ele>
        <time>2021-07-10T14:00:42Z</time>
      </trkpt>
      <trkpt lat="44.12113" lon="6.73035">
        <ele>1881.553559823</ele>
        <time>2021-07-10T14:00:43Z</time>
      </trkpt>
      <trkpt lat="44.12114" lon="6.73033">
        <ele>1881.5535590772</ele>
        <time>2021-07-10T14:00:44Z</time>
      </trkpt>
      <trkpt lat="44.12116" lon="6.7303">
        <ele>1879.5535712338</ele>
        <time>2021-07-10T14:00:46Z</time>
      </trkpt>
      <trkpt lat="44.12116" lon="6.73029">
        <ele>1879.5535580438</ele>
        <time>2021-07-10T14:00:47Z</time>
      </trkpt>
      <trkpt lat="44.12117" lon="6.73028">
        <ele>1879.5535507055</ele>
        <time>2021-07-10T14:00:48Z</time>
      </trkpt>
      <trkpt lat="44.12118" lon="6.73026">
        <ele>1879.553551953</ele>
        <time>2021-07-10T14:00:49Z</time>
      </trkpt>
      <trkpt lat="44.12119" lon="6.73026">
        <ele>1879.5535194143</ele>
        <time>2021-07-10T14:00:51Z</time>
      </trkpt>
      <trkpt lat="44.12119" lon="6.73025">
        <ele>1878.5535353752</ele>
        <time>2021-07-10T14:00:53Z</time>
      </trkpt>
      <trkpt lat="44.1212" lon="6.73023">
        <ele>1878.5535199487</ele>
        <time>2021-07-10T14:00:55Z</time>
      </trkpt>
      <trkpt lat="44.12123" lon="6.7302">
        <ele>1879.5534847674</ele>
        <time>2021-07-10T14:00:57Z</time>
      </trkpt>
      <trkpt lat="44.12123" lon="6.73019">
        <ele>1878.5534932087</ele>
        <time>2021-07-10T14:00:58Z</time>
      </trkpt>
      <trkpt lat="44.12124" lon="6.73018">
        <ele>1878.5535036539</ele>
        <time>2021-07-10T14:00:59Z</time>
      </trkpt>
      <trkpt lat="44.12124" lon="6.73015">
        <ele>1875.5535367006</ele>
        <time>2021-07-10T14:01:01Z</time>
      </trkpt>
      <trkpt lat="44.12125" lon="6.73014">
        <ele>1876.5535256815</ele>
        <time>2021-07-10T14:01:02Z</time>
      </trkpt>
      <trkpt lat="44.12126" lon="6.73013">
        <ele>1877.5535251918</ele>
        <time>2021-07-10T14:01:03Z</time>
      </trkpt>
      <trkpt lat="44.12126" lon="6.73012">
        <ele>1877.5535263858</ele>
        <time>2021-07-10T14:01:05Z</time>
      </trkpt>
      <trkpt lat="44.12126" lon="6.73012">
        <ele>1879.5535210044</ele>
        <time>2021-07-10T14:01:10Z</time>
      </trkpt>
      <trkpt lat="44.12127" lon="6.73011">
        <ele>1880.5535167705</ele>
        <time>2021-07-10T14:01:11Z</time>
      </trkpt>
      <trkpt lat="44.12127" lon="6.73011">
        <ele>1880.5534928453</ele>
        <time>2021-07-10T14:01:12Z</time>
      </trkpt>
      <trkpt lat="44.12128" lon="6.73012">
        <ele>1881.553466451</ele>
        <time>2021-07-10T14:01:14Z</time>
      </trkpt>
      <trkpt lat="44.12129" lon="6.73012">
        <ele>1882.5534428547</ele>
        <time>2021-07-10T14:01:15Z</time>
      </trkpt>
      <trkpt lat="44.12129" lon="6.73011">
        <ele>1883.5534305785</ele>
        <time>2021-07-10T14:01:16Z</time>
      </trkpt>
      <trkpt lat="44.1213" lon="6.7301">
        <ele>1883.5534118032</ele>
        <time>2021-07-10T14:01:17Z</time>
      </trkpt>
      <trkpt lat="44.12131" lon="6.7301">
        <ele>1884.553399985</ele>
        <time>2021-07-10T14:01:18Z</time>
      </trkpt>
      <trkpt lat="44.12131" lon="6.73009">
        <ele>1884.5534039445</ele>
        <time>2021-07-10T14:01:19Z</time>
      </trkpt>
      <trkpt lat="44.12132" lon="6.73008">
        <ele>1883.5533945667</ele>
        <time>2021-07-10T14:01:20Z</time>
      </trkpt>
      <trkpt lat="44.12132" lon="6.73008">
        <ele>1883.553379248</ele>
        <time>2021-07-10T14:01:21Z</time>
      </trkpt>
      <trkpt lat="44.12133" lon="6.73009">
        <ele>1882.5533442505</ele>
        <time>2021-07-10T14:01:22Z</time>
      </trkpt>
      <trkpt lat="44.12134" lon="6.73009">
        <ele>1881.5532986893</ele>
        <time>2021-07-10T14:01:23Z</time>
      </trkpt>
      <trkpt lat="44.12135" lon="6.7301">
        <ele>1880.5532436143</ele>
        <time>2021-07-10T14:01:24Z</time>
      </trkpt>
      <trkpt lat="44.12137" lon="6.73012">
        <ele>1879.5531431803</ele>
        <time>2021-07-10T14:01:26Z</time>
      </trkpt>
      <trkpt lat="44.12137" lon="6.73012">
        <ele>1880.5531388959</ele>
        <time>2021-07-10T14:01:30Z</time>
      </trkpt>
      <trkpt lat="44.12138" lon="6.73011">
        <ele>1881.5531053187</ele>
        <time>2021-07-10T14:01:32Z</time>
      </trkpt>
      <trkpt lat="44.12138" lon="6.7301">
        <ele>1881.5531130091</ele>
        <time>2021-07-10T14:01:34Z</time>
      </trkpt>
      <trkpt lat="44.12138" lon="6.73009">
        <ele>1881.5531347207</ele>
        <time>2021-07-10T14:01:35Z</time>
      </trkpt>
      <trkpt lat="44.12139" lon="6.73008">
        <ele>1881.5531337697</ele>
        <time>2021-07-10T14:01:36Z</time>
      </trkpt>
      <trkpt lat="44.1214" lon="6.73007">
        <ele>1880.5531192971</ele>
        <time>2021-07-10T14:01:37Z</time>
      </trkpt>
      <trkpt lat="44.1214" lon="6.73007">
        <ele>1880.5531246356</ele>
        <time>2021-07-10T14:01:38Z</time>
      </trkpt>
      <trkpt lat="44.12139" lon="6.73006">
        <ele>1879.5531791987</ele>
        <time>2021-07-10T14:01:40Z</time>
      </trkpt>
      <trkpt lat="44.12139" lon="6.73006">
        <ele>1879.5531791987</ele>
        <time>2021-07-10T14:01:42Z</time>
      </trkpt>
      <trkpt lat="44.12139" lon="6.73004">
        <ele>1878.5531832979</ele>
        <time>2021-07-10T14:01:43Z</time>
      </trkpt>
      <trkpt lat="44.1214" lon="6.73004">
        <ele>1878.5531778116</ele>
        <time>2021-07-10T14:01:44Z</time>
      </trkpt>
      <trkpt lat="44.12141" lon="6.73004">
        <ele>1877.5531232665</ele>
        <time>2021-07-10T14:01:46Z</time>
      </trkpt>
      <trkpt lat="44.12141" lon="6.73004">
        <ele>1877.5531232665</ele>
        <time>2021-07-10T14:01:48Z</time>
      </trkpt>
      <trkpt lat="44.12143" lon="6.73003">
        <ele>1876.5530804972</ele>
        <time>2021-07-10T14:01:50Z</time>
      </trkpt>
      <trkpt lat="44.12144" lon="6.73003">
        <ele>1875.5530638067</ele>
        <time>2021-07-10T14:01:54Z</time>
      </trkpt>
      <trkpt lat="44.12146" lon="6.73003">
        <ele>1876.5529859634</ele>
        <time>2021-07-10T14:01:56Z</time>
      </trkpt>
      <trkpt lat="44.12146" lon="6.73003">
        <ele>1876.5529617367</ele>
        <time>2021-07-10T14:01:57Z</time>
      </trkpt>
      <trkpt lat="44.12147" lon="6.73002">
        <ele>1876.5529539958</ele>
        <time>2021-07-10T14:01:58Z</time>
      </trkpt>
      <trkpt lat="44.12148" lon="6.73002">
        <ele>1876.552911174</ele>
        <time>2021-07-10T14:02:00Z</time>
      </trkpt>
      <trkpt lat="44.12149" lon="6.73001">
        <ele>1876.5528947028</ele>
        <time>2021-07-10T14:02:03Z</time>
      </trkpt>
      <trkpt lat="44.12151" lon="6.73">
        <ele>1875.5528492041</ele>
        <time>2021-07-10T14:02:05Z</time>
      </trkpt>
      <trkpt lat="44.12153" lon="6.72999">
        <ele>1875.5528050675</ele>
        <time>2021-07-10T14:02:07Z</time>
      </trkpt>
      <trkpt lat="44.12154" lon="6.72998">
        <ele>1875.5527771256</ele>
        <time>2021-07-10T14:02:08Z</time>
      </trkpt>
      <trkpt lat="44.12155" lon="6.72998">
        <ele>1875.5527428727</ele>
        <time>2021-07-10T14:02:09Z</time>
      </trkpt>
      <trkpt lat="44.12157" lon="6.72998">
        <ele>1874.5526846022</ele>
        <time>2021-07-10T14:02:11Z</time>
      </trkpt>
      <trkpt lat="44.12157" lon="6.72997">
        <ele>1874.5526594003</ele>
        <time>2021-07-10T14:02:12Z</time>
      </trkpt>
      <trkpt lat="44.12158" lon="6.72997">
        <ele>1874.5526388915</ele>
        <time>2021-07-10T14:02:13Z</time>
      </trkpt>
      <trkpt lat="44.12161" lon="6.72996">
        <ele>1874.5525618716</ele>
        <time>2021-07-10T14:02:15Z</time>
      </trkpt>
      <trkpt lat="44.12162" lon="6.72996">
        <ele>1874.5525068872</ele>
        <time>2021-07-10T14:02:16Z</time>
      </trkpt>
      <trkpt lat="44.12163" lon="6.72996">
        <ele>1874.5524840922</ele>
        <time>2021-07-10T14:02:17Z</time>
      </trkpt>
      <trkpt lat="44.12163" lon="6.72996">
        <ele>1874.552463999</ele>
        <time>2021-07-10T14:02:18Z</time>
      </trkpt>
      <trkpt lat="44.12165" lon="6.72996">
        <ele>1873.5524249372</ele>
        <time>2021-07-10T14:02:19Z</time>
      </trkpt>
      <trkpt lat="44.12166" lon="6.72998">
        <ele>1873.5523146312</ele>
        <time>2021-07-10T14:02:21Z</time>
      </trkpt>
      <trkpt lat="44.12167" lon="6.72999">
        <ele>1872.552284431</ele>
        <time>2021-07-10T14:02:22Z</time>
      </trkpt>
      <trkpt lat="44.12168" lon="6.72999">
        <ele>1872.5522615352</ele>
        <time>2021-07-10T14:02:23Z</time>
      </trkpt>
      <trkpt lat="44.12168" lon="6.72999">
        <ele>1872.5522153069</ele>
        <time>2021-07-10T14:02:24Z</time>
      </trkpt>
      <trkpt lat="44.12168" lon="6.72999">
        <ele>1872.5522153069</ele>
        <time>2021-07-10T14:02:26Z</time>
      </trkpt>
      <trkpt lat="44.1217" lon="6.73001">
        <ele>1872.5521240626</ele>
        <time>2021-07-10T14:02:27Z</time>
      </trkpt>
      <trkpt lat="44.12171" lon="6.73">
        <ele>1871.5520961096</ele>
        <time>2021-07-10T14:02:28Z</time>
      </trkpt>
      <trkpt lat="44.12172" lon="6.73">
        <ele>1871.5520636843</ele>
        <time>2021-07-10T14:02:29Z</time>
      </trkpt>
      <trkpt lat="44.12173" lon="6.73">
        <ele>1871.5520319771</ele>
        <time>2021-07-10T14:02:30Z</time>
      </trkpt>
      <trkpt lat="44.12174" lon="6.73">
        <ele>1871.5520091227</ele>
        <time>2021-07-10T14:02:31Z</time>
      </trkpt>
      <trkpt lat="44.12174" lon="6.73">
        <ele>1870.5519840474</ele>
        <time>2021-07-10T14:02:34Z</time>
      </trkpt>
      <trkpt lat="44.12177" lon="6.73003">
        <ele>1869.5518480539</ele>
        <time>2021-07-10T14:02:36Z</time>
      </trkpt>
      <trkpt lat="44.12178" lon="6.73003">
        <ele>1869.551809021</ele>
        <time>2021-07-10T14:02:37Z</time>
      </trkpt>
      <trkpt lat="44.12179" lon="6.73002">
        <ele>1869.5517729735</ele>
        <time>2021-07-10T14:02:38Z</time>
      </trkpt>
      <trkpt lat="44.12179" lon="6.73002">
        <ele>1869.5517729735</ele>
        <time>2021-07-10T14:02:40Z</time>
      </trkpt>
      <trkpt lat="44.12181" lon="6.73004">
        <ele>1866.5516535168</ele>
        <time>2021-07-10T14:02:41Z</time>
      </trkpt>
      <trkpt lat="44.12182" lon="6.73004">
        <ele>1865.5516153796</ele>
        <time>2021-07-10T14:02:42Z</time>
      </trkpt>
      <trkpt lat="44.12183" lon="6.73004">
        <ele>1865.5515922516</ele>
        <time>2021-07-10T14:02:43Z</time>
      </trkpt>
      <trkpt lat="44.12185" lon="6.73003">
        <ele>1864.551534985</ele>
        <time>2021-07-10T14:02:45Z</time>
      </trkpt>
      <trkpt lat="44.12186" lon="6.73003">
        <ele>1864.5515034152</ele>
        <time>2021-07-10T14:02:46Z</time>
      </trkpt>
      <trkpt lat="44.12187" lon="6.73003">
        <ele>1864.551445532</ele>
        <time>2021-07-10T14:02:47Z</time>
      </trkpt>
      <trkpt lat="44.12189" lon="6.73004">
        <ele>1864.5513677762</ele>
        <time>2021-07-10T14:02:48Z</time>
      </trkpt>
      <trkpt lat="44.12192" lon="6.73005">
        <ele>1862.5512536541</ele>
        <time>2021-07-10T14:02:50Z</time>
      </trkpt>
      <trkpt lat="44.12193" lon="6.73006">
        <ele>1862.5511783004</ele>
        <time>2021-07-10T14:02:51Z</time>
      </trkpt>
      <trkpt lat="44.12194" lon="6.73006">
        <ele>1862.5511343102</ele>
        <time>2021-07-10T14:02:52Z</time>
      </trkpt>
      <trkpt lat="44.12196" lon="6.73005">
        <ele>1862.5510911884</ele>
        <time>2021-07-10T14:02:53Z</time>
      </trkpt>
      <trkpt lat="44.12198" lon="6.73005">
        <ele>1862.5510366995</ele>
        <time>2021-07-10T14:02:54Z</time>
      </trkpt>
      <trkpt lat="44.12201" lon="6.73004">
        <ele>1862.5509307236</ele>
        <time>2021-07-10T14:02:56Z</time>
      </trkpt>
      <trkpt lat="44.12202" lon="6.73004">
        <ele>1862.5508757761</ele>
        <time>2021-07-10T14:02:57Z</time>
      </trkpt>
      <trkpt lat="44.12204" lon="6.73004">
        <ele>1862.5508245651</ele>
        <time>2021-07-10T14:02:58Z</time>
      </trkpt>
      <trkpt lat="44.12206" lon="6.73003">
        <ele>1861.5507716206</ele>
        <time>2021-07-10T14:03:00Z</time>
      </trkpt>
      <trkpt lat="44.12207" lon="6.73003">
        <ele>1860.5507359357</ele>
        <time>2021-07-10T14:03:01Z</time>
      </trkpt>
      <trkpt lat="44.12208" lon="6.73003">
        <ele>1860.5506995224</ele>
        <time>2021-07-10T14:03:02Z</time>
      </trkpt>
      <trkpt lat="44.12209" lon="6.73003">
        <ele>1860.5506462653</ele>
        <time>2021-07-10T14:03:03Z</time>
      </trkpt>
      <trkpt lat="44.12211" lon="6.73002">
        <ele>1860.5506176309</ele>
        <time>2021-07-10T14:03:05Z</time>
      </trkpt>
      <trkpt lat="44.12213" lon="6.73001">
        <ele>1859.5505643213</ele>
        <time>2021-07-10T14:03:07Z</time>
      </trkpt>
      <trkpt lat="44.12214" lon="6.73001">
        <ele>1859.550530998</ele>
        <time>2021-07-10T14:03:08Z</time>
      </trkpt>
      <trkpt lat="44.12215" lon="6.73">
        <ele>1859.5504881768</ele>
        <time>2021-07-10T14:03:09Z</time>
      </trkpt>
      <trkpt lat="44.12218" lon="6.73">
        <ele>1859.550379504</ele>
        <time>2021-07-10T14:03:11Z</time>
      </trkpt>
      <trkpt lat="44.12219" lon="6.73">
        <ele>1859.5503230762</ele>
        <time>2021-07-10T14:03:12Z</time>
      </trkpt>
      <trkpt lat="44.12221" lon="6.73001">
        <ele>1859.5502679188</ele>
        <time>2021-07-10T14:03:13Z</time>
      </trkpt>
      <trkpt lat="44.12222" lon="6.73001">
        <ele>1859.5502144093</ele>
        <time>2021-07-10T14:03:14Z</time>
      </trkpt>
      <trkpt lat="44.12225" lon="6.73001">
        <ele>1859.5501087649</ele>
        <time>2021-07-10T14:03:16Z</time>
      </trkpt>
      <trkpt lat="44.12226" lon="6.73002">
        <ele>1859.5500492949</ele>
        <time>2021-07-10T14:03:17Z</time>
      </trkpt>
      <trkpt lat="44.12227" lon="6.73002">
        <ele>1859.5500129711</ele>
        <time>2021-07-10T14:03:18Z</time>
      </trkpt>
      <trkpt lat="44.12229" lon="6.73001">
        <ele>1858.5499533434</ele>
        <time>2021-07-10T14:03:20Z</time>
      </trkpt>
      <trkpt lat="44.12231" lon="6.73001">
        <ele>1859.5498911961</ele>
        <time>2021-07-10T14:03:22Z</time>
      </trkpt>
      <trkpt lat="44.12231" lon="6.73002">
        <ele>1858.5498675856</ele>
        <time>2021-07-10T14:03:23Z</time>
      </trkpt>
      <trkpt lat="44.12232" lon="6.73001">
        <ele>1858.549840653</ele>
        <time>2021-07-10T14:03:24Z</time>
      </trkpt>
      <trkpt lat="44.12233" lon="6.73001">
        <ele>1858.5498120365</ele>
        <time>2021-07-10T14:03:25Z</time>
      </trkpt>
      <trkpt lat="44.12234" lon="6.73001">
        <ele>1858.5497701564</ele>
        <time>2021-07-10T14:03:26Z</time>
      </trkpt>
      <trkpt lat="44.12235" lon="6.73001">
        <ele>1858.5497213199</ele>
        <time>2021-07-10T14:03:27Z</time>
      </trkpt>
      <trkpt lat="44.12236" lon="6.73002">
        <ele>1858.5496693345</ele>
        <time>2021-07-10T14:03:28Z</time>
      </trkpt>
      <trkpt lat="44.12237" lon="6.73002">
        <ele>1858.5496316532</ele>
        <time>2021-07-10T14:03:29Z</time>
      </trkpt>
      <trkpt lat="44.12238" lon="6.73003">
        <ele>1857.5495908269</ele>
        <time>2021-07-10T14:03:30Z</time>
      </trkpt>
      <trkpt lat="44.12239" lon="6.73002">
        <ele>1857.5495733065</ele>
        <time>2021-07-10T14:03:31Z</time>
      </trkpt>
      <trkpt lat="44.1224" lon="6.73002">
        <ele>1857.5495430636</ele>
        <time>2021-07-10T14:03:32Z</time>
      </trkpt>
      <trkpt lat="44.1224" lon="6.73002">
        <ele>1857.5495111766</ele>
        <time>2021-07-10T14:03:33Z</time>
      </trkpt>
      <trkpt lat="44.12241" lon="6.73003">
        <ele>1857.5494784493</ele>
        <time>2021-07-10T14:03:34Z</time>
      </trkpt>
      <trkpt lat="44.12242" lon="6.73004">
        <ele>1856.5494386363</ele>
        <time>2021-07-10T14:03:35Z</time>
      </trkpt>
      <trkpt lat="44.12243" lon="6.73005">
        <ele>1856.5493651142</ele>
        <time>2021-07-10T14:03:37Z</time>
      </trkpt>
      <trkpt lat="44.12244" lon="6.73005">
        <ele>1855.5493201515</ele>
        <time>2021-07-10T14:03:38Z</time>
      </trkpt>
      <trkpt lat="44.12245" lon="6.73006">
        <ele>1855.5492735242</ele>
        <time>2021-07-10T14:03:39Z</time>
      </trkpt>
      <trkpt lat="44.12245" lon="6.73006">
        <ele>1855.5492599487</ele>
        <time>2021-07-10T14:03:40Z</time>
      </trkpt>
      <trkpt lat="44.12246" lon="6.73006">
        <ele>1854.5492224618</ele>
        <time>2021-07-10T14:03:41Z</time>
      </trkpt>
      <trkpt lat="44.12247" lon="6.73007">
        <ele>1854.5491742987</ele>
        <time>2021-07-10T14:03:42Z</time>
      </trkpt>
      <trkpt lat="44.12248" lon="6.73007">
        <ele>1854.5491443792</ele>
        <time>2021-07-10T14:03:43Z</time>
      </trkpt>
      <trkpt lat="44.1225" lon="6.73007">
        <ele>1853.549069381</ele>
        <time>2021-07-10T14:03:45Z</time>
      </trkpt>
      <trkpt lat="44.12251" lon="6.73007">
        <ele>1853.5490318322</ele>
        <time>2021-07-10T14:03:46Z</time>
      </trkpt>
      <trkpt lat="44.12252" lon="6.73008">
        <ele>1853.5489770394</ele>
        <time>2021-07-10T14:03:47Z</time>
      </trkpt>
      <trkpt lat="44.12253" lon="6.73008">
        <ele>1852.5489144034</ele>
        <time>2021-07-10T14:03:48Z</time>
      </trkpt>
      <trkpt lat="44.12255" lon="6.73009">
        <ele>1851.5488566342</ele>
        <time>2021-07-10T14:03:50Z</time>
      </trkpt>
      <trkpt lat="44.12256" lon="6.73011">
        <ele>1851.5487625556</ele>
        <time>2021-07-10T14:03:52Z</time>
      </trkpt>
      <trkpt lat="44.12257" lon="6.73011">
        <ele>1851.548718717</ele>
        <time>2021-07-10T14:03:53Z</time>
      </trkpt>
      <trkpt lat="44.12258" lon="6.73012">
        <ele>1851.5486749001</ele>
        <time>2021-07-10T14:03:54Z</time>
      </trkpt>
      <trkpt lat="44.12258" lon="6.73012">
        <ele>1850.5486645242</ele>
        <time>2021-07-10T14:03:55Z</time>
      </trkpt>
      <trkpt lat="44.12259" lon="6.73013">
        <ele>1849.5486056892</ele>
        <time>2021-07-10T14:03:57Z</time>
      </trkpt>
      <trkpt lat="44.1226" lon="6.73012">
        <ele>1849.5485865694</ele>
        <time>2021-07-10T14:03:58Z</time>
      </trkpt>
      <trkpt lat="44.12261" lon="6.73012">
        <ele>1849.5485577997</ele>
        <time>2021-07-10T14:03:59Z</time>
      </trkpt>
      <trkpt lat="44.12263" lon="6.73012">
        <ele>1848.5485003809</ele>
        <time>2021-07-10T14:04:01Z</time>
      </trkpt>
      <trkpt lat="44.12264" lon="6.73012">
        <ele>1848.5484723399</ele>
        <time>2021-07-10T14:04:02Z</time>
      </trkpt>
      <trkpt lat="44.12264" lon="6.73012">
        <ele>1846.5484314169</ele>
        <time>2021-07-10T14:04:06Z</time>
      </trkpt>
      <trkpt lat="44.12267" lon="6.73014">
        <ele>1845.5483066509</ele>
        <time>2021-07-10T14:04:07Z</time>
      </trkpt>
      <trkpt lat="44.12268" lon="6.73015">
        <ele>1845.5482652367</ele>
        <time>2021-07-10T14:04:08Z</time>
      </trkpt>
      <trkpt lat="44.12268" lon="6.73016">
        <ele>1845.5482148432</ele>
        <time>2021-07-10T14:04:09Z</time>
      </trkpt>
      <trkpt lat="44.12269" lon="6.73017">
        <ele>1844.5481634244</ele>
        <time>2021-07-10T14:04:11Z</time>
      </trkpt>
      <trkpt lat="44.12269" lon="6.73018">
        <ele>1843.548146969</ele>
        <time>2021-07-10T14:04:12Z</time>
      </trkpt>
      <trkpt lat="44.12269" lon="6.73018">
        <ele>1843.5481245417</ele>
        <time>2021-07-10T14:04:13Z</time>
      </trkpt>
      <trkpt lat="44.1227" lon="6.7302">
        <ele>1843.5480736276</ele>
        <time>2021-07-10T14:04:14Z</time>
      </trkpt>
      <trkpt lat="44.12271" lon="6.7302">
        <ele>1841.5480224569</ele>
        <time>2021-07-10T14:04:16Z</time>
      </trkpt>
      <trkpt lat="44.12272" lon="6.7302">
        <ele>1842.547995</ele>
        <time>2021-07-10T14:04:17Z</time>
      </trkpt>
      <trkpt lat="44.12273" lon="6.7302">
        <ele>1841.5479759625</ele>
        <time>2021-07-10T14:04:18Z</time>
      </trkpt>
      <trkpt lat="44.12273" lon="6.7302">
        <ele>1841.5479558012</ele>
        <time>2021-07-10T14:04:19Z</time>
      </trkpt>
      <trkpt lat="44.12274" lon="6.7302">
        <ele>1840.5479332771</ele>
        <time>2021-07-10T14:04:20Z</time>
      </trkpt>
      <trkpt lat="44.12275" lon="6.73021">
        <ele>1839.5478599083</ele>
        <time>2021-07-10T14:04:22Z</time>
      </trkpt>
      <trkpt lat="44.12276" lon="6.73022">
        <ele>1839.547817242</ele>
        <time>2021-07-10T14:04:23Z</time>
      </trkpt>
      <trkpt lat="44.12277" lon="6.73022">
        <ele>1839.5477788559</ele>
        <time>2021-07-10T14:04:24Z</time>
      </trkpt>
      <trkpt lat="44.12278" lon="6.73023">
        <ele>1839.5477365167</ele>
        <time>2021-07-10T14:04:25Z</time>
      </trkpt>
      <trkpt lat="44.12279" lon="6.73023">
        <ele>1839.547690934</ele>
        <time>2021-07-10T14:04:27Z</time>
      </trkpt>
      <trkpt lat="44.12279" lon="6.73024">
        <ele>1839.5476520498</ele>
        <time>2021-07-10T14:04:28Z</time>
      </trkpt>
      <trkpt lat="44.1228" lon="6.73025">
        <ele>1839.547596603</ele>
        <time>2021-07-10T14:04:29Z</time>
      </trkpt>
      <trkpt lat="44.12281" lon="6.73025">
        <ele>1839.5475463003</ele>
        <time>2021-07-10T14:04:30Z</time>
      </trkpt>
      <trkpt lat="44.12282" lon="6.73026">
        <ele>1839.5475040438</ele>
        <time>2021-07-10T14:04:31Z</time>
      </trkpt>
      <trkpt lat="44.12283" lon="6.73028">
        <ele>1839.5474546717</ele>
        <time>2021-07-10T14:04:32Z</time>
      </trkpt>
      <trkpt lat="44.12284" lon="6.73028">
        <ele>1839.5474189502</ele>
        <time>2021-07-10T14:04:33Z</time>
      </trkpt>
      <trkpt lat="44.12284" lon="6.73029">
        <ele>1838.547371789</ele>
        <time>2021-07-10T14:04:34Z</time>
      </trkpt>
      <trkpt lat="44.12285" lon="6.73029">
        <ele>1838.5473333355</ele>
        <time>2021-07-10T14:04:35Z</time>
      </trkpt>
      <trkpt lat="44.12286" lon="6.7303">
        <ele>1838.5472860142</ele>
        <time>2021-07-10T14:04:36Z</time>
      </trkpt>
      <trkpt lat="44.12286" lon="6.73031">
        <ele>1837.5472642272</ele>
        <time>2021-07-10T14:04:37Z</time>
      </trkpt>
      <trkpt lat="44.12287" lon="6.73031">
        <ele>1836.5472306213</ele>
        <time>2021-07-10T14:04:38Z</time>
      </trkpt>
      <trkpt lat="44.12288" lon="6.73031">
        <ele>1835.5471923197</ele>
        <time>2021-07-10T14:04:39Z</time>
      </trkpt>
      <trkpt lat="44.12289" lon="6.73032">
        <ele>1835.5471396295</ele>
        <time>2021-07-10T14:04:40Z</time>
      </trkpt>
      <trkpt lat="44.1229" lon="6.73033">
        <ele>1834.5470846085</ele>
        <time>2021-07-10T14:04:41Z</time>
      </trkpt>
      <trkpt lat="44.12291" lon="6.73034">
        <ele>1834.5470322532</ele>
        <time>2021-07-10T14:04:42Z</time>
      </trkpt>
      <trkpt lat="44.12292" lon="6.73035">
        <ele>1833.5469775924</ele>
        <time>2021-07-10T14:04:43Z</time>
      </trkpt>
      <trkpt lat="44.12293" lon="6.73036">
        <ele>1833.5469292047</ele>
        <time>2021-07-10T14:04:44Z</time>
      </trkpt>
      <trkpt lat="44.12293" lon="6.73037">
        <ele>1833.5468796043</ele>
        <time>2021-07-10T14:04:45Z</time>
      </trkpt>
      <trkpt lat="44.12294" lon="6.73038">
        <ele>1833.5468431066</ele>
        <time>2021-07-10T14:04:46Z</time>
      </trkpt>
      <trkpt lat="44.12294" lon="6.73039">
        <ele>1833.546814985</ele>
        <time>2021-07-10T14:04:47Z</time>
      </trkpt>
      <trkpt lat="44.12294" lon="6.7304">
        <ele>1832.5467943289</ele>
        <time>2021-07-10T14:04:48Z</time>
      </trkpt>
      <trkpt lat="44.12294" lon="6.73043">
        <ele>1832.5467383245</ele>
        <time>2021-07-10T14:04:50Z</time>
      </trkpt>
      <trkpt lat="44.12295" lon="6.73044">
        <ele>1832.5466900445</ele>
        <time>2021-07-10T14:04:52Z</time>
      </trkpt>
      <trkpt lat="44.12295" lon="6.73046">
        <ele>1831.5466443012</ele>
        <time>2021-07-10T14:04:53Z</time>
      </trkpt>
      <trkpt lat="44.12296" lon="6.73047">
        <ele>1831.5465978196</ele>
        <time>2021-07-10T14:04:54Z</time>
      </trkpt>
      <trkpt lat="44.12296" lon="6.73048">
        <ele>1831.5465673194</ele>
        <time>2021-07-10T14:04:55Z</time>
      </trkpt>
      <trkpt lat="44.12296" lon="6.73049">
        <ele>1830.5465384104</ele>
        <time>2021-07-10T14:04:57Z</time>
      </trkpt>
      <trkpt lat="44.12296" lon="6.7305">
        <ele>1830.5465070188</ele>
        <time>2021-07-10T14:04:58Z</time>
      </trkpt>
      <trkpt lat="44.12297" lon="6.73051">
        <ele>1830.546489222</ele>
        <time>2021-07-10T14:05:01Z</time>
      </trkpt>
      <trkpt lat="44.12297" lon="6.73053">
        <ele>1831.5464236534</ele>
        <time>2021-07-10T14:05:02Z</time>
      </trkpt>
      <trkpt lat="44.12298" lon="6.73053">
        <ele>1830.5463943112</ele>
        <time>2021-07-10T14:05:03Z</time>
      </trkpt>
      <trkpt lat="44.12299" lon="6.73054">
        <ele>1831.5463584754</ele>
        <time>2021-07-10T14:05:04Z</time>
      </trkpt>
      <trkpt lat="44.12298" lon="6.73055">
        <ele>1831.546335352</ele>
        <time>2021-07-10T14:05:06Z</time>
      </trkpt>
      <trkpt lat="44.12298" lon="6.73057">
        <ele>1831.5463087262</ele>
        <time>2021-07-10T14:05:07Z</time>
      </trkpt>
      <trkpt lat="44.12299" lon="6.73058">
        <ele>1830.5462532482</ele>
        <time>2021-07-10T14:05:08Z</time>
      </trkpt>
      <trkpt lat="44.12299" lon="6.73059">
        <ele>1830.5462225798</ele>
        <time>2021-07-10T14:05:09Z</time>
      </trkpt>
      <trkpt lat="44.123" lon="6.7306">
        <ele>1830.5461911473</ele>
        <time>2021-07-10T14:05:10Z</time>
      </trkpt>
      <trkpt lat="44.123" lon="6.73062">
        <ele>1830.546155477</ele>
        <time>2021-07-10T14:05:11Z</time>
      </trkpt>
      <trkpt lat="44.12299" lon="6.73064">
        <ele>1831.5461234566</ele>
        <time>2021-07-10T14:05:12Z</time>
      </trkpt>
      <trkpt lat="44.12299" lon="6.73065">
        <ele>1830.5461008287</ele>
        <time>2021-07-10T14:05:13Z</time>
      </trkpt>
      <trkpt lat="44.12299" lon="6.73066">
        <ele>1830.546098223</ele>
        <time>2021-07-10T14:05:14Z</time>
      </trkpt>
      <trkpt lat="44.12299" lon="6.73067">
        <ele>1830.5460853795</ele>
        <time>2021-07-10T14:05:15Z</time>
      </trkpt>
      <trkpt lat="44.12298" lon="6.73068">
        <ele>1829.5460943157</ele>
        <time>2021-07-10T14:05:16Z</time>
      </trkpt>
      <trkpt lat="44.12298" lon="6.73069">
        <ele>1829.5460879832</ele>
        <time>2021-07-10T14:05:17Z</time>
      </trkpt>
      <trkpt lat="44.12297" lon="6.73071">
        <ele>1829.5460625479</ele>
        <time>2021-07-10T14:05:18Z</time>
      </trkpt>
      <trkpt lat="44.12297" lon="6.73072">
        <ele>1828.5460451495</ele>
        <time>2021-07-10T14:05:19Z</time>
      </trkpt>
      <trkpt lat="44.12298" lon="6.73072">
        <ele>1828.546033294</ele>
        <time>2021-07-10T14:05:20Z</time>
      </trkpt>
      <trkpt lat="44.12297" lon="6.73073">
        <ele>1827.5460311071</ele>
        <time>2021-07-10T14:05:21Z</time>
      </trkpt>
      <trkpt lat="44.12298" lon="6.73074">
        <ele>1827.5459936582</ele>
        <time>2021-07-10T14:05:23Z</time>
      </trkpt>
      <trkpt lat="44.12299" lon="6.73075">
        <ele>1827.5459393799</ele>
        <time>2021-07-10T14:05:24Z</time>
      </trkpt>
      <trkpt lat="44.12299" lon="6.73076">
        <ele>1827.5458871079</ele>
        <time>2021-07-10T14:05:25Z</time>
      </trkpt>
      <trkpt lat="44.123" lon="6.73077">
        <ele>1826.545859776</ele>
        <time>2021-07-10T14:05:26Z</time>
      </trkpt>
      <trkpt lat="44.123" lon="6.73078">
        <ele>1827.5458359773</ele>
        <time>2021-07-10T14:05:27Z</time>
      </trkpt>
      <trkpt lat="44.123" lon="6.73079">
        <ele>1827.5458021308</ele>
        <time>2021-07-10T14:05:28Z</time>
      </trkpt>
      <trkpt lat="44.123" lon="6.7308">
        <ele>1827.5457866045</ele>
        <time>2021-07-10T14:05:29Z</time>
      </trkpt>
      <trkpt lat="44.123" lon="6.73081">
        <ele>1826.5457709906</ele>
        <time>2021-07-10T14:05:30Z</time>
      </trkpt>
      <trkpt lat="44.123" lon="6.73082">
        <ele>1826.5457549269</ele>
        <time>2021-07-10T14:05:31Z</time>
      </trkpt>
      <trkpt lat="44.123" lon="6.73083">
        <ele>1825.5457374304</ele>
        <time>2021-07-10T14:05:32Z</time>
      </trkpt>
      <trkpt lat="44.12299" lon="6.73085">
        <ele>1825.5457220311</ele>
        <time>2021-07-10T14:05:33Z</time>
      </trkpt>
      <trkpt lat="44.123" lon="6.73086">
        <ele>1825.5456905768</ele>
        <time>2021-07-10T14:05:34Z</time>
      </trkpt>
      <trkpt lat="44.123" lon="6.73086">
        <ele>1825.5456739015</ele>
        <time>2021-07-10T14:05:35Z</time>
      </trkpt>
      <trkpt lat="44.123" lon="6.73087">
        <ele>1823.545659421</ele>
        <time>2021-07-10T14:05:37Z</time>
      </trkpt>
      <trkpt lat="44.123" lon="6.73088">
        <ele>1823.5456240383</ele>
        <time>2021-07-10T14:05:38Z</time>
      </trkpt>
      <trkpt lat="44.12301" lon="6.73088">
        <ele>1823.5455947479</ele>
        <time>2021-07-10T14:05:42Z</time>
      </trkpt>
      <trkpt lat="44.12301" lon="6.7309">
        <ele>1823.5455656134</ele>
        <time>2021-07-10T14:05:43Z</time>
      </trkpt>
      <trkpt lat="44.123" lon="6.73091">
        <ele>1823.545557445</ele>
        <time>2021-07-10T14:05:44Z</time>
      </trkpt>
      <trkpt lat="44.123" lon="6.73092">
        <ele>1824.5455467792</ele>
        <time>2021-07-10T14:05:45Z</time>
      </trkpt>
      <trkpt lat="44.123" lon="6.73093">
        <ele>1823.5455399644</ele>
        <time>2021-07-10T14:05:46Z</time>
      </trkpt>
      <trkpt lat="44.123" lon="6.73093">
        <ele>1823.5455399644</ele>
        <time>2021-07-10T14:05:49Z</time>
      </trkpt>
      <trkpt lat="44.12301" lon="6.73094">
        <ele>1823.5454956121</ele>
        <time>2021-07-10T14:05:51Z</time>
      </trkpt>
      <trkpt lat="44.123" lon="6.73095">
        <ele>1823.545486108</ele>
        <time>2021-07-10T14:05:52Z</time>
      </trkpt>
      <trkpt lat="44.123" lon="6.73096">
        <ele>1822.5454653128</ele>
        <time>2021-07-10T14:05:53Z</time>
      </trkpt>
      <trkpt lat="44.12301" lon="6.73097">
        <ele>1822.5454319899</ele>
        <time>2021-07-10T14:05:54Z</time>
      </trkpt>
      <trkpt lat="44.123" lon="6.73098">
        <ele>1821.5454258756</ele>
        <time>2021-07-10T14:05:55Z</time>
      </trkpt>
      <trkpt lat="44.12299" lon="6.731">
        <ele>1821.5454170365</ele>
        <time>2021-07-10T14:05:57Z</time>
      </trkpt>
      <trkpt lat="44.12299" lon="6.731">
        <ele>1821.545443824</ele>
        <time>2021-07-10T14:05:58Z</time>
      </trkpt>
      <trkpt lat="44.12298" lon="6.73101">
        <ele>1821.5454452792</ele>
        <time>2021-07-10T14:05:59Z</time>
      </trkpt>
      <trkpt lat="44.12298" lon="6.73102">
        <ele>1820.5454370607</ele>
        <time>2021-07-10T14:06:00Z</time>
      </trkpt>
      <trkpt lat="44.12298" lon="6.73104">
        <ele>1820.5454135115</ele>
        <time>2021-07-10T14:06:01Z</time>
      </trkpt>
      <trkpt lat="44.12297" lon="6.73105">
        <ele>1819.5453984686</ele>
        <time>2021-07-10T14:06:05Z</time>
      </trkpt>
      <trkpt lat="44.12297" lon="6.73105">
        <ele>1819.5453897529</ele>
        <time>2021-07-10T14:06:06Z</time>
      </trkpt>
      <trkpt lat="44.12297" lon="6.73106">
        <ele>1819.5453828172</ele>
        <time>2021-07-10T14:06:07Z</time>
      </trkpt>
      <trkpt lat="44.12296" lon="6.73108">
        <ele>1820.5453820525</ele>
        <time>2021-07-10T14:06:08Z</time>
      </trkpt>
      <trkpt lat="44.12296" lon="6.73108">
        <ele>1820.5453824347</ele>
        <time>2021-07-10T14:06:09Z</time>
      </trkpt>
      <trkpt lat="44.12296" lon="6.73109">
        <ele>1820.5453827137</ele>
        <time>2021-07-10T14:06:12Z</time>
      </trkpt>
      <trkpt lat="44.12296" lon="6.7311">
        <ele>1818.5453472211</ele>
        <time>2021-07-10T14:06:13Z</time>
      </trkpt>
      <trkpt lat="44.12298" lon="6.7311">
        <ele>1817.5452805493</ele>
        <time>2021-07-10T14:06:15Z</time>
      </trkpt>
      <trkpt lat="44.12298" lon="6.73111">
        <ele>1817.5452657603</ele>
        <time>2021-07-10T14:06:17Z</time>
      </trkpt>
      <trkpt lat="44.12296" lon="6.73112">
        <ele>1816.545290552</ele>
        <time>2021-07-10T14:06:18Z</time>
      </trkpt>
      <trkpt lat="44.12295" lon="6.73113">
        <ele>1816.5453140056</ele>
        <time>2021-07-10T14:06:19Z</time>
      </trkpt>
      <trkpt lat="44.12294" lon="6.73115">
        <ele>1816.545344404</ele>
        <time>2021-07-10T14:06:21Z</time>
      </trkpt>
      <trkpt lat="44.12293" lon="6.73115">
        <ele>1816.5453485055</ele>
        <time>2021-07-10T14:06:22Z</time>
      </trkpt>
      <trkpt lat="44.12292" lon="6.73117">
        <ele>1816.5453492665</ele>
        <time>2021-07-10T14:06:23Z</time>
      </trkpt>
      <trkpt lat="44.12291" lon="6.73118">
        <ele>1816.5453594698</ele>
        <time>2021-07-10T14:06:24Z</time>
      </trkpt>
      <trkpt lat="44.1229" lon="6.73119">
        <ele>1816.5453697412</ele>
        <time>2021-07-10T14:06:25Z</time>
      </trkpt>
      <trkpt lat="44.12289" lon="6.73121">
        <ele>1816.5453767664</ele>
        <time>2021-07-10T14:06:26Z</time>
      </trkpt>
      <trkpt lat="44.12288" lon="6.73122">
        <ele>1815.5453963406</ele>
        <time>2021-07-10T14:06:27Z</time>
      </trkpt>
      <trkpt lat="44.12287" lon="6.73123">
        <ele>1815.5454140206</ele>
        <time>2021-07-10T14:06:28Z</time>
      </trkpt>
      <trkpt lat="44.12286" lon="6.73126">
        <ele>1814.5454134427</ele>
        <time>2021-07-10T14:06:30Z</time>
      </trkpt>
      <trkpt lat="44.12284" lon="6.73128">
        <ele>1815.5454346233</ele>
        <time>2021-07-10T14:06:32Z</time>
      </trkpt>
      <trkpt lat="44.12283" lon="6.73128">
        <ele>1815.5454550872</ele>
        <time>2021-07-10T14:06:33Z</time>
      </trkpt>
      <trkpt lat="44.12283" lon="6.73128">
        <ele>1813.5454714693</ele>
        <time>2021-07-10T14:06:34Z</time>
      </trkpt>
      <trkpt lat="44.12282" lon="6.7313">
        <ele>1813.5454705778</ele>
        <time>2021-07-10T14:06:35Z</time>
      </trkpt>
      <trkpt lat="44.12282" lon="6.73131">
        <ele>1814.5454658005</ele>
        <time>2021-07-10T14:06:36Z</time>
      </trkpt>
      <trkpt lat="44.12281" lon="6.73132">
        <ele>1813.5454894052</ele>
        <time>2021-07-10T14:06:37Z</time>
      </trkpt>
      <trkpt lat="44.1228" lon="6.73133">
        <ele>1813.5454913771</ele>
        <time>2021-07-10T14:06:38Z</time>
      </trkpt>
      <trkpt lat="44.12279" lon="6.73133">
        <ele>1812.5455086204</ele>
        <time>2021-07-10T14:06:39Z</time>
      </trkpt>
      <trkpt lat="44.12279" lon="6.73133">
        <ele>1813.5455251034</ele>
        <time>2021-07-10T14:06:40Z</time>
      </trkpt>
      <trkpt lat="44.12278" lon="6.73135">
        <ele>1812.5455228112</ele>
        <time>2021-07-10T14:06:42Z</time>
      </trkpt>
      <trkpt lat="44.12278" lon="6.73137">
        <ele>1812.545493498</ele>
        <time>2021-07-10T14:06:43Z</time>
      </trkpt>
      <trkpt lat="44.12278" lon="6.73138">
        <ele>1812.5454715925</ele>
        <time>2021-07-10T14:06:44Z</time>
      </trkpt>
      <trkpt lat="44.12277" lon="6.73139">
        <ele>1813.5454828171</ele>
        <time>2021-07-10T14:06:45Z</time>
      </trkpt>
      <trkpt lat="44.12276" lon="6.73139">
        <ele>1813.5455026969</ele>
        <time>2021-07-10T14:06:46Z</time>
      </trkpt>
      <trkpt lat="44.12275" lon="6.7314">
        <ele>1813.5455267139</ele>
        <time>2021-07-10T14:06:47Z</time>
      </trkpt>
      <trkpt lat="44.12275" lon="6.7314">
        <ele>1812.54554733</ele>
        <time>2021-07-10T14:06:48Z</time>
      </trkpt>
      <trkpt lat="44.12274" lon="6.73141">
        <ele>1812.5455307539</ele>
        <time>2021-07-10T14:06:49Z</time>
      </trkpt>
      <trkpt lat="44.12274" lon="6.73142">
        <ele>1812.5455241434</ele>
        <time>2021-07-10T14:06:50Z</time>
      </trkpt>
      <trkpt lat="44.12274" lon="6.73143">
        <ele>1811.5455273629</ele>
        <time>2021-07-10T14:06:51Z</time>
      </trkpt>
      <trkpt lat="44.12274" lon="6.73144">
        <ele>1811.545508288</ele>
        <time>2021-07-10T14:06:52Z</time>
      </trkpt>
      <trkpt lat="44.12273" lon="6.73145">
        <ele>1811.5455167401</ele>
        <time>2021-07-10T14:06:53Z</time>
      </trkpt>
      <trkpt lat="44.12272" lon="6.73146">
        <ele>1810.5455332639</ele>
        <time>2021-07-10T14:06:54Z</time>
      </trkpt>
      <trkpt lat="44.12271" lon="6.73147">
        <ele>1810.54554324</ele>
        <time>2021-07-10T14:06:55Z</time>
      </trkpt>
      <trkpt lat="44.1227" lon="6.73148">
        <ele>1810.5455528842</ele>
        <time>2021-07-10T14:06:56Z</time>
      </trkpt>
      <trkpt lat="44.1227" lon="6.73149">
        <ele>1809.5455583363</ele>
        <time>2021-07-10T14:06:57Z</time>
      </trkpt>
      <trkpt lat="44.12269" lon="6.7315">
        <ele>1809.5455617262</ele>
        <time>2021-07-10T14:06:58Z</time>
      </trkpt>
      <trkpt lat="44.12268" lon="6.7315">
        <ele>1809.5455794016</ele>
        <time>2021-07-10T14:07:00Z</time>
      </trkpt>
      <trkpt lat="44.12268" lon="6.73151">
        <ele>1809.545573741</ele>
        <time>2021-07-10T14:07:01Z</time>
      </trkpt>
      <trkpt lat="44.12268" lon="6.73152">
        <ele>1809.5455587548</ele>
        <time>2021-07-10T14:07:02Z</time>
      </trkpt>
      <trkpt lat="44.12267" lon="6.73153">
        <ele>1809.5455544746</ele>
        <time>2021-07-10T14:07:03Z</time>
      </trkpt>
      <trkpt lat="44.12268" lon="6.73154">
        <ele>1808.545524483</ele>
        <time>2021-07-10T14:07:05Z</time>
      </trkpt>
      <trkpt lat="44.12267" lon="6.73155">
        <ele>1807.5455350583</ele>
        <time>2021-07-10T14:07:06Z</time>
      </trkpt>
      <trkpt lat="44.12267" lon="6.73155">
        <ele>1807.5455390878</ele>
        <time>2021-07-10T14:07:07Z</time>
      </trkpt>
      <trkpt lat="44.12266" lon="6.73157">
        <ele>1806.5455308988</ele>
        <time>2021-07-10T14:07:08Z</time>
      </trkpt>
      <trkpt lat="44.12266" lon="6.73158">
        <ele>1806.5455183872</ele>
        <time>2021-07-10T14:07:09Z</time>
      </trkpt>
      <trkpt lat="44.12265" lon="6.7316">
        <ele>1806.5455191725</ele>
        <time>2021-07-10T14:07:10Z</time>
      </trkpt>
      <trkpt lat="44.12264" lon="6.73162">
        <ele>1805.5455086016</ele>
        <time>2021-07-10T14:07:12Z</time>
      </trkpt>
      <trkpt lat="44.12264" lon="6.73163">
        <ele>1805.5454926109</ele>
        <time>2021-07-10T14:07:13Z</time>
      </trkpt>
      <trkpt lat="44.12264" lon="6.73164">
        <ele>1806.5454811058</ele>
        <time>2021-07-10T14:07:14Z</time>
      </trkpt>
      <trkpt lat="44.12263" lon="6.73165">
        <ele>1806.5454666695</ele>
        <time>2021-07-10T14:07:15Z</time>
      </trkpt>
      <trkpt lat="44.12263" lon="6.73167">
        <ele>1805.545450124</ele>
        <time>2021-07-10T14:07:16Z</time>
      </trkpt>
      <trkpt lat="44.12263" lon="6.73169">
        <ele>1804.5454184413</ele>
        <time>2021-07-10T14:07:18Z</time>
      </trkpt>
      <trkpt lat="44.12262" lon="6.73171">
        <ele>1804.5453929831</ele>
        <time>2021-07-10T14:07:19Z</time>
      </trkpt>
      <trkpt lat="44.12262" lon="6.73172">
        <ele>1803.5453786265</ele>
        <time>2021-07-10T14:07:20Z</time>
      </trkpt>
      <trkpt lat="44.12261" lon="6.73174">
        <ele>1803.5453761519</ele>
        <time>2021-07-10T14:07:21Z</time>
      </trkpt>
      <trkpt lat="44.12261" lon="6.73175">
        <ele>1803.5453767763</ele>
        <time>2021-07-10T14:07:22Z</time>
      </trkpt>
      <trkpt lat="44.1226" lon="6.73176">
        <ele>1802.545382952</ele>
        <time>2021-07-10T14:07:23Z</time>
      </trkpt>
      <trkpt lat="44.12259" lon="6.73177">
        <ele>1802.5454036733</ele>
        <time>2021-07-10T14:07:24Z</time>
      </trkpt>
      <trkpt lat="44.12258" lon="6.73178">
        <ele>1802.5454280917</ele>
        <time>2021-07-10T14:07:26Z</time>
      </trkpt>
      <trkpt lat="44.12257" lon="6.73178">
        <ele>1801.5454450957</ele>
        <time>2021-07-10T14:07:27Z</time>
      </trkpt>
      <trkpt lat="44.12257" lon="6.73179">
        <ele>1800.5454434347</ele>
        <time>2021-07-10T14:07:28Z</time>
      </trkpt>
      <trkpt lat="44.12256" lon="6.7318">
        <ele>1800.5454543228</ele>
        <time>2021-07-10T14:07:29Z</time>
      </trkpt>
      <trkpt lat="44.12256" lon="6.73181">
        <ele>1800.5454468235</ele>
        <time>2021-07-10T14:07:30Z</time>
      </trkpt>
      <trkpt lat="44.12255" lon="6.73182">
        <ele>1799.5454399133</ele>
        <time>2021-07-10T14:07:31Z</time>
      </trkpt>
      <trkpt lat="44.12255" lon="6.73183">
        <ele>1799.5454176062</ele>
        <time>2021-07-10T14:07:33Z</time>
      </trkpt>
      <trkpt lat="44.12255" lon="6.73183">
        <ele>1799.5454346167</ele>
        <time>2021-07-10T14:07:34Z</time>
      </trkpt>
      <trkpt lat="44.12254" lon="6.73185">
        <ele>1798.5454484219</ele>
        <time>2021-07-10T14:07:36Z</time>
      </trkpt>
      <trkpt lat="44.12253" lon="6.73186">
        <ele>1798.5454510898</ele>
        <time>2021-07-10T14:07:37Z</time>
      </trkpt>
      <trkpt lat="44.12253" lon="6.73187">
        <ele>1797.5454358544</ele>
        <time>2021-07-10T14:07:38Z</time>
      </trkpt>
      <trkpt lat="44.12252" lon="6.73188">
        <ele>1797.5454335661</ele>
        <time>2021-07-10T14:07:39Z</time>
      </trkpt>
      <trkpt lat="44.12252" lon="6.73188">
        <ele>1797.5454489755</ele>
        <time>2021-07-10T14:07:40Z</time>
      </trkpt>
      <trkpt lat="44.12251" lon="6.73188">
        <ele>1796.5454647233</ele>
        <time>2021-07-10T14:07:41Z</time>
      </trkpt>
      <trkpt lat="44.12251" lon="6.73189">
        <ele>1796.5454563585</ele>
        <time>2021-07-10T14:07:42Z</time>
      </trkpt>
      <trkpt lat="44.12251" lon="6.7319">
        <ele>1795.5454605661</ele>
        <time>2021-07-10T14:07:43Z</time>
      </trkpt>
      <trkpt lat="44.1225" lon="6.73192">
        <ele>1795.545442632</ele>
        <time>2021-07-10T14:07:45Z</time>
      </trkpt>
      <trkpt lat="44.1225" lon="6.73192">
        <ele>1795.5454370399</ele>
        <time>2021-07-10T14:07:46Z</time>
      </trkpt>
      <trkpt lat="44.1225" lon="6.73193">
        <ele>1795.5453942074</ele>
        <time>2021-07-10T14:07:48Z</time>
      </trkpt>
      <trkpt lat="44.1225" lon="6.73196">
        <ele>1795.5453636112</ele>
        <time>2021-07-10T14:07:49Z</time>
      </trkpt>
      <trkpt lat="44.1225" lon="6.73197">
        <ele>1795.5453421303</ele>
        <time>2021-07-10T14:07:50Z</time>
      </trkpt>
      <trkpt lat="44.1225" lon="6.73198">
        <ele>1795.5453235608</ele>
        <time>2021-07-10T14:07:51Z</time>
      </trkpt>
      <trkpt lat="44.1225" lon="6.73198">
        <ele>1795.5453017012</ele>
        <time>2021-07-10T14:07:52Z</time>
      </trkpt>
      <trkpt lat="44.12251" lon="6.73199">
        <ele>1794.5452689713</ele>
        <time>2021-07-10T14:07:53Z</time>
      </trkpt>
      <trkpt lat="44.12252" lon="6.73199">
        <ele>1794.5452061592</ele>
        <time>2021-07-10T14:07:54Z</time>
      </trkpt>
      <trkpt lat="44.12253" lon="6.732">
        <ele>1794.5451505133</ele>
        <time>2021-07-10T14:07:55Z</time>
      </trkpt>
      <trkpt lat="44.12254" lon="6.73202">
        <ele>1795.5450923663</ele>
        <time>2021-07-10T14:07:56Z</time>
      </trkpt>
      <trkpt lat="44.12254" lon="6.73203">
        <ele>1795.5450579394</ele>
        <time>2021-07-10T14:07:57Z</time>
      </trkpt>
      <trkpt lat="44.12255" lon="6.73204">
        <ele>1796.5450164241</ele>
        <time>2021-07-10T14:07:58Z</time>
      </trkpt>
      <trkpt lat="44.12255" lon="6.73205">
        <ele>1797.5449832015</ele>
        <time>2021-07-10T14:07:59Z</time>
      </trkpt>
      <trkpt lat="44.12256" lon="6.73205">
        <ele>1797.5449473298</ele>
        <time>2021-07-10T14:08:00Z</time>
      </trkpt>
      <trkpt lat="44.12256" lon="6.73206">
        <ele>1798.5449234697</ele>
        <time>2021-07-10T14:08:01Z</time>
      </trkpt>
      <trkpt lat="44.12257" lon="6.73208">
        <ele>1798.5448592501</ele>
        <time>2021-07-10T14:08:02Z</time>
      </trkpt>
      <trkpt lat="44.12259" lon="6.73208">
        <ele>1798.5448131383</ele>
        <time>2021-07-10T14:08:03Z</time>
      </trkpt>
      <trkpt lat="44.1226" lon="6.73208">
        <ele>1799.5447596848</ele>
        <time>2021-07-10T14:08:04Z</time>
      </trkpt>
      <trkpt lat="44.12261" lon="6.73209">
        <ele>1799.5447123963</ele>
        <time>2021-07-10T14:08:05Z</time>
      </trkpt>
      <trkpt lat="44.12263" lon="6.7321">
        <ele>1800.5446185182</ele>
        <time>2021-07-10T14:08:07Z</time>
      </trkpt>
      <trkpt lat="44.12264" lon="6.7321">
        <ele>1800.5445647531</ele>
        <time>2021-07-10T14:08:08Z</time>
      </trkpt>
      <trkpt lat="44.12265" lon="6.7321">
        <ele>1800.5445239092</ele>
        <time>2021-07-10T14:08:09Z</time>
      </trkpt>
      <trkpt lat="44.12266" lon="6.7321">
        <ele>1799.5444925922</ele>
        <time>2021-07-10T14:08:10Z</time>
      </trkpt>
      <trkpt lat="44.12267" lon="6.73211">
        <ele>1799.5444453814</ele>
        <time>2021-07-10T14:08:12Z</time>
      </trkpt>
      <trkpt lat="44.12268" lon="6.7321">
        <ele>1799.5444178369</ele>
        <time>2021-07-10T14:08:13Z</time>
      </trkpt>
      <trkpt lat="44.12268" lon="6.73211">
        <ele>1798.5443912274</ele>
        <time>2021-07-10T14:08:14Z</time>
      </trkpt>
      <trkpt lat="44.1227" lon="6.73211">
        <ele>1798.5443296242</ele>
        <time>2021-07-10T14:08:16Z</time>
      </trkpt>
      <trkpt lat="44.12271" lon="6.73212">
        <ele>1797.5442491392</ele>
        <time>2021-07-10T14:08:18Z</time>
      </trkpt>
      <trkpt lat="44.12272" lon="6.73213">
        <ele>1797.5442284495</ele>
        <time>2021-07-10T14:08:19Z</time>
      </trkpt>
      <trkpt lat="44.12272" lon="6.73213">
        <ele>1797.5441940209</ele>
        <time>2021-07-10T14:08:20Z</time>
      </trkpt>
      <trkpt lat="44.12274" lon="6.73213">
        <ele>1796.5441285341</ele>
        <time>2021-07-10T14:08:22Z</time>
      </trkpt>
      <trkpt lat="44.12275" lon="6.73213">
        <ele>1797.5440905123</ele>
        <time>2021-07-10T14:08:23Z</time>
      </trkpt>
      <trkpt lat="44.12276" lon="6.73214">
        <ele>1797.5440275157</ele>
        <time>2021-07-10T14:08:24Z</time>
      </trkpt>
      <trkpt lat="44.12279" lon="6.73213">
        <ele>1797.5439469186</ele>
        <time>2021-07-10T14:08:26Z</time>
      </trkpt>
      <trkpt lat="44.12281" lon="6.73211">
        <ele>1796.543894513</ele>
        <time>2021-07-10T14:08:28Z</time>
      </trkpt>
      <trkpt lat="44.12282" lon="6.73211">
        <ele>1796.5438768817</ele>
        <time>2021-07-10T14:08:29Z</time>
      </trkpt>
      <trkpt lat="44.12283" lon="6.73211">
        <ele>1795.5438444427</ele>
        <time>2021-07-10T14:08:30Z</time>
      </trkpt>
      <trkpt lat="44.12285" lon="6.73211">
        <ele>1795.5437577989</ele>
        <time>2021-07-10T14:08:32Z</time>
      </trkpt>
      <trkpt lat="44.12286" lon="6.73211">
        <ele>1795.5437130406</ele>
        <time>2021-07-10T14:08:33Z</time>
      </trkpt>
      <trkpt lat="44.12287" lon="6.73212">
        <ele>1794.5436745144</ele>
        <time>2021-07-10T14:08:34Z</time>
      </trkpt>
      <trkpt lat="44.12289" lon="6.73213">
        <ele>1794.5435758063</ele>
        <time>2021-07-10T14:08:36Z</time>
      </trkpt>
      <trkpt lat="44.12291" lon="6.73214">
        <ele>1793.5434974094</ele>
        <time>2021-07-10T14:08:38Z</time>
      </trkpt>
      <trkpt lat="44.12292" lon="6.73214">
        <ele>1792.5434299962</ele>
        <time>2021-07-10T14:08:39Z</time>
      </trkpt>
      <trkpt lat="44.12294" lon="6.73215">
        <ele>1792.5433762902</ele>
        <time>2021-07-10T14:08:40Z</time>
      </trkpt>
      <trkpt lat="44.12296" lon="6.73215">
        <ele>1793.5432666412</ele>
        <time>2021-07-10T14:08:42Z</time>
      </trkpt>
      <trkpt lat="44.12297" lon="6.73216">
        <ele>1792.5432095364</ele>
        <time>2021-07-10T14:08:43Z</time>
      </trkpt>
      <trkpt lat="44.12298" lon="6.73217">
        <ele>1792.5431681092</ele>
        <time>2021-07-10T14:08:44Z</time>
      </trkpt>
      <trkpt lat="44.12299" lon="6.73218">
        <ele>1792.5431051771</ele>
        <time>2021-07-10T14:08:45Z</time>
      </trkpt>
      <trkpt lat="44.12301" lon="6.73219">
        <ele>1791.5430200131</ele>
        <time>2021-07-10T14:08:47Z</time>
      </trkpt>
      <trkpt lat="44.12302" lon="6.73219">
        <ele>1790.5429950888</ele>
        <time>2021-07-10T14:08:48Z</time>
      </trkpt>
      <trkpt lat="44.12303" lon="6.7322">
        <ele>1790.5429300294</ele>
        <time>2021-07-10T14:08:49Z</time>
      </trkpt>
      <trkpt lat="44.12305" lon="6.73221">
        <ele>1789.5428442886</ele>
        <time>2021-07-10T14:08:51Z</time>
      </trkpt>
      <trkpt lat="44.12305" lon="6.73221">
        <ele>1789.5428024135</ele>
        <time>2021-07-10T14:08:52Z</time>
      </trkpt>
      <trkpt lat="44.12307" lon="6.73221">
        <ele>1789.5427561299</ele>
        <time>2021-07-10T14:08:53Z</time>
      </trkpt>
      <trkpt lat="44.12309" lon="6.73222">
        <ele>1789.5426661497</ele>
        <time>2021-07-10T14:08:55Z</time>
      </trkpt>
      <trkpt lat="44.12311" lon="6.73221">
        <ele>1788.5425850915</ele>
        <time>2021-07-10T14:08:57Z</time>
      </trkpt>
      <trkpt lat="44.12313" lon="6.73221">
        <ele>1788.542538533</ele>
        <time>2021-07-10T14:08:58Z</time>
      </trkpt>
      <trkpt lat="44.12314" lon="6.73221">
        <ele>1788.5424948834</ele>
        <time>2021-07-10T14:08:59Z</time>
      </trkpt>
      <trkpt lat="44.12315" lon="6.73221">
        <ele>1788.5424614435</ele>
        <time>2021-07-10T14:09:00Z</time>
      </trkpt>
      <trkpt lat="44.12315" lon="6.73223">
        <ele>1787.5424075228</ele>
        <time>2021-07-10T14:09:01Z</time>
      </trkpt>
      <trkpt lat="44.12316" lon="6.73224">
        <ele>1787.5423809033</ele>
        <time>2021-07-10T14:09:02Z</time>
      </trkpt>
      <trkpt lat="44.12316" lon="6.73225">
        <ele>1787.5423289647</ele>
        <time>2021-07-10T14:09:03Z</time>
      </trkpt>
      <trkpt lat="44.12317" lon="6.73226">
        <ele>1787.542287897</ele>
        <time>2021-07-10T14:09:04Z</time>
      </trkpt>
      <trkpt lat="44.12318" lon="6.73226">
        <ele>1786.5422423865</ele>
        <time>2021-07-10T14:09:05Z</time>
      </trkpt>
      <trkpt lat="44.12318" lon="6.73227">
        <ele>1786.5422115762</ele>
        <time>2021-07-10T14:09:06Z</time>
      </trkpt>
      <trkpt lat="44.12319" lon="6.73228">
        <ele>1785.5421619845</ele>
        <time>2021-07-10T14:09:07Z</time>
      </trkpt>
      <trkpt lat="44.1232" lon="6.73229">
        <ele>1785.5421242507</ele>
        <time>2021-07-10T14:09:08Z</time>
      </trkpt>
      <trkpt lat="44.1232" lon="6.7323">
        <ele>1785.542084732</ele>
        <time>2021-07-10T14:09:09Z</time>
      </trkpt>
      <trkpt lat="44.12322" lon="6.7323">
        <ele>1784.5420303062</ele>
        <time>2021-07-10T14:09:10Z</time>
      </trkpt>
      <trkpt lat="44.12323" lon="6.73231">
        <ele>1784.5419769349</ele>
        <time>2021-07-10T14:09:11Z</time>
      </trkpt>
      <trkpt lat="44.12324" lon="6.73231">
        <ele>1784.5419279366</ele>
        <time>2021-07-10T14:09:12Z</time>
      </trkpt>
      <trkpt lat="44.12325" lon="6.73232">
        <ele>1783.5418729517</ele>
        <time>2021-07-10T14:09:13Z</time>
      </trkpt>
      <trkpt lat="44.12326" lon="6.73233">
        <ele>1783.5418223018</ele>
        <time>2021-07-10T14:09:14Z</time>
      </trkpt>
      <trkpt lat="44.12327" lon="6.73233">
        <ele>1782.5417759547</ele>
        <time>2021-07-10T14:09:15Z</time>
      </trkpt>
      <trkpt lat="44.12327" lon="6.73234">
        <ele>1782.5417424027</ele>
        <time>2021-07-10T14:09:16Z</time>
      </trkpt>
      <trkpt lat="44.12329" lon="6.73234">
        <ele>1783.5416900586</ele>
        <time>2021-07-10T14:09:17Z</time>
      </trkpt>
      <trkpt lat="44.12329" lon="6.73235">
        <ele>1783.5416523136</ele>
        <time>2021-07-10T14:09:18Z</time>
      </trkpt>
      <trkpt lat="44.1233" lon="6.73235">
        <ele>1783.5416125606</ele>
        <time>2021-07-10T14:09:19Z</time>
      </trkpt>
      <trkpt lat="44.12331" lon="6.73237">
        <ele>1783.5415520175</ele>
        <time>2021-07-10T14:09:20Z</time>
      </trkpt>
      <trkpt lat="44.12332" lon="6.7324">
        <ele>1783.5414478649</ele>
        <time>2021-07-10T14:09:22Z</time>
      </trkpt>
      <trkpt lat="44.12333" lon="6.73242">
        <ele>1783.5413972217</ele>
        <time>2021-07-10T14:09:23Z</time>
      </trkpt>
      <trkpt lat="44.12334" lon="6.73242">
        <ele>1783.5413349672</ele>
        <time>2021-07-10T14:09:24Z</time>
      </trkpt>
      <trkpt lat="44.12335" lon="6.73243">
        <ele>1783.5412888297</ele>
        <time>2021-07-10T14:09:25Z</time>
      </trkpt>
      <trkpt lat="44.12336" lon="6.73244">
        <ele>1783.5412155757</ele>
        <time>2021-07-10T14:09:27Z</time>
      </trkpt>
      <trkpt lat="44.12337" lon="6.73244">
        <ele>1784.5411643329</ele>
        <time>2021-07-10T14:09:28Z</time>
      </trkpt>
      <trkpt lat="44.12339" lon="6.73244">
        <ele>1783.5411135072</ele>
        <time>2021-07-10T14:09:29Z</time>
      </trkpt>
      <trkpt lat="44.12341" lon="6.73245">
        <ele>1782.5410275804</ele>
        <time>2021-07-10T14:09:31Z</time>
      </trkpt>
      <trkpt lat="44.12342" lon="6.73247">
        <ele>1782.5409320282</ele>
        <time>2021-07-10T14:09:33Z</time>
      </trkpt>
      <trkpt lat="44.12343" lon="6.73247">
        <ele>1782.5409071</ele>
        <time>2021-07-10T14:09:34Z</time>
      </trkpt>
      <trkpt lat="44.12344" lon="6.73247">
        <ele>1781.5408631596</ele>
        <time>2021-07-10T14:09:35Z</time>
      </trkpt>
      <trkpt lat="44.12345" lon="6.73246">
        <ele>1781.5408264271</ele>
        <time>2021-07-10T14:09:36Z</time>
      </trkpt>
      <trkpt lat="44.12348" lon="6.73245">
        <ele>1781.5407480968</ele>
        <time>2021-07-10T14:09:38Z</time>
      </trkpt>
      <trkpt lat="44.12349" lon="6.73247">
        <ele>1781.5406767654</ele>
        <time>2021-07-10T14:09:39Z</time>
      </trkpt>
      <trkpt lat="44.1235" lon="6.73248">
        <ele>1781.5406351845</ele>
        <time>2021-07-10T14:09:40Z</time>
      </trkpt>
      <trkpt lat="44.12351" lon="6.73249">
        <ele>1781.5405576967</ele>
        <time>2021-07-10T14:09:42Z</time>
      </trkpt>
      <trkpt lat="44.12352" lon="6.73249">
        <ele>1781.5405147857</ele>
        <time>2021-07-10T14:09:43Z</time>
      </trkpt>
      <trkpt lat="44.12353" lon="6.73249">
        <ele>1781.5404827972</ele>
        <time>2021-07-10T14:09:44Z</time>
      </trkpt>
      <trkpt lat="44.12354" lon="6.7325">
        <ele>1782.540422861</ele>
        <time>2021-07-10T14:09:46Z</time>
      </trkpt>
      <trkpt lat="44.12356" lon="6.7325">
        <ele>1783.5403522843</ele>
        <time>2021-07-10T14:09:48Z</time>
      </trkpt>
      <trkpt lat="44.12357" lon="6.7325">
        <ele>1784.5403168144</ele>
        <time>2021-07-10T14:09:49Z</time>
      </trkpt>
      <trkpt lat="44.12358" lon="6.7325">
        <ele>1784.5402798212</ele>
        <time>2021-07-10T14:09:50Z</time>
      </trkpt>
      <trkpt lat="44.1236" lon="6.73249">
        <ele>1784.5402185573</ele>
        <time>2021-07-10T14:09:52Z</time>
      </trkpt>
      <trkpt lat="44.12361" lon="6.73249">
        <ele>1785.5401712034</ele>
        <time>2021-07-10T14:09:53Z</time>
      </trkpt>
      <trkpt lat="44.12362" lon="6.7325">
        <ele>1785.5401301606</ele>
        <time>2021-07-10T14:09:54Z</time>
      </trkpt>
      <trkpt lat="44.12362" lon="6.7325">
        <ele>1785.5401265149</ele>
        <time>2021-07-10T14:09:55Z</time>
      </trkpt>
      <trkpt lat="44.12363" lon="6.7325">
        <ele>1785.5401085591</ele>
        <time>2021-07-10T14:09:56Z</time>
      </trkpt>
      <trkpt lat="44.12364" lon="6.7325">
        <ele>1785.5400434556</ele>
        <time>2021-07-10T14:09:58Z</time>
      </trkpt>
      <trkpt lat="44.12367" lon="6.73252">
        <ele>1784.5399110759</ele>
        <time>2021-07-10T14:10:00Z</time>
      </trkpt>
      <trkpt lat="44.12368" lon="6.73252">
        <ele>1785.5398549928</ele>
        <time>2021-07-10T14:10:01Z</time>
      </trkpt>
      <trkpt lat="44.1237" lon="6.73254">
        <ele>1785.5397474295</ele>
        <time>2021-07-10T14:10:03Z</time>
      </trkpt>
      <trkpt lat="44.12372" lon="6.73255">
        <ele>1784.5396698409</ele>
        <time>2021-07-10T14:10:04Z</time>
      </trkpt>
      <trkpt lat="44.12372" lon="6.73256">
        <ele>1784.5396282358</ele>
        <time>2021-07-10T14:10:05Z</time>
      </trkpt>
      <trkpt lat="44.12374" lon="6.73257">
        <ele>1784.539571854</ele>
        <time>2021-07-10T14:10:06Z</time>
      </trkpt>
      <trkpt lat="44.12375" lon="6.73257">
        <ele>1783.5395211701</ele>
        <time>2021-07-10T14:10:07Z</time>
      </trkpt>
      <trkpt lat="44.12375" lon="6.73258">
        <ele>1783.5394770576</ele>
        <time>2021-07-10T14:10:08Z</time>
      </trkpt>
      <trkpt lat="44.12375" lon="6.73259">
        <ele>1783.5394541107</ele>
        <time>2021-07-10T14:10:09Z</time>
      </trkpt>
      <trkpt lat="44.12376" lon="6.7326">
        <ele>1783.5394163858</ele>
        <time>2021-07-10T14:10:10Z</time>
      </trkpt>
      <trkpt lat="44.12377" lon="6.73261">
        <ele>1784.5393637917</ele>
        <time>2021-07-10T14:10:11Z</time>
      </trkpt>
      <trkpt lat="44.12378" lon="6.73262">
        <ele>1784.5393197429</ele>
        <time>2021-07-10T14:10:12Z</time>
      </trkpt>
      <trkpt lat="44.12379" lon="6.73262">
        <ele>1784.5392673309</ele>
        <time>2021-07-10T14:10:13Z</time>
      </trkpt>
      <trkpt lat="44.1238" lon="6.73263">
        <ele>1784.5392160788</ele>
        <time>2021-07-10T14:10:14Z</time>
      </trkpt>
      <trkpt lat="44.12381" lon="6.73263">
        <ele>1783.5391674359</ele>
        <time>2021-07-10T14:10:15Z</time>
      </trkpt>
      <trkpt lat="44.12382" lon="6.73264">
        <ele>1784.5391064334</ele>
        <time>2021-07-10T14:10:16Z</time>
      </trkpt>
      <trkpt lat="44.12383" lon="6.73266">
        <ele>1784.5390509929</ele>
        <time>2021-07-10T14:10:17Z</time>
      </trkpt>
      <trkpt lat="44.12384" lon="6.73267">
        <ele>1783.5389862233</ele>
        <time>2021-07-10T14:10:18Z</time>
      </trkpt>
      <trkpt lat="44.12385" lon="6.7327">
        <ele>1783.5388892923</ele>
        <time>2021-07-10T14:10:20Z</time>
      </trkpt>
      <trkpt lat="44.12387" lon="6.73272">
        <ele>1783.5387884142</ele>
        <time>2021-07-10T14:10:22Z</time>
      </trkpt>
      <trkpt lat="44.12388" lon="6.73273">
        <ele>1782.5387261236</ele>
        <time>2021-07-10T14:10:23Z</time>
      </trkpt>
      <trkpt lat="44.12388" lon="6.73274">
        <ele>1782.5386868609</ele>
        <time>2021-07-10T14:10:24Z</time>
      </trkpt>
      <trkpt lat="44.12389" lon="6.73277">
        <ele>1782.5386150023</ele>
        <time>2021-07-10T14:10:26Z</time>
      </trkpt>
      <trkpt lat="44.12389" lon="6.73278">
        <ele>1782.5385849297</ele>
        <time>2021-07-10T14:10:27Z</time>
      </trkpt>
      <trkpt lat="44.12389" lon="6.73279">
        <ele>1782.5385524902</ele>
        <time>2021-07-10T14:10:28Z</time>
      </trkpt>
      <trkpt lat="44.1239" lon="6.7328">
        <ele>1783.5385072324</ele>
        <time>2021-07-10T14:10:29Z</time>
      </trkpt>
      <trkpt lat="44.12391" lon="6.73281">
        <ele>1783.5384606381</ele>
        <time>2021-07-10T14:10:30Z</time>
      </trkpt>
      <trkpt lat="44.12392" lon="6.73283">
        <ele>1784.5383569382</ele>
        <time>2021-07-10T14:10:32Z</time>
      </trkpt>
      <trkpt lat="44.12394" lon="6.73286">
        <ele>1785.5382166137</ele>
        <time>2021-07-10T14:10:33Z</time>
      </trkpt>
      <trkpt lat="44.12395" lon="6.73288">
        <ele>1786.5381732243</ele>
        <time>2021-07-10T14:10:34Z</time>
      </trkpt>
      <trkpt lat="44.12395" lon="6.73288">
        <ele>1785.5381501536</ele>
        <time>2021-07-10T14:10:35Z</time>
      </trkpt>
      <trkpt lat="44.12396" lon="6.73288">
        <ele>1784.5381150428</ele>
        <time>2021-07-10T14:10:36Z</time>
      </trkpt>
      <trkpt lat="44.12396" lon="6.7329">
        <ele>1784.538063971</ele>
        <time>2021-07-10T14:10:37Z</time>
      </trkpt>
      <trkpt lat="44.12397" lon="6.73291">
        <ele>1784.5380151938</ele>
        <time>2021-07-10T14:10:38Z</time>
      </trkpt>
      <trkpt lat="44.12398" lon="6.73292">
        <ele>1784.5379860885</ele>
        <time>2021-07-10T14:10:39Z</time>
      </trkpt>
      <trkpt lat="44.12398" lon="6.73292">
        <ele>1784.537953058</ele>
        <time>2021-07-10T14:10:40Z</time>
      </trkpt>
      <trkpt lat="44.12399" lon="6.73293">
        <ele>1784.537909863</ele>
        <time>2021-07-10T14:10:41Z</time>
      </trkpt>
      <trkpt lat="44.124" lon="6.73294">
        <ele>1784.5378551976</ele>
        <time>2021-07-10T14:10:42Z</time>
      </trkpt>
      <trkpt lat="44.12401" lon="6.73295">
        <ele>1784.537795853</ele>
        <time>2021-07-10T14:10:43Z</time>
      </trkpt>
      <trkpt lat="44.12402" lon="6.73297">
        <ele>1784.5377329211</ele>
        <time>2021-07-10T14:10:44Z</time>
      </trkpt>
      <trkpt lat="44.12403" lon="6.73298">
        <ele>1784.537677504</ele>
        <time>2021-07-10T14:10:45Z</time>
      </trkpt>
      <trkpt lat="44.12403" lon="6.73299">
        <ele>1784.5376172054</ele>
        <time>2021-07-10T14:10:46Z</time>
      </trkpt>
      <trkpt lat="44.12405" lon="6.73301">
        <ele>1784.5375415148</ele>
        <time>2021-07-10T14:10:47Z</time>
      </trkpt>
      <trkpt lat="44.12406" lon="6.73302">
        <ele>1784.5374771072</ele>
        <time>2021-07-10T14:10:48Z</time>
      </trkpt>
      <trkpt lat="44.12407" lon="6.73303">
        <ele>1783.5374208674</ele>
        <time>2021-07-10T14:10:49Z</time>
      </trkpt>
      <trkpt lat="44.12408" lon="6.73304">
        <ele>1783.5373550139</ele>
        <time>2021-07-10T14:10:50Z</time>
      </trkpt>
      <trkpt lat="44.12409" lon="6.73305">
        <ele>1783.5373056825</ele>
        <time>2021-07-10T14:10:51Z</time>
      </trkpt>
      <trkpt lat="44.1241" lon="6.73306">
        <ele>1783.5372381635</ele>
        <time>2021-07-10T14:10:52Z</time>
      </trkpt>
      <trkpt lat="44.12411" lon="6.73307">
        <ele>1783.5371682632</ele>
        <time>2021-07-10T14:10:53Z</time>
      </trkpt>
      <trkpt lat="44.12412" lon="6.73309">
        <ele>1782.5371027406</ele>
        <time>2021-07-10T14:10:54Z</time>
      </trkpt>
      <trkpt lat="44.12414" lon="6.7331">
        <ele>1782.5370107954</ele>
        <time>2021-07-10T14:10:55Z</time>
      </trkpt>
      <trkpt lat="44.12415" lon="6.73311">
        <ele>1782.5369410116</ele>
        <time>2021-07-10T14:10:56Z</time>
      </trkpt>
      <trkpt lat="44.12416" lon="6.73313">
        <ele>1782.5368749137</ele>
        <time>2021-07-10T14:10:57Z</time>
      </trkpt>
      <trkpt lat="44.12417" lon="6.73313">
        <ele>1781.5368155949</ele>
        <time>2021-07-10T14:10:58Z</time>
      </trkpt>
      <trkpt lat="44.12418" lon="6.73315">
        <ele>1781.5367589709</ele>
        <time>2021-07-10T14:10:59Z</time>
      </trkpt>
      <trkpt lat="44.12419" lon="6.73316">
        <ele>1781.5367010381</ele>
        <time>2021-07-10T14:11:00Z</time>
      </trkpt>
      <trkpt lat="44.1242" lon="6.73317">
        <ele>1781.5366598797</ele>
        <time>2021-07-10T14:11:01Z</time>
      </trkpt>
      <trkpt lat="44.1242" lon="6.73318">
        <ele>1781.5366052108</ele>
        <time>2021-07-10T14:11:02Z</time>
      </trkpt>
      <trkpt lat="44.1242" lon="6.73319">
        <ele>1780.5365809834</ele>
        <time>2021-07-10T14:11:03Z</time>
      </trkpt>
      <trkpt lat="44.12421" lon="6.73321">
        <ele>1780.5365526152</ele>
        <time>2021-07-10T14:11:04Z</time>
      </trkpt>
      <trkpt lat="44.12421" lon="6.73322">
        <ele>1780.5365099101</ele>
        <time>2021-07-10T14:11:05Z</time>
      </trkpt>
      <trkpt lat="44.12422" lon="6.73322">
        <ele>1780.5364777559</ele>
        <time>2021-07-10T14:11:06Z</time>
      </trkpt>
      <trkpt lat="44.12422" lon="6.73323">
        <ele>1780.5364456448</ele>
        <time>2021-07-10T14:11:09Z</time>
      </trkpt>
      <trkpt lat="44.12423" lon="6.73324">
        <ele>1779.5364128492</ele>
        <time>2021-07-10T14:11:10Z</time>
      </trkpt>
      <trkpt lat="44.12424" lon="6.73325">
        <ele>1779.5363494445</ele>
        <time>2021-07-10T14:11:11Z</time>
      </trkpt>
      <trkpt lat="44.12425" lon="6.73326">
        <ele>1779.5362961451</ele>
        <time>2021-07-10T14:11:12Z</time>
      </trkpt>
      <trkpt lat="44.12426" lon="6.73327">
        <ele>1778.5362435676</ele>
        <time>2021-07-10T14:11:13Z</time>
      </trkpt>
      <trkpt lat="44.12427" lon="6.73327">
        <ele>1778.5361958572</ele>
        <time>2021-07-10T14:11:14Z</time>
      </trkpt>
      <trkpt lat="44.12428" lon="6.73328">
        <ele>1777.5361475179</ele>
        <time>2021-07-10T14:11:15Z</time>
      </trkpt>
      <trkpt lat="44.12429" lon="6.73328">
        <ele>1777.5361034345</ele>
        <time>2021-07-10T14:11:16Z</time>
      </trkpt>
      <trkpt lat="44.1243" lon="6.73328">
        <ele>1777.5360603911</ele>
        <time>2021-07-10T14:11:17Z</time>
      </trkpt>
      <trkpt lat="44.12431" lon="6.73329">
        <ele>1776.536002777</ele>
        <time>2021-07-10T14:11:18Z</time>
      </trkpt>
      <trkpt lat="44.12432" lon="6.7333">
        <ele>1776.5359522983</ele>
        <time>2021-07-10T14:11:19Z</time>
      </trkpt>
      <trkpt lat="44.12433" lon="6.7333">
        <ele>1776.5359064661</ele>
        <time>2021-07-10T14:11:20Z</time>
      </trkpt>
      <trkpt lat="44.12434" lon="6.7333">
        <ele>1776.5358636604</ele>
        <time>2021-07-10T14:11:21Z</time>
      </trkpt>
      <trkpt lat="44.12435" lon="6.73331">
        <ele>1776.5358265715</ele>
        <time>2021-07-10T14:11:22Z</time>
      </trkpt>
      <trkpt lat="44.12436" lon="6.73331">
        <ele>1775.5357766284</ele>
        <time>2021-07-10T14:11:23Z</time>
      </trkpt>
      <trkpt lat="44.12437" lon="6.73332">
        <ele>1775.5357169438</ele>
        <time>2021-07-10T14:11:24Z</time>
      </trkpt>
      <trkpt lat="44.12438" lon="6.73332">
        <ele>1775.5356734913</ele>
        <time>2021-07-10T14:11:25Z</time>
      </trkpt>
      <trkpt lat="44.12439" lon="6.73332">
        <ele>1774.5356180362</ele>
        <time>2021-07-10T14:11:26Z</time>
      </trkpt>
      <trkpt lat="44.12441" lon="6.73333">
        <ele>1774.5355481467</ele>
        <time>2021-07-10T14:11:27Z</time>
      </trkpt>
      <trkpt lat="44.12442" lon="6.73334">
        <ele>1775.5354801088</ele>
        <time>2021-07-10T14:11:28Z</time>
      </trkpt>
      <trkpt lat="44.12444" lon="6.73335">
        <ele>1774.5354125606</ele>
        <time>2021-07-10T14:11:29Z</time>
      </trkpt>
      <trkpt lat="44.12445" lon="6.73335">
        <ele>1774.5353637933</ele>
        <time>2021-07-10T14:11:30Z</time>
      </trkpt>
      <trkpt lat="44.12446" lon="6.73335">
        <ele>1772.5352977821</ele>
        <time>2021-07-10T14:11:31Z</time>
      </trkpt>
      <trkpt lat="44.12447" lon="6.73336">
        <ele>1772.5352405928</ele>
        <time>2021-07-10T14:11:32Z</time>
      </trkpt>
      <trkpt lat="44.12449" lon="6.73336">
        <ele>1772.5351938144</ele>
        <time>2021-07-10T14:11:33Z</time>
      </trkpt>
      <trkpt lat="44.1245" lon="6.73336">
        <ele>1772.5351483512</ele>
        <time>2021-07-10T14:11:34Z</time>
      </trkpt>
      <trkpt lat="44.12451" lon="6.73337">
        <ele>1772.5350930784</ele>
        <time>2021-07-10T14:11:35Z</time>
      </trkpt>
      <trkpt lat="44.12452" lon="6.73337">
        <ele>1772.5350525605</ele>
        <time>2021-07-10T14:11:36Z</time>
      </trkpt>
      <trkpt lat="44.12454" lon="6.73336">
        <ele>1771.5350140201</ele>
        <time>2021-07-10T14:11:37Z</time>
      </trkpt>
      <trkpt lat="44.12455" lon="6.73337">
        <ele>1771.5349660054</ele>
        <time>2021-07-10T14:11:38Z</time>
      </trkpt>
      <trkpt lat="44.12456" lon="6.73337">
        <ele>1771.5349098152</ele>
        <time>2021-07-10T14:11:39Z</time>
      </trkpt>
      <trkpt lat="44.12457" lon="6.73337">
        <ele>1771.5348611275</ele>
        <time>2021-07-10T14:11:40Z</time>
      </trkpt>
      <trkpt lat="44.12459" lon="6.73336">
        <ele>1772.5348210325</ele>
        <time>2021-07-10T14:11:41Z</time>
      </trkpt>
      <trkpt lat="44.1246" lon="6.73336">
        <ele>1772.5347775042</ele>
        <time>2021-07-10T14:11:42Z</time>
      </trkpt>
      <trkpt lat="44.12461" lon="6.73336">
        <ele>1772.5347345738</ele>
        <time>2021-07-10T14:11:43Z</time>
      </trkpt>
      <trkpt lat="44.12463" lon="6.73336">
        <ele>1772.5346792692</ele>
        <time>2021-07-10T14:11:44Z</time>
      </trkpt>
      <trkpt lat="44.12464" lon="6.73335">
        <ele>1772.5346412173</ele>
        <time>2021-07-10T14:11:45Z</time>
      </trkpt>
      <trkpt lat="44.12465" lon="6.73335">
        <ele>1772.5345850739</ele>
        <time>2021-07-10T14:11:46Z</time>
      </trkpt>
      <trkpt lat="44.12467" lon="6.73335">
        <ele>1772.5345451231</ele>
        <time>2021-07-10T14:11:47Z</time>
      </trkpt>
      <trkpt lat="44.12468" lon="6.73335">
        <ele>1772.5344969867</ele>
        <time>2021-07-10T14:11:48Z</time>
      </trkpt>
      <trkpt lat="44.1247" lon="6.73335">
        <ele>1772.5344447817</ele>
        <time>2021-07-10T14:11:49Z</time>
      </trkpt>
      <trkpt lat="44.12471" lon="6.73335">
        <ele>1772.5343894399</ele>
        <time>2021-07-10T14:11:50Z</time>
      </trkpt>
      <trkpt lat="44.12472" lon="6.73334">
        <ele>1772.534366033</ele>
        <time>2021-07-10T14:11:51Z</time>
      </trkpt>
      <trkpt lat="44.12473" lon="6.73334">
        <ele>1771.5343413276</ele>
        <time>2021-07-10T14:11:52Z</time>
      </trkpt>
      <trkpt lat="44.12474" lon="6.73334">
        <ele>1771.5343039389</ele>
        <time>2021-07-10T14:11:53Z</time>
      </trkpt>
      <trkpt lat="44.12476" lon="6.73333">
        <ele>1772.5342479745</ele>
        <time>2021-07-10T14:11:54Z</time>
      </trkpt>
      <trkpt lat="44.12476" lon="6.73332">
        <ele>1772.5342322774</ele>
        <time>2021-07-10T14:11:55Z</time>
      </trkpt>
      <trkpt lat="44.12478" lon="6.73332">
        <ele>1772.5341990407</ele>
        <time>2021-07-10T14:11:56Z</time>
      </trkpt>
      <trkpt lat="44.12479" lon="6.73331">
        <ele>1772.5341714971</ele>
        <time>2021-07-10T14:11:57Z</time>
      </trkpt>
      <trkpt lat="44.1248" lon="6.7333">
        <ele>1772.5341330665</ele>
        <time>2021-07-10T14:11:58Z</time>
      </trkpt>
      <trkpt lat="44.12482" lon="6.7333">
        <ele>1772.5340943516</ele>
        <time>2021-07-10T14:11:59Z</time>
      </trkpt>
      <trkpt lat="44.12483" lon="6.7333">
        <ele>1772.5340477962</ele>
        <time>2021-07-10T14:12:00Z</time>
      </trkpt>
      <trkpt lat="44.12484" lon="6.73329">
        <ele>1772.534015159</ele>
        <time>2021-07-10T14:12:01Z</time>
      </trkpt>
      <trkpt lat="44.12485" lon="6.73329">
        <ele>1772.5339692052</ele>
        <time>2021-07-10T14:12:02Z</time>
      </trkpt>
      <trkpt lat="44.12486" lon="6.7333">
        <ele>1772.5339097375</ele>
        <time>2021-07-10T14:12:03Z</time>
      </trkpt>
      <trkpt lat="44.12487" lon="6.7333">
        <ele>1772.5338668992</ele>
        <time>2021-07-10T14:12:04Z</time>
      </trkpt>
      <trkpt lat="44.12489" lon="6.73331">
        <ele>1772.5338050919</ele>
        <time>2021-07-10T14:12:05Z</time>
      </trkpt>
      <trkpt lat="44.1249" lon="6.73331">
        <ele>1771.5337434054</ele>
        <time>2021-07-10T14:12:06Z</time>
      </trkpt>
      <trkpt lat="44.12491" lon="6.73331">
        <ele>1772.5336982248</ele>
        <time>2021-07-10T14:12:07Z</time>
      </trkpt>
      <trkpt lat="44.12493" lon="6.73331">
        <ele>1772.5336424624</ele>
        <time>2021-07-10T14:12:08Z</time>
      </trkpt>
      <trkpt lat="44.12494" lon="6.73332">
        <ele>1772.5335961473</ele>
        <time>2021-07-10T14:12:09Z</time>
      </trkpt>
      <trkpt lat="44.12495" lon="6.73333">
        <ele>1771.5335455163</ele>
        <time>2021-07-10T14:12:10Z</time>
      </trkpt>
      <trkpt lat="44.12496" lon="6.73333">
        <ele>1771.5334965571</ele>
        <time>2021-07-10T14:12:11Z</time>
      </trkpt>
      <trkpt lat="44.12497" lon="6.73333">
        <ele>1771.5334542907</ele>
        <time>2021-07-10T14:12:12Z</time>
      </trkpt>
      <trkpt lat="44.12498" lon="6.73333">
        <ele>1771.5334156461</ele>
        <time>2021-07-10T14:12:13Z</time>
      </trkpt>
      <trkpt lat="44.12499" lon="6.73333">
        <ele>1771.5333709441</ele>
        <time>2021-07-10T14:12:14Z</time>
      </trkpt>
      <trkpt lat="44.125" lon="6.73333">
        <ele>1771.5333397754</ele>
        <time>2021-07-10T14:12:15Z</time>
      </trkpt>
      <trkpt lat="44.12501" lon="6.73332">
        <ele>1771.5333042488</ele>
        <time>2021-07-10T14:12:16Z</time>
      </trkpt>
      <trkpt lat="44.12502" lon="6.73333">
        <ele>1771.5332689892</ele>
        <time>2021-07-10T14:12:17Z</time>
      </trkpt>
      <trkpt lat="44.12503" lon="6.73333">
        <ele>1770.5332240389</ele>
        <time>2021-07-10T14:12:18Z</time>
      </trkpt>
      <trkpt lat="44.12504" lon="6.73334">
        <ele>1770.5331754859</ele>
        <time>2021-07-10T14:12:19Z</time>
      </trkpt>
      <trkpt lat="44.12505" lon="6.73335">
        <ele>1770.5331100974</ele>
        <time>2021-07-10T14:12:20Z</time>
      </trkpt>
      <trkpt lat="44.12506" lon="6.73336">
        <ele>1770.5330448061</ele>
        <time>2021-07-10T14:12:21Z</time>
      </trkpt>
      <trkpt lat="44.12508" lon="6.73337">
        <ele>1771.5329768927</ele>
        <time>2021-07-10T14:12:22Z</time>
      </trkpt>
      <trkpt lat="44.12509" lon="6.73338">
        <ele>1770.5329199236</ele>
        <time>2021-07-10T14:12:23Z</time>
      </trkpt>
      <trkpt lat="44.1251" lon="6.73338">
        <ele>1770.5328742561</ele>
        <time>2021-07-10T14:12:24Z</time>
      </trkpt>
      <trkpt lat="44.12512" lon="6.7334">
        <ele>1770.5327646545</ele>
        <time>2021-07-10T14:12:26Z</time>
      </trkpt>
      <trkpt lat="44.12513" lon="6.73342">
        <ele>1769.5326701103</ele>
        <time>2021-07-10T14:12:28Z</time>
      </trkpt>
      <trkpt lat="44.12514" lon="6.73342">
        <ele>1769.5326242528</ele>
        <time>2021-07-10T14:12:29Z</time>
      </trkpt>
      <trkpt lat="44.12516" lon="6.73343">
        <ele>1768.5325651191</ele>
        <time>2021-07-10T14:12:30Z</time>
      </trkpt>
      <trkpt lat="44.12517" lon="6.73343">
        <ele>1767.5325220384</ele>
        <time>2021-07-10T14:12:31Z</time>
      </trkpt>
      <trkpt lat="44.12519" lon="6.73343">
        <ele>1768.532437221</ele>
        <time>2021-07-10T14:12:33Z</time>
      </trkpt>
      <trkpt lat="44.1252" lon="6.73343">
        <ele>1768.5324004085</ele>
        <time>2021-07-10T14:12:34Z</time>
      </trkpt>
      <trkpt lat="44.12521" lon="6.73344">
        <ele>1768.532344155</ele>
        <time>2021-07-10T14:12:35Z</time>
      </trkpt>
      <trkpt lat="44.12523" lon="6.73344">
        <ele>1768.5322626434</ele>
        <time>2021-07-10T14:12:37Z</time>
      </trkpt>
      <trkpt lat="44.12524" lon="6.73344">
        <ele>1767.5322249006</ele>
        <time>2021-07-10T14:12:38Z</time>
      </trkpt>
      <trkpt lat="44.12525" lon="6.73345">
        <ele>1767.5321842628</ele>
        <time>2021-07-10T14:12:39Z</time>
      </trkpt>
      <trkpt lat="44.12526" lon="6.73344">
        <ele>1767.5321508859</ele>
        <time>2021-07-10T14:12:40Z</time>
      </trkpt>
      <trkpt lat="44.12528" lon="6.73342">
        <ele>1767.5321044119</ele>
        <time>2021-07-10T14:12:42Z</time>
      </trkpt>
      <trkpt lat="44.12529" lon="6.73342">
        <ele>1766.5320886808</ele>
        <time>2021-07-10T14:12:43Z</time>
      </trkpt>
      <trkpt lat="44.1253" lon="6.73341">
        <ele>1767.5320570623</ele>
        <time>2021-07-10T14:12:44Z</time>
      </trkpt>
      <trkpt lat="44.12534" lon="6.73342">
        <ele>1766.5319014355</ele>
        <time>2021-07-10T14:12:46Z</time>
      </trkpt>
      <trkpt lat="44.12536" lon="6.73342">
        <ele>1765.5318150129</ele>
        <time>2021-07-10T14:12:48Z</time>
      </trkpt>
      <trkpt lat="44.12538" lon="6.73342">
        <ele>1765.5317546836</ele>
        <time>2021-07-10T14:12:49Z</time>
      </trkpt>
      <trkpt lat="44.12539" lon="6.73342">
        <ele>1764.5316877089</ele>
        <time>2021-07-10T14:12:50Z</time>
      </trkpt>
      <trkpt lat="44.12542" lon="6.73343">
        <ele>1763.5315827006</ele>
        <time>2021-07-10T14:12:52Z</time>
      </trkpt>
      <trkpt lat="44.12543" lon="6.73344">
        <ele>1762.5315275466</ele>
        <time>2021-07-10T14:12:53Z</time>
      </trkpt>
      <trkpt lat="44.12544" lon="6.73345">
        <ele>1761.5314761887</ele>
        <time>2021-07-10T14:12:54Z</time>
      </trkpt>
      <trkpt lat="44.12546" lon="6.73344">
        <ele>1760.5314154302</ele>
        <time>2021-07-10T14:12:56Z</time>
      </trkpt>
      <trkpt lat="44.12548" lon="6.73342">
        <ele>1760.5313636862</ele>
        <time>2021-07-10T14:12:58Z</time>
      </trkpt>
      <trkpt lat="44.1255" lon="6.73342">
        <ele>1759.5313138712</ele>
        <time>2021-07-10T14:12:59Z</time>
      </trkpt>
      <trkpt lat="44.12551" lon="6.73342">
        <ele>1759.5312632619</ele>
        <time>2021-07-10T14:13:00Z</time>
      </trkpt>
      <trkpt lat="44.12553" lon="6.7334">
        <ele>1759.5312409859</ele>
        <time>2021-07-10T14:13:02Z</time>
      </trkpt>
      <trkpt lat="44.12553" lon="6.73339">
        <ele>1758.531230841</ele>
        <time>2021-07-10T14:13:03Z</time>
      </trkpt>
      <trkpt lat="44.12554" lon="6.73339">
        <ele>1757.531207854</ele>
        <time>2021-07-10T14:13:05Z</time>
      </trkpt>
      <trkpt lat="44.12555" lon="6.7334">
        <ele>1757.5311600489</ele>
        <time>2021-07-10T14:13:06Z</time>
      </trkpt>
      <trkpt lat="44.12556" lon="6.73341">
        <ele>1756.5310893936</ele>
        <time>2021-07-10T14:13:07Z</time>
      </trkpt>
      <trkpt lat="44.12557" lon="6.7334">
        <ele>1756.5310680768</ele>
        <time>2021-07-10T14:13:08Z</time>
      </trkpt>
      <trkpt lat="44.12558" lon="6.7334">
        <ele>1757.5310495</ele>
        <time>2021-07-10T14:13:09Z</time>
      </trkpt>
      <trkpt lat="44.12559" lon="6.73339">
        <ele>1757.5310210912</ele>
        <time>2021-07-10T14:13:10Z</time>
      </trkpt>
      <trkpt lat="44.1256" lon="6.73339">
        <ele>1757.5310074512</ele>
        <time>2021-07-10T14:13:11Z</time>
      </trkpt>
      <trkpt lat="44.12561" lon="6.73339">
        <ele>1756.5309602892</ele>
        <time>2021-07-10T14:13:12Z</time>
      </trkpt>
      <trkpt lat="44.12562" lon="6.73339">
        <ele>1756.5309041943</ele>
        <time>2021-07-10T14:13:13Z</time>
      </trkpt>
      <trkpt lat="44.12563" lon="6.73339">
        <ele>1756.5308748752</ele>
        <time>2021-07-10T14:13:14Z</time>
      </trkpt>
      <trkpt lat="44.12564" lon="6.73338">
        <ele>1756.5308296341</ele>
        <time>2021-07-10T14:13:15Z</time>
      </trkpt>
      <trkpt lat="44.12566" lon="6.73338">
        <ele>1756.5307877043</ele>
        <time>2021-07-10T14:13:16Z</time>
      </trkpt>
      <trkpt lat="44.12567" lon="6.73337">
        <ele>1756.5307521818</ele>
        <time>2021-07-10T14:13:17Z</time>
      </trkpt>
      <trkpt lat="44.12568" lon="6.73337">
        <ele>1756.5307139516</ele>
        <time>2021-07-10T14:13:18Z</time>
      </trkpt>
      <trkpt lat="44.12569" lon="6.73337">
        <ele>1755.5306740358</ele>
        <time>2021-07-10T14:13:19Z</time>
      </trkpt>
      <trkpt lat="44.1257" lon="6.73337">
        <ele>1756.530650541</ele>
        <time>2021-07-10T14:13:20Z</time>
      </trkpt>
      <trkpt lat="44.12571" lon="6.73336">
        <ele>1755.5306359906</ele>
        <time>2021-07-10T14:13:21Z</time>
      </trkpt>
      <trkpt lat="44.1257" lon="6.73336">
        <ele>1752.5306668335</ele>
        <time>2021-07-10T14:13:34Z</time>
      </trkpt>
      <trkpt lat="44.12572" lon="6.73335">
        <ele>1753.5306232679</ele>
        <time>2021-07-10T14:13:35Z</time>
      </trkpt>
      <trkpt lat="44.12573" lon="6.73336">
        <ele>1753.5305566694</ele>
        <time>2021-07-10T14:13:36Z</time>
      </trkpt>
      <trkpt lat="44.12575" lon="6.73336">
        <ele>1753.5305009627</ele>
        <time>2021-07-10T14:13:37Z</time>
      </trkpt>
      <trkpt lat="44.12576" lon="6.73337">
        <ele>1753.5304405978</ele>
        <time>2021-07-10T14:13:38Z</time>
      </trkpt>
      <trkpt lat="44.12576" lon="6.73336">
        <ele>1755.5304677212</ele>
        <time>2021-07-10T14:13:41Z</time>
      </trkpt>
      <trkpt lat="44.12577" lon="6.73335">
        <ele>1755.530428185</ele>
        <time>2021-07-10T14:13:42Z</time>
      </trkpt>
      <trkpt lat="44.12578" lon="6.73336">
        <ele>1756.5303595884</ele>
        <time>2021-07-10T14:13:43Z</time>
      </trkpt>
      <trkpt lat="44.1258" lon="6.73336">
        <ele>1756.5303174879</ele>
        <time>2021-07-10T14:13:44Z</time>
      </trkpt>
      <trkpt lat="44.12582" lon="6.73335">
        <ele>1755.5302406496</ele>
        <time>2021-07-10T14:13:46Z</time>
      </trkpt>
      <trkpt lat="44.12584" lon="6.73335">
        <ele>1755.5301871205</ele>
        <time>2021-07-10T14:13:47Z</time>
      </trkpt>
      <trkpt lat="44.12585" lon="6.73335">
        <ele>1755.5301462847</ele>
        <time>2021-07-10T14:13:48Z</time>
      </trkpt>
      <trkpt lat="44.12585" lon="6.73334">
        <ele>1754.5301459682</ele>
        <time>2021-07-10T14:13:51Z</time>
      </trkpt>
      <trkpt lat="44.12583" lon="6.73335">
        <ele>1752.5301899493</ele>
        <time>2021-07-10T14:13:53Z</time>
      </trkpt>
      <trkpt lat="44.12582" lon="6.73336">
        <ele>1750.5301986814</ele>
        <time>2021-07-10T14:13:54Z</time>
      </trkpt>
      <trkpt lat="44.12581" lon="6.73337">
        <ele>1750.5302377423</ele>
        <time>2021-07-10T14:13:55Z</time>
      </trkpt>
      <trkpt lat="44.12581" lon="6.73337">
        <ele>1750.5302374049</ele>
        <time>2021-07-10T14:14:04Z</time>
      </trkpt>
      <trkpt lat="44.12579" lon="6.73336">
        <ele>1746.5303174366</ele>
        <time>2021-07-10T14:14:06Z</time>
      </trkpt>
      <trkpt lat="44.12579" lon="6.73335">
        <ele>1744.5303339572</ele>
        <time>2021-07-10T14:14:10Z</time>
      </trkpt>
      <trkpt lat="44.12579" lon="6.73336">
        <ele>1743.5303247695</ele>
        <time>2021-07-10T14:14:12Z</time>
      </trkpt>
      <trkpt lat="44.12579" lon="6.73336">
        <ele>1743.530342239</ele>
        <time>2021-07-10T14:14:16Z</time>
      </trkpt>
      <trkpt lat="44.12581" lon="6.73335">
        <ele>1742.5302762937</ele>
        <time>2021-07-10T14:14:18Z</time>
      </trkpt>
      <trkpt lat="44.12583" lon="6.73334">
        <ele>1742.530236489</ele>
        <time>2021-07-10T14:14:19Z</time>
      </trkpt>
      <trkpt lat="44.12584" lon="6.73334">
        <ele>1743.5301950018</ele>
        <time>2021-07-10T14:14:20Z</time>
      </trkpt>
      <trkpt lat="44.12585" lon="6.73333">
        <ele>1743.5301656746</ele>
        <time>2021-07-10T14:14:21Z</time>
      </trkpt>
      <trkpt lat="44.12587" lon="6.73333">
        <ele>1743.5301084375</ele>
        <time>2021-07-10T14:14:23Z</time>
      </trkpt>
      <trkpt lat="44.12588" lon="6.73332">
        <ele>1744.5300901164</ele>
        <time>2021-07-10T14:14:24Z</time>
      </trkpt>
      <trkpt lat="44.1259" lon="6.73331">
        <ele>1743.5300475086</ele>
        <time>2021-07-10T14:14:25Z</time>
      </trkpt>
      <trkpt lat="44.12591" lon="6.7333">
        <ele>1743.530013992</ele>
        <time>2021-07-10T14:14:26Z</time>
      </trkpt>
      <trkpt lat="44.12592" lon="6.73329">
        <ele>1743.5300010356</ele>
        <time>2021-07-10T14:14:27Z</time>
      </trkpt>
      <trkpt lat="44.12593" lon="6.73329">
        <ele>1743.5299621352</ele>
        <time>2021-07-10T14:14:28Z</time>
      </trkpt>
      <trkpt lat="44.12594" lon="6.73328">
        <ele>1743.529960326</ele>
        <time>2021-07-10T14:14:29Z</time>
      </trkpt>
      <trkpt lat="44.12594" lon="6.73327">
        <ele>1743.5299418671</ele>
        <time>2021-07-10T14:14:30Z</time>
      </trkpt>
      <trkpt lat="44.12595" lon="6.73327">
        <ele>1744.5299098814</ele>
        <time>2021-07-10T14:14:31Z</time>
      </trkpt>
      <trkpt lat="44.12596" lon="6.73327">
        <ele>1744.5298555784</ele>
        <time>2021-07-10T14:14:32Z</time>
      </trkpt>
      <trkpt lat="44.12598" lon="6.73328">
        <ele>1745.5297995351</ele>
        <time>2021-07-10T14:14:33Z</time>
      </trkpt>
      <trkpt lat="44.12599" lon="6.73328">
        <ele>1745.5297376341</ele>
        <time>2021-07-10T14:14:34Z</time>
      </trkpt>
      <trkpt lat="44.12601" lon="6.73328">
        <ele>1746.5296814875</ele>
        <time>2021-07-10T14:14:35Z</time>
      </trkpt>
      <trkpt lat="44.12602" lon="6.73329">
        <ele>1746.5296057446</ele>
        <time>2021-07-10T14:14:36Z</time>
      </trkpt>
      <trkpt lat="44.12604" lon="6.7333">
        <ele>1745.5295050638</ele>
        <time>2021-07-10T14:14:38Z</time>
      </trkpt>
      <trkpt lat="44.12605" lon="6.73331">
        <ele>1746.5294466483</ele>
        <time>2021-07-10T14:14:39Z</time>
      </trkpt>
      <trkpt lat="44.12608" lon="6.73331">
        <ele>1746.5293528554</ele>
        <time>2021-07-10T14:14:41Z</time>
      </trkpt>
      <trkpt lat="44.1261" lon="6.73332">
        <ele>1746.5292563751</ele>
        <time>2021-07-10T14:14:43Z</time>
      </trkpt>
      <trkpt lat="44.12611" lon="6.73333">
        <ele>1745.5292111603</ele>
        <time>2021-07-10T14:14:44Z</time>
      </trkpt>
      <trkpt lat="44.12612" lon="6.73333">
        <ele>1745.5291491911</ele>
        <time>2021-07-10T14:14:45Z</time>
      </trkpt>
      <trkpt lat="44.12615" lon="6.73334">
        <ele>1745.5290439192</ele>
        <time>2021-07-10T14:14:47Z</time>
      </trkpt>
      <trkpt lat="44.12616" lon="6.73334">
        <ele>1744.5289953075</ele>
        <time>2021-07-10T14:14:48Z</time>
      </trkpt>
      <trkpt lat="44.12617" lon="6.73334">
        <ele>1744.5289642646</ele>
        <time>2021-07-10T14:14:49Z</time>
      </trkpt>
      <trkpt lat="44.12618" lon="6.73334">
        <ele>1744.5289327301</ele>
        <time>2021-07-10T14:14:50Z</time>
      </trkpt>
      <trkpt lat="44.1262" lon="6.73333">
        <ele>1744.5288422881</ele>
        <time>2021-07-10T14:14:52Z</time>
      </trkpt>
      <trkpt lat="44.1262" lon="6.73333">
        <ele>1744.5288422881</ele>
        <time>2021-07-10T14:14:54Z</time>
      </trkpt>
      <trkpt lat="44.12623" lon="6.73333">
        <ele>1744.5287644004</ele>
        <time>2021-07-10T14:14:55Z</time>
      </trkpt>
      <trkpt lat="44.12624" lon="6.73333">
        <ele>1744.5287132733</ele>
        <time>2021-07-10T14:14:56Z</time>
      </trkpt>
      <trkpt lat="44.12626" lon="6.73334">
        <ele>1744.5286362036</ele>
        <time>2021-07-10T14:14:58Z</time>
      </trkpt>
      <trkpt lat="44.12627" lon="6.73334">
        <ele>1744.5285869621</ele>
        <time>2021-07-10T14:14:59Z</time>
      </trkpt>
      <trkpt lat="44.12628" lon="6.73334">
        <ele>1743.528540989</ele>
        <time>2021-07-10T14:15:00Z</time>
      </trkpt>
      <trkpt lat="44.12631" lon="6.73335">
        <ele>1743.5284312373</ele>
        <time>2021-07-10T14:15:02Z</time>
      </trkpt>
      <trkpt lat="44.12632" lon="6.73334">
        <ele>1742.5283881539</ele>
        <time>2021-07-10T14:15:03Z</time>
      </trkpt>
      <trkpt lat="44.12634" lon="6.73335">
        <ele>1742.528321789</ele>
        <time>2021-07-10T14:15:04Z</time>
      </trkpt>
      <trkpt lat="44.12635" lon="6.73334">
        <ele>1743.5282584542</ele>
        <time>2021-07-10T14:15:06Z</time>
      </trkpt>
      <trkpt lat="44.12639" lon="6.73334">
        <ele>1742.5281512725</ele>
        <time>2021-07-10T14:15:08Z</time>
      </trkpt>
      <trkpt lat="44.1264" lon="6.73334">
        <ele>1742.5280995343</ele>
        <time>2021-07-10T14:15:09Z</time>
      </trkpt>
      <trkpt lat="44.12642" lon="6.73335">
        <ele>1741.5280188737</ele>
        <time>2021-07-10T14:15:10Z</time>
      </trkpt>
      <trkpt lat="44.12645" lon="6.73335">
        <ele>1741.5278876139</ele>
        <time>2021-07-10T14:15:12Z</time>
      </trkpt>
      <trkpt lat="44.12647" lon="6.73336">
        <ele>1741.5278097361</ele>
        <time>2021-07-10T14:15:13Z</time>
      </trkpt>
      <trkpt lat="44.12649" lon="6.73336">
        <ele>1740.5277280998</ele>
        <time>2021-07-10T14:15:14Z</time>
      </trkpt>
      <trkpt lat="44.12652" lon="6.73337">
        <ele>1740.5276091266</ele>
        <time>2021-07-10T14:15:16Z</time>
      </trkpt>
      <trkpt lat="44.12655" lon="6.73337">
        <ele>1740.5274823954</ele>
        <time>2021-07-10T14:15:18Z</time>
      </trkpt>
      <trkpt lat="44.12656" lon="6.73337">
        <ele>1740.5274188089</ele>
        <time>2021-07-10T14:15:19Z</time>
      </trkpt>
      <trkpt lat="44.12658" lon="6.73337">
        <ele>1739.5273717649</ele>
        <time>2021-07-10T14:15:20Z</time>
      </trkpt>
      <trkpt lat="44.1266" lon="6.73337">
        <ele>1738.5272850465</ele>
        <time>2021-07-10T14:15:22Z</time>
      </trkpt>
      <trkpt lat="44.12661" lon="6.73337">
        <ele>1737.5272525963</ele>
        <time>2021-07-10T14:15:23Z</time>
      </trkpt>
      <trkpt lat="44.12662" lon="6.73336">
        <ele>1736.5272172317</ele>
        <time>2021-07-10T14:15:24Z</time>
      </trkpt>
      <trkpt lat="44.12665" lon="6.73336">
        <ele>1736.5271182917</ele>
        <time>2021-07-10T14:15:26Z</time>
      </trkpt>
      <trkpt lat="44.12667" lon="6.73337">
        <ele>1735.5270190705</ele>
        <time>2021-07-10T14:15:28Z</time>
      </trkpt>
      <trkpt lat="44.12668" lon="6.73338">
        <ele>1734.5269530648</ele>
        <time>2021-07-10T14:15:29Z</time>
      </trkpt>
      <trkpt lat="44.1267" lon="6.73339">
        <ele>1734.5268891878</ele>
        <time>2021-07-10T14:15:30Z</time>
      </trkpt>
      <trkpt lat="44.12672" lon="6.73339">
        <ele>1733.5267927027</ele>
        <time>2021-07-10T14:15:32Z</time>
      </trkpt>
      <trkpt lat="44.12673" lon="6.7334">
        <ele>1734.5267375453</ele>
        <time>2021-07-10T14:15:33Z</time>
      </trkpt>
      <trkpt lat="44.12675" lon="6.73339">
        <ele>1734.5266914734</ele>
        <time>2021-07-10T14:15:34Z</time>
      </trkpt>
      <trkpt lat="44.12676" lon="6.73339">
        <ele>1733.5266589995</ele>
        <time>2021-07-10T14:15:35Z</time>
      </trkpt>
      <trkpt lat="44.12677" lon="6.73339">
        <ele>1733.5266135382</ele>
        <time>2021-07-10T14:15:36Z</time>
      </trkpt>
      <trkpt lat="44.12678" lon="6.7334">
        <ele>1732.5265608322</ele>
        <time>2021-07-10T14:15:37Z</time>
      </trkpt>
      <trkpt lat="44.12678" lon="6.73341">
        <ele>1732.526516108</ele>
        <time>2021-07-10T14:15:38Z</time>
      </trkpt>
      <trkpt lat="44.12679" lon="6.73342">
        <ele>1732.5264571539</ele>
        <time>2021-07-10T14:15:39Z</time>
      </trkpt>
      <trkpt lat="44.1268" lon="6.73343">
        <ele>1732.5263977461</ele>
        <time>2021-07-10T14:15:40Z</time>
      </trkpt>
      <trkpt lat="44.12681" lon="6.73344">
        <ele>1732.5263559021</ele>
        <time>2021-07-10T14:15:41Z</time>
      </trkpt>
      <trkpt lat="44.12683" lon="6.73344">
        <ele>1732.5263029836</ele>
        <time>2021-07-10T14:15:42Z</time>
      </trkpt>
      <trkpt lat="44.12684" lon="6.73345">
        <ele>1731.5262411891</ele>
        <time>2021-07-10T14:15:43Z</time>
      </trkpt>
      <trkpt lat="44.12685" lon="6.73345">
        <ele>1731.5261880086</ele>
        <time>2021-07-10T14:15:44Z</time>
      </trkpt>
      <trkpt lat="44.12687" lon="6.73345">
        <ele>1731.5261366158</ele>
        <time>2021-07-10T14:15:45Z</time>
      </trkpt>
      <trkpt lat="44.1269" lon="6.73344">
        <ele>1731.5260365008</ele>
        <time>2021-07-10T14:15:47Z</time>
      </trkpt>
      <trkpt lat="44.1269" lon="6.73344">
        <ele>1731.5260021921</ele>
        <time>2021-07-10T14:15:48Z</time>
      </trkpt>
      <trkpt lat="44.12691" lon="6.73345">
        <ele>1731.5259615238</ele>
        <time>2021-07-10T14:15:49Z</time>
      </trkpt>
      <trkpt lat="44.12692" lon="6.73345">
        <ele>1730.5259298619</ele>
        <time>2021-07-10T14:15:50Z</time>
      </trkpt>
      <trkpt lat="44.12694" lon="6.73345">
        <ele>1730.5258541928</ele>
        <time>2021-07-10T14:15:52Z</time>
      </trkpt>
      <trkpt lat="44.12695" lon="6.73346">
        <ele>1730.5258063995</ele>
        <time>2021-07-10T14:15:53Z</time>
      </trkpt>
      <trkpt lat="44.12696" lon="6.73346">
        <ele>1730.5257660605</ele>
        <time>2021-07-10T14:15:54Z</time>
      </trkpt>
      <trkpt lat="44.12698" lon="6.73347">
        <ele>1730.525673572</ele>
        <time>2021-07-10T14:15:56Z</time>
      </trkpt>
      <trkpt lat="44.127" lon="6.73348">
        <ele>1729.525570556</ele>
        <time>2021-07-10T14:15:58Z</time>
      </trkpt>
      <trkpt lat="44.12701" lon="6.73348">
        <ele>1729.5255204407</ele>
        <time>2021-07-10T14:15:59Z</time>
      </trkpt>
      <trkpt lat="44.12703" lon="6.7335">
        <ele>1728.5254107702</ele>
        <time>2021-07-10T14:16:01Z</time>
      </trkpt>
      <trkpt lat="44.12706" lon="6.7335">
        <ele>1728.5253226339</ele>
        <time>2021-07-10T14:16:03Z</time>
      </trkpt>
      <trkpt lat="44.12707" lon="6.7335">
        <ele>1728.5252812664</ele>
        <time>2021-07-10T14:16:04Z</time>
      </trkpt>
      <trkpt lat="44.12708" lon="6.7335">
        <ele>1729.5252278418</ele>
        <time>2021-07-10T14:16:05Z</time>
      </trkpt>
      <trkpt lat="44.1271" lon="6.73351">
        <ele>1729.5251272943</ele>
        <time>2021-07-10T14:16:07Z</time>
      </trkpt>
      <trkpt lat="44.1271" lon="6.73353">
        <ele>1728.5250788585</ele>
        <time>2021-07-10T14:16:08Z</time>
      </trkpt>
      <trkpt lat="44.1271" lon="6.73355">
        <ele>1728.5250605523</ele>
        <time>2021-07-10T14:16:09Z</time>
      </trkpt>
      <trkpt lat="44.12709" lon="6.73356">
        <ele>1727.5250647144</ele>
        <time>2021-07-10T14:16:10Z</time>
      </trkpt>
      <trkpt lat="44.12709" lon="6.73356">
        <ele>1727.5250450809</ele>
        <time>2021-07-10T14:16:12Z</time>
      </trkpt>
      <trkpt lat="44.12709" lon="6.73358">
        <ele>1727.5250215593</ele>
        <time>2021-07-10T14:16:13Z</time>
      </trkpt>
      <trkpt lat="44.1271" lon="6.73359">
        <ele>1726.5249964758</ele>
        <time>2021-07-10T14:16:14Z</time>
      </trkpt>
      <trkpt lat="44.12709" lon="6.7336">
        <ele>1726.5249962745</ele>
        <time>2021-07-10T14:16:15Z</time>
      </trkpt>
      <trkpt lat="44.1271" lon="6.7336">
        <ele>1725.5249649248</ele>
        <time>2021-07-10T14:16:16Z</time>
      </trkpt>
      <trkpt lat="44.1271" lon="6.73361">
        <ele>1725.5249266172</ele>
        <time>2021-07-10T14:16:17Z</time>
      </trkpt>
      <trkpt lat="44.1271" lon="6.73363">
        <ele>1725.5249105874</ele>
        <time>2021-07-10T14:16:18Z</time>
      </trkpt>
      <trkpt lat="44.12709" lon="6.73364">
        <ele>1725.5249029883</ele>
        <time>2021-07-10T14:16:19Z</time>
      </trkpt>
      <trkpt lat="44.12708" lon="6.73367">
        <ele>1724.5249052063</ele>
        <time>2021-07-10T14:16:21Z</time>
      </trkpt>
      <trkpt lat="44.12706" lon="6.73368">
        <ele>1724.5249440089</ele>
        <time>2021-07-10T14:16:23Z</time>
      </trkpt>
      <trkpt lat="44.12705" lon="6.73369">
        <ele>1724.5249805083</ele>
        <time>2021-07-10T14:16:24Z</time>
      </trkpt>
      <trkpt lat="44.12704" lon="6.73369">
        <ele>1723.5250079284</ele>
        <time>2021-07-10T14:16:25Z</time>
      </trkpt>
      <trkpt lat="44.12702" lon="6.7337">
        <ele>1722.5250536487</ele>
        <time>2021-07-10T14:16:27Z</time>
      </trkpt>
      <trkpt lat="44.12701" lon="6.7337">
        <ele>1722.5250844245</ele>
        <time>2021-07-10T14:16:28Z</time>
      </trkpt>
      <trkpt lat="44.12701" lon="6.7337">
        <ele>1722.5250983034</ele>
        <time>2021-07-10T14:16:29Z</time>
      </trkpt>
      <trkpt lat="44.127" lon="6.7337">
        <ele>1722.525122559</ele>
        <time>2021-07-10T14:16:32Z</time>
      </trkpt>
      <trkpt lat="44.12699" lon="6.73372">
        <ele>1721.5251252624</ele>
        <time>2021-07-10T14:16:33Z</time>
      </trkpt>
      <trkpt lat="44.12699" lon="6.73372">
        <ele>1720.5251038967</ele>
        <time>2021-07-10T14:16:34Z</time>
      </trkpt>
      <trkpt lat="44.12699" lon="6.73374">
        <ele>1721.5250712417</ele>
        <time>2021-07-10T14:16:36Z</time>
      </trkpt>
      <trkpt lat="44.12699" lon="6.73375">
        <ele>1720.5250426785</ele>
        <time>2021-07-10T14:16:37Z</time>
      </trkpt>
      <trkpt lat="44.127" lon="6.73376">
        <ele>1720.524979355</ele>
        <time>2021-07-10T14:16:38Z</time>
      </trkpt>
      <trkpt lat="44.12701" lon="6.73377">
        <ele>1719.5249506669</ele>
        <time>2021-07-10T14:16:39Z</time>
      </trkpt>
      <trkpt lat="44.12702" lon="6.73377">
        <ele>1719.5249164683</ele>
        <time>2021-07-10T14:16:40Z</time>
      </trkpt>
      <trkpt lat="44.12702" lon="6.73378">
        <ele>1719.5248692815</ele>
        <time>2021-07-10T14:16:42Z</time>
      </trkpt>
      <trkpt lat="44.12703" lon="6.73379">
        <ele>1718.5248422403</ele>
        <time>2021-07-10T14:16:43Z</time>
      </trkpt>
      <trkpt lat="44.12703" lon="6.7338">
        <ele>1717.5248191376</ele>
        <time>2021-07-10T14:16:44Z</time>
      </trkpt>
      <trkpt lat="44.12704" lon="6.7338">
        <ele>1716.5247856109</ele>
        <time>2021-07-10T14:16:45Z</time>
      </trkpt>
      <trkpt lat="44.12704" lon="6.7338">
        <ele>1716.5247709564</ele>
        <time>2021-07-10T14:16:46Z</time>
      </trkpt>
      <trkpt lat="44.12704" lon="6.73381">
        <ele>1716.5247461219</ele>
        <time>2021-07-10T14:16:47Z</time>
      </trkpt>
      <trkpt lat="44.12704" lon="6.73383">
        <ele>1715.5247086978</ele>
        <time>2021-07-10T14:16:48Z</time>
      </trkpt>
      <trkpt lat="44.12705" lon="6.73384">
        <ele>1715.5246736171</ele>
        <time>2021-07-10T14:16:49Z</time>
      </trkpt>
      <trkpt lat="44.12705" lon="6.73384">
        <ele>1716.524633425</ele>
        <time>2021-07-10T14:16:50Z</time>
      </trkpt>
      <trkpt lat="44.12706" lon="6.73384">
        <ele>1716.5246201447</ele>
        <time>2021-07-10T14:16:54Z</time>
      </trkpt>
      <trkpt lat="44.12708" lon="6.73386">
        <ele>1715.5244946297</ele>
        <time>2021-07-10T14:16:55Z</time>
      </trkpt>
      <trkpt lat="44.12709" lon="6.73387">
        <ele>1714.5244640163</ele>
        <time>2021-07-10T14:16:56Z</time>
      </trkpt>
      <trkpt lat="44.12709" lon="6.73387">
        <ele>1714.5244338731</ele>
        <time>2021-07-10T14:16:57Z</time>
      </trkpt>
      <trkpt lat="44.1271" lon="6.73387">
        <ele>1713.5243950704</ele>
        <time>2021-07-10T14:16:58Z</time>
      </trkpt>
      <trkpt lat="44.12711" lon="6.73387">
        <ele>1713.524351474</ele>
        <time>2021-07-10T14:16:59Z</time>
      </trkpt>
      <trkpt lat="44.12713" lon="6.73387">
        <ele>1712.524302204</ele>
        <time>2021-07-10T14:17:00Z</time>
      </trkpt>
      <trkpt lat="44.12715" lon="6.73388">
        <ele>1713.5241945109</ele>
        <time>2021-07-10T14:17:02Z</time>
      </trkpt>
      <trkpt lat="44.12716" lon="6.73387">
        <ele>1713.5241641492</ele>
        <time>2021-07-10T14:17:03Z</time>
      </trkpt>
      <trkpt lat="44.12717" lon="6.73388">
        <ele>1713.5241228964</ele>
        <time>2021-07-10T14:17:04Z</time>
      </trkpt>
      <trkpt lat="44.12718" lon="6.73388">
        <ele>1714.5240795472</ele>
        <time>2021-07-10T14:17:05Z</time>
      </trkpt>
      <trkpt lat="44.12719" lon="6.73388">
        <ele>1714.524048399</ele>
        <time>2021-07-10T14:17:06Z</time>
      </trkpt>
      <trkpt lat="44.12721" lon="6.73388">
        <ele>1713.5239540212</ele>
        <time>2021-07-10T14:17:08Z</time>
      </trkpt>
      <trkpt lat="44.12723" lon="6.73388">
        <ele>1713.5239068245</ele>
        <time>2021-07-10T14:17:09Z</time>
      </trkpt>
      <trkpt lat="44.12724" lon="6.73388">
        <ele>1713.5238677792</ele>
        <time>2021-07-10T14:17:10Z</time>
      </trkpt>
      <trkpt lat="44.12725" lon="6.73388">
        <ele>1713.5238333641</ele>
        <time>2021-07-10T14:17:11Z</time>
      </trkpt>
      <trkpt lat="44.12726" lon="6.73388">
        <ele>1713.5237991804</ele>
        <time>2021-07-10T14:17:12Z</time>
      </trkpt>
      <trkpt lat="44.12727" lon="6.73388">
        <ele>1713.5237477217</ele>
        <time>2021-07-10T14:17:13Z</time>
      </trkpt>
      <trkpt lat="44.12728" lon="6.73389">
        <ele>1713.5236838333</ele>
        <time>2021-07-10T14:17:14Z</time>
      </trkpt>
      <trkpt lat="44.12729" lon="6.7339">
        <ele>1713.5236507163</ele>
        <time>2021-07-10T14:17:15Z</time>
      </trkpt>
      <trkpt lat="44.1273" lon="6.73389">
        <ele>1711.5236192623</ele>
        <time>2021-07-10T14:17:17Z</time>
      </trkpt>
      <trkpt lat="44.1273" lon="6.73389">
        <ele>1710.5236039576</ele>
        <time>2021-07-10T14:17:18Z</time>
      </trkpt>
      <trkpt lat="44.12731" lon="6.7339">
        <ele>1710.5235641687</ele>
        <time>2021-07-10T14:17:19Z</time>
      </trkpt>
      <trkpt lat="44.12733" lon="6.73389">
        <ele>1709.5235120155</ele>
        <time>2021-07-10T14:17:21Z</time>
      </trkpt>
      <trkpt lat="44.12734" lon="6.73388">
        <ele>1708.5234907106</ele>
        <time>2021-07-10T14:17:23Z</time>
      </trkpt>
      <trkpt lat="44.12735" lon="6.73389">
        <ele>1708.5234497808</ele>
        <time>2021-07-10T14:17:24Z</time>
      </trkpt>
      <trkpt lat="44.12736" lon="6.73389">
        <ele>1708.5234036924</ele>
        <time>2021-07-10T14:17:25Z</time>
      </trkpt>
      <trkpt lat="44.12737" lon="6.7339">
        <ele>1707.5233233205</ele>
        <time>2021-07-10T14:17:27Z</time>
      </trkpt>
      <trkpt lat="44.12738" lon="6.7339">
        <ele>1706.5233097591</ele>
        <time>2021-07-10T14:17:28Z</time>
      </trkpt>
      <trkpt lat="44.12738" lon="6.7339">
        <ele>1706.5232716722</ele>
        <time>2021-07-10T14:17:29Z</time>
      </trkpt>
      <trkpt lat="44.1274" lon="6.7339">
        <ele>1706.5232060979</ele>
        <time>2021-07-10T14:17:31Z</time>
      </trkpt>
      <trkpt lat="44.12742" lon="6.73389">
        <ele>1705.5231600917</ele>
        <time>2021-07-10T14:17:33Z</time>
      </trkpt>
      <trkpt lat="44.12743" lon="6.73389">
        <ele>1705.5231131115</ele>
        <time>2021-07-10T14:17:34Z</time>
      </trkpt>
      <trkpt lat="44.12744" lon="6.73389">
        <ele>1705.5230798746</ele>
        <time>2021-07-10T14:17:35Z</time>
      </trkpt>
      <trkpt lat="44.12745" lon="6.73388">
        <ele>1703.5230699017</ele>
        <time>2021-07-10T14:17:37Z</time>
      </trkpt>
      <trkpt lat="44.12745" lon="6.73388">
        <ele>1703.5230704093</ele>
        <time>2021-07-10T14:17:38Z</time>
      </trkpt>
      <trkpt lat="44.12746" lon="6.73388">
        <ele>1702.5230284742</ele>
        <time>2021-07-10T14:17:39Z</time>
      </trkpt>
      <trkpt lat="44.12748" lon="6.73389">
        <ele>1702.5229467321</ele>
        <time>2021-07-10T14:17:41Z</time>
      </trkpt>
      <trkpt lat="44.1275" lon="6.73389">
        <ele>1702.5228899729</ele>
        <time>2021-07-10T14:17:43Z</time>
      </trkpt>
      <trkpt lat="44.1275" lon="6.73389">
        <ele>1703.5228769309</ele>
        <time>2021-07-10T14:17:44Z</time>
      </trkpt>
      <trkpt lat="44.12751" lon="6.7339">
        <ele>1702.5228163592</ele>
        <time>2021-07-10T14:17:46Z</time>
      </trkpt>
      <trkpt lat="44.12753" lon="6.7339">
        <ele>1701.5227186506</ele>
        <time>2021-07-10T14:17:48Z</time>
      </trkpt>
      <trkpt lat="44.12755" lon="6.73391">
        <ele>1700.5226610352</ele>
        <time>2021-07-10T14:17:49Z</time>
      </trkpt>
      <trkpt lat="44.12756" lon="6.73391">
        <ele>1700.5226165194</ele>
        <time>2021-07-10T14:17:50Z</time>
      </trkpt>
      <trkpt lat="44.12757" lon="6.7339">
        <ele>1699.5225866596</ele>
        <time>2021-07-10T14:17:51Z</time>
      </trkpt>
      <trkpt lat="44.12758" lon="6.7339">
        <ele>1699.5225397505</ele>
        <time>2021-07-10T14:17:52Z</time>
      </trkpt>
      <trkpt lat="44.12759" lon="6.73389">
        <ele>1699.5225109359</ele>
        <time>2021-07-10T14:17:53Z</time>
      </trkpt>
      <trkpt lat="44.1276" lon="6.73389">
        <ele>1699.5224829055</ele>
        <time>2021-07-10T14:17:54Z</time>
      </trkpt>
      <trkpt lat="44.12761" lon="6.73388">
        <ele>1698.5224584424</ele>
        <time>2021-07-10T14:17:55Z</time>
      </trkpt>
      <trkpt lat="44.12762" lon="6.73387">
        <ele>1698.5224573294</ele>
        <time>2021-07-10T14:17:57Z</time>
      </trkpt>
      <trkpt lat="44.12763" lon="6.73386">
        <ele>1698.5224512363</ele>
        <time>2021-07-10T14:17:58Z</time>
      </trkpt>
      <trkpt lat="44.12764" lon="6.73386">
        <ele>1698.5224059038</ele>
        <time>2021-07-10T14:17:59Z</time>
      </trkpt>
      <trkpt lat="44.12766" lon="6.73385">
        <ele>1698.5223633181</ele>
        <time>2021-07-10T14:18:00Z</time>
      </trkpt>
      <trkpt lat="44.12767" lon="6.73384">
        <ele>1698.5223427797</ele>
        <time>2021-07-10T14:18:01Z</time>
      </trkpt>
      <trkpt lat="44.12768" lon="6.73383">
        <ele>1698.5223131737</ele>
        <time>2021-07-10T14:18:02Z</time>
      </trkpt>
      <trkpt lat="44.12769" lon="6.73382">
        <ele>1698.5222873547</ele>
        <time>2021-07-10T14:18:03Z</time>
      </trkpt>
      <trkpt lat="44.1277" lon="6.73381">
        <ele>1698.5222635779</ele>
        <time>2021-07-10T14:18:04Z</time>
      </trkpt>
      <trkpt lat="44.12772" lon="6.7338">
        <ele>1698.5222309794</ele>
        <time>2021-07-10T14:18:05Z</time>
      </trkpt>
      <trkpt lat="44.12773" lon="6.7338">
        <ele>1698.5221950254</ele>
        <time>2021-07-10T14:18:06Z</time>
      </trkpt>
      <trkpt lat="44.12775" lon="6.73378">
        <ele>1698.5221567771</ele>
        <time>2021-07-10T14:18:08Z</time>
      </trkpt>
      <trkpt lat="44.12776" lon="6.73377">
        <ele>1697.5221366527</ele>
        <time>2021-07-10T14:18:09Z</time>
      </trkpt>
      <trkpt lat="44.12777" lon="6.73377">
        <ele>1697.5221063482</ele>
        <time>2021-07-10T14:18:10Z</time>
      </trkpt>
      <trkpt lat="44.12779" lon="6.73376">
        <ele>1696.5220447627</ele>
        <time>2021-07-10T14:18:12Z</time>
      </trkpt>
      <trkpt lat="44.1278" lon="6.73374">
        <ele>1696.5220352588</ele>
        <time>2021-07-10T14:18:13Z</time>
      </trkpt>
      <trkpt lat="44.12781" lon="6.73373">
        <ele>1696.5220224968</ele>
        <time>2021-07-10T14:18:14Z</time>
      </trkpt>
      <trkpt lat="44.12782" lon="6.73373">
        <ele>1696.5220028611</ele>
        <time>2021-07-10T14:18:15Z</time>
      </trkpt>
      <trkpt lat="44.12784" lon="6.73373">
        <ele>1695.5219333288</ele>
        <time>2021-07-10T14:18:17Z</time>
      </trkpt>
      <trkpt lat="44.12785" lon="6.73372">
        <ele>1695.5219068782</ele>
        <time>2021-07-10T14:18:18Z</time>
      </trkpt>
      <trkpt lat="44.12786" lon="6.73373">
        <ele>1694.5218527555</ele>
        <time>2021-07-10T14:18:19Z</time>
      </trkpt>
      <trkpt lat="44.12787" lon="6.73373">
        <ele>1694.521817842</ele>
        <time>2021-07-10T14:18:20Z</time>
      </trkpt>
      <trkpt lat="44.12789" lon="6.73374">
        <ele>1693.5217065171</ele>
        <time>2021-07-10T14:18:22Z</time>
      </trkpt>
      <trkpt lat="44.1279" lon="6.73375">
        <ele>1693.5216393854</ele>
        <time>2021-07-10T14:18:23Z</time>
      </trkpt>
      <trkpt lat="44.12792" lon="6.73375">
        <ele>1693.5215918062</ele>
        <time>2021-07-10T14:18:24Z</time>
      </trkpt>
      <trkpt lat="44.12793" lon="6.73374">
        <ele>1692.5215656781</ele>
        <time>2021-07-10T14:18:26Z</time>
      </trkpt>
      <trkpt lat="44.12795" lon="6.73373">
        <ele>1691.5215168591</ele>
        <time>2021-07-10T14:18:28Z</time>
      </trkpt>
      <trkpt lat="44.12795" lon="6.73373">
        <ele>1690.5214863521</ele>
        <time>2021-07-10T14:18:29Z</time>
      </trkpt>
      <trkpt lat="44.12796" lon="6.73374">
        <ele>1689.5214358064</ele>
        <time>2021-07-10T14:18:30Z</time>
      </trkpt>
      <trkpt lat="44.12798" lon="6.73374">
        <ele>1688.5213777258</ele>
        <time>2021-07-10T14:18:32Z</time>
      </trkpt>
      <trkpt lat="44.12798" lon="6.73374">
        <ele>1688.5213684696</ele>
        <time>2021-07-10T14:18:33Z</time>
      </trkpt>
      <trkpt lat="44.12799" lon="6.73373">
        <ele>1688.5213677664</ele>
        <time>2021-07-10T14:18:34Z</time>
      </trkpt>
      <trkpt lat="44.128" lon="6.73372">
        <ele>1687.5213502808</ele>
        <time>2021-07-10T14:18:35Z</time>
      </trkpt>
      <trkpt lat="44.12801" lon="6.73371">
        <ele>1687.5213168655</ele>
        <time>2021-07-10T14:18:37Z</time>
      </trkpt>
      <trkpt lat="44.12801" lon="6.7337">
        <ele>1687.5213364597</ele>
        <time>2021-07-10T14:18:38Z</time>
      </trkpt>
      <trkpt lat="44.12802" lon="6.73369">
        <ele>1687.5213329635</ele>
        <time>2021-07-10T14:18:39Z</time>
      </trkpt>
      <trkpt lat="44.12802" lon="6.73369">
        <ele>1687.5213454378</ele>
        <time>2021-07-10T14:18:41Z</time>
      </trkpt>
      <trkpt lat="44.12804" lon="6.73368">
        <ele>1687.5212868401</ele>
        <time>2021-07-10T14:18:43Z</time>
      </trkpt>
      <trkpt lat="44.12804" lon="6.73367">
        <ele>1687.5212788123</ele>
        <time>2021-07-10T14:18:45Z</time>
      </trkpt>
      <trkpt lat="44.12805" lon="6.73368">
        <ele>1688.5212340455</ele>
        <time>2021-07-10T14:18:46Z</time>
      </trkpt>
      <trkpt lat="44.12806" lon="6.73367">
        <ele>1687.521218023</ele>
        <time>2021-07-10T14:18:49Z</time>
      </trkpt>
      <trkpt lat="44.12808" lon="6.73369">
        <ele>1686.521082904</ele>
        <time>2021-07-10T14:18:50Z</time>
      </trkpt>
      <trkpt lat="44.1281" lon="6.73371">
        <ele>1686.5209828642</ele>
        <time>2021-07-10T14:18:52Z</time>
      </trkpt>
      <trkpt lat="44.12811" lon="6.73372">
        <ele>1686.520932375</ele>
        <time>2021-07-10T14:18:53Z</time>
      </trkpt>
      <trkpt lat="44.12811" lon="6.73373">
        <ele>1687.5208986565</ele>
        <time>2021-07-10T14:18:54Z</time>
      </trkpt>
      <trkpt lat="44.12811" lon="6.73374">
        <ele>1686.5208700995</ele>
        <time>2021-07-10T14:18:55Z</time>
      </trkpt>
      <trkpt lat="44.12811" lon="6.73376">
        <ele>1686.5208480804</ele>
        <time>2021-07-10T14:18:56Z</time>
      </trkpt>
      <trkpt lat="44.12811" lon="6.73377">
        <ele>1686.5208214825</ele>
        <time>2021-07-10T14:18:57Z</time>
      </trkpt>
      <trkpt lat="44.12812" lon="6.73378">
        <ele>1686.5207873234</ele>
        <time>2021-07-10T14:18:58Z</time>
      </trkpt>
      <trkpt lat="44.12812" lon="6.73379">
        <ele>1686.520740619</ele>
        <time>2021-07-10T14:18:59Z</time>
      </trkpt>
      <trkpt lat="44.12813" lon="6.73379">
        <ele>1686.5207293317</ele>
        <time>2021-07-10T14:19:02Z</time>
      </trkpt>
      <trkpt lat="44.12814" lon="6.73377">
        <ele>1685.5207061918</ele>
        <time>2021-07-10T14:19:03Z</time>
      </trkpt>
      <trkpt lat="44.12815" lon="6.73376">
        <ele>1684.5207134165</ele>
        <time>2021-07-10T14:19:04Z</time>
      </trkpt>
      <trkpt lat="44.12815" lon="6.73375">
        <ele>1684.5207155894</ele>
        <time>2021-07-10T14:19:05Z</time>
      </trkpt>
      <trkpt lat="44.12816" lon="6.73374">
        <ele>1683.5206915592</ele>
        <time>2021-07-10T14:19:06Z</time>
      </trkpt>
      <trkpt lat="44.12817" lon="6.73374">
        <ele>1683.5206583974</ele>
        <time>2021-07-10T14:19:07Z</time>
      </trkpt>
      <trkpt lat="44.12819" lon="6.73375">
        <ele>1682.520581288</ele>
        <time>2021-07-10T14:19:08Z</time>
      </trkpt>
      <trkpt lat="44.12819" lon="6.73376">
        <ele>1681.5205316297</ele>
        <time>2021-07-10T14:19:09Z</time>
      </trkpt>
      <trkpt lat="44.1282" lon="6.73377">
        <ele>1680.5205039907</ele>
        <time>2021-07-10T14:19:10Z</time>
      </trkpt>
      <trkpt lat="44.12819" lon="6.73378">
        <ele>1680.5204979788</ele>
        <time>2021-07-10T14:19:11Z</time>
      </trkpt>
      <trkpt lat="44.12819" lon="6.73379">
        <ele>1679.5204948155</ele>
        <time>2021-07-10T14:19:12Z</time>
      </trkpt>
      <trkpt lat="44.12819" lon="6.7338">
        <ele>1678.5204586553</ele>
        <time>2021-07-10T14:19:14Z</time>
      </trkpt>
      <trkpt lat="44.12819" lon="6.73382">
        <ele>1677.5204458078</ele>
        <time>2021-07-10T14:19:15Z</time>
      </trkpt>
      <trkpt lat="44.12818" lon="6.73383">
        <ele>1677.5204414191</ele>
        <time>2021-07-10T14:19:16Z</time>
      </trkpt>
      <trkpt lat="44.12819" lon="6.73385">
        <ele>1677.5203928955</ele>
        <time>2021-07-10T14:19:18Z</time>
      </trkpt>
      <trkpt lat="44.12819" lon="6.73386">
        <ele>1677.5203578512</ele>
        <time>2021-07-10T14:19:19Z</time>
      </trkpt>
      <trkpt lat="44.1282" lon="6.73387">
        <ele>1677.5202998124</ele>
        <time>2021-07-10T14:19:20Z</time>
      </trkpt>
      <trkpt lat="44.1282" lon="6.73389">
        <ele>1677.5202355622</ele>
        <time>2021-07-10T14:19:22Z</time>
      </trkpt>
      <trkpt lat="44.1282" lon="6.73391">
        <ele>1677.5202044488</ele>
        <time>2021-07-10T14:19:23Z</time>
      </trkpt>
      <trkpt lat="44.1282" lon="6.73392">
        <ele>1677.5201841521</ele>
        <time>2021-07-10T14:19:24Z</time>
      </trkpt>
      <trkpt lat="44.1282" lon="6.73394">
        <ele>1677.5201616041</ele>
        <time>2021-07-10T14:19:25Z</time>
      </trkpt>
      <trkpt lat="44.12819" lon="6.73395">
        <ele>1676.5201392195</ele>
        <time>2021-07-10T14:19:26Z</time>
      </trkpt>
      <trkpt lat="44.12819" lon="6.73397">
        <ele>1676.5201192295</ele>
        <time>2021-07-10T14:19:27Z</time>
      </trkpt>
      <trkpt lat="44.12819" lon="6.73398">
        <ele>1676.5201027401</ele>
        <time>2021-07-10T14:19:28Z</time>
      </trkpt>
      <trkpt lat="44.12818" lon="6.734">
        <ele>1675.5200869105</ele>
        <time>2021-07-10T14:19:29Z</time>
      </trkpt>
      <trkpt lat="44.12819" lon="6.73401">
        <ele>1674.5200480082</ele>
        <time>2021-07-10T14:19:30Z</time>
      </trkpt>
      <trkpt lat="44.12818" lon="6.73402">
        <ele>1674.5200467107</ele>
        <time>2021-07-10T14:19:31Z</time>
      </trkpt>
      <trkpt lat="44.12817" lon="6.73404">
        <ele>1673.5200405115</ele>
        <time>2021-07-10T14:19:32Z</time>
      </trkpt>
      <trkpt lat="44.12817" lon="6.73405">
        <ele>1674.5200197345</ele>
        <time>2021-07-10T14:19:33Z</time>
      </trkpt>
      <trkpt lat="44.12817" lon="6.73407">
        <ele>1673.5200032335</ele>
        <time>2021-07-10T14:19:34Z</time>
      </trkpt>
      <trkpt lat="44.12816" lon="6.73407">
        <ele>1673.5200124734</ele>
        <time>2021-07-10T14:19:35Z</time>
      </trkpt>
      <trkpt lat="44.12816" lon="6.73408">
        <ele>1673.520004628</ele>
        <time>2021-07-10T14:19:36Z</time>
      </trkpt>
      <trkpt lat="44.12816" lon="6.7341">
        <ele>1672.5199842166</ele>
        <time>2021-07-10T14:19:37Z</time>
      </trkpt>
      <trkpt lat="44.12816" lon="6.73411">
        <ele>1671.5199656857</ele>
        <time>2021-07-10T14:19:38Z</time>
      </trkpt>
      <trkpt lat="44.12816" lon="6.73412">
        <ele>1670.519936767</ele>
        <time>2021-07-10T14:19:39Z</time>
      </trkpt>
      <trkpt lat="44.12816" lon="6.73416">
        <ele>1669.5198556386</ele>
        <time>2021-07-10T14:19:41Z</time>
      </trkpt>
      <trkpt lat="44.12816" lon="6.73417">
        <ele>1669.5198341036</ele>
        <time>2021-07-10T14:19:42Z</time>
      </trkpt>
      <trkpt lat="44.12816" lon="6.73418">
        <ele>1670.5198124674</ele>
        <time>2021-07-10T14:19:43Z</time>
      </trkpt>
      <trkpt lat="44.12816" lon="6.7342">
        <ele>1670.5197808582</ele>
        <time>2021-07-10T14:19:44Z</time>
      </trkpt>
      <trkpt lat="44.12816" lon="6.73422">
        <ele>1670.5197391087</ele>
        <time>2021-07-10T14:19:45Z</time>
      </trkpt>
      <trkpt lat="44.12815" lon="6.73424">
        <ele>1669.5197086659</ele>
        <time>2021-07-10T14:19:46Z</time>
      </trkpt>
      <trkpt lat="44.12815" lon="6.73426">
        <ele>1669.5196869911</ele>
        <time>2021-07-10T14:19:47Z</time>
      </trkpt>
      <trkpt lat="44.12815" lon="6.73428">
        <ele>1669.5196548431</ele>
        <time>2021-07-10T14:19:48Z</time>
      </trkpt>
      <trkpt lat="44.12815" lon="6.73429">
        <ele>1668.5196245322</ele>
        <time>2021-07-10T14:19:49Z</time>
      </trkpt>
      <trkpt lat="44.12814" lon="6.73431">
        <ele>1668.5196101693</ele>
        <time>2021-07-10T14:19:50Z</time>
      </trkpt>
      <trkpt lat="44.12814" lon="6.73432">
        <ele>1668.5195881133</ele>
        <time>2021-07-10T14:19:51Z</time>
      </trkpt>
      <trkpt lat="44.12814" lon="6.73433">
        <ele>1669.5195720976</ele>
        <time>2021-07-10T14:19:52Z</time>
      </trkpt>
      <trkpt lat="44.12814" lon="6.73435">
        <ele>1669.5195468865</ele>
        <time>2021-07-10T14:19:53Z</time>
      </trkpt>
      <trkpt lat="44.12813" lon="6.73436">
        <ele>1669.5195344428</ele>
        <time>2021-07-10T14:19:54Z</time>
      </trkpt>
      <trkpt lat="44.12813" lon="6.73437">
        <ele>1669.519512753</ele>
        <time>2021-07-10T14:19:55Z</time>
      </trkpt>
      <trkpt lat="44.12813" lon="6.7344">
        <ele>1670.5194741567</ele>
        <time>2021-07-10T14:19:57Z</time>
      </trkpt>
      <trkpt lat="44.12813" lon="6.73441">
        <ele>1669.519460298</ele>
        <time>2021-07-10T14:19:58Z</time>
      </trkpt>
      <trkpt lat="44.12812" lon="6.73442">
        <ele>1669.5194549762</ele>
        <time>2021-07-10T14:19:59Z</time>
      </trkpt>
      <trkpt lat="44.12812" lon="6.73443">
        <ele>1669.5194449887</ele>
        <time>2021-07-10T14:20:00Z</time>
      </trkpt>
      <trkpt lat="44.12812" lon="6.73444">
        <ele>1668.5194252987</ele>
        <time>2021-07-10T14:20:01Z</time>
      </trkpt>
      <trkpt lat="44.12812" lon="6.73445">
        <ele>1668.5193976462</ele>
        <time>2021-07-10T14:20:02Z</time>
      </trkpt>
      <trkpt lat="44.12812" lon="6.73446">
        <ele>1668.519366085</ele>
        <time>2021-07-10T14:20:03Z</time>
      </trkpt>
      <trkpt lat="44.12812" lon="6.73447">
        <ele>1668.5193419488</ele>
        <time>2021-07-10T14:20:04Z</time>
      </trkpt>
      <trkpt lat="44.12812" lon="6.73449">
        <ele>1668.5193223072</ele>
        <time>2021-07-10T14:20:05Z</time>
      </trkpt>
      <trkpt lat="44.12812" lon="6.7345">
        <ele>1668.5193020305</ele>
        <time>2021-07-10T14:20:06Z</time>
      </trkpt>
      <trkpt lat="44.12811" lon="6.73452">
        <ele>1668.5192818323</ele>
        <time>2021-07-10T14:20:07Z</time>
      </trkpt>
      <trkpt lat="44.12811" lon="6.73454">
        <ele>1668.5192658075</ele>
        <time>2021-07-10T14:20:08Z</time>
      </trkpt>
      <trkpt lat="44.1281" lon="6.73456">
        <ele>1667.519247599</ele>
        <time>2021-07-10T14:20:09Z</time>
      </trkpt>
      <trkpt lat="44.1281" lon="6.73457">
        <ele>1668.5192342537</ele>
        <time>2021-07-10T14:20:10Z</time>
      </trkpt>
      <trkpt lat="44.1281" lon="6.73459">
        <ele>1668.5192101452</ele>
        <time>2021-07-10T14:20:11Z</time>
      </trkpt>
      <trkpt lat="44.1281" lon="6.73459">
        <ele>1667.5191944524</ele>
        <time>2021-07-10T14:20:12Z</time>
      </trkpt>
      <trkpt lat="44.12809" lon="6.73461">
        <ele>1666.5191946325</ele>
        <time>2021-07-10T14:20:13Z</time>
      </trkpt>
      <trkpt lat="44.12808" lon="6.73462">
        <ele>1666.5192064993</ele>
        <time>2021-07-10T14:20:14Z</time>
      </trkpt>
      <trkpt lat="44.12807" lon="6.73463">
        <ele>1666.5192093081</ele>
        <time>2021-07-10T14:20:15Z</time>
      </trkpt>
      <trkpt lat="44.12807" lon="6.73464">
        <ele>1665.5191867513</ele>
        <time>2021-07-10T14:20:16Z</time>
      </trkpt>
      <trkpt lat="44.12807" lon="6.73465">
        <ele>1665.519176466</ele>
        <time>2021-07-10T14:20:17Z</time>
      </trkpt>
      <trkpt lat="44.12806" lon="6.73466">
        <ele>1665.5191713438</ele>
        <time>2021-07-10T14:20:18Z</time>
      </trkpt>
      <trkpt lat="44.12806" lon="6.73467">
        <ele>1665.5191670278</ele>
        <time>2021-07-10T14:20:19Z</time>
      </trkpt>
      <trkpt lat="44.12806" lon="6.73469">
        <ele>1665.5191438284</ele>
        <time>2021-07-10T14:20:20Z</time>
      </trkpt>
      <trkpt lat="44.12806" lon="6.7347">
        <ele>1666.5191160908</ele>
        <time>2021-07-10T14:20:21Z</time>
      </trkpt>
      <trkpt lat="44.12806" lon="6.7347">
        <ele>1666.5191160908</ele>
        <time>2021-07-10T14:20:23Z</time>
      </trkpt>
      <trkpt lat="44.12806" lon="6.73472">
        <ele>1664.5190744609</ele>
        <time>2021-07-10T14:20:24Z</time>
      </trkpt>
      <trkpt lat="44.12807" lon="6.73472">
        <ele>1664.5190484613</ele>
        <time>2021-07-10T14:20:30Z</time>
      </trkpt>
      <trkpt lat="44.12808" lon="6.73474">
        <ele>1663.5189462127</ele>
        <time>2021-07-10T14:20:32Z</time>
      </trkpt>
      <trkpt lat="44.12809" lon="6.73475">
        <ele>1662.5189161416</ele>
        <time>2021-07-10T14:20:33Z</time>
      </trkpt>
      <trkpt lat="44.12809" lon="6.73475">
        <ele>1662.5188954471</ele>
        <time>2021-07-10T14:20:36Z</time>
      </trkpt>
      <trkpt lat="44.1281" lon="6.73478">
        <ele>1662.5187851015</ele>
        <time>2021-07-10T14:20:38Z</time>
      </trkpt>
      <trkpt lat="44.12812" lon="6.73479">
        <ele>1661.5187101814</ele>
        <time>2021-07-10T14:20:39Z</time>
      </trkpt>
      <trkpt lat="44.12812" lon="6.73481">
        <ele>1661.5186469587</ele>
        <time>2021-07-10T14:20:41Z</time>
      </trkpt>
      <trkpt lat="44.12812" lon="6.73486">
        <ele>1660.5185703527</ele>
        <time>2021-07-10T14:20:43Z</time>
      </trkpt>
      <trkpt lat="44.12811" lon="6.73488">
        <ele>1659.5185416868</ele>
        <time>2021-07-10T14:20:44Z</time>
      </trkpt>
      <trkpt lat="44.12811" lon="6.73489">
        <ele>1658.518528244</ele>
        <time>2021-07-10T14:20:45Z</time>
      </trkpt>
      <trkpt lat="44.1281" lon="6.73492">
        <ele>1658.5185173407</ele>
        <time>2021-07-10T14:20:47Z</time>
      </trkpt>
      <trkpt lat="44.1281" lon="6.73493">
        <ele>1658.5184999232</ele>
        <time>2021-07-10T14:20:48Z</time>
      </trkpt>
      <trkpt lat="44.12809" lon="6.73495">
        <ele>1657.5184816775</ele>
        <time>2021-07-10T14:20:49Z</time>
      </trkpt>
      <trkpt lat="44.12809" lon="6.73496">
        <ele>1657.5184767211</ele>
        <time>2021-07-10T14:20:50Z</time>
      </trkpt>
      <trkpt lat="44.12808" lon="6.73499">
        <ele>1656.5184669141</ele>
        <time>2021-07-10T14:20:52Z</time>
      </trkpt>
      <trkpt lat="44.12807" lon="6.735">
        <ele>1656.5184374198</ele>
        <time>2021-07-10T14:20:53Z</time>
      </trkpt>
      <trkpt lat="44.12807" lon="6.73502">
        <ele>1656.5184127233</ele>
        <time>2021-07-10T14:20:54Z</time>
      </trkpt>
      <trkpt lat="44.12806" lon="6.73503">
        <ele>1655.518420747</ele>
        <time>2021-07-10T14:20:56Z</time>
      </trkpt>
      <trkpt lat="44.12806" lon="6.73505">
        <ele>1654.5183852896</ele>
        <time>2021-07-10T14:20:58Z</time>
      </trkpt>
      <trkpt lat="44.12806" lon="6.73507">
        <ele>1653.5183679908</ele>
        <time>2021-07-10T14:20:59Z</time>
      </trkpt>
      <trkpt lat="44.12805" lon="6.73508">
        <ele>1654.5183691488</ele>
        <time>2021-07-10T14:21:00Z</time>
      </trkpt>
      <trkpt lat="44.12803" lon="6.7351">
        <ele>1653.5184216129</ele>
        <time>2021-07-10T14:21:02Z</time>
      </trkpt>
      <trkpt lat="44.12802" lon="6.73511">
        <ele>1653.5184367087</ele>
        <time>2021-07-10T14:21:03Z</time>
      </trkpt>
      <trkpt lat="44.12801" lon="6.73512">
        <ele>1653.5184321317</ele>
        <time>2021-07-10T14:21:04Z</time>
      </trkpt>
      <trkpt lat="44.12801" lon="6.73514">
        <ele>1652.5184131158</ele>
        <time>2021-07-10T14:21:06Z</time>
      </trkpt>
      <trkpt lat="44.128" lon="6.73516">
        <ele>1652.5183910755</ele>
        <time>2021-07-10T14:21:07Z</time>
      </trkpt>
      <trkpt lat="44.128" lon="6.73517">
        <ele>1652.5183655715</ele>
        <time>2021-07-10T14:21:08Z</time>
      </trkpt>
      <trkpt lat="44.12801" lon="6.73518">
        <ele>1652.5183264031</ele>
        <time>2021-07-10T14:21:09Z</time>
      </trkpt>
      <trkpt lat="44.12801" lon="6.73519">
        <ele>1652.5182873071</ele>
        <time>2021-07-10T14:21:10Z</time>
      </trkpt>
      <trkpt lat="44.12801" lon="6.7352">
        <ele>1652.5182511005</ele>
        <time>2021-07-10T14:21:11Z</time>
      </trkpt>
      <trkpt lat="44.12802" lon="6.73522">
        <ele>1651.5182032013</ele>
        <time>2021-07-10T14:21:13Z</time>
      </trkpt>
      <trkpt lat="44.12802" lon="6.73523">
        <ele>1651.5181585091</ele>
        <time>2021-07-10T14:21:14Z</time>
      </trkpt>
      <trkpt lat="44.12802" lon="6.73525">
        <ele>1651.5181331391</ele>
        <time>2021-07-10T14:21:15Z</time>
      </trkpt>
      <trkpt lat="44.12801" lon="6.73527">
        <ele>1650.5181142251</ele>
        <time>2021-07-10T14:21:16Z</time>
      </trkpt>
      <trkpt lat="44.128" lon="6.73529">
        <ele>1650.5181117229</ele>
        <time>2021-07-10T14:21:17Z</time>
      </trkpt>
      <trkpt lat="44.128" lon="6.73531">
        <ele>1650.5181151177</ele>
        <time>2021-07-10T14:21:18Z</time>
      </trkpt>
      <trkpt lat="44.12799" lon="6.73532">
        <ele>1650.5181083234</ele>
        <time>2021-07-10T14:21:19Z</time>
      </trkpt>
      <trkpt lat="44.12798" lon="6.73534">
        <ele>1650.5181069618</ele>
        <time>2021-07-10T14:21:20Z</time>
      </trkpt>
      <trkpt lat="44.12797" lon="6.73535">
        <ele>1650.5181099406</ele>
        <time>2021-07-10T14:21:21Z</time>
      </trkpt>
      <trkpt lat="44.12797" lon="6.73536">
        <ele>1650.518112963</ele>
        <time>2021-07-10T14:21:22Z</time>
      </trkpt>
      <trkpt lat="44.12796" lon="6.73537">
        <ele>1650.5181106663</ele>
        <time>2021-07-10T14:21:23Z</time>
      </trkpt>
      <trkpt lat="44.12795" lon="6.73539">
        <ele>1650.5181069382</ele>
        <time>2021-07-10T14:21:24Z</time>
      </trkpt>
      <trkpt lat="44.12795" lon="6.73541">
        <ele>1650.5180925836</ele>
        <time>2021-07-10T14:21:25Z</time>
      </trkpt>
      <trkpt lat="44.12794" lon="6.73542">
        <ele>1650.5180971062</ele>
        <time>2021-07-10T14:21:26Z</time>
      </trkpt>
      <trkpt lat="44.12793" lon="6.73543">
        <ele>1650.5180936282</ele>
        <time>2021-07-10T14:21:27Z</time>
      </trkpt>
      <trkpt lat="44.12793" lon="6.73544">
        <ele>1649.51808346</ele>
        <time>2021-07-10T14:21:28Z</time>
      </trkpt>
      <trkpt lat="44.12792" lon="6.73545">
        <ele>1650.5180918103</ele>
        <time>2021-07-10T14:21:29Z</time>
      </trkpt>
      <trkpt lat="44.12792" lon="6.73545">
        <ele>1650.5180891983</ele>
        <time>2021-07-10T14:21:30Z</time>
      </trkpt>
      <trkpt lat="44.12792" lon="6.73546">
        <ele>1650.5180934123</ele>
        <time>2021-07-10T14:21:31Z</time>
      </trkpt>
      <trkpt lat="44.1279" lon="6.73547">
        <ele>1649.5181259883</ele>
        <time>2021-07-10T14:21:33Z</time>
      </trkpt>
      <trkpt lat="44.1279" lon="6.73548">
        <ele>1648.5181298007</ele>
        <time>2021-07-10T14:21:34Z</time>
      </trkpt>
      <trkpt lat="44.1279" lon="6.73549">
        <ele>1648.5181158091</ele>
        <time>2021-07-10T14:21:37Z</time>
      </trkpt>
      <trkpt lat="44.1279" lon="6.7355">
        <ele>1647.5180871076</ele>
        <time>2021-07-10T14:21:39Z</time>
      </trkpt>
      <trkpt lat="44.12792" lon="6.73549">
        <ele>1647.5180331441</ele>
        <time>2021-07-10T14:21:41Z</time>
      </trkpt>
      <trkpt lat="44.12792" lon="6.73549">
        <ele>1646.5180139848</ele>
        <time>2021-07-10T14:21:42Z</time>
      </trkpt>
      <trkpt lat="44.12793" lon="6.73548">
        <ele>1646.5180028493</ele>
        <time>2021-07-10T14:21:43Z</time>
      </trkpt>
      <trkpt lat="44.12794" lon="6.73548">
        <ele>1646.5179711673</ele>
        <time>2021-07-10T14:21:44Z</time>
      </trkpt>
      <trkpt lat="44.12796" lon="6.73548">
        <ele>1645.517881989</ele>
        <time>2021-07-10T14:21:46Z</time>
      </trkpt>
      <trkpt lat="44.12796" lon="6.73548">
        <ele>1645.5179068188</ele>
        <time>2021-07-10T14:21:49Z</time>
      </trkpt>
      <trkpt lat="44.12796" lon="6.73547">
        <ele>1646.5179135922</ele>
        <time>2021-07-10T14:21:51Z</time>
      </trkpt>
      <trkpt lat="44.12798" lon="6.73545">
        <ele>1646.5178737569</ele>
        <time>2021-07-10T14:21:53Z</time>
      </trkpt>
      <trkpt lat="44.12799" lon="6.73545">
        <ele>1646.5178416184</ele>
        <time>2021-07-10T14:21:54Z</time>
      </trkpt>
      <trkpt lat="44.128" lon="6.73545">
        <ele>1646.5178069834</ele>
        <time>2021-07-10T14:21:55Z</time>
      </trkpt>
      <trkpt lat="44.12801" lon="6.73545">
        <ele>1645.5177620969</ele>
        <time>2021-07-10T14:21:56Z</time>
      </trkpt>
      <trkpt lat="44.12804" lon="6.73545">
        <ele>1645.517669588</ele>
        <time>2021-07-10T14:21:58Z</time>
      </trkpt>
      <trkpt lat="44.12805" lon="6.73545">
        <ele>1645.5176034923</ele>
        <time>2021-07-10T14:21:59Z</time>
      </trkpt>
      <trkpt lat="44.12806" lon="6.73547">
        <ele>1644.5175269445</ele>
        <time>2021-07-10T14:22:00Z</time>
      </trkpt>
      <trkpt lat="44.12806" lon="6.73549">
        <ele>1643.5174880804</ele>
        <time>2021-07-10T14:22:02Z</time>
      </trkpt>
      <trkpt lat="44.12806" lon="6.7355">
        <ele>1643.5174913045</ele>
        <time>2021-07-10T14:22:03Z</time>
      </trkpt>
      <trkpt lat="44.12805" lon="6.73551">
        <ele>1643.5174914743</ele>
        <time>2021-07-10T14:22:04Z</time>
      </trkpt>
      <trkpt lat="44.12805" lon="6.73552">
        <ele>1642.5174799512</ele>
        <time>2021-07-10T14:22:05Z</time>
      </trkpt>
      <trkpt lat="44.12805" lon="6.73552">
        <ele>1641.5174705447</ele>
        <time>2021-07-10T14:22:06Z</time>
      </trkpt>
      <trkpt lat="44.12804" lon="6.73554">
        <ele>1641.5174433337</ele>
        <time>2021-07-10T14:22:07Z</time>
      </trkpt>
      <trkpt lat="44.12804" lon="6.73556">
        <ele>1641.5174164193</ele>
        <time>2021-07-10T14:22:08Z</time>
      </trkpt>
      <trkpt lat="44.12804" lon="6.73557">
        <ele>1640.517410174</ele>
        <time>2021-07-10T14:22:09Z</time>
      </trkpt>
      <trkpt lat="44.12803" lon="6.7356">
        <ele>1639.5173648499</ele>
        <time>2021-07-10T14:22:11Z</time>
      </trkpt>
      <trkpt lat="44.12804" lon="6.73561">
        <ele>1638.5173248473</ele>
        <time>2021-07-10T14:22:12Z</time>
      </trkpt>
      <trkpt lat="44.12805" lon="6.73562">
        <ele>1639.5172551737</ele>
        <time>2021-07-10T14:22:14Z</time>
      </trkpt>
      <trkpt lat="44.12807" lon="6.73563">
        <ele>1640.5171766549</ele>
        <time>2021-07-10T14:22:16Z</time>
      </trkpt>
      <trkpt lat="44.12809" lon="6.73564">
        <ele>1640.517061535</ele>
        <time>2021-07-10T14:22:18Z</time>
      </trkpt>
      <trkpt lat="44.12811" lon="6.73565">
        <ele>1640.5169991243</ele>
        <time>2021-07-10T14:22:19Z</time>
      </trkpt>
      <trkpt lat="44.12812" lon="6.73565">
        <ele>1640.5169459296</ele>
        <time>2021-07-10T14:22:20Z</time>
      </trkpt>
      <trkpt lat="44.12813" lon="6.73566">
        <ele>1639.5168671204</ele>
        <time>2021-07-10T14:22:22Z</time>
      </trkpt>
      <trkpt lat="44.12814" lon="6.73566">
        <ele>1639.5168328157</ele>
        <time>2021-07-10T14:22:23Z</time>
      </trkpt>
      <trkpt lat="44.12815" lon="6.73565">
        <ele>1639.5168155809</ele>
        <time>2021-07-10T14:22:24Z</time>
      </trkpt>
      <trkpt lat="44.12816" lon="6.73565">
        <ele>1639.5167659553</ele>
        <time>2021-07-10T14:22:25Z</time>
      </trkpt>
      <trkpt lat="44.12817" lon="6.73567">
        <ele>1640.5167064969</ele>
        <time>2021-07-10T14:22:26Z</time>
      </trkpt>
      <trkpt lat="44.12818" lon="6.73569">
        <ele>1640.5166348825</ele>
        <time>2021-07-10T14:22:27Z</time>
      </trkpt>
      <trkpt lat="44.12818" lon="6.73571">
        <ele>1639.5165900155</ele>
        <time>2021-07-10T14:22:28Z</time>
      </trkpt>
      <trkpt lat="44.12819" lon="6.73572">
        <ele>1639.5165413166</ele>
        <time>2021-07-10T14:22:29Z</time>
      </trkpt>
      <trkpt lat="44.12819" lon="6.73573">
        <ele>1639.5165006425</ele>
        <time>2021-07-10T14:22:30Z</time>
      </trkpt>
      <trkpt lat="44.1282" lon="6.73574">
        <ele>1638.5164530172</ele>
        <time>2021-07-10T14:22:31Z</time>
      </trkpt>
      <trkpt lat="44.12821" lon="6.73574">
        <ele>1638.5164211944</ele>
        <time>2021-07-10T14:22:33Z</time>
      </trkpt>
      <trkpt lat="44.12821" lon="6.73574">
        <ele>1637.5163989862</ele>
        <time>2021-07-10T14:22:34Z</time>
      </trkpt>
      <trkpt lat="44.12822" lon="6.73575">
        <ele>1638.516359832</ele>
        <time>2021-07-10T14:22:35Z</time>
      </trkpt>
      <trkpt lat="44.12823" lon="6.73575">
        <ele>1637.5163353486</ele>
        <time>2021-07-10T14:22:36Z</time>
      </trkpt>
      <trkpt lat="44.12823" lon="6.73575">
        <ele>1637.5163126941</ele>
        <time>2021-07-10T14:22:38Z</time>
      </trkpt>
      <trkpt lat="44.12825" lon="6.73574">
        <ele>1636.5162585921</ele>
        <time>2021-07-10T14:22:39Z</time>
      </trkpt>
      <trkpt lat="44.12827" lon="6.73573">
        <ele>1636.5161998068</ele>
        <time>2021-07-10T14:22:41Z</time>
      </trkpt>
      <trkpt lat="44.12829" lon="6.73571">
        <ele>1635.5161776037</ele>
        <time>2021-07-10T14:22:43Z</time>
      </trkpt>
      <trkpt lat="44.1283" lon="6.7357">
        <ele>1636.5161820071</ele>
        <time>2021-07-10T14:22:44Z</time>
      </trkpt>
      <trkpt lat="44.1283" lon="6.73569">
        <ele>1636.5161769926</ele>
        <time>2021-07-10T14:22:45Z</time>
      </trkpt>
      <trkpt lat="44.12832" lon="6.73569">
        <ele>1636.5160975782</ele>
        <time>2021-07-10T14:22:47Z</time>
      </trkpt>
      <trkpt lat="44.12833" lon="6.73569">
        <ele>1636.5160474121</ele>
        <time>2021-07-10T14:22:48Z</time>
      </trkpt>
      <trkpt lat="44.12835" lon="6.73569">
        <ele>1636.5159951111</ele>
        <time>2021-07-10T14:22:49Z</time>
      </trkpt>
      <trkpt lat="44.12836" lon="6.73569">
        <ele>1635.5159415661</ele>
        <time>2021-07-10T14:22:50Z</time>
      </trkpt>
      <trkpt lat="44.12839" lon="6.73569">
        <ele>1635.5158417709</ele>
        <time>2021-07-10T14:22:52Z</time>
      </trkpt>
      <trkpt lat="44.1284" lon="6.73568">
        <ele>1635.515816253</ele>
        <time>2021-07-10T14:22:53Z</time>
      </trkpt>
      <trkpt lat="44.12841" lon="6.73568">
        <ele>1635.5157886018</ele>
        <time>2021-07-10T14:22:54Z</time>
      </trkpt>
      <trkpt lat="44.12843" lon="6.73566">
        <ele>1634.515758648</ele>
        <time>2021-07-10T14:22:56Z</time>
      </trkpt>
      <trkpt lat="44.12844" lon="6.73565">
        <ele>1633.515731126</ele>
        <time>2021-07-10T14:22:58Z</time>
      </trkpt>
      <trkpt lat="44.12845" lon="6.73566">
        <ele>1632.5156848875</ele>
        <time>2021-07-10T14:22:59Z</time>
      </trkpt>
      <trkpt lat="44.12845" lon="6.73567">
        <ele>1632.5156570366</ele>
        <time>2021-07-10T14:23:00Z</time>
      </trkpt>
      <trkpt lat="44.12847" lon="6.73567">
        <ele>1631.5155840009</ele>
        <time>2021-07-10T14:23:02Z</time>
      </trkpt>
      <trkpt lat="44.12848" lon="6.73566">
        <ele>1632.5155651334</ele>
        <time>2021-07-10T14:23:03Z</time>
      </trkpt>
      <trkpt lat="44.12848" lon="6.73566">
        <ele>1632.5155465428</ele>
        <time>2021-07-10T14:23:04Z</time>
      </trkpt>
      <trkpt lat="44.1285" lon="6.73567">
        <ele>1632.5154487048</ele>
        <time>2021-07-10T14:23:06Z</time>
      </trkpt>
      <trkpt lat="44.12851" lon="6.73567">
        <ele>1632.5154131017</ele>
        <time>2021-07-10T14:23:08Z</time>
      </trkpt>
      <trkpt lat="44.12852" lon="6.73567">
        <ele>1631.5153845987</ele>
        <time>2021-07-10T14:23:09Z</time>
      </trkpt>
      <trkpt lat="44.12854" lon="6.73567">
        <ele>1631.5153247212</ele>
        <time>2021-07-10T14:23:10Z</time>
      </trkpt>
      <trkpt lat="44.12855" lon="6.73567">
        <ele>1630.5152796258</ele>
        <time>2021-07-10T14:23:11Z</time>
      </trkpt>
      <trkpt lat="44.12856" lon="6.73568">
        <ele>1630.5152307073</ele>
        <time>2021-07-10T14:23:12Z</time>
      </trkpt>
      <trkpt lat="44.12857" lon="6.73568">
        <ele>1630.5151749928</ele>
        <time>2021-07-10T14:23:13Z</time>
      </trkpt>
      <trkpt lat="44.12858" lon="6.73568">
        <ele>1629.5151332442</ele>
        <time>2021-07-10T14:23:14Z</time>
      </trkpt>
      <trkpt lat="44.1286" lon="6.73568">
        <ele>1628.515057791</ele>
        <time>2021-07-10T14:23:16Z</time>
      </trkpt>
      <trkpt lat="44.12862" lon="6.73567">
        <ele>1628.5150121928</ele>
        <time>2021-07-10T14:23:18Z</time>
      </trkpt>
      <trkpt lat="44.12862" lon="6.73567">
        <ele>1627.5149928727</ele>
        <time>2021-07-10T14:23:19Z</time>
      </trkpt>
      <trkpt lat="44.12863" lon="6.73567">
        <ele>1627.5149667121</ele>
        <time>2021-07-10T14:23:20Z</time>
      </trkpt>
      <trkpt lat="44.12863" lon="6.73565">
        <ele>1626.5149899667</ele>
        <time>2021-07-10T14:23:22Z</time>
      </trkpt>
      <trkpt lat="44.12863" lon="6.73565">
        <ele>1626.5149899667</ele>
        <time>2021-07-10T14:23:24Z</time>
      </trkpt>
      <trkpt lat="44.12864" lon="6.73565">
        <ele>1626.5149750381</ele>
        <time>2021-07-10T14:23:25Z</time>
      </trkpt>
      <trkpt lat="44.12867" lon="6.73564">
        <ele>1627.5148879785</ele>
        <time>2021-07-10T14:23:27Z</time>
      </trkpt>
      <trkpt lat="44.12868" lon="6.73565">
        <ele>1626.5148382691</ele>
        <time>2021-07-10T14:23:28Z</time>
      </trkpt>
      <trkpt lat="44.12869" lon="6.73564">
        <ele>1625.5148236476</ele>
        <time>2021-07-10T14:23:29Z</time>
      </trkpt>
      <trkpt lat="44.12869" lon="6.73563">
        <ele>1624.5148140012</ele>
        <time>2021-07-10T14:23:30Z</time>
      </trkpt>
      <trkpt lat="44.12871" lon="6.73562">
        <ele>1624.5148007762</ele>
        <time>2021-07-10T14:23:31Z</time>
      </trkpt>
      <trkpt lat="44.12871" lon="6.73561">
        <ele>1623.5147955793</ele>
        <time>2021-07-10T14:23:32Z</time>
      </trkpt>
      <trkpt lat="44.12872" lon="6.7356">
        <ele>1623.5147795835</ele>
        <time>2021-07-10T14:23:33Z</time>
      </trkpt>
      <trkpt lat="44.12873" lon="6.73559">
        <ele>1623.5147439601</ele>
        <time>2021-07-10T14:23:34Z</time>
      </trkpt>
      <trkpt lat="44.12875" lon="6.73559">
        <ele>1623.5146967834</ele>
        <time>2021-07-10T14:23:35Z</time>
      </trkpt>
      <trkpt lat="44.12875" lon="6.73559">
        <ele>1623.5146722159</ele>
        <time>2021-07-10T14:23:36Z</time>
      </trkpt>
      <trkpt lat="44.12877" lon="6.73559">
        <ele>1623.5146228033</ele>
        <time>2021-07-10T14:23:37Z</time>
      </trkpt>
      <trkpt lat="44.12878" lon="6.73559">
        <ele>1623.5145736628</ele>
        <time>2021-07-10T14:23:38Z</time>
      </trkpt>
      <trkpt lat="44.12879" lon="6.73558">
        <ele>1623.5145383574</ele>
        <time>2021-07-10T14:23:39Z</time>
      </trkpt>
      <trkpt lat="44.1288" lon="6.73557">
        <ele>1623.5145230336</ele>
        <time>2021-07-10T14:23:40Z</time>
      </trkpt>
      <trkpt lat="44.12882" lon="6.73555">
        <ele>1622.5145143425</ele>
        <time>2021-07-10T14:23:41Z</time>
      </trkpt>
      <trkpt lat="44.12883" lon="6.73554">
        <ele>1621.5144969451</ele>
        <time>2021-07-10T14:23:42Z</time>
      </trkpt>
      <trkpt lat="44.12884" lon="6.73553">
        <ele>1620.5144826701</ele>
        <time>2021-07-10T14:23:43Z</time>
      </trkpt>
      <trkpt lat="44.12884" lon="6.73553">
        <ele>1620.5144647506</ele>
        <time>2021-07-10T14:23:44Z</time>
      </trkpt>
      <trkpt lat="44.12885" lon="6.73552">
        <ele>1620.5144614601</ele>
        <time>2021-07-10T14:23:50Z</time>
      </trkpt>
      <trkpt lat="44.12886" lon="6.73552">
        <ele>1620.5144275181</ele>
        <time>2021-07-10T14:24:02Z</time>
      </trkpt>
      <trkpt lat="44.12886" lon="6.73552">
        <ele>1620.5144234144</ele>
        <time>2021-07-10T14:24:03Z</time>
      </trkpt>
      <trkpt lat="44.12887" lon="6.73553">
        <ele>1621.5143684174</ele>
        <time>2021-07-10T14:24:04Z</time>
      </trkpt>
      <trkpt lat="44.12888" lon="6.73555">
        <ele>1621.514289625</ele>
        <time>2021-07-10T14:24:06Z</time>
      </trkpt>
      <trkpt lat="44.12888" lon="6.73557">
        <ele>1621.5142417948</ele>
        <time>2021-07-10T14:24:08Z</time>
      </trkpt>
      <trkpt lat="44.12888" lon="6.73558">
        <ele>1621.5142216764</ele>
        <time>2021-07-10T14:24:09Z</time>
      </trkpt>
      <trkpt lat="44.12888" lon="6.73559">
        <ele>1621.5142001362</ele>
        <time>2021-07-10T14:24:10Z</time>
      </trkpt>
      <trkpt lat="44.12888" lon="6.73561">
        <ele>1619.5141521523</ele>
        <time>2021-07-10T14:24:12Z</time>
      </trkpt>
      <trkpt lat="44.12888" lon="6.73561">
        <ele>1620.5141326558</ele>
        <time>2021-07-10T14:24:13Z</time>
      </trkpt>
      <trkpt lat="44.12888" lon="6.73563">
        <ele>1620.5141175809</ele>
        <time>2021-07-10T14:24:14Z</time>
      </trkpt>
      <trkpt lat="44.12888" lon="6.73564">
        <ele>1620.5141030912</ele>
        <time>2021-07-10T14:24:15Z</time>
      </trkpt>
      <trkpt lat="44.12887" lon="6.73566">
        <ele>1619.5141035988</ele>
        <time>2021-07-10T14:24:17Z</time>
      </trkpt>
      <trkpt lat="44.12887" lon="6.73568">
        <ele>1620.5140778194</ele>
        <time>2021-07-10T14:24:18Z</time>
      </trkpt>
      <trkpt lat="44.12886" lon="6.73569">
        <ele>1618.514050391</ele>
        <time>2021-07-10T14:24:19Z</time>
      </trkpt>
      <trkpt lat="44.12885" lon="6.73571">
        <ele>1617.5140551236</ele>
        <time>2021-07-10T14:24:21Z</time>
      </trkpt>
      <trkpt lat="44.12885" lon="6.73572">
        <ele>1615.514025142</ele>
        <time>2021-07-10T14:24:23Z</time>
      </trkpt>
      <trkpt lat="44.12886" lon="6.73574">
        <ele>1614.5139846787</ele>
        <time>2021-07-10T14:24:24Z</time>
      </trkpt>
      <trkpt lat="44.12886" lon="6.73575">
        <ele>1614.5139360004</ele>
        <time>2021-07-10T14:24:25Z</time>
      </trkpt>
      <trkpt lat="44.12886" lon="6.73575">
        <ele>1614.5139360004</ele>
        <time>2021-07-10T14:24:26Z</time>
      </trkpt>
      <trkpt lat="44.12887" lon="6.73577">
        <ele>1614.5138508967</ele>
        <time>2021-07-10T14:24:28Z</time>
      </trkpt>
      <trkpt lat="44.12888" lon="6.73578">
        <ele>1615.5138116721</ele>
        <time>2021-07-10T14:24:29Z</time>
      </trkpt>
      <trkpt lat="44.12888" lon="6.73578">
        <ele>1616.5137943212</ele>
        <time>2021-07-10T14:24:30Z</time>
      </trkpt>
      <trkpt lat="44.12889" lon="6.73578">
        <ele>1616.5137546546</ele>
        <time>2021-07-10T14:24:32Z</time>
      </trkpt>
      <trkpt lat="44.1289" lon="6.73578">
        <ele>1615.5137242755</ele>
        <time>2021-07-10T14:24:33Z</time>
      </trkpt>
      <trkpt lat="44.12891" lon="6.73578">
        <ele>1615.5136914977</ele>
        <time>2021-07-10T14:24:34Z</time>
      </trkpt>
      <trkpt lat="44.12892" lon="6.73578">
        <ele>1615.5136636317</ele>
        <time>2021-07-10T14:24:35Z</time>
      </trkpt>
      <trkpt lat="44.12893" lon="6.73578">
        <ele>1614.5136276921</ele>
        <time>2021-07-10T14:24:36Z</time>
      </trkpt>
      <trkpt lat="44.12894" lon="6.73577">
        <ele>1614.5136006025</ele>
        <time>2021-07-10T14:24:37Z</time>
      </trkpt>
      <trkpt lat="44.12895" lon="6.73577">
        <ele>1615.5135754167</ele>
        <time>2021-07-10T14:24:38Z</time>
      </trkpt>
      <trkpt lat="44.12896" lon="6.73576">
        <ele>1615.5135633301</ele>
        <time>2021-07-10T14:24:39Z</time>
      </trkpt>
      <trkpt lat="44.12896" lon="6.73575">
        <ele>1615.5135559244</ele>
        <time>2021-07-10T14:24:40Z</time>
      </trkpt>
      <trkpt lat="44.12897" lon="6.73575">
        <ele>1614.5135246021</ele>
        <time>2021-07-10T14:24:41Z</time>
      </trkpt>
      <trkpt lat="44.12898" lon="6.73575">
        <ele>1614.5134814943</ele>
        <time>2021-07-10T14:24:42Z</time>
      </trkpt>
      <trkpt lat="44.12899" lon="6.73575">
        <ele>1613.5134411451</ele>
        <time>2021-07-10T14:24:43Z</time>
      </trkpt>
      <trkpt lat="44.129" lon="6.73576">
        <ele>1613.5133924998</ele>
        <time>2021-07-10T14:24:44Z</time>
      </trkpt>
      <trkpt lat="44.12901" lon="6.73575">
        <ele>1612.5133530679</ele>
        <time>2021-07-10T14:24:45Z</time>
      </trkpt>
      <trkpt lat="44.12901" lon="6.73575">
        <ele>1612.5133530679</ele>
        <time>2021-07-10T14:24:47Z</time>
      </trkpt>
      <trkpt lat="44.12904" lon="6.73574">
        <ele>1610.5132885475</ele>
        <time>2021-07-10T14:24:48Z</time>
      </trkpt>
      <trkpt lat="44.12905" lon="6.73574">
        <ele>1609.5132598361</ele>
        <time>2021-07-10T14:24:49Z</time>
      </trkpt>
      <trkpt lat="44.12905" lon="6.73574">
        <ele>1609.5132369578</ele>
        <time>2021-07-10T14:24:50Z</time>
      </trkpt>
      <trkpt lat="44.12907" lon="6.73573">
        <ele>1609.5131928234</ele>
        <time>2021-07-10T14:24:51Z</time>
      </trkpt>
      <trkpt lat="44.12909" lon="6.73572">
        <ele>1609.5131497902</ele>
        <time>2021-07-10T14:24:52Z</time>
      </trkpt>
      <trkpt lat="44.1291" lon="6.73571">
        <ele>1608.5131199415</ele>
        <time>2021-07-10T14:24:53Z</time>
      </trkpt>
      <trkpt lat="44.12911" lon="6.7357">
        <ele>1608.5130864457</ele>
        <time>2021-07-10T14:24:54Z</time>
      </trkpt>
      <trkpt lat="44.12912" lon="6.73569">
        <ele>1607.5130693694</ele>
        <time>2021-07-10T14:24:55Z</time>
      </trkpt>
      <trkpt lat="44.12914" lon="6.73567">
        <ele>1607.5130586933</ele>
        <time>2021-07-10T14:24:56Z</time>
      </trkpt>
      <trkpt lat="44.12915" lon="6.73566">
        <ele>1606.5130441589</ele>
        <time>2021-07-10T14:24:57Z</time>
      </trkpt>
      <trkpt lat="44.12916" lon="6.73565">
        <ele>1606.5130131138</ele>
        <time>2021-07-10T14:24:58Z</time>
      </trkpt>
      <trkpt lat="44.12917" lon="6.73564">
        <ele>1606.5130006095</ele>
        <time>2021-07-10T14:24:59Z</time>
      </trkpt>
      <trkpt lat="44.12919" lon="6.73562">
        <ele>1606.5129525726</ele>
        <time>2021-07-10T14:25:01Z</time>
      </trkpt>
      <trkpt lat="44.12922" lon="6.7356">
        <ele>1606.5128946362</ele>
        <time>2021-07-10T14:25:03Z</time>
      </trkpt>
      <trkpt lat="44.12923" lon="6.73559">
        <ele>1605.512879347</ele>
        <time>2021-07-10T14:25:04Z</time>
      </trkpt>
      <trkpt lat="44.12924" lon="6.73558">
        <ele>1604.512858767</ele>
        <time>2021-07-10T14:25:05Z</time>
      </trkpt>
      <trkpt lat="44.12925" lon="6.73556">
        <ele>1604.5128624277</ele>
        <time>2021-07-10T14:25:07Z</time>
      </trkpt>
      <trkpt lat="44.12926" lon="6.73555">
        <ele>1604.5128517084</ele>
        <time>2021-07-10T14:25:08Z</time>
      </trkpt>
      <trkpt lat="44.12927" lon="6.73554">
        <ele>1604.5128413614</ele>
        <time>2021-07-10T14:25:09Z</time>
      </trkpt>
      <trkpt lat="44.12928" lon="6.73553">
        <ele>1604.5128208323</ele>
        <time>2021-07-10T14:25:10Z</time>
      </trkpt>
      <trkpt lat="44.1293" lon="6.73551">
        <ele>1604.5127988379</ele>
        <time>2021-07-10T14:25:12Z</time>
      </trkpt>
      <trkpt lat="44.1293" lon="6.7355">
        <ele>1604.5127830338</ele>
        <time>2021-07-10T14:25:13Z</time>
      </trkpt>
      <trkpt lat="44.12931" lon="6.73549">
        <ele>1604.5127880364</ele>
        <time>2021-07-10T14:25:14Z</time>
      </trkpt>
      <trkpt lat="44.12932" lon="6.73547">
        <ele>1604.5127774599</ele>
        <time>2021-07-10T14:25:16Z</time>
      </trkpt>
      <trkpt lat="44.12933" lon="6.73543">
        <ele>1604.5128109642</ele>
        <time>2021-07-10T14:25:18Z</time>
      </trkpt>
      <trkpt lat="44.12934" lon="6.73542">
        <ele>1604.5128077459</ele>
        <time>2021-07-10T14:25:19Z</time>
      </trkpt>
      <trkpt lat="44.12935" lon="6.73541">
        <ele>1604.5128183523</ele>
        <time>2021-07-10T14:25:20Z</time>
      </trkpt>
      <trkpt lat="44.12937" lon="6.73538">
        <ele>1604.5127875133</ele>
        <time>2021-07-10T14:25:22Z</time>
      </trkpt>
      <trkpt lat="44.12938" lon="6.73537">
        <ele>1604.5127880649</ele>
        <time>2021-07-10T14:25:23Z</time>
      </trkpt>
      <trkpt lat="44.12938" lon="6.73535">
        <ele>1605.5127905566</ele>
        <time>2021-07-10T14:25:24Z</time>
      </trkpt>
      <trkpt lat="44.12939" lon="6.73533">
        <ele>1604.5128081993</ele>
        <time>2021-07-10T14:25:25Z</time>
      </trkpt>
      <trkpt lat="44.12941" lon="6.73531">
        <ele>1604.5127837296</ele>
        <time>2021-07-10T14:25:27Z</time>
      </trkpt>
      <trkpt lat="44.12942" lon="6.7353">
        <ele>1604.5127682669</ele>
        <time>2021-07-10T14:25:28Z</time>
      </trkpt>
      <trkpt lat="44.12943" lon="6.73528">
        <ele>1604.5127733031</ele>
        <time>2021-07-10T14:25:29Z</time>
      </trkpt>
      <trkpt lat="44.12943" lon="6.73526">
        <ele>1604.5127903502</ele>
        <time>2021-07-10T14:25:30Z</time>
      </trkpt>
      <trkpt lat="44.12945" lon="6.73523">
        <ele>1605.5128006309</ele>
        <time>2021-07-10T14:25:32Z</time>
      </trkpt>
      <trkpt lat="44.12945" lon="6.73522">
        <ele>1605.5127982168</ele>
        <time>2021-07-10T14:25:33Z</time>
      </trkpt>
      <trkpt lat="44.12946" lon="6.73521">
        <ele>1604.5127840815</ele>
        <time>2021-07-10T14:25:34Z</time>
      </trkpt>
      <trkpt lat="44.12947" lon="6.7352">
        <ele>1605.5127627254</ele>
        <time>2021-07-10T14:25:35Z</time>
      </trkpt>
      <trkpt lat="44.12949" lon="6.7352">
        <ele>1605.5127325212</ele>
        <time>2021-07-10T14:25:36Z</time>
      </trkpt>
      <trkpt lat="44.1295" lon="6.73519">
        <ele>1605.5127168184</ele>
        <time>2021-07-10T14:25:37Z</time>
      </trkpt>
      <trkpt lat="44.12951" lon="6.73518">
        <ele>1605.5126938163</ele>
        <time>2021-07-10T14:25:38Z</time>
      </trkpt>
      <trkpt lat="44.12952" lon="6.73517">
        <ele>1606.5126616436</ele>
        <time>2021-07-10T14:25:39Z</time>
      </trkpt>
      <trkpt lat="44.12952" lon="6.73517">
        <ele>1605.5126409153</ele>
        <time>2021-07-10T14:25:40Z</time>
      </trkpt>
      <trkpt lat="44.12954" lon="6.73516">
        <ele>1605.512625281</ele>
        <time>2021-07-10T14:25:42Z</time>
      </trkpt>
      <trkpt lat="44.12954" lon="6.73515">
        <ele>1605.5126149868</ele>
        <time>2021-07-10T14:25:43Z</time>
      </trkpt>
      <trkpt lat="44.12955" lon="6.73515">
        <ele>1604.51258055</ele>
        <time>2021-07-10T14:25:44Z</time>
      </trkpt>
      <trkpt lat="44.12956" lon="6.73514">
        <ele>1605.5125427169</ele>
        <time>2021-07-10T14:25:45Z</time>
      </trkpt>
      <trkpt lat="44.12958" lon="6.73514">
        <ele>1605.5125111823</ele>
        <time>2021-07-10T14:25:46Z</time>
      </trkpt>
      <trkpt lat="44.12959" lon="6.73513">
        <ele>1605.5124815141</ele>
        <time>2021-07-10T14:25:47Z</time>
      </trkpt>
      <trkpt lat="44.1296" lon="6.73512">
        <ele>1605.5124550161</ele>
        <time>2021-07-10T14:25:48Z</time>
      </trkpt>
      <trkpt lat="44.12961" lon="6.73512">
        <ele>1605.5124354483</ele>
        <time>2021-07-10T14:25:49Z</time>
      </trkpt>
      <trkpt lat="44.12962" lon="6.73511">
        <ele>1605.5124148434</ele>
        <time>2021-07-10T14:25:50Z</time>
      </trkpt>
      <trkpt lat="44.12962" lon="6.73511">
        <ele>1605.5124148434</ele>
        <time>2021-07-10T14:25:51Z</time>
      </trkpt>
      <trkpt lat="44.12963" lon="6.7351">
        <ele>1605.5123956302</ele>
        <time>2021-07-10T14:25:52Z</time>
      </trkpt>
      <trkpt lat="44.12964" lon="6.73509">
        <ele>1605.5123773958</ele>
        <time>2021-07-10T14:25:53Z</time>
      </trkpt>
      <trkpt lat="44.12966" lon="6.73509">
        <ele>1605.512322698</ele>
        <time>2021-07-10T14:25:54Z</time>
      </trkpt>
      <trkpt lat="44.12967" lon="6.73508">
        <ele>1605.5122871933</ele>
        <time>2021-07-10T14:25:55Z</time>
      </trkpt>
      <trkpt lat="44.12968" lon="6.73508">
        <ele>1604.5122490946</ele>
        <time>2021-07-10T14:25:56Z</time>
      </trkpt>
      <trkpt lat="44.1297" lon="6.73506">
        <ele>1604.5122165356</ele>
        <time>2021-07-10T14:25:58Z</time>
      </trkpt>
      <trkpt lat="44.1297" lon="6.73506">
        <ele>1604.5121930946</ele>
        <time>2021-07-10T14:25:59Z</time>
      </trkpt>
      <trkpt lat="44.12971" lon="6.73505">
        <ele>1604.5121817874</ele>
        <time>2021-07-10T14:26:00Z</time>
      </trkpt>
      <trkpt lat="44.12973" lon="6.73504">
        <ele>1603.5121250546</ele>
        <time>2021-07-10T14:26:02Z</time>
      </trkpt>
      <trkpt lat="44.12974" lon="6.73503">
        <ele>1603.5121348151</ele>
        <time>2021-07-10T14:26:03Z</time>
      </trkpt>
      <trkpt lat="44.12974" lon="6.73502">
        <ele>1603.5121242083</ele>
        <time>2021-07-10T14:26:04Z</time>
      </trkpt>
      <trkpt lat="44.12976" lon="6.73501">
        <ele>1603.5120988203</ele>
        <time>2021-07-10T14:26:05Z</time>
      </trkpt>
      <trkpt lat="44.12978" lon="6.735">
        <ele>1604.5120344823</ele>
        <time>2021-07-10T14:26:07Z</time>
      </trkpt>
      <trkpt lat="44.12979" lon="6.73499">
        <ele>1604.5119905599</ele>
        <time>2021-07-10T14:26:08Z</time>
      </trkpt>
      <trkpt lat="44.12981" lon="6.73498">
        <ele>1604.5119595106</ele>
        <time>2021-07-10T14:26:09Z</time>
      </trkpt>
      <trkpt lat="44.12982" lon="6.73498">
        <ele>1604.5119060521</ele>
        <time>2021-07-10T14:26:10Z</time>
      </trkpt>
      <trkpt lat="44.12985" lon="6.73497">
        <ele>1604.5118202348</ele>
        <time>2021-07-10T14:26:12Z</time>
      </trkpt>
      <trkpt lat="44.12987" lon="6.73496">
        <ele>1604.5117938092</ele>
        <time>2021-07-10T14:26:13Z</time>
      </trkpt>
      <trkpt lat="44.12988" lon="6.73495">
        <ele>1604.5117637488</ele>
        <time>2021-07-10T14:26:14Z</time>
      </trkpt>
      <trkpt lat="44.12989" lon="6.73494">
        <ele>1604.5117357479</ele>
        <time>2021-07-10T14:26:15Z</time>
      </trkpt>
      <trkpt lat="44.1299" lon="6.73493">
        <ele>1603.5117097376</ele>
        <time>2021-07-10T14:26:16Z</time>
      </trkpt>
      <trkpt lat="44.12992" lon="6.73492">
        <ele>1603.5116722709</ele>
        <time>2021-07-10T14:26:17Z</time>
      </trkpt>
      <trkpt lat="44.12993" lon="6.73491">
        <ele>1603.5116360993</ele>
        <time>2021-07-10T14:26:18Z</time>
      </trkpt>
      <trkpt lat="44.12994" lon="6.7349">
        <ele>1603.5116396293</ele>
        <time>2021-07-10T14:26:19Z</time>
      </trkpt>
      <trkpt lat="44.12995" lon="6.73488">
        <ele>1602.5116422986</ele>
        <time>2021-07-10T14:26:20Z</time>
      </trkpt>
      <trkpt lat="44.12996" lon="6.73487">
        <ele>1602.5116341046</ele>
        <time>2021-07-10T14:26:21Z</time>
      </trkpt>
      <trkpt lat="44.12997" lon="6.73486">
        <ele>1602.5116066216</ele>
        <time>2021-07-10T14:26:22Z</time>
      </trkpt>
      <trkpt lat="44.12998" lon="6.73485">
        <ele>1602.5115911227</ele>
        <time>2021-07-10T14:26:23Z</time>
      </trkpt>
      <trkpt lat="44.12999" lon="6.73484">
        <ele>1602.5115753559</ele>
        <time>2021-07-10T14:26:24Z</time>
      </trkpt>
      <trkpt lat="44.13" lon="6.73483">
        <ele>1602.5115585458</ele>
        <time>2021-07-10T14:26:25Z</time>
      </trkpt>
      <trkpt lat="44.13001" lon="6.73482">
        <ele>1602.511551957</ele>
        <time>2021-07-10T14:26:26Z</time>
      </trkpt>
      <trkpt lat="44.13002" lon="6.73481">
        <ele>1601.5115494373</ele>
        <time>2021-07-10T14:26:27Z</time>
      </trkpt>
      <trkpt lat="44.13002" lon="6.73479">
        <ele>1601.5115449416</ele>
        <time>2021-07-10T14:26:28Z</time>
      </trkpt>
      <trkpt lat="44.13004" lon="6.73478">
        <ele>1601.5115073669</ele>
        <time>2021-07-10T14:26:29Z</time>
      </trkpt>
      <trkpt lat="44.13007" lon="6.73475">
        <ele>1601.5114489685</ele>
        <time>2021-07-10T14:26:31Z</time>
      </trkpt>
      <trkpt lat="44.13009" lon="6.73473">
        <ele>1601.5114154574</ele>
        <time>2021-07-10T14:26:33Z</time>
      </trkpt>
      <trkpt lat="44.13011" lon="6.73471">
        <ele>1601.5113946527</ele>
        <time>2021-07-10T14:26:34Z</time>
      </trkpt>
      <trkpt lat="44.13012" lon="6.7347">
        <ele>1600.5113768795</ele>
        <time>2021-07-10T14:26:35Z</time>
      </trkpt>
      <trkpt lat="44.13013" lon="6.73469">
        <ele>1600.5113465591</ele>
        <time>2021-07-10T14:26:36Z</time>
      </trkpt>
      <trkpt lat="44.13014" lon="6.73468">
        <ele>1600.5113192081</ele>
        <time>2021-07-10T14:26:37Z</time>
      </trkpt>
      <trkpt lat="44.13016" lon="6.73468">
        <ele>1601.5112794444</ele>
        <time>2021-07-10T14:26:38Z</time>
      </trkpt>
      <trkpt lat="44.13017" lon="6.73467">
        <ele>1600.5112449425</ele>
        <time>2021-07-10T14:26:39Z</time>
      </trkpt>
      <trkpt lat="44.13018" lon="6.73466">
        <ele>1600.5112468449</ele>
        <time>2021-07-10T14:26:40Z</time>
      </trkpt>
      <trkpt lat="44.1302" lon="6.73464">
        <ele>1600.5112263279</ele>
        <time>2021-07-10T14:26:42Z</time>
      </trkpt>
      <trkpt lat="44.13021" lon="6.73462">
        <ele>1601.5112135882</ele>
        <time>2021-07-10T14:26:43Z</time>
      </trkpt>
      <trkpt lat="44.13022" lon="6.73461">
        <ele>1601.5111902622</ele>
        <time>2021-07-10T14:26:44Z</time>
      </trkpt>
      <trkpt lat="44.13023" lon="6.7346">
        <ele>1601.5111799446</ele>
        <time>2021-07-10T14:26:45Z</time>
      </trkpt>
      <trkpt lat="44.13023" lon="6.73458">
        <ele>1600.5111900952</ele>
        <time>2021-07-10T14:26:46Z</time>
      </trkpt>
      <trkpt lat="44.13024" lon="6.73457">
        <ele>1600.5111909388</ele>
        <time>2021-07-10T14:26:47Z</time>
      </trkpt>
      <trkpt lat="44.13025" lon="6.73456">
        <ele>1600.5111822051</ele>
        <time>2021-07-10T14:26:48Z</time>
      </trkpt>
      <trkpt lat="44.13026" lon="6.73455">
        <ele>1599.5111601584</ele>
        <time>2021-07-10T14:26:49Z</time>
      </trkpt>
      <trkpt lat="44.13027" lon="6.73454">
        <ele>1599.5111550472</ele>
        <time>2021-07-10T14:26:50Z</time>
      </trkpt>
      <trkpt lat="44.13028" lon="6.73452">
        <ele>1599.5111547616</ele>
        <time>2021-07-10T14:26:51Z</time>
      </trkpt>
      <trkpt lat="44.13029" lon="6.73451">
        <ele>1599.5111388609</ele>
        <time>2021-07-10T14:26:52Z</time>
      </trkpt>
      <trkpt lat="44.1303" lon="6.73449">
        <ele>1598.5111299733</ele>
        <time>2021-07-10T14:26:53Z</time>
      </trkpt>
      <trkpt lat="44.13031" lon="6.73447">
        <ele>1598.5111194848</ele>
        <time>2021-07-10T14:26:54Z</time>
      </trkpt>
      <trkpt lat="44.13033" lon="6.73445">
        <ele>1598.5111187036</ele>
        <time>2021-07-10T14:26:55Z</time>
      </trkpt>
      <trkpt lat="44.13034" lon="6.73443">
        <ele>1597.5111202841</ele>
        <time>2021-07-10T14:26:56Z</time>
      </trkpt>
      <trkpt lat="44.13035" lon="6.73442">
        <ele>1597.5110852697</ele>
        <time>2021-07-10T14:26:57Z</time>
      </trkpt>
      <trkpt lat="44.13037" lon="6.7344">
        <ele>1597.511071158</ele>
        <time>2021-07-10T14:26:58Z</time>
      </trkpt>
      <trkpt lat="44.13037" lon="6.73439">
        <ele>1596.5110724537</ele>
        <time>2021-07-10T14:26:59Z</time>
      </trkpt>
      <trkpt lat="44.13038" lon="6.73437">
        <ele>1596.5110832427</ele>
        <time>2021-07-10T14:27:00Z</time>
      </trkpt>
      <trkpt lat="44.13039" lon="6.73435">
        <ele>1596.5110900649</ele>
        <time>2021-07-10T14:27:01Z</time>
      </trkpt>
      <trkpt lat="44.1304" lon="6.73433">
        <ele>1596.5110788253</ele>
        <time>2021-07-10T14:27:02Z</time>
      </trkpt>
      <trkpt lat="44.13041" lon="6.73432">
        <ele>1595.5110725198</ele>
        <time>2021-07-10T14:27:03Z</time>
      </trkpt>
      <trkpt lat="44.13042" lon="6.7343">
        <ele>1594.5110759529</ele>
        <time>2021-07-10T14:27:04Z</time>
      </trkpt>
      <trkpt lat="44.13044" lon="6.73429">
        <ele>1594.5110484537</ele>
        <time>2021-07-10T14:27:05Z</time>
      </trkpt>
      <trkpt lat="44.13046" lon="6.73427">
        <ele>1593.5110028057</ele>
        <time>2021-07-10T14:27:07Z</time>
      </trkpt>
      <trkpt lat="44.13047" lon="6.73425">
        <ele>1592.5109868846</ele>
        <time>2021-07-10T14:27:08Z</time>
      </trkpt>
      <trkpt lat="44.13048" lon="6.73424">
        <ele>1591.5109745505</ele>
        <time>2021-07-10T14:27:09Z</time>
      </trkpt>
      <trkpt lat="44.13049" lon="6.73422">
        <ele>1590.5110040042</ele>
        <time>2021-07-10T14:27:11Z</time>
      </trkpt>
      <trkpt lat="44.1305" lon="6.73419">
        <ele>1588.5110309562</ele>
        <time>2021-07-10T14:27:13Z</time>
      </trkpt>
      <trkpt lat="44.1305" lon="6.73417">
        <ele>1587.5110612533</ele>
        <time>2021-07-10T14:27:14Z</time>
      </trkpt>
      <trkpt lat="44.13051" lon="6.73416">
        <ele>1586.5110577676</ele>
        <time>2021-07-10T14:27:15Z</time>
      </trkpt>
      <trkpt lat="44.13053" lon="6.73413">
        <ele>1585.5110450781</ele>
        <time>2021-07-10T14:27:17Z</time>
      </trkpt>
      <trkpt lat="44.13054" lon="6.73411">
        <ele>1585.5110345385</ele>
        <time>2021-07-10T14:27:18Z</time>
      </trkpt>
      <trkpt lat="44.13054" lon="6.7341">
        <ele>1585.5110279361</ele>
        <time>2021-07-10T14:27:19Z</time>
      </trkpt>
      <trkpt lat="44.13056" lon="6.73407">
        <ele>1583.5110472021</ele>
        <time>2021-07-10T14:27:21Z</time>
      </trkpt>
      <trkpt lat="44.13056" lon="6.73405">
        <ele>1582.5110620287</ele>
        <time>2021-07-10T14:27:22Z</time>
      </trkpt>
      <trkpt lat="44.13057" lon="6.73404">
        <ele>1582.5110568532</ele>
        <time>2021-07-10T14:27:23Z</time>
      </trkpt>
      <trkpt lat="44.13058" lon="6.73402">
        <ele>1582.5110729057</ele>
        <time>2021-07-10T14:27:24Z</time>
      </trkpt>
      <trkpt lat="44.13058" lon="6.73401">
        <ele>1581.5110811168</ele>
        <time>2021-07-10T14:27:25Z</time>
      </trkpt>
      <trkpt lat="44.13059" lon="6.734">
        <ele>1581.5110934896</ele>
        <time>2021-07-10T14:27:26Z</time>
      </trkpt>
      <trkpt lat="44.13059" lon="6.73397">
        <ele>1580.5111204959</ele>
        <time>2021-07-10T14:27:27Z</time>
      </trkpt>
      <trkpt lat="44.1306" lon="6.73396">
        <ele>1580.5111356026</ele>
        <time>2021-07-10T14:27:28Z</time>
      </trkpt>
      <trkpt lat="44.1306" lon="6.73395">
        <ele>1580.51113696</ele>
        <time>2021-07-10T14:27:29Z</time>
      </trkpt>
      <trkpt lat="44.13061" lon="6.73393">
        <ele>1579.5111366282</ele>
        <time>2021-07-10T14:27:30Z</time>
      </trkpt>
      <trkpt lat="44.13062" lon="6.73392">
        <ele>1578.5111501166</ele>
        <time>2021-07-10T14:27:31Z</time>
      </trkpt>
      <trkpt lat="44.13063" lon="6.7339">
        <ele>1578.5111606385</ele>
        <time>2021-07-10T14:27:33Z</time>
      </trkpt>
      <trkpt lat="44.13063" lon="6.73388">
        <ele>1577.5111839894</ele>
        <time>2021-07-10T14:27:34Z</time>
      </trkpt>
      <trkpt lat="44.13063" lon="6.73387">
        <ele>1577.5111857026</ele>
        <time>2021-07-10T14:27:35Z</time>
      </trkpt>
      <trkpt lat="44.13064" lon="6.73384">
        <ele>1577.5112082169</ele>
        <time>2021-07-10T14:27:37Z</time>
      </trkpt>
      <trkpt lat="44.13065" lon="6.73383">
        <ele>1577.5112286766</ele>
        <time>2021-07-10T14:27:38Z</time>
      </trkpt>
      <trkpt lat="44.13065" lon="6.73381">
        <ele>1577.5112471924</ele>
        <time>2021-07-10T14:27:39Z</time>
      </trkpt>
      <trkpt lat="44.13065" lon="6.73381">
        <ele>1578.5112443234</ele>
        <time>2021-07-10T14:27:42Z</time>
      </trkpt>
      <trkpt lat="44.13065" lon="6.7338">
        <ele>1577.5112526507</ele>
        <time>2021-07-10T14:27:43Z</time>
      </trkpt>
      <trkpt lat="44.13066" lon="6.7338">
        <ele>1578.51124555</ele>
        <time>2021-07-10T14:27:44Z</time>
      </trkpt>
      <trkpt lat="44.13066" lon="6.73379">
        <ele>1579.5112363289</ele>
        <time>2021-07-10T14:27:45Z</time>
      </trkpt>
      <trkpt lat="44.13067" lon="6.73379">
        <ele>1579.5112152853</ele>
        <time>2021-07-10T14:27:46Z</time>
      </trkpt>
      <trkpt lat="44.13068" lon="6.73379">
        <ele>1579.5111821162</ele>
        <time>2021-07-10T14:27:48Z</time>
      </trkpt>
      <trkpt lat="44.13069" lon="6.73377">
        <ele>1578.5111883202</ele>
        <time>2021-07-10T14:27:49Z</time>
      </trkpt>
      <trkpt lat="44.1307" lon="6.73374">
        <ele>1578.5112015672</ele>
        <time>2021-07-10T14:27:50Z</time>
      </trkpt>
      <trkpt lat="44.13072" lon="6.73371">
        <ele>1578.5112059826</ele>
        <time>2021-07-10T14:27:52Z</time>
      </trkpt>
      <trkpt lat="44.13074" lon="6.73368">
        <ele>1577.5112013049</ele>
        <time>2021-07-10T14:27:54Z</time>
      </trkpt>
      <trkpt lat="44.13075" lon="6.73366">
        <ele>1576.5112037965</ele>
        <time>2021-07-10T14:27:55Z</time>
      </trkpt>
      <trkpt lat="44.13076" lon="6.73364">
        <ele>1575.5112140834</ele>
        <time>2021-07-10T14:27:56Z</time>
      </trkpt>
      <trkpt lat="44.13076" lon="6.73362">
        <ele>1574.5112218434</ele>
        <time>2021-07-10T14:27:57Z</time>
      </trkpt>
      <trkpt lat="44.13078" lon="6.7336">
        <ele>1573.5112220089</ele>
        <time>2021-07-10T14:27:58Z</time>
      </trkpt>
      <trkpt lat="44.13078" lon="6.73358">
        <ele>1572.5112235746</ele>
        <time>2021-07-10T14:27:59Z</time>
      </trkpt>
      <trkpt lat="44.13079" lon="6.73357">
        <ele>1572.5112173568</ele>
        <time>2021-07-10T14:28:00Z</time>
      </trkpt>
      <trkpt lat="44.1308" lon="6.73357">
        <ele>1571.5111820858</ele>
        <time>2021-07-10T14:28:02Z</time>
      </trkpt>
      <trkpt lat="44.1308" lon="6.73359">
        <ele>1572.5111402803</ele>
        <time>2021-07-10T14:28:03Z</time>
      </trkpt>
      <trkpt lat="44.1308" lon="6.7336">
        <ele>1571.5111000266</ele>
        <time>2021-07-10T14:28:04Z</time>
      </trkpt>
      <trkpt lat="44.1308" lon="6.73362">
        <ele>1570.5110670221</ele>
        <time>2021-07-10T14:28:05Z</time>
      </trkpt>
      <trkpt lat="44.1308" lon="6.73363">
        <ele>1570.5110361226</ele>
        <time>2021-07-10T14:28:06Z</time>
      </trkpt>
      <trkpt lat="44.13081" lon="6.73365">
        <ele>1570.5109856799</ele>
        <time>2021-07-10T14:28:07Z</time>
      </trkpt>
      <trkpt lat="44.13081" lon="6.73367">
        <ele>1570.5109540421</ele>
        <time>2021-07-10T14:28:08Z</time>
      </trkpt>
      <trkpt lat="44.13081" lon="6.73369">
        <ele>1570.5109148408</ele>
        <time>2021-07-10T14:28:09Z</time>
      </trkpt>
      <trkpt lat="44.13081" lon="6.7337">
        <ele>1569.5108849699</ele>
        <time>2021-07-10T14:28:10Z</time>
      </trkpt>
      <trkpt lat="44.13082" lon="6.73372">
        <ele>1569.5107842489</ele>
        <time>2021-07-10T14:28:12Z</time>
      </trkpt>
      <trkpt lat="44.13084" lon="6.73375">
        <ele>1570.5106620947</ele>
        <time>2021-07-10T14:28:14Z</time>
      </trkpt>
      <trkpt lat="44.13085" lon="6.73376">
        <ele>1570.51060599</ele>
        <time>2021-07-10T14:28:15Z</time>
      </trkpt>
      <trkpt lat="44.13086" lon="6.73377">
        <ele>1570.5105478037</ele>
        <time>2021-07-10T14:28:16Z</time>
      </trkpt>
      <trkpt lat="44.13087" lon="6.7338">
        <ele>1570.5104492637</ele>
        <time>2021-07-10T14:28:18Z</time>
      </trkpt>
      <trkpt lat="44.13087" lon="6.73381">
        <ele>1569.5104009148</ele>
        <time>2021-07-10T14:28:19Z</time>
      </trkpt>
      <trkpt lat="44.13088" lon="6.73383">
        <ele>1569.5103617936</ele>
        <time>2021-07-10T14:28:20Z</time>
      </trkpt>
      <trkpt lat="44.13088" lon="6.73385">
        <ele>1568.5102926935</ele>
        <time>2021-07-10T14:28:22Z</time>
      </trkpt>
      <trkpt lat="44.13089" lon="6.73385">
        <ele>1568.5102695492</ele>
        <time>2021-07-10T14:28:28Z</time>
      </trkpt>
      <trkpt lat="44.13089" lon="6.73386">
        <ele>1568.5102429942</ele>
        <time>2021-07-10T14:28:29Z</time>
      </trkpt>
      <trkpt lat="44.13089" lon="6.73387">
        <ele>1568.5102240782</ele>
        <time>2021-07-10T14:28:32Z</time>
      </trkpt>
      <trkpt lat="44.13089" lon="6.73388">
        <ele>1568.5101945159</ele>
        <time>2021-07-10T14:28:34Z</time>
      </trkpt>
      <trkpt lat="44.1309" lon="6.7339">
        <ele>1569.5101488539</ele>
        <time>2021-07-10T14:28:35Z</time>
      </trkpt>
      <trkpt lat="44.1309" lon="6.7339">
        <ele>1569.5101007969</ele>
        <time>2021-07-10T14:28:36Z</time>
      </trkpt>
      <trkpt lat="44.13091" lon="6.73393">
        <ele>1569.5100127045</ele>
        <time>2021-07-10T14:28:38Z</time>
      </trkpt>
      <trkpt lat="44.13092" lon="6.73394">
        <ele>1569.5099729703</ele>
        <time>2021-07-10T14:28:40Z</time>
      </trkpt>
      <trkpt lat="44.13091" lon="6.73392">
        <ele>1567.5100231318</ele>
        <time>2021-07-10T14:28:42Z</time>
      </trkpt>
      <trkpt lat="44.13091" lon="6.73391">
        <ele>1566.5100549033</ele>
        <time>2021-07-10T14:28:45Z</time>
      </trkpt>
      <trkpt lat="44.13092" lon="6.7339">
        <ele>1565.5100537318</ele>
        <time>2021-07-10T14:28:46Z</time>
      </trkpt>
      <trkpt lat="44.13092" lon="6.7339">
        <ele>1564.5100677566</ele>
        <time>2021-07-10T14:28:51Z</time>
      </trkpt>
      <trkpt lat="44.13093" lon="6.73391">
        <ele>1564.5100016189</ele>
        <time>2021-07-10T14:28:53Z</time>
      </trkpt>
      <trkpt lat="44.13093" lon="6.73392">
        <ele>1564.5099891684</ele>
        <time>2021-07-10T14:28:54Z</time>
      </trkpt>
      <trkpt lat="44.13093" lon="6.73393">
        <ele>1564.5099633949</ele>
        <time>2021-07-10T14:28:55Z</time>
      </trkpt>
      <trkpt lat="44.13092" lon="6.73395">
        <ele>1564.5099236596</ele>
        <time>2021-07-10T14:28:57Z</time>
      </trkpt>
      <trkpt lat="44.13093" lon="6.73396">
        <ele>1564.5098782988</ele>
        <time>2021-07-10T14:28:58Z</time>
      </trkpt>
      <trkpt lat="44.13093" lon="6.73396">
        <ele>1564.5098782988</ele>
        <time>2021-07-10T14:29:00Z</time>
      </trkpt>
      <trkpt lat="44.13094" lon="6.73398">
        <ele>1564.5097839103</ele>
        <time>2021-07-10T14:29:01Z</time>
      </trkpt>
      <trkpt lat="44.13095" lon="6.73399">
        <ele>1563.5097427419</ele>
        <time>2021-07-10T14:29:02Z</time>
      </trkpt>
      <trkpt lat="44.13095" lon="6.73401">
        <ele>1562.5097134993</ele>
        <time>2021-07-10T14:29:04Z</time>
      </trkpt>
      <trkpt lat="44.13095" lon="6.73402">
        <ele>1562.5096911221</ele>
        <time>2021-07-10T14:29:05Z</time>
      </trkpt>
      <trkpt lat="44.13095" lon="6.73402">
        <ele>1562.509676053</ele>
        <time>2021-07-10T14:29:08Z</time>
      </trkpt>
      <trkpt lat="44.13095" lon="6.73404">
        <ele>1563.5096189917</ele>
        <time>2021-07-10T14:29:09Z</time>
      </trkpt>
      <trkpt lat="44.13096" lon="6.73406">
        <ele>1563.5095464385</ele>
        <time>2021-07-10T14:29:10Z</time>
      </trkpt>
      <trkpt lat="44.13097" lon="6.73408">
        <ele>1563.5094820269</ele>
        <time>2021-07-10T14:29:11Z</time>
      </trkpt>
      <trkpt lat="44.13098" lon="6.7341">
        <ele>1563.5094198462</ele>
        <time>2021-07-10T14:29:12Z</time>
      </trkpt>
      <trkpt lat="44.13099" lon="6.73411">
        <ele>1563.5093442994</ele>
        <time>2021-07-10T14:29:13Z</time>
      </trkpt>
      <trkpt lat="44.131" lon="6.73413">
        <ele>1563.5092772621</ele>
        <time>2021-07-10T14:29:14Z</time>
      </trkpt>
      <trkpt lat="44.131" lon="6.73415">
        <ele>1564.5092420552</ele>
        <time>2021-07-10T14:29:15Z</time>
      </trkpt>
      <trkpt lat="44.131" lon="6.73417">
        <ele>1564.5091929261</ele>
        <time>2021-07-10T14:29:16Z</time>
      </trkpt>
      <trkpt lat="44.131" lon="6.73418">
        <ele>1564.5091479337</ele>
        <time>2021-07-10T14:29:17Z</time>
      </trkpt>
      <trkpt lat="44.131" lon="6.73422">
        <ele>1564.5090829724</ele>
        <time>2021-07-10T14:29:19Z</time>
      </trkpt>
      <trkpt lat="44.131" lon="6.73425">
        <ele>1564.5090286783</ele>
        <time>2021-07-10T14:29:21Z</time>
      </trkpt>
      <trkpt lat="44.13099" lon="6.73428">
        <ele>1564.5089912976</ele>
        <time>2021-07-10T14:29:23Z</time>
      </trkpt>
      <trkpt lat="44.13099" lon="6.73429">
        <ele>1564.5089705425</ele>
        <time>2021-07-10T14:29:24Z</time>
      </trkpt>
      <trkpt lat="44.13098" lon="6.73431">
        <ele>1564.5089493455</ele>
        <time>2021-07-10T14:29:25Z</time>
      </trkpt>
      <trkpt lat="44.13098" lon="6.73435">
        <ele>1563.5088993044</ele>
        <time>2021-07-10T14:29:27Z</time>
      </trkpt>
      <trkpt lat="44.13097" lon="6.73437">
        <ele>1564.5088622232</ele>
        <time>2021-07-10T14:29:29Z</time>
      </trkpt>
      <trkpt lat="44.13097" lon="6.7344">
        <ele>1563.5088180077</ele>
        <time>2021-07-10T14:29:30Z</time>
      </trkpt>
      <trkpt lat="44.13096" lon="6.73443">
        <ele>1563.5087954881</ele>
        <time>2021-07-10T14:29:31Z</time>
      </trkpt>
      <trkpt lat="44.13095" lon="6.73447">
        <ele>1562.5087599914</ele>
        <time>2021-07-10T14:29:33Z</time>
      </trkpt>
      <trkpt lat="44.13094" lon="6.73448">
        <ele>1562.5087458239</ele>
        <time>2021-07-10T14:29:34Z</time>
      </trkpt>
      <trkpt lat="44.13094" lon="6.7345">
        <ele>1562.5087326331</ele>
        <time>2021-07-10T14:29:35Z</time>
      </trkpt>
      <trkpt lat="44.13094" lon="6.73452">
        <ele>1562.5086655407</ele>
        <time>2021-07-10T14:29:37Z</time>
      </trkpt>
      <trkpt lat="44.13094" lon="6.73455">
        <ele>1562.5086137027</ele>
        <time>2021-07-10T14:29:39Z</time>
      </trkpt>
      <trkpt lat="44.13094" lon="6.73456">
        <ele>1562.5086086532</ele>
        <time>2021-07-10T14:29:40Z</time>
      </trkpt>
      <trkpt lat="44.13094" lon="6.73457">
        <ele>1562.5085705091</ele>
        <time>2021-07-10T14:29:41Z</time>
      </trkpt>
      <trkpt lat="44.13094" lon="6.7346">
        <ele>1561.5085147009</ele>
        <time>2021-07-10T14:29:43Z</time>
      </trkpt>
      <trkpt lat="44.13094" lon="6.73462">
        <ele>1561.5084844063</ele>
        <time>2021-07-10T14:29:44Z</time>
      </trkpt>
      <trkpt lat="44.13094" lon="6.73464">
        <ele>1562.5084235224</ele>
        <time>2021-07-10T14:29:45Z</time>
      </trkpt>
      <trkpt lat="44.13094" lon="6.73466">
        <ele>1562.5083762536</ele>
        <time>2021-07-10T14:29:46Z</time>
      </trkpt>
      <trkpt lat="44.13094" lon="6.7347">
        <ele>1561.5082967701</ele>
        <time>2021-07-10T14:29:48Z</time>
      </trkpt>
      <trkpt lat="44.13094" lon="6.73472">
        <ele>1561.508254311</ele>
        <time>2021-07-10T14:29:49Z</time>
      </trkpt>
      <trkpt lat="44.13093" lon="6.73474">
        <ele>1560.5082273691</ele>
        <time>2021-07-10T14:29:50Z</time>
      </trkpt>
      <trkpt lat="44.13094" lon="6.73478">
        <ele>1561.5081241004</ele>
        <time>2021-07-10T14:29:52Z</time>
      </trkpt>
      <trkpt lat="44.13094" lon="6.73482">
        <ele>1561.5080318534</ele>
        <time>2021-07-10T14:29:54Z</time>
      </trkpt>
      <trkpt lat="44.13094" lon="6.73484">
        <ele>1561.5079892778</ele>
        <time>2021-07-10T14:29:55Z</time>
      </trkpt>
      <trkpt lat="44.13095" lon="6.73486">
        <ele>1561.5079303219</ele>
        <time>2021-07-10T14:29:56Z</time>
      </trkpt>
      <trkpt lat="44.13095" lon="6.73488">
        <ele>1561.5078857994</ele>
        <time>2021-07-10T14:29:57Z</time>
      </trkpt>
      <trkpt lat="44.13095" lon="6.7349">
        <ele>1560.5078467205</ele>
        <time>2021-07-10T14:29:58Z</time>
      </trkpt>
      <trkpt lat="44.13095" lon="6.73492">
        <ele>1559.5078251026</ele>
        <time>2021-07-10T14:29:59Z</time>
      </trkpt>
      <trkpt lat="44.13094" lon="6.73492">
        <ele>1559.5078135714</ele>
        <time>2021-07-10T14:30:00Z</time>
      </trkpt>
      <trkpt lat="44.13094" lon="6.73495">
        <ele>1559.5077620359</ele>
        <time>2021-07-10T14:30:02Z</time>
      </trkpt>
      <trkpt lat="44.13094" lon="6.73497">
        <ele>1558.5077240079</ele>
        <time>2021-07-10T14:30:03Z</time>
      </trkpt>
      <trkpt lat="44.13095" lon="6.73498">
        <ele>1557.5076756323</ele>
        <time>2021-07-10T14:30:04Z</time>
      </trkpt>
      <trkpt lat="44.13095" lon="6.735">
        <ele>1557.5076544445</ele>
        <time>2021-07-10T14:30:05Z</time>
      </trkpt>
      <trkpt lat="44.13095" lon="6.73501">
        <ele>1557.5076076803</ele>
        <time>2021-07-10T14:30:06Z</time>
      </trkpt>
      <trkpt lat="44.13096" lon="6.73504">
        <ele>1556.5074966209</ele>
        <time>2021-07-10T14:30:08Z</time>
      </trkpt>
      <trkpt lat="44.13095" lon="6.73506">
        <ele>1555.5074959089</ele>
        <time>2021-07-10T14:30:09Z</time>
      </trkpt>
      <trkpt lat="44.13095" lon="6.73507">
        <ele>1554.5074982977</ele>
        <time>2021-07-10T14:30:10Z</time>
      </trkpt>
      <trkpt lat="44.13094" lon="6.73508">
        <ele>1554.507496408</ele>
        <time>2021-07-10T14:30:11Z</time>
      </trkpt>
      <trkpt lat="44.13093" lon="6.7351">
        <ele>1555.5074770081</ele>
        <time>2021-07-10T14:30:12Z</time>
      </trkpt>
      <trkpt lat="44.13093" lon="6.73512">
        <ele>1555.5074419313</ele>
        <time>2021-07-10T14:30:13Z</time>
      </trkpt>
      <trkpt lat="44.13094" lon="6.73514">
        <ele>1555.5073729123</ele>
        <time>2021-07-10T14:30:14Z</time>
      </trkpt>
      <trkpt lat="44.13095" lon="6.73517">
        <ele>1554.5072849476</ele>
        <time>2021-07-10T14:30:15Z</time>
      </trkpt>
      <trkpt lat="44.13095" lon="6.7352">
        <ele>1554.5072181807</ele>
        <time>2021-07-10T14:30:16Z</time>
      </trkpt>
      <trkpt lat="44.13095" lon="6.73522">
        <ele>1554.5071588561</ele>
        <time>2021-07-10T14:30:17Z</time>
      </trkpt>
      <trkpt lat="44.13095" lon="6.73524">
        <ele>1554.5071095633</ele>
        <time>2021-07-10T14:30:18Z</time>
      </trkpt>
      <trkpt lat="44.13096" lon="6.73526">
        <ele>1554.5070668816</ele>
        <time>2021-07-10T14:30:19Z</time>
      </trkpt>
      <trkpt lat="44.13096" lon="6.73527">
        <ele>1553.5070427139</ele>
        <time>2021-07-10T14:30:20Z</time>
      </trkpt>
      <trkpt lat="44.13095" lon="6.73529">
        <ele>1553.5070433255</ele>
        <time>2021-07-10T14:30:21Z</time>
      </trkpt>
      <trkpt lat="44.13094" lon="6.7353">
        <ele>1554.507020739</ele>
        <time>2021-07-10T14:30:22Z</time>
      </trkpt>
      <trkpt lat="44.13094" lon="6.73531">
        <ele>1554.5070009893</ele>
        <time>2021-07-10T14:30:23Z</time>
      </trkpt>
      <trkpt lat="44.13094" lon="6.73533">
        <ele>1554.5069686122</ele>
        <time>2021-07-10T14:30:24Z</time>
      </trkpt>
      <trkpt lat="44.13094" lon="6.73536">
        <ele>1554.5069175051</ele>
        <time>2021-07-10T14:30:25Z</time>
      </trkpt>
      <trkpt lat="44.13094" lon="6.73538">
        <ele>1554.506864347</ele>
        <time>2021-07-10T14:30:26Z</time>
      </trkpt>
      <trkpt lat="44.13095" lon="6.73539">
        <ele>1554.5068029855</ele>
        <time>2021-07-10T14:30:27Z</time>
      </trkpt>
      <trkpt lat="44.13096" lon="6.73541">
        <ele>1554.5067478613</ele>
        <time>2021-07-10T14:30:28Z</time>
      </trkpt>
      <trkpt lat="44.13096" lon="6.73543">
        <ele>1554.5066921545</ele>
        <time>2021-07-10T14:30:29Z</time>
      </trkpt>
      <trkpt lat="44.13096" lon="6.73545">
        <ele>1554.5066263508</ele>
        <time>2021-07-10T14:30:30Z</time>
      </trkpt>
      <trkpt lat="44.13098" lon="6.73548">
        <ele>1553.5065279893</ele>
        <time>2021-07-10T14:30:32Z</time>
      </trkpt>
      <trkpt lat="44.13098" lon="6.7355">
        <ele>1553.5064464994</ele>
        <time>2021-07-10T14:30:34Z</time>
      </trkpt>
      <trkpt lat="44.13098" lon="6.73552">
        <ele>1553.5064127706</ele>
        <time>2021-07-10T14:30:35Z</time>
      </trkpt>
      <trkpt lat="44.13098" lon="6.73554">
        <ele>1552.5063906602</ele>
        <time>2021-07-10T14:30:36Z</time>
      </trkpt>
      <trkpt lat="44.13098" lon="6.73557">
        <ele>1552.5063360734</ele>
        <time>2021-07-10T14:30:38Z</time>
      </trkpt>
      <trkpt lat="44.13097" lon="6.73558">
        <ele>1552.5063180978</ele>
        <time>2021-07-10T14:30:39Z</time>
      </trkpt>
      <trkpt lat="44.13097" lon="6.73559">
        <ele>1553.5063190336</ele>
        <time>2021-07-10T14:30:40Z</time>
      </trkpt>
      <trkpt lat="44.13096" lon="6.73561">
        <ele>1553.5063109744</ele>
        <time>2021-07-10T14:30:41Z</time>
      </trkpt>
      <trkpt lat="44.13096" lon="6.73561">
        <ele>1553.5063109744</ele>
        <time>2021-07-10T14:30:55Z</time>
      </trkpt>
      <trkpt lat="44.13095" lon="6.73561">
        <ele>1552.5063375123</ele>
        <time>2021-07-10T14:30:57Z</time>
      </trkpt>
      <trkpt lat="44.13095" lon="6.73562">
        <ele>1552.5063391032</ele>
        <time>2021-07-10T14:31:07Z</time>
      </trkpt>
      <trkpt lat="44.13094" lon="6.73559">
        <ele>1551.5064369022</ele>
        <time>2021-07-10T14:31:09Z</time>
      </trkpt>
      <trkpt lat="44.13094" lon="6.7356">
        <ele>1551.5064041556</ele>
        <time>2021-07-10T14:31:14Z</time>
      </trkpt>
      <trkpt lat="44.13095" lon="6.73561">
        <ele>1551.5063773461</ele>
        <time>2021-07-10T14:31:15Z</time>
      </trkpt>
      <trkpt lat="44.13095" lon="6.73561">
        <ele>1552.5063365609</ele>
        <time>2021-07-10T14:31:18Z</time>
      </trkpt>
      <trkpt lat="44.13094" lon="6.73565">
        <ele>1552.5063035171</ele>
        <time>2021-07-10T14:31:19Z</time>
      </trkpt>
      <trkpt lat="44.13095" lon="6.73566">
        <ele>1551.5062592323</ele>
        <time>2021-07-10T14:31:20Z</time>
      </trkpt>
      <trkpt lat="44.13095" lon="6.73567">
        <ele>1551.5062377878</ele>
        <time>2021-07-10T14:31:21Z</time>
      </trkpt>
      <trkpt lat="44.13095" lon="6.73569">
        <ele>1550.5062100238</ele>
        <time>2021-07-10T14:31:22Z</time>
      </trkpt>
      <trkpt lat="44.13095" lon="6.73569">
        <ele>1550.5062100238</ele>
        <time>2021-07-10T14:31:23Z</time>
      </trkpt>
      <trkpt lat="44.13095" lon="6.7357">
        <ele>1550.5061613268</ele>
        <time>2021-07-10T14:31:24Z</time>
      </trkpt>
      <trkpt lat="44.13095" lon="6.73571">
        <ele>1549.5061325783</ele>
        <time>2021-07-10T14:31:25Z</time>
      </trkpt>
      <trkpt lat="44.13095" lon="6.73573">
        <ele>1549.5060931688</ele>
        <time>2021-07-10T14:31:26Z</time>
      </trkpt>
      <trkpt lat="44.13096" lon="6.73574">
        <ele>1549.5060704078</ele>
        <time>2021-07-10T14:31:27Z</time>
      </trkpt>
      <trkpt lat="44.13096" lon="6.73574">
        <ele>1549.5060355094</ele>
        <time>2021-07-10T14:31:28Z</time>
      </trkpt>
      <trkpt lat="44.13096" lon="6.73575">
        <ele>1548.5059970095</ele>
        <time>2021-07-10T14:31:29Z</time>
      </trkpt>
      <trkpt lat="44.13098" lon="6.73577">
        <ele>1548.5059309122</ele>
        <time>2021-07-10T14:31:30Z</time>
      </trkpt>
      <trkpt lat="44.13098" lon="6.73577">
        <ele>1549.5058946034</ele>
        <time>2021-07-10T14:31:31Z</time>
      </trkpt>
      <trkpt lat="44.13099" lon="6.73578">
        <ele>1549.5058663919</ele>
        <time>2021-07-10T14:31:32Z</time>
      </trkpt>
      <trkpt lat="44.13099" lon="6.73579">
        <ele>1549.5058277978</ele>
        <time>2021-07-10T14:31:33Z</time>
      </trkpt>
      <trkpt lat="44.13099" lon="6.7358">
        <ele>1548.5057988116</ele>
        <time>2021-07-10T14:31:34Z</time>
      </trkpt>
      <trkpt lat="44.13099" lon="6.73581">
        <ele>1549.5057712472</ele>
        <time>2021-07-10T14:31:35Z</time>
      </trkpt>
      <trkpt lat="44.13099" lon="6.73582">
        <ele>1549.5057405386</ele>
        <time>2021-07-10T14:31:36Z</time>
      </trkpt>
      <trkpt lat="44.131" lon="6.73584">
        <ele>1548.5056849684</ele>
        <time>2021-07-10T14:31:38Z</time>
      </trkpt>
      <trkpt lat="44.131" lon="6.73585">
        <ele>1548.5056549581</ele>
        <time>2021-07-10T14:31:39Z</time>
      </trkpt>
      <trkpt lat="44.13101" lon="6.73585">
        <ele>1548.5056309913</ele>
        <time>2021-07-10T14:31:40Z</time>
      </trkpt>
      <trkpt lat="44.13101" lon="6.73586">
        <ele>1548.5055915258</ele>
        <time>2021-07-10T14:31:41Z</time>
      </trkpt>
      <trkpt lat="44.13102" lon="6.73587">
        <ele>1549.5055396348</ele>
        <time>2021-07-10T14:31:42Z</time>
      </trkpt>
      <trkpt lat="44.13103" lon="6.73588">
        <ele>1549.5054918018</ele>
        <time>2021-07-10T14:31:43Z</time>
      </trkpt>
      <trkpt lat="44.13103" lon="6.73589">
        <ele>1550.5054445293</ele>
        <time>2021-07-10T14:31:44Z</time>
      </trkpt>
      <trkpt lat="44.13103" lon="6.73591">
        <ele>1550.5054124761</ele>
        <time>2021-07-10T14:31:45Z</time>
      </trkpt>
      <trkpt lat="44.13104" lon="6.73592">
        <ele>1550.5053794729</ele>
        <time>2021-07-10T14:31:46Z</time>
      </trkpt>
      <trkpt lat="44.13104" lon="6.73593">
        <ele>1551.5053600714</ele>
        <time>2021-07-10T14:31:48Z</time>
      </trkpt>
      <trkpt lat="44.13104" lon="6.73593">
        <ele>1551.5053336527</ele>
        <time>2021-07-10T14:31:49Z</time>
      </trkpt>
      <trkpt lat="44.13105" lon="6.73594">
        <ele>1551.5053023843</ele>
        <time>2021-07-10T14:31:50Z</time>
      </trkpt>
      <trkpt lat="44.13105" lon="6.73595">
        <ele>1551.5052445551</ele>
        <time>2021-07-10T14:31:51Z</time>
      </trkpt>
      <trkpt lat="44.13107" lon="6.73598">
        <ele>1550.5051506159</ele>
        <time>2021-07-10T14:31:53Z</time>
      </trkpt>
      <trkpt lat="44.13107" lon="6.73599">
        <ele>1550.5050999549</ele>
        <time>2021-07-10T14:31:54Z</time>
      </trkpt>
      <trkpt lat="44.13108" lon="6.736">
        <ele>1550.505053664</ele>
        <time>2021-07-10T14:31:55Z</time>
      </trkpt>
      <trkpt lat="44.13109" lon="6.73602">
        <ele>1550.5049603723</ele>
        <time>2021-07-10T14:31:57Z</time>
      </trkpt>
      <trkpt lat="44.1311" lon="6.73604">
        <ele>1550.5049062884</ele>
        <time>2021-07-10T14:31:59Z</time>
      </trkpt>
      <trkpt lat="44.1311" lon="6.73606">
        <ele>1551.5048291997</ele>
        <time>2021-07-10T14:32:01Z</time>
      </trkpt>
      <trkpt lat="44.13112" lon="6.73609">
        <ele>1550.5047190254</ele>
        <time>2021-07-10T14:32:03Z</time>
      </trkpt>
      <trkpt lat="44.13112" lon="6.73611">
        <ele>1550.5046700144</ele>
        <time>2021-07-10T14:32:04Z</time>
      </trkpt>
      <trkpt lat="44.13112" lon="6.73613">
        <ele>1550.5046227122</ele>
        <time>2021-07-10T14:32:05Z</time>
      </trkpt>
      <trkpt lat="44.13112" lon="6.73616">
        <ele>1549.5045555056</ele>
        <time>2021-07-10T14:32:07Z</time>
      </trkpt>
      <trkpt lat="44.13112" lon="6.73618">
        <ele>1550.5045150802</ele>
        <time>2021-07-10T14:32:09Z</time>
      </trkpt>
      <trkpt lat="44.13112" lon="6.73619">
        <ele>1549.5045040304</ele>
        <time>2021-07-10T14:32:10Z</time>
      </trkpt>
      <trkpt lat="44.13111" lon="6.73622">
        <ele>1549.5044801521</ele>
        <time>2021-07-10T14:32:11Z</time>
      </trkpt>
      <trkpt lat="44.13111" lon="6.73623">
        <ele>1549.5044461249</ele>
        <time>2021-07-10T14:32:13Z</time>
      </trkpt>
      <trkpt lat="44.13111" lon="6.73625">
        <ele>1549.5044228986</ele>
        <time>2021-07-10T14:32:14Z</time>
      </trkpt>
      <trkpt lat="44.13111" lon="6.73626">
        <ele>1549.5043953461</ele>
        <time>2021-07-10T14:32:15Z</time>
      </trkpt>
      <trkpt lat="44.13111" lon="6.73629">
        <ele>1550.5043381559</ele>
        <time>2021-07-10T14:32:17Z</time>
      </trkpt>
      <trkpt lat="44.13111" lon="6.7363">
        <ele>1550.5043007188</ele>
        <time>2021-07-10T14:32:20Z</time>
      </trkpt>
      <trkpt lat="44.13113" lon="6.73634">
        <ele>1548.5041540995</ele>
        <time>2021-07-10T14:32:22Z</time>
      </trkpt>
      <trkpt lat="44.13113" lon="6.73638">
        <ele>1548.5040620833</ele>
        <time>2021-07-10T14:32:24Z</time>
      </trkpt>
      <trkpt lat="44.13112" lon="6.7364">
        <ele>1547.5040300355</ele>
        <time>2021-07-10T14:32:25Z</time>
      </trkpt>
      <trkpt lat="44.13113" lon="6.73642">
        <ele>1547.5039846234</ele>
        <time>2021-07-10T14:32:26Z</time>
      </trkpt>
      <trkpt lat="44.13113" lon="6.73644">
        <ele>1548.503949266</ele>
        <time>2021-07-10T14:32:27Z</time>
      </trkpt>
      <trkpt lat="44.13113" lon="6.73646">
        <ele>1548.5038909663</ele>
        <time>2021-07-10T14:32:28Z</time>
      </trkpt>
      <trkpt lat="44.13113" lon="6.73646">
        <ele>1547.5038811121</ele>
        <time>2021-07-10T14:32:29Z</time>
      </trkpt>
      <trkpt lat="44.13113" lon="6.73647">
        <ele>1547.5038804349</ele>
        <time>2021-07-10T14:32:30Z</time>
      </trkpt>
      <trkpt lat="44.13112" lon="6.73648">
        <ele>1547.5038821179</ele>
        <time>2021-07-10T14:32:31Z</time>
      </trkpt>
      <trkpt lat="44.13111" lon="6.73649">
        <ele>1546.5038829652</ele>
        <time>2021-07-10T14:32:32Z</time>
      </trkpt>
      <trkpt lat="44.13112" lon="6.73651">
        <ele>1545.5038394583</ele>
        <time>2021-07-10T14:32:33Z</time>
      </trkpt>
      <trkpt lat="44.13112" lon="6.73652">
        <ele>1544.5038125341</ele>
        <time>2021-07-10T14:32:34Z</time>
      </trkpt>
      <trkpt lat="44.13112" lon="6.73654">
        <ele>1544.5037587259</ele>
        <time>2021-07-10T14:32:35Z</time>
      </trkpt>
      <trkpt lat="44.13113" lon="6.73655">
        <ele>1544.503705842</ele>
        <time>2021-07-10T14:32:36Z</time>
      </trkpt>
      <trkpt lat="44.13114" lon="6.73656">
        <ele>1545.5036641765</ele>
        <time>2021-07-10T14:32:37Z</time>
      </trkpt>
      <trkpt lat="44.13114" lon="6.73657">
        <ele>1545.5036198227</ele>
        <time>2021-07-10T14:32:38Z</time>
      </trkpt>
      <trkpt lat="44.13115" lon="6.73658">
        <ele>1545.5035752706</ele>
        <time>2021-07-10T14:32:39Z</time>
      </trkpt>
      <trkpt lat="44.13115" lon="6.73659">
        <ele>1545.5035285746</ele>
        <time>2021-07-10T14:32:40Z</time>
      </trkpt>
      <trkpt lat="44.13116" lon="6.7366">
        <ele>1545.5034744197</ele>
        <time>2021-07-10T14:32:41Z</time>
      </trkpt>
      <trkpt lat="44.13116" lon="6.73663">
        <ele>1543.5034053594</ele>
        <time>2021-07-10T14:32:43Z</time>
      </trkpt>
      <trkpt lat="44.13116" lon="6.73666">
        <ele>1543.5033593286</ele>
        <time>2021-07-10T14:32:44Z</time>
      </trkpt>
      <trkpt lat="44.13116" lon="6.73668">
        <ele>1542.5033083454</ele>
        <time>2021-07-10T14:32:45Z</time>
      </trkpt>
      <trkpt lat="44.13117" lon="6.73668">
        <ele>1541.5032723236</ele>
        <time>2021-07-10T14:32:48Z</time>
      </trkpt>
      <trkpt lat="44.13118" lon="6.73671">
        <ele>1541.5031644867</ele>
        <time>2021-07-10T14:32:49Z</time>
      </trkpt>
      <trkpt lat="44.13118" lon="6.73672">
        <ele>1540.5031339333</ele>
        <time>2021-07-10T14:32:50Z</time>
      </trkpt>
      <trkpt lat="44.13119" lon="6.73675">
        <ele>1540.5030549954</ele>
        <time>2021-07-10T14:32:52Z</time>
      </trkpt>
      <trkpt lat="44.13121" lon="6.73677">
        <ele>1538.5029522448</ele>
        <time>2021-07-10T14:32:54Z</time>
      </trkpt>
      <trkpt lat="44.13121" lon="6.73678">
        <ele>1537.5029065661</ele>
        <time>2021-07-10T14:32:55Z</time>
      </trkpt>
      <trkpt lat="44.13122" lon="6.7368">
        <ele>1536.5028431471</ele>
        <time>2021-07-10T14:32:56Z</time>
      </trkpt>
      <trkpt lat="44.13123" lon="6.73682">
        <ele>1536.5027785218</ele>
        <time>2021-07-10T14:32:57Z</time>
      </trkpt>
      <trkpt lat="44.13123" lon="6.73684">
        <ele>1536.5027288167</ele>
        <time>2021-07-10T14:32:58Z</time>
      </trkpt>
      <trkpt lat="44.13123" lon="6.73686">
        <ele>1536.5026876742</ele>
        <time>2021-07-10T14:32:59Z</time>
      </trkpt>
      <trkpt lat="44.13122" lon="6.73687">
        <ele>1535.5026743476</ele>
        <time>2021-07-10T14:33:00Z</time>
      </trkpt>
      <trkpt lat="44.13122" lon="6.73689">
        <ele>1535.5026695202</ele>
        <time>2021-07-10T14:33:01Z</time>
      </trkpt>
      <trkpt lat="44.1312" lon="6.7369">
        <ele>1534.5026819751</ele>
        <time>2021-07-10T14:33:02Z</time>
      </trkpt>
      <trkpt lat="44.13119" lon="6.73692">
        <ele>1533.5027005534</ele>
        <time>2021-07-10T14:33:04Z</time>
      </trkpt>
      <trkpt lat="44.13118" lon="6.73693">
        <ele>1532.5026933969</ele>
        <time>2021-07-10T14:33:05Z</time>
      </trkpt>
      <trkpt lat="44.13118" lon="6.73693">
        <ele>1532.5026933969</ele>
        <time>2021-07-10T14:33:06Z</time>
      </trkpt>
      <trkpt lat="44.13117" lon="6.73696">
        <ele>1531.5026925361</ele>
        <time>2021-07-10T14:33:08Z</time>
      </trkpt>
      <trkpt lat="44.13117" lon="6.73698">
        <ele>1530.5026699184</ele>
        <time>2021-07-10T14:33:09Z</time>
      </trkpt>
      <trkpt lat="44.13116" lon="6.73699">
        <ele>1529.5026779088</ele>
        <time>2021-07-10T14:33:10Z</time>
      </trkpt>
      <trkpt lat="44.13113" lon="6.73702">
        <ele>1527.5026979218</ele>
        <time>2021-07-10T14:33:12Z</time>
      </trkpt>
      <trkpt lat="44.13112" lon="6.73704">
        <ele>1526.5027048362</ele>
        <time>2021-07-10T14:33:13Z</time>
      </trkpt>
      <trkpt lat="44.13111" lon="6.73706">
        <ele>1524.5027134715</ele>
        <time>2021-07-10T14:33:14Z</time>
      </trkpt>
      <trkpt lat="44.1311" lon="6.73708">
        <ele>1523.5027014646</ele>
        <time>2021-07-10T14:33:15Z</time>
      </trkpt>
      <trkpt lat="44.13109" lon="6.7371">
        <ele>1522.5026893115</ele>
        <time>2021-07-10T14:33:16Z</time>
      </trkpt>
      <trkpt lat="44.13109" lon="6.73715">
        <ele>1521.5026094235</ele>
        <time>2021-07-10T14:33:18Z</time>
      </trkpt>
      <trkpt lat="44.13108" lon="6.73718">
        <ele>1520.5025938488</ele>
        <time>2021-07-10T14:33:19Z</time>
      </trkpt>
      <trkpt lat="44.13107" lon="6.7372">
        <ele>1520.5025806928</ele>
        <time>2021-07-10T14:33:20Z</time>
      </trkpt>
      <trkpt lat="44.13106" lon="6.73722">
        <ele>1519.5025707871</ele>
        <time>2021-07-10T14:33:21Z</time>
      </trkpt>
      <trkpt lat="44.13105" lon="6.73723">
        <ele>1519.5025748311</ele>
        <time>2021-07-10T14:33:22Z</time>
      </trkpt>
      <trkpt lat="44.13104" lon="6.73726">
        <ele>1518.502575151</ele>
        <time>2021-07-10T14:33:24Z</time>
      </trkpt>
      <trkpt lat="44.13103" lon="6.73727">
        <ele>1518.5025596334</ele>
        <time>2021-07-10T14:33:25Z</time>
      </trkpt>
      <trkpt lat="44.13102" lon="6.73729">
        <ele>1518.5025569642</ele>
        <time>2021-07-10T14:33:26Z</time>
      </trkpt>
      <trkpt lat="44.131" lon="6.73732">
        <ele>1518.502575799</ele>
        <time>2021-07-10T14:33:28Z</time>
      </trkpt>
      <trkpt lat="44.13099" lon="6.73734">
        <ele>1518.5025824979</ele>
        <time>2021-07-10T14:33:29Z</time>
      </trkpt>
      <trkpt lat="44.13097" lon="6.73736">
        <ele>1518.5026005071</ele>
        <time>2021-07-10T14:33:30Z</time>
      </trkpt>
      <trkpt lat="44.13096" lon="6.73738">
        <ele>1517.5026123821</ele>
        <time>2021-07-10T14:33:31Z</time>
      </trkpt>
      <trkpt lat="44.13095" lon="6.73739">
        <ele>1518.5026271995</ele>
        <time>2021-07-10T14:33:32Z</time>
      </trkpt>
      <trkpt lat="44.13094" lon="6.7374">
        <ele>1518.5026394974</ele>
        <time>2021-07-10T14:33:33Z</time>
      </trkpt>
      <trkpt lat="44.13093" lon="6.73742">
        <ele>1518.5026525285</ele>
        <time>2021-07-10T14:33:34Z</time>
      </trkpt>
      <trkpt lat="44.13092" lon="6.73743">
        <ele>1518.5026668864</ele>
        <time>2021-07-10T14:33:35Z</time>
      </trkpt>
      <trkpt lat="44.13091" lon="6.73743">
        <ele>1518.5026870426</ele>
        <time>2021-07-10T14:33:36Z</time>
      </trkpt>
      <trkpt lat="44.13089" lon="6.73744">
        <ele>1517.5027383823</ele>
        <time>2021-07-10T14:33:38Z</time>
      </trkpt>
      <trkpt lat="44.13088" lon="6.73745">
        <ele>1517.5027501264</ele>
        <time>2021-07-10T14:33:39Z</time>
      </trkpt>
      <trkpt lat="44.13087" lon="6.73747">
        <ele>1517.5027588938</ele>
        <time>2021-07-10T14:33:40Z</time>
      </trkpt>
      <trkpt lat="44.13087" lon="6.73747">
        <ele>1517.5027684455</ele>
        <time>2021-07-10T14:33:41Z</time>
      </trkpt>
      <trkpt lat="44.13086" lon="6.73748">
        <ele>1516.5027758963</ele>
        <time>2021-07-10T14:33:42Z</time>
      </trkpt>
      <trkpt lat="44.13085" lon="6.73749">
        <ele>1515.5027965736</ele>
        <time>2021-07-10T14:33:43Z</time>
      </trkpt>
      <trkpt lat="44.13084" lon="6.73749">
        <ele>1515.5028388828</ele>
        <time>2021-07-10T14:33:44Z</time>
      </trkpt>
      <trkpt lat="44.13082" lon="6.73749">
        <ele>1514.5028799508</ele>
        <time>2021-07-10T14:33:45Z</time>
      </trkpt>
      <trkpt lat="44.13082" lon="6.7375">
        <ele>1514.5028928999</ele>
        <time>2021-07-10T14:33:46Z</time>
      </trkpt>
      <trkpt lat="44.1308" lon="6.73753">
        <ele>1514.5029074248</ele>
        <time>2021-07-10T14:33:48Z</time>
      </trkpt>
      <trkpt lat="44.1308" lon="6.73754">
        <ele>1513.5028772372</ele>
        <time>2021-07-10T14:33:49Z</time>
      </trkpt>
      <trkpt lat="44.1308" lon="6.73755">
        <ele>1513.5028432809</ele>
        <time>2021-07-10T14:33:50Z</time>
      </trkpt>
      <trkpt lat="44.13081" lon="6.73757">
        <ele>1512.5027781251</ele>
        <time>2021-07-10T14:33:51Z</time>
      </trkpt>
      <trkpt lat="44.13082" lon="6.73758">
        <ele>1511.5027086173</ele>
        <time>2021-07-10T14:33:53Z</time>
      </trkpt>
      <trkpt lat="44.13083" lon="6.7376">
        <ele>1511.5026629725</ele>
        <time>2021-07-10T14:33:54Z</time>
      </trkpt>
      <trkpt lat="44.13083" lon="6.7376">
        <ele>1511.5026517921</ele>
        <time>2021-07-10T14:33:55Z</time>
      </trkpt>
      <trkpt lat="44.13083" lon="6.73762">
        <ele>1511.5026031207</ele>
        <time>2021-07-10T14:33:57Z</time>
      </trkpt>
      <trkpt lat="44.13083" lon="6.73762">
        <ele>1511.5026031207</ele>
        <time>2021-07-10T14:33:59Z</time>
      </trkpt>
      <trkpt lat="44.13083" lon="6.73765">
        <ele>1511.5025382738</ele>
        <time>2021-07-10T14:34:00Z</time>
      </trkpt>
      <trkpt lat="44.13083" lon="6.73765">
        <ele>1511.5025185664</ele>
        <time>2021-07-10T14:34:01Z</time>
      </trkpt>
      <trkpt lat="44.13084" lon="6.73766">
        <ele>1511.5024838252</ele>
        <time>2021-07-10T14:34:02Z</time>
      </trkpt>
      <trkpt lat="44.13084" lon="6.73769">
        <ele>1510.5024148307</ele>
        <time>2021-07-10T14:34:04Z</time>
      </trkpt>
      <trkpt lat="44.13084" lon="6.7377">
        <ele>1511.5023845956</ele>
        <time>2021-07-10T14:34:05Z</time>
      </trkpt>
      <trkpt lat="44.13085" lon="6.73771">
        <ele>1510.5023353828</ele>
        <time>2021-07-10T14:34:06Z</time>
      </trkpt>
      <trkpt lat="44.13085" lon="6.73773">
        <ele>1511.5022987273</ele>
        <time>2021-07-10T14:34:07Z</time>
      </trkpt>
      <trkpt lat="44.13085" lon="6.73773">
        <ele>1511.5022987273</ele>
        <time>2021-07-10T14:34:09Z</time>
      </trkpt>
      <trkpt lat="44.13085" lon="6.73775">
        <ele>1511.5022388452</ele>
        <time>2021-07-10T14:34:10Z</time>
      </trkpt>
      <trkpt lat="44.13085" lon="6.73776">
        <ele>1511.5022471114</ele>
        <time>2021-07-10T14:34:11Z</time>
      </trkpt>
      <trkpt lat="44.13082" lon="6.73777">
        <ele>1509.502318875</ele>
        <time>2021-07-10T14:34:13Z</time>
      </trkpt>
      <trkpt lat="44.13082" lon="6.73777">
        <ele>1509.5023369873</ele>
        <time>2021-07-10T14:34:14Z</time>
      </trkpt>
      <trkpt lat="44.13081" lon="6.73777">
        <ele>1509.5023457372</ele>
        <time>2021-07-10T14:34:15Z</time>
      </trkpt>
      <trkpt lat="44.13081" lon="6.73778">
        <ele>1508.5023625411</ele>
        <time>2021-07-10T14:34:17Z</time>
      </trkpt>
      <trkpt lat="44.13078" lon="6.73779">
        <ele>1506.5024085697</ele>
        <time>2021-07-10T14:34:19Z</time>
      </trkpt>
      <trkpt lat="44.13078" lon="6.73782">
        <ele>1506.5023936966</ele>
        <time>2021-07-10T14:34:20Z</time>
      </trkpt>
      <trkpt lat="44.13077" lon="6.73783">
        <ele>1507.5023771339</ele>
        <time>2021-07-10T14:34:21Z</time>
      </trkpt>
      <trkpt lat="44.13077" lon="6.73785">
        <ele>1507.502350274</ele>
        <time>2021-07-10T14:34:22Z</time>
      </trkpt>
      <trkpt lat="44.13076" lon="6.73789">
        <ele>1506.5023161131</ele>
        <time>2021-07-10T14:34:24Z</time>
      </trkpt>
      <trkpt lat="44.13076" lon="6.73791">
        <ele>1505.5022838701</ele>
        <time>2021-07-10T14:34:25Z</time>
      </trkpt>
      <trkpt lat="44.13075" lon="6.73793">
        <ele>1506.5022514563</ele>
        <time>2021-07-10T14:34:26Z</time>
      </trkpt>
      <trkpt lat="44.13074" lon="6.73797">
        <ele>1507.5021966896</ele>
        <time>2021-07-10T14:34:28Z</time>
      </trkpt>
      <trkpt lat="44.13074" lon="6.73799">
        <ele>1506.5021833412</ele>
        <time>2021-07-10T14:34:29Z</time>
      </trkpt>
      <trkpt lat="44.13073" lon="6.738">
        <ele>1506.5021985262</ele>
        <time>2021-07-10T14:34:30Z</time>
      </trkpt>
      <trkpt lat="44.13072" lon="6.73801">
        <ele>1506.5022177535</ele>
        <time>2021-07-10T14:34:31Z</time>
      </trkpt>
      <trkpt lat="44.1307" lon="6.73802">
        <ele>1506.5022536682</ele>
        <time>2021-07-10T14:34:33Z</time>
      </trkpt>
      <trkpt lat="44.13069" lon="6.73803">
        <ele>1506.5022681537</ele>
        <time>2021-07-10T14:34:34Z</time>
      </trkpt>
      <trkpt lat="44.13068" lon="6.73804">
        <ele>1506.5022817739</ele>
        <time>2021-07-10T14:34:35Z</time>
      </trkpt>
      <trkpt lat="44.13067" lon="6.73806">
        <ele>1506.5023011638</ele>
        <time>2021-07-10T14:34:37Z</time>
      </trkpt>
      <trkpt lat="44.13065" lon="6.73808">
        <ele>1505.5023109098</ele>
        <time>2021-07-10T14:34:39Z</time>
      </trkpt>
      <trkpt lat="44.13065" lon="6.73809">
        <ele>1504.5023094819</ele>
        <time>2021-07-10T14:34:40Z</time>
      </trkpt>
      <trkpt lat="44.13065" lon="6.73811">
        <ele>1504.5022730878</ele>
        <time>2021-07-10T14:34:41Z</time>
      </trkpt>
      <trkpt lat="44.13065" lon="6.73812">
        <ele>1504.5022243277</ele>
        <time>2021-07-10T14:34:42Z</time>
      </trkpt>
      <trkpt lat="44.13066" lon="6.73814">
        <ele>1504.502162337</ele>
        <time>2021-07-10T14:34:43Z</time>
      </trkpt>
      <trkpt lat="44.13067" lon="6.73816">
        <ele>1504.5020960464</ele>
        <time>2021-07-10T14:34:44Z</time>
      </trkpt>
      <trkpt lat="44.13067" lon="6.73817">
        <ele>1504.5020447933</ele>
        <time>2021-07-10T14:34:45Z</time>
      </trkpt>
      <trkpt lat="44.13068" lon="6.73818">
        <ele>1504.5020100174</ele>
        <time>2021-07-10T14:34:46Z</time>
      </trkpt>
      <trkpt lat="44.13068" lon="6.73819">
        <ele>1504.5019628929</ele>
        <time>2021-07-10T14:34:47Z</time>
      </trkpt>
      <trkpt lat="44.13069" lon="6.73823">
        <ele>1505.5018538885</ele>
        <time>2021-07-10T14:34:49Z</time>
      </trkpt>
      <trkpt lat="44.1307" lon="6.73825">
        <ele>1506.5017998457</ele>
        <time>2021-07-10T14:34:50Z</time>
      </trkpt>
      <trkpt lat="44.1307" lon="6.73826">
        <ele>1506.5017657724</ele>
        <time>2021-07-10T14:34:51Z</time>
      </trkpt>
      <trkpt lat="44.1307" lon="6.73827">
        <ele>1506.5017280343</ele>
        <time>2021-07-10T14:34:52Z</time>
      </trkpt>
      <trkpt lat="44.13072" lon="6.73829">
        <ele>1506.501628082</ele>
        <time>2021-07-10T14:34:54Z</time>
      </trkpt>
      <trkpt lat="44.13072" lon="6.7383">
        <ele>1507.5015984495</ele>
        <time>2021-07-10T14:34:55Z</time>
      </trkpt>
      <trkpt lat="44.13072" lon="6.73831">
        <ele>1507.5015533636</ele>
        <time>2021-07-10T14:34:56Z</time>
      </trkpt>
      <trkpt lat="44.13073" lon="6.73832">
        <ele>1507.5015161327</ele>
        <time>2021-07-10T14:34:57Z</time>
      </trkpt>
      <trkpt lat="44.13073" lon="6.73836">
        <ele>1508.5014292384</ele>
        <time>2021-07-10T14:34:59Z</time>
      </trkpt>
      <trkpt lat="44.13074" lon="6.73837">
        <ele>1508.5013541259</ele>
        <time>2021-07-10T14:35:00Z</time>
      </trkpt>
      <trkpt lat="44.13075" lon="6.73839">
        <ele>1508.5012739274</ele>
        <time>2021-07-10T14:35:01Z</time>
      </trkpt>
      <trkpt lat="44.13076" lon="6.7384">
        <ele>1508.501212382</ele>
        <time>2021-07-10T14:35:02Z</time>
      </trkpt>
      <trkpt lat="44.13077" lon="6.73844">
        <ele>1508.5011050396</ele>
        <time>2021-07-10T14:35:04Z</time>
      </trkpt>
      <trkpt lat="44.13078" lon="6.73845">
        <ele>1509.5010318466</ele>
        <time>2021-07-10T14:35:05Z</time>
      </trkpt>
      <trkpt lat="44.13081" lon="6.73848">
        <ele>1509.5008710015</ele>
        <time>2021-07-10T14:35:07Z</time>
      </trkpt>
      <trkpt lat="44.13082" lon="6.73851">
        <ele>1508.5007715751</ele>
        <time>2021-07-10T14:35:09Z</time>
      </trkpt>
      <trkpt lat="44.13083" lon="6.73852">
        <ele>1508.500701899</ele>
        <time>2021-07-10T14:35:10Z</time>
      </trkpt>
      <trkpt lat="44.13084" lon="6.73854">
        <ele>1509.5006292616</ele>
        <time>2021-07-10T14:35:11Z</time>
      </trkpt>
      <trkpt lat="44.13086" lon="6.73855">
        <ele>1509.5005308019</ele>
        <time>2021-07-10T14:35:13Z</time>
      </trkpt>
      <trkpt lat="44.13086" lon="6.73857">
        <ele>1509.5004865592</ele>
        <time>2021-07-10T14:35:14Z</time>
      </trkpt>
      <trkpt lat="44.13087" lon="6.73858">
        <ele>1509.5004519305</ele>
        <time>2021-07-10T14:35:15Z</time>
      </trkpt>
      <trkpt lat="44.13087" lon="6.7386">
        <ele>1509.5003806478</ele>
        <time>2021-07-10T14:35:17Z</time>
      </trkpt>
      <trkpt lat="44.13088" lon="6.73863">
        <ele>1509.5002810893</ele>
        <time>2021-07-10T14:35:19Z</time>
      </trkpt>
      <trkpt lat="44.13088" lon="6.73864">
        <ele>1509.5002558028</ele>
        <time>2021-07-10T14:35:20Z</time>
      </trkpt>
      <trkpt lat="44.13088" lon="6.73865">
        <ele>1508.5002505106</ele>
        <time>2021-07-10T14:35:21Z</time>
      </trkpt>
      <trkpt lat="44.13089" lon="6.73866">
        <ele>1509.5002126753</ele>
        <time>2021-07-10T14:35:22Z</time>
      </trkpt>
      <trkpt lat="44.1309" lon="6.73868">
        <ele>1508.5001301753</ele>
        <time>2021-07-10T14:35:24Z</time>
      </trkpt>
      <trkpt lat="44.13091" lon="6.73869">
        <ele>1509.5000722149</ele>
        <time>2021-07-10T14:35:25Z</time>
      </trkpt>
      <trkpt lat="44.13091" lon="6.7387">
        <ele>1508.5000165385</ele>
        <time>2021-07-10T14:35:26Z</time>
      </trkpt>
      <trkpt lat="44.13093" lon="6.73873">
        <ele>1507.4998944501</ele>
        <time>2021-07-10T14:35:28Z</time>
      </trkpt>
      <trkpt lat="44.13093" lon="6.73874">
        <ele>1507.4998647917</ele>
        <time>2021-07-10T14:35:29Z</time>
      </trkpt>
      <trkpt lat="44.13094" lon="6.73875">
        <ele>1507.4998134268</ele>
        <time>2021-07-10T14:35:30Z</time>
      </trkpt>
      <trkpt lat="44.13095" lon="6.73876">
        <ele>1508.4997707824</ele>
        <time>2021-07-10T14:35:31Z</time>
      </trkpt>
      <trkpt lat="44.13095" lon="6.73877">
        <ele>1507.4997200677</ele>
        <time>2021-07-10T14:35:33Z</time>
      </trkpt>
      <trkpt lat="44.13096" lon="6.73878">
        <ele>1506.4996839541</ele>
        <time>2021-07-10T14:35:34Z</time>
      </trkpt>
      <trkpt lat="44.13096" lon="6.73878">
        <ele>1505.4996630505</ele>
        <time>2021-07-10T14:35:35Z</time>
      </trkpt>
      <trkpt lat="44.13096" lon="6.73879">
        <ele>1505.4996398159</ele>
        <time>2021-07-10T14:35:36Z</time>
      </trkpt>
      <trkpt lat="44.13097" lon="6.7388">
        <ele>1506.4996056763</ele>
        <time>2021-07-10T14:35:37Z</time>
      </trkpt>
      <trkpt lat="44.13097" lon="6.73881">
        <ele>1505.4995727236</ele>
        <time>2021-07-10T14:35:38Z</time>
      </trkpt>
      <trkpt lat="44.13098" lon="6.73882">
        <ele>1505.4995209505</ele>
        <time>2021-07-10T14:35:39Z</time>
      </trkpt>
      <trkpt lat="44.13098" lon="6.73884">
        <ele>1505.499471143</ele>
        <time>2021-07-10T14:35:40Z</time>
      </trkpt>
      <trkpt lat="44.13098" lon="6.73885">
        <ele>1505.4994405474</ele>
        <time>2021-07-10T14:35:41Z</time>
      </trkpt>
      <trkpt lat="44.131" lon="6.73886">
        <ele>1504.4993723323</ele>
        <time>2021-07-10T14:35:42Z</time>
      </trkpt>
      <trkpt lat="44.13101" lon="6.73889">
        <ele>1505.4992466773</ele>
        <time>2021-07-10T14:35:44Z</time>
      </trkpt>
      <trkpt lat="44.13102" lon="6.7389">
        <ele>1505.4991831825</ele>
        <time>2021-07-10T14:35:45Z</time>
      </trkpt>
      <trkpt lat="44.13103" lon="6.73891">
        <ele>1504.4991402629</ele>
        <time>2021-07-10T14:35:46Z</time>
      </trkpt>
      <trkpt lat="44.13103" lon="6.73892">
        <ele>1504.4991084743</ele>
        <time>2021-07-10T14:35:47Z</time>
      </trkpt>
      <trkpt lat="44.13104" lon="6.73892">
        <ele>1503.4990688674</ele>
        <time>2021-07-10T14:35:48Z</time>
      </trkpt>
      <trkpt lat="44.13105" lon="6.73892">
        <ele>1503.4990140835</ele>
        <time>2021-07-10T14:35:49Z</time>
      </trkpt>
      <trkpt lat="44.13106" lon="6.73893">
        <ele>1502.498988086</ele>
        <time>2021-07-10T14:35:51Z</time>
      </trkpt>
      <trkpt lat="44.13106" lon="6.73894">
        <ele>1501.4989446855</ele>
        <time>2021-07-10T14:35:52Z</time>
      </trkpt>
      <trkpt lat="44.13106" lon="6.73894">
        <ele>1501.4989446855</ele>
        <time>2021-07-10T14:35:54Z</time>
      </trkpt>
      <trkpt lat="44.13108" lon="6.73895">
        <ele>1502.4988512274</ele>
        <time>2021-07-10T14:35:55Z</time>
      </trkpt>
      <trkpt lat="44.13109" lon="6.73895">
        <ele>1502.4988300793</ele>
        <time>2021-07-10T14:35:56Z</time>
      </trkpt>
      <trkpt lat="44.13109" lon="6.73895">
        <ele>1503.498804405</ele>
        <time>2021-07-10T14:35:57Z</time>
      </trkpt>
      <trkpt lat="44.1311" lon="6.73895">
        <ele>1503.4987842537</ele>
        <time>2021-07-10T14:36:06Z</time>
      </trkpt>
      <trkpt lat="44.1311" lon="6.73896">
        <ele>1502.4987544988</ele>
        <time>2021-07-10T14:36:08Z</time>
      </trkpt>
      <trkpt lat="44.13111" lon="6.73897">
        <ele>1502.4987063313</ele>
        <time>2021-07-10T14:36:09Z</time>
      </trkpt>
      <trkpt lat="44.13112" lon="6.73896">
        <ele>1501.4986672714</ele>
        <time>2021-07-10T14:36:10Z</time>
      </trkpt>
      <trkpt lat="44.13114" lon="6.73896">
        <ele>1500.4986105744</ele>
        <time>2021-07-10T14:36:11Z</time>
      </trkpt>
      <trkpt lat="44.13117" lon="6.73896">
        <ele>1499.4984986363</ele>
        <time>2021-07-10T14:36:13Z</time>
      </trkpt>
      <trkpt lat="44.13118" lon="6.73896">
        <ele>1499.4984425506</ele>
        <time>2021-07-10T14:36:14Z</time>
      </trkpt>
      <trkpt lat="44.1312" lon="6.73896">
        <ele>1499.4983942194</ele>
        <time>2021-07-10T14:36:15Z</time>
      </trkpt>
      <trkpt lat="44.13122" lon="6.73897">
        <ele>1499.4982795151</ele>
        <time>2021-07-10T14:36:17Z</time>
      </trkpt>
      <trkpt lat="44.13124" lon="6.739">
        <ele>1498.4981481986</ele>
        <time>2021-07-10T14:36:19Z</time>
      </trkpt>
      <trkpt lat="44.13124" lon="6.73902">
        <ele>1498.4980812697</ele>
        <time>2021-07-10T14:36:20Z</time>
      </trkpt>
      <trkpt lat="44.13125" lon="6.73903">
        <ele>1497.4980424444</ele>
        <time>2021-07-10T14:36:21Z</time>
      </trkpt>
      <trkpt lat="44.13126" lon="6.73906">
        <ele>1497.497949649</ele>
        <time>2021-07-10T14:36:23Z</time>
      </trkpt>
      <trkpt lat="44.13127" lon="6.73907">
        <ele>1497.4978855524</ele>
        <time>2021-07-10T14:36:24Z</time>
      </trkpt>
      <trkpt lat="44.13128" lon="6.73909">
        <ele>1496.4978149541</ele>
        <time>2021-07-10T14:36:25Z</time>
      </trkpt>
      <trkpt lat="44.13128" lon="6.7391">
        <ele>1496.4977601458</ele>
        <time>2021-07-10T14:36:26Z</time>
      </trkpt>
      <trkpt lat="44.1313" lon="6.73912">
        <ele>1496.4976541854</ele>
        <time>2021-07-10T14:36:28Z</time>
      </trkpt>
      <trkpt lat="44.13131" lon="6.73912">
        <ele>1496.4976196742</ele>
        <time>2021-07-10T14:36:29Z</time>
      </trkpt>
      <trkpt lat="44.13131" lon="6.73914">
        <ele>1495.4976007274</ele>
        <time>2021-07-10T14:36:30Z</time>
      </trkpt>
      <trkpt lat="44.13131" lon="6.73915">
        <ele>1495.4975795359</ele>
        <time>2021-07-10T14:36:31Z</time>
      </trkpt>
      <trkpt lat="44.13131" lon="6.73915">
        <ele>1495.4975581878</ele>
        <time>2021-07-10T14:36:32Z</time>
      </trkpt>
      <trkpt lat="44.13131" lon="6.73917">
        <ele>1495.4975268457</ele>
        <time>2021-07-10T14:36:33Z</time>
      </trkpt>
      <trkpt lat="44.13131" lon="6.73917">
        <ele>1496.4975021069</ele>
        <time>2021-07-10T14:36:34Z</time>
      </trkpt>
      <trkpt lat="44.13132" lon="6.73918">
        <ele>1496.4974747384</ele>
        <time>2021-07-10T14:36:37Z</time>
      </trkpt>
      <trkpt lat="44.13133" lon="6.73919">
        <ele>1495.4973835555</ele>
        <time>2021-07-10T14:36:38Z</time>
      </trkpt>
      <trkpt lat="44.13134" lon="6.7392">
        <ele>1496.4973590933</ele>
        <time>2021-07-10T14:36:39Z</time>
      </trkpt>
      <trkpt lat="44.13134" lon="6.7392">
        <ele>1496.4973248307</ele>
        <time>2021-07-10T14:36:40Z</time>
      </trkpt>
      <trkpt lat="44.13135" lon="6.73921">
        <ele>1496.4972804547</ele>
        <time>2021-07-10T14:36:41Z</time>
      </trkpt>
      <trkpt lat="44.13137" lon="6.73922">
        <ele>1495.4971885898</ele>
        <time>2021-07-10T14:36:43Z</time>
      </trkpt>
      <trkpt lat="44.13138" lon="6.73923">
        <ele>1495.4971292165</ele>
        <time>2021-07-10T14:36:44Z</time>
      </trkpt>
      <trkpt lat="44.13139" lon="6.73924">
        <ele>1494.4970484016</ele>
        <time>2021-07-10T14:36:45Z</time>
      </trkpt>
      <trkpt lat="44.13141" lon="6.73925">
        <ele>1493.4969787532</ele>
        <time>2021-07-10T14:36:46Z</time>
      </trkpt>
      <trkpt lat="44.13143" lon="6.73928">
        <ele>1492.4968330607</ele>
        <time>2021-07-10T14:36:48Z</time>
      </trkpt>
      <trkpt lat="44.13144" lon="6.73929">
        <ele>1492.4967674948</ele>
        <time>2021-07-10T14:36:49Z</time>
      </trkpt>
      <trkpt lat="44.13145" lon="6.73931">
        <ele>1491.4966999318</ele>
        <time>2021-07-10T14:36:50Z</time>
      </trkpt>
      <trkpt lat="44.13147" lon="6.73932">
        <ele>1490.4965952553</ele>
        <time>2021-07-10T14:36:52Z</time>
      </trkpt>
      <trkpt lat="44.13147" lon="6.73933">
        <ele>1490.4965489812</ele>
        <time>2021-07-10T14:36:53Z</time>
      </trkpt>
      <trkpt lat="44.13148" lon="6.73935">
        <ele>1490.4964910904</ele>
        <time>2021-07-10T14:36:54Z</time>
      </trkpt>
      <trkpt lat="44.13149" lon="6.73935">
        <ele>1490.4964484133</ele>
        <time>2021-07-10T14:36:55Z</time>
      </trkpt>
      <trkpt lat="44.1315" lon="6.73936">
        <ele>1490.4963967348</ele>
        <time>2021-07-10T14:36:56Z</time>
      </trkpt>
      <trkpt lat="44.1315" lon="6.73937">
        <ele>1489.4963605084</ele>
        <time>2021-07-10T14:36:57Z</time>
      </trkpt>
      <trkpt lat="44.13152" lon="6.73938">
        <ele>1489.4962939693</ele>
        <time>2021-07-10T14:36:59Z</time>
      </trkpt>
      <trkpt lat="44.13153" lon="6.73938">
        <ele>1489.4962378863</ele>
        <time>2021-07-10T14:37:00Z</time>
      </trkpt>
      <trkpt lat="44.13154" lon="6.7394">
        <ele>1489.4961760147</ele>
        <time>2021-07-10T14:37:01Z</time>
      </trkpt>
      <trkpt lat="44.13154" lon="6.73941">
        <ele>1489.4961279863</ele>
        <time>2021-07-10T14:37:02Z</time>
      </trkpt>
      <trkpt lat="44.13155" lon="6.73943">
        <ele>1489.4960688885</ele>
        <time>2021-07-10T14:37:03Z</time>
      </trkpt>
      <trkpt lat="44.13156" lon="6.73944">
        <ele>1489.4960008876</ele>
        <time>2021-07-10T14:37:04Z</time>
      </trkpt>
      <trkpt lat="44.13157" lon="6.73945">
        <ele>1489.4959351447</ele>
        <time>2021-07-10T14:37:05Z</time>
      </trkpt>
      <trkpt lat="44.13158" lon="6.73946">
        <ele>1489.4958733042</ele>
        <time>2021-07-10T14:37:06Z</time>
      </trkpt>
      <trkpt lat="44.13159" lon="6.73947">
        <ele>1488.4958129654</ele>
        <time>2021-07-10T14:37:07Z</time>
      </trkpt>
      <trkpt lat="44.13159" lon="6.73948">
        <ele>1488.4957759033</ele>
        <time>2021-07-10T14:37:08Z</time>
      </trkpt>
      <trkpt lat="44.1316" lon="6.73949">
        <ele>1487.4957340094</ele>
        <time>2021-07-10T14:37:09Z</time>
      </trkpt>
      <trkpt lat="44.13161" lon="6.73949">
        <ele>1487.4956966154</ele>
        <time>2021-07-10T14:37:10Z</time>
      </trkpt>
      <trkpt lat="44.13162" lon="6.73951">
        <ele>1487.495594364</ele>
        <time>2021-07-10T14:37:12Z</time>
      </trkpt>
      <trkpt lat="44.13164" lon="6.73954">
        <ele>1487.4954961875</ele>
        <time>2021-07-10T14:37:14Z</time>
      </trkpt>
      <trkpt lat="44.13165" lon="6.73955">
        <ele>1487.4954314799</ele>
        <time>2021-07-10T14:37:15Z</time>
      </trkpt>
      <trkpt lat="44.13165" lon="6.73956">
        <ele>1487.495387113</ele>
        <time>2021-07-10T14:37:16Z</time>
      </trkpt>
      <trkpt lat="44.13166" lon="6.73958">
        <ele>1487.4952901568</ele>
        <time>2021-07-10T14:37:18Z</time>
      </trkpt>
      <trkpt lat="44.13167" lon="6.73959">
        <ele>1486.4952402347</ele>
        <time>2021-07-10T14:37:19Z</time>
      </trkpt>
      <trkpt lat="44.13169" lon="6.73959">
        <ele>1487.4951822901</ele>
        <time>2021-07-10T14:37:20Z</time>
      </trkpt>
      <trkpt lat="44.13171" lon="6.73961">
        <ele>1488.4950597899</ele>
        <time>2021-07-10T14:37:22Z</time>
      </trkpt>
      <trkpt lat="44.13172" lon="6.73962">
        <ele>1488.4949889951</ele>
        <time>2021-07-10T14:37:24Z</time>
      </trkpt>
      <trkpt lat="44.13171" lon="6.73962">
        <ele>1487.4950201359</ele>
        <time>2021-07-10T14:37:26Z</time>
      </trkpt>
      <trkpt lat="44.13171" lon="6.73962">
        <ele>1486.4950472658</ele>
        <time>2021-07-10T14:37:27Z</time>
      </trkpt>
      <trkpt lat="44.13171" lon="6.73963">
        <ele>1482.4950377343</ele>
        <time>2021-07-10T14:37:37Z</time>
      </trkpt>
      <trkpt lat="44.1317" lon="6.73963">
        <ele>1481.495060365</ele>
        <time>2021-07-10T14:37:38Z</time>
      </trkpt>
      <trkpt lat="44.1317" lon="6.73963">
        <ele>1481.4950730842</ele>
        <time>2021-07-10T14:37:40Z</time>
      </trkpt>
      <trkpt lat="44.13169" lon="6.73962">
        <ele>1482.4951148993</ele>
        <time>2021-07-10T14:37:44Z</time>
      </trkpt>
      <trkpt lat="44.13168" lon="6.73962">
        <ele>1482.4951367573</ele>
        <time>2021-07-10T14:38:31Z</time>
      </trkpt>
      <trkpt lat="44.13168" lon="6.73962">
        <ele>1481.4951602073</ele>
        <time>2021-07-10T14:38:32Z</time>
      </trkpt>
      <trkpt lat="44.13169" lon="6.73962">
        <ele>1482.4951172485</ele>
        <time>2021-07-10T14:38:34Z</time>
      </trkpt>
      <trkpt lat="44.13169" lon="6.73963">
        <ele>1482.4950835617</ele>
        <time>2021-07-10T14:38:35Z</time>
      </trkpt>
      <trkpt lat="44.1317" lon="6.73963">
        <ele>1481.495042501</ele>
        <time>2021-07-10T14:38:36Z</time>
      </trkpt>
      <trkpt lat="44.13172" lon="6.73966">
        <ele>1481.4949198457</ele>
        <time>2021-07-10T14:38:38Z</time>
      </trkpt>
      <trkpt lat="44.13173" lon="6.73967">
        <ele>1481.494860838</ele>
        <time>2021-07-10T14:38:39Z</time>
      </trkpt>
      <trkpt lat="44.13173" lon="6.73969">
        <ele>1481.4948200598</ele>
        <time>2021-07-10T14:38:40Z</time>
      </trkpt>
      <trkpt lat="44.13174" lon="6.73972">
        <ele>1481.4947260535</ele>
        <time>2021-07-10T14:38:42Z</time>
      </trkpt>
      <trkpt lat="44.13173" lon="6.73974">
        <ele>1481.4946911638</ele>
        <time>2021-07-10T14:38:44Z</time>
      </trkpt>
      <trkpt lat="44.13173" lon="6.73976">
        <ele>1481.4946843168</ele>
        <time>2021-07-10T14:38:45Z</time>
      </trkpt>
      <trkpt lat="44.13172" lon="6.73977">
        <ele>1481.4946695074</ele>
        <time>2021-07-10T14:38:46Z</time>
      </trkpt>
      <trkpt lat="44.13172" lon="6.73979">
        <ele>1481.494640701</ele>
        <time>2021-07-10T14:38:48Z</time>
      </trkpt>
      <trkpt lat="44.13171" lon="6.73981">
        <ele>1481.4946153145</ele>
        <time>2021-07-10T14:38:49Z</time>
      </trkpt>
      <trkpt lat="44.13171" lon="6.73983">
        <ele>1481.4945938769</ele>
        <time>2021-07-10T14:38:50Z</time>
      </trkpt>
      <trkpt lat="44.1317" lon="6.73987">
        <ele>1482.4945403057</ele>
        <time>2021-07-10T14:38:52Z</time>
      </trkpt>
      <trkpt lat="44.1317" lon="6.73989">
        <ele>1482.494518607</ele>
        <time>2021-07-10T14:38:53Z</time>
      </trkpt>
      <trkpt lat="44.13169" lon="6.73991">
        <ele>1483.4944978703</ele>
        <time>2021-07-10T14:38:54Z</time>
      </trkpt>
      <trkpt lat="44.13169" lon="6.73993">
        <ele>1482.4944545307</ele>
        <time>2021-07-10T14:38:55Z</time>
      </trkpt>
      <trkpt lat="44.13169" lon="6.73995">
        <ele>1482.4944337559</ele>
        <time>2021-07-10T14:38:56Z</time>
      </trkpt>
      <trkpt lat="44.13168" lon="6.73996">
        <ele>1482.4944280964</ele>
        <time>2021-07-10T14:38:57Z</time>
      </trkpt>
      <trkpt lat="44.13168" lon="6.73997">
        <ele>1482.4944184678</ele>
        <time>2021-07-10T14:38:58Z</time>
      </trkpt>
      <trkpt lat="44.13167" lon="6.73999">
        <ele>1482.4944087838</ele>
        <time>2021-07-10T14:38:59Z</time>
      </trkpt>
      <trkpt lat="44.13167" lon="6.74001">
        <ele>1482.4943964051</ele>
        <time>2021-07-10T14:39:00Z</time>
      </trkpt>
      <trkpt lat="44.13166" lon="6.74002">
        <ele>1482.4943624384</ele>
        <time>2021-07-10T14:39:01Z</time>
      </trkpt>
      <trkpt lat="44.13166" lon="6.74004">
        <ele>1482.494330022</ele>
        <time>2021-07-10T14:39:02Z</time>
      </trkpt>
      <trkpt lat="44.13166" lon="6.74005">
        <ele>1483.4943073308</ele>
        <time>2021-07-10T14:39:03Z</time>
      </trkpt>
      <trkpt lat="44.13166" lon="6.74007">
        <ele>1483.4942699972</ele>
        <time>2021-07-10T14:39:04Z</time>
      </trkpt>
      <trkpt lat="44.13166" lon="6.74007">
        <ele>1482.4942666835</ele>
        <time>2021-07-10T14:39:05Z</time>
      </trkpt>
      <trkpt lat="44.13166" lon="6.74008">
        <ele>1482.4942819136</ele>
        <time>2021-07-10T14:39:06Z</time>
      </trkpt>
      <trkpt lat="44.13165" lon="6.74009">
        <ele>1482.4942843665</ele>
        <time>2021-07-10T14:39:07Z</time>
      </trkpt>
      <trkpt lat="44.13164" lon="6.7401">
        <ele>1483.4942839872</ele>
        <time>2021-07-10T14:39:08Z</time>
      </trkpt>
      <trkpt lat="44.13164" lon="6.74012">
        <ele>1483.4942593619</ele>
        <time>2021-07-10T14:39:09Z</time>
      </trkpt>
      <trkpt lat="44.13164" lon="6.74014">
        <ele>1483.4942293485</ele>
        <time>2021-07-10T14:39:10Z</time>
      </trkpt>
      <trkpt lat="44.13163" lon="6.74015">
        <ele>1484.4942011457</ele>
        <time>2021-07-10T14:39:11Z</time>
      </trkpt>
      <trkpt lat="44.13163" lon="6.74017">
        <ele>1484.4941857868</ele>
        <time>2021-07-10T14:39:12Z</time>
      </trkpt>
      <trkpt lat="44.13163" lon="6.74018">
        <ele>1484.4941570677</ele>
        <time>2021-07-10T14:39:13Z</time>
      </trkpt>
      <trkpt lat="44.13163" lon="6.74018">
        <ele>1484.4941449116</ele>
        <time>2021-07-10T14:39:14Z</time>
      </trkpt>
      <trkpt lat="44.13163" lon="6.7402">
        <ele>1484.4941188501</ele>
        <time>2021-07-10T14:39:15Z</time>
      </trkpt>
      <trkpt lat="44.13163" lon="6.74021">
        <ele>1485.4941022838</ele>
        <time>2021-07-10T14:39:16Z</time>
      </trkpt>
      <trkpt lat="44.13162" lon="6.74023">
        <ele>1485.4940901942</ele>
        <time>2021-07-10T14:39:17Z</time>
      </trkpt>
      <trkpt lat="44.13162" lon="6.74024">
        <ele>1484.494078283</ele>
        <time>2021-07-10T14:39:18Z</time>
      </trkpt>
      <trkpt lat="44.13161" lon="6.74026">
        <ele>1484.4940626179</ele>
        <time>2021-07-10T14:39:19Z</time>
      </trkpt>
      <trkpt lat="44.13161" lon="6.74027">
        <ele>1484.4940583965</ele>
        <time>2021-07-10T14:39:20Z</time>
      </trkpt>
      <trkpt lat="44.1316" lon="6.74029">
        <ele>1483.4940458159</ele>
        <time>2021-07-10T14:39:21Z</time>
      </trkpt>
      <trkpt lat="44.13159" lon="6.74031">
        <ele>1483.4940389556</ele>
        <time>2021-07-10T14:39:22Z</time>
      </trkpt>
      <trkpt lat="44.13158" lon="6.74033">
        <ele>1482.4940281027</ele>
        <time>2021-07-10T14:39:23Z</time>
      </trkpt>
      <trkpt lat="44.13158" lon="6.74035">
        <ele>1482.4939952442</ele>
        <time>2021-07-10T14:39:24Z</time>
      </trkpt>
      <trkpt lat="44.13158" lon="6.74037">
        <ele>1483.4939760639</ele>
        <time>2021-07-10T14:39:25Z</time>
      </trkpt>
      <trkpt lat="44.13156" lon="6.74041">
        <ele>1485.4939428356</ele>
        <time>2021-07-10T14:39:27Z</time>
      </trkpt>
      <trkpt lat="44.13156" lon="6.74043">
        <ele>1485.4939241321</ele>
        <time>2021-07-10T14:39:28Z</time>
      </trkpt>
      <trkpt lat="44.13155" lon="6.74044">
        <ele>1485.4939113716</ele>
        <time>2021-07-10T14:39:29Z</time>
      </trkpt>
      <trkpt lat="44.13155" lon="6.74046">
        <ele>1485.4938967854</ele>
        <time>2021-07-10T14:39:30Z</time>
      </trkpt>
      <trkpt lat="44.13154" lon="6.74047">
        <ele>1485.4938850908</ele>
        <time>2021-07-10T14:39:31Z</time>
      </trkpt>
      <trkpt lat="44.13153" lon="6.74051">
        <ele>1486.4938790936</ele>
        <time>2021-07-10T14:39:33Z</time>
      </trkpt>
      <trkpt lat="44.13152" lon="6.74052">
        <ele>1486.4938865793</ele>
        <time>2021-07-10T14:39:34Z</time>
      </trkpt>
      <trkpt lat="44.13151" lon="6.74053">
        <ele>1485.4938836824</ele>
        <time>2021-07-10T14:39:35Z</time>
      </trkpt>
      <trkpt lat="44.13151" lon="6.74057">
        <ele>1485.4938139317</ele>
        <time>2021-07-10T14:39:37Z</time>
      </trkpt>
      <trkpt lat="44.1315" lon="6.74059">
        <ele>1485.4937783273</ele>
        <time>2021-07-10T14:39:38Z</time>
      </trkpt>
      <trkpt lat="44.13149" lon="6.74062">
        <ele>1485.4937685517</ele>
        <time>2021-07-10T14:39:39Z</time>
      </trkpt>
      <trkpt lat="44.13149" lon="6.74063">
        <ele>1485.493773556</ele>
        <time>2021-07-10T14:39:40Z</time>
      </trkpt>
      <trkpt lat="44.13148" lon="6.74064">
        <ele>1485.4937804158</ele>
        <time>2021-07-10T14:39:41Z</time>
      </trkpt>
      <trkpt lat="44.13147" lon="6.74065">
        <ele>1486.4937747442</ele>
        <time>2021-07-10T14:39:42Z</time>
      </trkpt>
      <trkpt lat="44.13146" lon="6.74068">
        <ele>1486.4937645502</ele>
        <time>2021-07-10T14:39:43Z</time>
      </trkpt>
      <trkpt lat="44.13146" lon="6.74069">
        <ele>1486.4937569057</ele>
        <time>2021-07-10T14:39:44Z</time>
      </trkpt>
      <trkpt lat="44.13145" lon="6.7407">
        <ele>1487.4937591435</ele>
        <time>2021-07-10T14:39:45Z</time>
      </trkpt>
      <trkpt lat="44.13143" lon="6.74072">
        <ele>1486.4937903469</ele>
        <time>2021-07-10T14:39:47Z</time>
      </trkpt>
      <trkpt lat="44.13142" lon="6.74073">
        <ele>1487.4937971071</ele>
        <time>2021-07-10T14:39:48Z</time>
      </trkpt>
      <trkpt lat="44.13142" lon="6.74074">
        <ele>1487.4937943881</ele>
        <time>2021-07-10T14:39:49Z</time>
      </trkpt>
      <trkpt lat="44.13141" lon="6.74076">
        <ele>1487.4937962156</ele>
        <time>2021-07-10T14:39:50Z</time>
      </trkpt>
      <trkpt lat="44.1314" lon="6.74078">
        <ele>1486.4938111214</ele>
        <time>2021-07-10T14:39:51Z</time>
      </trkpt>
      <trkpt lat="44.13139" lon="6.74079">
        <ele>1487.4938061619</ele>
        <time>2021-07-10T14:39:52Z</time>
      </trkpt>
      <trkpt lat="44.13138" lon="6.7408">
        <ele>1486.4938161795</ele>
        <time>2021-07-10T14:39:53Z</time>
      </trkpt>
      <trkpt lat="44.13137" lon="6.74081">
        <ele>1486.4938358598</ele>
        <time>2021-07-10T14:39:54Z</time>
      </trkpt>
      <trkpt lat="44.13136" lon="6.74083">
        <ele>1486.4938470446</ele>
        <time>2021-07-10T14:39:55Z</time>
      </trkpt>
      <trkpt lat="44.13134" lon="6.74086">
        <ele>1487.4938694435</ele>
        <time>2021-07-10T14:39:57Z</time>
      </trkpt>
      <trkpt lat="44.13133" lon="6.74087">
        <ele>1487.4938893478</ele>
        <time>2021-07-10T14:39:58Z</time>
      </trkpt>
      <trkpt lat="44.13131" lon="6.74088">
        <ele>1487.4939148762</ele>
        <time>2021-07-10T14:39:59Z</time>
      </trkpt>
      <trkpt lat="44.1313" lon="6.74088">
        <ele>1486.4939526967</ele>
        <time>2021-07-10T14:40:00Z</time>
      </trkpt>
      <trkpt lat="44.13129" lon="6.74089">
        <ele>1486.4939671904</ele>
        <time>2021-07-10T14:40:01Z</time>
      </trkpt>
      <trkpt lat="44.13128" lon="6.74091">
        <ele>1486.4939907094</ele>
        <time>2021-07-10T14:40:02Z</time>
      </trkpt>
      <trkpt lat="44.13126" lon="6.74091">
        <ele>1485.4940324714</ele>
        <time>2021-07-10T14:40:03Z</time>
      </trkpt>
      <trkpt lat="44.13125" lon="6.74091">
        <ele>1484.4940779853</ele>
        <time>2021-07-10T14:40:04Z</time>
      </trkpt>
      <trkpt lat="44.13124" lon="6.74092">
        <ele>1484.4941123002</ele>
        <time>2021-07-10T14:40:05Z</time>
      </trkpt>
      <trkpt lat="44.13123" lon="6.74093">
        <ele>1484.4941496408</ele>
        <time>2021-07-10T14:40:06Z</time>
      </trkpt>
      <trkpt lat="44.1312" lon="6.74094">
        <ele>1483.4942419176</ele>
        <time>2021-07-10T14:40:08Z</time>
      </trkpt>
      <trkpt lat="44.13118" lon="6.74094">
        <ele>1483.4942810039</ele>
        <time>2021-07-10T14:40:09Z</time>
      </trkpt>
      <trkpt lat="44.13118" lon="6.74095">
        <ele>1482.4942997491</ele>
        <time>2021-07-10T14:40:10Z</time>
      </trkpt>
      <trkpt lat="44.13116" lon="6.74095">
        <ele>1482.4943636427</ele>
        <time>2021-07-10T14:40:12Z</time>
      </trkpt>
      <trkpt lat="44.13114" lon="6.74096">
        <ele>1481.4943998658</ele>
        <time>2021-07-10T14:40:13Z</time>
      </trkpt>
      <trkpt lat="44.13113" lon="6.74097">
        <ele>1480.4944245306</ele>
        <time>2021-07-10T14:40:14Z</time>
      </trkpt>
      <trkpt lat="44.13112" lon="6.74097">
        <ele>1480.4944471984</ele>
        <time>2021-07-10T14:40:15Z</time>
      </trkpt>
      <trkpt lat="44.13111" lon="6.74098">
        <ele>1479.4944817266</ele>
        <time>2021-07-10T14:40:16Z</time>
      </trkpt>
      <trkpt lat="44.1311" lon="6.74099">
        <ele>1479.4945079894</ele>
        <time>2021-07-10T14:40:17Z</time>
      </trkpt>
      <trkpt lat="44.13108" lon="6.741">
        <ele>1480.4945403939</ele>
        <time>2021-07-10T14:40:18Z</time>
      </trkpt>
      <trkpt lat="44.13107" lon="6.74102">
        <ele>1479.4945704707</ele>
        <time>2021-07-10T14:40:19Z</time>
      </trkpt>
      <trkpt lat="44.13105" lon="6.74102">
        <ele>1479.4946089348</ele>
        <time>2021-07-10T14:40:20Z</time>
      </trkpt>
      <trkpt lat="44.13104" lon="6.74103">
        <ele>1479.4946536332</ele>
        <time>2021-07-10T14:40:21Z</time>
      </trkpt>
      <trkpt lat="44.13103" lon="6.74104">
        <ele>1479.4946696667</ele>
        <time>2021-07-10T14:40:22Z</time>
      </trkpt>
      <trkpt lat="44.13102" lon="6.74104">
        <ele>1479.4946971065</ele>
        <time>2021-07-10T14:40:23Z</time>
      </trkpt>
      <trkpt lat="44.13101" lon="6.74105">
        <ele>1479.4947198741</ele>
        <time>2021-07-10T14:40:24Z</time>
      </trkpt>
      <trkpt lat="44.131" lon="6.74106">
        <ele>1479.494746834</ele>
        <time>2021-07-10T14:40:25Z</time>
      </trkpt>
      <trkpt lat="44.13097" lon="6.74108">
        <ele>1479.4948111378</ele>
        <time>2021-07-10T14:40:27Z</time>
      </trkpt>
      <trkpt lat="44.13096" lon="6.74108">
        <ele>1479.4948549646</ele>
        <time>2021-07-10T14:40:28Z</time>
      </trkpt>
      <trkpt lat="44.13095" lon="6.74109">
        <ele>1479.4948913171</ele>
        <time>2021-07-10T14:40:29Z</time>
      </trkpt>
      <trkpt lat="44.13094" lon="6.74109">
        <ele>1479.4949210548</ele>
        <time>2021-07-10T14:40:30Z</time>
      </trkpt>
      <trkpt lat="44.13093" lon="6.7411">
        <ele>1479.4949478698</ele>
        <time>2021-07-10T14:40:31Z</time>
      </trkpt>
      <trkpt lat="44.13092" lon="6.7411">
        <ele>1479.4949835047</ele>
        <time>2021-07-10T14:40:32Z</time>
      </trkpt>
      <trkpt lat="44.1309" lon="6.74111">
        <ele>1479.4950140798</ele>
        <time>2021-07-10T14:40:33Z</time>
      </trkpt>
      <trkpt lat="44.13089" lon="6.74112">
        <ele>1479.4950313837</ele>
        <time>2021-07-10T14:40:34Z</time>
      </trkpt>
      <trkpt lat="44.13088" lon="6.74113">
        <ele>1479.4950513372</ele>
        <time>2021-07-10T14:40:35Z</time>
      </trkpt>
      <trkpt lat="44.13087" lon="6.74114">
        <ele>1479.4950682549</ele>
        <time>2021-07-10T14:40:36Z</time>
      </trkpt>
      <trkpt lat="44.13086" lon="6.74115">
        <ele>1478.495066263</ele>
        <time>2021-07-10T14:40:37Z</time>
      </trkpt>
      <trkpt lat="44.13086" lon="6.74116">
        <ele>1478.4950663319</ele>
        <time>2021-07-10T14:40:38Z</time>
      </trkpt>
      <trkpt lat="44.13085" lon="6.74118">
        <ele>1477.4950628551</ele>
        <time>2021-07-10T14:40:39Z</time>
      </trkpt>
      <trkpt lat="44.13085" lon="6.74119">
        <ele>1477.495064494</ele>
        <time>2021-07-10T14:40:40Z</time>
      </trkpt>
      <trkpt lat="44.13084" lon="6.74121">
        <ele>1476.4950428092</ele>
        <time>2021-07-10T14:40:41Z</time>
      </trkpt>
      <trkpt lat="44.13084" lon="6.74123">
        <ele>1476.495021573</ele>
        <time>2021-07-10T14:40:42Z</time>
      </trkpt>
      <trkpt lat="44.13083" lon="6.74125">
        <ele>1476.4949995817</ele>
        <time>2021-07-10T14:40:43Z</time>
      </trkpt>
      <trkpt lat="44.13082" lon="6.74127">
        <ele>1476.4949777636</ele>
        <time>2021-07-10T14:40:44Z</time>
      </trkpt>
      <trkpt lat="44.13082" lon="6.74129">
        <ele>1475.4949568609</ele>
        <time>2021-07-10T14:40:45Z</time>
      </trkpt>
      <trkpt lat="44.13081" lon="6.74131">
        <ele>1474.4949459985</ele>
        <time>2021-07-10T14:40:46Z</time>
      </trkpt>
      <trkpt lat="44.1308" lon="6.74133">
        <ele>1474.4949310289</ele>
        <time>2021-07-10T14:40:47Z</time>
      </trkpt>
      <trkpt lat="44.1308" lon="6.74135">
        <ele>1474.4949145412</ele>
        <time>2021-07-10T14:40:48Z</time>
      </trkpt>
      <trkpt lat="44.13079" lon="6.74137">
        <ele>1474.4948978262</ele>
        <time>2021-07-10T14:40:49Z</time>
      </trkpt>
      <trkpt lat="44.13079" lon="6.74139">
        <ele>1474.4948820049</ele>
        <time>2021-07-10T14:40:50Z</time>
      </trkpt>
      <trkpt lat="44.13078" lon="6.74141">
        <ele>1473.4948764537</ele>
        <time>2021-07-10T14:40:51Z</time>
      </trkpt>
      <trkpt lat="44.13077" lon="6.74143">
        <ele>1472.4948689919</ele>
        <time>2021-07-10T14:40:52Z</time>
      </trkpt>
      <trkpt lat="44.13076" lon="6.74144">
        <ele>1472.4948729195</ele>
        <time>2021-07-10T14:40:53Z</time>
      </trkpt>
      <trkpt lat="44.13076" lon="6.74145">
        <ele>1471.4948706569</ele>
        <time>2021-07-10T14:40:54Z</time>
      </trkpt>
      <trkpt lat="44.13075" lon="6.74146">
        <ele>1471.4948590603</ele>
        <time>2021-07-10T14:40:55Z</time>
      </trkpt>
      <trkpt lat="44.13075" lon="6.74147">
        <ele>1471.4948396932</ele>
        <time>2021-07-10T14:40:56Z</time>
      </trkpt>
      <trkpt lat="44.13075" lon="6.74149">
        <ele>1470.494824834</ele>
        <time>2021-07-10T14:40:57Z</time>
      </trkpt>
      <trkpt lat="44.13074" lon="6.7415">
        <ele>1470.4948117854</ele>
        <time>2021-07-10T14:40:58Z</time>
      </trkpt>
      <trkpt lat="44.13074" lon="6.74152">
        <ele>1470.4947884072</ele>
        <time>2021-07-10T14:40:59Z</time>
      </trkpt>
      <trkpt lat="44.13073" lon="6.74154">
        <ele>1470.4947703793</ele>
        <time>2021-07-10T14:41:00Z</time>
      </trkpt>
      <trkpt lat="44.13073" lon="6.74156">
        <ele>1470.4947612569</ele>
        <time>2021-07-10T14:41:01Z</time>
      </trkpt>
      <trkpt lat="44.13072" lon="6.74156">
        <ele>1470.4947649068</ele>
        <time>2021-07-10T14:41:02Z</time>
      </trkpt>
      <trkpt lat="44.13071" lon="6.74158">
        <ele>1469.4947706712</ele>
        <time>2021-07-10T14:41:03Z</time>
      </trkpt>
      <trkpt lat="44.1307" lon="6.74159">
        <ele>1469.4947870675</ele>
        <time>2021-07-10T14:41:04Z</time>
      </trkpt>
      <trkpt lat="44.1307" lon="6.7416">
        <ele>1468.4947789776</ele>
        <time>2021-07-10T14:41:05Z</time>
      </trkpt>
      <trkpt lat="44.13069" lon="6.74161">
        <ele>1468.4947680348</ele>
        <time>2021-07-10T14:41:06Z</time>
      </trkpt>
      <trkpt lat="44.13069" lon="6.74163">
        <ele>1467.4947367435</ele>
        <time>2021-07-10T14:41:07Z</time>
      </trkpt>
      <trkpt lat="44.13069" lon="6.74164">
        <ele>1466.4947244071</ele>
        <time>2021-07-10T14:41:08Z</time>
      </trkpt>
      <trkpt lat="44.13069" lon="6.74165">
        <ele>1466.4946992085</ele>
        <time>2021-07-10T14:41:09Z</time>
      </trkpt>
      <trkpt lat="44.13069" lon="6.74166">
        <ele>1465.4946765428</ele>
        <time>2021-07-10T14:41:10Z</time>
      </trkpt>
      <trkpt lat="44.13069" lon="6.74168">
        <ele>1464.4946556246</ele>
        <time>2021-07-10T14:41:11Z</time>
      </trkpt>
      <trkpt lat="44.13068" lon="6.7417">
        <ele>1463.494626857</ele>
        <time>2021-07-10T14:41:12Z</time>
      </trkpt>
      <trkpt lat="44.13068" lon="6.74172">
        <ele>1464.4946146191</ele>
        <time>2021-07-10T14:41:13Z</time>
      </trkpt>
      <trkpt lat="44.13067" lon="6.74173">
        <ele>1464.4946061745</ele>
        <time>2021-07-10T14:41:14Z</time>
      </trkpt>
      <trkpt lat="44.13067" lon="6.74174">
        <ele>1464.4946034664</ele>
        <time>2021-07-10T14:41:15Z</time>
      </trkpt>
      <trkpt lat="44.13066" lon="6.74175">
        <ele>1464.4946007826</ele>
        <time>2021-07-10T14:41:16Z</time>
      </trkpt>
      <trkpt lat="44.13066" lon="6.74176">
        <ele>1464.4945929303</ele>
        <time>2021-07-10T14:41:17Z</time>
      </trkpt>
      <trkpt lat="44.13066" lon="6.74177">
        <ele>1465.4945786468</ele>
        <time>2021-07-10T14:41:18Z</time>
      </trkpt>
      <trkpt lat="44.13065" lon="6.74179">
        <ele>1464.4945675201</ele>
        <time>2021-07-10T14:41:19Z</time>
      </trkpt>
      <trkpt lat="44.13065" lon="6.7418">
        <ele>1464.494555715</ele>
        <time>2021-07-10T14:41:20Z</time>
      </trkpt>
      <trkpt lat="44.13064" lon="6.74182">
        <ele>1464.4945464179</ele>
        <time>2021-07-10T14:41:21Z</time>
      </trkpt>
      <trkpt lat="44.13063" lon="6.74183">
        <ele>1464.4945345218</ele>
        <time>2021-07-10T14:41:22Z</time>
      </trkpt>
      <trkpt lat="44.13063" lon="6.74184">
        <ele>1464.4945165262</ele>
        <time>2021-07-10T14:41:23Z</time>
      </trkpt>
      <trkpt lat="44.13063" lon="6.74186">
        <ele>1464.4945054058</ele>
        <time>2021-07-10T14:41:24Z</time>
      </trkpt>
      <trkpt lat="44.13062" lon="6.74188">
        <ele>1465.4944972869</ele>
        <time>2021-07-10T14:41:25Z</time>
      </trkpt>
      <trkpt lat="44.13062" lon="6.74189">
        <ele>1464.4944744627</ele>
        <time>2021-07-10T14:41:26Z</time>
      </trkpt>
      <trkpt lat="44.13062" lon="6.74191">
        <ele>1464.4944368726</ele>
        <time>2021-07-10T14:41:27Z</time>
      </trkpt>
      <trkpt lat="44.13062" lon="6.74193">
        <ele>1463.4944024806</ele>
        <time>2021-07-10T14:41:28Z</time>
      </trkpt>
      <trkpt lat="44.13061" lon="6.74194">
        <ele>1463.494393831</ele>
        <time>2021-07-10T14:41:29Z</time>
      </trkpt>
      <trkpt lat="44.1306" lon="6.74196">
        <ele>1463.4943981393</ele>
        <time>2021-07-10T14:41:30Z</time>
      </trkpt>
      <trkpt lat="44.1306" lon="6.74198">
        <ele>1462.4943763548</ele>
        <time>2021-07-10T14:41:31Z</time>
      </trkpt>
      <trkpt lat="44.1306" lon="6.742">
        <ele>1462.4943355567</ele>
        <time>2021-07-10T14:41:32Z</time>
      </trkpt>
      <trkpt lat="44.1306" lon="6.74201">
        <ele>1462.4943120598</ele>
        <time>2021-07-10T14:41:33Z</time>
      </trkpt>
      <trkpt lat="44.13059" lon="6.74202">
        <ele>1462.4942971038</ele>
        <time>2021-07-10T14:41:34Z</time>
      </trkpt>
      <trkpt lat="44.13059" lon="6.74203">
        <ele>1463.4942876694</ele>
        <time>2021-07-10T14:41:35Z</time>
      </trkpt>
      <trkpt lat="44.13059" lon="6.74205">
        <ele>1463.4942747291</ele>
        <time>2021-07-10T14:41:36Z</time>
      </trkpt>
      <trkpt lat="44.13059" lon="6.74206">
        <ele>1462.4942435687</ele>
        <time>2021-07-10T14:41:37Z</time>
      </trkpt>
      <trkpt lat="44.13059" lon="6.74207">
        <ele>1462.4942186147</ele>
        <time>2021-07-10T14:41:38Z</time>
      </trkpt>
      <trkpt lat="44.13059" lon="6.74208">
        <ele>1462.4941941819</ele>
        <time>2021-07-10T14:41:39Z</time>
      </trkpt>
      <trkpt lat="44.13059" lon="6.7421">
        <ele>1462.494162501</ele>
        <time>2021-07-10T14:41:40Z</time>
      </trkpt>
      <trkpt lat="44.13059" lon="6.7421">
        <ele>1462.494162501</ele>
        <time>2021-07-10T14:41:41Z</time>
      </trkpt>
      <trkpt lat="44.13059" lon="6.74213">
        <ele>1462.4940902749</ele>
        <time>2021-07-10T14:41:42Z</time>
      </trkpt>
      <trkpt lat="44.13059" lon="6.74214">
        <ele>1462.4940669564</ele>
        <time>2021-07-10T14:41:43Z</time>
      </trkpt>
      <trkpt lat="44.13059" lon="6.74216">
        <ele>1461.4940367812</ele>
        <time>2021-07-10T14:41:44Z</time>
      </trkpt>
      <trkpt lat="44.13058" lon="6.74218">
        <ele>1461.494012253</ele>
        <time>2021-07-10T14:41:45Z</time>
      </trkpt>
      <trkpt lat="44.13058" lon="6.7422">
        <ele>1461.4939745383</ele>
        <time>2021-07-10T14:41:46Z</time>
      </trkpt>
      <trkpt lat="44.13057" lon="6.74224">
        <ele>1461.4939137638</ele>
        <time>2021-07-10T14:41:48Z</time>
      </trkpt>
      <trkpt lat="44.13057" lon="6.74227">
        <ele>1462.4938787179</ele>
        <time>2021-07-10T14:41:49Z</time>
      </trkpt>
      <trkpt lat="44.13057" lon="6.74229">
        <ele>1462.4938399716</ele>
        <time>2021-07-10T14:41:50Z</time>
      </trkpt>
      <trkpt lat="44.13056" lon="6.74231">
        <ele>1463.493809691</ele>
        <time>2021-07-10T14:41:51Z</time>
      </trkpt>
      <trkpt lat="44.13055" lon="6.74236">
        <ele>1463.4937504392</ele>
        <time>2021-07-10T14:41:53Z</time>
      </trkpt>
      <trkpt lat="44.13055" lon="6.74238">
        <ele>1463.4937331627</ele>
        <time>2021-07-10T14:41:54Z</time>
      </trkpt>
      <trkpt lat="44.13054" lon="6.7424">
        <ele>1463.4937243268</ele>
        <time>2021-07-10T14:41:55Z</time>
      </trkpt>
      <trkpt lat="44.13052" lon="6.74244">
        <ele>1462.493701532</ele>
        <time>2021-07-10T14:41:57Z</time>
      </trkpt>
      <trkpt lat="44.13052" lon="6.74245">
        <ele>1462.4936992376</ele>
        <time>2021-07-10T14:41:58Z</time>
      </trkpt>
      <trkpt lat="44.13052" lon="6.74246">
        <ele>1463.4936766822</ele>
        <time>2021-07-10T14:41:59Z</time>
      </trkpt>
      <trkpt lat="44.13051" lon="6.74248">
        <ele>1463.493654631</ele>
        <time>2021-07-10T14:42:00Z</time>
      </trkpt>
      <trkpt lat="44.13051" lon="6.74249">
        <ele>1463.4936338195</ele>
        <time>2021-07-10T14:42:01Z</time>
      </trkpt>
      <trkpt lat="44.1305" lon="6.74251">
        <ele>1462.4936448459</ele>
        <time>2021-07-10T14:42:02Z</time>
      </trkpt>
      <trkpt lat="44.13049" lon="6.74253">
        <ele>1461.493635211</ele>
        <time>2021-07-10T14:42:03Z</time>
      </trkpt>
      <trkpt lat="44.13049" lon="6.74255">
        <ele>1461.4936108774</ele>
        <time>2021-07-10T14:42:04Z</time>
      </trkpt>
      <trkpt lat="44.13048" lon="6.74257">
        <ele>1461.4935823031</ele>
        <time>2021-07-10T14:42:05Z</time>
      </trkpt>
      <trkpt lat="44.13048" lon="6.74259">
        <ele>1461.4935404781</ele>
        <time>2021-07-10T14:42:06Z</time>
      </trkpt>
      <trkpt lat="44.13048" lon="6.74261">
        <ele>1460.4935068539</ele>
        <time>2021-07-10T14:42:07Z</time>
      </trkpt>
      <trkpt lat="44.13048" lon="6.74263">
        <ele>1460.4934753709</ele>
        <time>2021-07-10T14:42:08Z</time>
      </trkpt>
      <trkpt lat="44.13047" lon="6.74265">
        <ele>1459.4934496036</ele>
        <time>2021-07-10T14:42:09Z</time>
      </trkpt>
      <trkpt lat="44.13047" lon="6.74267">
        <ele>1459.4934193467</ele>
        <time>2021-07-10T14:42:10Z</time>
      </trkpt>
      <trkpt lat="44.13047" lon="6.74269">
        <ele>1458.4933912251</ele>
        <time>2021-07-10T14:42:11Z</time>
      </trkpt>
      <trkpt lat="44.13047" lon="6.74271">
        <ele>1457.4933544763</ele>
        <time>2021-07-10T14:42:12Z</time>
      </trkpt>
      <trkpt lat="44.13047" lon="6.74273">
        <ele>1457.4932885936</ele>
        <time>2021-07-10T14:42:13Z</time>
      </trkpt>
      <trkpt lat="44.13047" lon="6.74276">
        <ele>1456.493227767</ele>
        <time>2021-07-10T14:42:14Z</time>
      </trkpt>
      <trkpt lat="44.13047" lon="6.74279">
        <ele>1456.493191233</ele>
        <time>2021-07-10T14:42:15Z</time>
      </trkpt>
      <trkpt lat="44.13046" lon="6.7428">
        <ele>1456.4931771032</ele>
        <time>2021-07-10T14:42:16Z</time>
      </trkpt>
      <trkpt lat="44.13046" lon="6.74282">
        <ele>1456.49315814</ele>
        <time>2021-07-10T14:42:17Z</time>
      </trkpt>
      <trkpt lat="44.13046" lon="6.74284">
        <ele>1455.4931235073</ele>
        <time>2021-07-10T14:42:18Z</time>
      </trkpt>
      <trkpt lat="44.13046" lon="6.74285">
        <ele>1456.4931008224</ele>
        <time>2021-07-10T14:42:19Z</time>
      </trkpt>
      <trkpt lat="44.13045" lon="6.74287">
        <ele>1456.4930767666</ele>
        <time>2021-07-10T14:42:20Z</time>
      </trkpt>
      <trkpt lat="44.13045" lon="6.74289">
        <ele>1456.4930492507</ele>
        <time>2021-07-10T14:42:21Z</time>
      </trkpt>
      <trkpt lat="44.13044" lon="6.74291">
        <ele>1455.4930391584</ele>
        <time>2021-07-10T14:42:22Z</time>
      </trkpt>
      <trkpt lat="44.13044" lon="6.74292">
        <ele>1455.4930299323</ele>
        <time>2021-07-10T14:42:23Z</time>
      </trkpt>
      <trkpt lat="44.13043" lon="6.74294">
        <ele>1455.4929887229</ele>
        <time>2021-07-10T14:42:24Z</time>
      </trkpt>
      <trkpt lat="44.13043" lon="6.74296">
        <ele>1455.4929670388</ele>
        <time>2021-07-10T14:42:25Z</time>
      </trkpt>
      <trkpt lat="44.13042" lon="6.74299">
        <ele>1455.4929517173</ele>
        <time>2021-07-10T14:42:26Z</time>
      </trkpt>
      <trkpt lat="44.13042" lon="6.74301">
        <ele>1455.4929195033</ele>
        <time>2021-07-10T14:42:27Z</time>
      </trkpt>
      <trkpt lat="44.13041" lon="6.74303">
        <ele>1455.4929035855</ele>
        <time>2021-07-10T14:42:28Z</time>
      </trkpt>
      <trkpt lat="44.13041" lon="6.74305">
        <ele>1455.4928777659</ele>
        <time>2021-07-10T14:42:29Z</time>
      </trkpt>
      <trkpt lat="44.1304" lon="6.74307">
        <ele>1455.4928647884</ele>
        <time>2021-07-10T14:42:30Z</time>
      </trkpt>
      <trkpt lat="44.1304" lon="6.74309">
        <ele>1455.4928478938</ele>
        <time>2021-07-10T14:42:31Z</time>
      </trkpt>
      <trkpt lat="44.13039" lon="6.7431">
        <ele>1455.4928344102</ele>
        <time>2021-07-10T14:42:32Z</time>
      </trkpt>
      <trkpt lat="44.13039" lon="6.74311">
        <ele>1456.4928252705</ele>
        <time>2021-07-10T14:42:33Z</time>
      </trkpt>
      <trkpt lat="44.13038" lon="6.74312">
        <ele>1455.4928103639</ele>
        <time>2021-07-10T14:42:34Z</time>
      </trkpt>
      <trkpt lat="44.13038" lon="6.74314">
        <ele>1455.4928025912</ele>
        <time>2021-07-10T14:42:35Z</time>
      </trkpt>
      <trkpt lat="44.13038" lon="6.74316">
        <ele>1455.4927653767</ele>
        <time>2021-07-10T14:42:36Z</time>
      </trkpt>
      <trkpt lat="44.13037" lon="6.74318">
        <ele>1454.4927443322</ele>
        <time>2021-07-10T14:42:37Z</time>
      </trkpt>
      <trkpt lat="44.13037" lon="6.7432">
        <ele>1454.4927175983</ele>
        <time>2021-07-10T14:42:38Z</time>
      </trkpt>
      <trkpt lat="44.13037" lon="6.74321">
        <ele>1453.492702668</ele>
        <time>2021-07-10T14:42:39Z</time>
      </trkpt>
      <trkpt lat="44.13036" lon="6.74323">
        <ele>1453.4926766121</ele>
        <time>2021-07-10T14:42:40Z</time>
      </trkpt>
      <trkpt lat="44.13036" lon="6.74324">
        <ele>1453.4926498623</ele>
        <time>2021-07-10T14:42:41Z</time>
      </trkpt>
      <trkpt lat="44.13037" lon="6.74327">
        <ele>1452.4925828032</ele>
        <time>2021-07-10T14:42:43Z</time>
      </trkpt>
      <trkpt lat="44.13037" lon="6.74329">
        <ele>1451.4925246668</ele>
        <time>2021-07-10T14:42:44Z</time>
      </trkpt>
      <trkpt lat="44.13036" lon="6.74332">
        <ele>1451.4924995455</ele>
        <time>2021-07-10T14:42:45Z</time>
      </trkpt>
      <trkpt lat="44.13036" lon="6.74334">
        <ele>1451.4924711186</ele>
        <time>2021-07-10T14:42:46Z</time>
      </trkpt>
      <trkpt lat="44.13035" lon="6.74338">
        <ele>1451.4923974061</ele>
        <time>2021-07-10T14:42:48Z</time>
      </trkpt>
      <trkpt lat="44.13035" lon="6.7434">
        <ele>1451.4923614671</ele>
        <time>2021-07-10T14:42:49Z</time>
      </trkpt>
      <trkpt lat="44.13035" lon="6.74342">
        <ele>1451.4923215174</ele>
        <time>2021-07-10T14:42:50Z</time>
      </trkpt>
      <trkpt lat="44.13034" lon="6.74344">
        <ele>1452.4922969485</ele>
        <time>2021-07-10T14:42:51Z</time>
      </trkpt>
      <trkpt lat="44.13034" lon="6.74346">
        <ele>1451.4922702442</ele>
        <time>2021-07-10T14:42:52Z</time>
      </trkpt>
      <trkpt lat="44.13034" lon="6.74349">
        <ele>1451.4922267952</ele>
        <time>2021-07-10T14:42:54Z</time>
      </trkpt>
      <trkpt lat="44.13033" lon="6.74351">
        <ele>1451.4921968546</ele>
        <time>2021-07-10T14:42:55Z</time>
      </trkpt>
      <trkpt lat="44.13033" lon="6.74356">
        <ele>1451.4921328332</ele>
        <time>2021-07-10T14:42:57Z</time>
      </trkpt>
      <trkpt lat="44.13032" lon="6.74358">
        <ele>1451.4920940755</ele>
        <time>2021-07-10T14:42:58Z</time>
      </trkpt>
      <trkpt lat="44.13032" lon="6.7436">
        <ele>1450.4920552929</ele>
        <time>2021-07-10T14:42:59Z</time>
      </trkpt>
      <trkpt lat="44.13032" lon="6.74363">
        <ele>1450.4920252179</ele>
        <time>2021-07-10T14:43:00Z</time>
      </trkpt>
      <trkpt lat="44.13031" lon="6.74364">
        <ele>1450.492005215</ele>
        <time>2021-07-10T14:43:01Z</time>
      </trkpt>
      <trkpt lat="44.1303" lon="6.74367">
        <ele>1451.4919870145</ele>
        <time>2021-07-10T14:43:02Z</time>
      </trkpt>
      <trkpt lat="44.1303" lon="6.74369">
        <ele>1451.4919588321</ele>
        <time>2021-07-10T14:43:03Z</time>
      </trkpt>
      <trkpt lat="44.1303" lon="6.74371">
        <ele>1451.4919257195</ele>
        <time>2021-07-10T14:43:04Z</time>
      </trkpt>
      <trkpt lat="44.1303" lon="6.74372">
        <ele>1452.4918918808</ele>
        <time>2021-07-10T14:43:05Z</time>
      </trkpt>
      <trkpt lat="44.13029" lon="6.74375">
        <ele>1452.491871883</ele>
        <time>2021-07-10T14:43:06Z</time>
      </trkpt>
      <trkpt lat="44.13029" lon="6.74376">
        <ele>1452.4918558181</ele>
        <time>2021-07-10T14:43:07Z</time>
      </trkpt>
      <trkpt lat="44.13029" lon="6.74378">
        <ele>1451.4918172538</ele>
        <time>2021-07-10T14:43:09Z</time>
      </trkpt>
      <trkpt lat="44.13029" lon="6.7438">
        <ele>1451.4917591955</ele>
        <time>2021-07-10T14:43:10Z</time>
      </trkpt>
      <trkpt lat="44.1303" lon="6.74382">
        <ele>1451.4916857782</ele>
        <time>2021-07-10T14:43:11Z</time>
      </trkpt>
      <trkpt lat="44.1303" lon="6.74387">
        <ele>1451.4915771644</ele>
        <time>2021-07-10T14:43:13Z</time>
      </trkpt>
      <trkpt lat="44.1303" lon="6.7439">
        <ele>1451.4915136642</ele>
        <time>2021-07-10T14:43:14Z</time>
      </trkpt>
      <trkpt lat="44.1303" lon="6.74393">
        <ele>1451.4914676487</ele>
        <time>2021-07-10T14:43:15Z</time>
      </trkpt>
      <trkpt lat="44.1303" lon="6.74397">
        <ele>1451.4913754362</ele>
        <time>2021-07-10T14:43:17Z</time>
      </trkpt>
      <trkpt lat="44.1303" lon="6.74399">
        <ele>1452.4913401647</ele>
        <time>2021-07-10T14:43:18Z</time>
      </trkpt>
      <trkpt lat="44.1303" lon="6.74401">
        <ele>1452.4913057264</ele>
        <time>2021-07-10T14:43:19Z</time>
      </trkpt>
      <trkpt lat="44.1303" lon="6.74403">
        <ele>1452.4912671251</ele>
        <time>2021-07-10T14:43:20Z</time>
      </trkpt>
      <trkpt lat="44.1303" lon="6.74405">
        <ele>1451.491216925</ele>
        <time>2021-07-10T14:43:21Z</time>
      </trkpt>
      <trkpt lat="44.1303" lon="6.74409">
        <ele>1451.4911334061</ele>
        <time>2021-07-10T14:43:23Z</time>
      </trkpt>
      <trkpt lat="44.1303" lon="6.74411">
        <ele>1449.4910727345</ele>
        <time>2021-07-10T14:43:24Z</time>
      </trkpt>
      <trkpt lat="44.13031" lon="6.74413">
        <ele>1448.4910228636</ele>
        <time>2021-07-10T14:43:25Z</time>
      </trkpt>
      <trkpt lat="44.1303" lon="6.74416">
        <ele>1448.490962646</ele>
        <time>2021-07-10T14:43:27Z</time>
      </trkpt>
      <trkpt lat="44.13029" lon="6.74421">
        <ele>1447.4909012532</ele>
        <time>2021-07-10T14:43:29Z</time>
      </trkpt>
      <trkpt lat="44.13029" lon="6.74422">
        <ele>1447.4908675956</ele>
        <time>2021-07-10T14:43:30Z</time>
      </trkpt>
      <trkpt lat="44.1303" lon="6.74423">
        <ele>1446.4908253039</ele>
        <time>2021-07-10T14:43:31Z</time>
      </trkpt>
      <trkpt lat="44.13031" lon="6.74426">
        <ele>1446.4907264273</ele>
        <time>2021-07-10T14:43:33Z</time>
      </trkpt>
      <trkpt lat="44.13032" lon="6.74427">
        <ele>1446.4906740335</ele>
        <time>2021-07-10T14:43:34Z</time>
      </trkpt>
      <trkpt lat="44.13033" lon="6.74427">
        <ele>1446.4906147478</ele>
        <time>2021-07-10T14:43:35Z</time>
      </trkpt>
      <trkpt lat="44.13035" lon="6.74428">
        <ele>1446.4905438255</ele>
        <time>2021-07-10T14:43:36Z</time>
      </trkpt>
      <trkpt lat="44.13036" lon="6.74429">
        <ele>1446.4904573457</ele>
        <time>2021-07-10T14:43:37Z</time>
      </trkpt>
      <trkpt lat="44.13039" lon="6.74433">
        <ele>1444.4902752104</ele>
        <time>2021-07-10T14:43:39Z</time>
      </trkpt>
      <trkpt lat="44.1304" lon="6.74436">
        <ele>1445.4901861157</ele>
        <time>2021-07-10T14:43:40Z</time>
      </trkpt>
      <trkpt lat="44.13041" lon="6.74438">
        <ele>1445.4901096657</ele>
        <time>2021-07-10T14:43:41Z</time>
      </trkpt>
      <trkpt lat="44.13041" lon="6.7444">
        <ele>1445.4900325987</ele>
        <time>2021-07-10T14:43:42Z</time>
      </trkpt>
      <trkpt lat="44.13042" lon="6.74442">
        <ele>1445.489970859</ele>
        <time>2021-07-10T14:43:43Z</time>
      </trkpt>
      <trkpt lat="44.13043" lon="6.74444">
        <ele>1445.4899036958</ele>
        <time>2021-07-10T14:43:44Z</time>
      </trkpt>
      <trkpt lat="44.13044" lon="6.74446">
        <ele>1445.4898272156</ele>
        <time>2021-07-10T14:43:45Z</time>
      </trkpt>
      <trkpt lat="44.13044" lon="6.74449">
        <ele>1445.4897322581</ele>
        <time>2021-07-10T14:43:47Z</time>
      </trkpt>
      <trkpt lat="44.13044" lon="6.74451">
        <ele>1445.4897019269</ele>
        <time>2021-07-10T14:43:48Z</time>
      </trkpt>
      <trkpt lat="44.13044" lon="6.74453">
        <ele>1445.4896604249</ele>
        <time>2021-07-10T14:43:49Z</time>
      </trkpt>
      <trkpt lat="44.13044" lon="6.74455">
        <ele>1445.4896235451</ele>
        <time>2021-07-10T14:43:50Z</time>
      </trkpt>
      <trkpt lat="44.13044" lon="6.74457">
        <ele>1446.4895858804</ele>
        <time>2021-07-10T14:43:51Z</time>
      </trkpt>
      <trkpt lat="44.13044" lon="6.74459">
        <ele>1446.489542683</ele>
        <time>2021-07-10T14:43:52Z</time>
      </trkpt>
      <trkpt lat="44.13045" lon="6.7446">
        <ele>1445.4894848101</ele>
        <time>2021-07-10T14:43:54Z</time>
      </trkpt>
      <trkpt lat="44.13045" lon="6.7446">
        <ele>1443.4894671183</ele>
        <time>2021-07-10T14:44:02Z</time>
      </trkpt>
      <trkpt lat="44.13046" lon="6.74462">
        <ele>1442.4894094269</ele>
        <time>2021-07-10T14:44:04Z</time>
      </trkpt>
      <trkpt lat="44.13046" lon="6.74461">
        <ele>1442.4894289127</ele>
        <time>2021-07-10T14:44:16Z</time>
      </trkpt>
      <trkpt lat="44.13045" lon="6.74461">
        <ele>1441.4894600991</ele>
        <time>2021-07-10T14:44:17Z</time>
      </trkpt>
      <trkpt lat="44.13044" lon="6.74462">
        <ele>1440.4894562959</ele>
        <time>2021-07-10T14:44:19Z</time>
      </trkpt>
      <trkpt lat="44.13044" lon="6.74462">
        <ele>1440.4894708723</ele>
        <time>2021-07-10T14:44:57Z</time>
      </trkpt>
      <trkpt lat="44.13043" lon="6.74464">
        <ele>1439.4894691312</ele>
        <time>2021-07-10T14:44:59Z</time>
      </trkpt>
      <trkpt lat="44.13043" lon="6.74465">
        <ele>1439.489439359</ele>
        <time>2021-07-10T14:45:01Z</time>
      </trkpt>
      <trkpt lat="44.13044" lon="6.74465">
        <ele>1438.4894215464</ele>
        <time>2021-07-10T14:45:17Z</time>
      </trkpt>
      <trkpt lat="44.13043" lon="6.74464">
        <ele>1437.4894795801</ele>
        <time>2021-07-10T14:45:19Z</time>
      </trkpt>
      <trkpt lat="44.13042" lon="6.74464">
        <ele>1437.4894982227</ele>
        <time>2021-07-10T14:45:20Z</time>
      </trkpt>
      <trkpt lat="44.13043" lon="6.74463">
        <ele>1438.4895083648</ele>
        <time>2021-07-10T14:45:38Z</time>
      </trkpt>
      <trkpt lat="44.13042" lon="6.74462">
        <ele>1435.4895379493</ele>
        <time>2021-07-10T14:45:40Z</time>
      </trkpt>
      <trkpt lat="44.13042" lon="6.74462">
        <ele>1435.4895505161</ele>
        <time>2021-07-10T14:46:02Z</time>
      </trkpt>
      <trkpt lat="44.13042" lon="6.7446">
        <ele>1438.4895982121</ele>
        <time>2021-07-10T14:46:04Z</time>
      </trkpt>
      <trkpt lat="44.13041" lon="6.7446">
        <ele>1439.4896298198</ele>
        <time>2021-07-10T14:47:05Z</time>
      </trkpt>
      <trkpt lat="44.13041" lon="6.74458">
        <ele>1437.4896803786</ele>
        <time>2021-07-10T14:47:07Z</time>
      </trkpt>
      <trkpt lat="44.13041" lon="6.74459">
        <ele>1437.4896430888</ele>
        <time>2021-07-10T14:47:16Z</time>
      </trkpt>
      <trkpt lat="44.13042" lon="6.7446">
        <ele>1438.4895958498</ele>
        <time>2021-07-10T14:47:17Z</time>
      </trkpt>
      <trkpt lat="44.13043" lon="6.74464">
        <ele>1439.4894703021</ele>
        <time>2021-07-10T14:47:19Z</time>
      </trkpt>
      <trkpt lat="44.13044" lon="6.74466">
        <ele>1439.4893918146</ele>
        <time>2021-07-10T14:47:20Z</time>
      </trkpt>
      <trkpt lat="44.13045" lon="6.74468">
        <ele>1440.4893019787</ele>
        <time>2021-07-10T14:47:21Z</time>
      </trkpt>
      <trkpt lat="44.13047" lon="6.74471">
        <ele>1439.4891600162</ele>
        <time>2021-07-10T14:47:23Z</time>
      </trkpt>
      <trkpt lat="44.13048" lon="6.74473">
        <ele>1439.4890907665</ele>
        <time>2021-07-10T14:47:24Z</time>
      </trkpt>
      <trkpt lat="44.13049" lon="6.74475">
        <ele>1439.4890068533</ele>
        <time>2021-07-10T14:47:25Z</time>
      </trkpt>
      <trkpt lat="44.1305" lon="6.74476">
        <ele>1439.4889391467</ele>
        <time>2021-07-10T14:47:26Z</time>
      </trkpt>
      <trkpt lat="44.13052" lon="6.74479">
        <ele>1438.4888005784</ele>
        <time>2021-07-10T14:47:28Z</time>
      </trkpt>
      <trkpt lat="44.13054" lon="6.74481">
        <ele>1438.4887006658</ele>
        <time>2021-07-10T14:47:29Z</time>
      </trkpt>
      <trkpt lat="44.13055" lon="6.74483">
        <ele>1437.4886201139</ele>
        <time>2021-07-10T14:47:30Z</time>
      </trkpt>
      <trkpt lat="44.13056" lon="6.74484">
        <ele>1436.4885597035</ele>
        <time>2021-07-10T14:47:31Z</time>
      </trkpt>
      <trkpt lat="44.13057" lon="6.74487">
        <ele>1436.4884394765</ele>
        <time>2021-07-10T14:47:33Z</time>
      </trkpt>
      <trkpt lat="44.13058" lon="6.74489">
        <ele>1436.4883810719</ele>
        <time>2021-07-10T14:47:34Z</time>
      </trkpt>
      <trkpt lat="44.13058" lon="6.74491">
        <ele>1436.4883104805</ele>
        <time>2021-07-10T14:47:35Z</time>
      </trkpt>
      <trkpt lat="44.1306" lon="6.74494">
        <ele>1435.4881881243</ele>
        <time>2021-07-10T14:47:37Z</time>
      </trkpt>
      <trkpt lat="44.13061" lon="6.74495">
        <ele>1435.4880990071</ele>
        <time>2021-07-10T14:47:39Z</time>
      </trkpt>
      <trkpt lat="44.13063" lon="6.74495">
        <ele>1435.4880217979</ele>
        <time>2021-07-10T14:47:40Z</time>
      </trkpt>
      <trkpt lat="44.13065" lon="6.74496">
        <ele>1434.4879522962</ele>
        <time>2021-07-10T14:47:41Z</time>
      </trkpt>
      <trkpt lat="44.13066" lon="6.74498">
        <ele>1433.4878721896</ele>
        <time>2021-07-10T14:47:43Z</time>
      </trkpt>
      <trkpt lat="44.13066" lon="6.74499">
        <ele>1432.4878487751</ele>
        <time>2021-07-10T14:47:44Z</time>
      </trkpt>
      <trkpt lat="44.13066" lon="6.745">
        <ele>1432.4878117031</ele>
        <time>2021-07-10T14:47:45Z</time>
      </trkpt>
      <trkpt lat="44.13066" lon="6.74501">
        <ele>1432.4877986495</ele>
        <time>2021-07-10T14:47:46Z</time>
      </trkpt>
      <trkpt lat="44.13066" lon="6.745">
        <ele>1431.4878166982</ele>
        <time>2021-07-10T14:47:48Z</time>
      </trkpt>
      <trkpt lat="44.13067" lon="6.745">
        <ele>1431.4877934457</ele>
        <time>2021-07-10T14:47:49Z</time>
      </trkpt>
      <trkpt lat="44.13068" lon="6.745">
        <ele>1432.4877381151</ele>
        <time>2021-07-10T14:47:50Z</time>
      </trkpt>
      <trkpt lat="44.1307" lon="6.74501">
        <ele>1432.4876655966</ele>
        <time>2021-07-10T14:47:51Z</time>
      </trkpt>
      <trkpt lat="44.1307" lon="6.74501">
        <ele>1432.4876192424</ele>
        <time>2021-07-10T14:47:52Z</time>
      </trkpt>
      <trkpt lat="44.13071" lon="6.74501">
        <ele>1433.487596427</ele>
        <time>2021-07-10T14:47:54Z</time>
      </trkpt>
      <trkpt lat="44.13072" lon="6.74501">
        <ele>1434.4875495845</ele>
        <time>2021-07-10T14:47:55Z</time>
      </trkpt>
      <trkpt lat="44.13074" lon="6.745">
        <ele>1434.4875027464</ele>
        <time>2021-07-10T14:47:56Z</time>
      </trkpt>
      <trkpt lat="44.13075" lon="6.745">
        <ele>1434.4874636888</ele>
        <time>2021-07-10T14:47:57Z</time>
      </trkpt>
      <trkpt lat="44.13076" lon="6.74501">
        <ele>1434.4874067864</ele>
        <time>2021-07-10T14:47:58Z</time>
      </trkpt>
      <trkpt lat="44.13077" lon="6.74501">
        <ele>1434.4873683649</ele>
        <time>2021-07-10T14:47:59Z</time>
      </trkpt>
      <trkpt lat="44.13078" lon="6.74501">
        <ele>1434.4873090453</ele>
        <time>2021-07-10T14:48:00Z</time>
      </trkpt>
      <trkpt lat="44.1308" lon="6.74501">
        <ele>1434.4872495762</ele>
        <time>2021-07-10T14:48:01Z</time>
      </trkpt>
      <trkpt lat="44.13081" lon="6.74501">
        <ele>1433.4871892478</ele>
        <time>2021-07-10T14:48:02Z</time>
      </trkpt>
      <trkpt lat="44.13083" lon="6.74501">
        <ele>1433.487134354</ele>
        <time>2021-07-10T14:48:03Z</time>
      </trkpt>
      <trkpt lat="44.13084" lon="6.74502">
        <ele>1432.4870810155</ele>
        <time>2021-07-10T14:48:04Z</time>
      </trkpt>
      <trkpt lat="44.13085" lon="6.74502">
        <ele>1432.48701973</ele>
        <time>2021-07-10T14:48:05Z</time>
      </trkpt>
      <trkpt lat="44.13087" lon="6.74503">
        <ele>1432.4869448128</ele>
        <time>2021-07-10T14:48:06Z</time>
      </trkpt>
      <trkpt lat="44.1309" lon="6.74504">
        <ele>1432.4868107626</ele>
        <time>2021-07-10T14:48:08Z</time>
      </trkpt>
      <trkpt lat="44.13091" lon="6.74504">
        <ele>1432.4867528961</ele>
        <time>2021-07-10T14:48:09Z</time>
      </trkpt>
      <trkpt lat="44.13093" lon="6.74504">
        <ele>1431.4866956423</ele>
        <time>2021-07-10T14:48:10Z</time>
      </trkpt>
      <trkpt lat="44.13095" lon="6.74503">
        <ele>1431.4866355132</ele>
        <time>2021-07-10T14:48:12Z</time>
      </trkpt>
      <trkpt lat="44.13096" lon="6.74502">
        <ele>1431.4866002615</ele>
        <time>2021-07-10T14:48:13Z</time>
      </trkpt>
      <trkpt lat="44.13097" lon="6.74503">
        <ele>1431.4865504611</ele>
        <time>2021-07-10T14:48:14Z</time>
      </trkpt>
      <trkpt lat="44.13098" lon="6.74503">
        <ele>1431.4865014763</ele>
        <time>2021-07-10T14:48:15Z</time>
      </trkpt>
      <trkpt lat="44.13101" lon="6.74502">
        <ele>1430.4864031721</ele>
        <time>2021-07-10T14:48:17Z</time>
      </trkpt>
      <trkpt lat="44.13103" lon="6.74501">
        <ele>1429.4863208262</ele>
        <time>2021-07-10T14:48:19Z</time>
      </trkpt>
      <trkpt lat="44.13105" lon="6.74502">
        <ele>1429.4862704188</ele>
        <time>2021-07-10T14:48:20Z</time>
      </trkpt>
      <trkpt lat="44.13106" lon="6.74501">
        <ele>1429.4862318095</ele>
        <time>2021-07-10T14:48:21Z</time>
      </trkpt>
      <trkpt lat="44.13107" lon="6.74501">
        <ele>1430.4861949744</ele>
        <time>2021-07-10T14:48:22Z</time>
      </trkpt>
      <trkpt lat="44.1311" lon="6.74502">
        <ele>1430.4860689005</ele>
        <time>2021-07-10T14:48:24Z</time>
      </trkpt>
      <trkpt lat="44.13111" lon="6.74503">
        <ele>1430.4859892275</ele>
        <time>2021-07-10T14:48:25Z</time>
      </trkpt>
      <trkpt lat="44.13112" lon="6.74503">
        <ele>1429.4859415106</ele>
        <time>2021-07-10T14:48:26Z</time>
      </trkpt>
      <trkpt lat="44.13114" lon="6.74502">
        <ele>1429.4858878345</ele>
        <time>2021-07-10T14:48:28Z</time>
      </trkpt>
      <trkpt lat="44.13114" lon="6.74502">
        <ele>1430.4858901466</ele>
        <time>2021-07-10T14:48:29Z</time>
      </trkpt>
      <trkpt lat="44.13115" lon="6.74501">
        <ele>1431.4858834389</ele>
        <time>2021-07-10T14:48:30Z</time>
      </trkpt>
      <trkpt lat="44.13116" lon="6.74501">
        <ele>1430.4858514773</ele>
        <time>2021-07-10T14:48:31Z</time>
      </trkpt>
      <trkpt lat="44.13117" lon="6.74501">
        <ele>1430.485793833</ele>
        <time>2021-07-10T14:48:32Z</time>
      </trkpt>
      <trkpt lat="44.1312" lon="6.74502">
        <ele>1430.4856817251</ele>
        <time>2021-07-10T14:48:34Z</time>
      </trkpt>
      <trkpt lat="44.13121" lon="6.74502">
        <ele>1430.4856299187</ele>
        <time>2021-07-10T14:48:35Z</time>
      </trkpt>
      <trkpt lat="44.13122" lon="6.74503">
        <ele>1429.485560966</ele>
        <time>2021-07-10T14:48:36Z</time>
      </trkpt>
      <trkpt lat="44.13122" lon="6.74503">
        <ele>1430.4855387263</ele>
        <time>2021-07-10T14:48:37Z</time>
      </trkpt>
      <trkpt lat="44.13123" lon="6.74504">
        <ele>1429.4855046492</ele>
        <time>2021-07-10T14:48:38Z</time>
      </trkpt>
      <trkpt lat="44.13124" lon="6.74504">
        <ele>1430.485472691</ele>
        <time>2021-07-10T14:48:39Z</time>
      </trkpt>
      <trkpt lat="44.13124" lon="6.74504">
        <ele>1430.4854414261</ele>
        <time>2021-07-10T14:48:40Z</time>
      </trkpt>
      <trkpt lat="44.13125" lon="6.74505">
        <ele>1430.4854200435</ele>
        <time>2021-07-10T14:48:41Z</time>
      </trkpt>
      <trkpt lat="44.13125" lon="6.74505">
        <ele>1430.485397227</ele>
        <time>2021-07-10T14:48:43Z</time>
      </trkpt>
      <trkpt lat="44.13126" lon="6.74504">
        <ele>1430.485373823</ele>
        <time>2021-07-10T14:48:44Z</time>
      </trkpt>
      <trkpt lat="44.13127" lon="6.74504">
        <ele>1430.4853475443</ele>
        <time>2021-07-10T14:48:45Z</time>
      </trkpt>
      <trkpt lat="44.13127" lon="6.74503">
        <ele>1429.4853377329</ele>
        <time>2021-07-10T14:48:46Z</time>
      </trkpt>
      <trkpt lat="44.13129" lon="6.74502">
        <ele>1429.4853298748</ele>
        <time>2021-07-10T14:48:48Z</time>
      </trkpt>
      <trkpt lat="44.13129" lon="6.745">
        <ele>1428.485351285</ele>
        <time>2021-07-10T14:48:49Z</time>
      </trkpt>
      <trkpt lat="44.13129" lon="6.745">
        <ele>1427.4853402241</ele>
        <time>2021-07-10T14:48:50Z</time>
      </trkpt>
      <trkpt lat="44.13131" lon="6.74498">
        <ele>1427.4853048071</ele>
        <time>2021-07-10T14:48:52Z</time>
      </trkpt>
      <trkpt lat="44.13133" lon="6.74495">
        <ele>1427.485285983</ele>
        <time>2021-07-10T14:48:54Z</time>
      </trkpt>
      <trkpt lat="44.13135" lon="6.74494">
        <ele>1427.485256965</ele>
        <time>2021-07-10T14:48:55Z</time>
      </trkpt>
      <trkpt lat="44.13136" lon="6.74493">
        <ele>1427.485237617</ele>
        <time>2021-07-10T14:48:56Z</time>
      </trkpt>
      <trkpt lat="44.13137" lon="6.74491">
        <ele>1426.4852211754</ele>
        <time>2021-07-10T14:48:58Z</time>
      </trkpt>
      <trkpt lat="44.13137" lon="6.74489">
        <ele>1426.4852389505</ele>
        <time>2021-07-10T14:48:59Z</time>
      </trkpt>
      <trkpt lat="44.13138" lon="6.74488">
        <ele>1426.485244969</ele>
        <time>2021-07-10T14:49:00Z</time>
      </trkpt>
      <trkpt lat="44.13139" lon="6.74488">
        <ele>1426.4852293003</ele>
        <time>2021-07-10T14:49:01Z</time>
      </trkpt>
      <trkpt lat="44.13139" lon="6.74486">
        <ele>1426.4852378933</ele>
        <time>2021-07-10T14:49:02Z</time>
      </trkpt>
      <trkpt lat="44.1314" lon="6.74485">
        <ele>1425.48524447</ele>
        <time>2021-07-10T14:49:03Z</time>
      </trkpt>
      <trkpt lat="44.1314" lon="6.74484">
        <ele>1425.4852420461</ele>
        <time>2021-07-10T14:49:04Z</time>
      </trkpt>
      <trkpt lat="44.13141" lon="6.74483">
        <ele>1425.4852335333</ele>
        <time>2021-07-10T14:49:05Z</time>
      </trkpt>
      <trkpt lat="44.13141" lon="6.74482">
        <ele>1425.4852422554</ele>
        <time>2021-07-10T14:49:06Z</time>
      </trkpt>
      <trkpt lat="44.13142" lon="6.7448">
        <ele>1425.4852408627</ele>
        <time>2021-07-10T14:49:07Z</time>
      </trkpt>
      <trkpt lat="44.13143" lon="6.74479">
        <ele>1425.4852289332</ele>
        <time>2021-07-10T14:49:08Z</time>
      </trkpt>
      <trkpt lat="44.13144" lon="6.74478">
        <ele>1425.4852172148</ele>
        <time>2021-07-10T14:49:09Z</time>
      </trkpt>
      <trkpt lat="44.13145" lon="6.74477">
        <ele>1425.4852088356</ele>
        <time>2021-07-10T14:49:10Z</time>
      </trkpt>
      <trkpt lat="44.13145" lon="6.74476">
        <ele>1424.4852045624</ele>
        <time>2021-07-10T14:49:11Z</time>
      </trkpt>
      <trkpt lat="44.13146" lon="6.74475">
        <ele>1424.4851914609</ele>
        <time>2021-07-10T14:49:12Z</time>
      </trkpt>
      <trkpt lat="44.13147" lon="6.74473">
        <ele>1423.4851918659</ele>
        <time>2021-07-10T14:49:13Z</time>
      </trkpt>
      <trkpt lat="44.13148" lon="6.74472">
        <ele>1423.4851867658</ele>
        <time>2021-07-10T14:49:14Z</time>
      </trkpt>
      <trkpt lat="44.13149" lon="6.7447">
        <ele>1422.4852074709</ele>
        <time>2021-07-10T14:49:15Z</time>
      </trkpt>
      <trkpt lat="44.1315" lon="6.74467">
        <ele>1422.4852200501</ele>
        <time>2021-07-10T14:49:17Z</time>
      </trkpt>
      <trkpt lat="44.13151" lon="6.74463">
        <ele>1422.485274631</ele>
        <time>2021-07-10T14:49:19Z</time>
      </trkpt>
      <trkpt lat="44.13151" lon="6.74462">
        <ele>1423.4852834332</ele>
        <time>2021-07-10T14:49:20Z</time>
      </trkpt>
      <trkpt lat="44.13152" lon="6.7446">
        <ele>1423.4852918645</ele>
        <time>2021-07-10T14:49:21Z</time>
      </trkpt>
      <trkpt lat="44.13153" lon="6.74458">
        <ele>1423.485280006</ele>
        <time>2021-07-10T14:49:23Z</time>
      </trkpt>
      <trkpt lat="44.13155" lon="6.74455">
        <ele>1424.4852775881</ele>
        <time>2021-07-10T14:49:25Z</time>
      </trkpt>
      <trkpt lat="44.13156" lon="6.74454">
        <ele>1424.4852810802</ele>
        <time>2021-07-10T14:49:26Z</time>
      </trkpt>
      <trkpt lat="44.13157" lon="6.74451">
        <ele>1424.4852812616</ele>
        <time>2021-07-10T14:49:28Z</time>
      </trkpt>
      <trkpt lat="44.13159" lon="6.74449">
        <ele>1423.4852338184</ele>
        <time>2021-07-10T14:49:30Z</time>
      </trkpt>
      <trkpt lat="44.1316" lon="6.74447">
        <ele>1424.4852334043</ele>
        <time>2021-07-10T14:49:31Z</time>
      </trkpt>
      <trkpt lat="44.13161" lon="6.74446">
        <ele>1423.4852429298</ele>
        <time>2021-07-10T14:49:32Z</time>
      </trkpt>
      <trkpt lat="44.13162" lon="6.74444">
        <ele>1423.4852472257</ele>
        <time>2021-07-10T14:49:33Z</time>
      </trkpt>
      <trkpt lat="44.13164" lon="6.74442">
        <ele>1423.4852156853</ele>
        <time>2021-07-10T14:49:35Z</time>
      </trkpt>
      <trkpt lat="44.13165" lon="6.74439">
        <ele>1423.4852076732</ele>
        <time>2021-07-10T14:49:37Z</time>
      </trkpt>
      <trkpt lat="44.13166" lon="6.74436">
        <ele>1423.4852253397</ele>
        <time>2021-07-10T14:49:39Z</time>
      </trkpt>
      <trkpt lat="44.13167" lon="6.74435">
        <ele>1423.4852423497</ele>
        <time>2021-07-10T14:49:40Z</time>
      </trkpt>
      <trkpt lat="44.13167" lon="6.74433">
        <ele>1423.485262662</ele>
        <time>2021-07-10T14:49:41Z</time>
      </trkpt>
      <trkpt lat="44.13168" lon="6.74431">
        <ele>1423.4852851565</ele>
        <time>2021-07-10T14:49:42Z</time>
      </trkpt>
      <trkpt lat="44.13169" lon="6.74427">
        <ele>1424.4853338993</ele>
        <time>2021-07-10T14:49:44Z</time>
      </trkpt>
      <trkpt lat="44.13169" lon="6.74425">
        <ele>1424.4853363838</ele>
        <time>2021-07-10T14:49:45Z</time>
      </trkpt>
      <trkpt lat="44.13171" lon="6.74424">
        <ele>1424.4853206736</ele>
        <time>2021-07-10T14:49:46Z</time>
      </trkpt>
      <trkpt lat="44.13172" lon="6.74422">
        <ele>1425.4853000257</ele>
        <time>2021-07-10T14:49:48Z</time>
      </trkpt>
      <trkpt lat="44.13174" lon="6.74421">
        <ele>1425.4852379025</ele>
        <time>2021-07-10T14:49:50Z</time>
      </trkpt>
      <trkpt lat="44.13175" lon="6.7442">
        <ele>1425.4852217575</ele>
        <time>2021-07-10T14:49:51Z</time>
      </trkpt>
      <trkpt lat="44.13177" lon="6.74418">
        <ele>1426.4851929229</ele>
        <time>2021-07-10T14:49:53Z</time>
      </trkpt>
      <trkpt lat="44.1318" lon="6.74416">
        <ele>1426.4851300467</ele>
        <time>2021-07-10T14:49:55Z</time>
      </trkpt>
      <trkpt lat="44.13181" lon="6.74415">
        <ele>1426.4851035769</ele>
        <time>2021-07-10T14:49:56Z</time>
      </trkpt>
      <trkpt lat="44.13183" lon="6.74413">
        <ele>1425.485050989</ele>
        <time>2021-07-10T14:49:58Z</time>
      </trkpt>
      <trkpt lat="44.13184" lon="6.74412">
        <ele>1425.4850371016</ele>
        <time>2021-07-10T14:49:59Z</time>
      </trkpt>
      <trkpt lat="44.13185" lon="6.74411">
        <ele>1425.485017861</ele>
        <time>2021-07-10T14:50:00Z</time>
      </trkpt>
      <trkpt lat="44.13187" lon="6.74411">
        <ele>1425.4849723478</ele>
        <time>2021-07-10T14:50:01Z</time>
      </trkpt>
      <trkpt lat="44.13187" lon="6.74409">
        <ele>1425.4849716516</ele>
        <time>2021-07-10T14:50:02Z</time>
      </trkpt>
      <trkpt lat="44.13188" lon="6.74408">
        <ele>1425.484970256</ele>
        <time>2021-07-10T14:50:03Z</time>
      </trkpt>
      <trkpt lat="44.13189" lon="6.74406">
        <ele>1425.4849602358</ele>
        <time>2021-07-10T14:50:04Z</time>
      </trkpt>
      <trkpt lat="44.1319" lon="6.74405">
        <ele>1425.48495176</ele>
        <time>2021-07-10T14:50:05Z</time>
      </trkpt>
      <trkpt lat="44.13191" lon="6.74404">
        <ele>1426.4849294862</ele>
        <time>2021-07-10T14:50:06Z</time>
      </trkpt>
      <trkpt lat="44.13192" lon="6.74403">
        <ele>1426.4849147598</ele>
        <time>2021-07-10T14:50:07Z</time>
      </trkpt>
      <trkpt lat="44.13193" lon="6.74402">
        <ele>1426.484895839</ele>
        <time>2021-07-10T14:50:08Z</time>
      </trkpt>
      <trkpt lat="44.13194" lon="6.74401">
        <ele>1426.4848970334</ele>
        <time>2021-07-10T14:50:09Z</time>
      </trkpt>
      <trkpt lat="44.13195" lon="6.74399">
        <ele>1426.4848885963</ele>
        <time>2021-07-10T14:50:10Z</time>
      </trkpt>
      <trkpt lat="44.13196" lon="6.74398">
        <ele>1426.4848865225</ele>
        <time>2021-07-10T14:50:11Z</time>
      </trkpt>
      <trkpt lat="44.13197" lon="6.74395">
        <ele>1426.4848998925</ele>
        <time>2021-07-10T14:50:13Z</time>
      </trkpt>
      <trkpt lat="44.13198" lon="6.74393">
        <ele>1426.4848944728</ele>
        <time>2021-07-10T14:50:15Z</time>
      </trkpt>
      <trkpt lat="44.13199" lon="6.74392">
        <ele>1425.4849014072</ele>
        <time>2021-07-10T14:50:16Z</time>
      </trkpt>
      <trkpt lat="44.13199" lon="6.7439">
        <ele>1426.4849024833</ele>
        <time>2021-07-10T14:50:17Z</time>
      </trkpt>
      <trkpt lat="44.13201" lon="6.74388">
        <ele>1425.4848900724</ele>
        <time>2021-07-10T14:50:19Z</time>
      </trkpt>
      <trkpt lat="44.13202" lon="6.74387">
        <ele>1425.4848978876</ele>
        <time>2021-07-10T14:50:20Z</time>
      </trkpt>
      <trkpt lat="44.13202" lon="6.74385">
        <ele>1425.4849111289</ele>
        <time>2021-07-10T14:50:21Z</time>
      </trkpt>
      <trkpt lat="44.13204" lon="6.74382">
        <ele>1425.4849071146</ele>
        <time>2021-07-10T14:50:23Z</time>
      </trkpt>
      <trkpt lat="44.13204" lon="6.7438">
        <ele>1424.4849499783</ele>
        <time>2021-07-10T14:50:25Z</time>
      </trkpt>
      <trkpt lat="44.13204" lon="6.74378">
        <ele>1423.4849802318</ele>
        <time>2021-07-10T14:50:26Z</time>
      </trkpt>
      <trkpt lat="44.13204" lon="6.74377">
        <ele>1423.4849976259</ele>
        <time>2021-07-10T14:50:27Z</time>
      </trkpt>
      <trkpt lat="44.13204" lon="6.74374">
        <ele>1423.4850664556</ele>
        <time>2021-07-10T14:50:29Z</time>
      </trkpt>
      <trkpt lat="44.13204" lon="6.74372">
        <ele>1422.4851188832</ele>
        <time>2021-07-10T14:50:30Z</time>
      </trkpt>
      <trkpt lat="44.13204" lon="6.7437">
        <ele>1421.4851478054</ele>
        <time>2021-07-10T14:50:31Z</time>
      </trkpt>
      <trkpt lat="44.13205" lon="6.74368">
        <ele>1421.4851791668</ele>
        <time>2021-07-10T14:50:32Z</time>
      </trkpt>
      <trkpt lat="44.13205" lon="6.74365">
        <ele>1421.4852294386</ele>
        <time>2021-07-10T14:50:34Z</time>
      </trkpt>
      <trkpt lat="44.13205" lon="6.74363">
        <ele>1422.4852635896</ele>
        <time>2021-07-10T14:50:35Z</time>
      </trkpt>
      <trkpt lat="44.13205" lon="6.74361">
        <ele>1422.4853130591</ele>
        <time>2021-07-10T14:50:36Z</time>
      </trkpt>
      <trkpt lat="44.13204" lon="6.74358">
        <ele>1423.4853977827</ele>
        <time>2021-07-10T14:50:38Z</time>
      </trkpt>
      <trkpt lat="44.13203" lon="6.74355">
        <ele>1422.4854937147</ele>
        <time>2021-07-10T14:50:40Z</time>
      </trkpt>
      <trkpt lat="44.13203" lon="6.74353">
        <ele>1422.4855505959</ele>
        <time>2021-07-10T14:50:41Z</time>
      </trkpt>
      <trkpt lat="44.13203" lon="6.74351">
        <ele>1421.485598087</ele>
        <time>2021-07-10T14:50:42Z</time>
      </trkpt>
      <trkpt lat="44.13203" lon="6.74348">
        <ele>1421.4856651626</ele>
        <time>2021-07-10T14:50:44Z</time>
      </trkpt>
      <trkpt lat="44.13203" lon="6.74346">
        <ele>1421.4856904186</ele>
        <time>2021-07-10T14:50:45Z</time>
      </trkpt>
      <trkpt lat="44.13203" lon="6.74345">
        <ele>1420.485730311</ele>
        <time>2021-07-10T14:50:46Z</time>
      </trkpt>
      <trkpt lat="44.13203" lon="6.7434">
        <ele>1422.4858189018</ele>
        <time>2021-07-10T14:50:48Z</time>
      </trkpt>
      <trkpt lat="44.13203" lon="6.74338">
        <ele>1422.4858739886</ele>
        <time>2021-07-10T14:50:49Z</time>
      </trkpt>
      <trkpt lat="44.13202" lon="6.74337">
        <ele>1422.4859293376</ele>
        <time>2021-07-10T14:50:50Z</time>
      </trkpt>
      <trkpt lat="44.13202" lon="6.74335">
        <ele>1421.4859662071</ele>
        <time>2021-07-10T14:50:51Z</time>
      </trkpt>
      <trkpt lat="44.13201" lon="6.74333">
        <ele>1422.4860482929</ele>
        <time>2021-07-10T14:50:53Z</time>
      </trkpt>
      <trkpt lat="44.13201" lon="6.74331">
        <ele>1422.4860987597</ele>
        <time>2021-07-10T14:50:54Z</time>
      </trkpt>
      <trkpt lat="44.13201" lon="6.7433">
        <ele>1421.4861350203</ele>
        <time>2021-07-10T14:50:55Z</time>
      </trkpt>
      <trkpt lat="44.13201" lon="6.74328">
        <ele>1421.4861672784</ele>
        <time>2021-07-10T14:50:56Z</time>
      </trkpt>
      <trkpt lat="44.132" lon="6.74326">
        <ele>1421.4862130906</ele>
        <time>2021-07-10T14:50:58Z</time>
      </trkpt>
      <trkpt lat="44.132" lon="6.74326">
        <ele>1421.4862473025</ele>
        <time>2021-07-10T14:50:59Z</time>
      </trkpt>
      <trkpt lat="44.132" lon="6.74324">
        <ele>1421.4862811858</ele>
        <time>2021-07-10T14:51:00Z</time>
      </trkpt>
      <trkpt lat="44.132" lon="6.74323">
        <ele>1421.486311365</ele>
        <time>2021-07-10T14:51:01Z</time>
      </trkpt>
      <trkpt lat="44.13199" lon="6.74322">
        <ele>1422.4863487179</ele>
        <time>2021-07-10T14:51:02Z</time>
      </trkpt>
      <trkpt lat="44.13199" lon="6.74319">
        <ele>1422.4864199035</ele>
        <time>2021-07-10T14:51:04Z</time>
      </trkpt>
      <trkpt lat="44.13199" lon="6.74317">
        <ele>1422.4864825355</ele>
        <time>2021-07-10T14:51:05Z</time>
      </trkpt>
      <trkpt lat="44.13199" lon="6.74315">
        <ele>1422.486504647</ele>
        <time>2021-07-10T14:51:06Z</time>
      </trkpt>
      <trkpt lat="44.13199" lon="6.74313">
        <ele>1423.4865418199</ele>
        <time>2021-07-10T14:51:07Z</time>
      </trkpt>
      <trkpt lat="44.13199" lon="6.74311">
        <ele>1423.4865839311</ele>
        <time>2021-07-10T14:51:08Z</time>
      </trkpt>
      <trkpt lat="44.13199" lon="6.74309">
        <ele>1424.4866141778</ele>
        <time>2021-07-10T14:51:09Z</time>
      </trkpt>
      <trkpt lat="44.132" lon="6.74308">
        <ele>1423.4866392193</ele>
        <time>2021-07-10T14:51:10Z</time>
      </trkpt>
      <trkpt lat="44.132" lon="6.74306">
        <ele>1424.486670388</ele>
        <time>2021-07-10T14:51:11Z</time>
      </trkpt>
      <trkpt lat="44.132" lon="6.74304">
        <ele>1423.4866982907</ele>
        <time>2021-07-10T14:51:12Z</time>
      </trkpt>
      <trkpt lat="44.13201" lon="6.74302">
        <ele>1423.4867310988</ele>
        <time>2021-07-10T14:51:13Z</time>
      </trkpt>
      <trkpt lat="44.13201" lon="6.74299">
        <ele>1423.486762342</ele>
        <time>2021-07-10T14:51:14Z</time>
      </trkpt>
      <trkpt lat="44.13202" lon="6.74297">
        <ele>1423.4867840883</ele>
        <time>2021-07-10T14:51:15Z</time>
      </trkpt>
      <trkpt lat="44.13202" lon="6.74295">
        <ele>1423.4867894079</ele>
        <time>2021-07-10T14:51:16Z</time>
      </trkpt>
      <trkpt lat="44.13204" lon="6.74293">
        <ele>1422.4867871331</ele>
        <time>2021-07-10T14:51:17Z</time>
      </trkpt>
      <trkpt lat="44.13205" lon="6.74291">
        <ele>1422.4867965172</ele>
        <time>2021-07-10T14:51:18Z</time>
      </trkpt>
      <trkpt lat="44.13205" lon="6.74289">
        <ele>1421.4868121372</ele>
        <time>2021-07-10T14:51:19Z</time>
      </trkpt>
      <trkpt lat="44.13206" lon="6.74287">
        <ele>1421.4868151334</ele>
        <time>2021-07-10T14:51:20Z</time>
      </trkpt>
      <trkpt lat="44.13207" lon="6.74286">
        <ele>1421.4867929905</ele>
        <time>2021-07-10T14:51:21Z</time>
      </trkpt>
      <trkpt lat="44.13209" lon="6.74284">
        <ele>1421.4867850019</ele>
        <time>2021-07-10T14:51:23Z</time>
      </trkpt>
      <trkpt lat="44.1321" lon="6.74283">
        <ele>1421.486773497</ele>
        <time>2021-07-10T14:51:24Z</time>
      </trkpt>
      <trkpt lat="44.1321" lon="6.74281">
        <ele>1421.4867773957</ele>
        <time>2021-07-10T14:51:25Z</time>
      </trkpt>
      <trkpt lat="44.13211" lon="6.7428">
        <ele>1420.4867688944</ele>
        <time>2021-07-10T14:51:26Z</time>
      </trkpt>
      <trkpt lat="44.13213" lon="6.74277">
        <ele>1420.4867687774</ele>
        <time>2021-07-10T14:51:28Z</time>
      </trkpt>
      <trkpt lat="44.13214" lon="6.74275">
        <ele>1420.4867631282</ele>
        <time>2021-07-10T14:51:30Z</time>
      </trkpt>
      <trkpt lat="44.13215" lon="6.74273">
        <ele>1420.4867689311</ele>
        <time>2021-07-10T14:51:31Z</time>
      </trkpt>
      <trkpt lat="44.13216" lon="6.74271">
        <ele>1420.4867845369</ele>
        <time>2021-07-10T14:51:32Z</time>
      </trkpt>
      <trkpt lat="44.13219" lon="6.74269">
        <ele>1419.4867171381</ele>
        <time>2021-07-10T14:51:34Z</time>
      </trkpt>
      <trkpt lat="44.13219" lon="6.74268">
        <ele>1420.4867052841</ele>
        <time>2021-07-10T14:51:35Z</time>
      </trkpt>
      <trkpt lat="44.1322" lon="6.74267">
        <ele>1419.4866904049</ele>
        <time>2021-07-10T14:51:36Z</time>
      </trkpt>
      <trkpt lat="44.13222" lon="6.74264">
        <ele>1419.4866767058</ele>
        <time>2021-07-10T14:51:38Z</time>
      </trkpt>
      <trkpt lat="44.13224" lon="6.74262">
        <ele>1419.4866670491</ele>
        <time>2021-07-10T14:51:40Z</time>
      </trkpt>
      <trkpt lat="44.13225" lon="6.74261">
        <ele>1419.4866513558</ele>
        <time>2021-07-10T14:51:41Z</time>
      </trkpt>
      <trkpt lat="44.13226" lon="6.74259">
        <ele>1418.486641176</ele>
        <time>2021-07-10T14:51:42Z</time>
      </trkpt>
      <trkpt lat="44.13228" lon="6.74257">
        <ele>1419.486627165</ele>
        <time>2021-07-10T14:51:44Z</time>
      </trkpt>
      <trkpt lat="44.13229" lon="6.74256">
        <ele>1419.4866009745</ele>
        <time>2021-07-10T14:51:45Z</time>
      </trkpt>
      <trkpt lat="44.1323" lon="6.74255">
        <ele>1420.4865885088</ele>
        <time>2021-07-10T14:51:46Z</time>
      </trkpt>
      <trkpt lat="44.13231" lon="6.74254">
        <ele>1420.4865693489</ele>
        <time>2021-07-10T14:51:47Z</time>
      </trkpt>
      <trkpt lat="44.13232" lon="6.74251">
        <ele>1419.4865827258</ele>
        <time>2021-07-10T14:51:49Z</time>
      </trkpt>
      <trkpt lat="44.13233" lon="6.7425">
        <ele>1419.4865761525</ele>
        <time>2021-07-10T14:51:50Z</time>
      </trkpt>
      <trkpt lat="44.13234" lon="6.74249">
        <ele>1419.4865568129</ele>
        <time>2021-07-10T14:51:51Z</time>
      </trkpt>
      <trkpt lat="44.13234" lon="6.74248">
        <ele>1419.4865619023</ele>
        <time>2021-07-10T14:51:52Z</time>
      </trkpt>
      <trkpt lat="44.13236" lon="6.74245">
        <ele>1418.4865371649</ele>
        <time>2021-07-10T14:51:54Z</time>
      </trkpt>
      <trkpt lat="44.13237" lon="6.74244">
        <ele>1418.4865488725</ele>
        <time>2021-07-10T14:51:55Z</time>
      </trkpt>
      <trkpt lat="44.13238" lon="6.74242">
        <ele>1418.4865459169</ele>
        <time>2021-07-10T14:51:56Z</time>
      </trkpt>
      <trkpt lat="44.13239" lon="6.7424">
        <ele>1417.486523129</ele>
        <time>2021-07-10T14:51:58Z</time>
      </trkpt>
      <trkpt lat="44.13241" lon="6.74239">
        <ele>1417.486499693</ele>
        <time>2021-07-10T14:51:59Z</time>
      </trkpt>
      <trkpt lat="44.13241" lon="6.74239">
        <ele>1417.4864757579</ele>
        <time>2021-07-10T14:52:00Z</time>
      </trkpt>
      <trkpt lat="44.13243" lon="6.74238">
        <ele>1416.4864354305</ele>
        <time>2021-07-10T14:52:01Z</time>
      </trkpt>
      <trkpt lat="44.13244" lon="6.74237">
        <ele>1416.4864080733</ele>
        <time>2021-07-10T14:52:02Z</time>
      </trkpt>
      <trkpt lat="44.13247" lon="6.74236">
        <ele>1417.4863399751</ele>
        <time>2021-07-10T14:52:04Z</time>
      </trkpt>
      <trkpt lat="44.13248" lon="6.74235">
        <ele>1417.4863042695</ele>
        <time>2021-07-10T14:52:05Z</time>
      </trkpt>
      <trkpt lat="44.13249" lon="6.74235">
        <ele>1417.4862583421</ele>
        <time>2021-07-10T14:52:06Z</time>
      </trkpt>
      <trkpt lat="44.1325" lon="6.74235">
        <ele>1417.4862273341</ele>
        <time>2021-07-10T14:52:07Z</time>
      </trkpt>
      <trkpt lat="44.13251" lon="6.74234">
        <ele>1416.4862025749</ele>
        <time>2021-07-10T14:52:08Z</time>
      </trkpt>
      <trkpt lat="44.13253" lon="6.74233">
        <ele>1416.486127052</ele>
        <time>2021-07-10T14:52:10Z</time>
      </trkpt>
      <trkpt lat="44.13254" lon="6.74233">
        <ele>1415.4860903031</ele>
        <time>2021-07-10T14:52:11Z</time>
      </trkpt>
      <trkpt lat="44.13255" lon="6.74233">
        <ele>1415.4860590191</ele>
        <time>2021-07-10T14:52:12Z</time>
      </trkpt>
      <trkpt lat="44.13257" lon="6.74232">
        <ele>1415.4860294604</ele>
        <time>2021-07-10T14:52:13Z</time>
      </trkpt>
      <trkpt lat="44.13258" lon="6.74232">
        <ele>1415.4859880862</ele>
        <time>2021-07-10T14:52:14Z</time>
      </trkpt>
      <trkpt lat="44.13259" lon="6.74231">
        <ele>1415.4859398682</ele>
        <time>2021-07-10T14:52:15Z</time>
      </trkpt>
      <trkpt lat="44.13261" lon="6.74231">
        <ele>1415.4858919221</ele>
        <time>2021-07-10T14:52:16Z</time>
      </trkpt>
      <trkpt lat="44.13262" lon="6.7423">
        <ele>1415.4858435108</ele>
        <time>2021-07-10T14:52:17Z</time>
      </trkpt>
      <trkpt lat="44.13264" lon="6.74229">
        <ele>1415.4858070073</ele>
        <time>2021-07-10T14:52:18Z</time>
      </trkpt>
      <trkpt lat="44.13265" lon="6.74228">
        <ele>1415.4857627666</ele>
        <time>2021-07-10T14:52:19Z</time>
      </trkpt>
      <trkpt lat="44.13267" lon="6.74227">
        <ele>1416.485736987</ele>
        <time>2021-07-10T14:52:20Z</time>
      </trkpt>
      <trkpt lat="44.13268" lon="6.74227">
        <ele>1416.4856866888</ele>
        <time>2021-07-10T14:52:21Z</time>
      </trkpt>
      <trkpt lat="44.1327" lon="6.74226">
        <ele>1416.4856336391</ele>
        <time>2021-07-10T14:52:22Z</time>
      </trkpt>
      <trkpt lat="44.13271" lon="6.74225">
        <ele>1416.4855948589</ele>
        <time>2021-07-10T14:52:23Z</time>
      </trkpt>
      <trkpt lat="44.13273" lon="6.74225">
        <ele>1416.4855502706</ele>
        <time>2021-07-10T14:52:24Z</time>
      </trkpt>
      <trkpt lat="44.13275" lon="6.74224">
        <ele>1416.4854972448</ele>
        <time>2021-07-10T14:52:25Z</time>
      </trkpt>
      <trkpt lat="44.13277" lon="6.74224">
        <ele>1416.485433929</ele>
        <time>2021-07-10T14:52:26Z</time>
      </trkpt>
      <trkpt lat="44.13278" lon="6.74223">
        <ele>1416.4853894059</ele>
        <time>2021-07-10T14:52:27Z</time>
      </trkpt>
      <trkpt lat="44.13279" lon="6.74222">
        <ele>1416.4853666037</ele>
        <time>2021-07-10T14:52:28Z</time>
      </trkpt>
      <trkpt lat="44.1328" lon="6.74222">
        <ele>1416.485327164</ele>
        <time>2021-07-10T14:52:29Z</time>
      </trkpt>
      <trkpt lat="44.13281" lon="6.74221">
        <ele>1416.4852948415</ele>
        <time>2021-07-10T14:52:30Z</time>
      </trkpt>
      <trkpt lat="44.13283" lon="6.74221">
        <ele>1416.4852584605</ele>
        <time>2021-07-10T14:52:31Z</time>
      </trkpt>
      <trkpt lat="44.13284" lon="6.7422">
        <ele>1416.4852161777</ele>
        <time>2021-07-10T14:52:32Z</time>
      </trkpt>
      <trkpt lat="44.13285" lon="6.7422">
        <ele>1417.4851763482</ele>
        <time>2021-07-10T14:52:33Z</time>
      </trkpt>
      <trkpt lat="44.13286" lon="6.74219">
        <ele>1417.4851386453</ele>
        <time>2021-07-10T14:52:34Z</time>
      </trkpt>
      <trkpt lat="44.13288" lon="6.74219">
        <ele>1418.4851053619</ele>
        <time>2021-07-10T14:52:35Z</time>
      </trkpt>
      <trkpt lat="44.13288" lon="6.74218">
        <ele>1418.4851060196</ele>
        <time>2021-07-10T14:52:37Z</time>
      </trkpt>
      <trkpt lat="44.13288" lon="6.74218">
        <ele>1416.4851332285</ele>
        <time>2021-07-10T14:52:40Z</time>
      </trkpt>
      <trkpt lat="44.13289" lon="6.74217">
        <ele>1417.4851098737</ele>
        <time>2021-07-10T14:52:41Z</time>
      </trkpt>
      <trkpt lat="44.1329" lon="6.74217">
        <ele>1417.4850734631</ele>
        <time>2021-07-10T14:52:42Z</time>
      </trkpt>
      <trkpt lat="44.13291" lon="6.74216">
        <ele>1417.4850358419</ele>
        <time>2021-07-10T14:52:43Z</time>
      </trkpt>
      <trkpt lat="44.13292" lon="6.74216">
        <ele>1417.4850031956</ele>
        <time>2021-07-10T14:52:44Z</time>
      </trkpt>
      <trkpt lat="44.13293" lon="6.74216">
        <ele>1417.4849570897</ele>
        <time>2021-07-10T14:52:45Z</time>
      </trkpt>
      <trkpt lat="44.13294" lon="6.74217">
        <ele>1417.484903947</ele>
        <time>2021-07-10T14:52:46Z</time>
      </trkpt>
      <trkpt lat="44.13295" lon="6.74217">
        <ele>1417.4848535564</ele>
        <time>2021-07-10T14:52:47Z</time>
      </trkpt>
      <trkpt lat="44.13296" lon="6.74217">
        <ele>1417.4848058648</ele>
        <time>2021-07-10T14:52:48Z</time>
      </trkpt>
      <trkpt lat="44.13299" lon="6.74218">
        <ele>1418.4846874119</ele>
        <time>2021-07-10T14:52:50Z</time>
      </trkpt>
      <trkpt lat="44.133" lon="6.74218">
        <ele>1418.4846436797</ele>
        <time>2021-07-10T14:52:51Z</time>
      </trkpt>
      <trkpt lat="44.13301" lon="6.74218">
        <ele>1418.4845886646</ele>
        <time>2021-07-10T14:52:52Z</time>
      </trkpt>
      <trkpt lat="44.13303" lon="6.74219">
        <ele>1418.4844929465</ele>
        <time>2021-07-10T14:52:54Z</time>
      </trkpt>
      <trkpt lat="44.13305" lon="6.74219">
        <ele>1419.4844474263</ele>
        <time>2021-07-10T14:52:55Z</time>
      </trkpt>
      <trkpt lat="44.13306" lon="6.74219">
        <ele>1420.4843922662</ele>
        <time>2021-07-10T14:52:56Z</time>
      </trkpt>
      <trkpt lat="44.13308" lon="6.74219">
        <ele>1421.48430362</ele>
        <time>2021-07-10T14:52:58Z</time>
      </trkpt>
      <trkpt lat="44.1331" lon="6.74219">
        <ele>1421.4842528518</ele>
        <time>2021-07-10T14:52:59Z</time>
      </trkpt>
      <trkpt lat="44.13311" lon="6.74219">
        <ele>1421.4842048647</ele>
        <time>2021-07-10T14:53:00Z</time>
      </trkpt>
      <trkpt lat="44.13312" lon="6.74219">
        <ele>1422.4841533562</ele>
        <time>2021-07-10T14:53:01Z</time>
      </trkpt>
      <trkpt lat="44.13313" lon="6.7422">
        <ele>1422.4840830177</ele>
        <time>2021-07-10T14:53:02Z</time>
      </trkpt>
      <trkpt lat="44.13316" lon="6.74223">
        <ele>1423.4839404087</ele>
        <time>2021-07-10T14:53:04Z</time>
      </trkpt>
      <trkpt lat="44.13317" lon="6.74224">
        <ele>1423.483862751</ele>
        <time>2021-07-10T14:53:05Z</time>
      </trkpt>
      <trkpt lat="44.13318" lon="6.74225">
        <ele>1423.4837952867</ele>
        <time>2021-07-10T14:53:06Z</time>
      </trkpt>
      <trkpt lat="44.1332" lon="6.74228">
        <ele>1424.4836703025</ele>
        <time>2021-07-10T14:53:08Z</time>
      </trkpt>
      <trkpt lat="44.13321" lon="6.7423">
        <ele>1424.4835547449</ele>
        <time>2021-07-10T14:53:10Z</time>
      </trkpt>
      <trkpt lat="44.13322" lon="6.74232">
        <ele>1424.4835134552</ele>
        <time>2021-07-10T14:53:11Z</time>
      </trkpt>
      <trkpt lat="44.13322" lon="6.74234">
        <ele>1425.4834505571</ele>
        <time>2021-07-10T14:53:12Z</time>
      </trkpt>
      <trkpt lat="44.13323" lon="6.74237">
        <ele>1426.4833634404</ele>
        <time>2021-07-10T14:53:14Z</time>
      </trkpt>
      <trkpt lat="44.13323" lon="6.74238">
        <ele>1426.4833349986</ele>
        <time>2021-07-10T14:53:15Z</time>
      </trkpt>
      <trkpt lat="44.13322" lon="6.74239">
        <ele>1426.4833327029</ele>
        <time>2021-07-10T14:53:16Z</time>
      </trkpt>
      <trkpt lat="44.13322" lon="6.7424">
        <ele>1426.4833053835</ele>
        <time>2021-07-10T14:53:18Z</time>
      </trkpt>
      <trkpt lat="44.13322" lon="6.74241">
        <ele>1426.4833021689</ele>
        <time>2021-07-10T14:53:42Z</time>
      </trkpt>
      <trkpt lat="44.13322" lon="6.74241">
        <ele>1426.4833021689</ele>
        <time>2021-07-10T14:53:42Z</time>
      </trkpt>
    </trkseg>
  </trk>
</gpx>